<?xml version="1.0" encoding="UTF-8" standalone="no" ?>
<gpx xmlns="http://www.topografix.com/GPX/1/1" xmlns:xsi="http://www.w3.org/2001/XMLSchema-instance" xsi:schemaLocation="http://www.topografix.com/GPX/1/1 http://www.topografix.com/GPX/1/1/gpx.xsd" version="1.1" creator="VisuGPX - https://www.visugpx.com">
  <metadata>
    <name>Pierre plate &amp; Vaudois</name>
    <desc><![CDATA[Pierre plate & Vaudois]]></desc>
  </metadata>
  <wpt lat="47.49567" lon="6.75763">
    <ele>335</ele>
    <name><![CDATA[Point de cheminement 1]]></name>
    <desc><![CDATA[]]></desc>
  </wpt>
  <wpt lat="47.49944" lon="6.75745">
    <ele>370</ele>
    <name><![CDATA[Point de cheminement 2]]></name>
    <desc><![CDATA[]]></desc>
  </wpt>
  <wpt lat="47.51995" lon="6.77531">
    <ele>390</ele>
    <name><![CDATA[Point de cheminement 3]]></name>
    <desc><![CDATA[]]></desc>
  </wpt>
  <wpt lat="47.5378" lon="6.76831">
    <ele>425</ele>
    <name><![CDATA[Point de cheminement 4]]></name>
    <desc><![CDATA[]]></desc>
  </wpt>
  <wpt lat="47.55201" lon="6.74398">
    <ele>448</ele>
    <name><![CDATA[Point de cheminement 5]]></name>
    <desc><![CDATA[]]></desc>
  </wpt>
  <wpt lat="47.56997" lon="6.72714">
    <ele>398</ele>
    <name><![CDATA[Point de cheminement 6]]></name>
    <desc><![CDATA[]]></desc>
  </wpt>
  <wpt lat="47.58087" lon="6.71758">
    <ele>492</ele>
    <name><![CDATA[Point de cheminement 7]]></name>
    <desc><![CDATA[]]></desc>
  </wpt>
  <wpt lat="47.58367" lon="6.73623">
    <ele>351</ele>
    <name><![CDATA[Point de cheminement 8]]></name>
    <desc><![CDATA[]]></desc>
  </wpt>
  <wpt lat="47.58526" lon="6.74545">
    <ele>353</ele>
    <name><![CDATA[Point de cheminement 9]]></name>
    <desc><![CDATA[]]></desc>
  </wpt>
  <wpt lat="47.59324" lon="6.75618">
    <ele>503</ele>
    <name><![CDATA[Point de cheminement 10]]></name>
    <desc><![CDATA[]]></desc>
  </wpt>
  <wpt lat="47.59167" lon="6.77116">
    <ele>428</ele>
    <name><![CDATA[Point de cheminement 11]]></name>
    <desc><![CDATA[]]></desc>
  </wpt>
  <wpt lat="47.57789" lon="6.79238">
    <ele>394</ele>
    <name><![CDATA[Point de cheminement 12]]></name>
    <desc><![CDATA[]]></desc>
  </wpt>
  <wpt lat="47.54615" lon="6.78019">
    <ele>327</ele>
    <name><![CDATA[Point de cheminement 13]]></name>
    <desc><![CDATA[]]></desc>
  </wpt>
  <wpt lat="47.5195" lon="6.77525">
    <ele>390</ele>
    <name><![CDATA[Point de cheminement 14]]></name>
    <desc><![CDATA[]]></desc>
  </wpt>
  <trk>
    <name><![CDATA[Rue Antoine Coysevox]]></name>
    <desc><![CDATA[]]></desc>
    <trkseg>
      <trkpt lat="47.51794" lon="6.7748">
        <ele>388</ele>
        <time>2015-11-01T07:44:36.662Z</time>
      </trkpt>
      <trkpt lat="47.51803" lon="6.77492">
        <ele>388</ele>
        <time>2015-11-01T07:44:37.715Z</time>
      </trkpt>
      <trkpt lat="47.51805" lon="6.77488">
        <ele>388</ele>
        <time>2015-11-01T07:44:38.736Z</time>
      </trkpt>
      <trkpt lat="47.51796" lon="6.77456">
        <ele>388</ele>
        <time>2015-11-01T07:44:39.734Z</time>
      </trkpt>
      <trkpt lat="47.51792" lon="6.77454">
        <ele>388</ele>
        <time>2015-11-01T07:44:41.739Z</time>
      </trkpt>
      <trkpt lat="47.51808" lon="6.77478">
        <ele>388</ele>
        <time>2015-11-01T07:44:42.732Z</time>
      </trkpt>
      <trkpt lat="47.51791" lon="6.77453">
        <ele>388</ele>
        <time>2015-11-01T07:44:43.732Z</time>
      </trkpt>
      <trkpt lat="47.51802" lon="6.77457">
        <ele>388</ele>
        <time>2015-11-01T07:44:44.732Z</time>
      </trkpt>
      <trkpt lat="47.51799" lon="6.77453">
        <ele>388</ele>
        <time>2015-11-01T07:44:45.732Z</time>
      </trkpt>
      <trkpt lat="47.51668" lon="6.77144">
        <ele>380</ele>
        <time>2015-11-01T07:44:46.732Z</time>
      </trkpt>
      <trkpt lat="47.51617" lon="6.77276">
        <ele>382</ele>
        <time>2015-11-01T07:44:47.732Z</time>
      </trkpt>
      <trkpt lat="47.51648" lon="6.77284">
        <ele>382</ele>
        <time>2015-11-01T07:44:48.732Z</time>
      </trkpt>
      <trkpt lat="47.51727" lon="6.77311">
        <ele>385</ele>
        <time>2015-11-01T07:44:49.732Z</time>
      </trkpt>
      <trkpt lat="47.51739" lon="6.77337">
        <ele>386</ele>
        <time>2015-11-01T07:44:50.732Z</time>
      </trkpt>
      <trkpt lat="47.51802" lon="6.77481">
        <ele>388</ele>
        <time>2015-11-01T07:44:51.000Z</time>
      </trkpt>
      <trkpt lat="47.51805" lon="6.77477">
        <ele>388</ele>
        <time>2015-11-01T07:45:25.000Z</time>
      </trkpt>
      <trkpt lat="47.51805" lon="6.77477">
        <ele>388</ele>
        <time>2015-11-01T07:45:26.000Z</time>
      </trkpt>
      <trkpt lat="47.51806" lon="6.77478">
        <ele>388</ele>
        <time>2015-11-01T07:48:15.000Z</time>
      </trkpt>
      <trkpt lat="47.51802" lon="6.77495">
        <ele>388</ele>
        <time>2015-11-01T07:48:16.000Z</time>
      </trkpt>
      <trkpt lat="47.51804" lon="6.77497">
        <ele>388</ele>
        <time>2015-11-01T07:48:23.000Z</time>
      </trkpt>
      <trkpt lat="47.51806" lon="6.7749">
        <ele>388</ele>
        <time>2015-11-01T07:48:24.000Z</time>
      </trkpt>
      <trkpt lat="47.51807" lon="6.77494">
        <ele>388</ele>
        <time>2015-11-01T07:48:25.000Z</time>
      </trkpt>
      <trkpt lat="47.51809" lon="6.77497">
        <ele>388</ele>
        <time>2015-11-01T07:48:26.000Z</time>
      </trkpt>
      <trkpt lat="47.51809" lon="6.77502">
        <ele>389</ele>
        <time>2015-11-01T07:48:28.000Z</time>
      </trkpt>
      <trkpt lat="47.51807" lon="6.77503">
        <ele>389</ele>
        <time>2015-11-01T07:48:29.000Z</time>
      </trkpt>
      <trkpt lat="47.51804" lon="6.77504">
        <ele>389</ele>
        <time>2015-11-01T07:48:30.000Z</time>
      </trkpt>
      <trkpt lat="47.51801" lon="6.77505">
        <ele>389</ele>
        <time>2015-11-01T07:48:31.000Z</time>
      </trkpt>
      <trkpt lat="47.51798" lon="6.77504">
        <ele>389</ele>
        <time>2015-11-01T07:48:32.000Z</time>
      </trkpt>
      <trkpt lat="47.51795" lon="6.77504">
        <ele>389</ele>
        <time>2015-11-01T07:48:33.000Z</time>
      </trkpt>
      <trkpt lat="47.51792" lon="6.77503">
        <ele>389</ele>
        <time>2015-11-01T07:48:34.000Z</time>
      </trkpt>
      <trkpt lat="47.51789" lon="6.77503">
        <ele>389</ele>
        <time>2015-11-01T07:48:35.000Z</time>
      </trkpt>
      <trkpt lat="47.51786" lon="6.77502">
        <ele>389</ele>
        <time>2015-11-01T07:48:36.000Z</time>
      </trkpt>
      <trkpt lat="47.51784" lon="6.77501">
        <ele>389</ele>
        <time>2015-11-01T07:48:37.000Z</time>
      </trkpt>
      <trkpt lat="47.51781" lon="6.77498">
        <ele>388</ele>
        <time>2015-11-01T07:48:39.000Z</time>
      </trkpt>
      <trkpt lat="47.51778" lon="6.77497">
        <ele>388</ele>
        <time>2015-11-01T07:48:40.000Z</time>
      </trkpt>
      <trkpt lat="47.51775" lon="6.77496">
        <ele>389</ele>
        <time>2015-11-01T07:48:41.000Z</time>
      </trkpt>
      <trkpt lat="47.51772" lon="6.77495">
        <ele>389</ele>
        <time>2015-11-01T07:48:42.000Z</time>
      </trkpt>
      <trkpt lat="47.51769" lon="6.77494">
        <ele>389</ele>
        <time>2015-11-01T07:48:43.000Z</time>
      </trkpt>
      <trkpt lat="47.51765" lon="6.77494">
        <ele>389</ele>
        <time>2015-11-01T07:48:44.000Z</time>
      </trkpt>
      <trkpt lat="47.51762" lon="6.77494">
        <ele>389</ele>
        <time>2015-11-01T07:48:45.000Z</time>
      </trkpt>
      <trkpt lat="47.51758" lon="6.77494">
        <ele>389</ele>
        <time>2015-11-01T07:48:46.000Z</time>
      </trkpt>
      <trkpt lat="47.51755" lon="6.77494">
        <ele>389</ele>
        <time>2015-11-01T07:48:47.000Z</time>
      </trkpt>
      <trkpt lat="47.51751" lon="6.77493">
        <ele>389</ele>
        <time>2015-11-01T07:48:48.000Z</time>
      </trkpt>
      <trkpt lat="47.51748" lon="6.77491">
        <ele>389</ele>
        <time>2015-11-01T07:48:49.000Z</time>
      </trkpt>
      <trkpt lat="47.51745" lon="6.7749">
        <ele>389</ele>
        <time>2015-11-01T07:48:50.000Z</time>
      </trkpt>
      <trkpt lat="47.51741" lon="6.77488">
        <ele>389</ele>
        <time>2015-11-01T07:48:51.000Z</time>
      </trkpt>
      <trkpt lat="47.51738" lon="6.77488">
        <ele>389</ele>
        <time>2015-11-01T07:48:52.000Z</time>
      </trkpt>
      <trkpt lat="47.51736" lon="6.77488">
        <ele>389</ele>
        <time>2015-11-01T07:48:53.000Z</time>
      </trkpt>
      <trkpt lat="47.51733" lon="6.7749">
        <ele>389</ele>
        <time>2015-11-01T07:48:54.000Z</time>
      </trkpt>
      <trkpt lat="47.51731" lon="6.77492">
        <ele>389</ele>
        <time>2015-11-01T07:48:55.000Z</time>
      </trkpt>
      <trkpt lat="47.5173" lon="6.77496">
        <ele>389</ele>
        <time>2015-11-01T07:48:56.000Z</time>
      </trkpt>
      <trkpt lat="47.51729" lon="6.775">
        <ele>390</ele>
        <time>2015-11-01T07:48:57.000Z</time>
      </trkpt>
      <trkpt lat="47.51728" lon="6.77506">
        <ele>390</ele>
        <time>2015-11-01T07:48:58.000Z</time>
      </trkpt>
      <trkpt lat="47.51727" lon="6.77512">
        <ele>390</ele>
        <time>2015-11-01T07:48:59.000Z</time>
      </trkpt>
      <trkpt lat="47.51726" lon="6.77518">
        <ele>390</ele>
        <time>2015-11-01T07:49:00.000Z</time>
      </trkpt>
      <trkpt lat="47.51725" lon="6.77523">
        <ele>390</ele>
        <time>2015-11-01T07:49:01.000Z</time>
      </trkpt>
      <trkpt lat="47.51723" lon="6.77529">
        <ele>390</ele>
        <time>2015-11-01T07:49:02.000Z</time>
      </trkpt>
      <trkpt lat="47.51721" lon="6.77534">
        <ele>390</ele>
        <time>2015-11-01T07:49:03.000Z</time>
      </trkpt>
      <trkpt lat="47.5172" lon="6.7754">
        <ele>390</ele>
        <time>2015-11-01T07:49:04.000Z</time>
      </trkpt>
      <trkpt lat="47.51718" lon="6.77545">
        <ele>390</ele>
        <time>2015-11-01T07:49:05.000Z</time>
      </trkpt>
      <trkpt lat="47.51717" lon="6.7755">
        <ele>390</ele>
        <time>2015-11-01T07:49:06.000Z</time>
      </trkpt>
      <trkpt lat="47.51716" lon="6.77554">
        <ele>390</ele>
        <time>2015-11-01T07:49:07.000Z</time>
      </trkpt>
      <trkpt lat="47.51714" lon="6.77558">
        <ele>390</ele>
        <time>2015-11-01T07:49:08.000Z</time>
      </trkpt>
      <trkpt lat="47.51712" lon="6.77561">
        <ele>390</ele>
        <time>2015-11-01T07:49:09.000Z</time>
      </trkpt>
      <trkpt lat="47.51709" lon="6.77563">
        <ele>390</ele>
        <time>2015-11-01T07:49:10.000Z</time>
      </trkpt>
      <trkpt lat="47.51706" lon="6.77563">
        <ele>390</ele>
        <time>2015-11-01T07:49:11.000Z</time>
      </trkpt>
      <trkpt lat="47.51702" lon="6.7756">
        <ele>390</ele>
        <time>2015-11-01T07:49:12.000Z</time>
      </trkpt>
      <trkpt lat="47.51698" lon="6.77556">
        <ele>390</ele>
        <time>2015-11-01T07:49:13.000Z</time>
      </trkpt>
      <trkpt lat="47.51694" lon="6.77546">
        <ele>390</ele>
        <time>2015-11-01T07:49:14.000Z</time>
      </trkpt>
      <trkpt lat="47.51689" lon="6.77541">
        <ele>390</ele>
        <time>2015-11-01T07:49:15.000Z</time>
      </trkpt>
      <trkpt lat="47.51685" lon="6.77537">
        <ele>390</ele>
        <time>2015-11-01T07:49:16.000Z</time>
      </trkpt>
      <trkpt lat="47.51681" lon="6.77533">
        <ele>390</ele>
        <time>2015-11-01T07:49:17.000Z</time>
      </trkpt>
      <trkpt lat="47.51677" lon="6.77528">
        <ele>390</ele>
        <time>2015-11-01T07:49:18.000Z</time>
      </trkpt>
      <trkpt lat="47.51673" lon="6.77524">
        <ele>390</ele>
        <time>2015-11-01T07:49:19.000Z</time>
      </trkpt>
      <trkpt lat="47.51669" lon="6.77519">
        <ele>389</ele>
        <time>2015-11-01T07:49:20.000Z</time>
      </trkpt>
      <trkpt lat="47.51665" lon="6.77514">
        <ele>388</ele>
        <time>2015-11-01T07:49:21.000Z</time>
      </trkpt>
      <trkpt lat="47.5166" lon="6.77508">
        <ele>388</ele>
        <time>2015-11-01T07:49:22.000Z</time>
      </trkpt>
      <trkpt lat="47.51656" lon="6.77504">
        <ele>388</ele>
        <time>2015-11-01T07:49:23.000Z</time>
      </trkpt>
      <trkpt lat="47.51651" lon="6.77499">
        <ele>387</ele>
        <time>2015-11-01T07:49:24.000Z</time>
      </trkpt>
      <trkpt lat="47.51647" lon="6.77493">
        <ele>387</ele>
        <time>2015-11-01T07:49:25.000Z</time>
      </trkpt>
      <trkpt lat="47.51642" lon="6.77488">
        <ele>387</ele>
        <time>2015-11-01T07:49:26.000Z</time>
      </trkpt>
      <trkpt lat="47.51638" lon="6.77482">
        <ele>386</ele>
        <time>2015-11-01T07:49:27.000Z</time>
      </trkpt>
      <trkpt lat="47.51633" lon="6.77475">
        <ele>386</ele>
        <time>2015-11-01T07:49:28.000Z</time>
      </trkpt>
      <trkpt lat="47.51629" lon="6.77469">
        <ele>386</ele>
        <time>2015-11-01T07:49:29.000Z</time>
      </trkpt>
      <trkpt lat="47.51623" lon="6.77463">
        <ele>386</ele>
        <time>2015-11-01T07:49:30.000Z</time>
      </trkpt>
      <trkpt lat="47.51618" lon="6.77457">
        <ele>386</ele>
        <time>2015-11-01T07:49:31.000Z</time>
      </trkpt>
      <trkpt lat="47.51613" lon="6.77451">
        <ele>385</ele>
        <time>2015-11-01T07:49:32.000Z</time>
      </trkpt>
      <trkpt lat="47.51608" lon="6.77444">
        <ele>385</ele>
        <time>2015-11-01T07:49:33.000Z</time>
      </trkpt>
      <trkpt lat="47.51602" lon="6.77437">
        <ele>385</ele>
        <time>2015-11-01T07:49:34.000Z</time>
      </trkpt>
      <trkpt lat="47.51597" lon="6.7743">
        <ele>384</ele>
        <time>2015-11-01T07:49:35.000Z</time>
      </trkpt>
      <trkpt lat="47.51593" lon="6.77423">
        <ele>384</ele>
        <time>2015-11-01T07:49:36.000Z</time>
      </trkpt>
      <trkpt lat="47.51587" lon="6.77416">
        <ele>383</ele>
        <time>2015-11-01T07:49:37.000Z</time>
      </trkpt>
      <trkpt lat="47.51582" lon="6.77408">
        <ele>382</ele>
        <time>2015-11-01T07:49:38.000Z</time>
      </trkpt>
      <trkpt lat="47.51576" lon="6.77402">
        <ele>382</ele>
        <time>2015-11-01T07:49:39.000Z</time>
      </trkpt>
      <trkpt lat="47.51571" lon="6.77394">
        <ele>381</ele>
        <time>2015-11-01T07:49:40.000Z</time>
      </trkpt>
      <trkpt lat="47.51565" lon="6.77387">
        <ele>381</ele>
        <time>2015-11-01T07:49:41.000Z</time>
      </trkpt>
      <trkpt lat="47.5156" lon="6.7738">
        <ele>381</ele>
        <time>2015-11-01T07:49:42.000Z</time>
      </trkpt>
      <trkpt lat="47.51554" lon="6.77372">
        <ele>381</ele>
        <time>2015-11-01T07:49:43.000Z</time>
      </trkpt>
      <trkpt lat="47.51547" lon="6.77363">
        <ele>380</ele>
        <time>2015-11-01T07:49:44.000Z</time>
      </trkpt>
      <trkpt lat="47.5154" lon="6.77355">
        <ele>380</ele>
        <time>2015-11-01T07:49:45.000Z</time>
      </trkpt>
      <trkpt lat="47.51533" lon="6.77347">
        <ele>380</ele>
        <time>2015-11-01T07:49:46.000Z</time>
      </trkpt>
      <trkpt lat="47.51526" lon="6.77339">
        <ele>380</ele>
        <time>2015-11-01T07:49:47.000Z</time>
      </trkpt>
      <trkpt lat="47.51518" lon="6.77332">
        <ele>378</ele>
        <time>2015-11-01T07:49:48.000Z</time>
      </trkpt>
      <trkpt lat="47.5151" lon="6.77324">
        <ele>378</ele>
        <time>2015-11-01T07:49:49.000Z</time>
      </trkpt>
      <trkpt lat="47.51504" lon="6.77314">
        <ele>378</ele>
        <time>2015-11-01T07:49:50.000Z</time>
      </trkpt>
      <trkpt lat="47.51501" lon="6.77302">
        <ele>378</ele>
        <time>2015-11-01T07:49:51.000Z</time>
      </trkpt>
      <trkpt lat="47.515" lon="6.77289">
        <ele>377</ele>
        <time>2015-11-01T07:49:52.000Z</time>
      </trkpt>
      <trkpt lat="47.51498" lon="6.77275">
        <ele>377</ele>
        <time>2015-11-01T07:49:53.000Z</time>
      </trkpt>
      <trkpt lat="47.51497" lon="6.77263">
        <ele>376</ele>
        <time>2015-11-01T07:49:54.000Z</time>
      </trkpt>
      <trkpt lat="47.51496" lon="6.77251">
        <ele>376</ele>
        <time>2015-11-01T07:49:55.000Z</time>
      </trkpt>
      <trkpt lat="47.51496" lon="6.77239">
        <ele>376</ele>
        <time>2015-11-01T07:49:56.000Z</time>
      </trkpt>
      <trkpt lat="47.51496" lon="6.77228">
        <ele>375</ele>
        <time>2015-11-01T07:49:57.000Z</time>
      </trkpt>
      <trkpt lat="47.51494" lon="6.77218">
        <ele>375</ele>
        <time>2015-11-01T07:49:58.000Z</time>
      </trkpt>
      <trkpt lat="47.51491" lon="6.77212">
        <ele>375</ele>
        <time>2015-11-01T07:49:59.000Z</time>
      </trkpt>
      <trkpt lat="47.51485" lon="6.77209">
        <ele>375</ele>
        <time>2015-11-01T07:50:00.000Z</time>
      </trkpt>
      <trkpt lat="47.51477" lon="6.77208">
        <ele>375</ele>
        <time>2015-11-01T07:50:01.000Z</time>
      </trkpt>
      <trkpt lat="47.5147" lon="6.77209">
        <ele>375</ele>
        <time>2015-11-01T07:50:02.000Z</time>
      </trkpt>
      <trkpt lat="47.51461" lon="6.77213">
        <ele>375</ele>
        <time>2015-11-01T07:50:03.000Z</time>
      </trkpt>
      <trkpt lat="47.51451" lon="6.77217">
        <ele>375</ele>
        <time>2015-11-01T07:50:04.000Z</time>
      </trkpt>
      <trkpt lat="47.51442" lon="6.77223">
        <ele>375</ele>
        <time>2015-11-01T07:50:05.000Z</time>
      </trkpt>
      <trkpt lat="47.51433" lon="6.77227">
        <ele>375</ele>
        <time>2015-11-01T07:50:06.000Z</time>
      </trkpt>
      <trkpt lat="47.51425" lon="6.77231">
        <ele>375</ele>
        <time>2015-11-01T07:50:07.000Z</time>
      </trkpt>
      <trkpt lat="47.51418" lon="6.77235">
        <ele>376</ele>
        <time>2015-11-01T07:50:08.000Z</time>
      </trkpt>
      <trkpt lat="47.5141" lon="6.77239">
        <ele>376</ele>
        <time>2015-11-01T07:50:09.000Z</time>
      </trkpt>
      <trkpt lat="47.51403" lon="6.77243">
        <ele>376</ele>
        <time>2015-11-01T07:50:10.000Z</time>
      </trkpt>
      <trkpt lat="47.51397" lon="6.77247">
        <ele>376</ele>
        <time>2015-11-01T07:50:11.000Z</time>
      </trkpt>
      <trkpt lat="47.5139" lon="6.7725">
        <ele>377</ele>
        <time>2015-11-01T07:50:12.000Z</time>
      </trkpt>
      <trkpt lat="47.51384" lon="6.77254">
        <ele>377</ele>
        <time>2015-11-01T07:50:13.000Z</time>
      </trkpt>
      <trkpt lat="47.51379" lon="6.77258">
        <ele>377</ele>
        <time>2015-11-01T07:50:14.000Z</time>
      </trkpt>
      <trkpt lat="47.51373" lon="6.77261">
        <ele>378</ele>
        <time>2015-11-01T07:50:15.000Z</time>
      </trkpt>
      <trkpt lat="47.51369" lon="6.77264">
        <ele>378</ele>
        <time>2015-11-01T07:50:16.000Z</time>
      </trkpt>
      <trkpt lat="47.51365" lon="6.77269">
        <ele>378</ele>
        <time>2015-11-01T07:50:17.000Z</time>
      </trkpt>
      <trkpt lat="47.5136" lon="6.77272">
        <ele>378</ele>
        <time>2015-11-01T07:50:18.000Z</time>
      </trkpt>
      <trkpt lat="47.51356" lon="6.77275">
        <ele>378</ele>
        <time>2015-11-01T07:50:19.000Z</time>
      </trkpt>
      <trkpt lat="47.51352" lon="6.77278">
        <ele>378</ele>
        <time>2015-11-01T07:50:20.000Z</time>
      </trkpt>
      <trkpt lat="47.51348" lon="6.77281">
        <ele>378</ele>
        <time>2015-11-01T07:50:21.000Z</time>
      </trkpt>
      <trkpt lat="47.51345" lon="6.77284">
        <ele>378</ele>
        <time>2015-11-01T07:50:22.000Z</time>
      </trkpt>
      <trkpt lat="47.51341" lon="6.77288">
        <ele>378</ele>
        <time>2015-11-01T07:50:23.000Z</time>
      </trkpt>
      <trkpt lat="47.51338" lon="6.7729">
        <ele>378</ele>
        <time>2015-11-01T07:50:24.000Z</time>
      </trkpt>
      <trkpt lat="47.51335" lon="6.77291">
        <ele>379</ele>
        <time>2015-11-01T07:50:25.000Z</time>
      </trkpt>
      <trkpt lat="47.51331" lon="6.77292">
        <ele>378</ele>
        <time>2015-11-01T07:50:26.000Z</time>
      </trkpt>
      <trkpt lat="47.51327" lon="6.77292">
        <ele>378</ele>
        <time>2015-11-01T07:50:27.000Z</time>
      </trkpt>
      <trkpt lat="47.51323" lon="6.77292">
        <ele>378</ele>
        <time>2015-11-01T07:50:28.000Z</time>
      </trkpt>
      <trkpt lat="47.51319" lon="6.77292">
        <ele>378</ele>
        <time>2015-11-01T07:50:29.000Z</time>
      </trkpt>
      <trkpt lat="47.51315" lon="6.77292">
        <ele>377</ele>
        <time>2015-11-01T07:50:30.000Z</time>
      </trkpt>
      <trkpt lat="47.5131" lon="6.77292">
        <ele>377</ele>
        <time>2015-11-01T07:50:31.000Z</time>
      </trkpt>
      <trkpt lat="47.51306" lon="6.77291">
        <ele>377</ele>
        <time>2015-11-01T07:50:32.000Z</time>
      </trkpt>
      <trkpt lat="47.51302" lon="6.7729">
        <ele>377</ele>
        <time>2015-11-01T07:50:33.000Z</time>
      </trkpt>
      <trkpt lat="47.51299" lon="6.77288">
        <ele>377</ele>
        <time>2015-11-01T07:50:34.000Z</time>
      </trkpt>
      <trkpt lat="47.51295" lon="6.77287">
        <ele>377</ele>
        <time>2015-11-01T07:50:35.000Z</time>
      </trkpt>
      <trkpt lat="47.51289" lon="6.77286">
        <ele>377</ele>
        <time>2015-11-01T07:50:36.000Z</time>
      </trkpt>
      <trkpt lat="47.51286" lon="6.77284">
        <ele>377</ele>
        <time>2015-11-01T07:50:37.000Z</time>
      </trkpt>
      <trkpt lat="47.51282" lon="6.77283">
        <ele>377</ele>
        <time>2015-11-01T07:50:38.000Z</time>
      </trkpt>
      <trkpt lat="47.51278" lon="6.7728">
        <ele>377</ele>
        <time>2015-11-01T07:50:39.000Z</time>
      </trkpt>
      <trkpt lat="47.51275" lon="6.77278">
        <ele>377</ele>
        <time>2015-11-01T07:50:40.000Z</time>
      </trkpt>
      <trkpt lat="47.51272" lon="6.77276">
        <ele>377</ele>
        <time>2015-11-01T07:50:41.000Z</time>
      </trkpt>
      <trkpt lat="47.51268" lon="6.77272">
        <ele>377</ele>
        <time>2015-11-01T07:50:42.000Z</time>
      </trkpt>
      <trkpt lat="47.51264" lon="6.7727">
        <ele>377</ele>
        <time>2015-11-01T07:50:43.000Z</time>
      </trkpt>
      <trkpt lat="47.5126" lon="6.77266">
        <ele>377</ele>
        <time>2015-11-01T07:50:44.000Z</time>
      </trkpt>
      <trkpt lat="47.51257" lon="6.77262">
        <ele>378</ele>
        <time>2015-11-01T07:50:45.000Z</time>
      </trkpt>
      <trkpt lat="47.51254" lon="6.77257">
        <ele>378</ele>
        <time>2015-11-01T07:50:46.000Z</time>
      </trkpt>
      <trkpt lat="47.5125" lon="6.77253">
        <ele>377</ele>
        <time>2015-11-01T07:50:47.000Z</time>
      </trkpt>
      <trkpt lat="47.51246" lon="6.77248">
        <ele>378</ele>
        <time>2015-11-01T07:50:48.000Z</time>
      </trkpt>
      <trkpt lat="47.51243" lon="6.77243">
        <ele>377</ele>
        <time>2015-11-01T07:50:49.000Z</time>
      </trkpt>
      <trkpt lat="47.5124" lon="6.77238">
        <ele>377</ele>
        <time>2015-11-01T07:50:50.000Z</time>
      </trkpt>
      <trkpt lat="47.51236" lon="6.77232">
        <ele>376</ele>
        <time>2015-11-01T07:50:51.000Z</time>
      </trkpt>
      <trkpt lat="47.51233" lon="6.77225">
        <ele>376</ele>
        <time>2015-11-01T07:50:52.000Z</time>
      </trkpt>
      <trkpt lat="47.51227" lon="6.77225">
        <ele>375</ele>
        <time>2015-11-01T07:50:53.000Z</time>
      </trkpt>
      <trkpt lat="47.51223" lon="6.7722">
        <ele>375</ele>
        <time>2015-11-01T07:50:54.000Z</time>
      </trkpt>
      <trkpt lat="47.5122" lon="6.77212">
        <ele>375</ele>
        <time>2015-11-01T07:50:55.000Z</time>
      </trkpt>
      <trkpt lat="47.51216" lon="6.77204">
        <ele>375</ele>
        <time>2015-11-01T07:50:56.000Z</time>
      </trkpt>
      <trkpt lat="47.51213" lon="6.77197">
        <ele>375</ele>
        <time>2015-11-01T07:50:57.000Z</time>
      </trkpt>
      <trkpt lat="47.51209" lon="6.7719">
        <ele>376</ele>
        <time>2015-11-01T07:50:58.000Z</time>
      </trkpt>
      <trkpt lat="47.51206" lon="6.77182">
        <ele>376</ele>
        <time>2015-11-01T07:50:59.000Z</time>
      </trkpt>
      <trkpt lat="47.51202" lon="6.77175">
        <ele>376</ele>
        <time>2015-11-01T07:51:00.000Z</time>
      </trkpt>
      <trkpt lat="47.51198" lon="6.77167">
        <ele>376</ele>
        <time>2015-11-01T07:51:01.000Z</time>
      </trkpt>
      <trkpt lat="47.51195" lon="6.77159">
        <ele>378</ele>
        <time>2015-11-01T07:51:02.000Z</time>
      </trkpt>
      <trkpt lat="47.51191" lon="6.77151">
        <ele>378</ele>
        <time>2015-11-01T07:51:03.000Z</time>
      </trkpt>
      <trkpt lat="47.51186" lon="6.77143">
        <ele>378</ele>
        <time>2015-11-01T07:51:04.000Z</time>
      </trkpt>
      <trkpt lat="47.51183" lon="6.77135">
        <ele>378</ele>
        <time>2015-11-01T07:51:05.000Z</time>
      </trkpt>
      <trkpt lat="47.51178" lon="6.77127">
        <ele>378</ele>
        <time>2015-11-01T07:51:06.000Z</time>
      </trkpt>
      <trkpt lat="47.51174" lon="6.77119">
        <ele>378</ele>
        <time>2015-11-01T07:51:07.000Z</time>
      </trkpt>
      <trkpt lat="47.51169" lon="6.7711">
        <ele>378</ele>
        <time>2015-11-01T07:51:08.000Z</time>
      </trkpt>
      <trkpt lat="47.51165" lon="6.77103">
        <ele>375</ele>
        <time>2015-11-01T07:51:09.000Z</time>
      </trkpt>
      <trkpt lat="47.5116" lon="6.77096">
        <ele>376</ele>
        <time>2015-11-01T07:51:10.000Z</time>
      </trkpt>
      <trkpt lat="47.51156" lon="6.77089">
        <ele>376</ele>
        <time>2015-11-01T07:51:11.000Z</time>
      </trkpt>
      <trkpt lat="47.5115" lon="6.77083">
        <ele>377</ele>
        <time>2015-11-01T07:51:12.000Z</time>
      </trkpt>
      <trkpt lat="47.51146" lon="6.77076">
        <ele>376</ele>
        <time>2015-11-01T07:51:13.000Z</time>
      </trkpt>
      <trkpt lat="47.5114" lon="6.77071">
        <ele>376</ele>
        <time>2015-11-01T07:51:14.000Z</time>
      </trkpt>
      <trkpt lat="47.51133" lon="6.77066">
        <ele>376</ele>
        <time>2015-11-01T07:51:15.000Z</time>
      </trkpt>
      <trkpt lat="47.51128" lon="6.77059">
        <ele>375</ele>
        <time>2015-11-01T07:51:16.000Z</time>
      </trkpt>
      <trkpt lat="47.51121" lon="6.77055">
        <ele>375</ele>
        <time>2015-11-01T07:51:17.000Z</time>
      </trkpt>
      <trkpt lat="47.51115" lon="6.7705">
        <ele>375</ele>
        <time>2015-11-01T07:51:18.000Z</time>
      </trkpt>
      <trkpt lat="47.51108" lon="6.77045">
        <ele>375</ele>
        <time>2015-11-01T07:51:19.000Z</time>
      </trkpt>
      <trkpt lat="47.51102" lon="6.7704">
        <ele>375</ele>
        <time>2015-11-01T07:51:20.000Z</time>
      </trkpt>
      <trkpt lat="47.51097" lon="6.77033">
        <ele>375</ele>
        <time>2015-11-01T07:51:21.000Z</time>
      </trkpt>
      <trkpt lat="47.51092" lon="6.77028">
        <ele>375</ele>
        <time>2015-11-01T07:51:22.000Z</time>
      </trkpt>
      <trkpt lat="47.51086" lon="6.77023">
        <ele>375</ele>
        <time>2015-11-01T07:51:23.000Z</time>
      </trkpt>
      <trkpt lat="47.51081" lon="6.77019">
        <ele>373</ele>
        <time>2015-11-01T07:51:24.000Z</time>
      </trkpt>
      <trkpt lat="47.51076" lon="6.77014">
        <ele>373</ele>
        <time>2015-11-01T07:51:25.000Z</time>
      </trkpt>
      <trkpt lat="47.51071" lon="6.77008">
        <ele>373</ele>
        <time>2015-11-01T07:51:26.000Z</time>
      </trkpt>
      <trkpt lat="47.51065" lon="6.77002">
        <ele>373</ele>
        <time>2015-11-01T07:51:27.000Z</time>
      </trkpt>
      <trkpt lat="47.51059" lon="6.76997">
        <ele>375</ele>
        <time>2015-11-01T07:51:28.000Z</time>
      </trkpt>
      <trkpt lat="47.51055" lon="6.76992">
        <ele>375</ele>
        <time>2015-11-01T07:51:29.000Z</time>
      </trkpt>
      <trkpt lat="47.51048" lon="6.76986">
        <ele>375</ele>
        <time>2015-11-01T07:51:30.000Z</time>
      </trkpt>
      <trkpt lat="47.51042" lon="6.76981">
        <ele>375</ele>
        <time>2015-11-01T07:51:31.000Z</time>
      </trkpt>
      <trkpt lat="47.51037" lon="6.76976">
        <ele>375</ele>
        <time>2015-11-01T07:51:32.000Z</time>
      </trkpt>
      <trkpt lat="47.51032" lon="6.76972">
        <ele>375</ele>
        <time>2015-11-01T07:51:33.000Z</time>
      </trkpt>
      <trkpt lat="47.51029" lon="6.76964">
        <ele>375</ele>
        <time>2015-11-01T07:51:34.000Z</time>
      </trkpt>
      <trkpt lat="47.51025" lon="6.76958">
        <ele>375</ele>
        <time>2015-11-01T07:51:35.000Z</time>
      </trkpt>
      <trkpt lat="47.51022" lon="6.76952">
        <ele>375</ele>
        <time>2015-11-01T07:51:36.000Z</time>
      </trkpt>
      <trkpt lat="47.51018" lon="6.76949">
        <ele>375</ele>
        <time>2015-11-01T07:51:37.000Z</time>
      </trkpt>
      <trkpt lat="47.51013" lon="6.76945">
        <ele>375</ele>
        <time>2015-11-01T07:51:38.000Z</time>
      </trkpt>
      <trkpt lat="47.51008" lon="6.76943">
        <ele>375</ele>
        <time>2015-11-01T07:51:39.000Z</time>
      </trkpt>
      <trkpt lat="47.51005" lon="6.76939">
        <ele>375</ele>
        <time>2015-11-01T07:51:40.000Z</time>
      </trkpt>
      <trkpt lat="47.51001" lon="6.76935">
        <ele>375</ele>
        <time>2015-11-01T07:51:41.000Z</time>
      </trkpt>
      <trkpt lat="47.50997" lon="6.76932">
        <ele>375</ele>
        <time>2015-11-01T07:51:42.000Z</time>
      </trkpt>
      <trkpt lat="47.50994" lon="6.76927">
        <ele>375</ele>
        <time>2015-11-01T07:51:43.000Z</time>
      </trkpt>
      <trkpt lat="47.50993" lon="6.7692">
        <ele>375</ele>
        <time>2015-11-01T07:51:44.000Z</time>
      </trkpt>
      <trkpt lat="47.5099" lon="6.76914">
        <ele>376</ele>
        <time>2015-11-01T07:51:45.000Z</time>
      </trkpt>
      <trkpt lat="47.50986" lon="6.76909">
        <ele>377</ele>
        <time>2015-11-01T07:51:46.000Z</time>
      </trkpt>
      <trkpt lat="47.50981" lon="6.76907">
        <ele>377</ele>
        <time>2015-11-01T07:51:47.000Z</time>
      </trkpt>
      <trkpt lat="47.50976" lon="6.76908">
        <ele>377</ele>
        <time>2015-11-01T07:51:48.000Z</time>
      </trkpt>
      <trkpt lat="47.5097" lon="6.76909">
        <ele>377</ele>
        <time>2015-11-01T07:51:49.000Z</time>
      </trkpt>
      <trkpt lat="47.50966" lon="6.76907">
        <ele>377</ele>
        <time>2015-11-01T07:51:50.000Z</time>
      </trkpt>
      <trkpt lat="47.50962" lon="6.76905">
        <ele>377</ele>
        <time>2015-11-01T07:51:51.000Z</time>
      </trkpt>
      <trkpt lat="47.50958" lon="6.76904">
        <ele>377</ele>
        <time>2015-11-01T07:51:52.000Z</time>
      </trkpt>
      <trkpt lat="47.50953" lon="6.76902">
        <ele>377</ele>
        <time>2015-11-01T07:51:53.000Z</time>
      </trkpt>
      <trkpt lat="47.50949" lon="6.76899">
        <ele>378</ele>
        <time>2015-11-01T07:51:54.000Z</time>
      </trkpt>
      <trkpt lat="47.50945" lon="6.76896">
        <ele>378</ele>
        <time>2015-11-01T07:51:55.000Z</time>
      </trkpt>
      <trkpt lat="47.50941" lon="6.76892">
        <ele>378</ele>
        <time>2015-11-01T07:51:56.000Z</time>
      </trkpt>
      <trkpt lat="47.50938" lon="6.76889">
        <ele>378</ele>
        <time>2015-11-01T07:51:57.000Z</time>
      </trkpt>
      <trkpt lat="47.50934" lon="6.76884">
        <ele>378</ele>
        <time>2015-11-01T07:51:58.000Z</time>
      </trkpt>
      <trkpt lat="47.50931" lon="6.76879">
        <ele>378</ele>
        <time>2015-11-01T07:51:59.000Z</time>
      </trkpt>
      <trkpt lat="47.50928" lon="6.76874">
        <ele>378</ele>
        <time>2015-11-01T07:52:00.000Z</time>
      </trkpt>
      <trkpt lat="47.50926" lon="6.76869">
        <ele>378</ele>
        <time>2015-11-01T07:52:01.000Z</time>
      </trkpt>
      <trkpt lat="47.50923" lon="6.76863">
        <ele>378</ele>
        <time>2015-11-01T07:52:02.000Z</time>
      </trkpt>
      <trkpt lat="47.50921" lon="6.76858">
        <ele>378</ele>
        <time>2015-11-01T07:52:03.000Z</time>
      </trkpt>
      <trkpt lat="47.50918" lon="6.76852">
        <ele>379</ele>
        <time>2015-11-01T07:52:04.000Z</time>
      </trkpt>
      <trkpt lat="47.50916" lon="6.76846">
        <ele>380</ele>
        <time>2015-11-01T07:52:05.000Z</time>
      </trkpt>
      <trkpt lat="47.50914" lon="6.76841">
        <ele>380</ele>
        <time>2015-11-01T07:52:06.000Z</time>
      </trkpt>
      <trkpt lat="47.50912" lon="6.76836">
        <ele>380</ele>
        <time>2015-11-01T07:52:07.000Z</time>
      </trkpt>
      <trkpt lat="47.50911" lon="6.76829">
        <ele>380</ele>
        <time>2015-11-01T07:52:08.000Z</time>
      </trkpt>
      <trkpt lat="47.50909" lon="6.76823">
        <ele>381</ele>
        <time>2015-11-01T07:52:09.000Z</time>
      </trkpt>
      <trkpt lat="47.50905" lon="6.76818">
        <ele>381</ele>
        <time>2015-11-01T07:52:10.000Z</time>
      </trkpt>
      <trkpt lat="47.50903" lon="6.76813">
        <ele>381</ele>
        <time>2015-11-01T07:52:11.000Z</time>
      </trkpt>
      <trkpt lat="47.509" lon="6.76807">
        <ele>381</ele>
        <time>2015-11-01T07:52:12.000Z</time>
      </trkpt>
      <trkpt lat="47.50897" lon="6.76802">
        <ele>381</ele>
        <time>2015-11-01T07:52:13.000Z</time>
      </trkpt>
      <trkpt lat="47.50894" lon="6.76799">
        <ele>381</ele>
        <time>2015-11-01T07:52:14.000Z</time>
      </trkpt>
      <trkpt lat="47.50891" lon="6.76795">
        <ele>381</ele>
        <time>2015-11-01T07:52:15.000Z</time>
      </trkpt>
      <trkpt lat="47.50889" lon="6.76789">
        <ele>381</ele>
        <time>2015-11-01T07:52:16.000Z</time>
      </trkpt>
      <trkpt lat="47.50887" lon="6.76785">
        <ele>381</ele>
        <time>2015-11-01T07:52:17.000Z</time>
      </trkpt>
      <trkpt lat="47.50885" lon="6.76781">
        <ele>381</ele>
        <time>2015-11-01T07:52:18.000Z</time>
      </trkpt>
      <trkpt lat="47.50883" lon="6.76776">
        <ele>381</ele>
        <time>2015-11-01T07:52:19.000Z</time>
      </trkpt>
      <trkpt lat="47.50881" lon="6.76771">
        <ele>381</ele>
        <time>2015-11-01T07:52:20.000Z</time>
      </trkpt>
      <trkpt lat="47.50878" lon="6.76765">
        <ele>382</ele>
        <time>2015-11-01T07:52:21.000Z</time>
      </trkpt>
      <trkpt lat="47.50876" lon="6.7676">
        <ele>382</ele>
        <time>2015-11-01T07:52:22.000Z</time>
      </trkpt>
      <trkpt lat="47.50874" lon="6.76754">
        <ele>382</ele>
        <time>2015-11-01T07:52:23.000Z</time>
      </trkpt>
      <trkpt lat="47.50873" lon="6.76749">
        <ele>383</ele>
        <time>2015-11-01T07:52:24.000Z</time>
      </trkpt>
      <trkpt lat="47.50871" lon="6.76745">
        <ele>383</ele>
        <time>2015-11-01T07:52:25.000Z</time>
      </trkpt>
      <trkpt lat="47.5087" lon="6.7674">
        <ele>383</ele>
        <time>2015-11-01T07:52:26.000Z</time>
      </trkpt>
      <trkpt lat="47.50868" lon="6.76735">
        <ele>383</ele>
        <time>2015-11-01T07:52:27.000Z</time>
      </trkpt>
      <trkpt lat="47.50866" lon="6.7673">
        <ele>383</ele>
        <time>2015-11-01T07:52:28.000Z</time>
      </trkpt>
      <trkpt lat="47.50865" lon="6.76726">
        <ele>384</ele>
        <time>2015-11-01T07:52:29.000Z</time>
      </trkpt>
      <trkpt lat="47.50863" lon="6.76721">
        <ele>384</ele>
        <time>2015-11-01T07:52:30.000Z</time>
      </trkpt>
      <trkpt lat="47.50861" lon="6.76717">
        <ele>384</ele>
        <time>2015-11-01T07:52:31.000Z</time>
      </trkpt>
      <trkpt lat="47.5086" lon="6.76712">
        <ele>384</ele>
        <time>2015-11-01T07:52:32.000Z</time>
      </trkpt>
      <trkpt lat="47.50858" lon="6.76708">
        <ele>384</ele>
        <time>2015-11-01T07:52:33.000Z</time>
      </trkpt>
      <trkpt lat="47.50857" lon="6.76703">
        <ele>384</ele>
        <time>2015-11-01T07:52:34.000Z</time>
      </trkpt>
      <trkpt lat="47.50855" lon="6.76699">
        <ele>384</ele>
        <time>2015-11-01T07:52:35.000Z</time>
      </trkpt>
      <trkpt lat="47.50853" lon="6.76694">
        <ele>385</ele>
        <time>2015-11-01T07:52:36.000Z</time>
      </trkpt>
      <trkpt lat="47.50851" lon="6.7669">
        <ele>385</ele>
        <time>2015-11-01T07:52:37.000Z</time>
      </trkpt>
      <trkpt lat="47.50849" lon="6.76686">
        <ele>385</ele>
        <time>2015-11-01T07:52:38.000Z</time>
      </trkpt>
      <trkpt lat="47.50846" lon="6.76682">
        <ele>386</ele>
        <time>2015-11-01T07:52:39.000Z</time>
      </trkpt>
      <trkpt lat="47.50844" lon="6.76678">
        <ele>386</ele>
        <time>2015-11-01T07:52:40.000Z</time>
      </trkpt>
      <trkpt lat="47.50842" lon="6.76674">
        <ele>387</ele>
        <time>2015-11-01T07:52:41.000Z</time>
      </trkpt>
      <trkpt lat="47.5084" lon="6.7667">
        <ele>387</ele>
        <time>2015-11-01T07:52:42.000Z</time>
      </trkpt>
      <trkpt lat="47.50839" lon="6.76667">
        <ele>388</ele>
        <time>2015-11-01T07:52:43.000Z</time>
      </trkpt>
      <trkpt lat="47.50838" lon="6.76663">
        <ele>388</ele>
        <time>2015-11-01T07:52:44.000Z</time>
      </trkpt>
      <trkpt lat="47.50836" lon="6.76659">
        <ele>388</ele>
        <time>2015-11-01T07:52:45.000Z</time>
      </trkpt>
      <trkpt lat="47.50835" lon="6.76655">
        <ele>388</ele>
        <time>2015-11-01T07:52:46.000Z</time>
      </trkpt>
      <trkpt lat="47.50834" lon="6.76651">
        <ele>388</ele>
        <time>2015-11-01T07:52:47.000Z</time>
      </trkpt>
      <trkpt lat="47.50832" lon="6.76647">
        <ele>390</ele>
        <time>2015-11-01T07:52:48.000Z</time>
      </trkpt>
      <trkpt lat="47.5083" lon="6.76643">
        <ele>390</ele>
        <time>2015-11-01T07:52:49.000Z</time>
      </trkpt>
      <trkpt lat="47.50828" lon="6.76639">
        <ele>390</ele>
        <time>2015-11-01T07:52:50.000Z</time>
      </trkpt>
      <trkpt lat="47.50826" lon="6.76636">
        <ele>390</ele>
        <time>2015-11-01T07:52:51.000Z</time>
      </trkpt>
      <trkpt lat="47.50825" lon="6.76632">
        <ele>390</ele>
        <time>2015-11-01T07:52:52.000Z</time>
      </trkpt>
      <trkpt lat="47.50823" lon="6.76628">
        <ele>390</ele>
        <time>2015-11-01T07:52:53.000Z</time>
      </trkpt>
      <trkpt lat="47.50821" lon="6.76623">
        <ele>390</ele>
        <time>2015-11-01T07:52:54.000Z</time>
      </trkpt>
      <trkpt lat="47.5082" lon="6.76619">
        <ele>390</ele>
        <time>2015-11-01T07:52:55.000Z</time>
      </trkpt>
      <trkpt lat="47.50819" lon="6.76614">
        <ele>390</ele>
        <time>2015-11-01T07:52:56.000Z</time>
      </trkpt>
      <trkpt lat="47.50818" lon="6.76609">
        <ele>390</ele>
        <time>2015-11-01T07:52:57.000Z</time>
      </trkpt>
      <trkpt lat="47.50817" lon="6.76605">
        <ele>390</ele>
        <time>2015-11-01T07:52:58.000Z</time>
      </trkpt>
      <trkpt lat="47.50816" lon="6.76601">
        <ele>390</ele>
        <time>2015-11-01T07:52:59.000Z</time>
      </trkpt>
      <trkpt lat="47.50814" lon="6.76596">
        <ele>390</ele>
        <time>2015-11-01T07:53:01.000Z</time>
      </trkpt>
      <trkpt lat="47.50813" lon="6.76596">
        <ele>390</ele>
        <time>2015-11-01T07:53:02.000Z</time>
      </trkpt>
      <trkpt lat="47.50809" lon="6.76598">
        <ele>390</ele>
        <time>2015-11-01T07:53:04.000Z</time>
      </trkpt>
      <trkpt lat="47.50807" lon="6.76597">
        <ele>390</ele>
        <time>2015-11-01T07:53:05.000Z</time>
      </trkpt>
      <trkpt lat="47.50804" lon="6.76592">
        <ele>391</ele>
        <time>2015-11-01T07:53:07.000Z</time>
      </trkpt>
      <trkpt lat="47.50803" lon="6.76589">
        <ele>391</ele>
        <time>2015-11-01T07:53:08.000Z</time>
      </trkpt>
      <trkpt lat="47.50801" lon="6.76587">
        <ele>391</ele>
        <time>2015-11-01T07:53:09.000Z</time>
      </trkpt>
      <trkpt lat="47.50798" lon="6.76587">
        <ele>391</ele>
        <time>2015-11-01T07:53:10.000Z</time>
      </trkpt>
      <trkpt lat="47.50796" lon="6.76588">
        <ele>391</ele>
        <time>2015-11-01T07:53:11.000Z</time>
      </trkpt>
      <trkpt lat="47.50793" lon="6.76588">
        <ele>391</ele>
        <time>2015-11-01T07:53:12.000Z</time>
      </trkpt>
      <trkpt lat="47.50789" lon="6.76589">
        <ele>391</ele>
        <time>2015-11-01T07:53:14.000Z</time>
      </trkpt>
      <trkpt lat="47.50787" lon="6.76589">
        <ele>391</ele>
        <time>2015-11-01T07:53:15.000Z</time>
      </trkpt>
      <trkpt lat="47.50784" lon="6.76589">
        <ele>391</ele>
        <time>2015-11-01T07:53:17.000Z</time>
      </trkpt>
      <trkpt lat="47.50781" lon="6.76589">
        <ele>391</ele>
        <time>2015-11-01T07:53:18.000Z</time>
      </trkpt>
      <trkpt lat="47.50779" lon="6.7659">
        <ele>392</ele>
        <time>2015-11-01T07:53:19.000Z</time>
      </trkpt>
      <trkpt lat="47.50776" lon="6.7659">
        <ele>392</ele>
        <time>2015-11-01T07:53:20.000Z</time>
      </trkpt>
      <trkpt lat="47.50774" lon="6.76591">
        <ele>392</ele>
        <time>2015-11-01T07:53:21.000Z</time>
      </trkpt>
      <trkpt lat="47.50771" lon="6.76591">
        <ele>392</ele>
        <time>2015-11-01T07:53:22.000Z</time>
      </trkpt>
      <trkpt lat="47.50769" lon="6.76592">
        <ele>392</ele>
        <time>2015-11-01T07:53:23.000Z</time>
      </trkpt>
      <trkpt lat="47.50766" lon="6.76592">
        <ele>392</ele>
        <time>2015-11-01T07:53:24.000Z</time>
      </trkpt>
      <trkpt lat="47.50763" lon="6.76593">
        <ele>392</ele>
        <time>2015-11-01T07:53:25.000Z</time>
      </trkpt>
      <trkpt lat="47.5076" lon="6.76593">
        <ele>393</ele>
        <time>2015-11-01T07:53:26.000Z</time>
      </trkpt>
      <trkpt lat="47.50757" lon="6.76593">
        <ele>393</ele>
        <time>2015-11-01T07:53:27.000Z</time>
      </trkpt>
      <trkpt lat="47.50755" lon="6.76592">
        <ele>393</ele>
        <time>2015-11-01T07:53:28.000Z</time>
      </trkpt>
      <trkpt lat="47.50752" lon="6.76592">
        <ele>393</ele>
        <time>2015-11-01T07:53:29.000Z</time>
      </trkpt>
      <trkpt lat="47.50749" lon="6.76591">
        <ele>394</ele>
        <time>2015-11-01T07:53:30.000Z</time>
      </trkpt>
      <trkpt lat="47.50746" lon="6.76591">
        <ele>394</ele>
        <time>2015-11-01T07:53:31.000Z</time>
      </trkpt>
      <trkpt lat="47.50743" lon="6.76591">
        <ele>394</ele>
        <time>2015-11-01T07:53:32.000Z</time>
      </trkpt>
      <trkpt lat="47.50739" lon="6.7659">
        <ele>394</ele>
        <time>2015-11-01T07:53:33.000Z</time>
      </trkpt>
      <trkpt lat="47.50736" lon="6.7659">
        <ele>394</ele>
        <time>2015-11-01T07:53:34.000Z</time>
      </trkpt>
      <trkpt lat="47.50732" lon="6.76589">
        <ele>394</ele>
        <time>2015-11-01T07:53:35.000Z</time>
      </trkpt>
      <trkpt lat="47.50729" lon="6.76589">
        <ele>394</ele>
        <time>2015-11-01T07:53:36.000Z</time>
      </trkpt>
      <trkpt lat="47.50725" lon="6.76588">
        <ele>394</ele>
        <time>2015-11-01T07:53:37.000Z</time>
      </trkpt>
      <trkpt lat="47.50722" lon="6.76588">
        <ele>394</ele>
        <time>2015-11-01T07:53:38.000Z</time>
      </trkpt>
      <trkpt lat="47.50719" lon="6.76587">
        <ele>394</ele>
        <time>2015-11-01T07:53:39.000Z</time>
      </trkpt>
      <trkpt lat="47.50715" lon="6.76587">
        <ele>395</ele>
        <time>2015-11-01T07:53:40.000Z</time>
      </trkpt>
      <trkpt lat="47.50712" lon="6.76586">
        <ele>395</ele>
        <time>2015-11-01T07:53:41.000Z</time>
      </trkpt>
      <trkpt lat="47.50708" lon="6.76586">
        <ele>395</ele>
        <time>2015-11-01T07:53:42.000Z</time>
      </trkpt>
      <trkpt lat="47.50705" lon="6.76585">
        <ele>395</ele>
        <time>2015-11-01T07:53:43.000Z</time>
      </trkpt>
      <trkpt lat="47.50702" lon="6.76585">
        <ele>395</ele>
        <time>2015-11-01T07:53:44.000Z</time>
      </trkpt>
      <trkpt lat="47.50698" lon="6.76585">
        <ele>395</ele>
        <time>2015-11-01T07:53:45.000Z</time>
      </trkpt>
      <trkpt lat="47.50695" lon="6.76585">
        <ele>395</ele>
        <time>2015-11-01T07:53:46.000Z</time>
      </trkpt>
      <trkpt lat="47.50692" lon="6.76586">
        <ele>395</ele>
        <time>2015-11-01T07:53:47.000Z</time>
      </trkpt>
      <trkpt lat="47.50689" lon="6.76586">
        <ele>395</ele>
        <time>2015-11-01T07:53:48.000Z</time>
      </trkpt>
      <trkpt lat="47.50686" lon="6.76586">
        <ele>396</ele>
        <time>2015-11-01T07:53:49.000Z</time>
      </trkpt>
      <trkpt lat="47.50683" lon="6.76586">
        <ele>396</ele>
        <time>2015-11-01T07:53:50.000Z</time>
      </trkpt>
      <trkpt lat="47.5068" lon="6.76586">
        <ele>396</ele>
        <time>2015-11-01T07:53:51.000Z</time>
      </trkpt>
      <trkpt lat="47.50676" lon="6.76587">
        <ele>396</ele>
        <time>2015-11-01T07:53:52.000Z</time>
      </trkpt>
      <trkpt lat="47.50673" lon="6.76587">
        <ele>396</ele>
        <time>2015-11-01T07:53:53.000Z</time>
      </trkpt>
      <trkpt lat="47.5067" lon="6.76587">
        <ele>396</ele>
        <time>2015-11-01T07:53:54.000Z</time>
      </trkpt>
      <trkpt lat="47.50667" lon="6.76588">
        <ele>397</ele>
        <time>2015-11-01T07:53:55.000Z</time>
      </trkpt>
      <trkpt lat="47.50664" lon="6.76589">
        <ele>397</ele>
        <time>2015-11-01T07:53:56.000Z</time>
      </trkpt>
      <trkpt lat="47.50661" lon="6.7659">
        <ele>397</ele>
        <time>2015-11-01T07:53:57.000Z</time>
      </trkpt>
      <trkpt lat="47.50658" lon="6.76591">
        <ele>397</ele>
        <time>2015-11-01T07:53:58.000Z</time>
      </trkpt>
      <trkpt lat="47.50655" lon="6.76592">
        <ele>397</ele>
        <time>2015-11-01T07:53:59.000Z</time>
      </trkpt>
      <trkpt lat="47.50652" lon="6.76593">
        <ele>397</ele>
        <time>2015-11-01T07:54:00.000Z</time>
      </trkpt>
      <trkpt lat="47.5065" lon="6.76594">
        <ele>397</ele>
        <time>2015-11-01T07:54:01.000Z</time>
      </trkpt>
      <trkpt lat="47.50647" lon="6.76595">
        <ele>397</ele>
        <time>2015-11-01T07:54:02.000Z</time>
      </trkpt>
      <trkpt lat="47.50644" lon="6.76596">
        <ele>397</ele>
        <time>2015-11-01T07:54:03.000Z</time>
      </trkpt>
      <trkpt lat="47.50641" lon="6.76598">
        <ele>397</ele>
        <time>2015-11-01T07:54:04.000Z</time>
      </trkpt>
      <trkpt lat="47.50638" lon="6.766">
        <ele>397</ele>
        <time>2015-11-01T07:54:05.000Z</time>
      </trkpt>
      <trkpt lat="47.50635" lon="6.76602">
        <ele>397</ele>
        <time>2015-11-01T07:54:06.000Z</time>
      </trkpt>
      <trkpt lat="47.50632" lon="6.76604">
        <ele>397</ele>
        <time>2015-11-01T07:54:07.000Z</time>
      </trkpt>
      <trkpt lat="47.50629" lon="6.76606">
        <ele>397</ele>
        <time>2015-11-01T07:54:08.000Z</time>
      </trkpt>
      <trkpt lat="47.50627" lon="6.76608">
        <ele>397</ele>
        <time>2015-11-01T07:54:09.000Z</time>
      </trkpt>
      <trkpt lat="47.50624" lon="6.7661">
        <ele>397</ele>
        <time>2015-11-01T07:54:10.000Z</time>
      </trkpt>
      <trkpt lat="47.50621" lon="6.76611">
        <ele>397</ele>
        <time>2015-11-01T07:54:11.000Z</time>
      </trkpt>
      <trkpt lat="47.50618" lon="6.76613">
        <ele>397</ele>
        <time>2015-11-01T07:54:12.000Z</time>
      </trkpt>
      <trkpt lat="47.50615" lon="6.76614">
        <ele>397</ele>
        <time>2015-11-01T07:54:13.000Z</time>
      </trkpt>
      <trkpt lat="47.50612" lon="6.76616">
        <ele>398</ele>
        <time>2015-11-01T07:54:14.000Z</time>
      </trkpt>
      <trkpt lat="47.50609" lon="6.76618">
        <ele>398</ele>
        <time>2015-11-01T07:54:15.000Z</time>
      </trkpt>
      <trkpt lat="47.50606" lon="6.7662">
        <ele>398</ele>
        <time>2015-11-01T07:54:16.000Z</time>
      </trkpt>
      <trkpt lat="47.50603" lon="6.76621">
        <ele>398</ele>
        <time>2015-11-01T07:54:17.000Z</time>
      </trkpt>
      <trkpt lat="47.506" lon="6.76623">
        <ele>398</ele>
        <time>2015-11-01T07:54:18.000Z</time>
      </trkpt>
      <trkpt lat="47.50597" lon="6.76624">
        <ele>398</ele>
        <time>2015-11-01T07:54:19.000Z</time>
      </trkpt>
      <trkpt lat="47.50594" lon="6.76625">
        <ele>398</ele>
        <time>2015-11-01T07:54:20.000Z</time>
      </trkpt>
      <trkpt lat="47.50591" lon="6.76626">
        <ele>398</ele>
        <time>2015-11-01T07:54:21.000Z</time>
      </trkpt>
      <trkpt lat="47.50588" lon="6.76627">
        <ele>398</ele>
        <time>2015-11-01T07:54:22.000Z</time>
      </trkpt>
      <trkpt lat="47.50585" lon="6.76627">
        <ele>398</ele>
        <time>2015-11-01T07:54:23.000Z</time>
      </trkpt>
      <trkpt lat="47.50582" lon="6.76628">
        <ele>399</ele>
        <time>2015-11-01T07:54:24.000Z</time>
      </trkpt>
      <trkpt lat="47.50579" lon="6.76628">
        <ele>399</ele>
        <time>2015-11-01T07:54:25.000Z</time>
      </trkpt>
      <trkpt lat="47.50576" lon="6.76629">
        <ele>399</ele>
        <time>2015-11-01T07:54:26.000Z</time>
      </trkpt>
      <trkpt lat="47.50573" lon="6.7663">
        <ele>399</ele>
        <time>2015-11-01T07:54:27.000Z</time>
      </trkpt>
      <trkpt lat="47.5057" lon="6.76631">
        <ele>399</ele>
        <time>2015-11-01T07:54:28.000Z</time>
      </trkpt>
      <trkpt lat="47.50567" lon="6.76632">
        <ele>399</ele>
        <time>2015-11-01T07:54:29.000Z</time>
      </trkpt>
      <trkpt lat="47.50564" lon="6.76633">
        <ele>399</ele>
        <time>2015-11-01T07:54:30.000Z</time>
      </trkpt>
      <trkpt lat="47.50561" lon="6.76633">
        <ele>399</ele>
        <time>2015-11-01T07:54:31.000Z</time>
      </trkpt>
      <trkpt lat="47.50557" lon="6.76634">
        <ele>399</ele>
        <time>2015-11-01T07:54:32.000Z</time>
      </trkpt>
      <trkpt lat="47.50554" lon="6.76635">
        <ele>399</ele>
        <time>2015-11-01T07:54:33.000Z</time>
      </trkpt>
      <trkpt lat="47.50551" lon="6.76636">
        <ele>399</ele>
        <time>2015-11-01T07:54:34.000Z</time>
      </trkpt>
      <trkpt lat="47.50548" lon="6.76637">
        <ele>399</ele>
        <time>2015-11-01T07:54:35.000Z</time>
      </trkpt>
      <trkpt lat="47.50545" lon="6.76638">
        <ele>399</ele>
        <time>2015-11-01T07:54:36.000Z</time>
      </trkpt>
      <trkpt lat="47.50541" lon="6.76639">
        <ele>399</ele>
        <time>2015-11-01T07:54:37.000Z</time>
      </trkpt>
      <trkpt lat="47.50538" lon="6.7664">
        <ele>399</ele>
        <time>2015-11-01T07:54:38.000Z</time>
      </trkpt>
      <trkpt lat="47.50534" lon="6.76641">
        <ele>399</ele>
        <time>2015-11-01T07:54:39.000Z</time>
      </trkpt>
      <trkpt lat="47.5053" lon="6.76643">
        <ele>399</ele>
        <time>2015-11-01T07:54:40.000Z</time>
      </trkpt>
      <trkpt lat="47.50524" lon="6.76645">
        <ele>399</ele>
        <time>2015-11-01T07:54:41.000Z</time>
      </trkpt>
      <trkpt lat="47.50519" lon="6.76647">
        <ele>399</ele>
        <time>2015-11-01T07:54:42.000Z</time>
      </trkpt>
      <trkpt lat="47.50515" lon="6.76648">
        <ele>399</ele>
        <time>2015-11-01T07:54:43.000Z</time>
      </trkpt>
      <trkpt lat="47.5051" lon="6.76648">
        <ele>399</ele>
        <time>2015-11-01T07:54:44.000Z</time>
      </trkpt>
      <trkpt lat="47.50505" lon="6.7665">
        <ele>399</ele>
        <time>2015-11-01T07:54:45.000Z</time>
      </trkpt>
      <trkpt lat="47.505" lon="6.76652">
        <ele>399</ele>
        <time>2015-11-01T07:54:46.000Z</time>
      </trkpt>
      <trkpt lat="47.50495" lon="6.76654">
        <ele>399</ele>
        <time>2015-11-01T07:54:47.000Z</time>
      </trkpt>
      <trkpt lat="47.5049" lon="6.76656">
        <ele>399</ele>
        <time>2015-11-01T07:54:48.000Z</time>
      </trkpt>
      <trkpt lat="47.50485" lon="6.76658">
        <ele>399</ele>
        <time>2015-11-01T07:54:49.000Z</time>
      </trkpt>
      <trkpt lat="47.5048" lon="6.76659">
        <ele>399</ele>
        <time>2015-11-01T07:54:50.000Z</time>
      </trkpt>
      <trkpt lat="47.50475" lon="6.76661">
        <ele>398</ele>
        <time>2015-11-01T07:54:51.000Z</time>
      </trkpt>
      <trkpt lat="47.5047" lon="6.76663">
        <ele>398</ele>
        <time>2015-11-01T07:54:52.000Z</time>
      </trkpt>
      <trkpt lat="47.50465" lon="6.76666">
        <ele>398</ele>
        <time>2015-11-01T07:54:53.000Z</time>
      </trkpt>
      <trkpt lat="47.5046" lon="6.76669">
        <ele>397</ele>
        <time>2015-11-01T07:54:54.000Z</time>
      </trkpt>
      <trkpt lat="47.50455" lon="6.76671">
        <ele>397</ele>
        <time>2015-11-01T07:54:55.000Z</time>
      </trkpt>
      <trkpt lat="47.5045" lon="6.76673">
        <ele>397</ele>
        <time>2015-11-01T07:54:56.000Z</time>
      </trkpt>
      <trkpt lat="47.50445" lon="6.76674">
        <ele>397</ele>
        <time>2015-11-01T07:54:57.000Z</time>
      </trkpt>
      <trkpt lat="47.50441" lon="6.76677">
        <ele>397</ele>
        <time>2015-11-01T07:54:58.000Z</time>
      </trkpt>
      <trkpt lat="47.50436" lon="6.76679">
        <ele>397</ele>
        <time>2015-11-01T07:54:59.000Z</time>
      </trkpt>
      <trkpt lat="47.50432" lon="6.76681">
        <ele>397</ele>
        <time>2015-11-01T07:55:00.000Z</time>
      </trkpt>
      <trkpt lat="47.50427" lon="6.76683">
        <ele>397</ele>
        <time>2015-11-01T07:55:01.000Z</time>
      </trkpt>
      <trkpt lat="47.50423" lon="6.76683">
        <ele>397</ele>
        <time>2015-11-01T07:55:02.000Z</time>
      </trkpt>
      <trkpt lat="47.50418" lon="6.76685">
        <ele>397</ele>
        <time>2015-11-01T07:55:03.000Z</time>
      </trkpt>
      <trkpt lat="47.50414" lon="6.76686">
        <ele>397</ele>
        <time>2015-11-01T07:55:04.000Z</time>
      </trkpt>
      <trkpt lat="47.50409" lon="6.76691">
        <ele>397</ele>
        <time>2015-11-01T07:55:05.000Z</time>
      </trkpt>
      <trkpt lat="47.50404" lon="6.76693">
        <ele>397</ele>
        <time>2015-11-01T07:55:06.000Z</time>
      </trkpt>
      <trkpt lat="47.504" lon="6.76695">
        <ele>397</ele>
        <time>2015-11-01T07:55:07.000Z</time>
      </trkpt>
      <trkpt lat="47.50395" lon="6.76697">
        <ele>397</ele>
        <time>2015-11-01T07:55:08.000Z</time>
      </trkpt>
      <trkpt lat="47.50391" lon="6.76698">
        <ele>397</ele>
        <time>2015-11-01T07:55:09.000Z</time>
      </trkpt>
      <trkpt lat="47.50387" lon="6.76699">
        <ele>397</ele>
        <time>2015-11-01T07:55:10.000Z</time>
      </trkpt>
      <trkpt lat="47.50382" lon="6.76701">
        <ele>397</ele>
        <time>2015-11-01T07:55:11.000Z</time>
      </trkpt>
      <trkpt lat="47.50377" lon="6.76704">
        <ele>397</ele>
        <time>2015-11-01T07:55:12.000Z</time>
      </trkpt>
      <trkpt lat="47.50373" lon="6.76707">
        <ele>397</ele>
        <time>2015-11-01T07:55:13.000Z</time>
      </trkpt>
      <trkpt lat="47.50368" lon="6.7671">
        <ele>398</ele>
        <time>2015-11-01T07:55:14.000Z</time>
      </trkpt>
      <trkpt lat="47.50364" lon="6.76711">
        <ele>398</ele>
        <time>2015-11-01T07:55:15.000Z</time>
      </trkpt>
      <trkpt lat="47.5036" lon="6.76712">
        <ele>398</ele>
        <time>2015-11-01T07:55:16.000Z</time>
      </trkpt>
      <trkpt lat="47.50356" lon="6.76714">
        <ele>398</ele>
        <time>2015-11-01T07:55:17.000Z</time>
      </trkpt>
      <trkpt lat="47.50352" lon="6.76716">
        <ele>398</ele>
        <time>2015-11-01T07:55:18.000Z</time>
      </trkpt>
      <trkpt lat="47.50347" lon="6.76718">
        <ele>398</ele>
        <time>2015-11-01T07:55:19.000Z</time>
      </trkpt>
      <trkpt lat="47.50342" lon="6.76719">
        <ele>398</ele>
        <time>2015-11-01T07:55:20.000Z</time>
      </trkpt>
      <trkpt lat="47.50338" lon="6.76721">
        <ele>398</ele>
        <time>2015-11-01T07:55:21.000Z</time>
      </trkpt>
      <trkpt lat="47.50333" lon="6.76723">
        <ele>398</ele>
        <time>2015-11-01T07:55:22.000Z</time>
      </trkpt>
      <trkpt lat="47.50329" lon="6.76725">
        <ele>398</ele>
        <time>2015-11-01T07:55:22.987Z</time>
      </trkpt>
      <trkpt lat="47.50325" lon="6.76728">
        <ele>398</ele>
        <time>2015-11-01T07:55:24.000Z</time>
      </trkpt>
      <trkpt lat="47.5032" lon="6.7673">
        <ele>398</ele>
        <time>2015-11-01T07:55:25.000Z</time>
      </trkpt>
      <trkpt lat="47.50316" lon="6.76732">
        <ele>398</ele>
        <time>2015-11-01T07:55:26.000Z</time>
      </trkpt>
      <trkpt lat="47.50312" lon="6.76736">
        <ele>398</ele>
        <time>2015-11-01T07:55:27.000Z</time>
      </trkpt>
      <trkpt lat="47.50307" lon="6.76738">
        <ele>398</ele>
        <time>2015-11-01T07:55:28.000Z</time>
      </trkpt>
      <trkpt lat="47.50303" lon="6.76739">
        <ele>398</ele>
        <time>2015-11-01T07:55:29.000Z</time>
      </trkpt>
      <trkpt lat="47.50298" lon="6.76741">
        <ele>399</ele>
        <time>2015-11-01T07:55:30.000Z</time>
      </trkpt>
      <trkpt lat="47.50294" lon="6.76742">
        <ele>399</ele>
        <time>2015-11-01T07:55:31.000Z</time>
      </trkpt>
      <trkpt lat="47.50289" lon="6.76743">
        <ele>399</ele>
        <time>2015-11-01T07:55:32.000Z</time>
      </trkpt>
      <trkpt lat="47.50285" lon="6.76744">
        <ele>399</ele>
        <time>2015-11-01T07:55:33.000Z</time>
      </trkpt>
      <trkpt lat="47.50281" lon="6.76745">
        <ele>399</ele>
        <time>2015-11-01T07:55:34.000Z</time>
      </trkpt>
      <trkpt lat="47.50277" lon="6.76746">
        <ele>399</ele>
        <time>2015-11-01T07:55:35.000Z</time>
      </trkpt>
      <trkpt lat="47.50273" lon="6.76747">
        <ele>399</ele>
        <time>2015-11-01T07:55:36.000Z</time>
      </trkpt>
      <trkpt lat="47.50269" lon="6.76747">
        <ele>399</ele>
        <time>2015-11-01T07:55:37.000Z</time>
      </trkpt>
      <trkpt lat="47.50265" lon="6.76748">
        <ele>399</ele>
        <time>2015-11-01T07:55:38.000Z</time>
      </trkpt>
      <trkpt lat="47.50262" lon="6.76749">
        <ele>399</ele>
        <time>2015-11-01T07:55:39.000Z</time>
      </trkpt>
      <trkpt lat="47.50258" lon="6.7675">
        <ele>400</ele>
        <time>2015-11-01T07:55:40.000Z</time>
      </trkpt>
      <trkpt lat="47.50255" lon="6.76751">
        <ele>399</ele>
        <time>2015-11-01T07:55:41.000Z</time>
      </trkpt>
      <trkpt lat="47.50252" lon="6.76751">
        <ele>400</ele>
        <time>2015-11-01T07:55:42.000Z</time>
      </trkpt>
      <trkpt lat="47.50248" lon="6.76751">
        <ele>400</ele>
        <time>2015-11-01T07:55:43.000Z</time>
      </trkpt>
      <trkpt lat="47.50245" lon="6.7675">
        <ele>400</ele>
        <time>2015-11-01T07:55:44.000Z</time>
      </trkpt>
      <trkpt lat="47.50242" lon="6.76747">
        <ele>401</ele>
        <time>2015-11-01T07:55:45.000Z</time>
      </trkpt>
      <trkpt lat="47.5024" lon="6.76743">
        <ele>401</ele>
        <time>2015-11-01T07:55:46.000Z</time>
      </trkpt>
      <trkpt lat="47.50238" lon="6.76738">
        <ele>401</ele>
        <time>2015-11-01T07:55:47.000Z</time>
      </trkpt>
      <trkpt lat="47.50236" lon="6.76734">
        <ele>401</ele>
        <time>2015-11-01T07:55:48.000Z</time>
      </trkpt>
      <trkpt lat="47.50234" lon="6.76729">
        <ele>401</ele>
        <time>2015-11-01T07:55:49.000Z</time>
      </trkpt>
      <trkpt lat="47.50233" lon="6.76725">
        <ele>402</ele>
        <time>2015-11-01T07:55:50.000Z</time>
      </trkpt>
      <trkpt lat="47.50231" lon="6.76721">
        <ele>402</ele>
        <time>2015-11-01T07:55:51.000Z</time>
      </trkpt>
      <trkpt lat="47.50229" lon="6.76716">
        <ele>402</ele>
        <time>2015-11-01T07:55:52.000Z</time>
      </trkpt>
      <trkpt lat="47.50227" lon="6.76712">
        <ele>402</ele>
        <time>2015-11-01T07:55:53.000Z</time>
      </trkpt>
      <trkpt lat="47.50225" lon="6.76706">
        <ele>402</ele>
        <time>2015-11-01T07:55:54.000Z</time>
      </trkpt>
      <trkpt lat="47.50223" lon="6.76701">
        <ele>402</ele>
        <time>2015-11-01T07:55:55.000Z</time>
      </trkpt>
      <trkpt lat="47.50221" lon="6.76695">
        <ele>402</ele>
        <time>2015-11-01T07:55:56.000Z</time>
      </trkpt>
      <trkpt lat="47.50219" lon="6.76689">
        <ele>402</ele>
        <time>2015-11-01T07:55:57.000Z</time>
      </trkpt>
      <trkpt lat="47.50218" lon="6.76683">
        <ele>402</ele>
        <time>2015-11-01T07:55:58.000Z</time>
      </trkpt>
      <trkpt lat="47.50216" lon="6.76677">
        <ele>402</ele>
        <time>2015-11-01T07:55:59.000Z</time>
      </trkpt>
      <trkpt lat="47.50215" lon="6.76668">
        <ele>402</ele>
        <time>2015-11-01T07:56:00.000Z</time>
      </trkpt>
      <trkpt lat="47.50213" lon="6.76662">
        <ele>402</ele>
        <time>2015-11-01T07:56:01.000Z</time>
      </trkpt>
      <trkpt lat="47.50211" lon="6.76656">
        <ele>402</ele>
        <time>2015-11-01T07:56:02.000Z</time>
      </trkpt>
      <trkpt lat="47.50209" lon="6.7665">
        <ele>402</ele>
        <time>2015-11-01T07:56:03.000Z</time>
      </trkpt>
      <trkpt lat="47.50207" lon="6.76644">
        <ele>402</ele>
        <time>2015-11-01T07:56:04.000Z</time>
      </trkpt>
      <trkpt lat="47.50205" lon="6.76638">
        <ele>402</ele>
        <time>2015-11-01T07:56:05.000Z</time>
      </trkpt>
      <trkpt lat="47.50203" lon="6.76632">
        <ele>402</ele>
        <time>2015-11-01T07:56:06.000Z</time>
      </trkpt>
      <trkpt lat="47.50201" lon="6.76625">
        <ele>402</ele>
        <time>2015-11-01T07:56:07.000Z</time>
      </trkpt>
      <trkpt lat="47.50199" lon="6.76619">
        <ele>402</ele>
        <time>2015-11-01T07:56:08.000Z</time>
      </trkpt>
      <trkpt lat="47.50197" lon="6.76613">
        <ele>403</ele>
        <time>2015-11-01T07:56:09.000Z</time>
      </trkpt>
      <trkpt lat="47.50195" lon="6.76608">
        <ele>403</ele>
        <time>2015-11-01T07:56:10.000Z</time>
      </trkpt>
      <trkpt lat="47.50195" lon="6.76602">
        <ele>403</ele>
        <time>2015-11-01T07:56:11.000Z</time>
      </trkpt>
      <trkpt lat="47.50195" lon="6.76597">
        <ele>403</ele>
        <time>2015-11-01T07:56:12.000Z</time>
      </trkpt>
      <trkpt lat="47.50194" lon="6.76593">
        <ele>403</ele>
        <time>2015-11-01T07:56:13.000Z</time>
      </trkpt>
      <trkpt lat="47.50194" lon="6.76587">
        <ele>403</ele>
        <time>2015-11-01T07:56:15.000Z</time>
      </trkpt>
      <trkpt lat="47.50193" lon="6.76584">
        <ele>403</ele>
        <time>2015-11-01T07:56:16.000Z</time>
      </trkpt>
      <trkpt lat="47.50193" lon="6.76579">
        <ele>403</ele>
        <time>2015-11-01T07:56:19.000Z</time>
      </trkpt>
      <trkpt lat="47.50194" lon="6.76577">
        <ele>403</ele>
        <time>2015-11-01T07:56:20.000Z</time>
      </trkpt>
      <trkpt lat="47.50198" lon="6.76574">
        <ele>402</ele>
        <time>2015-11-01T07:56:22.000Z</time>
      </trkpt>
      <trkpt lat="47.502" lon="6.76573">
        <ele>402</ele>
        <time>2015-11-01T07:56:23.000Z</time>
      </trkpt>
      <trkpt lat="47.50203" lon="6.76572">
        <ele>402</ele>
        <time>2015-11-01T07:56:24.000Z</time>
      </trkpt>
      <trkpt lat="47.50207" lon="6.76572">
        <ele>401</ele>
        <time>2015-11-01T07:56:25.000Z</time>
      </trkpt>
      <trkpt lat="47.5021" lon="6.76571">
        <ele>401</ele>
        <time>2015-11-01T07:56:26.000Z</time>
      </trkpt>
      <trkpt lat="47.50214" lon="6.76569">
        <ele>401</ele>
        <time>2015-11-01T07:56:27.000Z</time>
      </trkpt>
      <trkpt lat="47.50217" lon="6.76568">
        <ele>401</ele>
        <time>2015-11-01T07:56:28.000Z</time>
      </trkpt>
      <trkpt lat="47.5022" lon="6.76565">
        <ele>400</ele>
        <time>2015-11-01T07:56:29.000Z</time>
      </trkpt>
      <trkpt lat="47.50222" lon="6.76562">
        <ele>400</ele>
        <time>2015-11-01T07:56:30.000Z</time>
      </trkpt>
      <trkpt lat="47.50223" lon="6.76558">
        <ele>400</ele>
        <time>2015-11-01T07:56:31.000Z</time>
      </trkpt>
      <trkpt lat="47.50223" lon="6.76554">
        <ele>400</ele>
        <time>2015-11-01T07:56:32.000Z</time>
      </trkpt>
      <trkpt lat="47.50222" lon="6.76549">
        <ele>400</ele>
        <time>2015-11-01T07:56:33.000Z</time>
      </trkpt>
      <trkpt lat="47.50221" lon="6.76544">
        <ele>400</ele>
        <time>2015-11-01T07:56:34.000Z</time>
      </trkpt>
      <trkpt lat="47.5022" lon="6.76538">
        <ele>400</ele>
        <time>2015-11-01T07:56:35.000Z</time>
      </trkpt>
      <trkpt lat="47.50219" lon="6.76532">
        <ele>400</ele>
        <time>2015-11-01T07:56:36.000Z</time>
      </trkpt>
      <trkpt lat="47.50217" lon="6.76527">
        <ele>400</ele>
        <time>2015-11-01T07:56:37.000Z</time>
      </trkpt>
      <trkpt lat="47.50214" lon="6.7652">
        <ele>400</ele>
        <time>2015-11-01T07:56:38.000Z</time>
      </trkpt>
      <trkpt lat="47.50212" lon="6.76514">
        <ele>400</ele>
        <time>2015-11-01T07:56:39.000Z</time>
      </trkpt>
      <trkpt lat="47.50209" lon="6.76507">
        <ele>400</ele>
        <time>2015-11-01T07:56:40.000Z</time>
      </trkpt>
      <trkpt lat="47.50203" lon="6.76489">
        <ele>397</ele>
        <time>2015-11-01T07:56:41.000Z</time>
      </trkpt>
      <trkpt lat="47.50199" lon="6.76479">
        <ele>397</ele>
        <time>2015-11-01T07:56:42.000Z</time>
      </trkpt>
      <trkpt lat="47.50196" lon="6.76471">
        <ele>397</ele>
        <time>2015-11-01T07:56:43.000Z</time>
      </trkpt>
      <trkpt lat="47.50193" lon="6.7646">
        <ele>397</ele>
        <time>2015-11-01T07:56:44.000Z</time>
      </trkpt>
      <trkpt lat="47.5019" lon="6.76449">
        <ele>396</ele>
        <time>2015-11-01T07:56:45.000Z</time>
      </trkpt>
      <trkpt lat="47.50186" lon="6.76438">
        <ele>396</ele>
        <time>2015-11-01T07:56:46.000Z</time>
      </trkpt>
      <trkpt lat="47.50182" lon="6.76427">
        <ele>397</ele>
        <time>2015-11-01T07:56:47.000Z</time>
      </trkpt>
      <trkpt lat="47.50179" lon="6.76418">
        <ele>397</ele>
        <time>2015-11-01T07:56:48.000Z</time>
      </trkpt>
      <trkpt lat="47.50176" lon="6.7641">
        <ele>395</ele>
        <time>2015-11-01T07:56:49.000Z</time>
      </trkpt>
      <trkpt lat="47.50172" lon="6.764">
        <ele>394</ele>
        <time>2015-11-01T07:56:50.000Z</time>
      </trkpt>
      <trkpt lat="47.5017" lon="6.7639">
        <ele>393</ele>
        <time>2015-11-01T07:56:51.000Z</time>
      </trkpt>
      <trkpt lat="47.50162" lon="6.76374">
        <ele>400</ele>
        <time>2015-11-01T07:56:53.000Z</time>
      </trkpt>
      <trkpt lat="47.50159" lon="6.76367">
        <ele>399</ele>
        <time>2015-11-01T07:56:54.000Z</time>
      </trkpt>
      <trkpt lat="47.50156" lon="6.76358">
        <ele>399</ele>
        <time>2015-11-01T07:56:55.000Z</time>
      </trkpt>
      <trkpt lat="47.50155" lon="6.76345">
        <ele>397</ele>
        <time>2015-11-01T07:56:56.000Z</time>
      </trkpt>
      <trkpt lat="47.50153" lon="6.76334">
        <ele>396</ele>
        <time>2015-11-01T07:56:57.000Z</time>
      </trkpt>
      <trkpt lat="47.50151" lon="6.76325">
        <ele>394</ele>
        <time>2015-11-01T07:56:58.000Z</time>
      </trkpt>
      <trkpt lat="47.50148" lon="6.76313">
        <ele>395</ele>
        <time>2015-11-01T07:56:59.000Z</time>
      </trkpt>
      <trkpt lat="47.50145" lon="6.76304">
        <ele>395</ele>
        <time>2015-11-01T07:57:00.000Z</time>
      </trkpt>
      <trkpt lat="47.50144" lon="6.76295">
        <ele>395</ele>
        <time>2015-11-01T07:57:01.000Z</time>
      </trkpt>
      <trkpt lat="47.50142" lon="6.76284">
        <ele>395</ele>
        <time>2015-11-01T07:57:02.000Z</time>
      </trkpt>
      <trkpt lat="47.50139" lon="6.76275">
        <ele>395</ele>
        <time>2015-11-01T07:57:03.000Z</time>
      </trkpt>
      <trkpt lat="47.50137" lon="6.76266">
        <ele>395</ele>
        <time>2015-11-01T07:57:04.000Z</time>
      </trkpt>
      <trkpt lat="47.50135" lon="6.76257">
        <ele>395</ele>
        <time>2015-11-01T07:57:05.000Z</time>
      </trkpt>
      <trkpt lat="47.50134" lon="6.76246">
        <ele>391</ele>
        <time>2015-11-01T07:57:06.000Z</time>
      </trkpt>
      <trkpt lat="47.50134" lon="6.76236">
        <ele>391</ele>
        <time>2015-11-01T07:57:07.000Z</time>
      </trkpt>
      <trkpt lat="47.50132" lon="6.76227">
        <ele>391</ele>
        <time>2015-11-01T07:57:08.000Z</time>
      </trkpt>
      <trkpt lat="47.5013" lon="6.76217">
        <ele>390</ele>
        <time>2015-11-01T07:57:09.000Z</time>
      </trkpt>
      <trkpt lat="47.50126" lon="6.76205">
        <ele>390</ele>
        <time>2015-11-01T07:57:10.000Z</time>
      </trkpt>
      <trkpt lat="47.50123" lon="6.76194">
        <ele>390</ele>
        <time>2015-11-01T07:57:11.000Z</time>
      </trkpt>
      <trkpt lat="47.50121" lon="6.76178">
        <ele>390</ele>
        <time>2015-11-01T07:57:12.000Z</time>
      </trkpt>
      <trkpt lat="47.50117" lon="6.76167">
        <ele>386</ele>
        <time>2015-11-01T07:57:13.000Z</time>
      </trkpt>
      <trkpt lat="47.50114" lon="6.76155">
        <ele>387</ele>
        <time>2015-11-01T07:57:14.000Z</time>
      </trkpt>
      <trkpt lat="47.50112" lon="6.76145">
        <ele>386</ele>
        <time>2015-11-01T07:57:15.000Z</time>
      </trkpt>
      <trkpt lat="47.5011" lon="6.76133">
        <ele>386</ele>
        <time>2015-11-01T07:57:16.000Z</time>
      </trkpt>
      <trkpt lat="47.50108" lon="6.76123">
        <ele>386</ele>
        <time>2015-11-01T07:57:17.000Z</time>
      </trkpt>
      <trkpt lat="47.50107" lon="6.76111">
        <ele>385</ele>
        <time>2015-11-01T07:57:18.000Z</time>
      </trkpt>
      <trkpt lat="47.50103" lon="6.76097">
        <ele>386</ele>
        <time>2015-11-01T07:57:19.000Z</time>
      </trkpt>
      <trkpt lat="47.50101" lon="6.76083">
        <ele>384</ele>
        <time>2015-11-01T07:57:20.000Z</time>
      </trkpt>
      <trkpt lat="47.501" lon="6.76067">
        <ele>382</ele>
        <time>2015-11-01T07:57:21.000Z</time>
      </trkpt>
      <trkpt lat="47.50099" lon="6.76051">
        <ele>381</ele>
        <time>2015-11-01T07:57:22.000Z</time>
      </trkpt>
      <trkpt lat="47.50097" lon="6.76038">
        <ele>380</ele>
        <time>2015-11-01T07:57:23.000Z</time>
      </trkpt>
      <trkpt lat="47.50094" lon="6.76024">
        <ele>380</ele>
        <time>2015-11-01T07:57:24.000Z</time>
      </trkpt>
      <trkpt lat="47.50089" lon="6.76012">
        <ele>380</ele>
        <time>2015-11-01T07:57:25.000Z</time>
      </trkpt>
      <trkpt lat="47.50085" lon="6.76003">
        <ele>380</ele>
        <time>2015-11-01T07:57:26.000Z</time>
      </trkpt>
      <trkpt lat="47.5008" lon="6.75993">
        <ele>380</ele>
        <time>2015-11-01T07:57:27.000Z</time>
      </trkpt>
      <trkpt lat="47.50076" lon="6.75984">
        <ele>379</ele>
        <time>2015-11-01T07:57:28.000Z</time>
      </trkpt>
      <trkpt lat="47.50071" lon="6.75974">
        <ele>379</ele>
        <time>2015-11-01T07:57:29.000Z</time>
      </trkpt>
      <trkpt lat="47.50065" lon="6.75965">
        <ele>379</ele>
        <time>2015-11-01T07:57:30.000Z</time>
      </trkpt>
      <trkpt lat="47.5006" lon="6.75955">
        <ele>378</ele>
        <time>2015-11-01T07:57:31.000Z</time>
      </trkpt>
      <trkpt lat="47.50055" lon="6.75944">
        <ele>378</ele>
        <time>2015-11-01T07:57:32.000Z</time>
      </trkpt>
      <trkpt lat="47.50049" lon="6.75937">
        <ele>378</ele>
        <time>2015-11-01T07:57:33.000Z</time>
      </trkpt>
      <trkpt lat="47.50046" lon="6.75929">
        <ele>378</ele>
        <time>2015-11-01T07:57:34.000Z</time>
      </trkpt>
      <trkpt lat="47.50041" lon="6.75921">
        <ele>378</ele>
        <time>2015-11-01T07:57:35.000Z</time>
      </trkpt>
      <trkpt lat="47.50036" lon="6.75913">
        <ele>376</ele>
        <time>2015-11-01T07:57:36.000Z</time>
      </trkpt>
      <trkpt lat="47.50031" lon="6.75905">
        <ele>376</ele>
        <time>2015-11-01T07:57:37.000Z</time>
      </trkpt>
      <trkpt lat="47.50025" lon="6.75895">
        <ele>377</ele>
        <time>2015-11-01T07:57:38.000Z</time>
      </trkpt>
      <trkpt lat="47.50019" lon="6.75887">
        <ele>377</ele>
        <time>2015-11-01T07:57:39.000Z</time>
      </trkpt>
      <trkpt lat="47.50013" lon="6.75876">
        <ele>377</ele>
        <time>2015-11-01T07:57:40.000Z</time>
      </trkpt>
      <trkpt lat="47.50008" lon="6.75865">
        <ele>377</ele>
        <time>2015-11-01T07:57:41.000Z</time>
      </trkpt>
      <trkpt lat="47.50003" lon="6.75856">
        <ele>377</ele>
        <time>2015-11-01T07:57:42.000Z</time>
      </trkpt>
      <trkpt lat="47.49998" lon="6.75847">
        <ele>378</ele>
        <time>2015-11-01T07:57:43.000Z</time>
      </trkpt>
      <trkpt lat="47.49993" lon="6.7584">
        <ele>378</ele>
        <time>2015-11-01T07:57:44.000Z</time>
      </trkpt>
      <trkpt lat="47.49987" lon="6.7583">
        <ele>377</ele>
        <time>2015-11-01T07:57:45.000Z</time>
      </trkpt>
      <trkpt lat="47.49981" lon="6.7582">
        <ele>376</ele>
        <time>2015-11-01T07:57:46.000Z</time>
      </trkpt>
      <trkpt lat="47.49974" lon="6.75811">
        <ele>375</ele>
        <time>2015-11-01T07:57:47.000Z</time>
      </trkpt>
      <trkpt lat="47.49968" lon="6.75803">
        <ele>374</ele>
        <time>2015-11-01T07:57:48.000Z</time>
      </trkpt>
      <trkpt lat="47.49962" lon="6.75794">
        <ele>374</ele>
        <time>2015-11-01T07:57:49.000Z</time>
      </trkpt>
      <trkpt lat="47.49955" lon="6.75786">
        <ele>374</ele>
        <time>2015-11-01T07:57:50.000Z</time>
      </trkpt>
      <trkpt lat="47.49949" lon="6.75777">
        <ele>373</ele>
        <time>2015-11-01T07:57:51.000Z</time>
      </trkpt>
      <trkpt lat="47.49943" lon="6.75769">
        <ele>373</ele>
        <time>2015-11-01T07:57:52.000Z</time>
      </trkpt>
      <trkpt lat="47.49936" lon="6.75761">
        <ele>372</ele>
        <time>2015-11-01T07:57:53.000Z</time>
      </trkpt>
      <trkpt lat="47.49928" lon="6.75753">
        <ele>371</ele>
        <time>2015-11-01T07:57:54.000Z</time>
      </trkpt>
      <trkpt lat="47.49921" lon="6.75745">
        <ele>369</ele>
        <time>2015-11-01T07:57:55.000Z</time>
      </trkpt>
      <trkpt lat="47.49915" lon="6.75739">
        <ele>367</ele>
        <time>2015-11-01T07:57:56.000Z</time>
      </trkpt>
      <trkpt lat="47.49909" lon="6.75736">
        <ele>366</ele>
        <time>2015-11-01T07:57:57.000Z</time>
      </trkpt>
      <trkpt lat="47.49902" lon="6.75732">
        <ele>365</ele>
        <time>2015-11-01T07:57:58.000Z</time>
      </trkpt>
      <trkpt lat="47.49896" lon="6.75733">
        <ele>365</ele>
        <time>2015-11-01T07:57:59.000Z</time>
      </trkpt>
      <trkpt lat="47.49889" lon="6.75733">
        <ele>364</ele>
        <time>2015-11-01T07:58:00.000Z</time>
      </trkpt>
      <trkpt lat="47.49881" lon="6.75736">
        <ele>364</ele>
        <time>2015-11-01T07:58:01.000Z</time>
      </trkpt>
      <trkpt lat="47.49874" lon="6.75738">
        <ele>363</ele>
        <time>2015-11-01T07:58:02.000Z</time>
      </trkpt>
      <trkpt lat="47.49868" lon="6.75738">
        <ele>362</ele>
        <time>2015-11-01T07:58:03.000Z</time>
      </trkpt>
      <trkpt lat="47.4986" lon="6.75738">
        <ele>362</ele>
        <time>2015-11-01T07:58:04.000Z</time>
      </trkpt>
      <trkpt lat="47.49852" lon="6.7574">
        <ele>361</ele>
        <time>2015-11-01T07:58:05.000Z</time>
      </trkpt>
      <trkpt lat="47.49841" lon="6.75742">
        <ele>360</ele>
        <time>2015-11-01T07:58:06.000Z</time>
      </trkpt>
      <trkpt lat="47.49832" lon="6.7574">
        <ele>356</ele>
        <time>2015-11-01T07:58:07.000Z</time>
      </trkpt>
      <trkpt lat="47.49822" lon="6.75742">
        <ele>355</ele>
        <time>2015-11-01T07:58:08.000Z</time>
      </trkpt>
      <trkpt lat="47.49811" lon="6.75744">
        <ele>354</ele>
        <time>2015-11-01T07:58:09.000Z</time>
      </trkpt>
      <trkpt lat="47.49802" lon="6.75745">
        <ele>353</ele>
        <time>2015-11-01T07:58:10.000Z</time>
      </trkpt>
      <trkpt lat="47.49792" lon="6.75746">
        <ele>352</ele>
        <time>2015-11-01T07:58:11.000Z</time>
      </trkpt>
      <trkpt lat="47.49783" lon="6.7575">
        <ele>352</ele>
        <time>2015-11-01T07:58:12.000Z</time>
      </trkpt>
      <trkpt lat="47.49771" lon="6.75754">
        <ele>357</ele>
        <time>2015-11-01T07:58:13.000Z</time>
      </trkpt>
      <trkpt lat="47.49761" lon="6.75757">
        <ele>355</ele>
        <time>2015-11-01T07:58:14.000Z</time>
      </trkpt>
      <trkpt lat="47.49751" lon="6.7576">
        <ele>354</ele>
        <time>2015-11-01T07:58:15.000Z</time>
      </trkpt>
      <trkpt lat="47.49743" lon="6.75763">
        <ele>353</ele>
        <time>2015-11-01T07:58:16.000Z</time>
      </trkpt>
      <trkpt lat="47.49733" lon="6.75766">
        <ele>353</ele>
        <time>2015-11-01T07:58:17.000Z</time>
      </trkpt>
      <trkpt lat="47.49724" lon="6.75769">
        <ele>353</ele>
        <time>2015-11-01T07:58:18.000Z</time>
      </trkpt>
      <trkpt lat="47.49715" lon="6.75772">
        <ele>353</ele>
        <time>2015-11-01T07:58:19.000Z</time>
      </trkpt>
      <trkpt lat="47.49706" lon="6.75775">
        <ele>353</ele>
        <time>2015-11-01T07:58:20.000Z</time>
      </trkpt>
      <trkpt lat="47.49698" lon="6.75779">
        <ele>353</ele>
        <time>2015-11-01T07:58:21.000Z</time>
      </trkpt>
      <trkpt lat="47.4969" lon="6.75781">
        <ele>353</ele>
        <time>2015-11-01T07:58:22.000Z</time>
      </trkpt>
      <trkpt lat="47.49684" lon="6.75781">
        <ele>352</ele>
        <time>2015-11-01T07:58:23.000Z</time>
      </trkpt>
      <trkpt lat="47.49677" lon="6.75782">
        <ele>352</ele>
        <time>2015-11-01T07:58:24.000Z</time>
      </trkpt>
      <trkpt lat="47.49671" lon="6.75782">
        <ele>352</ele>
        <time>2015-11-01T07:58:25.000Z</time>
      </trkpt>
      <trkpt lat="47.49663" lon="6.75783">
        <ele>347</ele>
        <time>2015-11-01T07:58:26.000Z</time>
      </trkpt>
      <trkpt lat="47.49655" lon="6.75782">
        <ele>347</ele>
        <time>2015-11-01T07:58:27.000Z</time>
      </trkpt>
      <trkpt lat="47.49649" lon="6.7578">
        <ele>346</ele>
        <time>2015-11-01T07:58:28.000Z</time>
      </trkpt>
      <trkpt lat="47.49641" lon="6.7578">
        <ele>346</ele>
        <time>2015-11-01T07:58:29.000Z</time>
      </trkpt>
      <trkpt lat="47.49631" lon="6.75781">
        <ele>346</ele>
        <time>2015-11-01T07:58:30.000Z</time>
      </trkpt>
      <trkpt lat="47.49623" lon="6.75783">
        <ele>345</ele>
        <time>2015-11-01T07:58:31.000Z</time>
      </trkpt>
      <trkpt lat="47.49616" lon="6.75785">
        <ele>345</ele>
        <time>2015-11-01T07:58:32.000Z</time>
      </trkpt>
      <trkpt lat="47.49606" lon="6.75784">
        <ele>344</ele>
        <time>2015-11-01T07:58:33.000Z</time>
      </trkpt>
      <trkpt lat="47.496" lon="6.75783">
        <ele>344</ele>
        <time>2015-11-01T07:58:34.000Z</time>
      </trkpt>
      <trkpt lat="47.49593" lon="6.75783">
        <ele>343</ele>
        <time>2015-11-01T07:58:35.000Z</time>
      </trkpt>
      <trkpt lat="47.49587" lon="6.75783">
        <ele>343</ele>
        <time>2015-11-01T07:58:36.000Z</time>
      </trkpt>
      <trkpt lat="47.4958" lon="6.7578">
        <ele>337</ele>
        <time>2015-11-01T07:58:37.000Z</time>
      </trkpt>
      <trkpt lat="47.49575" lon="6.75779">
        <ele>337</ele>
        <time>2015-11-01T07:58:38.000Z</time>
      </trkpt>
      <trkpt lat="47.49571" lon="6.75777">
        <ele>336</ele>
        <time>2015-11-01T07:58:39.000Z</time>
      </trkpt>
      <trkpt lat="47.49568" lon="6.75774">
        <ele>336</ele>
        <time>2015-11-01T07:58:40.000Z</time>
      </trkpt>
      <trkpt lat="47.49565" lon="6.75772">
        <ele>336</ele>
        <time>2015-11-01T07:58:41.000Z</time>
      </trkpt>
      <trkpt lat="47.49563" lon="6.75769">
        <ele>335</ele>
        <time>2015-11-01T07:58:42.000Z</time>
      </trkpt>
      <trkpt lat="47.49563" lon="6.75764">
        <ele>335</ele>
        <time>2015-11-01T07:58:43.000Z</time>
      </trkpt>
      <trkpt lat="47.49567" lon="6.75763">
        <ele>335</ele>
        <time>2015-11-01T07:58:44.000Z</time>
      </trkpt>
      <trkpt lat="47.49569" lon="6.7576">
        <ele>335</ele>
        <time>2015-11-01T07:58:45.000Z</time>
      </trkpt>
      <trkpt lat="47.49573" lon="6.75757">
        <ele>335</ele>
        <time>2015-11-01T07:58:46.000Z</time>
      </trkpt>
      <trkpt lat="47.49576" lon="6.75754">
        <ele>335</ele>
        <time>2015-11-01T07:58:47.000Z</time>
      </trkpt>
      <trkpt lat="47.4958" lon="6.75749">
        <ele>333</ele>
        <time>2015-11-01T07:58:48.000Z</time>
      </trkpt>
      <trkpt lat="47.49583" lon="6.75744">
        <ele>332</ele>
        <time>2015-11-01T07:58:49.000Z</time>
      </trkpt>
      <trkpt lat="47.49587" lon="6.75739">
        <ele>333</ele>
        <time>2015-11-01T07:58:50.000Z</time>
      </trkpt>
      <trkpt lat="47.49591" lon="6.75733">
        <ele>333</ele>
        <time>2015-11-01T07:58:51.000Z</time>
      </trkpt>
      <trkpt lat="47.49595" lon="6.75727">
        <ele>332</ele>
        <time>2015-11-01T07:58:52.000Z</time>
      </trkpt>
      <trkpt lat="47.496" lon="6.7572">
        <ele>332</ele>
        <time>2015-11-01T07:58:53.000Z</time>
      </trkpt>
      <trkpt lat="47.49602" lon="6.75711">
        <ele>331</ele>
        <time>2015-11-01T07:58:54.000Z</time>
      </trkpt>
      <trkpt lat="47.49601" lon="6.75702">
        <ele>330</ele>
        <time>2015-11-01T07:58:55.000Z</time>
      </trkpt>
      <trkpt lat="47.49599" lon="6.75694">
        <ele>329</ele>
        <time>2015-11-01T07:58:56.000Z</time>
      </trkpt>
      <trkpt lat="47.49594" lon="6.75687">
        <ele>327</ele>
        <time>2015-11-01T07:58:57.000Z</time>
      </trkpt>
      <trkpt lat="47.49589" lon="6.75681">
        <ele>326</ele>
        <time>2015-11-01T07:58:58.000Z</time>
      </trkpt>
      <trkpt lat="47.49584" lon="6.75675">
        <ele>324</ele>
        <time>2015-11-01T07:58:59.000Z</time>
      </trkpt>
      <trkpt lat="47.49578" lon="6.75671">
        <ele>322</ele>
        <time>2015-11-01T07:59:00.000Z</time>
      </trkpt>
      <trkpt lat="47.49573" lon="6.75672">
        <ele>323</ele>
        <time>2015-11-01T07:59:01.000Z</time>
      </trkpt>
      <trkpt lat="47.49567" lon="6.75676">
        <ele>323</ele>
        <time>2015-11-01T07:59:02.000Z</time>
      </trkpt>
      <trkpt lat="47.49564" lon="6.75683">
        <ele>324</ele>
        <time>2015-11-01T07:59:03.000Z</time>
      </trkpt>
      <trkpt lat="47.4956" lon="6.75688">
        <ele>324</ele>
        <time>2015-11-01T07:59:04.000Z</time>
      </trkpt>
      <trkpt lat="47.49556" lon="6.75694">
        <ele>324</ele>
        <time>2015-11-01T07:59:05.000Z</time>
      </trkpt>
      <trkpt lat="47.49553" lon="6.75699">
        <ele>325</ele>
        <time>2015-11-01T07:59:06.000Z</time>
      </trkpt>
      <trkpt lat="47.49549" lon="6.75705">
        <ele>325</ele>
        <time>2015-11-01T07:59:07.000Z</time>
      </trkpt>
      <trkpt lat="47.49544" lon="6.7571">
        <ele>325</ele>
        <time>2015-11-01T07:59:08.000Z</time>
      </trkpt>
      <trkpt lat="47.4954" lon="6.75715">
        <ele>325</ele>
        <time>2015-11-01T07:59:09.000Z</time>
      </trkpt>
      <trkpt lat="47.49535" lon="6.75718">
        <ele>325</ele>
        <time>2015-11-01T07:59:10.000Z</time>
      </trkpt>
      <trkpt lat="47.4953" lon="6.75722">
        <ele>325</ele>
        <time>2015-11-01T07:59:11.000Z</time>
      </trkpt>
      <trkpt lat="47.49525" lon="6.75726">
        <ele>325</ele>
        <time>2015-11-01T07:59:12.000Z</time>
      </trkpt>
      <trkpt lat="47.49521" lon="6.7573">
        <ele>325</ele>
        <time>2015-11-01T07:59:13.000Z</time>
      </trkpt>
      <trkpt lat="47.49516" lon="6.75732">
        <ele>325</ele>
        <time>2015-11-01T07:59:14.000Z</time>
      </trkpt>
      <trkpt lat="47.4951" lon="6.75734">
        <ele>325</ele>
        <time>2015-11-01T07:59:15.000Z</time>
      </trkpt>
      <trkpt lat="47.49505" lon="6.75736">
        <ele>325</ele>
        <time>2015-11-01T07:59:16.000Z</time>
      </trkpt>
      <trkpt lat="47.49499" lon="6.75738">
        <ele>323</ele>
        <time>2015-11-01T07:59:17.000Z</time>
      </trkpt>
      <trkpt lat="47.49494" lon="6.75739">
        <ele>323</ele>
        <time>2015-11-01T07:59:18.000Z</time>
      </trkpt>
      <trkpt lat="47.49488" lon="6.75739">
        <ele>323</ele>
        <time>2015-11-01T07:59:19.000Z</time>
      </trkpt>
      <trkpt lat="47.49484" lon="6.75734">
        <ele>322</ele>
        <time>2015-11-01T07:59:20.000Z</time>
      </trkpt>
      <trkpt lat="47.49481" lon="6.75727">
        <ele>322</ele>
        <time>2015-11-01T07:59:21.000Z</time>
      </trkpt>
      <trkpt lat="47.49478" lon="6.7572">
        <ele>322</ele>
        <time>2015-11-01T07:59:22.000Z</time>
      </trkpt>
      <trkpt lat="47.49475" lon="6.75713">
        <ele>321</ele>
        <time>2015-11-01T07:59:23.000Z</time>
      </trkpt>
      <trkpt lat="47.49472" lon="6.75707">
        <ele>321</ele>
        <time>2015-11-01T07:59:24.000Z</time>
      </trkpt>
      <trkpt lat="47.4947" lon="6.757">
        <ele>321</ele>
        <time>2015-11-01T07:59:25.000Z</time>
      </trkpt>
      <trkpt lat="47.49467" lon="6.75695">
        <ele>321</ele>
        <time>2015-11-01T07:59:26.000Z</time>
      </trkpt>
      <trkpt lat="47.49463" lon="6.75694">
        <ele>321</ele>
        <time>2015-11-01T07:59:27.000Z</time>
      </trkpt>
      <trkpt lat="47.49458" lon="6.75694">
        <ele>321</ele>
        <time>2015-11-01T07:59:28.000Z</time>
      </trkpt>
      <trkpt lat="47.49454" lon="6.75697">
        <ele>321</ele>
        <time>2015-11-01T07:59:29.000Z</time>
      </trkpt>
      <trkpt lat="47.4945" lon="6.757">
        <ele>321</ele>
        <time>2015-11-01T07:59:30.000Z</time>
      </trkpt>
      <trkpt lat="47.49445" lon="6.75698">
        <ele>321</ele>
        <time>2015-11-01T07:59:31.000Z</time>
      </trkpt>
      <trkpt lat="47.49443" lon="6.75693">
        <ele>321</ele>
        <time>2015-11-01T07:59:32.000Z</time>
      </trkpt>
      <trkpt lat="47.49441" lon="6.75688">
        <ele>320</ele>
        <time>2015-11-01T07:59:33.000Z</time>
      </trkpt>
      <trkpt lat="47.49439" lon="6.75682">
        <ele>320</ele>
        <time>2015-11-01T07:59:34.000Z</time>
      </trkpt>
      <trkpt lat="47.49437" lon="6.75676">
        <ele>320</ele>
        <time>2015-11-01T07:59:35.000Z</time>
      </trkpt>
      <trkpt lat="47.49435" lon="6.7567">
        <ele>320</ele>
        <time>2015-11-01T07:59:36.000Z</time>
      </trkpt>
      <trkpt lat="47.49432" lon="6.75668">
        <ele>320</ele>
        <time>2015-11-01T07:59:37.000Z</time>
      </trkpt>
      <trkpt lat="47.49428" lon="6.75668">
        <ele>320</ele>
        <time>2015-11-01T07:59:38.000Z</time>
      </trkpt>
      <trkpt lat="47.49424" lon="6.75672">
        <ele>320</ele>
        <time>2015-11-01T07:59:39.000Z</time>
      </trkpt>
      <trkpt lat="47.4942" lon="6.75675">
        <ele>320</ele>
        <time>2015-11-01T07:59:40.000Z</time>
      </trkpt>
      <trkpt lat="47.49416" lon="6.75678">
        <ele>319</ele>
        <time>2015-11-01T07:59:41.000Z</time>
      </trkpt>
      <trkpt lat="47.49411" lon="6.75682">
        <ele>319</ele>
        <time>2015-11-01T07:59:42.000Z</time>
      </trkpt>
      <trkpt lat="47.49406" lon="6.75686">
        <ele>319</ele>
        <time>2015-11-01T07:59:43.000Z</time>
      </trkpt>
      <trkpt lat="47.49402" lon="6.75689">
        <ele>319</ele>
        <time>2015-11-01T07:59:44.000Z</time>
      </trkpt>
      <trkpt lat="47.49397" lon="6.75693">
        <ele>319</ele>
        <time>2015-11-01T07:59:45.000Z</time>
      </trkpt>
      <trkpt lat="47.49391" lon="6.75697">
        <ele>319</ele>
        <time>2015-11-01T07:59:46.000Z</time>
      </trkpt>
      <trkpt lat="47.49387" lon="6.757">
        <ele>319</ele>
        <time>2015-11-01T07:59:47.000Z</time>
      </trkpt>
      <trkpt lat="47.49382" lon="6.75704">
        <ele>319</ele>
        <time>2015-11-01T07:59:48.000Z</time>
      </trkpt>
      <trkpt lat="47.49377" lon="6.75706">
        <ele>319</ele>
        <time>2015-11-01T07:59:49.000Z</time>
      </trkpt>
      <trkpt lat="47.49373" lon="6.75709">
        <ele>319</ele>
        <time>2015-11-01T07:59:50.000Z</time>
      </trkpt>
      <trkpt lat="47.4937" lon="6.75712">
        <ele>319</ele>
        <time>2015-11-01T07:59:51.000Z</time>
      </trkpt>
      <trkpt lat="47.49366" lon="6.75713">
        <ele>319</ele>
        <time>2015-11-01T07:59:52.000Z</time>
      </trkpt>
      <trkpt lat="47.49364" lon="6.75716">
        <ele>319</ele>
        <time>2015-11-01T07:59:53.000Z</time>
      </trkpt>
      <trkpt lat="47.49363" lon="6.75719">
        <ele>319</ele>
        <time>2015-11-01T07:59:56.000Z</time>
      </trkpt>
      <trkpt lat="47.49361" lon="6.75721">
        <ele>319</ele>
        <time>2015-11-01T07:59:57.000Z</time>
      </trkpt>
      <trkpt lat="47.49358" lon="6.75723">
        <ele>319</ele>
        <time>2015-11-01T07:59:59.000Z</time>
      </trkpt>
      <trkpt lat="47.49356" lon="6.75724">
        <ele>319</ele>
        <time>2015-11-01T08:00:00.000Z</time>
      </trkpt>
      <trkpt lat="47.49352" lon="6.75726">
        <ele>319</ele>
        <time>2015-11-01T08:00:01.000Z</time>
      </trkpt>
      <trkpt lat="47.49349" lon="6.75729">
        <ele>319</ele>
        <time>2015-11-01T08:00:02.000Z</time>
      </trkpt>
      <trkpt lat="47.49345" lon="6.75731">
        <ele>318</ele>
        <time>2015-11-01T08:00:03.000Z</time>
      </trkpt>
      <trkpt lat="47.49341" lon="6.75735">
        <ele>318</ele>
        <time>2015-11-01T08:00:04.000Z</time>
      </trkpt>
      <trkpt lat="47.49334" lon="6.75742">
        <ele>318</ele>
        <time>2015-11-01T08:00:05.000Z</time>
      </trkpt>
      <trkpt lat="47.49328" lon="6.75746">
        <ele>318</ele>
        <time>2015-11-01T08:00:06.000Z</time>
      </trkpt>
      <trkpt lat="47.49323" lon="6.7575">
        <ele>318</ele>
        <time>2015-11-01T08:00:07.000Z</time>
      </trkpt>
      <trkpt lat="47.49319" lon="6.75753">
        <ele>318</ele>
        <time>2015-11-01T08:00:08.000Z</time>
      </trkpt>
      <trkpt lat="47.49314" lon="6.75758">
        <ele>318</ele>
        <time>2015-11-01T08:00:09.000Z</time>
      </trkpt>
      <trkpt lat="47.4931" lon="6.75764">
        <ele>318</ele>
        <time>2015-11-01T08:00:10.000Z</time>
      </trkpt>
      <trkpt lat="47.49306" lon="6.7577">
        <ele>318</ele>
        <time>2015-11-01T08:00:11.000Z</time>
      </trkpt>
      <trkpt lat="47.49302" lon="6.75776">
        <ele>318</ele>
        <time>2015-11-01T08:00:12.000Z</time>
      </trkpt>
      <trkpt lat="47.49298" lon="6.7578">
        <ele>318</ele>
        <time>2015-11-01T08:00:13.000Z</time>
      </trkpt>
      <trkpt lat="47.49293" lon="6.75786">
        <ele>318</ele>
        <time>2015-11-01T08:00:14.000Z</time>
      </trkpt>
      <trkpt lat="47.49289" lon="6.7579">
        <ele>318</ele>
        <time>2015-11-01T08:00:15.000Z</time>
      </trkpt>
      <trkpt lat="47.49285" lon="6.75794">
        <ele>318</ele>
        <time>2015-11-01T08:00:16.000Z</time>
      </trkpt>
      <trkpt lat="47.49281" lon="6.75799">
        <ele>318</ele>
        <time>2015-11-01T08:00:17.000Z</time>
      </trkpt>
      <trkpt lat="47.49277" lon="6.75805">
        <ele>317</ele>
        <time>2015-11-01T08:00:18.000Z</time>
      </trkpt>
      <trkpt lat="47.49273" lon="6.75812">
        <ele>317</ele>
        <time>2015-11-01T08:00:19.000Z</time>
      </trkpt>
      <trkpt lat="47.49269" lon="6.75818">
        <ele>316</ele>
        <time>2015-11-01T08:00:20.000Z</time>
      </trkpt>
      <trkpt lat="47.49265" lon="6.75824">
        <ele>316</ele>
        <time>2015-11-01T08:00:21.000Z</time>
      </trkpt>
      <trkpt lat="47.49261" lon="6.75831">
        <ele>315</ele>
        <time>2015-11-01T08:00:22.000Z</time>
      </trkpt>
      <trkpt lat="47.49258" lon="6.75838">
        <ele>315</ele>
        <time>2015-11-01T08:00:23.000Z</time>
      </trkpt>
      <trkpt lat="47.49254" lon="6.75845">
        <ele>316</ele>
        <time>2015-11-01T08:00:24.000Z</time>
      </trkpt>
      <trkpt lat="47.4925" lon="6.75852">
        <ele>317</ele>
        <time>2015-11-01T08:00:25.000Z</time>
      </trkpt>
      <trkpt lat="47.49246" lon="6.75859">
        <ele>317</ele>
        <time>2015-11-01T08:00:26.000Z</time>
      </trkpt>
      <trkpt lat="47.49243" lon="6.75866">
        <ele>317</ele>
        <time>2015-11-01T08:00:27.000Z</time>
      </trkpt>
      <trkpt lat="47.4924" lon="6.75873">
        <ele>318</ele>
        <time>2015-11-01T08:00:28.000Z</time>
      </trkpt>
      <trkpt lat="47.49236" lon="6.75879">
        <ele>318</ele>
        <time>2015-11-01T08:00:29.000Z</time>
      </trkpt>
      <trkpt lat="47.49233" lon="6.75888">
        <ele>318</ele>
        <time>2015-11-01T08:00:30.000Z</time>
      </trkpt>
      <trkpt lat="47.49229" lon="6.75896">
        <ele>318</ele>
        <time>2015-11-01T08:00:31.000Z</time>
      </trkpt>
      <trkpt lat="47.49226" lon="6.75902">
        <ele>318</ele>
        <time>2015-11-01T08:00:32.000Z</time>
      </trkpt>
      <trkpt lat="47.49222" lon="6.75909">
        <ele>319</ele>
        <time>2015-11-01T08:00:33.000Z</time>
      </trkpt>
      <trkpt lat="47.49219" lon="6.75916">
        <ele>319</ele>
        <time>2015-11-01T08:00:34.000Z</time>
      </trkpt>
      <trkpt lat="47.49214" lon="6.75924">
        <ele>320</ele>
        <time>2015-11-01T08:00:35.000Z</time>
      </trkpt>
      <trkpt lat="47.4921" lon="6.75932">
        <ele>320</ele>
        <time>2015-11-01T08:00:36.000Z</time>
      </trkpt>
      <trkpt lat="47.49207" lon="6.75939">
        <ele>320</ele>
        <time>2015-11-01T08:00:37.000Z</time>
      </trkpt>
      <trkpt lat="47.49204" lon="6.7594">
        <ele>320</ele>
        <time>2015-11-01T08:00:38.000Z</time>
      </trkpt>
      <trkpt lat="47.49201" lon="6.75947">
        <ele>320</ele>
        <time>2015-11-01T08:00:39.000Z</time>
      </trkpt>
      <trkpt lat="47.49199" lon="6.75952">
        <ele>320</ele>
        <time>2015-11-01T08:00:40.000Z</time>
      </trkpt>
      <trkpt lat="47.49195" lon="6.75959">
        <ele>320</ele>
        <time>2015-11-01T08:00:41.000Z</time>
      </trkpt>
      <trkpt lat="47.49193" lon="6.75968">
        <ele>320</ele>
        <time>2015-11-01T08:00:42.000Z</time>
      </trkpt>
      <trkpt lat="47.4919" lon="6.75976">
        <ele>320</ele>
        <time>2015-11-01T08:00:43.000Z</time>
      </trkpt>
      <trkpt lat="47.49187" lon="6.75983">
        <ele>320</ele>
        <time>2015-11-01T08:00:44.000Z</time>
      </trkpt>
      <trkpt lat="47.49184" lon="6.7599">
        <ele>320</ele>
        <time>2015-11-01T08:00:45.000Z</time>
      </trkpt>
      <trkpt lat="47.49181" lon="6.75997">
        <ele>320</ele>
        <time>2015-11-01T08:00:46.000Z</time>
      </trkpt>
      <trkpt lat="47.49178" lon="6.76004">
        <ele>320</ele>
        <time>2015-11-01T08:00:47.000Z</time>
      </trkpt>
      <trkpt lat="47.49174" lon="6.76011">
        <ele>320</ele>
        <time>2015-11-01T08:00:48.000Z</time>
      </trkpt>
      <trkpt lat="47.49172" lon="6.76018">
        <ele>320</ele>
        <time>2015-11-01T08:00:49.000Z</time>
      </trkpt>
      <trkpt lat="47.49169" lon="6.76026">
        <ele>320</ele>
        <time>2015-11-01T08:00:50.000Z</time>
      </trkpt>
      <trkpt lat="47.49166" lon="6.76034">
        <ele>322</ele>
        <time>2015-11-01T08:00:51.000Z</time>
      </trkpt>
      <trkpt lat="47.49163" lon="6.76041">
        <ele>322</ele>
        <time>2015-11-01T08:00:52.000Z</time>
      </trkpt>
      <trkpt lat="47.4916" lon="6.76048">
        <ele>322</ele>
        <time>2015-11-01T08:00:53.000Z</time>
      </trkpt>
      <trkpt lat="47.49158" lon="6.76055">
        <ele>322</ele>
        <time>2015-11-01T08:00:54.000Z</time>
      </trkpt>
      <trkpt lat="47.49155" lon="6.76063">
        <ele>322</ele>
        <time>2015-11-01T08:00:55.000Z</time>
      </trkpt>
      <trkpt lat="47.49152" lon="6.7607">
        <ele>321</ele>
        <time>2015-11-01T08:00:56.000Z</time>
      </trkpt>
      <trkpt lat="47.4915" lon="6.76076">
        <ele>321</ele>
        <time>2015-11-01T08:00:57.000Z</time>
      </trkpt>
      <trkpt lat="47.49148" lon="6.76084">
        <ele>321</ele>
        <time>2015-11-01T08:00:58.000Z</time>
      </trkpt>
      <trkpt lat="47.49146" lon="6.76092">
        <ele>321</ele>
        <time>2015-11-01T08:00:59.000Z</time>
      </trkpt>
      <trkpt lat="47.49144" lon="6.761">
        <ele>321</ele>
        <time>2015-11-01T08:01:00.000Z</time>
      </trkpt>
      <trkpt lat="47.49142" lon="6.76108">
        <ele>321</ele>
        <time>2015-11-01T08:01:01.000Z</time>
      </trkpt>
      <trkpt lat="47.49141" lon="6.76116">
        <ele>322</ele>
        <time>2015-11-01T08:01:02.000Z</time>
      </trkpt>
      <trkpt lat="47.49139" lon="6.76124">
        <ele>322</ele>
        <time>2015-11-01T08:01:03.000Z</time>
      </trkpt>
      <trkpt lat="47.49138" lon="6.76132">
        <ele>322</ele>
        <time>2015-11-01T08:01:04.000Z</time>
      </trkpt>
      <trkpt lat="47.49137" lon="6.7614">
        <ele>322</ele>
        <time>2015-11-01T08:01:05.000Z</time>
      </trkpt>
      <trkpt lat="47.49135" lon="6.76148">
        <ele>322</ele>
        <time>2015-11-01T08:01:06.000Z</time>
      </trkpt>
      <trkpt lat="47.49135" lon="6.76156">
        <ele>322</ele>
        <time>2015-11-01T08:01:07.000Z</time>
      </trkpt>
      <trkpt lat="47.49134" lon="6.76165">
        <ele>322</ele>
        <time>2015-11-01T08:01:08.000Z</time>
      </trkpt>
      <trkpt lat="47.49133" lon="6.76173">
        <ele>321</ele>
        <time>2015-11-01T08:01:09.000Z</time>
      </trkpt>
      <trkpt lat="47.49132" lon="6.76182">
        <ele>321</ele>
        <time>2015-11-01T08:01:10.000Z</time>
      </trkpt>
      <trkpt lat="47.49132" lon="6.7619">
        <ele>321</ele>
        <time>2015-11-01T08:01:11.000Z</time>
      </trkpt>
      <trkpt lat="47.49132" lon="6.76199">
        <ele>321</ele>
        <time>2015-11-01T08:01:12.000Z</time>
      </trkpt>
      <trkpt lat="47.49132" lon="6.76208">
        <ele>321</ele>
        <time>2015-11-01T08:01:13.000Z</time>
      </trkpt>
      <trkpt lat="47.49132" lon="6.76217">
        <ele>321</ele>
        <time>2015-11-01T08:01:14.000Z</time>
      </trkpt>
      <trkpt lat="47.49132" lon="6.76225">
        <ele>321</ele>
        <time>2015-11-01T08:01:15.000Z</time>
      </trkpt>
      <trkpt lat="47.49132" lon="6.76234">
        <ele>320</ele>
        <time>2015-11-01T08:01:16.000Z</time>
      </trkpt>
      <trkpt lat="47.49132" lon="6.76241">
        <ele>320</ele>
        <time>2015-11-01T08:01:17.000Z</time>
      </trkpt>
      <trkpt lat="47.49132" lon="6.7625">
        <ele>320</ele>
        <time>2015-11-01T08:01:18.000Z</time>
      </trkpt>
      <trkpt lat="47.49132" lon="6.76258">
        <ele>319</ele>
        <time>2015-11-01T08:01:19.000Z</time>
      </trkpt>
      <trkpt lat="47.49132" lon="6.76264">
        <ele>319</ele>
        <time>2015-11-01T08:01:20.000Z</time>
      </trkpt>
      <trkpt lat="47.49132" lon="6.7627">
        <ele>319</ele>
        <time>2015-11-01T08:01:21.000Z</time>
      </trkpt>
      <trkpt lat="47.49131" lon="6.76282">
        <ele>319</ele>
        <time>2015-11-01T08:01:22.000Z</time>
      </trkpt>
      <trkpt lat="47.49133" lon="6.7629">
        <ele>319</ele>
        <time>2015-11-01T08:01:23.000Z</time>
      </trkpt>
      <trkpt lat="47.49133" lon="6.76299">
        <ele>319</ele>
        <time>2015-11-01T08:01:24.000Z</time>
      </trkpt>
      <trkpt lat="47.49133" lon="6.76307">
        <ele>319</ele>
        <time>2015-11-01T08:01:25.000Z</time>
      </trkpt>
      <trkpt lat="47.49134" lon="6.76316">
        <ele>319</ele>
        <time>2015-11-01T08:01:26.000Z</time>
      </trkpt>
      <trkpt lat="47.49133" lon="6.76324">
        <ele>319</ele>
        <time>2015-11-01T08:01:27.000Z</time>
      </trkpt>
      <trkpt lat="47.49133" lon="6.76332">
        <ele>318</ele>
        <time>2015-11-01T08:01:28.000Z</time>
      </trkpt>
      <trkpt lat="47.49133" lon="6.76339">
        <ele>317</ele>
        <time>2015-11-01T08:01:29.000Z</time>
      </trkpt>
      <trkpt lat="47.49133" lon="6.76348">
        <ele>317</ele>
        <time>2015-11-01T08:01:30.000Z</time>
      </trkpt>
      <trkpt lat="47.49133" lon="6.76357">
        <ele>317</ele>
        <time>2015-11-01T08:01:31.000Z</time>
      </trkpt>
      <trkpt lat="47.49132" lon="6.76366">
        <ele>317</ele>
        <time>2015-11-01T08:01:32.000Z</time>
      </trkpt>
      <trkpt lat="47.49132" lon="6.76373">
        <ele>317</ele>
        <time>2015-11-01T08:01:33.000Z</time>
      </trkpt>
      <trkpt lat="47.49132" lon="6.76381">
        <ele>317</ele>
        <time>2015-11-01T08:01:34.000Z</time>
      </trkpt>
      <trkpt lat="47.49132" lon="6.76389">
        <ele>317</ele>
        <time>2015-11-01T08:01:35.000Z</time>
      </trkpt>
      <trkpt lat="47.49132" lon="6.76397">
        <ele>317</ele>
        <time>2015-11-01T08:01:36.000Z</time>
      </trkpt>
      <trkpt lat="47.49132" lon="6.76406">
        <ele>317</ele>
        <time>2015-11-01T08:01:37.000Z</time>
      </trkpt>
      <trkpt lat="47.49131" lon="6.76414">
        <ele>317</ele>
        <time>2015-11-01T08:01:38.000Z</time>
      </trkpt>
      <trkpt lat="47.49131" lon="6.76422">
        <ele>317</ele>
        <time>2015-11-01T08:01:39.000Z</time>
      </trkpt>
      <trkpt lat="47.49131" lon="6.76431">
        <ele>317</ele>
        <time>2015-11-01T08:01:40.000Z</time>
      </trkpt>
      <trkpt lat="47.4913" lon="6.7644">
        <ele>317</ele>
        <time>2015-11-01T08:01:41.000Z</time>
      </trkpt>
      <trkpt lat="47.4913" lon="6.76449">
        <ele>317</ele>
        <time>2015-11-01T08:01:42.000Z</time>
      </trkpt>
      <trkpt lat="47.49129" lon="6.76457">
        <ele>317</ele>
        <time>2015-11-01T08:01:43.000Z</time>
      </trkpt>
      <trkpt lat="47.49129" lon="6.76465">
        <ele>317</ele>
        <time>2015-11-01T08:01:44.000Z</time>
      </trkpt>
      <trkpt lat="47.49128" lon="6.76473">
        <ele>317</ele>
        <time>2015-11-01T08:01:45.000Z</time>
      </trkpt>
      <trkpt lat="47.49127" lon="6.76482">
        <ele>317</ele>
        <time>2015-11-01T08:01:46.000Z</time>
      </trkpt>
      <trkpt lat="47.49126" lon="6.7649">
        <ele>317</ele>
        <time>2015-11-01T08:01:47.000Z</time>
      </trkpt>
      <trkpt lat="47.49126" lon="6.76499">
        <ele>317</ele>
        <time>2015-11-01T08:01:48.000Z</time>
      </trkpt>
      <trkpt lat="47.49127" lon="6.76508">
        <ele>316</ele>
        <time>2015-11-01T08:01:49.000Z</time>
      </trkpt>
      <trkpt lat="47.49129" lon="6.76516">
        <ele>316</ele>
        <time>2015-11-01T08:01:50.000Z</time>
      </trkpt>
      <trkpt lat="47.49134" lon="6.76522">
        <ele>316</ele>
        <time>2015-11-01T08:01:51.000Z</time>
      </trkpt>
      <trkpt lat="47.49138" lon="6.76522">
        <ele>315</ele>
        <time>2015-11-01T08:01:52.000Z</time>
      </trkpt>
      <trkpt lat="47.49144" lon="6.76522">
        <ele>315</ele>
        <time>2015-11-01T08:01:53.000Z</time>
      </trkpt>
      <trkpt lat="47.49149" lon="6.76522">
        <ele>315</ele>
        <time>2015-11-01T08:01:54.000Z</time>
      </trkpt>
      <trkpt lat="47.49155" lon="6.7652">
        <ele>315</ele>
        <time>2015-11-01T08:01:55.000Z</time>
      </trkpt>
      <trkpt lat="47.49161" lon="6.76519">
        <ele>314</ele>
        <time>2015-11-01T08:01:56.000Z</time>
      </trkpt>
      <trkpt lat="47.49167" lon="6.76518">
        <ele>315</ele>
        <time>2015-11-01T08:01:57.000Z</time>
      </trkpt>
      <trkpt lat="47.49169" lon="6.76514">
        <ele>315</ele>
        <time>2015-11-01T08:01:58.000Z</time>
      </trkpt>
      <trkpt lat="47.49171" lon="6.76512">
        <ele>315</ele>
        <time>2015-11-01T08:01:59.000Z</time>
      </trkpt>
      <trkpt lat="47.49172" lon="6.7651">
        <ele>314</ele>
        <time>2015-11-01T08:02:00.000Z</time>
      </trkpt>
      <trkpt lat="47.49175" lon="6.76508">
        <ele>314</ele>
        <time>2015-11-01T08:02:01.000Z</time>
      </trkpt>
      <trkpt lat="47.49176" lon="6.76505">
        <ele>314</ele>
        <time>2015-11-01T08:02:02.000Z</time>
      </trkpt>
      <trkpt lat="47.49178" lon="6.76502">
        <ele>314</ele>
        <time>2015-11-01T08:02:03.000Z</time>
      </trkpt>
      <trkpt lat="47.4918" lon="6.765">
        <ele>315</ele>
        <time>2015-11-01T08:02:04.000Z</time>
      </trkpt>
      <trkpt lat="47.49181" lon="6.76498">
        <ele>315</ele>
        <time>2015-11-01T08:02:05.000Z</time>
      </trkpt>
      <trkpt lat="47.49182" lon="6.76492">
        <ele>315</ele>
        <time>2015-11-01T08:02:07.000Z</time>
      </trkpt>
      <trkpt lat="47.49181" lon="6.76489">
        <ele>316</ele>
        <time>2015-11-01T08:02:08.000Z</time>
      </trkpt>
      <trkpt lat="47.4918" lon="6.76483">
        <ele>316</ele>
        <time>2015-11-01T08:02:10.000Z</time>
      </trkpt>
      <trkpt lat="47.49179" lon="6.76481">
        <ele>316</ele>
        <time>2015-11-01T08:02:11.000Z</time>
      </trkpt>
      <trkpt lat="47.49184" lon="6.76482">
        <ele>316</ele>
        <time>2015-11-01T08:06:16.000Z</time>
      </trkpt>
      <trkpt lat="47.49184" lon="6.76482">
        <ele>316</ele>
        <time>2015-11-01T08:06:17.000Z</time>
      </trkpt>
      <trkpt lat="47.49187" lon="6.76484">
        <ele>316</ele>
        <time>2015-11-01T08:06:21.000Z</time>
      </trkpt>
      <trkpt lat="47.49188" lon="6.76485">
        <ele>316</ele>
        <time>2015-11-01T08:06:22.000Z</time>
      </trkpt>
      <trkpt lat="47.49187" lon="6.76491">
        <ele>316</ele>
        <time>2015-11-01T08:06:26.000Z</time>
      </trkpt>
      <trkpt lat="47.49185" lon="6.76492">
        <ele>316</ele>
        <time>2015-11-01T08:06:27.000Z</time>
      </trkpt>
      <trkpt lat="47.49183" lon="6.76492">
        <ele>316</ele>
        <time>2015-11-01T08:06:28.000Z</time>
      </trkpt>
      <trkpt lat="47.4918" lon="6.7649">
        <ele>315</ele>
        <time>2015-11-01T08:06:29.000Z</time>
      </trkpt>
      <trkpt lat="47.49178" lon="6.76486">
        <ele>315</ele>
        <time>2015-11-01T08:06:30.000Z</time>
      </trkpt>
      <trkpt lat="47.49178" lon="6.76483">
        <ele>316</ele>
        <time>2015-11-01T08:06:31.000Z</time>
      </trkpt>
      <trkpt lat="47.49182" lon="6.7648">
        <ele>316</ele>
        <time>2015-11-01T08:06:40.000Z</time>
      </trkpt>
      <trkpt lat="47.49184" lon="6.76481">
        <ele>316</ele>
        <time>2015-11-01T08:06:41.000Z</time>
      </trkpt>
      <trkpt lat="47.49186" lon="6.76483">
        <ele>316</ele>
        <time>2015-11-01T08:06:43.000Z</time>
      </trkpt>
      <trkpt lat="47.49186" lon="6.76486">
        <ele>316</ele>
        <time>2015-11-01T08:06:44.000Z</time>
      </trkpt>
      <trkpt lat="47.49186" lon="6.7649">
        <ele>316</ele>
        <time>2015-11-01T08:06:45.000Z</time>
      </trkpt>
      <trkpt lat="47.49185" lon="6.76495">
        <ele>316</ele>
        <time>2015-11-01T08:06:46.000Z</time>
      </trkpt>
      <trkpt lat="47.49182" lon="6.76499">
        <ele>315</ele>
        <time>2015-11-01T08:06:47.000Z</time>
      </trkpt>
      <trkpt lat="47.4918" lon="6.76503">
        <ele>315</ele>
        <time>2015-11-01T08:06:48.000Z</time>
      </trkpt>
      <trkpt lat="47.49176" lon="6.76505">
        <ele>314</ele>
        <time>2015-11-01T08:06:49.001Z</time>
      </trkpt>
      <trkpt lat="47.49173" lon="6.76507">
        <ele>314</ele>
        <time>2015-11-01T08:06:50.000Z</time>
      </trkpt>
      <trkpt lat="47.4917" lon="6.7651">
        <ele>314</ele>
        <time>2015-11-01T08:06:51.000Z</time>
      </trkpt>
      <trkpt lat="47.49167" lon="6.76512">
        <ele>314</ele>
        <time>2015-11-01T08:06:52.000Z</time>
      </trkpt>
      <trkpt lat="47.49164" lon="6.76514">
        <ele>314</ele>
        <time>2015-11-01T08:06:53.000Z</time>
      </trkpt>
      <trkpt lat="47.49157" lon="6.76518">
        <ele>315</ele>
        <time>2015-11-01T08:06:54.000Z</time>
      </trkpt>
      <trkpt lat="47.49152" lon="6.76522">
        <ele>315</ele>
        <time>2015-11-01T08:06:55.000Z</time>
      </trkpt>
      <trkpt lat="47.49147" lon="6.76525">
        <ele>315</ele>
        <time>2015-11-01T08:06:56.000Z</time>
      </trkpt>
      <trkpt lat="47.49141" lon="6.76526">
        <ele>315</ele>
        <time>2015-11-01T08:06:57.000Z</time>
      </trkpt>
      <trkpt lat="47.49136" lon="6.76526">
        <ele>315</ele>
        <time>2015-11-01T08:06:58.000Z</time>
      </trkpt>
      <trkpt lat="47.49131" lon="6.76526">
        <ele>316</ele>
        <time>2015-11-01T08:06:59.000Z</time>
      </trkpt>
      <trkpt lat="47.49126" lon="6.76524">
        <ele>316</ele>
        <time>2015-11-01T08:07:00.000Z</time>
      </trkpt>
      <trkpt lat="47.49123" lon="6.7652">
        <ele>316</ele>
        <time>2015-11-01T08:07:01.000Z</time>
      </trkpt>
      <trkpt lat="47.49121" lon="6.76515">
        <ele>316</ele>
        <time>2015-11-01T08:07:02.000Z</time>
      </trkpt>
      <trkpt lat="47.4912" lon="6.76509">
        <ele>317</ele>
        <time>2015-11-01T08:07:03.000Z</time>
      </trkpt>
      <trkpt lat="47.49121" lon="6.76504">
        <ele>316</ele>
        <time>2015-11-01T08:07:04.000Z</time>
      </trkpt>
      <trkpt lat="47.49123" lon="6.76499">
        <ele>317</ele>
        <time>2015-11-01T08:07:05.000Z</time>
      </trkpt>
      <trkpt lat="47.49124" lon="6.76494">
        <ele>317</ele>
        <time>2015-11-01T08:07:06.000Z</time>
      </trkpt>
      <trkpt lat="47.49124" lon="6.76489">
        <ele>317</ele>
        <time>2015-11-01T08:07:07.000Z</time>
      </trkpt>
      <trkpt lat="47.49125" lon="6.76485">
        <ele>317</ele>
        <time>2015-11-01T08:07:08.000Z</time>
      </trkpt>
      <trkpt lat="47.49125" lon="6.76479">
        <ele>317</ele>
        <time>2015-11-01T08:07:09.000Z</time>
      </trkpt>
      <trkpt lat="47.49126" lon="6.76474">
        <ele>317</ele>
        <time>2015-11-01T08:07:10.000Z</time>
      </trkpt>
      <trkpt lat="47.49126" lon="6.76468">
        <ele>317</ele>
        <time>2015-11-01T08:07:11.000Z</time>
      </trkpt>
      <trkpt lat="47.49127" lon="6.76463">
        <ele>317</ele>
        <time>2015-11-01T08:07:12.000Z</time>
      </trkpt>
      <trkpt lat="47.49127" lon="6.76457">
        <ele>317</ele>
        <time>2015-11-01T08:07:13.000Z</time>
      </trkpt>
      <trkpt lat="47.49127" lon="6.76451">
        <ele>317</ele>
        <time>2015-11-01T08:07:14.000Z</time>
      </trkpt>
      <trkpt lat="47.49127" lon="6.76444">
        <ele>317</ele>
        <time>2015-11-01T08:07:15.000Z</time>
      </trkpt>
      <trkpt lat="47.49127" lon="6.76437">
        <ele>317</ele>
        <time>2015-11-01T08:07:16.000Z</time>
      </trkpt>
      <trkpt lat="47.49127" lon="6.76431">
        <ele>317</ele>
        <time>2015-11-01T08:07:17.000Z</time>
      </trkpt>
      <trkpt lat="47.49127" lon="6.76424">
        <ele>317</ele>
        <time>2015-11-01T08:07:18.000Z</time>
      </trkpt>
      <trkpt lat="47.49127" lon="6.76417">
        <ele>317</ele>
        <time>2015-11-01T08:07:19.000Z</time>
      </trkpt>
      <trkpt lat="47.49127" lon="6.76411">
        <ele>317</ele>
        <time>2015-11-01T08:07:20.000Z</time>
      </trkpt>
      <trkpt lat="47.49127" lon="6.76404">
        <ele>317</ele>
        <time>2015-11-01T08:07:21.000Z</time>
      </trkpt>
      <trkpt lat="47.49127" lon="6.76398">
        <ele>317</ele>
        <time>2015-11-01T08:07:22.000Z</time>
      </trkpt>
      <trkpt lat="47.49127" lon="6.76392">
        <ele>317</ele>
        <time>2015-11-01T08:07:23.000Z</time>
      </trkpt>
      <trkpt lat="47.49127" lon="6.76386">
        <ele>318</ele>
        <time>2015-11-01T08:07:24.000Z</time>
      </trkpt>
      <trkpt lat="47.49127" lon="6.76381">
        <ele>318</ele>
        <time>2015-11-01T08:07:25.000Z</time>
      </trkpt>
      <trkpt lat="47.49127" lon="6.76375">
        <ele>318</ele>
        <time>2015-11-01T08:07:26.000Z</time>
      </trkpt>
      <trkpt lat="47.49127" lon="6.76368">
        <ele>318</ele>
        <time>2015-11-01T08:07:27.000Z</time>
      </trkpt>
      <trkpt lat="47.49126" lon="6.76359">
        <ele>318</ele>
        <time>2015-11-01T08:07:28.000Z</time>
      </trkpt>
      <trkpt lat="47.49127" lon="6.76352">
        <ele>318</ele>
        <time>2015-11-01T08:07:29.000Z</time>
      </trkpt>
      <trkpt lat="47.49128" lon="6.76346">
        <ele>318</ele>
        <time>2015-11-01T08:07:30.000Z</time>
      </trkpt>
      <trkpt lat="47.49128" lon="6.76339">
        <ele>318</ele>
        <time>2015-11-01T08:07:31.000Z</time>
      </trkpt>
      <trkpt lat="47.49127" lon="6.76331">
        <ele>319</ele>
        <time>2015-11-01T08:07:32.000Z</time>
      </trkpt>
      <trkpt lat="47.49128" lon="6.76324">
        <ele>319</ele>
        <time>2015-11-01T08:07:33.000Z</time>
      </trkpt>
      <trkpt lat="47.49127" lon="6.76319">
        <ele>319</ele>
        <time>2015-11-01T08:07:34.000Z</time>
      </trkpt>
      <trkpt lat="47.49128" lon="6.76313">
        <ele>319</ele>
        <time>2015-11-01T08:07:35.000Z</time>
      </trkpt>
      <trkpt lat="47.49128" lon="6.76308">
        <ele>319</ele>
        <time>2015-11-01T08:07:36.000Z</time>
      </trkpt>
      <trkpt lat="47.49128" lon="6.76304">
        <ele>319</ele>
        <time>2015-11-01T08:07:37.000Z</time>
      </trkpt>
      <trkpt lat="47.49129" lon="6.76299">
        <ele>319</ele>
        <time>2015-11-01T08:07:38.000Z</time>
      </trkpt>
      <trkpt lat="47.49129" lon="6.76289">
        <ele>319</ele>
        <time>2015-11-01T08:07:39.000Z</time>
      </trkpt>
      <trkpt lat="47.49128" lon="6.76284">
        <ele>319</ele>
        <time>2015-11-01T08:07:40.000Z</time>
      </trkpt>
      <trkpt lat="47.49128" lon="6.76279">
        <ele>319</ele>
        <time>2015-11-01T08:07:41.000Z</time>
      </trkpt>
      <trkpt lat="47.49128" lon="6.76274">
        <ele>319</ele>
        <time>2015-11-01T08:07:42.000Z</time>
      </trkpt>
      <trkpt lat="47.49129" lon="6.76265">
        <ele>320</ele>
        <time>2015-11-01T08:07:43.000Z</time>
      </trkpt>
      <trkpt lat="47.49129" lon="6.76258">
        <ele>320</ele>
        <time>2015-11-01T08:07:44.000Z</time>
      </trkpt>
      <trkpt lat="47.49129" lon="6.76253">
        <ele>320</ele>
        <time>2015-11-01T08:07:45.000Z</time>
      </trkpt>
      <trkpt lat="47.4913" lon="6.76247">
        <ele>320</ele>
        <time>2015-11-01T08:07:46.000Z</time>
      </trkpt>
      <trkpt lat="47.49131" lon="6.76239">
        <ele>320</ele>
        <time>2015-11-01T08:07:47.000Z</time>
      </trkpt>
      <trkpt lat="47.49131" lon="6.76232">
        <ele>320</ele>
        <time>2015-11-01T08:07:48.000Z</time>
      </trkpt>
      <trkpt lat="47.4913" lon="6.76222">
        <ele>321</ele>
        <time>2015-11-01T08:07:49.000Z</time>
      </trkpt>
      <trkpt lat="47.49132" lon="6.76217">
        <ele>321</ele>
        <time>2015-11-01T08:07:50.000Z</time>
      </trkpt>
      <trkpt lat="47.49131" lon="6.76208">
        <ele>321</ele>
        <time>2015-11-01T08:07:51.000Z</time>
      </trkpt>
      <trkpt lat="47.49131" lon="6.76199">
        <ele>321</ele>
        <time>2015-11-01T08:07:52.000Z</time>
      </trkpt>
      <trkpt lat="47.49131" lon="6.7619">
        <ele>321</ele>
        <time>2015-11-01T08:07:53.000Z</time>
      </trkpt>
      <trkpt lat="47.4913" lon="6.76183">
        <ele>321</ele>
        <time>2015-11-01T08:07:54.000Z</time>
      </trkpt>
      <trkpt lat="47.49132" lon="6.76176">
        <ele>321</ele>
        <time>2015-11-01T08:07:55.000Z</time>
      </trkpt>
      <trkpt lat="47.49132" lon="6.76169">
        <ele>321</ele>
        <time>2015-11-01T08:07:56.000Z</time>
      </trkpt>
      <trkpt lat="47.49133" lon="6.76162">
        <ele>322</ele>
        <time>2015-11-01T08:07:57.000Z</time>
      </trkpt>
      <trkpt lat="47.49134" lon="6.76154">
        <ele>322</ele>
        <time>2015-11-01T08:07:58.000Z</time>
      </trkpt>
      <trkpt lat="47.49136" lon="6.76147">
        <ele>322</ele>
        <time>2015-11-01T08:07:59.000Z</time>
      </trkpt>
      <trkpt lat="47.49137" lon="6.76142">
        <ele>322</ele>
        <time>2015-11-01T08:08:00.000Z</time>
      </trkpt>
      <trkpt lat="47.49139" lon="6.76134">
        <ele>322</ele>
        <time>2015-11-01T08:08:01.000Z</time>
      </trkpt>
      <trkpt lat="47.4914" lon="6.76126">
        <ele>322</ele>
        <time>2015-11-01T08:08:02.000Z</time>
      </trkpt>
      <trkpt lat="47.49142" lon="6.76119">
        <ele>322</ele>
        <time>2015-11-01T08:08:03.000Z</time>
      </trkpt>
      <trkpt lat="47.49144" lon="6.76112">
        <ele>321</ele>
        <time>2015-11-01T08:08:04.000Z</time>
      </trkpt>
      <trkpt lat="47.49144" lon="6.76105">
        <ele>321</ele>
        <time>2015-11-01T08:08:05.000Z</time>
      </trkpt>
      <trkpt lat="47.49146" lon="6.76098">
        <ele>321</ele>
        <time>2015-11-01T08:08:06.000Z</time>
      </trkpt>
      <trkpt lat="47.49149" lon="6.76091">
        <ele>321</ele>
        <time>2015-11-01T08:08:07.000Z</time>
      </trkpt>
      <trkpt lat="47.4915" lon="6.76084">
        <ele>320</ele>
        <time>2015-11-01T08:08:08.000Z</time>
      </trkpt>
      <trkpt lat="47.49151" lon="6.76077">
        <ele>321</ele>
        <time>2015-11-01T08:08:09.000Z</time>
      </trkpt>
      <trkpt lat="47.49153" lon="6.76071">
        <ele>321</ele>
        <time>2015-11-01T08:08:10.000Z</time>
      </trkpt>
      <trkpt lat="47.49155" lon="6.76065">
        <ele>322</ele>
        <time>2015-11-01T08:08:11.000Z</time>
      </trkpt>
      <trkpt lat="47.49157" lon="6.76059">
        <ele>322</ele>
        <time>2015-11-01T08:08:12.000Z</time>
      </trkpt>
      <trkpt lat="47.49159" lon="6.76052">
        <ele>322</ele>
        <time>2015-11-01T08:08:13.000Z</time>
      </trkpt>
      <trkpt lat="47.49161" lon="6.76046">
        <ele>322</ele>
        <time>2015-11-01T08:08:14.000Z</time>
      </trkpt>
      <trkpt lat="47.49163" lon="6.76041">
        <ele>322</ele>
        <time>2015-11-01T08:08:15.000Z</time>
      </trkpt>
      <trkpt lat="47.49165" lon="6.76034">
        <ele>322</ele>
        <time>2015-11-01T08:08:16.000Z</time>
      </trkpt>
      <trkpt lat="47.49166" lon="6.76027">
        <ele>322</ele>
        <time>2015-11-01T08:08:17.000Z</time>
      </trkpt>
      <trkpt lat="47.49169" lon="6.76021">
        <ele>320</ele>
        <time>2015-11-01T08:08:18.000Z</time>
      </trkpt>
      <trkpt lat="47.49171" lon="6.76015">
        <ele>320</ele>
        <time>2015-11-01T08:08:19.000Z</time>
      </trkpt>
      <trkpt lat="47.49174" lon="6.76009">
        <ele>320</ele>
        <time>2015-11-01T08:08:20.000Z</time>
      </trkpt>
      <trkpt lat="47.49177" lon="6.76003">
        <ele>320</ele>
        <time>2015-11-01T08:08:21.000Z</time>
      </trkpt>
      <trkpt lat="47.49179" lon="6.75997">
        <ele>320</ele>
        <time>2015-11-01T08:08:22.000Z</time>
      </trkpt>
      <trkpt lat="47.49181" lon="6.75992">
        <ele>320</ele>
        <time>2015-11-01T08:08:23.000Z</time>
      </trkpt>
      <trkpt lat="47.49184" lon="6.75985">
        <ele>320</ele>
        <time>2015-11-01T08:08:24.000Z</time>
      </trkpt>
      <trkpt lat="47.49187" lon="6.75979">
        <ele>320</ele>
        <time>2015-11-01T08:08:25.000Z</time>
      </trkpt>
      <trkpt lat="47.4919" lon="6.75973">
        <ele>320</ele>
        <time>2015-11-01T08:08:26.000Z</time>
      </trkpt>
      <trkpt lat="47.49193" lon="6.75968">
        <ele>320</ele>
        <time>2015-11-01T08:08:27.000Z</time>
      </trkpt>
      <trkpt lat="47.49196" lon="6.75963">
        <ele>320</ele>
        <time>2015-11-01T08:08:28.000Z</time>
      </trkpt>
      <trkpt lat="47.49199" lon="6.75956">
        <ele>320</ele>
        <time>2015-11-01T08:08:29.000Z</time>
      </trkpt>
      <trkpt lat="47.49202" lon="6.75951">
        <ele>320</ele>
        <time>2015-11-01T08:08:30.000Z</time>
      </trkpt>
      <trkpt lat="47.49205" lon="6.75945">
        <ele>320</ele>
        <time>2015-11-01T08:08:31.000Z</time>
      </trkpt>
      <trkpt lat="47.49208" lon="6.7594">
        <ele>320</ele>
        <time>2015-11-01T08:08:32.000Z</time>
      </trkpt>
      <trkpt lat="47.49211" lon="6.75936">
        <ele>320</ele>
        <time>2015-11-01T08:08:33.000Z</time>
      </trkpt>
      <trkpt lat="47.49215" lon="6.7593">
        <ele>320</ele>
        <time>2015-11-01T08:08:34.000Z</time>
      </trkpt>
      <trkpt lat="47.49217" lon="6.75924">
        <ele>320</ele>
        <time>2015-11-01T08:08:35.000Z</time>
      </trkpt>
      <trkpt lat="47.4922" lon="6.75919">
        <ele>319</ele>
        <time>2015-11-01T08:08:36.000Z</time>
      </trkpt>
      <trkpt lat="47.49224" lon="6.75912">
        <ele>318</ele>
        <time>2015-11-01T08:08:37.000Z</time>
      </trkpt>
      <trkpt lat="47.49226" lon="6.75907">
        <ele>318</ele>
        <time>2015-11-01T08:08:38.000Z</time>
      </trkpt>
      <trkpt lat="47.4923" lon="6.759">
        <ele>318</ele>
        <time>2015-11-01T08:08:39.000Z</time>
      </trkpt>
      <trkpt lat="47.49233" lon="6.75893">
        <ele>318</ele>
        <time>2015-11-01T08:08:40.000Z</time>
      </trkpt>
      <trkpt lat="47.49236" lon="6.75888">
        <ele>318</ele>
        <time>2015-11-01T08:08:41.000Z</time>
      </trkpt>
      <trkpt lat="47.49239" lon="6.75881">
        <ele>318</ele>
        <time>2015-11-01T08:08:42.000Z</time>
      </trkpt>
      <trkpt lat="47.49242" lon="6.75876">
        <ele>318</ele>
        <time>2015-11-01T08:08:43.000Z</time>
      </trkpt>
      <trkpt lat="47.49244" lon="6.75871">
        <ele>318</ele>
        <time>2015-11-01T08:08:44.000Z</time>
      </trkpt>
      <trkpt lat="47.49247" lon="6.75863">
        <ele>317</ele>
        <time>2015-11-01T08:08:45.000Z</time>
      </trkpt>
      <trkpt lat="47.4925" lon="6.75856">
        <ele>317</ele>
        <time>2015-11-01T08:08:46.000Z</time>
      </trkpt>
      <trkpt lat="47.49253" lon="6.7585">
        <ele>316</ele>
        <time>2015-11-01T08:08:47.000Z</time>
      </trkpt>
      <trkpt lat="47.49255" lon="6.75845">
        <ele>316</ele>
        <time>2015-11-01T08:08:48.000Z</time>
      </trkpt>
      <trkpt lat="47.49258" lon="6.75839">
        <ele>315</ele>
        <time>2015-11-01T08:08:49.000Z</time>
      </trkpt>
      <trkpt lat="47.49261" lon="6.75832">
        <ele>315</ele>
        <time>2015-11-01T08:08:50.000Z</time>
      </trkpt>
      <trkpt lat="47.49263" lon="6.75826">
        <ele>315</ele>
        <time>2015-11-01T08:08:51.000Z</time>
      </trkpt>
      <trkpt lat="47.49267" lon="6.7582">
        <ele>316</ele>
        <time>2015-11-01T08:08:52.000Z</time>
      </trkpt>
      <trkpt lat="47.4927" lon="6.75814">
        <ele>317</ele>
        <time>2015-11-01T08:08:53.000Z</time>
      </trkpt>
      <trkpt lat="47.49273" lon="6.75808">
        <ele>317</ele>
        <time>2015-11-01T08:08:54.000Z</time>
      </trkpt>
      <trkpt lat="47.49277" lon="6.75802">
        <ele>317</ele>
        <time>2015-11-01T08:08:55.000Z</time>
      </trkpt>
      <trkpt lat="47.4928" lon="6.75798">
        <ele>318</ele>
        <time>2015-11-01T08:08:56.000Z</time>
      </trkpt>
      <trkpt lat="47.49284" lon="6.75793">
        <ele>318</ele>
        <time>2015-11-01T08:08:57.000Z</time>
      </trkpt>
      <trkpt lat="47.49287" lon="6.75788">
        <ele>318</ele>
        <time>2015-11-01T08:08:58.000Z</time>
      </trkpt>
      <trkpt lat="47.4929" lon="6.75782">
        <ele>318</ele>
        <time>2015-11-01T08:08:59.000Z</time>
      </trkpt>
      <trkpt lat="47.49293" lon="6.75777">
        <ele>318</ele>
        <time>2015-11-01T08:09:00.000Z</time>
      </trkpt>
      <trkpt lat="47.49297" lon="6.75771">
        <ele>318</ele>
        <time>2015-11-01T08:09:01.000Z</time>
      </trkpt>
      <trkpt lat="47.49301" lon="6.75766">
        <ele>318</ele>
        <time>2015-11-01T08:09:02.000Z</time>
      </trkpt>
      <trkpt lat="47.49305" lon="6.75762">
        <ele>318</ele>
        <time>2015-11-01T08:09:03.000Z</time>
      </trkpt>
      <trkpt lat="47.49309" lon="6.75757">
        <ele>318</ele>
        <time>2015-11-01T08:09:04.000Z</time>
      </trkpt>
      <trkpt lat="47.49313" lon="6.75753">
        <ele>318</ele>
        <time>2015-11-01T08:09:05.000Z</time>
      </trkpt>
      <trkpt lat="47.49317" lon="6.75749">
        <ele>319</ele>
        <time>2015-11-01T08:09:06.000Z</time>
      </trkpt>
      <trkpt lat="47.4932" lon="6.75746">
        <ele>319</ele>
        <time>2015-11-01T08:09:07.000Z</time>
      </trkpt>
      <trkpt lat="47.49325" lon="6.75743">
        <ele>318</ele>
        <time>2015-11-01T08:09:08.000Z</time>
      </trkpt>
      <trkpt lat="47.49329" lon="6.7574">
        <ele>318</ele>
        <time>2015-11-01T08:09:09.000Z</time>
      </trkpt>
      <trkpt lat="47.49333" lon="6.75737">
        <ele>319</ele>
        <time>2015-11-01T08:09:10.000Z</time>
      </trkpt>
      <trkpt lat="47.49338" lon="6.75733">
        <ele>318</ele>
        <time>2015-11-01T08:09:11.000Z</time>
      </trkpt>
      <trkpt lat="47.49342" lon="6.7573">
        <ele>318</ele>
        <time>2015-11-01T08:09:12.000Z</time>
      </trkpt>
      <trkpt lat="47.49346" lon="6.75727">
        <ele>318</ele>
        <time>2015-11-01T08:09:13.000Z</time>
      </trkpt>
      <trkpt lat="47.49349" lon="6.75725">
        <ele>319</ele>
        <time>2015-11-01T08:09:14.000Z</time>
      </trkpt>
      <trkpt lat="47.49351" lon="6.75725">
        <ele>319</ele>
        <time>2015-11-01T08:09:15.000Z</time>
      </trkpt>
      <trkpt lat="47.49354" lon="6.75724">
        <ele>319</ele>
        <time>2015-11-01T08:09:21.000Z</time>
      </trkpt>
      <trkpt lat="47.49357" lon="6.75721">
        <ele>319</ele>
        <time>2015-11-01T08:09:22.000Z</time>
      </trkpt>
      <trkpt lat="47.4936" lon="6.75719">
        <ele>319</ele>
        <time>2015-11-01T08:09:23.000Z</time>
      </trkpt>
      <trkpt lat="47.49363" lon="6.75716">
        <ele>319</ele>
        <time>2015-11-01T08:09:24.000Z</time>
      </trkpt>
      <trkpt lat="47.49368" lon="6.75713">
        <ele>319</ele>
        <time>2015-11-01T08:09:25.000Z</time>
      </trkpt>
      <trkpt lat="47.49373" lon="6.75711">
        <ele>319</ele>
        <time>2015-11-01T08:09:26.000Z</time>
      </trkpt>
      <trkpt lat="47.49378" lon="6.75707">
        <ele>319</ele>
        <time>2015-11-01T08:09:27.000Z</time>
      </trkpt>
      <trkpt lat="47.49383" lon="6.75702">
        <ele>319</ele>
        <time>2015-11-01T08:09:28.000Z</time>
      </trkpt>
      <trkpt lat="47.49388" lon="6.75697">
        <ele>319</ele>
        <time>2015-11-01T08:09:29.000Z</time>
      </trkpt>
      <trkpt lat="47.49393" lon="6.75694">
        <ele>319</ele>
        <time>2015-11-01T08:09:30.000Z</time>
      </trkpt>
      <trkpt lat="47.49397" lon="6.75691">
        <ele>319</ele>
        <time>2015-11-01T08:09:31.000Z</time>
      </trkpt>
      <trkpt lat="47.49402" lon="6.75687">
        <ele>319</ele>
        <time>2015-11-01T08:09:32.000Z</time>
      </trkpt>
      <trkpt lat="47.49406" lon="6.75683">
        <ele>319</ele>
        <time>2015-11-01T08:09:33.000Z</time>
      </trkpt>
      <trkpt lat="47.4941" lon="6.7568">
        <ele>319</ele>
        <time>2015-11-01T08:09:34.000Z</time>
      </trkpt>
      <trkpt lat="47.49414" lon="6.75678">
        <ele>319</ele>
        <time>2015-11-01T08:09:35.000Z</time>
      </trkpt>
      <trkpt lat="47.49418" lon="6.75675">
        <ele>320</ele>
        <time>2015-11-01T08:09:36.000Z</time>
      </trkpt>
      <trkpt lat="47.49422" lon="6.75673">
        <ele>320</ele>
        <time>2015-11-01T08:09:37.000Z</time>
      </trkpt>
      <trkpt lat="47.49424" lon="6.7567">
        <ele>320</ele>
        <time>2015-11-01T08:09:38.000Z</time>
      </trkpt>
      <trkpt lat="47.49427" lon="6.75667">
        <ele>320</ele>
        <time>2015-11-01T08:09:39.000Z</time>
      </trkpt>
      <trkpt lat="47.49429" lon="6.75665">
        <ele>320</ele>
        <time>2015-11-01T08:09:40.000Z</time>
      </trkpt>
      <trkpt lat="47.49431" lon="6.75668">
        <ele>320</ele>
        <time>2015-11-01T08:09:41.000Z</time>
      </trkpt>
      <trkpt lat="47.49434" lon="6.75672">
        <ele>320</ele>
        <time>2015-11-01T08:09:42.000Z</time>
      </trkpt>
      <trkpt lat="47.49436" lon="6.75675">
        <ele>320</ele>
        <time>2015-11-01T08:09:43.000Z</time>
      </trkpt>
      <trkpt lat="47.49437" lon="6.75679">
        <ele>320</ele>
        <time>2015-11-01T08:09:44.000Z</time>
      </trkpt>
      <trkpt lat="47.49439" lon="6.75683">
        <ele>320</ele>
        <time>2015-11-01T08:09:45.000Z</time>
      </trkpt>
      <trkpt lat="47.4944" lon="6.75688">
        <ele>320</ele>
        <time>2015-11-01T08:09:46.000Z</time>
      </trkpt>
      <trkpt lat="47.49441" lon="6.75692">
        <ele>320</ele>
        <time>2015-11-01T08:09:47.000Z</time>
      </trkpt>
      <trkpt lat="47.49442" lon="6.75697">
        <ele>321</ele>
        <time>2015-11-01T08:09:48.000Z</time>
      </trkpt>
      <trkpt lat="47.49444" lon="6.75701">
        <ele>321</ele>
        <time>2015-11-01T08:09:49.000Z</time>
      </trkpt>
      <trkpt lat="47.49446" lon="6.75703">
        <ele>321</ele>
        <time>2015-11-01T08:09:50.000Z</time>
      </trkpt>
      <trkpt lat="47.4945" lon="6.75702">
        <ele>321</ele>
        <time>2015-11-01T08:09:51.000Z</time>
      </trkpt>
      <trkpt lat="47.49453" lon="6.757">
        <ele>321</ele>
        <time>2015-11-01T08:09:52.000Z</time>
      </trkpt>
      <trkpt lat="47.49457" lon="6.75697">
        <ele>321</ele>
        <time>2015-11-01T08:09:53.000Z</time>
      </trkpt>
      <trkpt lat="47.49461" lon="6.75695">
        <ele>321</ele>
        <time>2015-11-01T08:09:54.000Z</time>
      </trkpt>
      <trkpt lat="47.49465" lon="6.75696">
        <ele>321</ele>
        <time>2015-11-01T08:09:55.000Z</time>
      </trkpt>
      <trkpt lat="47.49468" lon="6.75699">
        <ele>321</ele>
        <time>2015-11-01T08:09:56.000Z</time>
      </trkpt>
      <trkpt lat="47.4947" lon="6.75703">
        <ele>321</ele>
        <time>2015-11-01T08:09:57.000Z</time>
      </trkpt>
      <trkpt lat="47.49473" lon="6.75709">
        <ele>321</ele>
        <time>2015-11-01T08:09:58.000Z</time>
      </trkpt>
      <trkpt lat="47.49474" lon="6.75714">
        <ele>321</ele>
        <time>2015-11-01T08:09:59.000Z</time>
      </trkpt>
      <trkpt lat="47.49476" lon="6.7572">
        <ele>322</ele>
        <time>2015-11-01T08:10:00.000Z</time>
      </trkpt>
      <trkpt lat="47.49478" lon="6.75726">
        <ele>322</ele>
        <time>2015-11-01T08:10:01.000Z</time>
      </trkpt>
      <trkpt lat="47.4948" lon="6.75732">
        <ele>322</ele>
        <time>2015-11-01T08:10:02.000Z</time>
      </trkpt>
      <trkpt lat="47.49483" lon="6.75737">
        <ele>322</ele>
        <time>2015-11-01T08:10:03.000Z</time>
      </trkpt>
      <trkpt lat="47.49486" lon="6.75741">
        <ele>323</ele>
        <time>2015-11-01T08:10:04.000Z</time>
      </trkpt>
      <trkpt lat="47.4949" lon="6.75743">
        <ele>323</ele>
        <time>2015-11-01T08:10:05.000Z</time>
      </trkpt>
      <trkpt lat="47.49495" lon="6.75743">
        <ele>323</ele>
        <time>2015-11-01T08:10:06.000Z</time>
      </trkpt>
      <trkpt lat="47.49499" lon="6.75742">
        <ele>323</ele>
        <time>2015-11-01T08:10:07.000Z</time>
      </trkpt>
      <trkpt lat="47.49504" lon="6.7574">
        <ele>324</ele>
        <time>2015-11-01T08:10:08.000Z</time>
      </trkpt>
      <trkpt lat="47.49509" lon="6.75738">
        <ele>325</ele>
        <time>2015-11-01T08:10:09.000Z</time>
      </trkpt>
      <trkpt lat="47.49513" lon="6.75735">
        <ele>325</ele>
        <time>2015-11-01T08:10:10.000Z</time>
      </trkpt>
      <trkpt lat="47.49517" lon="6.75732">
        <ele>325</ele>
        <time>2015-11-01T08:10:11.000Z</time>
      </trkpt>
      <trkpt lat="47.49522" lon="6.75729">
        <ele>325</ele>
        <time>2015-11-01T08:10:12.000Z</time>
      </trkpt>
      <trkpt lat="47.49526" lon="6.75726">
        <ele>325</ele>
        <time>2015-11-01T08:10:13.000Z</time>
      </trkpt>
      <trkpt lat="47.4953" lon="6.75721">
        <ele>325</ele>
        <time>2015-11-01T08:10:14.000Z</time>
      </trkpt>
      <trkpt lat="47.49534" lon="6.75717">
        <ele>325</ele>
        <time>2015-11-01T08:10:15.000Z</time>
      </trkpt>
      <trkpt lat="47.49538" lon="6.75713">
        <ele>325</ele>
        <time>2015-11-01T08:10:16.000Z</time>
      </trkpt>
      <trkpt lat="47.49541" lon="6.75709">
        <ele>325</ele>
        <time>2015-11-01T08:10:17.000Z</time>
      </trkpt>
      <trkpt lat="47.49545" lon="6.75705">
        <ele>325</ele>
        <time>2015-11-01T08:10:18.000Z</time>
      </trkpt>
      <trkpt lat="47.49549" lon="6.757">
        <ele>325</ele>
        <time>2015-11-01T08:10:19.000Z</time>
      </trkpt>
      <trkpt lat="47.49552" lon="6.75696">
        <ele>325</ele>
        <time>2015-11-01T08:10:20.000Z</time>
      </trkpt>
      <trkpt lat="47.49555" lon="6.75692">
        <ele>324</ele>
        <time>2015-11-01T08:10:21.000Z</time>
      </trkpt>
      <trkpt lat="47.49559" lon="6.75687">
        <ele>324</ele>
        <time>2015-11-01T08:10:22.000Z</time>
      </trkpt>
      <trkpt lat="47.49562" lon="6.75683">
        <ele>324</ele>
        <time>2015-11-01T08:10:23.000Z</time>
      </trkpt>
      <trkpt lat="47.49565" lon="6.75678">
        <ele>323</ele>
        <time>2015-11-01T08:10:24.000Z</time>
      </trkpt>
      <trkpt lat="47.49567" lon="6.75674">
        <ele>323</ele>
        <time>2015-11-01T08:10:25.000Z</time>
      </trkpt>
      <trkpt lat="47.4957" lon="6.75669">
        <ele>323</ele>
        <time>2015-11-01T08:10:26.000Z</time>
      </trkpt>
      <trkpt lat="47.49574" lon="6.75666">
        <ele>321</ele>
        <time>2015-11-01T08:10:27.000Z</time>
      </trkpt>
      <trkpt lat="47.49577" lon="6.75664">
        <ele>321</ele>
        <time>2015-11-01T08:10:28.000Z</time>
      </trkpt>
      <trkpt lat="47.49581" lon="6.75665">
        <ele>321</ele>
        <time>2015-11-01T08:10:29.000Z</time>
      </trkpt>
      <trkpt lat="47.49584" lon="6.75668">
        <ele>322</ele>
        <time>2015-11-01T08:10:30.000Z</time>
      </trkpt>
      <trkpt lat="47.49587" lon="6.75672">
        <ele>323</ele>
        <time>2015-11-01T08:10:31.000Z</time>
      </trkpt>
      <trkpt lat="47.4959" lon="6.75677">
        <ele>325</ele>
        <time>2015-11-01T08:10:32.000Z</time>
      </trkpt>
      <trkpt lat="47.49592" lon="6.75682">
        <ele>326</ele>
        <time>2015-11-01T08:10:33.000Z</time>
      </trkpt>
      <trkpt lat="47.49595" lon="6.75687">
        <ele>327</ele>
        <time>2015-11-01T08:10:34.000Z</time>
      </trkpt>
      <trkpt lat="47.49596" lon="6.75692">
        <ele>328</ele>
        <time>2015-11-01T08:10:35.000Z</time>
      </trkpt>
      <trkpt lat="47.49597" lon="6.75698">
        <ele>329</ele>
        <time>2015-11-01T08:10:36.000Z</time>
      </trkpt>
      <trkpt lat="47.49595" lon="6.75704">
        <ele>330</ele>
        <time>2015-11-01T08:10:37.000Z</time>
      </trkpt>
      <trkpt lat="47.49593" lon="6.75709">
        <ele>330</ele>
        <time>2015-11-01T08:10:38.000Z</time>
      </trkpt>
      <trkpt lat="47.4959" lon="6.75714">
        <ele>331</ele>
        <time>2015-11-01T08:10:39.000Z</time>
      </trkpt>
      <trkpt lat="47.49587" lon="6.75718">
        <ele>331</ele>
        <time>2015-11-01T08:10:40.000Z</time>
      </trkpt>
      <trkpt lat="47.49583" lon="6.75722">
        <ele>328</ele>
        <time>2015-11-01T08:10:41.000Z</time>
      </trkpt>
      <trkpt lat="47.4958" lon="6.75726">
        <ele>328</ele>
        <time>2015-11-01T08:10:42.000Z</time>
      </trkpt>
      <trkpt lat="47.49576" lon="6.7573">
        <ele>329</ele>
        <time>2015-11-01T08:10:43.000Z</time>
      </trkpt>
      <trkpt lat="47.49573" lon="6.75733">
        <ele>329</ele>
        <time>2015-11-01T08:10:44.000Z</time>
      </trkpt>
      <trkpt lat="47.4957" lon="6.75737">
        <ele>329</ele>
        <time>2015-11-01T08:10:45.000Z</time>
      </trkpt>
      <trkpt lat="47.49567" lon="6.7574">
        <ele>329</ele>
        <time>2015-11-01T08:10:46.000Z</time>
      </trkpt>
      <trkpt lat="47.49564" lon="6.75743">
        <ele>329</ele>
        <time>2015-11-01T08:10:47.000Z</time>
      </trkpt>
      <trkpt lat="47.49561" lon="6.75746">
        <ele>328</ele>
        <time>2015-11-01T08:10:48.000Z</time>
      </trkpt>
      <trkpt lat="47.49557" lon="6.75749">
        <ele>328</ele>
        <time>2015-11-01T08:10:49.000Z</time>
      </trkpt>
      <trkpt lat="47.49555" lon="6.75752">
        <ele>334</ele>
        <time>2015-11-01T08:10:50.000Z</time>
      </trkpt>
      <trkpt lat="47.49554" lon="6.75756">
        <ele>335</ele>
        <time>2015-11-01T08:10:51.000Z</time>
      </trkpt>
      <trkpt lat="47.49554" lon="6.7576">
        <ele>335</ele>
        <time>2015-11-01T08:10:52.000Z</time>
      </trkpt>
      <trkpt lat="47.49555" lon="6.75764">
        <ele>335</ele>
        <time>2015-11-01T08:10:53.000Z</time>
      </trkpt>
      <trkpt lat="47.49557" lon="6.75768">
        <ele>335</ele>
        <time>2015-11-01T08:10:54.000Z</time>
      </trkpt>
      <trkpt lat="47.4956" lon="6.75771">
        <ele>336</ele>
        <time>2015-11-01T08:10:55.000Z</time>
      </trkpt>
      <trkpt lat="47.49562" lon="6.75774">
        <ele>336</ele>
        <time>2015-11-01T08:10:56.000Z</time>
      </trkpt>
      <trkpt lat="47.49564" lon="6.75776">
        <ele>336</ele>
        <time>2015-11-01T08:10:57.000Z</time>
      </trkpt>
      <trkpt lat="47.49568" lon="6.75778">
        <ele>336</ele>
        <time>2015-11-01T08:10:59.000Z</time>
      </trkpt>
      <trkpt lat="47.4957" lon="6.75779">
        <ele>336</ele>
        <time>2015-11-01T08:11:00.000Z</time>
      </trkpt>
      <trkpt lat="47.49572" lon="6.7578">
        <ele>337</ele>
        <time>2015-11-01T08:11:02.000Z</time>
      </trkpt>
      <trkpt lat="47.49574" lon="6.75781">
        <ele>337</ele>
        <time>2015-11-01T08:11:03.000Z</time>
      </trkpt>
      <trkpt lat="47.49578" lon="6.75781">
        <ele>337</ele>
        <time>2015-11-01T08:11:06.000Z</time>
      </trkpt>
      <trkpt lat="47.49579" lon="6.7578">
        <ele>337</ele>
        <time>2015-11-01T08:11:07.000Z</time>
      </trkpt>
      <trkpt lat="47.49583" lon="6.7578">
        <ele>343</ele>
        <time>2015-11-01T08:11:10.000Z</time>
      </trkpt>
      <trkpt lat="47.49585" lon="6.75779">
        <ele>343</ele>
        <time>2015-11-01T08:11:11.000Z</time>
      </trkpt>
      <trkpt lat="47.49588" lon="6.75779">
        <ele>343</ele>
        <time>2015-11-01T08:11:13.000Z</time>
      </trkpt>
      <trkpt lat="47.4959" lon="6.7578">
        <ele>343</ele>
        <time>2015-11-01T08:11:14.000Z</time>
      </trkpt>
      <trkpt lat="47.49593" lon="6.75781">
        <ele>343</ele>
        <time>2015-11-01T08:11:16.000Z</time>
      </trkpt>
      <trkpt lat="47.49595" lon="6.75781">
        <ele>343</ele>
        <time>2015-11-01T08:11:17.000Z</time>
      </trkpt>
      <trkpt lat="47.49598" lon="6.7578">
        <ele>343</ele>
        <time>2015-11-01T08:11:19.000Z</time>
      </trkpt>
      <trkpt lat="47.49599" lon="6.7578">
        <ele>343</ele>
        <time>2015-11-01T08:11:20.000Z</time>
      </trkpt>
      <trkpt lat="47.49603" lon="6.75778">
        <ele>343</ele>
        <time>2015-11-01T08:11:23.000Z</time>
      </trkpt>
      <trkpt lat="47.49605" lon="6.75777">
        <ele>343</ele>
        <time>2015-11-01T08:11:24.000Z</time>
      </trkpt>
      <trkpt lat="47.49609" lon="6.75776">
        <ele>344</ele>
        <time>2015-11-01T08:11:26.000Z</time>
      </trkpt>
      <trkpt lat="47.49612" lon="6.75776">
        <ele>344</ele>
        <time>2015-11-01T08:11:27.000Z</time>
      </trkpt>
      <trkpt lat="47.49616" lon="6.75776">
        <ele>344</ele>
        <time>2015-11-01T08:11:29.000Z</time>
      </trkpt>
      <trkpt lat="47.49618" lon="6.75776">
        <ele>344</ele>
        <time>2015-11-01T08:11:30.000Z</time>
      </trkpt>
      <trkpt lat="47.49622" lon="6.75776">
        <ele>345</ele>
        <time>2015-11-01T08:11:32.000Z</time>
      </trkpt>
      <trkpt lat="47.49623" lon="6.75775">
        <ele>345</ele>
        <time>2015-11-01T08:11:33.000Z</time>
      </trkpt>
      <trkpt lat="47.49627" lon="6.75775">
        <ele>345</ele>
        <time>2015-11-01T08:11:35.000Z</time>
      </trkpt>
      <trkpt lat="47.49629" lon="6.75775">
        <ele>345</ele>
        <time>2015-11-01T08:11:36.000Z</time>
      </trkpt>
      <trkpt lat="47.49632" lon="6.75775">
        <ele>345</ele>
        <time>2015-11-01T08:11:39.000Z</time>
      </trkpt>
      <trkpt lat="47.49634" lon="6.75775">
        <ele>345</ele>
        <time>2015-11-01T08:11:40.000Z</time>
      </trkpt>
      <trkpt lat="47.49637" lon="6.75775">
        <ele>345</ele>
        <time>2015-11-01T08:11:42.000Z</time>
      </trkpt>
      <trkpt lat="47.49638" lon="6.75775">
        <ele>346</ele>
        <time>2015-11-01T08:11:43.000Z</time>
      </trkpt>
      <trkpt lat="47.49642" lon="6.75774">
        <ele>346</ele>
        <time>2015-11-01T08:11:45.000Z</time>
      </trkpt>
      <trkpt lat="47.49644" lon="6.75774">
        <ele>346</ele>
        <time>2015-11-01T08:11:46.000Z</time>
      </trkpt>
      <trkpt lat="47.49648" lon="6.75773">
        <ele>346</ele>
        <time>2015-11-01T08:11:48.000Z</time>
      </trkpt>
      <trkpt lat="47.4965" lon="6.75773">
        <ele>346</ele>
        <time>2015-11-01T08:11:49.000Z</time>
      </trkpt>
      <trkpt lat="47.49653" lon="6.75773">
        <ele>346</ele>
        <time>2015-11-01T08:11:50.000Z</time>
      </trkpt>
      <trkpt lat="47.49655" lon="6.75773">
        <ele>346</ele>
        <time>2015-11-01T08:11:51.000Z</time>
      </trkpt>
      <trkpt lat="47.49658" lon="6.75772">
        <ele>346</ele>
        <time>2015-11-01T08:11:52.000Z</time>
      </trkpt>
      <trkpt lat="47.4966" lon="6.75772">
        <ele>346</ele>
        <time>2015-11-01T08:11:53.000Z</time>
      </trkpt>
      <trkpt lat="47.49663" lon="6.75772">
        <ele>346</ele>
        <time>2015-11-01T08:11:54.000Z</time>
      </trkpt>
      <trkpt lat="47.49665" lon="6.75772">
        <ele>346</ele>
        <time>2015-11-01T08:11:55.000Z</time>
      </trkpt>
      <trkpt lat="47.49668" lon="6.75771">
        <ele>350</ele>
        <time>2015-11-01T08:11:56.000Z</time>
      </trkpt>
      <trkpt lat="47.4967" lon="6.75771">
        <ele>350</ele>
        <time>2015-11-01T08:11:57.000Z</time>
      </trkpt>
      <trkpt lat="47.49673" lon="6.7577">
        <ele>350</ele>
        <time>2015-11-01T08:11:58.000Z</time>
      </trkpt>
      <trkpt lat="47.49675" lon="6.7577">
        <ele>350</ele>
        <time>2015-11-01T08:11:59.000Z</time>
      </trkpt>
      <trkpt lat="47.49678" lon="6.75769">
        <ele>350</ele>
        <time>2015-11-01T08:12:00.000Z</time>
      </trkpt>
      <trkpt lat="47.49681" lon="6.75768">
        <ele>350</ele>
        <time>2015-11-01T08:12:01.000Z</time>
      </trkpt>
      <trkpt lat="47.49684" lon="6.75767">
        <ele>351</ele>
        <time>2015-11-01T08:12:02.000Z</time>
      </trkpt>
      <trkpt lat="47.49687" lon="6.75766">
        <ele>351</ele>
        <time>2015-11-01T08:12:03.000Z</time>
      </trkpt>
      <trkpt lat="47.4969" lon="6.75765">
        <ele>351</ele>
        <time>2015-11-01T08:12:04.000Z</time>
      </trkpt>
      <trkpt lat="47.49693" lon="6.75764">
        <ele>351</ele>
        <time>2015-11-01T08:12:05.000Z</time>
      </trkpt>
      <trkpt lat="47.49696" lon="6.75763">
        <ele>352</ele>
        <time>2015-11-01T08:12:06.000Z</time>
      </trkpt>
      <trkpt lat="47.49699" lon="6.75762">
        <ele>352</ele>
        <time>2015-11-01T08:12:07.000Z</time>
      </trkpt>
      <trkpt lat="47.49702" lon="6.75761">
        <ele>352</ele>
        <time>2015-11-01T08:12:08.000Z</time>
      </trkpt>
      <trkpt lat="47.49705" lon="6.7576">
        <ele>352</ele>
        <time>2015-11-01T08:12:09.000Z</time>
      </trkpt>
      <trkpt lat="47.49708" lon="6.75759">
        <ele>352</ele>
        <time>2015-11-01T08:12:10.000Z</time>
      </trkpt>
      <trkpt lat="47.49711" lon="6.75758">
        <ele>352</ele>
        <time>2015-11-01T08:12:11.000Z</time>
      </trkpt>
      <trkpt lat="47.49715" lon="6.75757">
        <ele>353</ele>
        <time>2015-11-01T08:12:12.000Z</time>
      </trkpt>
      <trkpt lat="47.49718" lon="6.75756">
        <ele>353</ele>
        <time>2015-11-01T08:12:13.000Z</time>
      </trkpt>
      <trkpt lat="47.49721" lon="6.75755">
        <ele>353</ele>
        <time>2015-11-01T08:12:14.000Z</time>
      </trkpt>
      <trkpt lat="47.49724" lon="6.75754">
        <ele>353</ele>
        <time>2015-11-01T08:12:15.000Z</time>
      </trkpt>
      <trkpt lat="47.49727" lon="6.75753">
        <ele>353</ele>
        <time>2015-11-01T08:12:16.000Z</time>
      </trkpt>
      <trkpt lat="47.4973" lon="6.75752">
        <ele>353</ele>
        <time>2015-11-01T08:12:17.000Z</time>
      </trkpt>
      <trkpt lat="47.49733" lon="6.75751">
        <ele>352</ele>
        <time>2015-11-01T08:12:18.000Z</time>
      </trkpt>
      <trkpt lat="47.49735" lon="6.7575">
        <ele>352</ele>
        <time>2015-11-01T08:12:19.000Z</time>
      </trkpt>
      <trkpt lat="47.49738" lon="6.7575">
        <ele>347</ele>
        <time>2015-11-01T08:12:20.000Z</time>
      </trkpt>
      <trkpt lat="47.4974" lon="6.75749">
        <ele>348</ele>
        <time>2015-11-01T08:12:21.000Z</time>
      </trkpt>
      <trkpt lat="47.49744" lon="6.75748">
        <ele>348</ele>
        <time>2015-11-01T08:12:22.000Z</time>
      </trkpt>
      <trkpt lat="47.49747" lon="6.75747">
        <ele>349</ele>
        <time>2015-11-01T08:12:23.000Z</time>
      </trkpt>
      <trkpt lat="47.4975" lon="6.75747">
        <ele>350</ele>
        <time>2015-11-01T08:12:24.000Z</time>
      </trkpt>
      <trkpt lat="47.49753" lon="6.75746">
        <ele>351</ele>
        <time>2015-11-01T08:12:25.000Z</time>
      </trkpt>
      <trkpt lat="47.49756" lon="6.75745">
        <ele>351</ele>
        <time>2015-11-01T08:12:26.000Z</time>
      </trkpt>
      <trkpt lat="47.49758" lon="6.75744">
        <ele>351</ele>
        <time>2015-11-01T08:12:27.000Z</time>
      </trkpt>
      <trkpt lat="47.49761" lon="6.75744">
        <ele>351</ele>
        <time>2015-11-01T08:12:28.000Z</time>
      </trkpt>
      <trkpt lat="47.49764" lon="6.75743">
        <ele>351</ele>
        <time>2015-11-01T08:12:29.000Z</time>
      </trkpt>
      <trkpt lat="47.49766" lon="6.75742">
        <ele>351</ele>
        <time>2015-11-01T08:12:30.000Z</time>
      </trkpt>
      <trkpt lat="47.49769" lon="6.75742">
        <ele>351</ele>
        <time>2015-11-01T08:12:31.000Z</time>
      </trkpt>
      <trkpt lat="47.49773" lon="6.7574">
        <ele>351</ele>
        <time>2015-11-01T08:12:33.000Z</time>
      </trkpt>
      <trkpt lat="47.49775" lon="6.7574">
        <ele>351</ele>
        <time>2015-11-01T08:12:34.000Z</time>
      </trkpt>
      <trkpt lat="47.49779" lon="6.75739">
        <ele>351</ele>
        <time>2015-11-01T08:12:36.000Z</time>
      </trkpt>
      <trkpt lat="47.49781" lon="6.75739">
        <ele>351</ele>
        <time>2015-11-01T08:12:37.000Z</time>
      </trkpt>
      <trkpt lat="47.49784" lon="6.75737">
        <ele>351</ele>
        <time>2015-11-01T08:12:39.000Z</time>
      </trkpt>
      <trkpt lat="47.49787" lon="6.75737">
        <ele>351</ele>
        <time>2015-11-01T08:12:40.000Z</time>
      </trkpt>
      <trkpt lat="47.49789" lon="6.75736">
        <ele>352</ele>
        <time>2015-11-01T08:12:41.000Z</time>
      </trkpt>
      <trkpt lat="47.49791" lon="6.75735">
        <ele>352</ele>
        <time>2015-11-01T08:12:42.000Z</time>
      </trkpt>
      <trkpt lat="47.49794" lon="6.75734">
        <ele>352</ele>
        <time>2015-11-01T08:12:43.000Z</time>
      </trkpt>
      <trkpt lat="47.49796" lon="6.75734">
        <ele>352</ele>
        <time>2015-11-01T08:12:44.000Z</time>
      </trkpt>
      <trkpt lat="47.49798" lon="6.75734">
        <ele>352</ele>
        <time>2015-11-01T08:12:45.000Z</time>
      </trkpt>
      <trkpt lat="47.49801" lon="6.75733">
        <ele>352</ele>
        <time>2015-11-01T08:12:46.000Z</time>
      </trkpt>
      <trkpt lat="47.49804" lon="6.75733">
        <ele>353</ele>
        <time>2015-11-01T08:12:47.000Z</time>
      </trkpt>
      <trkpt lat="47.49806" lon="6.75732">
        <ele>353</ele>
        <time>2015-11-01T08:12:48.000Z</time>
      </trkpt>
      <trkpt lat="47.49809" lon="6.75731">
        <ele>353</ele>
        <time>2015-11-01T08:12:49.000Z</time>
      </trkpt>
      <trkpt lat="47.49811" lon="6.75731">
        <ele>353</ele>
        <time>2015-11-01T08:12:50.000Z</time>
      </trkpt>
      <trkpt lat="47.49814" lon="6.7573">
        <ele>353</ele>
        <time>2015-11-01T08:12:51.000Z</time>
      </trkpt>
      <trkpt lat="47.49817" lon="6.75729">
        <ele>354</ele>
        <time>2015-11-01T08:12:52.000Z</time>
      </trkpt>
      <trkpt lat="47.49819" lon="6.75728">
        <ele>354</ele>
        <time>2015-11-01T08:12:53.000Z</time>
      </trkpt>
      <trkpt lat="47.49822" lon="6.75727">
        <ele>354</ele>
        <time>2015-11-01T08:12:54.000Z</time>
      </trkpt>
      <trkpt lat="47.49826" lon="6.75725">
        <ele>354</ele>
        <time>2015-11-01T08:12:56.000Z</time>
      </trkpt>
      <trkpt lat="47.49828" lon="6.75724">
        <ele>354</ele>
        <time>2015-11-01T08:12:57.000Z</time>
      </trkpt>
      <trkpt lat="47.49832" lon="6.75721">
        <ele>354</ele>
        <time>2015-11-01T08:12:59.000Z</time>
      </trkpt>
      <trkpt lat="47.49834" lon="6.7572">
        <ele>361</ele>
        <time>2015-11-01T08:13:00.000Z</time>
      </trkpt>
      <trkpt lat="47.49837" lon="6.75717">
        <ele>361</ele>
        <time>2015-11-01T08:13:02.000Z</time>
      </trkpt>
      <trkpt lat="47.49839" lon="6.75716">
        <ele>361</ele>
        <time>2015-11-01T08:13:03.000Z</time>
      </trkpt>
      <trkpt lat="47.49843" lon="6.75714">
        <ele>361</ele>
        <time>2015-11-01T08:13:05.000Z</time>
      </trkpt>
      <trkpt lat="47.49845" lon="6.75714">
        <ele>361</ele>
        <time>2015-11-01T08:13:06.000Z</time>
      </trkpt>
      <trkpt lat="47.49849" lon="6.75713">
        <ele>361</ele>
        <time>2015-11-01T08:13:08.000Z</time>
      </trkpt>
      <trkpt lat="47.49851" lon="6.75713">
        <ele>361</ele>
        <time>2015-11-01T08:13:09.000Z</time>
      </trkpt>
      <trkpt lat="47.49855" lon="6.75712">
        <ele>361</ele>
        <time>2015-11-01T08:13:11.000Z</time>
      </trkpt>
      <trkpt lat="47.49856" lon="6.75711">
        <ele>361</ele>
        <time>2015-11-01T08:13:12.000Z</time>
      </trkpt>
      <trkpt lat="47.4986" lon="6.75709">
        <ele>361</ele>
        <time>2015-11-01T08:13:14.000Z</time>
      </trkpt>
      <trkpt lat="47.49861" lon="6.75709">
        <ele>362</ele>
        <time>2015-11-01T08:13:15.000Z</time>
      </trkpt>
      <trkpt lat="47.49864" lon="6.75708">
        <ele>362</ele>
        <time>2015-11-01T08:13:17.000Z</time>
      </trkpt>
      <trkpt lat="47.49865" lon="6.75707">
        <ele>362</ele>
        <time>2015-11-01T08:13:18.000Z</time>
      </trkpt>
      <trkpt lat="47.49869" lon="6.75705">
        <ele>362</ele>
        <time>2015-11-01T08:13:20.000Z</time>
      </trkpt>
      <trkpt lat="47.49871" lon="6.75704">
        <ele>362</ele>
        <time>2015-11-01T08:13:21.000Z</time>
      </trkpt>
      <trkpt lat="47.49874" lon="6.75703">
        <ele>362</ele>
        <time>2015-11-01T08:13:22.000Z</time>
      </trkpt>
      <trkpt lat="47.49876" lon="6.75703">
        <ele>362</ele>
        <time>2015-11-01T08:13:23.000Z</time>
      </trkpt>
      <trkpt lat="47.49881" lon="6.75703">
        <ele>363</ele>
        <time>2015-11-01T08:13:25.000Z</time>
      </trkpt>
      <trkpt lat="47.49883" lon="6.75703">
        <ele>363</ele>
        <time>2015-11-01T08:13:26.000Z</time>
      </trkpt>
      <trkpt lat="47.49887" lon="6.75701">
        <ele>363</ele>
        <time>2015-11-01T08:13:28.000Z</time>
      </trkpt>
      <trkpt lat="47.49889" lon="6.757">
        <ele>363</ele>
        <time>2015-11-01T08:13:29.000Z</time>
      </trkpt>
      <trkpt lat="47.49892" lon="6.75698">
        <ele>364</ele>
        <time>2015-11-01T08:13:31.000Z</time>
      </trkpt>
      <trkpt lat="47.49894" lon="6.75697">
        <ele>364</ele>
        <time>2015-11-01T08:13:32.000Z</time>
      </trkpt>
      <trkpt lat="47.49898" lon="6.75697">
        <ele>364</ele>
        <time>2015-11-01T08:13:34.000Z</time>
      </trkpt>
      <trkpt lat="47.49901" lon="6.75698">
        <ele>364</ele>
        <time>2015-11-01T08:13:35.000Z</time>
      </trkpt>
      <trkpt lat="47.49905" lon="6.75699">
        <ele>364</ele>
        <time>2015-11-01T08:13:37.000Z</time>
      </trkpt>
      <trkpt lat="47.49907" lon="6.75701">
        <ele>364</ele>
        <time>2015-11-01T08:13:38.000Z</time>
      </trkpt>
      <trkpt lat="47.49909" lon="6.75702">
        <ele>365</ele>
        <time>2015-11-01T08:13:39.000Z</time>
      </trkpt>
      <trkpt lat="47.49911" lon="6.75704">
        <ele>365</ele>
        <time>2015-11-01T08:13:40.000Z</time>
      </trkpt>
      <trkpt lat="47.49913" lon="6.75705">
        <ele>365</ele>
        <time>2015-11-01T08:13:41.000Z</time>
      </trkpt>
      <trkpt lat="47.49914" lon="6.75708">
        <ele>365</ele>
        <time>2015-11-01T08:13:42.000Z</time>
      </trkpt>
      <trkpt lat="47.49917" lon="6.75712">
        <ele>370</ele>
        <time>2015-11-01T08:13:44.000Z</time>
      </trkpt>
      <trkpt lat="47.49919" lon="6.75715">
        <ele>370</ele>
        <time>2015-11-01T08:13:45.000Z</time>
      </trkpt>
      <trkpt lat="47.49922" lon="6.75718">
        <ele>370</ele>
        <time>2015-11-01T08:13:54.000Z</time>
      </trkpt>
      <trkpt lat="47.49923" lon="6.7572">
        <ele>370</ele>
        <time>2015-11-01T08:13:55.000Z</time>
      </trkpt>
      <trkpt lat="47.49926" lon="6.75724">
        <ele>370</ele>
        <time>2015-11-01T08:13:58.000Z</time>
      </trkpt>
      <trkpt lat="47.49927" lon="6.75725">
        <ele>370</ele>
        <time>2015-11-01T08:13:59.000Z</time>
      </trkpt>
      <trkpt lat="47.49929" lon="6.75728">
        <ele>370</ele>
        <time>2015-11-01T08:14:01.000Z</time>
      </trkpt>
      <trkpt lat="47.49931" lon="6.7573">
        <ele>370</ele>
        <time>2015-11-01T08:14:02.000Z</time>
      </trkpt>
      <trkpt lat="47.49933" lon="6.75733">
        <ele>370</ele>
        <time>2015-11-01T08:14:04.000Z</time>
      </trkpt>
      <trkpt lat="47.49934" lon="6.75735">
        <ele>370</ele>
        <time>2015-11-01T08:14:05.000Z</time>
      </trkpt>
      <trkpt lat="47.49937" lon="6.75738">
        <ele>370</ele>
        <time>2015-11-01T08:14:07.000Z</time>
      </trkpt>
      <trkpt lat="47.49939" lon="6.75739">
        <ele>370</ele>
        <time>2015-11-01T08:14:08.000Z</time>
      </trkpt>
      <trkpt lat="47.49942" lon="6.75743">
        <ele>370</ele>
        <time>2015-11-01T08:14:10.000Z</time>
      </trkpt>
      <trkpt lat="47.49944" lon="6.75745">
        <ele>370</ele>
        <time>2015-11-01T08:14:11.000Z</time>
      </trkpt>
      <trkpt lat="47.49946" lon="6.75747">
        <ele>371</ele>
        <time>2015-11-01T08:14:12.000Z</time>
      </trkpt>
      <trkpt lat="47.49947" lon="6.7575">
        <ele>373</ele>
        <time>2015-11-01T08:14:13.000Z</time>
      </trkpt>
      <trkpt lat="47.49949" lon="6.75753">
        <ele>373</ele>
        <time>2015-11-01T08:14:14.000Z</time>
      </trkpt>
      <trkpt lat="47.4995" lon="6.75755">
        <ele>373</ele>
        <time>2015-11-01T08:14:15.000Z</time>
      </trkpt>
      <trkpt lat="47.49953" lon="6.7576">
        <ele>373</ele>
        <time>2015-11-01T08:14:17.000Z</time>
      </trkpt>
      <trkpt lat="47.49955" lon="6.75762">
        <ele>373</ele>
        <time>2015-11-01T08:14:18.000Z</time>
      </trkpt>
      <trkpt lat="47.49957" lon="6.75767">
        <ele>373</ele>
        <time>2015-11-01T08:14:20.000Z</time>
      </trkpt>
      <trkpt lat="47.49959" lon="6.75769">
        <ele>374</ele>
        <time>2015-11-01T08:14:21.000Z</time>
      </trkpt>
      <trkpt lat="47.49961" lon="6.75772">
        <ele>374</ele>
        <time>2015-11-01T08:14:22.000Z</time>
      </trkpt>
      <trkpt lat="47.49963" lon="6.75774">
        <ele>374</ele>
        <time>2015-11-01T08:14:23.000Z</time>
      </trkpt>
      <trkpt lat="47.49965" lon="6.75777">
        <ele>374</ele>
        <time>2015-11-01T08:14:24.000Z</time>
      </trkpt>
      <trkpt lat="47.49968" lon="6.7578">
        <ele>374</ele>
        <time>2015-11-01T08:14:25.000Z</time>
      </trkpt>
      <trkpt lat="47.4997" lon="6.75783">
        <ele>374</ele>
        <time>2015-11-01T08:14:26.000Z</time>
      </trkpt>
      <trkpt lat="47.49973" lon="6.75786">
        <ele>374</ele>
        <time>2015-11-01T08:14:27.000Z</time>
      </trkpt>
      <trkpt lat="47.49975" lon="6.7579">
        <ele>375</ele>
        <time>2015-11-01T08:14:28.000Z</time>
      </trkpt>
      <trkpt lat="47.49977" lon="6.75793">
        <ele>375</ele>
        <time>2015-11-01T08:14:29.000Z</time>
      </trkpt>
      <trkpt lat="47.49979" lon="6.75796">
        <ele>375</ele>
        <time>2015-11-01T08:14:30.000Z</time>
      </trkpt>
      <trkpt lat="47.49981" lon="6.75799">
        <ele>375</ele>
        <time>2015-11-01T08:14:31.000Z</time>
      </trkpt>
      <trkpt lat="47.49982" lon="6.75801">
        <ele>375</ele>
        <time>2015-11-01T08:14:32.000Z</time>
      </trkpt>
      <trkpt lat="47.49984" lon="6.75804">
        <ele>375</ele>
        <time>2015-11-01T08:14:33.000Z</time>
      </trkpt>
      <trkpt lat="47.49986" lon="6.75807">
        <ele>375</ele>
        <time>2015-11-01T08:14:34.000Z</time>
      </trkpt>
      <trkpt lat="47.49988" lon="6.75809">
        <ele>376</ele>
        <time>2015-11-01T08:14:35.000Z</time>
      </trkpt>
      <trkpt lat="47.49991" lon="6.75812">
        <ele>376</ele>
        <time>2015-11-01T08:14:39.000Z</time>
      </trkpt>
      <trkpt lat="47.49992" lon="6.75813">
        <ele>376</ele>
        <time>2015-11-01T08:14:40.000Z</time>
      </trkpt>
      <trkpt lat="47.49994" lon="6.75817">
        <ele>376</ele>
        <time>2015-11-01T08:14:43.000Z</time>
      </trkpt>
      <trkpt lat="47.49995" lon="6.75819">
        <ele>377</ele>
        <time>2015-11-01T08:14:44.000Z</time>
      </trkpt>
      <trkpt lat="47.49996" lon="6.75822">
        <ele>377</ele>
        <time>2015-11-01T08:14:45.000Z</time>
      </trkpt>
      <trkpt lat="47.49998" lon="6.75825">
        <ele>377</ele>
        <time>2015-11-01T08:14:46.000Z</time>
      </trkpt>
      <trkpt lat="47.5" lon="6.75828">
        <ele>378</ele>
        <time>2015-11-01T08:14:47.000Z</time>
      </trkpt>
      <trkpt lat="47.50002" lon="6.75832">
        <ele>379</ele>
        <time>2015-11-01T08:14:48.000Z</time>
      </trkpt>
      <trkpt lat="47.50004" lon="6.75836">
        <ele>379</ele>
        <time>2015-11-01T08:14:49.000Z</time>
      </trkpt>
      <trkpt lat="47.50006" lon="6.7584">
        <ele>378</ele>
        <time>2015-11-01T08:14:50.000Z</time>
      </trkpt>
      <trkpt lat="47.50008" lon="6.75843">
        <ele>378</ele>
        <time>2015-11-01T08:14:51.000Z</time>
      </trkpt>
      <trkpt lat="47.5001" lon="6.75846">
        <ele>378</ele>
        <time>2015-11-01T08:14:52.000Z</time>
      </trkpt>
      <trkpt lat="47.50013" lon="6.7585">
        <ele>377</ele>
        <time>2015-11-01T08:14:53.000Z</time>
      </trkpt>
      <trkpt lat="47.50015" lon="6.75853">
        <ele>377</ele>
        <time>2015-11-01T08:14:54.000Z</time>
      </trkpt>
      <trkpt lat="47.50017" lon="6.75856">
        <ele>377</ele>
        <time>2015-11-01T08:14:55.000Z</time>
      </trkpt>
      <trkpt lat="47.50019" lon="6.75859">
        <ele>377</ele>
        <time>2015-11-01T08:14:56.000Z</time>
      </trkpt>
      <trkpt lat="47.50021" lon="6.75861">
        <ele>377</ele>
        <time>2015-11-01T08:14:57.000Z</time>
      </trkpt>
      <trkpt lat="47.50023" lon="6.75864">
        <ele>377</ele>
        <time>2015-11-01T08:14:58.000Z</time>
      </trkpt>
      <trkpt lat="47.50025" lon="6.75866">
        <ele>377</ele>
        <time>2015-11-01T08:14:59.000Z</time>
      </trkpt>
      <trkpt lat="47.50027" lon="6.75869">
        <ele>376</ele>
        <time>2015-11-01T08:15:00.000Z</time>
      </trkpt>
      <trkpt lat="47.50029" lon="6.75872">
        <ele>376</ele>
        <time>2015-11-01T08:15:01.000Z</time>
      </trkpt>
      <trkpt lat="47.50031" lon="6.75875">
        <ele>376</ele>
        <time>2015-11-01T08:15:02.000Z</time>
      </trkpt>
      <trkpt lat="47.50034" lon="6.75878">
        <ele>376</ele>
        <time>2015-11-01T08:15:03.000Z</time>
      </trkpt>
      <trkpt lat="47.50036" lon="6.75882">
        <ele>376</ele>
        <time>2015-11-01T08:15:04.000Z</time>
      </trkpt>
      <trkpt lat="47.50038" lon="6.75885">
        <ele>376</ele>
        <time>2015-11-01T08:15:05.000Z</time>
      </trkpt>
      <trkpt lat="47.5004" lon="6.75888">
        <ele>376</ele>
        <time>2015-11-01T08:15:06.000Z</time>
      </trkpt>
      <trkpt lat="47.50042" lon="6.7589">
        <ele>376</ele>
        <time>2015-11-01T08:15:07.000Z</time>
      </trkpt>
      <trkpt lat="47.50044" lon="6.75893">
        <ele>376</ele>
        <time>2015-11-01T08:15:08.000Z</time>
      </trkpt>
      <trkpt lat="47.50046" lon="6.75896">
        <ele>376</ele>
        <time>2015-11-01T08:15:09.000Z</time>
      </trkpt>
      <trkpt lat="47.50047" lon="6.759">
        <ele>376</ele>
        <time>2015-11-01T08:15:10.000Z</time>
      </trkpt>
      <trkpt lat="47.50049" lon="6.75903">
        <ele>376</ele>
        <time>2015-11-01T08:15:11.000Z</time>
      </trkpt>
      <trkpt lat="47.5005" lon="6.75908">
        <ele>376</ele>
        <time>2015-11-01T08:15:12.000Z</time>
      </trkpt>
      <trkpt lat="47.50052" lon="6.75912">
        <ele>376</ele>
        <time>2015-11-01T08:15:13.000Z</time>
      </trkpt>
      <trkpt lat="47.50054" lon="6.75916">
        <ele>376</ele>
        <time>2015-11-01T08:15:14.000Z</time>
      </trkpt>
      <trkpt lat="47.50056" lon="6.7592">
        <ele>377</ele>
        <time>2015-11-01T08:15:15.000Z</time>
      </trkpt>
      <trkpt lat="47.50058" lon="6.75923">
        <ele>377</ele>
        <time>2015-11-01T08:15:16.000Z</time>
      </trkpt>
      <trkpt lat="47.5006" lon="6.75927">
        <ele>377</ele>
        <time>2015-11-01T08:15:17.000Z</time>
      </trkpt>
      <trkpt lat="47.50062" lon="6.7593">
        <ele>377</ele>
        <time>2015-11-01T08:15:18.000Z</time>
      </trkpt>
      <trkpt lat="47.50064" lon="6.75934">
        <ele>377</ele>
        <time>2015-11-01T08:15:19.000Z</time>
      </trkpt>
      <trkpt lat="47.50067" lon="6.75938">
        <ele>377</ele>
        <time>2015-11-01T08:15:20.000Z</time>
      </trkpt>
      <trkpt lat="47.50069" lon="6.75942">
        <ele>377</ele>
        <time>2015-11-01T08:15:21.000Z</time>
      </trkpt>
      <trkpt lat="47.5007" lon="6.75946">
        <ele>378</ele>
        <time>2015-11-01T08:15:22.000Z</time>
      </trkpt>
      <trkpt lat="47.50072" lon="6.75949">
        <ele>378</ele>
        <time>2015-11-01T08:15:23.000Z</time>
      </trkpt>
      <trkpt lat="47.50074" lon="6.75952">
        <ele>378</ele>
        <time>2015-11-01T08:15:24.000Z</time>
      </trkpt>
      <trkpt lat="47.50076" lon="6.75955">
        <ele>378</ele>
        <time>2015-11-01T08:15:25.000Z</time>
      </trkpt>
      <trkpt lat="47.50078" lon="6.75957">
        <ele>378</ele>
        <time>2015-11-01T08:15:26.000Z</time>
      </trkpt>
      <trkpt lat="47.5008" lon="6.75959">
        <ele>378</ele>
        <time>2015-11-01T08:15:27.000Z</time>
      </trkpt>
      <trkpt lat="47.50082" lon="6.75962">
        <ele>378</ele>
        <time>2015-11-01T08:15:28.000Z</time>
      </trkpt>
      <trkpt lat="47.50084" lon="6.75964">
        <ele>374</ele>
        <time>2015-11-01T08:15:29.000Z</time>
      </trkpt>
      <trkpt lat="47.50086" lon="6.75966">
        <ele>374</ele>
        <time>2015-11-01T08:15:30.000Z</time>
      </trkpt>
      <trkpt lat="47.50088" lon="6.75969">
        <ele>375</ele>
        <time>2015-11-01T08:15:31.000Z</time>
      </trkpt>
      <trkpt lat="47.50089" lon="6.75972">
        <ele>375</ele>
        <time>2015-11-01T08:15:32.000Z</time>
      </trkpt>
      <trkpt lat="47.50091" lon="6.75975">
        <ele>375</ele>
        <time>2015-11-01T08:15:33.000Z</time>
      </trkpt>
      <trkpt lat="47.50092" lon="6.75979">
        <ele>375</ele>
        <time>2015-11-01T08:15:34.000Z</time>
      </trkpt>
      <trkpt lat="47.50093" lon="6.75983">
        <ele>376</ele>
        <time>2015-11-01T08:15:35.000Z</time>
      </trkpt>
      <trkpt lat="47.50094" lon="6.75988">
        <ele>376</ele>
        <time>2015-11-01T08:15:36.000Z</time>
      </trkpt>
      <trkpt lat="47.50095" lon="6.75993">
        <ele>377</ele>
        <time>2015-11-01T08:15:37.000Z</time>
      </trkpt>
      <trkpt lat="47.50095" lon="6.75997">
        <ele>377</ele>
        <time>2015-11-01T08:15:38.000Z</time>
      </trkpt>
      <trkpt lat="47.50096" lon="6.76002">
        <ele>379</ele>
        <time>2015-11-01T08:15:39.000Z</time>
      </trkpt>
      <trkpt lat="47.50096" lon="6.76005">
        <ele>379</ele>
        <time>2015-11-01T08:15:40.000Z</time>
      </trkpt>
      <trkpt lat="47.50096" lon="6.76009">
        <ele>379</ele>
        <time>2015-11-01T08:15:41.000Z</time>
      </trkpt>
      <trkpt lat="47.50096" lon="6.76013">
        <ele>379</ele>
        <time>2015-11-01T08:15:42.000Z</time>
      </trkpt>
      <trkpt lat="47.50097" lon="6.76016">
        <ele>379</ele>
        <time>2015-11-01T08:15:43.000Z</time>
      </trkpt>
      <trkpt lat="47.50097" lon="6.7602">
        <ele>379</ele>
        <time>2015-11-01T08:15:44.000Z</time>
      </trkpt>
      <trkpt lat="47.50099" lon="6.76025">
        <ele>379</ele>
        <time>2015-11-01T08:15:46.000Z</time>
      </trkpt>
      <trkpt lat="47.501" lon="6.76028">
        <ele>379</ele>
        <time>2015-11-01T08:15:47.000Z</time>
      </trkpt>
      <trkpt lat="47.50101" lon="6.76034">
        <ele>380</ele>
        <time>2015-11-01T08:15:49.000Z</time>
      </trkpt>
      <trkpt lat="47.50102" lon="6.76036">
        <ele>380</ele>
        <time>2015-11-01T08:15:50.000Z</time>
      </trkpt>
      <trkpt lat="47.50103" lon="6.7604">
        <ele>380</ele>
        <time>2015-11-01T08:15:51.000Z</time>
      </trkpt>
      <trkpt lat="47.50104" lon="6.76043">
        <ele>380</ele>
        <time>2015-11-01T08:15:52.000Z</time>
      </trkpt>
      <trkpt lat="47.50105" lon="6.76048">
        <ele>380</ele>
        <time>2015-11-01T08:15:54.000Z</time>
      </trkpt>
      <trkpt lat="47.50106" lon="6.76051">
        <ele>380</ele>
        <time>2015-11-01T08:15:55.000Z</time>
      </trkpt>
      <trkpt lat="47.50107" lon="6.76057">
        <ele>381</ele>
        <time>2015-11-01T08:15:57.000Z</time>
      </trkpt>
      <trkpt lat="47.50107" lon="6.76061">
        <ele>381</ele>
        <time>2015-11-01T08:15:58.000Z</time>
      </trkpt>
      <trkpt lat="47.50107" lon="6.76065">
        <ele>381</ele>
        <time>2015-11-01T08:15:59.000Z</time>
      </trkpt>
      <trkpt lat="47.50108" lon="6.76069">
        <ele>382</ele>
        <time>2015-11-01T08:16:00.000Z</time>
      </trkpt>
      <trkpt lat="47.50108" lon="6.76073">
        <ele>382</ele>
        <time>2015-11-01T08:16:01.000Z</time>
      </trkpt>
      <trkpt lat="47.50108" lon="6.76077">
        <ele>382</ele>
        <time>2015-11-01T08:16:02.000Z</time>
      </trkpt>
      <trkpt lat="47.50109" lon="6.76081">
        <ele>382</ele>
        <time>2015-11-01T08:16:03.000Z</time>
      </trkpt>
      <trkpt lat="47.50109" lon="6.76084">
        <ele>385</ele>
        <time>2015-11-01T08:16:04.000Z</time>
      </trkpt>
      <trkpt lat="47.5011" lon="6.76088">
        <ele>385</ele>
        <time>2015-11-01T08:16:05.000Z</time>
      </trkpt>
      <trkpt lat="47.50112" lon="6.76092">
        <ele>385</ele>
        <time>2015-11-01T08:16:06.000Z</time>
      </trkpt>
      <trkpt lat="47.50113" lon="6.76096">
        <ele>385</ele>
        <time>2015-11-01T08:16:07.000Z</time>
      </trkpt>
      <trkpt lat="47.50114" lon="6.76099">
        <ele>385</ele>
        <time>2015-11-01T08:16:08.000Z</time>
      </trkpt>
      <trkpt lat="47.50115" lon="6.76104">
        <ele>385</ele>
        <time>2015-11-01T08:16:09.000Z</time>
      </trkpt>
      <trkpt lat="47.50116" lon="6.76108">
        <ele>384</ele>
        <time>2015-11-01T08:16:10.000Z</time>
      </trkpt>
      <trkpt lat="47.50117" lon="6.76113">
        <ele>384</ele>
        <time>2015-11-01T08:16:11.000Z</time>
      </trkpt>
      <trkpt lat="47.50118" lon="6.76117">
        <ele>384</ele>
        <time>2015-11-01T08:16:12.000Z</time>
      </trkpt>
      <trkpt lat="47.5012" lon="6.76122">
        <ele>384</ele>
        <time>2015-11-01T08:16:13.000Z</time>
      </trkpt>
      <trkpt lat="47.5012" lon="6.76126">
        <ele>384</ele>
        <time>2015-11-01T08:16:14.000Z</time>
      </trkpt>
      <trkpt lat="47.50121" lon="6.7613">
        <ele>385</ele>
        <time>2015-11-01T08:16:15.000Z</time>
      </trkpt>
      <trkpt lat="47.50122" lon="6.76134">
        <ele>385</ele>
        <time>2015-11-01T08:16:16.000Z</time>
      </trkpt>
      <trkpt lat="47.50122" lon="6.7614">
        <ele>385</ele>
        <time>2015-11-01T08:16:17.999Z</time>
      </trkpt>
      <trkpt lat="47.50123" lon="6.76145">
        <ele>385</ele>
        <time>2015-11-01T08:16:19.000Z</time>
      </trkpt>
      <trkpt lat="47.50123" lon="6.7615">
        <ele>385</ele>
        <time>2015-11-01T08:16:20.000Z</time>
      </trkpt>
      <trkpt lat="47.50124" lon="6.76153">
        <ele>385</ele>
        <time>2015-11-01T08:16:21.000Z</time>
      </trkpt>
      <trkpt lat="47.50125" lon="6.76158">
        <ele>385</ele>
        <time>2015-11-01T08:16:22.000Z</time>
      </trkpt>
      <trkpt lat="47.50125" lon="6.76163">
        <ele>385</ele>
        <time>2015-11-01T08:16:23.000Z</time>
      </trkpt>
      <trkpt lat="47.50126" lon="6.76169">
        <ele>389</ele>
        <time>2015-11-01T08:16:24.000Z</time>
      </trkpt>
      <trkpt lat="47.50127" lon="6.76174">
        <ele>389</ele>
        <time>2015-11-01T08:16:25.000Z</time>
      </trkpt>
      <trkpt lat="47.50128" lon="6.76178">
        <ele>389</ele>
        <time>2015-11-01T08:16:26.000Z</time>
      </trkpt>
      <trkpt lat="47.50129" lon="6.76182">
        <ele>389</ele>
        <time>2015-11-01T08:16:27.000Z</time>
      </trkpt>
      <trkpt lat="47.5013" lon="6.76186">
        <ele>389</ele>
        <time>2015-11-01T08:16:28.000Z</time>
      </trkpt>
      <trkpt lat="47.5013" lon="6.7619">
        <ele>389</ele>
        <time>2015-11-01T08:16:29.000Z</time>
      </trkpt>
      <trkpt lat="47.50131" lon="6.76193">
        <ele>389</ele>
        <time>2015-11-01T08:16:30.000Z</time>
      </trkpt>
      <trkpt lat="47.50131" lon="6.76197">
        <ele>389</ele>
        <time>2015-11-01T08:16:31.000Z</time>
      </trkpt>
      <trkpt lat="47.50132" lon="6.762">
        <ele>389</ele>
        <time>2015-11-01T08:16:32.000Z</time>
      </trkpt>
      <trkpt lat="47.50133" lon="6.76204">
        <ele>389</ele>
        <time>2015-11-01T08:16:33.000Z</time>
      </trkpt>
      <trkpt lat="47.50134" lon="6.76208">
        <ele>390</ele>
        <time>2015-11-01T08:16:34.000Z</time>
      </trkpt>
      <trkpt lat="47.50134" lon="6.76212">
        <ele>390</ele>
        <time>2015-11-01T08:16:35.000Z</time>
      </trkpt>
      <trkpt lat="47.50135" lon="6.76217">
        <ele>390</ele>
        <time>2015-11-01T08:16:36.000Z</time>
      </trkpt>
      <trkpt lat="47.50136" lon="6.76222">
        <ele>390</ele>
        <time>2015-11-01T08:16:37.000Z</time>
      </trkpt>
      <trkpt lat="47.50138" lon="6.76227">
        <ele>390</ele>
        <time>2015-11-01T08:16:38.000Z</time>
      </trkpt>
      <trkpt lat="47.50139" lon="6.76233">
        <ele>390</ele>
        <time>2015-11-01T08:16:39.000Z</time>
      </trkpt>
      <trkpt lat="47.5014" lon="6.76238">
        <ele>390</ele>
        <time>2015-11-01T08:16:40.000Z</time>
      </trkpt>
      <trkpt lat="47.50141" lon="6.76243">
        <ele>390</ele>
        <time>2015-11-01T08:16:41.000Z</time>
      </trkpt>
      <trkpt lat="47.50142" lon="6.76247">
        <ele>390</ele>
        <time>2015-11-01T08:16:42.000Z</time>
      </trkpt>
      <trkpt lat="47.50143" lon="6.76251">
        <ele>393</ele>
        <time>2015-11-01T08:16:43.000Z</time>
      </trkpt>
      <trkpt lat="47.50144" lon="6.76255">
        <ele>393</ele>
        <time>2015-11-01T08:16:44.000Z</time>
      </trkpt>
      <trkpt lat="47.50145" lon="6.76258">
        <ele>393</ele>
        <time>2015-11-01T08:16:45.000Z</time>
      </trkpt>
      <trkpt lat="47.50146" lon="6.76263">
        <ele>393</ele>
        <time>2015-11-01T08:16:46.000Z</time>
      </trkpt>
      <trkpt lat="47.50147" lon="6.76268">
        <ele>393</ele>
        <time>2015-11-01T08:16:47.000Z</time>
      </trkpt>
      <trkpt lat="47.50147" lon="6.76273">
        <ele>394</ele>
        <time>2015-11-01T08:16:48.000Z</time>
      </trkpt>
      <trkpt lat="47.50148" lon="6.76278">
        <ele>394</ele>
        <time>2015-11-01T08:16:49.000Z</time>
      </trkpt>
      <trkpt lat="47.50149" lon="6.76283">
        <ele>394</ele>
        <time>2015-11-01T08:16:50.000Z</time>
      </trkpt>
      <trkpt lat="47.50149" lon="6.76287">
        <ele>395</ele>
        <time>2015-11-01T08:16:51.000Z</time>
      </trkpt>
      <trkpt lat="47.5015" lon="6.7629">
        <ele>395</ele>
        <time>2015-11-01T08:16:52.000Z</time>
      </trkpt>
      <trkpt lat="47.5015" lon="6.76294">
        <ele>395</ele>
        <time>2015-11-01T08:16:53.000Z</time>
      </trkpt>
      <trkpt lat="47.5015" lon="6.76298">
        <ele>395</ele>
        <time>2015-11-01T08:16:54.000Z</time>
      </trkpt>
      <trkpt lat="47.5015" lon="6.76302">
        <ele>395</ele>
        <time>2015-11-01T08:16:55.000Z</time>
      </trkpt>
      <trkpt lat="47.50151" lon="6.76306">
        <ele>395</ele>
        <time>2015-11-01T08:16:56.000Z</time>
      </trkpt>
      <trkpt lat="47.50152" lon="6.7631">
        <ele>395</ele>
        <time>2015-11-01T08:16:57.000Z</time>
      </trkpt>
      <trkpt lat="47.50153" lon="6.76314">
        <ele>395</ele>
        <time>2015-11-01T08:16:58.000Z</time>
      </trkpt>
      <trkpt lat="47.50154" lon="6.76319">
        <ele>394</ele>
        <time>2015-11-01T08:16:59.000Z</time>
      </trkpt>
      <trkpt lat="47.50156" lon="6.76323">
        <ele>394</ele>
        <time>2015-11-01T08:17:00.000Z</time>
      </trkpt>
      <trkpt lat="47.50158" lon="6.76327">
        <ele>393</ele>
        <time>2015-11-01T08:17:01.000Z</time>
      </trkpt>
      <trkpt lat="47.5016" lon="6.76331">
        <ele>393</ele>
        <time>2015-11-01T08:17:02.000Z</time>
      </trkpt>
      <trkpt lat="47.50161" lon="6.76334">
        <ele>393</ele>
        <time>2015-11-01T08:17:03.000Z</time>
      </trkpt>
      <trkpt lat="47.50162" lon="6.76338">
        <ele>394</ele>
        <time>2015-11-01T08:17:04.000Z</time>
      </trkpt>
      <trkpt lat="47.50163" lon="6.76342">
        <ele>395</ele>
        <time>2015-11-01T08:17:05.000Z</time>
      </trkpt>
      <trkpt lat="47.50164" lon="6.76346">
        <ele>396</ele>
        <time>2015-11-01T08:17:06.000Z</time>
      </trkpt>
      <trkpt lat="47.50165" lon="6.7635">
        <ele>397</ele>
        <time>2015-11-01T08:17:07.000Z</time>
      </trkpt>
      <trkpt lat="47.50166" lon="6.76354">
        <ele>397</ele>
        <time>2015-11-01T08:17:08.000Z</time>
      </trkpt>
      <trkpt lat="47.50167" lon="6.76358">
        <ele>391</ele>
        <time>2015-11-01T08:17:09.000Z</time>
      </trkpt>
      <trkpt lat="47.50168" lon="6.76362">
        <ele>391</ele>
        <time>2015-11-01T08:17:10.000Z</time>
      </trkpt>
      <trkpt lat="47.50169" lon="6.76365">
        <ele>391</ele>
        <time>2015-11-01T08:17:11.000Z</time>
      </trkpt>
      <trkpt lat="47.5017" lon="6.76368">
        <ele>391</ele>
        <time>2015-11-01T08:17:12.000Z</time>
      </trkpt>
      <trkpt lat="47.50171" lon="6.76372">
        <ele>391</ele>
        <time>2015-11-01T08:17:13.000Z</time>
      </trkpt>
      <trkpt lat="47.50172" lon="6.76376">
        <ele>391</ele>
        <time>2015-11-01T08:17:14.000Z</time>
      </trkpt>
      <trkpt lat="47.50173" lon="6.7638">
        <ele>391</ele>
        <time>2015-11-01T08:17:15.000Z</time>
      </trkpt>
      <trkpt lat="47.50174" lon="6.76384">
        <ele>392</ele>
        <time>2015-11-01T08:17:16.000Z</time>
      </trkpt>
      <trkpt lat="47.50175" lon="6.76388">
        <ele>392</ele>
        <time>2015-11-01T08:17:17.000Z</time>
      </trkpt>
      <trkpt lat="47.50176" lon="6.76393">
        <ele>393</ele>
        <time>2015-11-01T08:17:18.000Z</time>
      </trkpt>
      <trkpt lat="47.50176" lon="6.76397">
        <ele>393</ele>
        <time>2015-11-01T08:17:19.000Z</time>
      </trkpt>
      <trkpt lat="47.50177" lon="6.764">
        <ele>394</ele>
        <time>2015-11-01T08:17:20.000Z</time>
      </trkpt>
      <trkpt lat="47.50178" lon="6.76404">
        <ele>394</ele>
        <time>2015-11-01T08:17:21.000Z</time>
      </trkpt>
      <trkpt lat="47.50179" lon="6.76408">
        <ele>394</ele>
        <time>2015-11-01T08:17:22.000Z</time>
      </trkpt>
      <trkpt lat="47.5018" lon="6.76412">
        <ele>395</ele>
        <time>2015-11-01T08:17:23.000Z</time>
      </trkpt>
      <trkpt lat="47.50181" lon="6.76415">
        <ele>394</ele>
        <time>2015-11-01T08:17:24.000Z</time>
      </trkpt>
      <trkpt lat="47.50183" lon="6.76418">
        <ele>397</ele>
        <time>2015-11-01T08:17:25.000Z</time>
      </trkpt>
      <trkpt lat="47.50185" lon="6.76422">
        <ele>397</ele>
        <time>2015-11-01T08:17:26.000Z</time>
      </trkpt>
      <trkpt lat="47.50188" lon="6.76426">
        <ele>396</ele>
        <time>2015-11-01T08:17:27.000Z</time>
      </trkpt>
      <trkpt lat="47.5019" lon="6.7643">
        <ele>396</ele>
        <time>2015-11-01T08:17:28.000Z</time>
      </trkpt>
      <trkpt lat="47.50193" lon="6.76434">
        <ele>396</ele>
        <time>2015-11-01T08:17:29.000Z</time>
      </trkpt>
      <trkpt lat="47.50194" lon="6.76437">
        <ele>396</ele>
        <time>2015-11-01T08:17:30.000Z</time>
      </trkpt>
      <trkpt lat="47.50195" lon="6.76441">
        <ele>396</ele>
        <time>2015-11-01T08:17:31.000Z</time>
      </trkpt>
      <trkpt lat="47.50195" lon="6.76445">
        <ele>396</ele>
        <time>2015-11-01T08:17:32.000Z</time>
      </trkpt>
      <trkpt lat="47.50196" lon="6.76449">
        <ele>396</ele>
        <time>2015-11-01T08:17:33.000Z</time>
      </trkpt>
      <trkpt lat="47.50197" lon="6.76452">
        <ele>396</ele>
        <time>2015-11-01T08:17:34.000Z</time>
      </trkpt>
      <trkpt lat="47.50197" lon="6.76456">
        <ele>396</ele>
        <time>2015-11-01T08:17:35.000Z</time>
      </trkpt>
      <trkpt lat="47.50198" lon="6.76459">
        <ele>396</ele>
        <time>2015-11-01T08:17:36.000Z</time>
      </trkpt>
      <trkpt lat="47.50199" lon="6.76463">
        <ele>396</ele>
        <time>2015-11-01T08:17:37.000Z</time>
      </trkpt>
      <trkpt lat="47.502" lon="6.76467">
        <ele>396</ele>
        <time>2015-11-01T08:17:38.000Z</time>
      </trkpt>
      <trkpt lat="47.50202" lon="6.7647">
        <ele>396</ele>
        <time>2015-11-01T08:17:39.000Z</time>
      </trkpt>
      <trkpt lat="47.50204" lon="6.76473">
        <ele>396</ele>
        <time>2015-11-01T08:17:40.000Z</time>
      </trkpt>
      <trkpt lat="47.50205" lon="6.76475">
        <ele>396</ele>
        <time>2015-11-01T08:17:41.000Z</time>
      </trkpt>
      <trkpt lat="47.50207" lon="6.76478">
        <ele>396</ele>
        <time>2015-11-01T08:17:42.000Z</time>
      </trkpt>
      <trkpt lat="47.50209" lon="6.76482">
        <ele>396</ele>
        <time>2015-11-01T08:17:43.000Z</time>
      </trkpt>
      <trkpt lat="47.5021" lon="6.76485">
        <ele>396</ele>
        <time>2015-11-01T08:17:44.000Z</time>
      </trkpt>
      <trkpt lat="47.50212" lon="6.76489">
        <ele>396</ele>
        <time>2015-11-01T08:17:45.000Z</time>
      </trkpt>
      <trkpt lat="47.50213" lon="6.76493">
        <ele>396</ele>
        <time>2015-11-01T08:17:46.000Z</time>
      </trkpt>
      <trkpt lat="47.50214" lon="6.76496">
        <ele>396</ele>
        <time>2015-11-01T08:17:47.000Z</time>
      </trkpt>
      <trkpt lat="47.50215" lon="6.76499">
        <ele>396</ele>
        <time>2015-11-01T08:17:48.000Z</time>
      </trkpt>
      <trkpt lat="47.50216" lon="6.76502">
        <ele>399</ele>
        <time>2015-11-01T08:17:49.000Z</time>
      </trkpt>
      <trkpt lat="47.50216" lon="6.76506">
        <ele>399</ele>
        <time>2015-11-01T08:17:50.000Z</time>
      </trkpt>
      <trkpt lat="47.50217" lon="6.76509">
        <ele>399</ele>
        <time>2015-11-01T08:17:51.000Z</time>
      </trkpt>
      <trkpt lat="47.50218" lon="6.76512">
        <ele>399</ele>
        <time>2015-11-01T08:17:52.000Z</time>
      </trkpt>
      <trkpt lat="47.50219" lon="6.76516">
        <ele>399</ele>
        <time>2015-11-01T08:17:53.000Z</time>
      </trkpt>
      <trkpt lat="47.5022" lon="6.76519">
        <ele>399</ele>
        <time>2015-11-01T08:17:54.000Z</time>
      </trkpt>
      <trkpt lat="47.50222" lon="6.76522">
        <ele>399</ele>
        <time>2015-11-01T08:17:55.000Z</time>
      </trkpt>
      <trkpt lat="47.50223" lon="6.76526">
        <ele>399</ele>
        <time>2015-11-01T08:17:56.000Z</time>
      </trkpt>
      <trkpt lat="47.50224" lon="6.76529">
        <ele>399</ele>
        <time>2015-11-01T08:17:57.000Z</time>
      </trkpt>
      <trkpt lat="47.50224" lon="6.76534">
        <ele>399</ele>
        <time>2015-11-01T08:17:58.000Z</time>
      </trkpt>
      <trkpt lat="47.50223" lon="6.76537">
        <ele>400</ele>
        <time>2015-11-01T08:17:59.000Z</time>
      </trkpt>
      <trkpt lat="47.50221" lon="6.76541">
        <ele>400</ele>
        <time>2015-11-01T08:18:00.000Z</time>
      </trkpt>
      <trkpt lat="47.50219" lon="6.76544">
        <ele>400</ele>
        <time>2015-11-01T08:18:01.000Z</time>
      </trkpt>
      <trkpt lat="47.50217" lon="6.76547">
        <ele>400</ele>
        <time>2015-11-01T08:18:02.000Z</time>
      </trkpt>
      <trkpt lat="47.50215" lon="6.76549">
        <ele>400</ele>
        <time>2015-11-01T08:18:03.000Z</time>
      </trkpt>
      <trkpt lat="47.50213" lon="6.7655">
        <ele>401</ele>
        <time>2015-11-01T08:18:04.000Z</time>
      </trkpt>
      <trkpt lat="47.5021" lon="6.76552">
        <ele>401</ele>
        <time>2015-11-01T08:18:05.000Z</time>
      </trkpt>
      <trkpt lat="47.50206" lon="6.76554">
        <ele>401</ele>
        <time>2015-11-01T08:18:07.000Z</time>
      </trkpt>
      <trkpt lat="47.50204" lon="6.76555">
        <ele>401</ele>
        <time>2015-11-01T08:18:08.000Z</time>
      </trkpt>
      <trkpt lat="47.50201" lon="6.76556">
        <ele>402</ele>
        <time>2015-11-01T08:18:10.000Z</time>
      </trkpt>
      <trkpt lat="47.502" lon="6.76557">
        <ele>402</ele>
        <time>2015-11-01T08:18:11.000Z</time>
      </trkpt>
      <trkpt lat="47.50196" lon="6.7656">
        <ele>402</ele>
        <time>2015-11-01T08:18:15.000Z</time>
      </trkpt>
      <trkpt lat="47.50195" lon="6.7656">
        <ele>402</ele>
        <time>2015-11-01T08:18:16.000Z</time>
      </trkpt>
      <trkpt lat="47.50195" lon="6.76566">
        <ele>402</ele>
        <time>2015-11-01T08:19:27.000Z</time>
      </trkpt>
      <trkpt lat="47.50195" lon="6.76567">
        <ele>402</ele>
        <time>2015-11-01T08:19:28.000Z</time>
      </trkpt>
      <trkpt lat="47.50194" lon="6.76574">
        <ele>403</ele>
        <time>2015-11-01T08:19:31.000Z</time>
      </trkpt>
      <trkpt lat="47.50195" lon="6.76577">
        <ele>403</ele>
        <time>2015-11-01T08:19:32.000Z</time>
      </trkpt>
      <trkpt lat="47.50195" lon="6.7658">
        <ele>403</ele>
        <time>2015-11-01T08:19:33.000Z</time>
      </trkpt>
      <trkpt lat="47.50196" lon="6.76583">
        <ele>403</ele>
        <time>2015-11-01T08:19:34.000Z</time>
      </trkpt>
      <trkpt lat="47.50197" lon="6.7659">
        <ele>403</ele>
        <time>2015-11-01T08:19:36.000Z</time>
      </trkpt>
      <trkpt lat="47.50197" lon="6.76593">
        <ele>403</ele>
        <time>2015-11-01T08:19:37.000Z</time>
      </trkpt>
      <trkpt lat="47.50197" lon="6.76597">
        <ele>403</ele>
        <time>2015-11-01T08:19:38.000Z</time>
      </trkpt>
      <trkpt lat="47.50198" lon="6.76601">
        <ele>403</ele>
        <time>2015-11-01T08:19:39.000Z</time>
      </trkpt>
      <trkpt lat="47.50199" lon="6.76605">
        <ele>403</ele>
        <time>2015-11-01T08:19:40.000Z</time>
      </trkpt>
      <trkpt lat="47.502" lon="6.76609">
        <ele>403</ele>
        <time>2015-11-01T08:19:41.000Z</time>
      </trkpt>
      <trkpt lat="47.50201" lon="6.76612">
        <ele>402</ele>
        <time>2015-11-01T08:19:42.000Z</time>
      </trkpt>
      <trkpt lat="47.50202" lon="6.76616">
        <ele>402</ele>
        <time>2015-11-01T08:19:43.000Z</time>
      </trkpt>
      <trkpt lat="47.50203" lon="6.7662">
        <ele>402</ele>
        <time>2015-11-01T08:19:44.000Z</time>
      </trkpt>
      <trkpt lat="47.50204" lon="6.76624">
        <ele>402</ele>
        <time>2015-11-01T08:19:45.000Z</time>
      </trkpt>
      <trkpt lat="47.50206" lon="6.76628">
        <ele>402</ele>
        <time>2015-11-01T08:19:46.000Z</time>
      </trkpt>
      <trkpt lat="47.50207" lon="6.76632">
        <ele>402</ele>
        <time>2015-11-01T08:19:47.000Z</time>
      </trkpt>
      <trkpt lat="47.50209" lon="6.76636">
        <ele>402</ele>
        <time>2015-11-01T08:19:48.000Z</time>
      </trkpt>
      <trkpt lat="47.5021" lon="6.76641">
        <ele>402</ele>
        <time>2015-11-01T08:19:49.000Z</time>
      </trkpt>
      <trkpt lat="47.50211" lon="6.76645">
        <ele>402</ele>
        <time>2015-11-01T08:19:50.000Z</time>
      </trkpt>
      <trkpt lat="47.50212" lon="6.76649">
        <ele>402</ele>
        <time>2015-11-01T08:19:51.000Z</time>
      </trkpt>
      <trkpt lat="47.50213" lon="6.76653">
        <ele>402</ele>
        <time>2015-11-01T08:19:52.000Z</time>
      </trkpt>
      <trkpt lat="47.50214" lon="6.76657">
        <ele>402</ele>
        <time>2015-11-01T08:19:53.000Z</time>
      </trkpt>
      <trkpt lat="47.50216" lon="6.76661">
        <ele>401</ele>
        <time>2015-11-01T08:19:54.000Z</time>
      </trkpt>
      <trkpt lat="47.50217" lon="6.76666">
        <ele>401</ele>
        <time>2015-11-01T08:19:55.000Z</time>
      </trkpt>
      <trkpt lat="47.50218" lon="6.7667">
        <ele>402</ele>
        <time>2015-11-01T08:19:56.000Z</time>
      </trkpt>
      <trkpt lat="47.50219" lon="6.76674">
        <ele>401</ele>
        <time>2015-11-01T08:19:57.000Z</time>
      </trkpt>
      <trkpt lat="47.5022" lon="6.76678">
        <ele>401</ele>
        <time>2015-11-01T08:19:58.000Z</time>
      </trkpt>
      <trkpt lat="47.50222" lon="6.76682">
        <ele>401</ele>
        <time>2015-11-01T08:19:59.000Z</time>
      </trkpt>
      <trkpt lat="47.50223" lon="6.76686">
        <ele>401</ele>
        <time>2015-11-01T08:20:00.000Z</time>
      </trkpt>
      <trkpt lat="47.50224" lon="6.7669">
        <ele>402</ele>
        <time>2015-11-01T08:20:01.000Z</time>
      </trkpt>
      <trkpt lat="47.50226" lon="6.76695">
        <ele>402</ele>
        <time>2015-11-01T08:20:02.000Z</time>
      </trkpt>
      <trkpt lat="47.50227" lon="6.76699">
        <ele>402</ele>
        <time>2015-11-01T08:20:03.000Z</time>
      </trkpt>
      <trkpt lat="47.50229" lon="6.76703">
        <ele>402</ele>
        <time>2015-11-01T08:20:04.000Z</time>
      </trkpt>
      <trkpt lat="47.5023" lon="6.76708">
        <ele>402</ele>
        <time>2015-11-01T08:20:05.000Z</time>
      </trkpt>
      <trkpt lat="47.50232" lon="6.76712">
        <ele>402</ele>
        <time>2015-11-01T08:20:06.000Z</time>
      </trkpt>
      <trkpt lat="47.50234" lon="6.76716">
        <ele>402</ele>
        <time>2015-11-01T08:20:07.000Z</time>
      </trkpt>
      <trkpt lat="47.50235" lon="6.7672">
        <ele>401</ele>
        <time>2015-11-01T08:20:08.000Z</time>
      </trkpt>
      <trkpt lat="47.50237" lon="6.76724">
        <ele>401</ele>
        <time>2015-11-01T08:20:09.000Z</time>
      </trkpt>
      <trkpt lat="47.50239" lon="6.76728">
        <ele>401</ele>
        <time>2015-11-01T08:20:10.000Z</time>
      </trkpt>
      <trkpt lat="47.50241" lon="6.76732">
        <ele>401</ele>
        <time>2015-11-01T08:20:11.000Z</time>
      </trkpt>
      <trkpt lat="47.50244" lon="6.76736">
        <ele>401</ele>
        <time>2015-11-01T08:20:12.000Z</time>
      </trkpt>
      <trkpt lat="47.50246" lon="6.76739">
        <ele>401</ele>
        <time>2015-11-01T08:20:13.000Z</time>
      </trkpt>
      <trkpt lat="47.50249" lon="6.76743">
        <ele>401</ele>
        <time>2015-11-01T08:20:14.000Z</time>
      </trkpt>
      <trkpt lat="47.50252" lon="6.76745">
        <ele>400</ele>
        <time>2015-11-01T08:20:15.000Z</time>
      </trkpt>
      <trkpt lat="47.50255" lon="6.76746">
        <ele>400</ele>
        <time>2015-11-01T08:20:16.000Z</time>
      </trkpt>
      <trkpt lat="47.50259" lon="6.76747">
        <ele>400</ele>
        <time>2015-11-01T08:20:17.000Z</time>
      </trkpt>
      <trkpt lat="47.50263" lon="6.76746">
        <ele>399</ele>
        <time>2015-11-01T08:20:18.000Z</time>
      </trkpt>
      <trkpt lat="47.50266" lon="6.76744">
        <ele>399</ele>
        <time>2015-11-01T08:20:19.000Z</time>
      </trkpt>
      <trkpt lat="47.5027" lon="6.76742">
        <ele>399</ele>
        <time>2015-11-01T08:20:20.000Z</time>
      </trkpt>
      <trkpt lat="47.50273" lon="6.7674">
        <ele>399</ele>
        <time>2015-11-01T08:20:21.000Z</time>
      </trkpt>
      <trkpt lat="47.50277" lon="6.76739">
        <ele>399</ele>
        <time>2015-11-01T08:20:22.000Z</time>
      </trkpt>
      <trkpt lat="47.5028" lon="6.76738">
        <ele>399</ele>
        <time>2015-11-01T08:20:23.000Z</time>
      </trkpt>
      <trkpt lat="47.50284" lon="6.76736">
        <ele>399</ele>
        <time>2015-11-01T08:20:24.000Z</time>
      </trkpt>
      <trkpt lat="47.50288" lon="6.76735">
        <ele>399</ele>
        <time>2015-11-01T08:20:25.000Z</time>
      </trkpt>
      <trkpt lat="47.50292" lon="6.76734">
        <ele>399</ele>
        <time>2015-11-01T08:20:26.000Z</time>
      </trkpt>
      <trkpt lat="47.50296" lon="6.76733">
        <ele>399</ele>
        <time>2015-11-01T08:20:27.000Z</time>
      </trkpt>
      <trkpt lat="47.50301" lon="6.76732">
        <ele>399</ele>
        <time>2015-11-01T08:20:28.000Z</time>
      </trkpt>
      <trkpt lat="47.50305" lon="6.76731">
        <ele>398</ele>
        <time>2015-11-01T08:20:29.000Z</time>
      </trkpt>
      <trkpt lat="47.50308" lon="6.7673">
        <ele>398</ele>
        <time>2015-11-01T08:20:30.000Z</time>
      </trkpt>
      <trkpt lat="47.50312" lon="6.76729">
        <ele>398</ele>
        <time>2015-11-01T08:20:31.000Z</time>
      </trkpt>
      <trkpt lat="47.50316" lon="6.76728">
        <ele>398</ele>
        <time>2015-11-01T08:20:32.000Z</time>
      </trkpt>
      <trkpt lat="47.5032" lon="6.76726">
        <ele>398</ele>
        <time>2015-11-01T08:20:33.000Z</time>
      </trkpt>
      <trkpt lat="47.50324" lon="6.76724">
        <ele>398</ele>
        <time>2015-11-01T08:20:34.000Z</time>
      </trkpt>
      <trkpt lat="47.50328" lon="6.76722">
        <ele>398</ele>
        <time>2015-11-01T08:20:35.000Z</time>
      </trkpt>
      <trkpt lat="47.50331" lon="6.7672">
        <ele>398</ele>
        <time>2015-11-01T08:20:36.000Z</time>
      </trkpt>
      <trkpt lat="47.50335" lon="6.76719">
        <ele>398</ele>
        <time>2015-11-01T08:20:37.000Z</time>
      </trkpt>
      <trkpt lat="47.50339" lon="6.76717">
        <ele>398</ele>
        <time>2015-11-01T08:20:38.000Z</time>
      </trkpt>
      <trkpt lat="47.50343" lon="6.76716">
        <ele>398</ele>
        <time>2015-11-01T08:20:39.000Z</time>
      </trkpt>
      <trkpt lat="47.50347" lon="6.76714">
        <ele>398</ele>
        <time>2015-11-01T08:20:40.000Z</time>
      </trkpt>
      <trkpt lat="47.50351" lon="6.76713">
        <ele>398</ele>
        <time>2015-11-01T08:20:41.000Z</time>
      </trkpt>
      <trkpt lat="47.50355" lon="6.76711">
        <ele>398</ele>
        <time>2015-11-01T08:20:42.000Z</time>
      </trkpt>
      <trkpt lat="47.50359" lon="6.7671">
        <ele>398</ele>
        <time>2015-11-01T08:20:43.000Z</time>
      </trkpt>
      <trkpt lat="47.50363" lon="6.76708">
        <ele>397</ele>
        <time>2015-11-01T08:20:44.000Z</time>
      </trkpt>
      <trkpt lat="47.50368" lon="6.76707">
        <ele>397</ele>
        <time>2015-11-01T08:20:45.000Z</time>
      </trkpt>
      <trkpt lat="47.50372" lon="6.76705">
        <ele>397</ele>
        <time>2015-11-01T08:20:46.000Z</time>
      </trkpt>
      <trkpt lat="47.50376" lon="6.76703">
        <ele>397</ele>
        <time>2015-11-01T08:20:47.000Z</time>
      </trkpt>
      <trkpt lat="47.5038" lon="6.76701">
        <ele>397</ele>
        <time>2015-11-01T08:20:48.000Z</time>
      </trkpt>
      <trkpt lat="47.50384" lon="6.76699">
        <ele>397</ele>
        <time>2015-11-01T08:20:49.000Z</time>
      </trkpt>
      <trkpt lat="47.50388" lon="6.76697">
        <ele>397</ele>
        <time>2015-11-01T08:20:50.000Z</time>
      </trkpt>
      <trkpt lat="47.50392" lon="6.76695">
        <ele>397</ele>
        <time>2015-11-01T08:20:51.000Z</time>
      </trkpt>
      <trkpt lat="47.50396" lon="6.76694">
        <ele>397</ele>
        <time>2015-11-01T08:20:52.000Z</time>
      </trkpt>
      <trkpt lat="47.504" lon="6.76692">
        <ele>397</ele>
        <time>2015-11-01T08:20:53.000Z</time>
      </trkpt>
      <trkpt lat="47.50404" lon="6.7669">
        <ele>397</ele>
        <time>2015-11-01T08:20:54.000Z</time>
      </trkpt>
      <trkpt lat="47.50408" lon="6.76689">
        <ele>397</ele>
        <time>2015-11-01T08:20:55.000Z</time>
      </trkpt>
      <trkpt lat="47.50412" lon="6.76687">
        <ele>397</ele>
        <time>2015-11-01T08:20:56.000Z</time>
      </trkpt>
      <trkpt lat="47.50416" lon="6.76685">
        <ele>397</ele>
        <time>2015-11-01T08:20:57.000Z</time>
      </trkpt>
      <trkpt lat="47.5042" lon="6.76684">
        <ele>397</ele>
        <time>2015-11-01T08:20:58.000Z</time>
      </trkpt>
      <trkpt lat="47.50424" lon="6.76683">
        <ele>397</ele>
        <time>2015-11-01T08:20:59.000Z</time>
      </trkpt>
      <trkpt lat="47.50428" lon="6.76681">
        <ele>397</ele>
        <time>2015-11-01T08:21:00.000Z</time>
      </trkpt>
      <trkpt lat="47.50432" lon="6.7668">
        <ele>397</ele>
        <time>2015-11-01T08:21:01.000Z</time>
      </trkpt>
      <trkpt lat="47.50436" lon="6.76678">
        <ele>397</ele>
        <time>2015-11-01T08:21:02.000Z</time>
      </trkpt>
      <trkpt lat="47.5044" lon="6.76676">
        <ele>397</ele>
        <time>2015-11-01T08:21:03.000Z</time>
      </trkpt>
      <trkpt lat="47.50444" lon="6.76675">
        <ele>397</ele>
        <time>2015-11-01T08:21:04.000Z</time>
      </trkpt>
      <trkpt lat="47.50448" lon="6.76673">
        <ele>397</ele>
        <time>2015-11-01T08:21:05.000Z</time>
      </trkpt>
      <trkpt lat="47.50452" lon="6.76671">
        <ele>397</ele>
        <time>2015-11-01T08:21:06.000Z</time>
      </trkpt>
      <trkpt lat="47.50455" lon="6.7667">
        <ele>397</ele>
        <time>2015-11-01T08:21:07.000Z</time>
      </trkpt>
      <trkpt lat="47.50459" lon="6.76668">
        <ele>397</ele>
        <time>2015-11-01T08:21:08.000Z</time>
      </trkpt>
      <trkpt lat="47.50463" lon="6.76667">
        <ele>397</ele>
        <time>2015-11-01T08:21:09.000Z</time>
      </trkpt>
      <trkpt lat="47.50467" lon="6.76665">
        <ele>398</ele>
        <time>2015-11-01T08:21:10.000Z</time>
      </trkpt>
      <trkpt lat="47.50471" lon="6.76663">
        <ele>398</ele>
        <time>2015-11-01T08:21:11.000Z</time>
      </trkpt>
      <trkpt lat="47.50475" lon="6.76662">
        <ele>398</ele>
        <time>2015-11-01T08:21:12.000Z</time>
      </trkpt>
      <trkpt lat="47.50478" lon="6.7666">
        <ele>399</ele>
        <time>2015-11-01T08:21:13.000Z</time>
      </trkpt>
      <trkpt lat="47.50482" lon="6.76658">
        <ele>399</ele>
        <time>2015-11-01T08:21:14.000Z</time>
      </trkpt>
      <trkpt lat="47.50486" lon="6.76657">
        <ele>399</ele>
        <time>2015-11-01T08:21:15.000Z</time>
      </trkpt>
      <trkpt lat="47.50489" lon="6.76656">
        <ele>399</ele>
        <time>2015-11-01T08:21:16.000Z</time>
      </trkpt>
      <trkpt lat="47.50493" lon="6.76655">
        <ele>399</ele>
        <time>2015-11-01T08:21:17.000Z</time>
      </trkpt>
      <trkpt lat="47.50497" lon="6.76653">
        <ele>399</ele>
        <time>2015-11-01T08:21:18.000Z</time>
      </trkpt>
      <trkpt lat="47.505" lon="6.76652">
        <ele>399</ele>
        <time>2015-11-01T08:21:19.000Z</time>
      </trkpt>
      <trkpt lat="47.50504" lon="6.76651">
        <ele>399</ele>
        <time>2015-11-01T08:21:20.000Z</time>
      </trkpt>
      <trkpt lat="47.50508" lon="6.7665">
        <ele>399</ele>
        <time>2015-11-01T08:21:21.000Z</time>
      </trkpt>
      <trkpt lat="47.50512" lon="6.7665">
        <ele>399</ele>
        <time>2015-11-01T08:21:22.000Z</time>
      </trkpt>
      <trkpt lat="47.50516" lon="6.76649">
        <ele>399</ele>
        <time>2015-11-01T08:21:23.000Z</time>
      </trkpt>
      <trkpt lat="47.50519" lon="6.76648">
        <ele>399</ele>
        <time>2015-11-01T08:21:24.000Z</time>
      </trkpt>
      <trkpt lat="47.50523" lon="6.76647">
        <ele>399</ele>
        <time>2015-11-01T08:21:25.000Z</time>
      </trkpt>
      <trkpt lat="47.50527" lon="6.76647">
        <ele>399</ele>
        <time>2015-11-01T08:21:26.000Z</time>
      </trkpt>
      <trkpt lat="47.50531" lon="6.76645">
        <ele>399</ele>
        <time>2015-11-01T08:21:27.000Z</time>
      </trkpt>
      <trkpt lat="47.50534" lon="6.76644">
        <ele>399</ele>
        <time>2015-11-01T08:21:28.000Z</time>
      </trkpt>
      <trkpt lat="47.50538" lon="6.76643">
        <ele>399</ele>
        <time>2015-11-01T08:21:29.000Z</time>
      </trkpt>
      <trkpt lat="47.50542" lon="6.76642">
        <ele>399</ele>
        <time>2015-11-01T08:21:30.000Z</time>
      </trkpt>
      <trkpt lat="47.50546" lon="6.76641">
        <ele>399</ele>
        <time>2015-11-01T08:21:31.000Z</time>
      </trkpt>
      <trkpt lat="47.50549" lon="6.7664">
        <ele>399</ele>
        <time>2015-11-01T08:21:32.000Z</time>
      </trkpt>
      <trkpt lat="47.50553" lon="6.76639">
        <ele>399</ele>
        <time>2015-11-01T08:21:33.000Z</time>
      </trkpt>
      <trkpt lat="47.50557" lon="6.76638">
        <ele>399</ele>
        <time>2015-11-01T08:21:34.000Z</time>
      </trkpt>
      <trkpt lat="47.50561" lon="6.76637">
        <ele>399</ele>
        <time>2015-11-01T08:21:35.000Z</time>
      </trkpt>
      <trkpt lat="47.50566" lon="6.76636">
        <ele>399</ele>
        <time>2015-11-01T08:21:36.000Z</time>
      </trkpt>
      <trkpt lat="47.5057" lon="6.76635">
        <ele>399</ele>
        <time>2015-11-01T08:21:37.000Z</time>
      </trkpt>
      <trkpt lat="47.50575" lon="6.76634">
        <ele>399</ele>
        <time>2015-11-01T08:21:38.000Z</time>
      </trkpt>
      <trkpt lat="47.5058" lon="6.76632">
        <ele>399</ele>
        <time>2015-11-01T08:21:39.000Z</time>
      </trkpt>
      <trkpt lat="47.50585" lon="6.76631">
        <ele>398</ele>
        <time>2015-11-01T08:21:40.000Z</time>
      </trkpt>
      <trkpt lat="47.5059" lon="6.76629">
        <ele>398</ele>
        <time>2015-11-01T08:21:41.000Z</time>
      </trkpt>
      <trkpt lat="47.50596" lon="6.76627">
        <ele>398</ele>
        <time>2015-11-01T08:21:42.000Z</time>
      </trkpt>
      <trkpt lat="47.50601" lon="6.76625">
        <ele>398</ele>
        <time>2015-11-01T08:21:43.000Z</time>
      </trkpt>
      <trkpt lat="47.50606" lon="6.76624">
        <ele>398</ele>
        <time>2015-11-01T08:21:44.000Z</time>
      </trkpt>
      <trkpt lat="47.5061" lon="6.76622">
        <ele>397</ele>
        <time>2015-11-01T08:21:45.000Z</time>
      </trkpt>
      <trkpt lat="47.50616" lon="6.76619">
        <ele>397</ele>
        <time>2015-11-01T08:21:46.000Z</time>
      </trkpt>
      <trkpt lat="47.50621" lon="6.76617">
        <ele>397</ele>
        <time>2015-11-01T08:21:47.000Z</time>
      </trkpt>
      <trkpt lat="47.50626" lon="6.76615">
        <ele>397</ele>
        <time>2015-11-01T08:21:48.000Z</time>
      </trkpt>
      <trkpt lat="47.50631" lon="6.76611">
        <ele>397</ele>
        <time>2015-11-01T08:21:49.000Z</time>
      </trkpt>
      <trkpt lat="47.50637" lon="6.76608">
        <ele>397</ele>
        <time>2015-11-01T08:21:50.000Z</time>
      </trkpt>
      <trkpt lat="47.50642" lon="6.76605">
        <ele>397</ele>
        <time>2015-11-01T08:21:51.000Z</time>
      </trkpt>
      <trkpt lat="47.50647" lon="6.76602">
        <ele>397</ele>
        <time>2015-11-01T08:21:52.000Z</time>
      </trkpt>
      <trkpt lat="47.50653" lon="6.766">
        <ele>397</ele>
        <time>2015-11-01T08:21:53.000Z</time>
      </trkpt>
      <trkpt lat="47.50658" lon="6.76597">
        <ele>397</ele>
        <time>2015-11-01T08:21:54.000Z</time>
      </trkpt>
      <trkpt lat="47.50663" lon="6.76596">
        <ele>397</ele>
        <time>2015-11-01T08:21:55.000Z</time>
      </trkpt>
      <trkpt lat="47.50668" lon="6.76594">
        <ele>396</ele>
        <time>2015-11-01T08:21:56.000Z</time>
      </trkpt>
      <trkpt lat="47.50673" lon="6.76593">
        <ele>396</ele>
        <time>2015-11-01T08:21:57.000Z</time>
      </trkpt>
      <trkpt lat="47.50678" lon="6.76592">
        <ele>396</ele>
        <time>2015-11-01T08:21:58.000Z</time>
      </trkpt>
      <trkpt lat="47.50683" lon="6.76591">
        <ele>396</ele>
        <time>2015-11-01T08:21:59.000Z</time>
      </trkpt>
      <trkpt lat="47.50688" lon="6.7659">
        <ele>395</ele>
        <time>2015-11-01T08:22:00.000Z</time>
      </trkpt>
      <trkpt lat="47.50693" lon="6.7659">
        <ele>395</ele>
        <time>2015-11-01T08:22:01.000Z</time>
      </trkpt>
      <trkpt lat="47.50698" lon="6.7659">
        <ele>395</ele>
        <time>2015-11-01T08:22:02.000Z</time>
      </trkpt>
      <trkpt lat="47.50703" lon="6.7659">
        <ele>395</ele>
        <time>2015-11-01T08:22:03.000Z</time>
      </trkpt>
      <trkpt lat="47.50708" lon="6.7659">
        <ele>395</ele>
        <time>2015-11-01T08:22:04.000Z</time>
      </trkpt>
      <trkpt lat="47.50713" lon="6.76591">
        <ele>395</ele>
        <time>2015-11-01T08:22:05.000Z</time>
      </trkpt>
      <trkpt lat="47.50718" lon="6.76592">
        <ele>394</ele>
        <time>2015-11-01T08:22:06.000Z</time>
      </trkpt>
      <trkpt lat="47.50724" lon="6.76593">
        <ele>394</ele>
        <time>2015-11-01T08:22:07.000Z</time>
      </trkpt>
      <trkpt lat="47.50729" lon="6.76594">
        <ele>394</ele>
        <time>2015-11-01T08:22:08.000Z</time>
      </trkpt>
      <trkpt lat="47.50734" lon="6.76595">
        <ele>394</ele>
        <time>2015-11-01T08:22:09.000Z</time>
      </trkpt>
      <trkpt lat="47.5074" lon="6.76596">
        <ele>394</ele>
        <time>2015-11-01T08:22:10.000Z</time>
      </trkpt>
      <trkpt lat="47.50745" lon="6.76596">
        <ele>394</ele>
        <time>2015-11-01T08:22:11.000Z</time>
      </trkpt>
      <trkpt lat="47.50751" lon="6.76598">
        <ele>393</ele>
        <time>2015-11-01T08:22:12.000Z</time>
      </trkpt>
      <trkpt lat="47.50756" lon="6.76597">
        <ele>393</ele>
        <time>2015-11-01T08:22:13.000Z</time>
      </trkpt>
      <trkpt lat="47.50761" lon="6.76596">
        <ele>392</ele>
        <time>2015-11-01T08:22:14.000Z</time>
      </trkpt>
      <trkpt lat="47.50767" lon="6.76595">
        <ele>392</ele>
        <time>2015-11-01T08:22:15.000Z</time>
      </trkpt>
      <trkpt lat="47.50772" lon="6.76594">
        <ele>392</ele>
        <time>2015-11-01T08:22:16.000Z</time>
      </trkpt>
      <trkpt lat="47.50778" lon="6.76593">
        <ele>392</ele>
        <time>2015-11-01T08:22:17.000Z</time>
      </trkpt>
      <trkpt lat="47.50784" lon="6.76592">
        <ele>391</ele>
        <time>2015-11-01T08:22:18.000Z</time>
      </trkpt>
      <trkpt lat="47.5079" lon="6.76591">
        <ele>391</ele>
        <time>2015-11-01T08:22:19.000Z</time>
      </trkpt>
      <trkpt lat="47.50796" lon="6.7659">
        <ele>391</ele>
        <time>2015-11-01T08:22:20.000Z</time>
      </trkpt>
      <trkpt lat="47.50802" lon="6.76588">
        <ele>391</ele>
        <time>2015-11-01T08:22:21.000Z</time>
      </trkpt>
      <trkpt lat="47.50806" lon="6.76586">
        <ele>390</ele>
        <time>2015-11-01T08:22:22.000Z</time>
      </trkpt>
      <trkpt lat="47.50809" lon="6.76585">
        <ele>390</ele>
        <time>2015-11-01T08:22:23.000Z</time>
      </trkpt>
      <trkpt lat="47.5081" lon="6.76589">
        <ele>390</ele>
        <time>2015-11-01T08:22:24.000Z</time>
      </trkpt>
      <trkpt lat="47.50811" lon="6.76591">
        <ele>390</ele>
        <time>2015-11-01T08:22:25.000Z</time>
      </trkpt>
      <trkpt lat="47.50812" lon="6.76595">
        <ele>390</ele>
        <time>2015-11-01T08:22:26.000Z</time>
      </trkpt>
      <trkpt lat="47.50815" lon="6.76598">
        <ele>390</ele>
        <time>2015-11-01T08:22:27.000Z</time>
      </trkpt>
      <trkpt lat="47.50817" lon="6.76599">
        <ele>390</ele>
        <time>2015-11-01T08:22:28.000Z</time>
      </trkpt>
      <trkpt lat="47.50819" lon="6.76596">
        <ele>390</ele>
        <time>2015-11-01T08:22:29.000Z</time>
      </trkpt>
      <trkpt lat="47.50822" lon="6.76594">
        <ele>390</ele>
        <time>2015-11-01T08:22:30.000Z</time>
      </trkpt>
      <trkpt lat="47.50824" lon="6.76594">
        <ele>390</ele>
        <time>2015-11-01T08:22:31.000Z</time>
      </trkpt>
      <trkpt lat="47.50826" lon="6.76595">
        <ele>390</ele>
        <time>2015-11-01T08:22:32.000Z</time>
      </trkpt>
      <trkpt lat="47.50828" lon="6.76599">
        <ele>390</ele>
        <time>2015-11-01T08:22:33.000Z</time>
      </trkpt>
      <trkpt lat="47.5083" lon="6.76603">
        <ele>390</ele>
        <time>2015-11-01T08:22:34.000Z</time>
      </trkpt>
      <trkpt lat="47.50831" lon="6.76609">
        <ele>390</ele>
        <time>2015-11-01T08:22:35.000Z</time>
      </trkpt>
      <trkpt lat="47.50833" lon="6.76615">
        <ele>390</ele>
        <time>2015-11-01T08:22:36.000Z</time>
      </trkpt>
      <trkpt lat="47.50835" lon="6.76622">
        <ele>387</ele>
        <time>2015-11-01T08:22:37.000Z</time>
      </trkpt>
      <trkpt lat="47.50837" lon="6.76631">
        <ele>387</ele>
        <time>2015-11-01T08:22:38.000Z</time>
      </trkpt>
      <trkpt lat="47.5084" lon="6.76637">
        <ele>387</ele>
        <time>2015-11-01T08:22:39.000Z</time>
      </trkpt>
      <trkpt lat="47.50843" lon="6.76643">
        <ele>387</ele>
        <time>2015-11-01T08:22:40.000Z</time>
      </trkpt>
      <trkpt lat="47.50846" lon="6.7665">
        <ele>387</ele>
        <time>2015-11-01T08:22:41.000Z</time>
      </trkpt>
      <trkpt lat="47.50849" lon="6.76657">
        <ele>387</ele>
        <time>2015-11-01T08:22:42.000Z</time>
      </trkpt>
      <trkpt lat="47.50852" lon="6.76664">
        <ele>387</ele>
        <time>2015-11-01T08:22:43.000Z</time>
      </trkpt>
      <trkpt lat="47.50856" lon="6.76671">
        <ele>385</ele>
        <time>2015-11-01T08:22:44.000Z</time>
      </trkpt>
      <trkpt lat="47.50858" lon="6.76679">
        <ele>385</ele>
        <time>2015-11-01T08:22:45.000Z</time>
      </trkpt>
      <trkpt lat="47.50861" lon="6.76687">
        <ele>384</ele>
        <time>2015-11-01T08:22:46.000Z</time>
      </trkpt>
      <trkpt lat="47.50864" lon="6.76695">
        <ele>384</ele>
        <time>2015-11-01T08:22:47.000Z</time>
      </trkpt>
      <trkpt lat="47.50867" lon="6.76702">
        <ele>384</ele>
        <time>2015-11-01T08:22:48.000Z</time>
      </trkpt>
      <trkpt lat="47.5087" lon="6.7671">
        <ele>383</ele>
        <time>2015-11-01T08:22:49.000Z</time>
      </trkpt>
      <trkpt lat="47.50873" lon="6.76719">
        <ele>383</ele>
        <time>2015-11-01T08:22:50.000Z</time>
      </trkpt>
      <trkpt lat="47.50876" lon="6.76727">
        <ele>383</ele>
        <time>2015-11-01T08:22:51.000Z</time>
      </trkpt>
      <trkpt lat="47.50878" lon="6.76736">
        <ele>383</ele>
        <time>2015-11-01T08:22:52.000Z</time>
      </trkpt>
      <trkpt lat="47.5088" lon="6.76745">
        <ele>382</ele>
        <time>2015-11-01T08:22:53.000Z</time>
      </trkpt>
      <trkpt lat="47.50883" lon="6.76754">
        <ele>381</ele>
        <time>2015-11-01T08:22:54.000Z</time>
      </trkpt>
      <trkpt lat="47.50886" lon="6.76762">
        <ele>381</ele>
        <time>2015-11-01T08:22:55.000Z</time>
      </trkpt>
      <trkpt lat="47.50889" lon="6.7677">
        <ele>381</ele>
        <time>2015-11-01T08:22:56.000Z</time>
      </trkpt>
      <trkpt lat="47.50893" lon="6.76778">
        <ele>381</ele>
        <time>2015-11-01T08:22:57.000Z</time>
      </trkpt>
      <trkpt lat="47.50896" lon="6.76786">
        <ele>381</ele>
        <time>2015-11-01T08:22:58.000Z</time>
      </trkpt>
      <trkpt lat="47.50899" lon="6.76794">
        <ele>381</ele>
        <time>2015-11-01T08:22:59.000Z</time>
      </trkpt>
      <trkpt lat="47.50903" lon="6.76803">
        <ele>381</ele>
        <time>2015-11-01T08:23:00.000Z</time>
      </trkpt>
      <trkpt lat="47.50906" lon="6.76811">
        <ele>381</ele>
        <time>2015-11-01T08:23:01.000Z</time>
      </trkpt>
      <trkpt lat="47.50909" lon="6.7682">
        <ele>381</ele>
        <time>2015-11-01T08:23:02.000Z</time>
      </trkpt>
      <trkpt lat="47.50913" lon="6.76828">
        <ele>380</ele>
        <time>2015-11-01T08:23:03.000Z</time>
      </trkpt>
      <trkpt lat="47.50917" lon="6.76836">
        <ele>380</ele>
        <time>2015-11-01T08:23:04.000Z</time>
      </trkpt>
      <trkpt lat="47.5092" lon="6.76844">
        <ele>379</ele>
        <time>2015-11-01T08:23:05.000Z</time>
      </trkpt>
      <trkpt lat="47.50924" lon="6.76852">
        <ele>379</ele>
        <time>2015-11-01T08:23:06.000Z</time>
      </trkpt>
      <trkpt lat="47.50928" lon="6.76859">
        <ele>378</ele>
        <time>2015-11-01T08:23:07.000Z</time>
      </trkpt>
      <trkpt lat="47.50933" lon="6.76866">
        <ele>378</ele>
        <time>2015-11-01T08:23:08.000Z</time>
      </trkpt>
      <trkpt lat="47.50938" lon="6.76873">
        <ele>378</ele>
        <time>2015-11-01T08:23:09.000Z</time>
      </trkpt>
      <trkpt lat="47.50943" lon="6.76878">
        <ele>378</ele>
        <time>2015-11-01T08:23:10.000Z</time>
      </trkpt>
      <trkpt lat="47.50949" lon="6.76883">
        <ele>378</ele>
        <time>2015-11-01T08:23:11.000Z</time>
      </trkpt>
      <trkpt lat="47.50954" lon="6.76888">
        <ele>377</ele>
        <time>2015-11-01T08:23:12.000Z</time>
      </trkpt>
      <trkpt lat="47.50961" lon="6.76893">
        <ele>377</ele>
        <time>2015-11-01T08:23:13.000Z</time>
      </trkpt>
      <trkpt lat="47.50968" lon="6.76896">
        <ele>377</ele>
        <time>2015-11-01T08:23:14.000Z</time>
      </trkpt>
      <trkpt lat="47.50974" lon="6.76898">
        <ele>377</ele>
        <time>2015-11-01T08:23:15.000Z</time>
      </trkpt>
      <trkpt lat="47.50979" lon="6.76896">
        <ele>377</ele>
        <time>2015-11-01T08:23:16.000Z</time>
      </trkpt>
      <trkpt lat="47.50986" lon="6.76895">
        <ele>377</ele>
        <time>2015-11-01T08:23:17.000Z</time>
      </trkpt>
      <trkpt lat="47.50991" lon="6.769">
        <ele>377</ele>
        <time>2015-11-01T08:23:18.000Z</time>
      </trkpt>
      <trkpt lat="47.50996" lon="6.76907">
        <ele>376</ele>
        <time>2015-11-01T08:23:19.000Z</time>
      </trkpt>
      <trkpt lat="47.50998" lon="6.76914">
        <ele>376</ele>
        <time>2015-11-01T08:23:20.000Z</time>
      </trkpt>
      <trkpt lat="47.51001" lon="6.7692">
        <ele>376</ele>
        <time>2015-11-01T08:23:21.000Z</time>
      </trkpt>
      <trkpt lat="47.51005" lon="6.76923">
        <ele>376</ele>
        <time>2015-11-01T08:23:22.000Z</time>
      </trkpt>
      <trkpt lat="47.5101" lon="6.76927">
        <ele>375</ele>
        <time>2015-11-01T08:23:23.000Z</time>
      </trkpt>
      <trkpt lat="47.51016" lon="6.7693">
        <ele>375</ele>
        <time>2015-11-01T08:23:24.000Z</time>
      </trkpt>
      <trkpt lat="47.51021" lon="6.76933">
        <ele>375</ele>
        <time>2015-11-01T08:23:25.000Z</time>
      </trkpt>
      <trkpt lat="47.51026" lon="6.76937">
        <ele>375</ele>
        <time>2015-11-01T08:23:26.000Z</time>
      </trkpt>
      <trkpt lat="47.51031" lon="6.76942">
        <ele>375</ele>
        <time>2015-11-01T08:23:27.000Z</time>
      </trkpt>
      <trkpt lat="47.51036" lon="6.76946">
        <ele>375</ele>
        <time>2015-11-01T08:23:28.000Z</time>
      </trkpt>
      <trkpt lat="47.5104" lon="6.76949">
        <ele>375</ele>
        <time>2015-11-01T08:23:29.000Z</time>
      </trkpt>
      <trkpt lat="47.51045" lon="6.76953">
        <ele>375</ele>
        <time>2015-11-01T08:23:30.000Z</time>
      </trkpt>
      <trkpt lat="47.51049" lon="6.76956">
        <ele>375</ele>
        <time>2015-11-01T08:23:31.000Z</time>
      </trkpt>
      <trkpt lat="47.51054" lon="6.76961">
        <ele>375</ele>
        <time>2015-11-01T08:23:32.000Z</time>
      </trkpt>
      <trkpt lat="47.51058" lon="6.76964">
        <ele>375</ele>
        <time>2015-11-01T08:23:33.000Z</time>
      </trkpt>
      <trkpt lat="47.51062" lon="6.76969">
        <ele>375</ele>
        <time>2015-11-01T08:23:34.000Z</time>
      </trkpt>
      <trkpt lat="47.51066" lon="6.76974">
        <ele>375</ele>
        <time>2015-11-01T08:23:35.000Z</time>
      </trkpt>
      <trkpt lat="47.51071" lon="6.76979">
        <ele>375</ele>
        <time>2015-11-01T08:23:36.000Z</time>
      </trkpt>
      <trkpt lat="47.51075" lon="6.76985">
        <ele>375</ele>
        <time>2015-11-01T08:23:37.000Z</time>
      </trkpt>
      <trkpt lat="47.51079" lon="6.76991">
        <ele>375</ele>
        <time>2015-11-01T08:23:38.000Z</time>
      </trkpt>
      <trkpt lat="47.51083" lon="6.76997">
        <ele>375</ele>
        <time>2015-11-01T08:23:39.000Z</time>
      </trkpt>
      <trkpt lat="47.51087" lon="6.77002">
        <ele>375</ele>
        <time>2015-11-01T08:23:40.000Z</time>
      </trkpt>
      <trkpt lat="47.51092" lon="6.77006">
        <ele>375</ele>
        <time>2015-11-01T08:23:41.000Z</time>
      </trkpt>
      <trkpt lat="47.51097" lon="6.77011">
        <ele>375</ele>
        <time>2015-11-01T08:23:42.000Z</time>
      </trkpt>
      <trkpt lat="47.51102" lon="6.77015">
        <ele>375</ele>
        <time>2015-11-01T08:23:43.000Z</time>
      </trkpt>
      <trkpt lat="47.51106" lon="6.77019">
        <ele>375</ele>
        <time>2015-11-01T08:23:44.000Z</time>
      </trkpt>
      <trkpt lat="47.51111" lon="6.77022">
        <ele>375</ele>
        <time>2015-11-01T08:23:45.000Z</time>
      </trkpt>
      <trkpt lat="47.51115" lon="6.77025">
        <ele>375</ele>
        <time>2015-11-01T08:23:46.000Z</time>
      </trkpt>
      <trkpt lat="47.51119" lon="6.77029">
        <ele>375</ele>
        <time>2015-11-01T08:23:47.000Z</time>
      </trkpt>
      <trkpt lat="47.51123" lon="6.77032">
        <ele>375</ele>
        <time>2015-11-01T08:23:48.000Z</time>
      </trkpt>
      <trkpt lat="47.51127" lon="6.77036">
        <ele>375</ele>
        <time>2015-11-01T08:23:49.000Z</time>
      </trkpt>
      <trkpt lat="47.51131" lon="6.7704">
        <ele>375</ele>
        <time>2015-11-01T08:23:50.000Z</time>
      </trkpt>
      <trkpt lat="47.51135" lon="6.77044">
        <ele>375</ele>
        <time>2015-11-01T08:23:51.000Z</time>
      </trkpt>
      <trkpt lat="47.5114" lon="6.77048">
        <ele>376</ele>
        <time>2015-11-01T08:23:52.000Z</time>
      </trkpt>
      <trkpt lat="47.51144" lon="6.77052">
        <ele>376</ele>
        <time>2015-11-01T08:23:53.000Z</time>
      </trkpt>
      <trkpt lat="47.51148" lon="6.77055">
        <ele>376</ele>
        <time>2015-11-01T08:23:54.000Z</time>
      </trkpt>
      <trkpt lat="47.51152" lon="6.77059">
        <ele>376</ele>
        <time>2015-11-01T08:23:55.000Z</time>
      </trkpt>
      <trkpt lat="47.51156" lon="6.77063">
        <ele>376</ele>
        <time>2015-11-01T08:23:56.000Z</time>
      </trkpt>
      <trkpt lat="47.5116" lon="6.77068">
        <ele>377</ele>
        <time>2015-11-01T08:23:57.000Z</time>
      </trkpt>
      <trkpt lat="47.51163" lon="6.77072">
        <ele>377</ele>
        <time>2015-11-01T08:23:58.000Z</time>
      </trkpt>
      <trkpt lat="47.51167" lon="6.77077">
        <ele>377</ele>
        <time>2015-11-01T08:23:59.000Z</time>
      </trkpt>
      <trkpt lat="47.5117" lon="6.77082">
        <ele>378</ele>
        <time>2015-11-01T08:24:00.000Z</time>
      </trkpt>
      <trkpt lat="47.51173" lon="6.77087">
        <ele>378</ele>
        <time>2015-11-01T08:24:01.000Z</time>
      </trkpt>
      <trkpt lat="47.51176" lon="6.77092">
        <ele>378</ele>
        <time>2015-11-01T08:24:02.000Z</time>
      </trkpt>
      <trkpt lat="47.51178" lon="6.77097">
        <ele>378</ele>
        <time>2015-11-01T08:24:03.000Z</time>
      </trkpt>
      <trkpt lat="47.51181" lon="6.77103">
        <ele>378</ele>
        <time>2015-11-01T08:24:04.000Z</time>
      </trkpt>
      <trkpt lat="47.51184" lon="6.77108">
        <ele>378</ele>
        <time>2015-11-01T08:24:05.000Z</time>
      </trkpt>
      <trkpt lat="47.51186" lon="6.77112">
        <ele>378</ele>
        <time>2015-11-01T08:24:06.000Z</time>
      </trkpt>
      <trkpt lat="47.51188" lon="6.77118">
        <ele>378</ele>
        <time>2015-11-01T08:24:07.000Z</time>
      </trkpt>
      <trkpt lat="47.51191" lon="6.77123">
        <ele>378</ele>
        <time>2015-11-01T08:24:08.000Z</time>
      </trkpt>
      <trkpt lat="47.51193" lon="6.77128">
        <ele>378</ele>
        <time>2015-11-01T08:24:09.000Z</time>
      </trkpt>
      <trkpt lat="47.51196" lon="6.77132">
        <ele>378</ele>
        <time>2015-11-01T08:24:10.000Z</time>
      </trkpt>
      <trkpt lat="47.51198" lon="6.77136">
        <ele>378</ele>
        <time>2015-11-01T08:24:11.000Z</time>
      </trkpt>
      <trkpt lat="47.512" lon="6.77141">
        <ele>378</ele>
        <time>2015-11-01T08:24:12.000Z</time>
      </trkpt>
      <trkpt lat="47.51203" lon="6.77146">
        <ele>378</ele>
        <time>2015-11-01T08:24:13.000Z</time>
      </trkpt>
      <trkpt lat="47.51205" lon="6.7715">
        <ele>378</ele>
        <time>2015-11-01T08:24:14.000Z</time>
      </trkpt>
      <trkpt lat="47.51208" lon="6.77155">
        <ele>378</ele>
        <time>2015-11-01T08:24:15.000Z</time>
      </trkpt>
      <trkpt lat="47.5121" lon="6.77159">
        <ele>378</ele>
        <time>2015-11-01T08:24:16.000Z</time>
      </trkpt>
      <trkpt lat="47.51212" lon="6.77164">
        <ele>378</ele>
        <time>2015-11-01T08:24:17.000Z</time>
      </trkpt>
      <trkpt lat="47.51215" lon="6.77168">
        <ele>376</ele>
        <time>2015-11-01T08:24:18.000Z</time>
      </trkpt>
      <trkpt lat="47.51218" lon="6.77173">
        <ele>376</ele>
        <time>2015-11-01T08:24:19.000Z</time>
      </trkpt>
      <trkpt lat="47.51222" lon="6.77178">
        <ele>376</ele>
        <time>2015-11-01T08:24:20.000Z</time>
      </trkpt>
      <trkpt lat="47.51224" lon="6.77182">
        <ele>376</ele>
        <time>2015-11-01T08:24:21.000Z</time>
      </trkpt>
      <trkpt lat="47.51227" lon="6.77187">
        <ele>376</ele>
        <time>2015-11-01T08:24:22.000Z</time>
      </trkpt>
      <trkpt lat="47.51229" lon="6.77192">
        <ele>376</ele>
        <time>2015-11-01T08:24:23.000Z</time>
      </trkpt>
      <trkpt lat="47.51232" lon="6.77196">
        <ele>376</ele>
        <time>2015-11-01T08:24:24.000Z</time>
      </trkpt>
      <trkpt lat="47.51234" lon="6.77201">
        <ele>376</ele>
        <time>2015-11-01T08:24:25.000Z</time>
      </trkpt>
      <trkpt lat="47.51237" lon="6.77206">
        <ele>376</ele>
        <time>2015-11-01T08:24:26.000Z</time>
      </trkpt>
      <trkpt lat="47.51239" lon="6.77212">
        <ele>376</ele>
        <time>2015-11-01T08:24:27.000Z</time>
      </trkpt>
      <trkpt lat="47.51242" lon="6.77216">
        <ele>376</ele>
        <time>2015-11-01T08:24:28.000Z</time>
      </trkpt>
      <trkpt lat="47.51244" lon="6.77221">
        <ele>376</ele>
        <time>2015-11-01T08:24:29.000Z</time>
      </trkpt>
      <trkpt lat="47.51247" lon="6.77226">
        <ele>377</ele>
        <time>2015-11-01T08:24:30.000Z</time>
      </trkpt>
      <trkpt lat="47.51249" lon="6.77231">
        <ele>377</ele>
        <time>2015-11-01T08:24:31.000Z</time>
      </trkpt>
      <trkpt lat="47.51252" lon="6.77237">
        <ele>378</ele>
        <time>2015-11-01T08:24:32.000Z</time>
      </trkpt>
      <trkpt lat="47.51255" lon="6.77242">
        <ele>379</ele>
        <time>2015-11-01T08:24:33.000Z</time>
      </trkpt>
      <trkpt lat="47.51258" lon="6.77246">
        <ele>379</ele>
        <time>2015-11-01T08:24:34.000Z</time>
      </trkpt>
      <trkpt lat="47.51261" lon="6.77251">
        <ele>378</ele>
        <time>2015-11-01T08:24:35.000Z</time>
      </trkpt>
      <trkpt lat="47.51264" lon="6.77255">
        <ele>378</ele>
        <time>2015-11-01T08:24:36.000Z</time>
      </trkpt>
      <trkpt lat="47.51268" lon="6.77258">
        <ele>378</ele>
        <time>2015-11-01T08:24:37.000Z</time>
      </trkpt>
      <trkpt lat="47.51272" lon="6.77261">
        <ele>377</ele>
        <time>2015-11-01T08:24:38.000Z</time>
      </trkpt>
      <trkpt lat="47.51276" lon="6.77263">
        <ele>377</ele>
        <time>2015-11-01T08:24:39.000Z</time>
      </trkpt>
      <trkpt lat="47.5128" lon="6.77265">
        <ele>377</ele>
        <time>2015-11-01T08:24:40.000Z</time>
      </trkpt>
      <trkpt lat="47.51284" lon="6.77267">
        <ele>377</ele>
        <time>2015-11-01T08:24:41.000Z</time>
      </trkpt>
      <trkpt lat="47.51288" lon="6.77269">
        <ele>377</ele>
        <time>2015-11-01T08:24:42.000Z</time>
      </trkpt>
      <trkpt lat="47.51293" lon="6.77272">
        <ele>377</ele>
        <time>2015-11-01T08:24:43.000Z</time>
      </trkpt>
      <trkpt lat="47.51298" lon="6.77274">
        <ele>377</ele>
        <time>2015-11-01T08:24:44.000Z</time>
      </trkpt>
      <trkpt lat="47.51302" lon="6.77277">
        <ele>377</ele>
        <time>2015-11-01T08:24:45.000Z</time>
      </trkpt>
      <trkpt lat="47.51307" lon="6.77279">
        <ele>377</ele>
        <time>2015-11-01T08:24:46.000Z</time>
      </trkpt>
      <trkpt lat="47.51312" lon="6.77281">
        <ele>377</ele>
        <time>2015-11-01T08:24:47.000Z</time>
      </trkpt>
      <trkpt lat="47.51317" lon="6.77283">
        <ele>377</ele>
        <time>2015-11-01T08:24:48.000Z</time>
      </trkpt>
      <trkpt lat="47.51322" lon="6.77285">
        <ele>377</ele>
        <time>2015-11-01T08:24:49.000Z</time>
      </trkpt>
      <trkpt lat="47.51328" lon="6.77285">
        <ele>378</ele>
        <time>2015-11-01T08:24:50.000Z</time>
      </trkpt>
      <trkpt lat="47.51333" lon="6.77284">
        <ele>378</ele>
        <time>2015-11-01T08:24:51.000Z</time>
      </trkpt>
      <trkpt lat="47.51339" lon="6.77282">
        <ele>378</ele>
        <time>2015-11-01T08:24:52.000Z</time>
      </trkpt>
      <trkpt lat="47.51345" lon="6.77278">
        <ele>378</ele>
        <time>2015-11-01T08:24:53.000Z</time>
      </trkpt>
      <trkpt lat="47.51351" lon="6.77273">
        <ele>378</ele>
        <time>2015-11-01T08:24:54.000Z</time>
      </trkpt>
      <trkpt lat="47.51357" lon="6.77267">
        <ele>378</ele>
        <time>2015-11-01T08:24:55.000Z</time>
      </trkpt>
      <trkpt lat="47.51363" lon="6.77261">
        <ele>378</ele>
        <time>2015-11-01T08:24:56.000Z</time>
      </trkpt>
      <trkpt lat="47.51371" lon="6.77255">
        <ele>378</ele>
        <time>2015-11-01T08:24:57.000Z</time>
      </trkpt>
      <trkpt lat="47.51379" lon="6.77249">
        <ele>376</ele>
        <time>2015-11-01T08:24:58.000Z</time>
      </trkpt>
      <trkpt lat="47.51386" lon="6.77244">
        <ele>376</ele>
        <time>2015-11-01T08:24:59.000Z</time>
      </trkpt>
      <trkpt lat="47.51394" lon="6.77239">
        <ele>376</ele>
        <time>2015-11-01T08:25:00.000Z</time>
      </trkpt>
      <trkpt lat="47.51401" lon="6.77234">
        <ele>376</ele>
        <time>2015-11-01T08:25:01.000Z</time>
      </trkpt>
      <trkpt lat="47.51409" lon="6.7723">
        <ele>376</ele>
        <time>2015-11-01T08:25:02.000Z</time>
      </trkpt>
      <trkpt lat="47.51417" lon="6.77226">
        <ele>375</ele>
        <time>2015-11-01T08:25:03.000Z</time>
      </trkpt>
      <trkpt lat="47.51425" lon="6.77222">
        <ele>375</ele>
        <time>2015-11-01T08:25:04.000Z</time>
      </trkpt>
      <trkpt lat="47.51432" lon="6.77218">
        <ele>375</ele>
        <time>2015-11-01T08:25:05.000Z</time>
      </trkpt>
      <trkpt lat="47.51439" lon="6.77213">
        <ele>375</ele>
        <time>2015-11-01T08:25:06.000Z</time>
      </trkpt>
      <trkpt lat="47.51446" lon="6.7721">
        <ele>375</ele>
        <time>2015-11-01T08:25:07.000Z</time>
      </trkpt>
      <trkpt lat="47.51453" lon="6.77207">
        <ele>375</ele>
        <time>2015-11-01T08:25:08.000Z</time>
      </trkpt>
      <trkpt lat="47.51459" lon="6.77204">
        <ele>375</ele>
        <time>2015-11-01T08:25:09.000Z</time>
      </trkpt>
      <trkpt lat="47.51465" lon="6.77202">
        <ele>375</ele>
        <time>2015-11-01T08:25:10.000Z</time>
      </trkpt>
      <trkpt lat="47.5147" lon="6.772">
        <ele>375</ele>
        <time>2015-11-01T08:25:11.000Z</time>
      </trkpt>
      <trkpt lat="47.51476" lon="6.772">
        <ele>375</ele>
        <time>2015-11-01T08:25:12.000Z</time>
      </trkpt>
      <trkpt lat="47.5148" lon="6.77203">
        <ele>375</ele>
        <time>2015-11-01T08:25:13.000Z</time>
      </trkpt>
      <trkpt lat="47.51482" lon="6.77209">
        <ele>375</ele>
        <time>2015-11-01T08:25:14.000Z</time>
      </trkpt>
      <trkpt lat="47.51483" lon="6.77216">
        <ele>375</ele>
        <time>2015-11-01T08:25:15.000Z</time>
      </trkpt>
      <trkpt lat="47.51484" lon="6.77224">
        <ele>375</ele>
        <time>2015-11-01T08:25:16.000Z</time>
      </trkpt>
      <trkpt lat="47.51484" lon="6.7723">
        <ele>375</ele>
        <time>2015-11-01T08:25:17.000Z</time>
      </trkpt>
      <trkpt lat="47.51484" lon="6.77236">
        <ele>375</ele>
        <time>2015-11-01T08:25:18.000Z</time>
      </trkpt>
      <trkpt lat="47.51485" lon="6.77244">
        <ele>376</ele>
        <time>2015-11-01T08:25:19.000Z</time>
      </trkpt>
      <trkpt lat="47.51486" lon="6.77251">
        <ele>376</ele>
        <time>2015-11-01T08:25:20.000Z</time>
      </trkpt>
      <trkpt lat="47.51486" lon="6.77257">
        <ele>376</ele>
        <time>2015-11-01T08:25:21.000Z</time>
      </trkpt>
      <trkpt lat="47.51486" lon="6.77263">
        <ele>376</ele>
        <time>2015-11-01T08:25:22.000Z</time>
      </trkpt>
      <trkpt lat="47.51486" lon="6.77268">
        <ele>376</ele>
        <time>2015-11-01T08:25:23.000Z</time>
      </trkpt>
      <trkpt lat="47.51487" lon="6.77273">
        <ele>377</ele>
        <time>2015-11-01T08:25:23.999Z</time>
      </trkpt>
      <trkpt lat="47.51487" lon="6.77278">
        <ele>377</ele>
        <time>2015-11-01T08:25:25.000Z</time>
      </trkpt>
      <trkpt lat="47.51487" lon="6.77283">
        <ele>377</ele>
        <time>2015-11-01T08:25:26.000Z</time>
      </trkpt>
      <trkpt lat="47.51487" lon="6.77289">
        <ele>377</ele>
        <time>2015-11-01T08:25:28.000Z</time>
      </trkpt>
      <trkpt lat="47.51487" lon="6.77292">
        <ele>377</ele>
        <time>2015-11-01T08:25:29.000Z</time>
      </trkpt>
      <trkpt lat="47.51487" lon="6.77297">
        <ele>377</ele>
        <time>2015-11-01T08:25:31.000Z</time>
      </trkpt>
      <trkpt lat="47.51487" lon="6.773">
        <ele>377</ele>
        <time>2015-11-01T08:25:32.000Z</time>
      </trkpt>
      <trkpt lat="47.51487" lon="6.77306">
        <ele>377</ele>
        <time>2015-11-01T08:25:34.001Z</time>
      </trkpt>
      <trkpt lat="47.51488" lon="6.77309">
        <ele>377</ele>
        <time>2015-11-01T08:25:35.000Z</time>
      </trkpt>
      <trkpt lat="47.51491" lon="6.77313">
        <ele>377</ele>
        <time>2015-11-01T08:25:37.000Z</time>
      </trkpt>
      <trkpt lat="47.51493" lon="6.77315">
        <ele>377</ele>
        <time>2015-11-01T08:25:38.000Z</time>
      </trkpt>
      <trkpt lat="47.51495" lon="6.77317">
        <ele>377</ele>
        <time>2015-11-01T08:25:39.000Z</time>
      </trkpt>
      <trkpt lat="47.51497" lon="6.77319">
        <ele>377</ele>
        <time>2015-11-01T08:25:40.000Z</time>
      </trkpt>
      <trkpt lat="47.515" lon="6.7732">
        <ele>377</ele>
        <time>2015-11-01T08:25:41.000Z</time>
      </trkpt>
      <trkpt lat="47.51502" lon="6.77322">
        <ele>378</ele>
        <time>2015-11-01T08:25:42.000Z</time>
      </trkpt>
      <trkpt lat="47.51504" lon="6.77323">
        <ele>378</ele>
        <time>2015-11-01T08:25:43.000Z</time>
      </trkpt>
      <trkpt lat="47.51506" lon="6.77325">
        <ele>378</ele>
        <time>2015-11-01T08:25:43.999Z</time>
      </trkpt>
      <trkpt lat="47.51509" lon="6.77326">
        <ele>378</ele>
        <time>2015-11-01T08:25:45.000Z</time>
      </trkpt>
      <trkpt lat="47.51511" lon="6.77328">
        <ele>378</ele>
        <time>2015-11-01T08:25:45.998Z</time>
      </trkpt>
      <trkpt lat="47.51513" lon="6.77331">
        <ele>378</ele>
        <time>2015-11-01T08:25:47.000Z</time>
      </trkpt>
      <trkpt lat="47.51516" lon="6.77334">
        <ele>379</ele>
        <time>2015-11-01T08:25:48.000Z</time>
      </trkpt>
      <trkpt lat="47.51518" lon="6.77336">
        <ele>379</ele>
        <time>2015-11-01T08:25:49.000Z</time>
      </trkpt>
      <trkpt lat="47.5152" lon="6.77338">
        <ele>379</ele>
        <time>2015-11-01T08:25:50.000Z</time>
      </trkpt>
      <trkpt lat="47.51522" lon="6.77341">
        <ele>380</ele>
        <time>2015-11-01T08:25:51.000Z</time>
      </trkpt>
      <trkpt lat="47.51525" lon="6.77343">
        <ele>380</ele>
        <time>2015-11-01T08:25:51.999Z</time>
      </trkpt>
      <trkpt lat="47.51527" lon="6.77347">
        <ele>380</ele>
        <time>2015-11-01T08:25:53.000Z</time>
      </trkpt>
      <trkpt lat="47.51529" lon="6.77349">
        <ele>380</ele>
        <time>2015-11-01T08:25:53.999Z</time>
      </trkpt>
      <trkpt lat="47.51532" lon="6.77352">
        <ele>380</ele>
        <time>2015-11-01T08:25:55.000Z</time>
      </trkpt>
      <trkpt lat="47.51534" lon="6.77355">
        <ele>380</ele>
        <time>2015-11-01T08:25:55.999Z</time>
      </trkpt>
      <trkpt lat="47.51536" lon="6.77357">
        <ele>380</ele>
        <time>2015-11-01T08:25:57.000Z</time>
      </trkpt>
      <trkpt lat="47.51538" lon="6.77359">
        <ele>380</ele>
        <time>2015-11-01T08:25:58.000Z</time>
      </trkpt>
      <trkpt lat="47.5154" lon="6.77362">
        <ele>380</ele>
        <time>2015-11-01T08:25:59.000Z</time>
      </trkpt>
      <trkpt lat="47.51542" lon="6.77364">
        <ele>380</ele>
        <time>2015-11-01T08:26:00.000Z</time>
      </trkpt>
      <trkpt lat="47.51544" lon="6.77366">
        <ele>380</ele>
        <time>2015-11-01T08:26:01.000Z</time>
      </trkpt>
      <trkpt lat="47.51546" lon="6.77369">
        <ele>381</ele>
        <time>2015-11-01T08:26:02.000Z</time>
      </trkpt>
      <trkpt lat="47.51549" lon="6.77372">
        <ele>381</ele>
        <time>2015-11-01T08:26:03.001Z</time>
      </trkpt>
      <trkpt lat="47.51551" lon="6.77374">
        <ele>381</ele>
        <time>2015-11-01T08:26:04.000Z</time>
      </trkpt>
      <trkpt lat="47.51553" lon="6.77376">
        <ele>381</ele>
        <time>2015-11-01T08:26:05.000Z</time>
      </trkpt>
      <trkpt lat="47.51555" lon="6.77378">
        <ele>381</ele>
        <time>2015-11-01T08:26:06.000Z</time>
      </trkpt>
      <trkpt lat="47.51557" lon="6.77381">
        <ele>381</ele>
        <time>2015-11-01T08:26:07.000Z</time>
      </trkpt>
      <trkpt lat="47.51559" lon="6.77383">
        <ele>381</ele>
        <time>2015-11-01T08:26:08.000Z</time>
      </trkpt>
      <trkpt lat="47.51561" lon="6.77386">
        <ele>381</ele>
        <time>2015-11-01T08:26:09.000Z</time>
      </trkpt>
      <trkpt lat="47.51564" lon="6.77389">
        <ele>381</ele>
        <time>2015-11-01T08:26:10.000Z</time>
      </trkpt>
      <trkpt lat="47.51566" lon="6.77391">
        <ele>381</ele>
        <time>2015-11-01T08:26:11.000Z</time>
      </trkpt>
      <trkpt lat="47.51568" lon="6.77394">
        <ele>381</ele>
        <time>2015-11-01T08:26:12.000Z</time>
      </trkpt>
      <trkpt lat="47.5157" lon="6.77396">
        <ele>381</ele>
        <time>2015-11-01T08:26:13.000Z</time>
      </trkpt>
      <trkpt lat="47.51573" lon="6.77399">
        <ele>382</ele>
        <time>2015-11-01T08:26:14.000Z</time>
      </trkpt>
      <trkpt lat="47.51575" lon="6.77401">
        <ele>382</ele>
        <time>2015-11-01T08:26:15.000Z</time>
      </trkpt>
      <trkpt lat="47.51577" lon="6.77404">
        <ele>382</ele>
        <time>2015-11-01T08:26:16.000Z</time>
      </trkpt>
      <trkpt lat="47.51579" lon="6.77407">
        <ele>382</ele>
        <time>2015-11-01T08:26:17.000Z</time>
      </trkpt>
      <trkpt lat="47.51582" lon="6.7741">
        <ele>382</ele>
        <time>2015-11-01T08:26:18.000Z</time>
      </trkpt>
      <trkpt lat="47.51584" lon="6.77414">
        <ele>383</ele>
        <time>2015-11-01T08:26:19.000Z</time>
      </trkpt>
      <trkpt lat="47.51587" lon="6.77417">
        <ele>383</ele>
        <time>2015-11-01T08:26:20.000Z</time>
      </trkpt>
      <trkpt lat="47.51589" lon="6.7742">
        <ele>384</ele>
        <time>2015-11-01T08:26:21.000Z</time>
      </trkpt>
      <trkpt lat="47.51592" lon="6.77423">
        <ele>384</ele>
        <time>2015-11-01T08:26:22.000Z</time>
      </trkpt>
      <trkpt lat="47.51595" lon="6.77427">
        <ele>384</ele>
        <time>2015-11-01T08:26:23.000Z</time>
      </trkpt>
      <trkpt lat="47.51597" lon="6.7743">
        <ele>384</ele>
        <time>2015-11-01T08:26:24.000Z</time>
      </trkpt>
      <trkpt lat="47.516" lon="6.77433">
        <ele>385</ele>
        <time>2015-11-01T08:26:25.000Z</time>
      </trkpt>
      <trkpt lat="47.51602" lon="6.77436">
        <ele>385</ele>
        <time>2015-11-01T08:26:26.000Z</time>
      </trkpt>
      <trkpt lat="47.51605" lon="6.77439">
        <ele>385</ele>
        <time>2015-11-01T08:26:27.001Z</time>
      </trkpt>
      <trkpt lat="47.51607" lon="6.77441">
        <ele>385</ele>
        <time>2015-11-01T08:26:28.000Z</time>
      </trkpt>
      <trkpt lat="47.51609" lon="6.77444">
        <ele>385</ele>
        <time>2015-11-01T08:26:29.000Z</time>
      </trkpt>
      <trkpt lat="47.51612" lon="6.77446">
        <ele>385</ele>
        <time>2015-11-01T08:26:30.000Z</time>
      </trkpt>
      <trkpt lat="47.51614" lon="6.77449">
        <ele>385</ele>
        <time>2015-11-01T08:26:31.000Z</time>
      </trkpt>
      <trkpt lat="47.51616" lon="6.77452">
        <ele>385</ele>
        <time>2015-11-01T08:26:32.000Z</time>
      </trkpt>
      <trkpt lat="47.51619" lon="6.77455">
        <ele>386</ele>
        <time>2015-11-01T08:26:33.000Z</time>
      </trkpt>
      <trkpt lat="47.51622" lon="6.77458">
        <ele>386</ele>
        <time>2015-11-01T08:26:33.999Z</time>
      </trkpt>
      <trkpt lat="47.51624" lon="6.77461">
        <ele>386</ele>
        <time>2015-11-01T08:26:35.000Z</time>
      </trkpt>
      <trkpt lat="47.51626" lon="6.77464">
        <ele>386</ele>
        <time>2015-11-01T08:26:36.000Z</time>
      </trkpt>
      <trkpt lat="47.51628" lon="6.77467">
        <ele>386</ele>
        <time>2015-11-01T08:26:37.000Z</time>
      </trkpt>
      <trkpt lat="47.5163" lon="6.7747">
        <ele>386</ele>
        <time>2015-11-01T08:26:38.000Z</time>
      </trkpt>
      <trkpt lat="47.51632" lon="6.77474">
        <ele>386</ele>
        <time>2015-11-01T08:26:39.000Z</time>
      </trkpt>
      <trkpt lat="47.51634" lon="6.77477">
        <ele>386</ele>
        <time>2015-11-01T08:26:40.000Z</time>
      </trkpt>
      <trkpt lat="47.51636" lon="6.77481">
        <ele>386</ele>
        <time>2015-11-01T08:26:41.000Z</time>
      </trkpt>
      <trkpt lat="47.51639" lon="6.77484">
        <ele>387</ele>
        <time>2015-11-01T08:26:42.000Z</time>
      </trkpt>
      <trkpt lat="47.51641" lon="6.77487">
        <ele>387</ele>
        <time>2015-11-01T08:26:43.000Z</time>
      </trkpt>
      <trkpt lat="47.51644" lon="6.77489">
        <ele>387</ele>
        <time>2015-11-01T08:26:44.000Z</time>
      </trkpt>
      <trkpt lat="47.51647" lon="6.77492">
        <ele>387</ele>
        <time>2015-11-01T08:26:45.000Z</time>
      </trkpt>
      <trkpt lat="47.51649" lon="6.77494">
        <ele>387</ele>
        <time>2015-11-01T08:26:46.000Z</time>
      </trkpt>
      <trkpt lat="47.51652" lon="6.77496">
        <ele>387</ele>
        <time>2015-11-01T08:26:46.999Z</time>
      </trkpt>
      <trkpt lat="47.51654" lon="6.77499">
        <ele>388</ele>
        <time>2015-11-01T08:26:48.001Z</time>
      </trkpt>
      <trkpt lat="47.51657" lon="6.77503">
        <ele>388</ele>
        <time>2015-11-01T08:26:49.000Z</time>
      </trkpt>
      <trkpt lat="47.5166" lon="6.77507">
        <ele>388</ele>
        <time>2015-11-01T08:26:50.000Z</time>
      </trkpt>
      <trkpt lat="47.51663" lon="6.7751">
        <ele>388</ele>
        <time>2015-11-01T08:26:51.000Z</time>
      </trkpt>
      <trkpt lat="47.51666" lon="6.77513">
        <ele>388</ele>
        <time>2015-11-01T08:26:52.000Z</time>
      </trkpt>
      <trkpt lat="47.51673" lon="6.77518">
        <ele>389</ele>
        <time>2015-11-01T08:26:54.000Z</time>
      </trkpt>
      <trkpt lat="47.51677" lon="6.7752">
        <ele>390</ele>
        <time>2015-11-01T08:26:55.000Z</time>
      </trkpt>
      <trkpt lat="47.5168" lon="6.77522">
        <ele>390</ele>
        <time>2015-11-01T08:26:56.000Z</time>
      </trkpt>
      <trkpt lat="47.51684" lon="6.77524">
        <ele>390</ele>
        <time>2015-11-01T08:26:57.000Z</time>
      </trkpt>
      <trkpt lat="47.51687" lon="6.77527">
        <ele>390</ele>
        <time>2015-11-01T08:26:58.000Z</time>
      </trkpt>
      <trkpt lat="47.51689" lon="6.77531">
        <ele>390</ele>
        <time>2015-11-01T08:26:59.000Z</time>
      </trkpt>
      <trkpt lat="47.51692" lon="6.77535">
        <ele>390</ele>
        <time>2015-11-01T08:27:00.000Z</time>
      </trkpt>
      <trkpt lat="47.51695" lon="6.77538">
        <ele>390</ele>
        <time>2015-11-01T08:27:01.000Z</time>
      </trkpt>
      <trkpt lat="47.51697" lon="6.77541">
        <ele>390</ele>
        <time>2015-11-01T08:27:02.000Z</time>
      </trkpt>
      <trkpt lat="47.517" lon="6.77545">
        <ele>390</ele>
        <time>2015-11-01T08:27:03.000Z</time>
      </trkpt>
      <trkpt lat="47.51702" lon="6.77547">
        <ele>390</ele>
        <time>2015-11-01T08:27:04.000Z</time>
      </trkpt>
      <trkpt lat="47.51705" lon="6.77549">
        <ele>390</ele>
        <time>2015-11-01T08:27:05.000Z</time>
      </trkpt>
      <trkpt lat="47.51707" lon="6.7755">
        <ele>390</ele>
        <time>2015-11-01T08:27:06.000Z</time>
      </trkpt>
      <trkpt lat="47.5171" lon="6.77549">
        <ele>390</ele>
        <time>2015-11-01T08:27:07.000Z</time>
      </trkpt>
      <trkpt lat="47.51713" lon="6.77548">
        <ele>390</ele>
        <time>2015-11-01T08:27:08.000Z</time>
      </trkpt>
      <trkpt lat="47.51715" lon="6.77546">
        <ele>390</ele>
        <time>2015-11-01T08:27:09.000Z</time>
      </trkpt>
      <trkpt lat="47.51717" lon="6.77542">
        <ele>390</ele>
        <time>2015-11-01T08:27:10.000Z</time>
      </trkpt>
      <trkpt lat="47.51718" lon="6.77537">
        <ele>390</ele>
        <time>2015-11-01T08:27:11.000Z</time>
      </trkpt>
      <trkpt lat="47.51719" lon="6.77531">
        <ele>390</ele>
        <time>2015-11-01T08:27:12.000Z</time>
      </trkpt>
      <trkpt lat="47.5172" lon="6.77526">
        <ele>390</ele>
        <time>2015-11-01T08:27:13.000Z</time>
      </trkpt>
      <trkpt lat="47.51722" lon="6.7752">
        <ele>390</ele>
        <time>2015-11-01T08:27:14.000Z</time>
      </trkpt>
      <trkpt lat="47.51723" lon="6.77514">
        <ele>390</ele>
        <time>2015-11-01T08:27:15.000Z</time>
      </trkpt>
      <trkpt lat="47.51725" lon="6.77508">
        <ele>390</ele>
        <time>2015-11-01T08:27:16.000Z</time>
      </trkpt>
      <trkpt lat="47.51726" lon="6.77503">
        <ele>390</ele>
        <time>2015-11-01T08:27:17.000Z</time>
      </trkpt>
      <trkpt lat="47.51728" lon="6.77497">
        <ele>389</ele>
        <time>2015-11-01T08:27:18.000Z</time>
      </trkpt>
      <trkpt lat="47.51728" lon="6.77491">
        <ele>389</ele>
        <time>2015-11-01T08:27:19.000Z</time>
      </trkpt>
      <trkpt lat="47.51729" lon="6.77485">
        <ele>389</ele>
        <time>2015-11-01T08:27:20.000Z</time>
      </trkpt>
      <trkpt lat="47.51731" lon="6.7748">
        <ele>389</ele>
        <time>2015-11-01T08:27:21.000Z</time>
      </trkpt>
      <trkpt lat="47.51732" lon="6.77475">
        <ele>389</ele>
        <time>2015-11-01T08:27:22.000Z</time>
      </trkpt>
      <trkpt lat="47.51735" lon="6.77471">
        <ele>389</ele>
        <time>2015-11-01T08:27:23.000Z</time>
      </trkpt>
      <trkpt lat="47.51738" lon="6.77469">
        <ele>389</ele>
        <time>2015-11-01T08:27:24.000Z</time>
      </trkpt>
      <trkpt lat="47.51742" lon="6.77469">
        <ele>389</ele>
        <time>2015-11-01T08:27:25.000Z</time>
      </trkpt>
      <trkpt lat="47.51745" lon="6.7747">
        <ele>389</ele>
        <time>2015-11-01T08:27:26.000Z</time>
      </trkpt>
      <trkpt lat="47.51749" lon="6.77472">
        <ele>389</ele>
        <time>2015-11-01T08:27:27.000Z</time>
      </trkpt>
      <trkpt lat="47.51752" lon="6.77473">
        <ele>389</ele>
        <time>2015-11-01T08:27:28.000Z</time>
      </trkpt>
      <trkpt lat="47.51756" lon="6.77474">
        <ele>389</ele>
        <time>2015-11-01T08:27:29.000Z</time>
      </trkpt>
      <trkpt lat="47.51759" lon="6.77476">
        <ele>389</ele>
        <time>2015-11-01T08:27:30.000Z</time>
      </trkpt>
      <trkpt lat="47.51763" lon="6.77477">
        <ele>389</ele>
        <time>2015-11-01T08:27:31.000Z</time>
      </trkpt>
      <trkpt lat="47.51767" lon="6.77478">
        <ele>388</ele>
        <time>2015-11-01T08:27:32.000Z</time>
      </trkpt>
      <trkpt lat="47.51771" lon="6.77479">
        <ele>388</ele>
        <time>2015-11-01T08:27:33.000Z</time>
      </trkpt>
      <trkpt lat="47.51775" lon="6.7748">
        <ele>388</ele>
        <time>2015-11-01T08:27:34.000Z</time>
      </trkpt>
      <trkpt lat="47.51779" lon="6.77482">
        <ele>388</ele>
        <time>2015-11-01T08:27:35.000Z</time>
      </trkpt>
      <trkpt lat="47.51783" lon="6.77483">
        <ele>388</ele>
        <time>2015-11-01T08:27:36.000Z</time>
      </trkpt>
      <trkpt lat="47.51787" lon="6.77484">
        <ele>388</ele>
        <time>2015-11-01T08:27:37.000Z</time>
      </trkpt>
      <trkpt lat="47.51791" lon="6.77486">
        <ele>388</ele>
        <time>2015-11-01T08:27:38.000Z</time>
      </trkpt>
      <trkpt lat="47.51794" lon="6.77487">
        <ele>388</ele>
        <time>2015-11-01T08:27:39.000Z</time>
      </trkpt>
      <trkpt lat="47.51797" lon="6.77489">
        <ele>388</ele>
        <time>2015-11-01T08:27:40.000Z</time>
      </trkpt>
      <trkpt lat="47.51801" lon="6.7749">
        <ele>388</ele>
        <time>2015-11-01T08:27:42.000Z</time>
      </trkpt>
      <trkpt lat="47.51802" lon="6.77491">
        <ele>388</ele>
        <time>2015-11-01T08:27:43.000Z</time>
      </trkpt>
      <trkpt lat="47.51806" lon="6.77492">
        <ele>388</ele>
        <time>2015-11-01T08:27:45.000Z</time>
      </trkpt>
      <trkpt lat="47.51807" lon="6.77491">
        <ele>388</ele>
        <time>2015-11-01T08:27:46.000Z</time>
      </trkpt>
      <trkpt lat="47.51811" lon="6.77489">
        <ele>388</ele>
        <time>2015-11-01T08:27:49.000Z</time>
      </trkpt>
      <trkpt lat="47.51813" lon="6.7749">
        <ele>388</ele>
        <time>2015-11-01T08:27:50.000Z</time>
      </trkpt>
      <trkpt lat="47.51815" lon="6.77492">
        <ele>387</ele>
        <time>2015-11-01T08:27:51.000Z</time>
      </trkpt>
      <trkpt lat="47.51818" lon="6.77494">
        <ele>387</ele>
        <time>2015-11-01T08:27:52.000Z</time>
      </trkpt>
      <trkpt lat="47.51822" lon="6.77495">
        <ele>387</ele>
        <time>2015-11-01T08:27:53.000Z</time>
      </trkpt>
      <trkpt lat="47.51826" lon="6.77496">
        <ele>387</ele>
        <time>2015-11-01T08:27:54.000Z</time>
      </trkpt>
      <trkpt lat="47.5183" lon="6.77497">
        <ele>387</ele>
        <time>2015-11-01T08:27:55.000Z</time>
      </trkpt>
      <trkpt lat="47.51835" lon="6.77497">
        <ele>387</ele>
        <time>2015-11-01T08:27:56.000Z</time>
      </trkpt>
      <trkpt lat="47.5184" lon="6.77498">
        <ele>387</ele>
        <time>2015-11-01T08:27:57.000Z</time>
      </trkpt>
      <trkpt lat="47.51844" lon="6.77498">
        <ele>387</ele>
        <time>2015-11-01T08:27:58.000Z</time>
      </trkpt>
      <trkpt lat="47.51849" lon="6.77499">
        <ele>387</ele>
        <time>2015-11-01T08:27:59.000Z</time>
      </trkpt>
      <trkpt lat="47.51853" lon="6.77499">
        <ele>387</ele>
        <time>2015-11-01T08:28:00.000Z</time>
      </trkpt>
      <trkpt lat="47.51858" lon="6.77499">
        <ele>387</ele>
        <time>2015-11-01T08:28:01.000Z</time>
      </trkpt>
      <trkpt lat="47.51863" lon="6.77497">
        <ele>387</ele>
        <time>2015-11-01T08:28:02.000Z</time>
      </trkpt>
      <trkpt lat="47.51867" lon="6.77497">
        <ele>387</ele>
        <time>2015-11-01T08:28:03.000Z</time>
      </trkpt>
      <trkpt lat="47.51871" lon="6.77497">
        <ele>387</ele>
        <time>2015-11-01T08:28:04.000Z</time>
      </trkpt>
      <trkpt lat="47.51875" lon="6.77499">
        <ele>387</ele>
        <time>2015-11-01T08:28:05.000Z</time>
      </trkpt>
      <trkpt lat="47.51879" lon="6.77501">
        <ele>388</ele>
        <time>2015-11-01T08:28:06.000Z</time>
      </trkpt>
      <trkpt lat="47.51883" lon="6.77503">
        <ele>388</ele>
        <time>2015-11-01T08:28:07.000Z</time>
      </trkpt>
      <trkpt lat="47.51887" lon="6.77504">
        <ele>388</ele>
        <time>2015-11-01T08:28:08.000Z</time>
      </trkpt>
      <trkpt lat="47.51891" lon="6.77504">
        <ele>388</ele>
        <time>2015-11-01T08:28:09.000Z</time>
      </trkpt>
      <trkpt lat="47.51895" lon="6.77505">
        <ele>388</ele>
        <time>2015-11-01T08:28:10.000Z</time>
      </trkpt>
      <trkpt lat="47.51899" lon="6.77507">
        <ele>388</ele>
        <time>2015-11-01T08:28:11.000Z</time>
      </trkpt>
      <trkpt lat="47.51903" lon="6.77508">
        <ele>388</ele>
        <time>2015-11-01T08:28:12.000Z</time>
      </trkpt>
      <trkpt lat="47.51907" lon="6.77509">
        <ele>388</ele>
        <time>2015-11-01T08:28:13.000Z</time>
      </trkpt>
      <trkpt lat="47.51911" lon="6.7751">
        <ele>388</ele>
        <time>2015-11-01T08:28:14.000Z</time>
      </trkpt>
      <trkpt lat="47.51915" lon="6.77512">
        <ele>388</ele>
        <time>2015-11-01T08:28:15.000Z</time>
      </trkpt>
      <trkpt lat="47.51919" lon="6.77513">
        <ele>389</ele>
        <time>2015-11-01T08:28:16.000Z</time>
      </trkpt>
      <trkpt lat="47.51923" lon="6.77514">
        <ele>389</ele>
        <time>2015-11-01T08:28:17.000Z</time>
      </trkpt>
      <trkpt lat="47.51927" lon="6.77515">
        <ele>389</ele>
        <time>2015-11-01T08:28:18.000Z</time>
      </trkpt>
      <trkpt lat="47.51931" lon="6.77516">
        <ele>389</ele>
        <time>2015-11-01T08:28:19.000Z</time>
      </trkpt>
      <trkpt lat="47.51935" lon="6.77517">
        <ele>389</ele>
        <time>2015-11-01T08:28:20.000Z</time>
      </trkpt>
      <trkpt lat="47.5194" lon="6.77518">
        <ele>389</ele>
        <time>2015-11-01T08:28:21.000Z</time>
      </trkpt>
      <trkpt lat="47.51944" lon="6.77518">
        <ele>389</ele>
        <time>2015-11-01T08:28:22.000Z</time>
      </trkpt>
      <trkpt lat="47.51948" lon="6.77519">
        <ele>390</ele>
        <time>2015-11-01T08:28:23.000Z</time>
      </trkpt>
      <trkpt lat="47.51953" lon="6.7752">
        <ele>390</ele>
        <time>2015-11-01T08:28:24.000Z</time>
      </trkpt>
      <trkpt lat="47.51957" lon="6.77521">
        <ele>390</ele>
        <time>2015-11-01T08:28:25.000Z</time>
      </trkpt>
      <trkpt lat="47.51961" lon="6.77522">
        <ele>390</ele>
        <time>2015-11-01T08:28:26.000Z</time>
      </trkpt>
      <trkpt lat="47.51965" lon="6.77523">
        <ele>390</ele>
        <time>2015-11-01T08:28:27.000Z</time>
      </trkpt>
      <trkpt lat="47.51969" lon="6.77525">
        <ele>390</ele>
        <time>2015-11-01T08:28:28.000Z</time>
      </trkpt>
      <trkpt lat="47.51973" lon="6.77526">
        <ele>390</ele>
        <time>2015-11-01T08:28:29.000Z</time>
      </trkpt>
      <trkpt lat="47.51976" lon="6.77527">
        <ele>390</ele>
        <time>2015-11-01T08:28:30.000Z</time>
      </trkpt>
      <trkpt lat="47.5198" lon="6.77528">
        <ele>390</ele>
        <time>2015-11-01T08:28:31.000Z</time>
      </trkpt>
      <trkpt lat="47.51983" lon="6.77529">
        <ele>390</ele>
        <time>2015-11-01T08:28:32.000Z</time>
      </trkpt>
      <trkpt lat="47.51987" lon="6.7753">
        <ele>390</ele>
        <time>2015-11-01T08:28:33.000Z</time>
      </trkpt>
      <trkpt lat="47.51991" lon="6.7753">
        <ele>390</ele>
        <time>2015-11-01T08:28:34.000Z</time>
      </trkpt>
      <trkpt lat="47.51995" lon="6.77531">
        <ele>390</ele>
        <time>2015-11-01T08:28:35.000Z</time>
      </trkpt>
      <trkpt lat="47.51999" lon="6.77531">
        <ele>390</ele>
        <time>2015-11-01T08:28:36.000Z</time>
      </trkpt>
      <trkpt lat="47.52003" lon="6.77532">
        <ele>390</ele>
        <time>2015-11-01T08:28:37.000Z</time>
      </trkpt>
      <trkpt lat="47.52008" lon="6.77533">
        <ele>390</ele>
        <time>2015-11-01T08:28:38.000Z</time>
      </trkpt>
      <trkpt lat="47.52012" lon="6.77534">
        <ele>390</ele>
        <time>2015-11-01T08:28:39.000Z</time>
      </trkpt>
      <trkpt lat="47.52016" lon="6.77535">
        <ele>390</ele>
        <time>2015-11-01T08:28:40.000Z</time>
      </trkpt>
      <trkpt lat="47.5202" lon="6.77536">
        <ele>390</ele>
        <time>2015-11-01T08:28:41.000Z</time>
      </trkpt>
      <trkpt lat="47.52023" lon="6.77537">
        <ele>390</ele>
        <time>2015-11-01T08:28:42.000Z</time>
      </trkpt>
      <trkpt lat="47.52027" lon="6.77537">
        <ele>390</ele>
        <time>2015-11-01T08:28:43.000Z</time>
      </trkpt>
      <trkpt lat="47.52031" lon="6.77538">
        <ele>390</ele>
        <time>2015-11-01T08:28:44.000Z</time>
      </trkpt>
      <trkpt lat="47.52034" lon="6.77539">
        <ele>390</ele>
        <time>2015-11-01T08:28:45.000Z</time>
      </trkpt>
      <trkpt lat="47.52038" lon="6.7754">
        <ele>390</ele>
        <time>2015-11-01T08:28:46.000Z</time>
      </trkpt>
      <trkpt lat="47.52041" lon="6.7754">
        <ele>390</ele>
        <time>2015-11-01T08:28:47.000Z</time>
      </trkpt>
      <trkpt lat="47.52045" lon="6.77541">
        <ele>390</ele>
        <time>2015-11-01T08:28:48.000Z</time>
      </trkpt>
      <trkpt lat="47.52049" lon="6.77542">
        <ele>391</ele>
        <time>2015-11-01T08:28:49.000Z</time>
      </trkpt>
      <trkpt lat="47.52053" lon="6.77542">
        <ele>391</ele>
        <time>2015-11-01T08:28:50.000Z</time>
      </trkpt>
      <trkpt lat="47.52057" lon="6.77543">
        <ele>391</ele>
        <time>2015-11-01T08:28:51.000Z</time>
      </trkpt>
      <trkpt lat="47.52061" lon="6.77544">
        <ele>391</ele>
        <time>2015-11-01T08:28:52.000Z</time>
      </trkpt>
      <trkpt lat="47.52065" lon="6.77545">
        <ele>391</ele>
        <time>2015-11-01T08:28:53.000Z</time>
      </trkpt>
      <trkpt lat="47.52069" lon="6.77546">
        <ele>391</ele>
        <time>2015-11-01T08:28:54.000Z</time>
      </trkpt>
      <trkpt lat="47.52073" lon="6.77548">
        <ele>391</ele>
        <time>2015-11-01T08:28:55.000Z</time>
      </trkpt>
      <trkpt lat="47.52078" lon="6.7755">
        <ele>391</ele>
        <time>2015-11-01T08:28:56.000Z</time>
      </trkpt>
      <trkpt lat="47.52083" lon="6.77551">
        <ele>391</ele>
        <time>2015-11-01T08:28:57.000Z</time>
      </trkpt>
      <trkpt lat="47.52087" lon="6.77554">
        <ele>390</ele>
        <time>2015-11-01T08:28:58.000Z</time>
      </trkpt>
      <trkpt lat="47.52091" lon="6.77557">
        <ele>390</ele>
        <time>2015-11-01T08:28:59.000Z</time>
      </trkpt>
      <trkpt lat="47.52093" lon="6.77563">
        <ele>390</ele>
        <time>2015-11-01T08:29:00.000Z</time>
      </trkpt>
      <trkpt lat="47.52095" lon="6.7757">
        <ele>390</ele>
        <time>2015-11-01T08:29:01.000Z</time>
      </trkpt>
      <trkpt lat="47.52096" lon="6.77577">
        <ele>391</ele>
        <time>2015-11-01T08:29:02.000Z</time>
      </trkpt>
      <trkpt lat="47.52096" lon="6.77585">
        <ele>391</ele>
        <time>2015-11-01T08:29:03.000Z</time>
      </trkpt>
      <trkpt lat="47.52096" lon="6.77592">
        <ele>391</ele>
        <time>2015-11-01T08:29:04.000Z</time>
      </trkpt>
      <trkpt lat="47.52095" lon="6.77598">
        <ele>391</ele>
        <time>2015-11-01T08:29:05.000Z</time>
      </trkpt>
      <trkpt lat="47.52095" lon="6.77605">
        <ele>391</ele>
        <time>2015-11-01T08:29:06.000Z</time>
      </trkpt>
      <trkpt lat="47.52096" lon="6.77612">
        <ele>391</ele>
        <time>2015-11-01T08:29:07.000Z</time>
      </trkpt>
      <trkpt lat="47.52096" lon="6.77619">
        <ele>391</ele>
        <time>2015-11-01T08:29:08.000Z</time>
      </trkpt>
      <trkpt lat="47.52096" lon="6.77626">
        <ele>391</ele>
        <time>2015-11-01T08:29:09.000Z</time>
      </trkpt>
      <trkpt lat="47.52096" lon="6.77632">
        <ele>391</ele>
        <time>2015-11-01T08:29:10.000Z</time>
      </trkpt>
      <trkpt lat="47.52096" lon="6.77638">
        <ele>391</ele>
        <time>2015-11-01T08:29:11.000Z</time>
      </trkpt>
      <trkpt lat="47.52096" lon="6.77644">
        <ele>391</ele>
        <time>2015-11-01T08:29:12.000Z</time>
      </trkpt>
      <trkpt lat="47.52096" lon="6.7765">
        <ele>392</ele>
        <time>2015-11-01T08:29:13.000Z</time>
      </trkpt>
      <trkpt lat="47.52096" lon="6.77655">
        <ele>392</ele>
        <time>2015-11-01T08:29:14.000Z</time>
      </trkpt>
      <trkpt lat="47.52096" lon="6.77661">
        <ele>392</ele>
        <time>2015-11-01T08:29:15.000Z</time>
      </trkpt>
      <trkpt lat="47.52095" lon="6.77666">
        <ele>392</ele>
        <time>2015-11-01T08:29:16.000Z</time>
      </trkpt>
      <trkpt lat="47.52096" lon="6.77669">
        <ele>392</ele>
        <time>2015-11-01T08:29:17.000Z</time>
      </trkpt>
      <trkpt lat="47.52097" lon="6.77675">
        <ele>392</ele>
        <time>2015-11-01T08:29:20.000Z</time>
      </trkpt>
      <trkpt lat="47.52098" lon="6.77675">
        <ele>392</ele>
        <time>2015-11-01T08:29:21.000Z</time>
      </trkpt>
      <trkpt lat="47.52101" lon="6.77674">
        <ele>392</ele>
        <time>2015-11-01T08:29:23.000Z</time>
      </trkpt>
      <trkpt lat="47.52103" lon="6.77674">
        <ele>392</ele>
        <time>2015-11-01T08:29:24.000Z</time>
      </trkpt>
      <trkpt lat="47.52107" lon="6.77673">
        <ele>391</ele>
        <time>2015-11-01T08:29:25.000Z</time>
      </trkpt>
      <trkpt lat="47.52115" lon="6.77667">
        <ele>391</ele>
        <time>2015-11-01T08:29:26.000Z</time>
      </trkpt>
      <trkpt lat="47.52119" lon="6.77664">
        <ele>391</ele>
        <time>2015-11-01T08:29:27.000Z</time>
      </trkpt>
      <trkpt lat="47.52125" lon="6.77661">
        <ele>391</ele>
        <time>2015-11-01T08:29:28.000Z</time>
      </trkpt>
      <trkpt lat="47.5213" lon="6.77658">
        <ele>390</ele>
        <time>2015-11-01T08:29:29.000Z</time>
      </trkpt>
      <trkpt lat="47.52136" lon="6.77654">
        <ele>390</ele>
        <time>2015-11-01T08:29:30.000Z</time>
      </trkpt>
      <trkpt lat="47.52141" lon="6.77651">
        <ele>390</ele>
        <time>2015-11-01T08:29:31.000Z</time>
      </trkpt>
      <trkpt lat="47.52147" lon="6.77647">
        <ele>390</ele>
        <time>2015-11-01T08:29:32.000Z</time>
      </trkpt>
      <trkpt lat="47.52152" lon="6.77643">
        <ele>390</ele>
        <time>2015-11-01T08:29:33.000Z</time>
      </trkpt>
      <trkpt lat="47.52157" lon="6.7764">
        <ele>390</ele>
        <time>2015-11-01T08:29:34.000Z</time>
      </trkpt>
      <trkpt lat="47.52163" lon="6.77636">
        <ele>390</ele>
        <time>2015-11-01T08:29:35.000Z</time>
      </trkpt>
      <trkpt lat="47.52168" lon="6.77632">
        <ele>387</ele>
        <time>2015-11-01T08:29:36.000Z</time>
      </trkpt>
      <trkpt lat="47.52174" lon="6.77628">
        <ele>387</ele>
        <time>2015-11-01T08:29:37.000Z</time>
      </trkpt>
      <trkpt lat="47.52179" lon="6.77624">
        <ele>387</ele>
        <time>2015-11-01T08:29:38.000Z</time>
      </trkpt>
      <trkpt lat="47.52184" lon="6.77621">
        <ele>387</ele>
        <time>2015-11-01T08:29:39.000Z</time>
      </trkpt>
      <trkpt lat="47.52189" lon="6.77617">
        <ele>387</ele>
        <time>2015-11-01T08:29:40.000Z</time>
      </trkpt>
      <trkpt lat="47.52194" lon="6.77614">
        <ele>387</ele>
        <time>2015-11-01T08:29:41.000Z</time>
      </trkpt>
      <trkpt lat="47.52198" lon="6.7761">
        <ele>387</ele>
        <time>2015-11-01T08:29:42.000Z</time>
      </trkpt>
      <trkpt lat="47.52203" lon="6.77606">
        <ele>387</ele>
        <time>2015-11-01T08:29:43.000Z</time>
      </trkpt>
      <trkpt lat="47.52208" lon="6.77602">
        <ele>387</ele>
        <time>2015-11-01T08:29:44.000Z</time>
      </trkpt>
      <trkpt lat="47.52213" lon="6.77599">
        <ele>387</ele>
        <time>2015-11-01T08:29:45.000Z</time>
      </trkpt>
      <trkpt lat="47.52218" lon="6.77596">
        <ele>386</ele>
        <time>2015-11-01T08:29:46.000Z</time>
      </trkpt>
      <trkpt lat="47.52223" lon="6.77592">
        <ele>386</ele>
        <time>2015-11-01T08:29:47.000Z</time>
      </trkpt>
      <trkpt lat="47.52228" lon="6.7759">
        <ele>386</ele>
        <time>2015-11-01T08:29:48.000Z</time>
      </trkpt>
      <trkpt lat="47.52233" lon="6.77586">
        <ele>386</ele>
        <time>2015-11-01T08:29:49.000Z</time>
      </trkpt>
      <trkpt lat="47.52238" lon="6.77583">
        <ele>387</ele>
        <time>2015-11-01T08:29:50.000Z</time>
      </trkpt>
      <trkpt lat="47.52243" lon="6.7758">
        <ele>386</ele>
        <time>2015-11-01T08:29:51.000Z</time>
      </trkpt>
      <trkpt lat="47.52247" lon="6.77577">
        <ele>386</ele>
        <time>2015-11-01T08:29:52.000Z</time>
      </trkpt>
      <trkpt lat="47.52252" lon="6.77574">
        <ele>386</ele>
        <time>2015-11-01T08:29:53.000Z</time>
      </trkpt>
      <trkpt lat="47.52256" lon="6.77571">
        <ele>387</ele>
        <time>2015-11-01T08:29:54.000Z</time>
      </trkpt>
      <trkpt lat="47.52261" lon="6.77568">
        <ele>387</ele>
        <time>2015-11-01T08:29:55.000Z</time>
      </trkpt>
      <trkpt lat="47.52265" lon="6.77565">
        <ele>387</ele>
        <time>2015-11-01T08:29:56.000Z</time>
      </trkpt>
      <trkpt lat="47.52269" lon="6.77562">
        <ele>387</ele>
        <time>2015-11-01T08:29:57.000Z</time>
      </trkpt>
      <trkpt lat="47.52273" lon="6.77559">
        <ele>387</ele>
        <time>2015-11-01T08:29:58.000Z</time>
      </trkpt>
      <trkpt lat="47.52278" lon="6.77555">
        <ele>387</ele>
        <time>2015-11-01T08:29:59.000Z</time>
      </trkpt>
      <trkpt lat="47.52282" lon="6.77553">
        <ele>387</ele>
        <time>2015-11-01T08:30:00.000Z</time>
      </trkpt>
      <trkpt lat="47.52287" lon="6.7755">
        <ele>387</ele>
        <time>2015-11-01T08:30:01.000Z</time>
      </trkpt>
      <trkpt lat="47.52291" lon="6.77547">
        <ele>387</ele>
        <time>2015-11-01T08:30:02.000Z</time>
      </trkpt>
      <trkpt lat="47.52295" lon="6.77544">
        <ele>387</ele>
        <time>2015-11-01T08:30:03.000Z</time>
      </trkpt>
      <trkpt lat="47.523" lon="6.77541">
        <ele>387</ele>
        <time>2015-11-01T08:30:04.000Z</time>
      </trkpt>
      <trkpt lat="47.52304" lon="6.7754">
        <ele>387</ele>
        <time>2015-11-01T08:30:05.000Z</time>
      </trkpt>
      <trkpt lat="47.52308" lon="6.77537">
        <ele>387</ele>
        <time>2015-11-01T08:30:06.001Z</time>
      </trkpt>
      <trkpt lat="47.52313" lon="6.77534">
        <ele>387</ele>
        <time>2015-11-01T08:30:07.000Z</time>
      </trkpt>
      <trkpt lat="47.52317" lon="6.7753">
        <ele>388</ele>
        <time>2015-11-01T08:30:08.000Z</time>
      </trkpt>
      <trkpt lat="47.5232" lon="6.77527">
        <ele>388</ele>
        <time>2015-11-01T08:30:09.000Z</time>
      </trkpt>
      <trkpt lat="47.52324" lon="6.77524">
        <ele>388</ele>
        <time>2015-11-01T08:30:10.000Z</time>
      </trkpt>
      <trkpt lat="47.52328" lon="6.77521">
        <ele>388</ele>
        <time>2015-11-01T08:30:11.000Z</time>
      </trkpt>
      <trkpt lat="47.52331" lon="6.77517">
        <ele>388</ele>
        <time>2015-11-01T08:30:12.000Z</time>
      </trkpt>
      <trkpt lat="47.52335" lon="6.77515">
        <ele>389</ele>
        <time>2015-11-01T08:30:13.002Z</time>
      </trkpt>
      <trkpt lat="47.52339" lon="6.77512">
        <ele>389</ele>
        <time>2015-11-01T08:30:14.001Z</time>
      </trkpt>
      <trkpt lat="47.52344" lon="6.77509">
        <ele>389</ele>
        <time>2015-11-01T08:30:15.000Z</time>
      </trkpt>
      <trkpt lat="47.52348" lon="6.77507">
        <ele>389</ele>
        <time>2015-11-01T08:30:16.001Z</time>
      </trkpt>
      <trkpt lat="47.52352" lon="6.77504">
        <ele>389</ele>
        <time>2015-11-01T08:30:17.000Z</time>
      </trkpt>
      <trkpt lat="47.52356" lon="6.77498">
        <ele>390</ele>
        <time>2015-11-01T08:30:18.000Z</time>
      </trkpt>
      <trkpt lat="47.5236" lon="6.77496">
        <ele>390</ele>
        <time>2015-11-01T08:30:19.000Z</time>
      </trkpt>
      <trkpt lat="47.52363" lon="6.77494">
        <ele>391</ele>
        <time>2015-11-01T08:30:20.000Z</time>
      </trkpt>
      <trkpt lat="47.52366" lon="6.77491">
        <ele>391</ele>
        <time>2015-11-01T08:30:21.001Z</time>
      </trkpt>
      <trkpt lat="47.52371" lon="6.77491">
        <ele>391</ele>
        <time>2015-11-01T08:30:22.000Z</time>
      </trkpt>
      <trkpt lat="47.52375" lon="6.77488">
        <ele>391</ele>
        <time>2015-11-01T08:30:23.000Z</time>
      </trkpt>
      <trkpt lat="47.52379" lon="6.77486">
        <ele>391</ele>
        <time>2015-11-01T08:30:24.000Z</time>
      </trkpt>
      <trkpt lat="47.52383" lon="6.77483">
        <ele>391</ele>
        <time>2015-11-01T08:30:25.000Z</time>
      </trkpt>
      <trkpt lat="47.52388" lon="6.77481">
        <ele>391</ele>
        <time>2015-11-01T08:30:26.000Z</time>
      </trkpt>
      <trkpt lat="47.52391" lon="6.77477">
        <ele>391</ele>
        <time>2015-11-01T08:30:27.000Z</time>
      </trkpt>
      <trkpt lat="47.52395" lon="6.77475">
        <ele>391</ele>
        <time>2015-11-01T08:30:28.000Z</time>
      </trkpt>
      <trkpt lat="47.52399" lon="6.77472">
        <ele>391</ele>
        <time>2015-11-01T08:30:29.000Z</time>
      </trkpt>
      <trkpt lat="47.52402" lon="6.7747">
        <ele>391</ele>
        <time>2015-11-01T08:30:30.000Z</time>
      </trkpt>
      <trkpt lat="47.52406" lon="6.77467">
        <ele>391</ele>
        <time>2015-11-01T08:30:31.000Z</time>
      </trkpt>
      <trkpt lat="47.52408" lon="6.77463">
        <ele>391</ele>
        <time>2015-11-01T08:30:32.000Z</time>
      </trkpt>
      <trkpt lat="47.52411" lon="6.7746">
        <ele>391</ele>
        <time>2015-11-01T08:30:33.000Z</time>
      </trkpt>
      <trkpt lat="47.52413" lon="6.77457">
        <ele>392</ele>
        <time>2015-11-01T08:30:34.000Z</time>
      </trkpt>
      <trkpt lat="47.52417" lon="6.77455">
        <ele>393</ele>
        <time>2015-11-01T08:30:36.000Z</time>
      </trkpt>
      <trkpt lat="47.52419" lon="6.77455">
        <ele>393</ele>
        <time>2015-11-01T08:30:37.000Z</time>
      </trkpt>
      <trkpt lat="47.52423" lon="6.77456">
        <ele>393</ele>
        <time>2015-11-01T08:30:56.000Z</time>
      </trkpt>
      <trkpt lat="47.52425" lon="6.77456">
        <ele>393</ele>
        <time>2015-11-01T08:30:57.000Z</time>
      </trkpt>
      <trkpt lat="47.52428" lon="6.77457">
        <ele>393</ele>
        <time>2015-11-01T08:30:58.000Z</time>
      </trkpt>
      <trkpt lat="47.5243" lon="6.77458">
        <ele>393</ele>
        <time>2015-11-01T08:30:59.000Z</time>
      </trkpt>
      <trkpt lat="47.52432" lon="6.77459">
        <ele>393</ele>
        <time>2015-11-01T08:31:00.000Z</time>
      </trkpt>
      <trkpt lat="47.52434" lon="6.77461">
        <ele>393</ele>
        <time>2015-11-01T08:31:01.000Z</time>
      </trkpt>
      <trkpt lat="47.52436" lon="6.77462">
        <ele>393</ele>
        <time>2015-11-01T08:31:02.000Z</time>
      </trkpt>
      <trkpt lat="47.52438" lon="6.77464">
        <ele>393</ele>
        <time>2015-11-01T08:31:03.000Z</time>
      </trkpt>
      <trkpt lat="47.52442" lon="6.77465">
        <ele>393</ele>
        <time>2015-11-01T08:31:05.000Z</time>
      </trkpt>
      <trkpt lat="47.52443" lon="6.77466">
        <ele>393</ele>
        <time>2015-11-01T08:31:06.000Z</time>
      </trkpt>
      <trkpt lat="47.52447" lon="6.77467">
        <ele>393</ele>
        <time>2015-11-01T08:31:08.000Z</time>
      </trkpt>
      <trkpt lat="47.52449" lon="6.77468">
        <ele>393</ele>
        <time>2015-11-01T08:31:09.000Z</time>
      </trkpt>
      <trkpt lat="47.52451" lon="6.77468">
        <ele>393</ele>
        <time>2015-11-01T08:31:10.000Z</time>
      </trkpt>
      <trkpt lat="47.52453" lon="6.77468">
        <ele>393</ele>
        <time>2015-11-01T08:31:11.000Z</time>
      </trkpt>
      <trkpt lat="47.52456" lon="6.77468">
        <ele>393</ele>
        <time>2015-11-01T08:31:12.000Z</time>
      </trkpt>
      <trkpt lat="47.52458" lon="6.77469">
        <ele>393</ele>
        <time>2015-11-01T08:31:13.000Z</time>
      </trkpt>
      <trkpt lat="47.5246" lon="6.77469">
        <ele>393</ele>
        <time>2015-11-01T08:31:14.000Z</time>
      </trkpt>
      <trkpt lat="47.52463" lon="6.7747">
        <ele>393</ele>
        <time>2015-11-01T08:31:15.000Z</time>
      </trkpt>
      <trkpt lat="47.52465" lon="6.7747">
        <ele>393</ele>
        <time>2015-11-01T08:31:16.000Z</time>
      </trkpt>
      <trkpt lat="47.52467" lon="6.77471">
        <ele>393</ele>
        <time>2015-11-01T08:31:17.000Z</time>
      </trkpt>
      <trkpt lat="47.5247" lon="6.7747">
        <ele>393</ele>
        <time>2015-11-01T08:31:18.000Z</time>
      </trkpt>
      <trkpt lat="47.52473" lon="6.7747">
        <ele>393</ele>
        <time>2015-11-01T08:31:19.000Z</time>
      </trkpt>
      <trkpt lat="47.52476" lon="6.77469">
        <ele>393</ele>
        <time>2015-11-01T08:31:20.000Z</time>
      </trkpt>
      <trkpt lat="47.52479" lon="6.77469">
        <ele>393</ele>
        <time>2015-11-01T08:31:21.000Z</time>
      </trkpt>
      <trkpt lat="47.52482" lon="6.7747">
        <ele>393</ele>
        <time>2015-11-01T08:31:22.000Z</time>
      </trkpt>
      <trkpt lat="47.52485" lon="6.7747">
        <ele>393</ele>
        <time>2015-11-01T08:31:23.000Z</time>
      </trkpt>
      <trkpt lat="47.52488" lon="6.77471">
        <ele>393</ele>
        <time>2015-11-01T08:31:24.000Z</time>
      </trkpt>
      <trkpt lat="47.52491" lon="6.77471">
        <ele>393</ele>
        <time>2015-11-01T08:31:25.000Z</time>
      </trkpt>
      <trkpt lat="47.52494" lon="6.77472">
        <ele>393</ele>
        <time>2015-11-01T08:31:26.000Z</time>
      </trkpt>
      <trkpt lat="47.52496" lon="6.77472">
        <ele>393</ele>
        <time>2015-11-01T08:31:27.000Z</time>
      </trkpt>
      <trkpt lat="47.52499" lon="6.77472">
        <ele>393</ele>
        <time>2015-11-01T08:31:28.000Z</time>
      </trkpt>
      <trkpt lat="47.52501" lon="6.77472">
        <ele>394</ele>
        <time>2015-11-01T08:31:29.000Z</time>
      </trkpt>
      <trkpt lat="47.52504" lon="6.77472">
        <ele>394</ele>
        <time>2015-11-01T08:31:30.000Z</time>
      </trkpt>
      <trkpt lat="47.52507" lon="6.77472">
        <ele>394</ele>
        <time>2015-11-01T08:31:31.000Z</time>
      </trkpt>
      <trkpt lat="47.52509" lon="6.77472">
        <ele>394</ele>
        <time>2015-11-01T08:31:32.000Z</time>
      </trkpt>
      <trkpt lat="47.52512" lon="6.77471">
        <ele>394</ele>
        <time>2015-11-01T08:31:33.000Z</time>
      </trkpt>
      <trkpt lat="47.52515" lon="6.7747">
        <ele>394</ele>
        <time>2015-11-01T08:31:34.000Z</time>
      </trkpt>
      <trkpt lat="47.52518" lon="6.77468">
        <ele>394</ele>
        <time>2015-11-01T08:31:35.000Z</time>
      </trkpt>
      <trkpt lat="47.52521" lon="6.77467">
        <ele>394</ele>
        <time>2015-11-01T08:31:36.000Z</time>
      </trkpt>
      <trkpt lat="47.52524" lon="6.77465">
        <ele>394</ele>
        <time>2015-11-01T08:31:37.000Z</time>
      </trkpt>
      <trkpt lat="47.52528" lon="6.77464">
        <ele>394</ele>
        <time>2015-11-01T08:31:38.000Z</time>
      </trkpt>
      <trkpt lat="47.52531" lon="6.77462">
        <ele>394</ele>
        <time>2015-11-01T08:31:39.000Z</time>
      </trkpt>
      <trkpt lat="47.52534" lon="6.77461">
        <ele>394</ele>
        <time>2015-11-01T08:31:40.000Z</time>
      </trkpt>
      <trkpt lat="47.52537" lon="6.77461">
        <ele>394</ele>
        <time>2015-11-01T08:31:41.000Z</time>
      </trkpt>
      <trkpt lat="47.52541" lon="6.77462">
        <ele>394</ele>
        <time>2015-11-01T08:31:42.000Z</time>
      </trkpt>
      <trkpt lat="47.52544" lon="6.77463">
        <ele>394</ele>
        <time>2015-11-01T08:31:43.000Z</time>
      </trkpt>
      <trkpt lat="47.52547" lon="6.77464">
        <ele>394</ele>
        <time>2015-11-01T08:31:44.000Z</time>
      </trkpt>
      <trkpt lat="47.52549" lon="6.77464">
        <ele>394</ele>
        <time>2015-11-01T08:31:45.000Z</time>
      </trkpt>
      <trkpt lat="47.52552" lon="6.77465">
        <ele>394</ele>
        <time>2015-11-01T08:31:46.000Z</time>
      </trkpt>
      <trkpt lat="47.52555" lon="6.77465">
        <ele>394</ele>
        <time>2015-11-01T08:31:47.000Z</time>
      </trkpt>
      <trkpt lat="47.52559" lon="6.77466">
        <ele>394</ele>
        <time>2015-11-01T08:31:49.000Z</time>
      </trkpt>
      <trkpt lat="47.52561" lon="6.77468">
        <ele>394</ele>
        <time>2015-11-01T08:31:50.000Z</time>
      </trkpt>
      <trkpt lat="47.52563" lon="6.7747">
        <ele>394</ele>
        <time>2015-11-01T08:31:51.000Z</time>
      </trkpt>
      <trkpt lat="47.52566" lon="6.77471">
        <ele>394</ele>
        <time>2015-11-01T08:31:52.000Z</time>
      </trkpt>
      <trkpt lat="47.52568" lon="6.77473">
        <ele>394</ele>
        <time>2015-11-01T08:31:53.000Z</time>
      </trkpt>
      <trkpt lat="47.52571" lon="6.77474">
        <ele>395</ele>
        <time>2015-11-01T08:31:54.000Z</time>
      </trkpt>
      <trkpt lat="47.52575" lon="6.77475">
        <ele>395</ele>
        <time>2015-11-01T08:31:55.000Z</time>
      </trkpt>
      <trkpt lat="47.52579" lon="6.77476">
        <ele>395</ele>
        <time>2015-11-01T08:31:56.000Z</time>
      </trkpt>
      <trkpt lat="47.52583" lon="6.77478">
        <ele>395</ele>
        <time>2015-11-01T08:31:57.000Z</time>
      </trkpt>
      <trkpt lat="47.52587" lon="6.77481">
        <ele>397</ele>
        <time>2015-11-01T08:31:58.000Z</time>
      </trkpt>
      <trkpt lat="47.5259" lon="6.77484">
        <ele>397</ele>
        <time>2015-11-01T08:31:59.000Z</time>
      </trkpt>
      <trkpt lat="47.52594" lon="6.77486">
        <ele>397</ele>
        <time>2015-11-01T08:32:00.000Z</time>
      </trkpt>
      <trkpt lat="47.52596" lon="6.77488">
        <ele>397</ele>
        <time>2015-11-01T08:32:01.000Z</time>
      </trkpt>
      <trkpt lat="47.52599" lon="6.77489">
        <ele>397</ele>
        <time>2015-11-01T08:32:02.000Z</time>
      </trkpt>
      <trkpt lat="47.52601" lon="6.77489">
        <ele>397</ele>
        <time>2015-11-01T08:32:03.000Z</time>
      </trkpt>
      <trkpt lat="47.52603" lon="6.77489">
        <ele>397</ele>
        <time>2015-11-01T08:32:04.000Z</time>
      </trkpt>
      <trkpt lat="47.52605" lon="6.77488">
        <ele>397</ele>
        <time>2015-11-01T08:32:05.000Z</time>
      </trkpt>
      <trkpt lat="47.52607" lon="6.77487">
        <ele>397</ele>
        <time>2015-11-01T08:32:06.000Z</time>
      </trkpt>
      <trkpt lat="47.52611" lon="6.77484">
        <ele>397</ele>
        <time>2015-11-01T08:32:08.000Z</time>
      </trkpt>
      <trkpt lat="47.52613" lon="6.77482">
        <ele>397</ele>
        <time>2015-11-01T08:32:09.000Z</time>
      </trkpt>
      <trkpt lat="47.52614" lon="6.77479">
        <ele>397</ele>
        <time>2015-11-01T08:32:10.000Z</time>
      </trkpt>
      <trkpt lat="47.52616" lon="6.77476">
        <ele>397</ele>
        <time>2015-11-01T08:32:11.000Z</time>
      </trkpt>
      <trkpt lat="47.52618" lon="6.77473">
        <ele>397</ele>
        <time>2015-11-01T08:32:12.000Z</time>
      </trkpt>
      <trkpt lat="47.5262" lon="6.7747">
        <ele>397</ele>
        <time>2015-11-01T08:32:13.000Z</time>
      </trkpt>
      <trkpt lat="47.52622" lon="6.77466">
        <ele>397</ele>
        <time>2015-11-01T08:32:14.000Z</time>
      </trkpt>
      <trkpt lat="47.52624" lon="6.77462">
        <ele>397</ele>
        <time>2015-11-01T08:32:15.000Z</time>
      </trkpt>
      <trkpt lat="47.52625" lon="6.77458">
        <ele>397</ele>
        <time>2015-11-01T08:32:16.000Z</time>
      </trkpt>
      <trkpt lat="47.52627" lon="6.77454">
        <ele>397</ele>
        <time>2015-11-01T08:32:17.000Z</time>
      </trkpt>
      <trkpt lat="47.52629" lon="6.77451">
        <ele>397</ele>
        <time>2015-11-01T08:32:18.000Z</time>
      </trkpt>
      <trkpt lat="47.52632" lon="6.77448">
        <ele>397</ele>
        <time>2015-11-01T08:32:19.000Z</time>
      </trkpt>
      <trkpt lat="47.52634" lon="6.77446">
        <ele>397</ele>
        <time>2015-11-01T08:32:20.000Z</time>
      </trkpt>
      <trkpt lat="47.52636" lon="6.77445">
        <ele>397</ele>
        <time>2015-11-01T08:32:21.000Z</time>
      </trkpt>
      <trkpt lat="47.52639" lon="6.77445">
        <ele>397</ele>
        <time>2015-11-01T08:32:22.000Z</time>
      </trkpt>
      <trkpt lat="47.52641" lon="6.77444">
        <ele>397</ele>
        <time>2015-11-01T08:32:23.000Z</time>
      </trkpt>
      <trkpt lat="47.52645" lon="6.77442">
        <ele>397</ele>
        <time>2015-11-01T08:32:25.000Z</time>
      </trkpt>
      <trkpt lat="47.52646" lon="6.77441">
        <ele>398</ele>
        <time>2015-11-01T08:32:26.000Z</time>
      </trkpt>
      <trkpt lat="47.5265" lon="6.77439">
        <ele>398</ele>
        <time>2015-11-01T08:32:29.000Z</time>
      </trkpt>
      <trkpt lat="47.52652" lon="6.77438">
        <ele>398</ele>
        <time>2015-11-01T08:32:30.000Z</time>
      </trkpt>
      <trkpt lat="47.52654" lon="6.77438">
        <ele>398</ele>
        <time>2015-11-01T08:32:31.000Z</time>
      </trkpt>
      <trkpt lat="47.52657" lon="6.77438">
        <ele>398</ele>
        <time>2015-11-01T08:32:32.000Z</time>
      </trkpt>
      <trkpt lat="47.5266" lon="6.77437">
        <ele>398</ele>
        <time>2015-11-01T08:32:33.000Z</time>
      </trkpt>
      <trkpt lat="47.52662" lon="6.77437">
        <ele>398</ele>
        <time>2015-11-01T08:32:34.000Z</time>
      </trkpt>
      <trkpt lat="47.52665" lon="6.77437">
        <ele>398</ele>
        <time>2015-11-01T08:32:35.000Z</time>
      </trkpt>
      <trkpt lat="47.52667" lon="6.77437">
        <ele>399</ele>
        <time>2015-11-01T08:32:36.000Z</time>
      </trkpt>
      <trkpt lat="47.5267" lon="6.77438">
        <ele>400</ele>
        <time>2015-11-01T08:32:37.000Z</time>
      </trkpt>
      <trkpt lat="47.52672" lon="6.7744">
        <ele>400</ele>
        <time>2015-11-01T08:32:38.000Z</time>
      </trkpt>
      <trkpt lat="47.52676" lon="6.77443">
        <ele>400</ele>
        <time>2015-11-01T08:32:40.000Z</time>
      </trkpt>
      <trkpt lat="47.52677" lon="6.77445">
        <ele>400</ele>
        <time>2015-11-01T08:32:41.000Z</time>
      </trkpt>
      <trkpt lat="47.5268" lon="6.77448">
        <ele>400</ele>
        <time>2015-11-01T08:32:43.000Z</time>
      </trkpt>
      <trkpt lat="47.52681" lon="6.7745">
        <ele>400</ele>
        <time>2015-11-01T08:32:44.000Z</time>
      </trkpt>
      <trkpt lat="47.52683" lon="6.77451">
        <ele>400</ele>
        <time>2015-11-01T08:32:45.000Z</time>
      </trkpt>
      <trkpt lat="47.52686" lon="6.77453">
        <ele>400</ele>
        <time>2015-11-01T08:32:46.000Z</time>
      </trkpt>
      <trkpt lat="47.52688" lon="6.77455">
        <ele>400</ele>
        <time>2015-11-01T08:32:47.000Z</time>
      </trkpt>
      <trkpt lat="47.5269" lon="6.77457">
        <ele>400</ele>
        <time>2015-11-01T08:32:48.000Z</time>
      </trkpt>
      <trkpt lat="47.52692" lon="6.77459">
        <ele>400</ele>
        <time>2015-11-01T08:32:49.000Z</time>
      </trkpt>
      <trkpt lat="47.52694" lon="6.7746">
        <ele>400</ele>
        <time>2015-11-01T08:32:50.000Z</time>
      </trkpt>
      <trkpt lat="47.52696" lon="6.77462">
        <ele>400</ele>
        <time>2015-11-01T08:32:51.000Z</time>
      </trkpt>
      <trkpt lat="47.52699" lon="6.77463">
        <ele>400</ele>
        <time>2015-11-01T08:32:52.000Z</time>
      </trkpt>
      <trkpt lat="47.52701" lon="6.77464">
        <ele>400</ele>
        <time>2015-11-01T08:32:53.000Z</time>
      </trkpt>
      <trkpt lat="47.52704" lon="6.77465">
        <ele>400</ele>
        <time>2015-11-01T08:32:54.000Z</time>
      </trkpt>
      <trkpt lat="47.52707" lon="6.77466">
        <ele>400</ele>
        <time>2015-11-01T08:32:55.000Z</time>
      </trkpt>
      <trkpt lat="47.52709" lon="6.77467">
        <ele>400</ele>
        <time>2015-11-01T08:32:56.000Z</time>
      </trkpt>
      <trkpt lat="47.52713" lon="6.7747">
        <ele>400</ele>
        <time>2015-11-01T08:32:58.000Z</time>
      </trkpt>
      <trkpt lat="47.52714" lon="6.77472">
        <ele>400</ele>
        <time>2015-11-01T08:32:59.000Z</time>
      </trkpt>
      <trkpt lat="47.52717" lon="6.77474">
        <ele>400</ele>
        <time>2015-11-01T08:33:00.000Z</time>
      </trkpt>
      <trkpt lat="47.52719" lon="6.77476">
        <ele>400</ele>
        <time>2015-11-01T08:33:01.000Z</time>
      </trkpt>
      <trkpt lat="47.52723" lon="6.77477">
        <ele>400</ele>
        <time>2015-11-01T08:33:02.000Z</time>
      </trkpt>
      <trkpt lat="47.52726" lon="6.77479">
        <ele>400</ele>
        <time>2015-11-01T08:33:03.000Z</time>
      </trkpt>
      <trkpt lat="47.5273" lon="6.7748">
        <ele>400</ele>
        <time>2015-11-01T08:33:04.000Z</time>
      </trkpt>
      <trkpt lat="47.52733" lon="6.7748">
        <ele>400</ele>
        <time>2015-11-01T08:33:05.000Z</time>
      </trkpt>
      <trkpt lat="47.52737" lon="6.77481">
        <ele>400</ele>
        <time>2015-11-01T08:33:06.000Z</time>
      </trkpt>
      <trkpt lat="47.5274" lon="6.77482">
        <ele>400</ele>
        <time>2015-11-01T08:33:07.000Z</time>
      </trkpt>
      <trkpt lat="47.52743" lon="6.77484">
        <ele>400</ele>
        <time>2015-11-01T08:33:08.000Z</time>
      </trkpt>
      <trkpt lat="47.52746" lon="6.77486">
        <ele>400</ele>
        <time>2015-11-01T08:33:09.000Z</time>
      </trkpt>
      <trkpt lat="47.52749" lon="6.77489">
        <ele>400</ele>
        <time>2015-11-01T08:33:10.000Z</time>
      </trkpt>
      <trkpt lat="47.52751" lon="6.77493">
        <ele>400</ele>
        <time>2015-11-01T08:33:11.000Z</time>
      </trkpt>
      <trkpt lat="47.52753" lon="6.77497">
        <ele>400</ele>
        <time>2015-11-01T08:33:12.000Z</time>
      </trkpt>
      <trkpt lat="47.52755" lon="6.77502">
        <ele>400</ele>
        <time>2015-11-01T08:33:13.000Z</time>
      </trkpt>
      <trkpt lat="47.52757" lon="6.77506">
        <ele>400</ele>
        <time>2015-11-01T08:33:14.000Z</time>
      </trkpt>
      <trkpt lat="47.5276" lon="6.77509">
        <ele>400</ele>
        <time>2015-11-01T08:33:15.000Z</time>
      </trkpt>
      <trkpt lat="47.52764" lon="6.77511">
        <ele>400</ele>
        <time>2015-11-01T08:33:16.000Z</time>
      </trkpt>
      <trkpt lat="47.52767" lon="6.77512">
        <ele>400</ele>
        <time>2015-11-01T08:33:17.000Z</time>
      </trkpt>
      <trkpt lat="47.52772" lon="6.77513">
        <ele>400</ele>
        <time>2015-11-01T08:33:18.000Z</time>
      </trkpt>
      <trkpt lat="47.52776" lon="6.77515">
        <ele>400</ele>
        <time>2015-11-01T08:33:19.000Z</time>
      </trkpt>
      <trkpt lat="47.5278" lon="6.77518">
        <ele>400</ele>
        <time>2015-11-01T08:33:20.000Z</time>
      </trkpt>
      <trkpt lat="47.52784" lon="6.77521">
        <ele>400</ele>
        <time>2015-11-01T08:33:21.000Z</time>
      </trkpt>
      <trkpt lat="47.52788" lon="6.77523">
        <ele>400</ele>
        <time>2015-11-01T08:33:22.000Z</time>
      </trkpt>
      <trkpt lat="47.52791" lon="6.77525">
        <ele>400</ele>
        <time>2015-11-01T08:33:23.000Z</time>
      </trkpt>
      <trkpt lat="47.52795" lon="6.77527">
        <ele>400</ele>
        <time>2015-11-01T08:33:24.000Z</time>
      </trkpt>
      <trkpt lat="47.52799" lon="6.77529">
        <ele>400</ele>
        <time>2015-11-01T08:33:25.000Z</time>
      </trkpt>
      <trkpt lat="47.52803" lon="6.77532">
        <ele>400</ele>
        <time>2015-11-01T08:33:26.000Z</time>
      </trkpt>
      <trkpt lat="47.52807" lon="6.77534">
        <ele>400</ele>
        <time>2015-11-01T08:33:27.000Z</time>
      </trkpt>
      <trkpt lat="47.5281" lon="6.77537">
        <ele>400</ele>
        <time>2015-11-01T08:33:28.000Z</time>
      </trkpt>
      <trkpt lat="47.52813" lon="6.7754">
        <ele>400</ele>
        <time>2015-11-01T08:33:29.000Z</time>
      </trkpt>
      <trkpt lat="47.52816" lon="6.77542">
        <ele>400</ele>
        <time>2015-11-01T08:33:30.000Z</time>
      </trkpt>
      <trkpt lat="47.52819" lon="6.77543">
        <ele>400</ele>
        <time>2015-11-01T08:33:31.000Z</time>
      </trkpt>
      <trkpt lat="47.52823" lon="6.77544">
        <ele>400</ele>
        <time>2015-11-01T08:33:32.000Z</time>
      </trkpt>
      <trkpt lat="47.52826" lon="6.77545">
        <ele>400</ele>
        <time>2015-11-01T08:33:33.000Z</time>
      </trkpt>
      <trkpt lat="47.52829" lon="6.77545">
        <ele>400</ele>
        <time>2015-11-01T08:33:34.000Z</time>
      </trkpt>
      <trkpt lat="47.52832" lon="6.77546">
        <ele>400</ele>
        <time>2015-11-01T08:33:35.000Z</time>
      </trkpt>
      <trkpt lat="47.52835" lon="6.77547">
        <ele>401</ele>
        <time>2015-11-01T08:33:36.000Z</time>
      </trkpt>
      <trkpt lat="47.52838" lon="6.77548">
        <ele>401</ele>
        <time>2015-11-01T08:33:37.000Z</time>
      </trkpt>
      <trkpt lat="47.52842" lon="6.77549">
        <ele>401</ele>
        <time>2015-11-01T08:33:38.000Z</time>
      </trkpt>
      <trkpt lat="47.52846" lon="6.7755">
        <ele>401</ele>
        <time>2015-11-01T08:33:39.000Z</time>
      </trkpt>
      <trkpt lat="47.5285" lon="6.7755">
        <ele>401</ele>
        <time>2015-11-01T08:33:40.000Z</time>
      </trkpt>
      <trkpt lat="47.52853" lon="6.7755">
        <ele>401</ele>
        <time>2015-11-01T08:33:41.000Z</time>
      </trkpt>
      <trkpt lat="47.52857" lon="6.7755">
        <ele>401</ele>
        <time>2015-11-01T08:33:42.000Z</time>
      </trkpt>
      <trkpt lat="47.5286" lon="6.77551">
        <ele>401</ele>
        <time>2015-11-01T08:33:43.000Z</time>
      </trkpt>
      <trkpt lat="47.52863" lon="6.77552">
        <ele>401</ele>
        <time>2015-11-01T08:33:44.000Z</time>
      </trkpt>
      <trkpt lat="47.52866" lon="6.77553">
        <ele>401</ele>
        <time>2015-11-01T08:33:45.000Z</time>
      </trkpt>
      <trkpt lat="47.52869" lon="6.77554">
        <ele>401</ele>
        <time>2015-11-01T08:33:46.000Z</time>
      </trkpt>
      <trkpt lat="47.52873" lon="6.77554">
        <ele>401</ele>
        <time>2015-11-01T08:33:47.000Z</time>
      </trkpt>
      <trkpt lat="47.52876" lon="6.77554">
        <ele>402</ele>
        <time>2015-11-01T08:33:48.000Z</time>
      </trkpt>
      <trkpt lat="47.52879" lon="6.77555">
        <ele>402</ele>
        <time>2015-11-01T08:33:49.000Z</time>
      </trkpt>
      <trkpt lat="47.52883" lon="6.77555">
        <ele>402</ele>
        <time>2015-11-01T08:33:50.000Z</time>
      </trkpt>
      <trkpt lat="47.52886" lon="6.77555">
        <ele>402</ele>
        <time>2015-11-01T08:33:51.000Z</time>
      </trkpt>
      <trkpt lat="47.5289" lon="6.77555">
        <ele>402</ele>
        <time>2015-11-01T08:33:52.000Z</time>
      </trkpt>
      <trkpt lat="47.52894" lon="6.77556">
        <ele>402</ele>
        <time>2015-11-01T08:33:53.000Z</time>
      </trkpt>
      <trkpt lat="47.52897" lon="6.77556">
        <ele>402</ele>
        <time>2015-11-01T08:33:54.000Z</time>
      </trkpt>
      <trkpt lat="47.52901" lon="6.77556">
        <ele>402</ele>
        <time>2015-11-01T08:33:55.000Z</time>
      </trkpt>
      <trkpt lat="47.52905" lon="6.77556">
        <ele>402</ele>
        <time>2015-11-01T08:33:56.000Z</time>
      </trkpt>
      <trkpt lat="47.52909" lon="6.77556">
        <ele>402</ele>
        <time>2015-11-01T08:33:57.000Z</time>
      </trkpt>
      <trkpt lat="47.52913" lon="6.77556">
        <ele>402</ele>
        <time>2015-11-01T08:33:58.000Z</time>
      </trkpt>
      <trkpt lat="47.52918" lon="6.77556">
        <ele>403</ele>
        <time>2015-11-01T08:33:59.000Z</time>
      </trkpt>
      <trkpt lat="47.52922" lon="6.77556">
        <ele>403</ele>
        <time>2015-11-01T08:34:00.000Z</time>
      </trkpt>
      <trkpt lat="47.52927" lon="6.77557">
        <ele>403</ele>
        <time>2015-11-01T08:34:01.000Z</time>
      </trkpt>
      <trkpt lat="47.5293" lon="6.77557">
        <ele>403</ele>
        <time>2015-11-01T08:34:02.000Z</time>
      </trkpt>
      <trkpt lat="47.52934" lon="6.77558">
        <ele>403</ele>
        <time>2015-11-01T08:34:03.000Z</time>
      </trkpt>
      <trkpt lat="47.52938" lon="6.77559">
        <ele>403</ele>
        <time>2015-11-01T08:34:04.000Z</time>
      </trkpt>
      <trkpt lat="47.52942" lon="6.77561">
        <ele>403</ele>
        <time>2015-11-01T08:34:05.000Z</time>
      </trkpt>
      <trkpt lat="47.52945" lon="6.77562">
        <ele>403</ele>
        <time>2015-11-01T08:34:06.000Z</time>
      </trkpt>
      <trkpt lat="47.52948" lon="6.77563">
        <ele>403</ele>
        <time>2015-11-01T08:34:07.000Z</time>
      </trkpt>
      <trkpt lat="47.52951" lon="6.77564">
        <ele>403</ele>
        <time>2015-11-01T08:34:08.000Z</time>
      </trkpt>
      <trkpt lat="47.52954" lon="6.77564">
        <ele>403</ele>
        <time>2015-11-01T08:34:09.000Z</time>
      </trkpt>
      <trkpt lat="47.52956" lon="6.77565">
        <ele>403</ele>
        <time>2015-11-01T08:34:10.000Z</time>
      </trkpt>
      <trkpt lat="47.52959" lon="6.77567">
        <ele>403</ele>
        <time>2015-11-01T08:34:11.000Z</time>
      </trkpt>
      <trkpt lat="47.52963" lon="6.77568">
        <ele>403</ele>
        <time>2015-11-01T08:34:12.000Z</time>
      </trkpt>
      <trkpt lat="47.52966" lon="6.77569">
        <ele>404</ele>
        <time>2015-11-01T08:34:13.000Z</time>
      </trkpt>
      <trkpt lat="47.5297" lon="6.7757">
        <ele>404</ele>
        <time>2015-11-01T08:34:14.000Z</time>
      </trkpt>
      <trkpt lat="47.52973" lon="6.7757">
        <ele>404</ele>
        <time>2015-11-01T08:34:15.000Z</time>
      </trkpt>
      <trkpt lat="47.52977" lon="6.7757">
        <ele>404</ele>
        <time>2015-11-01T08:34:16.000Z</time>
      </trkpt>
      <trkpt lat="47.52981" lon="6.77571">
        <ele>404</ele>
        <time>2015-11-01T08:34:17.000Z</time>
      </trkpt>
      <trkpt lat="47.52984" lon="6.77571">
        <ele>404</ele>
        <time>2015-11-01T08:34:18.000Z</time>
      </trkpt>
      <trkpt lat="47.52987" lon="6.77572">
        <ele>404</ele>
        <time>2015-11-01T08:34:19.000Z</time>
      </trkpt>
      <trkpt lat="47.5299" lon="6.77573">
        <ele>404</ele>
        <time>2015-11-01T08:34:20.000Z</time>
      </trkpt>
      <trkpt lat="47.52993" lon="6.77575">
        <ele>404</ele>
        <time>2015-11-01T08:34:21.000Z</time>
      </trkpt>
      <trkpt lat="47.52997" lon="6.77576">
        <ele>404</ele>
        <time>2015-11-01T08:34:22.000Z</time>
      </trkpt>
      <trkpt lat="47.53" lon="6.77577">
        <ele>405</ele>
        <time>2015-11-01T08:34:23.000Z</time>
      </trkpt>
      <trkpt lat="47.53003" lon="6.77577">
        <ele>405</ele>
        <time>2015-11-01T08:34:24.000Z</time>
      </trkpt>
      <trkpt lat="47.53007" lon="6.77578">
        <ele>405</ele>
        <time>2015-11-01T08:34:25.000Z</time>
      </trkpt>
      <trkpt lat="47.5301" lon="6.77579">
        <ele>405</ele>
        <time>2015-11-01T08:34:26.000Z</time>
      </trkpt>
      <trkpt lat="47.53013" lon="6.7758">
        <ele>405</ele>
        <time>2015-11-01T08:34:27.000Z</time>
      </trkpt>
      <trkpt lat="47.53017" lon="6.7758">
        <ele>405</ele>
        <time>2015-11-01T08:34:30.000Z</time>
      </trkpt>
      <trkpt lat="47.53018" lon="6.77581">
        <ele>405</ele>
        <time>2015-11-01T08:34:31.000Z</time>
      </trkpt>
      <trkpt lat="47.53014" lon="6.77583">
        <ele>405</ele>
        <time>2015-11-01T08:34:37.000Z</time>
      </trkpt>
      <trkpt lat="47.53013" lon="6.77583">
        <ele>404</ele>
        <time>2015-11-01T08:34:38.000Z</time>
      </trkpt>
      <trkpt lat="47.53009" lon="6.77584">
        <ele>405</ele>
        <time>2015-11-01T08:34:40.000Z</time>
      </trkpt>
      <trkpt lat="47.53008" lon="6.77584">
        <ele>405</ele>
        <time>2015-11-01T08:34:41.000Z</time>
      </trkpt>
      <trkpt lat="47.53004" lon="6.77584">
        <ele>405</ele>
        <time>2015-11-01T08:34:45.000Z</time>
      </trkpt>
      <trkpt lat="47.53003" lon="6.77584">
        <ele>405</ele>
        <time>2015-11-01T08:34:46.000Z</time>
      </trkpt>
      <trkpt lat="47.53003" lon="6.77578">
        <ele>405</ele>
        <time>2015-11-01T08:34:52.000Z</time>
      </trkpt>
      <trkpt lat="47.53004" lon="6.77577">
        <ele>405</ele>
        <time>2015-11-01T08:34:53.000Z</time>
      </trkpt>
      <trkpt lat="47.53003" lon="6.7757">
        <ele>405</ele>
        <time>2015-11-01T08:34:58.000Z</time>
      </trkpt>
      <trkpt lat="47.53002" lon="6.77569">
        <ele>405</ele>
        <time>2015-11-01T08:34:59.000Z</time>
      </trkpt>
      <trkpt lat="47.53002" lon="6.77565">
        <ele>404</ele>
        <time>2015-11-01T08:35:01.000Z</time>
      </trkpt>
      <trkpt lat="47.53002" lon="6.77561">
        <ele>404</ele>
        <time>2015-11-01T08:35:02.000Z</time>
      </trkpt>
      <trkpt lat="47.53001" lon="6.77557">
        <ele>404</ele>
        <time>2015-11-01T08:35:03.000Z</time>
      </trkpt>
      <trkpt lat="47.53001" lon="6.77551">
        <ele>404</ele>
        <time>2015-11-01T08:35:04.000Z</time>
      </trkpt>
      <trkpt lat="47.53" lon="6.77546">
        <ele>404</ele>
        <time>2015-11-01T08:35:05.000Z</time>
      </trkpt>
      <trkpt lat="47.53" lon="6.77541">
        <ele>404</ele>
        <time>2015-11-01T08:35:06.000Z</time>
      </trkpt>
      <trkpt lat="47.53" lon="6.77536">
        <ele>404</ele>
        <time>2015-11-01T08:35:07.000Z</time>
      </trkpt>
      <trkpt lat="47.53" lon="6.77532">
        <ele>404</ele>
        <time>2015-11-01T08:35:08.000Z</time>
      </trkpt>
      <trkpt lat="47.52999" lon="6.77526">
        <ele>404</ele>
        <time>2015-11-01T08:35:10.000Z</time>
      </trkpt>
      <trkpt lat="47.52999" lon="6.77523">
        <ele>404</ele>
        <time>2015-11-01T08:35:11.000Z</time>
      </trkpt>
      <trkpt lat="47.52999" lon="6.77519">
        <ele>404</ele>
        <time>2015-11-01T08:35:12.000Z</time>
      </trkpt>
      <trkpt lat="47.52999" lon="6.77515">
        <ele>404</ele>
        <time>2015-11-01T08:35:13.000Z</time>
      </trkpt>
      <trkpt lat="47.52999" lon="6.77509">
        <ele>404</ele>
        <time>2015-11-01T08:35:14.000Z</time>
      </trkpt>
      <trkpt lat="47.52999" lon="6.77502">
        <ele>404</ele>
        <time>2015-11-01T08:35:15.000Z</time>
      </trkpt>
      <trkpt lat="47.52998" lon="6.77485">
        <ele>401</ele>
        <time>2015-11-01T08:35:16.000Z</time>
      </trkpt>
      <trkpt lat="47.52998" lon="6.77476">
        <ele>400</ele>
        <time>2015-11-01T08:35:17.000Z</time>
      </trkpt>
      <trkpt lat="47.52997" lon="6.7747">
        <ele>399</ele>
        <time>2015-11-01T08:35:18.000Z</time>
      </trkpt>
      <trkpt lat="47.52998" lon="6.77464">
        <ele>399</ele>
        <time>2015-11-01T08:35:19.000Z</time>
      </trkpt>
      <trkpt lat="47.52998" lon="6.7746">
        <ele>398</ele>
        <time>2015-11-01T08:35:20.000Z</time>
      </trkpt>
      <trkpt lat="47.52999" lon="6.77454">
        <ele>398</ele>
        <time>2015-11-01T08:35:21.000Z</time>
      </trkpt>
      <trkpt lat="47.52999" lon="6.77447">
        <ele>397</ele>
        <time>2015-11-01T08:35:22.000Z</time>
      </trkpt>
      <trkpt lat="47.53001" lon="6.77442">
        <ele>396</ele>
        <time>2015-11-01T08:35:23.000Z</time>
      </trkpt>
      <trkpt lat="47.53001" lon="6.77435">
        <ele>395</ele>
        <time>2015-11-01T08:35:24.000Z</time>
      </trkpt>
      <trkpt lat="47.53" lon="6.77431">
        <ele>395</ele>
        <time>2015-11-01T08:35:25.000Z</time>
      </trkpt>
      <trkpt lat="47.53" lon="6.77428">
        <ele>395</ele>
        <time>2015-11-01T08:35:26.000Z</time>
      </trkpt>
      <trkpt lat="47.52999" lon="6.77421">
        <ele>394</ele>
        <time>2015-11-01T08:35:29.000Z</time>
      </trkpt>
      <trkpt lat="47.52998" lon="6.7742">
        <ele>394</ele>
        <time>2015-11-01T08:35:30.000Z</time>
      </trkpt>
      <trkpt lat="47.52997" lon="6.77416">
        <ele>392</ele>
        <time>2015-11-01T08:35:32.000Z</time>
      </trkpt>
      <trkpt lat="47.52997" lon="6.77413">
        <ele>392</ele>
        <time>2015-11-01T08:35:33.000Z</time>
      </trkpt>
      <trkpt lat="47.52997" lon="6.77409">
        <ele>391</ele>
        <time>2015-11-01T08:35:34.000Z</time>
      </trkpt>
      <trkpt lat="47.52996" lon="6.77404">
        <ele>390</ele>
        <time>2015-11-01T08:35:35.000Z</time>
      </trkpt>
      <trkpt lat="47.52996" lon="6.77398">
        <ele>389</ele>
        <time>2015-11-01T08:35:36.000Z</time>
      </trkpt>
      <trkpt lat="47.52996" lon="6.77391">
        <ele>388</ele>
        <time>2015-11-01T08:35:37.000Z</time>
      </trkpt>
      <trkpt lat="47.52994" lon="6.77371">
        <ele>386</ele>
        <time>2015-11-01T08:35:38.000Z</time>
      </trkpt>
      <trkpt lat="47.52994" lon="6.77361">
        <ele>384</ele>
        <time>2015-11-01T08:35:39.000Z</time>
      </trkpt>
      <trkpt lat="47.52995" lon="6.77351">
        <ele>383</ele>
        <time>2015-11-01T08:35:40.000Z</time>
      </trkpt>
      <trkpt lat="47.52994" lon="6.77339">
        <ele>381</ele>
        <time>2015-11-01T08:35:41.000Z</time>
      </trkpt>
      <trkpt lat="47.52993" lon="6.77328">
        <ele>378</ele>
        <time>2015-11-01T08:35:42.000Z</time>
      </trkpt>
      <trkpt lat="47.52991" lon="6.77319">
        <ele>377</ele>
        <time>2015-11-01T08:35:43.000Z</time>
      </trkpt>
      <trkpt lat="47.52991" lon="6.77309">
        <ele>377</ele>
        <time>2015-11-01T08:35:44.000Z</time>
      </trkpt>
      <trkpt lat="47.52992" lon="6.77301">
        <ele>376</ele>
        <time>2015-11-01T08:35:45.000Z</time>
      </trkpt>
      <trkpt lat="47.52993" lon="6.77295">
        <ele>376</ele>
        <time>2015-11-01T08:35:46.000Z</time>
      </trkpt>
      <trkpt lat="47.52992" lon="6.77292">
        <ele>376</ele>
        <time>2015-11-01T08:35:47.000Z</time>
      </trkpt>
      <trkpt lat="47.52994" lon="6.7729">
        <ele>376</ele>
        <time>2015-11-01T08:35:48.000Z</time>
      </trkpt>
      <trkpt lat="47.52996" lon="6.77287">
        <ele>375</ele>
        <time>2015-11-01T08:35:49.000Z</time>
      </trkpt>
      <trkpt lat="47.52998" lon="6.77285">
        <ele>375</ele>
        <time>2015-11-01T08:35:50.000Z</time>
      </trkpt>
      <trkpt lat="47.53002" lon="6.77282">
        <ele>373</ele>
        <time>2015-11-01T08:35:51.000Z</time>
      </trkpt>
      <trkpt lat="47.53005" lon="6.77276">
        <ele>373</ele>
        <time>2015-11-01T08:35:52.000Z</time>
      </trkpt>
      <trkpt lat="47.53007" lon="6.77269">
        <ele>373</ele>
        <time>2015-11-01T08:35:53.000Z</time>
      </trkpt>
      <trkpt lat="47.53009" lon="6.77266">
        <ele>372</ele>
        <time>2015-11-01T08:35:54.000Z</time>
      </trkpt>
      <trkpt lat="47.53011" lon="6.77264">
        <ele>372</ele>
        <time>2015-11-01T08:35:55.000Z</time>
      </trkpt>
      <trkpt lat="47.53014" lon="6.77263">
        <ele>372</ele>
        <time>2015-11-01T08:35:56.000Z</time>
      </trkpt>
      <trkpt lat="47.53018" lon="6.77263">
        <ele>372</ele>
        <time>2015-11-01T08:35:57.000Z</time>
      </trkpt>
      <trkpt lat="47.53021" lon="6.77262">
        <ele>372</ele>
        <time>2015-11-01T08:35:58.000Z</time>
      </trkpt>
      <trkpt lat="47.53024" lon="6.77262">
        <ele>372</ele>
        <time>2015-11-01T08:35:59.000Z</time>
      </trkpt>
      <trkpt lat="47.53026" lon="6.77261">
        <ele>372</ele>
        <time>2015-11-01T08:36:00.000Z</time>
      </trkpt>
      <trkpt lat="47.53029" lon="6.77259">
        <ele>372</ele>
        <time>2015-11-01T08:36:01.000Z</time>
      </trkpt>
      <trkpt lat="47.53032" lon="6.77258">
        <ele>372</ele>
        <time>2015-11-01T08:36:02.000Z</time>
      </trkpt>
      <trkpt lat="47.53035" lon="6.77256">
        <ele>372</ele>
        <time>2015-11-01T08:36:03.000Z</time>
      </trkpt>
      <trkpt lat="47.53039" lon="6.77255">
        <ele>372</ele>
        <time>2015-11-01T08:36:04.000Z</time>
      </trkpt>
      <trkpt lat="47.53042" lon="6.77254">
        <ele>372</ele>
        <time>2015-11-01T08:36:05.000Z</time>
      </trkpt>
      <trkpt lat="47.53045" lon="6.77253">
        <ele>372</ele>
        <time>2015-11-01T08:36:06.000Z</time>
      </trkpt>
      <trkpt lat="47.53048" lon="6.77252">
        <ele>372</ele>
        <time>2015-11-01T08:36:07.000Z</time>
      </trkpt>
      <trkpt lat="47.5305" lon="6.77252">
        <ele>372</ele>
        <time>2015-11-01T08:36:08.000Z</time>
      </trkpt>
      <trkpt lat="47.53053" lon="6.77251">
        <ele>372</ele>
        <time>2015-11-01T08:36:09.000Z</time>
      </trkpt>
      <trkpt lat="47.53057" lon="6.77251">
        <ele>372</ele>
        <time>2015-11-01T08:36:10.000Z</time>
      </trkpt>
      <trkpt lat="47.53061" lon="6.77251">
        <ele>371</ele>
        <time>2015-11-01T08:36:11.000Z</time>
      </trkpt>
      <trkpt lat="47.53065" lon="6.77251">
        <ele>371</ele>
        <time>2015-11-01T08:36:12.000Z</time>
      </trkpt>
      <trkpt lat="47.53069" lon="6.77251">
        <ele>371</ele>
        <time>2015-11-01T08:36:13.000Z</time>
      </trkpt>
      <trkpt lat="47.53073" lon="6.77249">
        <ele>370</ele>
        <time>2015-11-01T08:36:14.000Z</time>
      </trkpt>
      <trkpt lat="47.53077" lon="6.77247">
        <ele>370</ele>
        <time>2015-11-01T08:36:15.000Z</time>
      </trkpt>
      <trkpt lat="47.53081" lon="6.77244">
        <ele>370</ele>
        <time>2015-11-01T08:36:16.000Z</time>
      </trkpt>
      <trkpt lat="47.53085" lon="6.77242">
        <ele>369</ele>
        <time>2015-11-01T08:36:17.000Z</time>
      </trkpt>
      <trkpt lat="47.53089" lon="6.77242">
        <ele>370</ele>
        <time>2015-11-01T08:36:18.000Z</time>
      </trkpt>
      <trkpt lat="47.53093" lon="6.77242">
        <ele>370</ele>
        <time>2015-11-01T08:36:19.000Z</time>
      </trkpt>
      <trkpt lat="47.53097" lon="6.77243">
        <ele>370</ele>
        <time>2015-11-01T08:36:20.000Z</time>
      </trkpt>
      <trkpt lat="47.53101" lon="6.77243">
        <ele>370</ele>
        <time>2015-11-01T08:36:21.000Z</time>
      </trkpt>
      <trkpt lat="47.53103" lon="6.77242">
        <ele>370</ele>
        <time>2015-11-01T08:36:22.000Z</time>
      </trkpt>
      <trkpt lat="47.53106" lon="6.77242">
        <ele>370</ele>
        <time>2015-11-01T08:36:23.000Z</time>
      </trkpt>
      <trkpt lat="47.5311" lon="6.7724">
        <ele>370</ele>
        <time>2015-11-01T08:36:25.000Z</time>
      </trkpt>
      <trkpt lat="47.53112" lon="6.7724">
        <ele>370</ele>
        <time>2015-11-01T08:36:26.000Z</time>
      </trkpt>
      <trkpt lat="47.53115" lon="6.77237">
        <ele>370</ele>
        <time>2015-11-01T08:36:28.000Z</time>
      </trkpt>
      <trkpt lat="47.53117" lon="6.77236">
        <ele>370</ele>
        <time>2015-11-01T08:36:29.000Z</time>
      </trkpt>
      <trkpt lat="47.53121" lon="6.77234">
        <ele>370</ele>
        <time>2015-11-01T08:36:31.000Z</time>
      </trkpt>
      <trkpt lat="47.53123" lon="6.77233">
        <ele>370</ele>
        <time>2015-11-01T08:36:32.000Z</time>
      </trkpt>
      <trkpt lat="47.53127" lon="6.77233">
        <ele>370</ele>
        <time>2015-11-01T08:36:34.000Z</time>
      </trkpt>
      <trkpt lat="47.5313" lon="6.77234">
        <ele>370</ele>
        <time>2015-11-01T08:36:35.000Z</time>
      </trkpt>
      <trkpt lat="47.53132" lon="6.77234">
        <ele>370</ele>
        <time>2015-11-01T08:36:36.000Z</time>
      </trkpt>
      <trkpt lat="47.53135" lon="6.77234">
        <ele>370</ele>
        <time>2015-11-01T08:36:37.000Z</time>
      </trkpt>
      <trkpt lat="47.53137" lon="6.77234">
        <ele>370</ele>
        <time>2015-11-01T08:36:38.000Z</time>
      </trkpt>
      <trkpt lat="47.5314" lon="6.77235">
        <ele>370</ele>
        <time>2015-11-01T08:36:39.000Z</time>
      </trkpt>
      <trkpt lat="47.53143" lon="6.77237">
        <ele>370</ele>
        <time>2015-11-01T08:36:40.000Z</time>
      </trkpt>
      <trkpt lat="47.53146" lon="6.77238">
        <ele>370</ele>
        <time>2015-11-01T08:36:41.000Z</time>
      </trkpt>
      <trkpt lat="47.5315" lon="6.77238">
        <ele>370</ele>
        <time>2015-11-01T08:36:42.000Z</time>
      </trkpt>
      <trkpt lat="47.53154" lon="6.77239">
        <ele>370</ele>
        <time>2015-11-01T08:36:43.000Z</time>
      </trkpt>
      <trkpt lat="47.53158" lon="6.77239">
        <ele>370</ele>
        <time>2015-11-01T08:36:44.000Z</time>
      </trkpt>
      <trkpt lat="47.53162" lon="6.77239">
        <ele>370</ele>
        <time>2015-11-01T08:36:45.000Z</time>
      </trkpt>
      <trkpt lat="47.53166" lon="6.7724">
        <ele>370</ele>
        <time>2015-11-01T08:36:46.000Z</time>
      </trkpt>
      <trkpt lat="47.5317" lon="6.77239">
        <ele>370</ele>
        <time>2015-11-01T08:36:47.000Z</time>
      </trkpt>
      <trkpt lat="47.53174" lon="6.77237">
        <ele>370</ele>
        <time>2015-11-01T08:36:48.000Z</time>
      </trkpt>
      <trkpt lat="47.53179" lon="6.77235">
        <ele>370</ele>
        <time>2015-11-01T08:36:49.000Z</time>
      </trkpt>
      <trkpt lat="47.53183" lon="6.77234">
        <ele>370</ele>
        <time>2015-11-01T08:36:50.000Z</time>
      </trkpt>
      <trkpt lat="47.53187" lon="6.77233">
        <ele>370</ele>
        <time>2015-11-01T08:36:51.000Z</time>
      </trkpt>
      <trkpt lat="47.53192" lon="6.77233">
        <ele>370</ele>
        <time>2015-11-01T08:36:52.000Z</time>
      </trkpt>
      <trkpt lat="47.53196" lon="6.77232">
        <ele>370</ele>
        <time>2015-11-01T08:36:53.000Z</time>
      </trkpt>
      <trkpt lat="47.532" lon="6.77232">
        <ele>370</ele>
        <time>2015-11-01T08:36:54.000Z</time>
      </trkpt>
      <trkpt lat="47.53203" lon="6.77232">
        <ele>370</ele>
        <time>2015-11-01T08:36:55.000Z</time>
      </trkpt>
      <trkpt lat="47.53206" lon="6.77233">
        <ele>370</ele>
        <time>2015-11-01T08:36:56.000Z</time>
      </trkpt>
      <trkpt lat="47.53209" lon="6.77234">
        <ele>370</ele>
        <time>2015-11-01T08:36:57.000Z</time>
      </trkpt>
      <trkpt lat="47.53212" lon="6.77236">
        <ele>370</ele>
        <time>2015-11-01T08:36:58.000Z</time>
      </trkpt>
      <trkpt lat="47.53216" lon="6.77238">
        <ele>370</ele>
        <time>2015-11-01T08:36:59.000Z</time>
      </trkpt>
      <trkpt lat="47.53219" lon="6.77239">
        <ele>370</ele>
        <time>2015-11-01T08:37:00.000Z</time>
      </trkpt>
      <trkpt lat="47.53222" lon="6.77238">
        <ele>370</ele>
        <time>2015-11-01T08:37:01.000Z</time>
      </trkpt>
      <trkpt lat="47.53224" lon="6.77235">
        <ele>370</ele>
        <time>2015-11-01T08:37:02.000Z</time>
      </trkpt>
      <trkpt lat="47.53225" lon="6.77231">
        <ele>370</ele>
        <time>2015-11-01T08:37:03.000Z</time>
      </trkpt>
      <trkpt lat="47.53232" lon="6.77221">
        <ele>370</ele>
        <time>2015-11-01T08:37:04.000Z</time>
      </trkpt>
      <trkpt lat="47.53237" lon="6.77219">
        <ele>370</ele>
        <time>2015-11-01T08:37:05.000Z</time>
      </trkpt>
      <trkpt lat="47.53243" lon="6.77217">
        <ele>370</ele>
        <time>2015-11-01T08:37:06.000Z</time>
      </trkpt>
      <trkpt lat="47.53248" lon="6.77215">
        <ele>370</ele>
        <time>2015-11-01T08:37:07.000Z</time>
      </trkpt>
      <trkpt lat="47.53252" lon="6.77215">
        <ele>368</ele>
        <time>2015-11-01T08:37:08.000Z</time>
      </trkpt>
      <trkpt lat="47.53256" lon="6.77214">
        <ele>368</ele>
        <time>2015-11-01T08:37:09.000Z</time>
      </trkpt>
      <trkpt lat="47.53261" lon="6.77214">
        <ele>368</ele>
        <time>2015-11-01T08:37:10.000Z</time>
      </trkpt>
      <trkpt lat="47.53265" lon="6.77212">
        <ele>368</ele>
        <time>2015-11-01T08:37:11.000Z</time>
      </trkpt>
      <trkpt lat="47.5327" lon="6.77211">
        <ele>367</ele>
        <time>2015-11-01T08:37:12.000Z</time>
      </trkpt>
      <trkpt lat="47.53276" lon="6.7721">
        <ele>367</ele>
        <time>2015-11-01T08:37:13.000Z</time>
      </trkpt>
      <trkpt lat="47.5328" lon="6.77209">
        <ele>367</ele>
        <time>2015-11-01T08:37:14.000Z</time>
      </trkpt>
      <trkpt lat="47.53286" lon="6.77211">
        <ele>367</ele>
        <time>2015-11-01T08:37:15.000Z</time>
      </trkpt>
      <trkpt lat="47.5329" lon="6.77211">
        <ele>367</ele>
        <time>2015-11-01T08:37:16.000Z</time>
      </trkpt>
      <trkpt lat="47.53295" lon="6.7721">
        <ele>367</ele>
        <time>2015-11-01T08:37:17.000Z</time>
      </trkpt>
      <trkpt lat="47.53301" lon="6.77212">
        <ele>367</ele>
        <time>2015-11-01T08:37:18.000Z</time>
      </trkpt>
      <trkpt lat="47.53306" lon="6.77211">
        <ele>367</ele>
        <time>2015-11-01T08:37:19.000Z</time>
      </trkpt>
      <trkpt lat="47.5331" lon="6.7721">
        <ele>367</ele>
        <time>2015-11-01T08:37:20.000Z</time>
      </trkpt>
      <trkpt lat="47.53315" lon="6.77209">
        <ele>366</ele>
        <time>2015-11-01T08:37:21.000Z</time>
      </trkpt>
      <trkpt lat="47.5332" lon="6.7721">
        <ele>366</ele>
        <time>2015-11-01T08:37:22.000Z</time>
      </trkpt>
      <trkpt lat="47.53325" lon="6.77209">
        <ele>366</ele>
        <time>2015-11-01T08:37:23.000Z</time>
      </trkpt>
      <trkpt lat="47.53331" lon="6.77208">
        <ele>366</ele>
        <time>2015-11-01T08:37:24.000Z</time>
      </trkpt>
      <trkpt lat="47.53336" lon="6.77207">
        <ele>365</ele>
        <time>2015-11-01T08:37:25.000Z</time>
      </trkpt>
      <trkpt lat="47.53341" lon="6.77207">
        <ele>365</ele>
        <time>2015-11-01T08:37:26.000Z</time>
      </trkpt>
      <trkpt lat="47.53346" lon="6.77207">
        <ele>365</ele>
        <time>2015-11-01T08:37:27.000Z</time>
      </trkpt>
      <trkpt lat="47.5335" lon="6.77206">
        <ele>365</ele>
        <time>2015-11-01T08:37:28.000Z</time>
      </trkpt>
      <trkpt lat="47.53355" lon="6.77205">
        <ele>365</ele>
        <time>2015-11-01T08:37:29.000Z</time>
      </trkpt>
      <trkpt lat="47.53358" lon="6.77205">
        <ele>365</ele>
        <time>2015-11-01T08:37:30.000Z</time>
      </trkpt>
      <trkpt lat="47.53363" lon="6.77204">
        <ele>365</ele>
        <time>2015-11-01T08:37:31.000Z</time>
      </trkpt>
      <trkpt lat="47.53366" lon="6.77204">
        <ele>365</ele>
        <time>2015-11-01T08:37:32.000Z</time>
      </trkpt>
      <trkpt lat="47.53369" lon="6.77203">
        <ele>365</ele>
        <time>2015-11-01T08:37:33.000Z</time>
      </trkpt>
      <trkpt lat="47.53373" lon="6.77203">
        <ele>365</ele>
        <time>2015-11-01T08:37:34.000Z</time>
      </trkpt>
      <trkpt lat="47.53377" lon="6.77207">
        <ele>365</ele>
        <time>2015-11-01T08:37:35.000Z</time>
      </trkpt>
      <trkpt lat="47.5338" lon="6.77207">
        <ele>365</ele>
        <time>2015-11-01T08:37:36.000Z</time>
      </trkpt>
      <trkpt lat="47.53383" lon="6.77208">
        <ele>365</ele>
        <time>2015-11-01T08:37:37.000Z</time>
      </trkpt>
      <trkpt lat="47.53385" lon="6.7721">
        <ele>365</ele>
        <time>2015-11-01T08:37:38.000Z</time>
      </trkpt>
      <trkpt lat="47.53388" lon="6.77211">
        <ele>365</ele>
        <time>2015-11-01T08:37:39.000Z</time>
      </trkpt>
      <trkpt lat="47.53391" lon="6.77211">
        <ele>365</ele>
        <time>2015-11-01T08:37:40.000Z</time>
      </trkpt>
      <trkpt lat="47.53393" lon="6.77212">
        <ele>365</ele>
        <time>2015-11-01T08:37:41.000Z</time>
      </trkpt>
      <trkpt lat="47.53397" lon="6.77212">
        <ele>365</ele>
        <time>2015-11-01T08:37:43.000Z</time>
      </trkpt>
      <trkpt lat="47.53399" lon="6.77213">
        <ele>365</ele>
        <time>2015-11-01T08:37:44.000Z</time>
      </trkpt>
      <trkpt lat="47.53402" lon="6.77215">
        <ele>365</ele>
        <time>2015-11-01T08:37:46.000Z</time>
      </trkpt>
      <trkpt lat="47.53404" lon="6.77216">
        <ele>365</ele>
        <time>2015-11-01T08:37:47.000Z</time>
      </trkpt>
      <trkpt lat="47.53407" lon="6.77218">
        <ele>365</ele>
        <time>2015-11-01T08:37:49.000Z</time>
      </trkpt>
      <trkpt lat="47.53409" lon="6.7722">
        <ele>365</ele>
        <time>2015-11-01T08:37:50.000Z</time>
      </trkpt>
      <trkpt lat="47.53413" lon="6.77221">
        <ele>365</ele>
        <time>2015-11-01T08:37:52.000Z</time>
      </trkpt>
      <trkpt lat="47.53414" lon="6.77222">
        <ele>365</ele>
        <time>2015-11-01T08:37:53.000Z</time>
      </trkpt>
      <trkpt lat="47.53418" lon="6.77223">
        <ele>367</ele>
        <time>2015-11-01T08:37:55.000Z</time>
      </trkpt>
      <trkpt lat="47.5342" lon="6.77224">
        <ele>367</ele>
        <time>2015-11-01T08:37:56.000Z</time>
      </trkpt>
      <trkpt lat="47.53423" lon="6.77226">
        <ele>367</ele>
        <time>2015-11-01T08:37:58.000Z</time>
      </trkpt>
      <trkpt lat="47.53425" lon="6.77226">
        <ele>367</ele>
        <time>2015-11-01T08:37:59.000Z</time>
      </trkpt>
      <trkpt lat="47.53428" lon="6.77228">
        <ele>367</ele>
        <time>2015-11-01T08:38:01.000Z</time>
      </trkpt>
      <trkpt lat="47.53429" lon="6.77228">
        <ele>367</ele>
        <time>2015-11-01T08:38:02.000Z</time>
      </trkpt>
      <trkpt lat="47.53433" lon="6.77228">
        <ele>367</ele>
        <time>2015-11-01T08:38:05.000Z</time>
      </trkpt>
      <trkpt lat="47.53435" lon="6.77228">
        <ele>367</ele>
        <time>2015-11-01T08:38:06.000Z</time>
      </trkpt>
      <trkpt lat="47.53438" lon="6.77228">
        <ele>368</ele>
        <time>2015-11-01T08:38:08.000Z</time>
      </trkpt>
      <trkpt lat="47.5344" lon="6.77228">
        <ele>368</ele>
        <time>2015-11-01T08:38:09.000Z</time>
      </trkpt>
      <trkpt lat="47.53444" lon="6.77229">
        <ele>368</ele>
        <time>2015-11-01T08:38:12.000Z</time>
      </trkpt>
      <trkpt lat="47.53445" lon="6.7723">
        <ele>368</ele>
        <time>2015-11-01T08:38:13.000Z</time>
      </trkpt>
      <trkpt lat="47.53449" lon="6.77231">
        <ele>368</ele>
        <time>2015-11-01T08:38:16.000Z</time>
      </trkpt>
      <trkpt lat="47.5345" lon="6.77232">
        <ele>368</ele>
        <time>2015-11-01T08:38:17.000Z</time>
      </trkpt>
      <trkpt lat="47.53453" lon="6.77234">
        <ele>368</ele>
        <time>2015-11-01T08:38:19.000Z</time>
      </trkpt>
      <trkpt lat="47.53454" lon="6.77235">
        <ele>368</ele>
        <time>2015-11-01T08:38:20.000Z</time>
      </trkpt>
      <trkpt lat="47.53457" lon="6.77238">
        <ele>368</ele>
        <time>2015-11-01T08:38:22.000Z</time>
      </trkpt>
      <trkpt lat="47.53458" lon="6.77239">
        <ele>368</ele>
        <time>2015-11-01T08:38:23.000Z</time>
      </trkpt>
      <trkpt lat="47.53462" lon="6.77241">
        <ele>369</ele>
        <time>2015-11-01T08:38:26.000Z</time>
      </trkpt>
      <trkpt lat="47.53463" lon="6.77243">
        <ele>369</ele>
        <time>2015-11-01T08:38:27.000Z</time>
      </trkpt>
      <trkpt lat="47.53466" lon="6.77245">
        <ele>369</ele>
        <time>2015-11-01T08:38:30.000Z</time>
      </trkpt>
      <trkpt lat="47.53467" lon="6.77246">
        <ele>369</ele>
        <time>2015-11-01T08:38:31.000Z</time>
      </trkpt>
      <trkpt lat="47.5347" lon="6.77247">
        <ele>369</ele>
        <time>2015-11-01T08:38:33.000Z</time>
      </trkpt>
      <trkpt lat="47.53472" lon="6.77248">
        <ele>369</ele>
        <time>2015-11-01T08:38:34.000Z</time>
      </trkpt>
      <trkpt lat="47.53475" lon="6.77248">
        <ele>370</ele>
        <time>2015-11-01T08:38:37.000Z</time>
      </trkpt>
      <trkpt lat="47.53476" lon="6.77249">
        <ele>370</ele>
        <time>2015-11-01T08:38:38.000Z</time>
      </trkpt>
      <trkpt lat="47.5348" lon="6.7725">
        <ele>370</ele>
        <time>2015-11-01T08:38:41.000Z</time>
      </trkpt>
      <trkpt lat="47.53481" lon="6.77251">
        <ele>370</ele>
        <time>2015-11-01T08:38:42.000Z</time>
      </trkpt>
      <trkpt lat="47.53485" lon="6.77253">
        <ele>370</ele>
        <time>2015-11-01T08:38:44.000Z</time>
      </trkpt>
      <trkpt lat="47.53486" lon="6.77254">
        <ele>370</ele>
        <time>2015-11-01T08:38:45.000Z</time>
      </trkpt>
      <trkpt lat="47.5349" lon="6.77256">
        <ele>371</ele>
        <time>2015-11-01T08:38:48.000Z</time>
      </trkpt>
      <trkpt lat="47.53491" lon="6.77256">
        <ele>371</ele>
        <time>2015-11-01T08:38:49.000Z</time>
      </trkpt>
      <trkpt lat="47.53496" lon="6.77253">
        <ele>371</ele>
        <time>2015-11-01T08:38:52.000Z</time>
      </trkpt>
      <trkpt lat="47.53497" lon="6.77252">
        <ele>371</ele>
        <time>2015-11-01T08:38:53.000Z</time>
      </trkpt>
      <trkpt lat="47.535" lon="6.77252">
        <ele>372</ele>
        <time>2015-11-01T08:38:56.000Z</time>
      </trkpt>
      <trkpt lat="47.53501" lon="6.77252">
        <ele>372</ele>
        <time>2015-11-01T08:38:57.000Z</time>
      </trkpt>
      <trkpt lat="47.53505" lon="6.77252">
        <ele>373</ele>
        <time>2015-11-01T08:39:00.000Z</time>
      </trkpt>
      <trkpt lat="47.53506" lon="6.77253">
        <ele>373</ele>
        <time>2015-11-01T08:39:01.000Z</time>
      </trkpt>
      <trkpt lat="47.5351" lon="6.77252">
        <ele>374</ele>
        <time>2015-11-01T08:39:04.000Z</time>
      </trkpt>
      <trkpt lat="47.53511" lon="6.77251">
        <ele>374</ele>
        <time>2015-11-01T08:39:05.000Z</time>
      </trkpt>
      <trkpt lat="47.53515" lon="6.77253">
        <ele>374</ele>
        <time>2015-11-01T08:39:08.000Z</time>
      </trkpt>
      <trkpt lat="47.53516" lon="6.77254">
        <ele>375</ele>
        <time>2015-11-01T08:39:09.000Z</time>
      </trkpt>
      <trkpt lat="47.53521" lon="6.77255">
        <ele>375</ele>
        <time>2015-11-01T08:39:12.000Z</time>
      </trkpt>
      <trkpt lat="47.53522" lon="6.77254">
        <ele>375</ele>
        <time>2015-11-01T08:39:13.000Z</time>
      </trkpt>
      <trkpt lat="47.53525" lon="6.77254">
        <ele>376</ele>
        <time>2015-11-01T08:39:15.000Z</time>
      </trkpt>
      <trkpt lat="47.53526" lon="6.77254">
        <ele>376</ele>
        <time>2015-11-01T08:39:16.000Z</time>
      </trkpt>
      <trkpt lat="47.5353" lon="6.77254">
        <ele>376</ele>
        <time>2015-11-01T08:39:19.000Z</time>
      </trkpt>
      <trkpt lat="47.53532" lon="6.77254">
        <ele>377</ele>
        <time>2015-11-01T08:39:20.000Z</time>
      </trkpt>
      <trkpt lat="47.53534" lon="6.77255">
        <ele>377</ele>
        <time>2015-11-01T08:39:22.000Z</time>
      </trkpt>
      <trkpt lat="47.53536" lon="6.77256">
        <ele>377</ele>
        <time>2015-11-01T08:39:23.000Z</time>
      </trkpt>
      <trkpt lat="47.5354" lon="6.77258">
        <ele>377</ele>
        <time>2015-11-01T08:39:25.000Z</time>
      </trkpt>
      <trkpt lat="47.53542" lon="6.77259">
        <ele>378</ele>
        <time>2015-11-01T08:39:26.000Z</time>
      </trkpt>
      <trkpt lat="47.53545" lon="6.7726">
        <ele>378</ele>
        <time>2015-11-01T08:39:28.000Z</time>
      </trkpt>
      <trkpt lat="47.53546" lon="6.77261">
        <ele>378</ele>
        <time>2015-11-01T08:39:29.000Z</time>
      </trkpt>
      <trkpt lat="47.5355" lon="6.77262">
        <ele>379</ele>
        <time>2015-11-01T08:39:31.000Z</time>
      </trkpt>
      <trkpt lat="47.53551" lon="6.77262">
        <ele>379</ele>
        <time>2015-11-01T08:39:32.000Z</time>
      </trkpt>
      <trkpt lat="47.53554" lon="6.77263">
        <ele>379</ele>
        <time>2015-11-01T08:39:34.000Z</time>
      </trkpt>
      <trkpt lat="47.53556" lon="6.77264">
        <ele>379</ele>
        <time>2015-11-01T08:39:35.000Z</time>
      </trkpt>
      <trkpt lat="47.5356" lon="6.77266">
        <ele>380</ele>
        <time>2015-11-01T08:39:37.000Z</time>
      </trkpt>
      <trkpt lat="47.53562" lon="6.77267">
        <ele>380</ele>
        <time>2015-11-01T08:39:38.000Z</time>
      </trkpt>
      <trkpt lat="47.53566" lon="6.77268">
        <ele>380</ele>
        <time>2015-11-01T08:39:40.000Z</time>
      </trkpt>
      <trkpt lat="47.53568" lon="6.77268">
        <ele>380</ele>
        <time>2015-11-01T08:39:41.000Z</time>
      </trkpt>
      <trkpt lat="47.53572" lon="6.77267">
        <ele>381</ele>
        <time>2015-11-01T08:39:44.000Z</time>
      </trkpt>
      <trkpt lat="47.53574" lon="6.77268">
        <ele>381</ele>
        <time>2015-11-01T08:39:45.000Z</time>
      </trkpt>
      <trkpt lat="47.53578" lon="6.7727">
        <ele>381</ele>
        <time>2015-11-01T08:39:48.000Z</time>
      </trkpt>
      <trkpt lat="47.53579" lon="6.77271">
        <ele>381</ele>
        <time>2015-11-01T08:39:49.000Z</time>
      </trkpt>
      <trkpt lat="47.53582" lon="6.77272">
        <ele>381</ele>
        <time>2015-11-01T08:39:51.000Z</time>
      </trkpt>
      <trkpt lat="47.53585" lon="6.77273">
        <ele>387</ele>
        <time>2015-11-01T08:39:52.000Z</time>
      </trkpt>
      <trkpt lat="47.53587" lon="6.77274">
        <ele>387</ele>
        <time>2015-11-01T08:39:53.000Z</time>
      </trkpt>
      <trkpt lat="47.5359" lon="6.77274">
        <ele>387</ele>
        <time>2015-11-01T08:39:54.000Z</time>
      </trkpt>
      <trkpt lat="47.53593" lon="6.77274">
        <ele>387</ele>
        <time>2015-11-01T08:39:56.000Z</time>
      </trkpt>
      <trkpt lat="47.53595" lon="6.77274">
        <ele>387</ele>
        <time>2015-11-01T08:39:57.000Z</time>
      </trkpt>
      <trkpt lat="47.53599" lon="6.77273">
        <ele>388</ele>
        <time>2015-11-01T08:39:59.000Z</time>
      </trkpt>
      <trkpt lat="47.536" lon="6.77272">
        <ele>388</ele>
        <time>2015-11-01T08:40:00.000Z</time>
      </trkpt>
      <trkpt lat="47.53604" lon="6.77272">
        <ele>388</ele>
        <time>2015-11-01T08:40:02.000Z</time>
      </trkpt>
      <trkpt lat="47.53605" lon="6.77272">
        <ele>388</ele>
        <time>2015-11-01T08:40:03.000Z</time>
      </trkpt>
      <trkpt lat="47.53609" lon="6.77272">
        <ele>388</ele>
        <time>2015-11-01T08:40:06.000Z</time>
      </trkpt>
      <trkpt lat="47.53611" lon="6.77272">
        <ele>388</ele>
        <time>2015-11-01T08:40:07.000Z</time>
      </trkpt>
      <trkpt lat="47.53615" lon="6.77273">
        <ele>388</ele>
        <time>2015-11-01T08:40:09.000Z</time>
      </trkpt>
      <trkpt lat="47.53617" lon="6.77274">
        <ele>389</ele>
        <time>2015-11-01T08:40:10.000Z</time>
      </trkpt>
      <trkpt lat="47.53621" lon="6.77277">
        <ele>389</ele>
        <time>2015-11-01T08:40:12.000Z</time>
      </trkpt>
      <trkpt lat="47.53623" lon="6.77278">
        <ele>389</ele>
        <time>2015-11-01T08:40:13.000Z</time>
      </trkpt>
      <trkpt lat="47.53627" lon="6.7728">
        <ele>389</ele>
        <time>2015-11-01T08:40:15.000Z</time>
      </trkpt>
      <trkpt lat="47.53628" lon="6.77281">
        <ele>389</ele>
        <time>2015-11-01T08:40:16.000Z</time>
      </trkpt>
      <trkpt lat="47.53631" lon="6.77282">
        <ele>389</ele>
        <time>2015-11-01T08:40:18.000Z</time>
      </trkpt>
      <trkpt lat="47.53633" lon="6.77283">
        <ele>389</ele>
        <time>2015-11-01T08:40:19.000Z</time>
      </trkpt>
      <trkpt lat="47.53636" lon="6.77285">
        <ele>389</ele>
        <time>2015-11-01T08:40:21.000Z</time>
      </trkpt>
      <trkpt lat="47.53638" lon="6.77286">
        <ele>389</ele>
        <time>2015-11-01T08:40:22.000Z</time>
      </trkpt>
      <trkpt lat="47.53642" lon="6.77289">
        <ele>390</ele>
        <time>2015-11-01T08:40:24.000Z</time>
      </trkpt>
      <trkpt lat="47.53644" lon="6.7729">
        <ele>390</ele>
        <time>2015-11-01T08:40:25.000Z</time>
      </trkpt>
      <trkpt lat="47.53646" lon="6.77292">
        <ele>390</ele>
        <time>2015-11-01T08:40:26.000Z</time>
      </trkpt>
      <trkpt lat="47.53648" lon="6.77293">
        <ele>390</ele>
        <time>2015-11-01T08:40:27.000Z</time>
      </trkpt>
      <trkpt lat="47.5365" lon="6.77295">
        <ele>390</ele>
        <time>2015-11-01T08:40:28.000Z</time>
      </trkpt>
      <trkpt lat="47.53652" lon="6.77297">
        <ele>390</ele>
        <time>2015-11-01T08:40:29.000Z</time>
      </trkpt>
      <trkpt lat="47.53654" lon="6.773">
        <ele>390</ele>
        <time>2015-11-01T08:40:30.000Z</time>
      </trkpt>
      <trkpt lat="47.53656" lon="6.77302">
        <ele>390</ele>
        <time>2015-11-01T08:40:31.000Z</time>
      </trkpt>
      <trkpt lat="47.53659" lon="6.77306">
        <ele>390</ele>
        <time>2015-11-01T08:40:33.000Z</time>
      </trkpt>
      <trkpt lat="47.53661" lon="6.77307">
        <ele>390</ele>
        <time>2015-11-01T08:40:34.000Z</time>
      </trkpt>
      <trkpt lat="47.53664" lon="6.77308">
        <ele>390</ele>
        <time>2015-11-01T08:40:36.000Z</time>
      </trkpt>
      <trkpt lat="47.53666" lon="6.77309">
        <ele>390</ele>
        <time>2015-11-01T08:40:37.000Z</time>
      </trkpt>
      <trkpt lat="47.53668" lon="6.77311">
        <ele>394</ele>
        <time>2015-11-01T08:40:39.000Z</time>
      </trkpt>
      <trkpt lat="47.5367" lon="6.77312">
        <ele>394</ele>
        <time>2015-11-01T08:40:40.000Z</time>
      </trkpt>
      <trkpt lat="47.53673" lon="6.77314">
        <ele>393</ele>
        <time>2015-11-01T08:40:42.000Z</time>
      </trkpt>
      <trkpt lat="47.53675" lon="6.77315">
        <ele>393</ele>
        <time>2015-11-01T08:40:43.000Z</time>
      </trkpt>
      <trkpt lat="47.53678" lon="6.77313">
        <ele>394</ele>
        <time>2015-11-01T08:40:45.000Z</time>
      </trkpt>
      <trkpt lat="47.5368" lon="6.77313">
        <ele>394</ele>
        <time>2015-11-01T08:40:46.000Z</time>
      </trkpt>
      <trkpt lat="47.53682" lon="6.77312">
        <ele>394</ele>
        <time>2015-11-01T08:40:47.000Z</time>
      </trkpt>
      <trkpt lat="47.53684" lon="6.77312">
        <ele>394</ele>
        <time>2015-11-01T08:40:48.000Z</time>
      </trkpt>
      <trkpt lat="47.53688" lon="6.77312">
        <ele>394</ele>
        <time>2015-11-01T08:40:50.000Z</time>
      </trkpt>
      <trkpt lat="47.5369" lon="6.77312">
        <ele>394</ele>
        <time>2015-11-01T08:40:51.000Z</time>
      </trkpt>
      <trkpt lat="47.53694" lon="6.77312">
        <ele>395</ele>
        <time>2015-11-01T08:40:53.000Z</time>
      </trkpt>
      <trkpt lat="47.53696" lon="6.77312">
        <ele>395</ele>
        <time>2015-11-01T08:40:54.000Z</time>
      </trkpt>
      <trkpt lat="47.537" lon="6.77312">
        <ele>395</ele>
        <time>2015-11-01T08:40:56.000Z</time>
      </trkpt>
      <trkpt lat="47.53701" lon="6.77312">
        <ele>395</ele>
        <time>2015-11-01T08:40:57.000Z</time>
      </trkpt>
      <trkpt lat="47.53705" lon="6.77311">
        <ele>395</ele>
        <time>2015-11-01T08:41:00.000Z</time>
      </trkpt>
      <trkpt lat="47.53707" lon="6.77311">
        <ele>395</ele>
        <time>2015-11-01T08:41:01.000Z</time>
      </trkpt>
      <trkpt lat="47.5371" lon="6.7731">
        <ele>395</ele>
        <time>2015-11-01T08:41:03.000Z</time>
      </trkpt>
      <trkpt lat="47.53712" lon="6.77309">
        <ele>396</ele>
        <time>2015-11-01T08:41:04.000Z</time>
      </trkpt>
      <trkpt lat="47.53715" lon="6.77308">
        <ele>396</ele>
        <time>2015-11-01T08:41:06.000Z</time>
      </trkpt>
      <trkpt lat="47.53717" lon="6.77308">
        <ele>396</ele>
        <time>2015-11-01T08:41:07.000Z</time>
      </trkpt>
      <trkpt lat="47.5372" lon="6.77306">
        <ele>396</ele>
        <time>2015-11-01T08:41:09.000Z</time>
      </trkpt>
      <trkpt lat="47.53721" lon="6.77305">
        <ele>396</ele>
        <time>2015-11-01T08:41:10.000Z</time>
      </trkpt>
      <trkpt lat="47.53725" lon="6.77304">
        <ele>396</ele>
        <time>2015-11-01T08:41:12.000Z</time>
      </trkpt>
      <trkpt lat="47.53727" lon="6.77304">
        <ele>396</ele>
        <time>2015-11-01T08:41:13.000Z</time>
      </trkpt>
      <trkpt lat="47.53731" lon="6.77303">
        <ele>396</ele>
        <time>2015-11-01T08:41:15.000Z</time>
      </trkpt>
      <trkpt lat="47.53733" lon="6.77302">
        <ele>396</ele>
        <time>2015-11-01T08:41:16.000Z</time>
      </trkpt>
      <trkpt lat="47.53735" lon="6.77299">
        <ele>396</ele>
        <time>2015-11-01T08:41:18.000Z</time>
      </trkpt>
      <trkpt lat="47.53737" lon="6.77298">
        <ele>397</ele>
        <time>2015-11-01T08:41:19.000Z</time>
      </trkpt>
      <trkpt lat="47.53739" lon="6.77296">
        <ele>397</ele>
        <time>2015-11-01T08:41:21.000Z</time>
      </trkpt>
      <trkpt lat="47.53741" lon="6.77295">
        <ele>397</ele>
        <time>2015-11-01T08:41:22.000Z</time>
      </trkpt>
      <trkpt lat="47.53743" lon="6.77292">
        <ele>397</ele>
        <time>2015-11-01T08:41:24.000Z</time>
      </trkpt>
      <trkpt lat="47.53745" lon="6.7729">
        <ele>397</ele>
        <time>2015-11-01T08:41:25.000Z</time>
      </trkpt>
      <trkpt lat="47.53747" lon="6.77286">
        <ele>397</ele>
        <time>2015-11-01T08:41:27.000Z</time>
      </trkpt>
      <trkpt lat="47.53748" lon="6.77284">
        <ele>397</ele>
        <time>2015-11-01T08:41:28.000Z</time>
      </trkpt>
      <trkpt lat="47.53751" lon="6.7728">
        <ele>402</ele>
        <time>2015-11-01T08:41:30.000Z</time>
      </trkpt>
      <trkpt lat="47.53752" lon="6.77278">
        <ele>402</ele>
        <time>2015-11-01T08:41:31.000Z</time>
      </trkpt>
      <trkpt lat="47.53754" lon="6.77275">
        <ele>402</ele>
        <time>2015-11-01T08:41:33.000Z</time>
      </trkpt>
      <trkpt lat="47.53755" lon="6.77273">
        <ele>402</ele>
        <time>2015-11-01T08:41:34.000Z</time>
      </trkpt>
      <trkpt lat="47.53755" lon="6.77268">
        <ele>402</ele>
        <time>2015-11-01T08:41:36.000Z</time>
      </trkpt>
      <trkpt lat="47.53755" lon="6.77265">
        <ele>402</ele>
        <time>2015-11-01T08:41:37.000Z</time>
      </trkpt>
      <trkpt lat="47.53754" lon="6.77259">
        <ele>402</ele>
        <time>2015-11-01T08:41:40.000Z</time>
      </trkpt>
      <trkpt lat="47.53754" lon="6.77257">
        <ele>401</ele>
        <time>2015-11-01T08:41:41.000Z</time>
      </trkpt>
      <trkpt lat="47.53756" lon="6.77251">
        <ele>401</ele>
        <time>2015-11-01T08:41:44.000Z</time>
      </trkpt>
      <trkpt lat="47.53756" lon="6.77249">
        <ele>403</ele>
        <time>2015-11-01T08:41:45.000Z</time>
      </trkpt>
      <trkpt lat="47.53758" lon="6.77243">
        <ele>404</ele>
        <time>2015-11-01T08:41:48.000Z</time>
      </trkpt>
      <trkpt lat="47.53759" lon="6.77241">
        <ele>404</ele>
        <time>2015-11-01T08:41:49.000Z</time>
      </trkpt>
      <trkpt lat="47.53759" lon="6.77236">
        <ele>405</ele>
        <time>2015-11-01T08:41:51.000Z</time>
      </trkpt>
      <trkpt lat="47.5376" lon="6.77234">
        <ele>406</ele>
        <time>2015-11-01T08:41:52.000Z</time>
      </trkpt>
      <trkpt lat="47.53761" lon="6.77229">
        <ele>406</ele>
        <time>2015-11-01T08:41:54.000Z</time>
      </trkpt>
      <trkpt lat="47.53761" lon="6.77227">
        <ele>406</ele>
        <time>2015-11-01T08:41:55.000Z</time>
      </trkpt>
      <trkpt lat="47.53763" lon="6.77222">
        <ele>407</ele>
        <time>2015-11-01T08:41:58.000Z</time>
      </trkpt>
      <trkpt lat="47.53763" lon="6.7722">
        <ele>407</ele>
        <time>2015-11-01T08:41:59.000Z</time>
      </trkpt>
      <trkpt lat="47.53764" lon="6.77214">
        <ele>408</ele>
        <time>2015-11-01T08:42:02.000Z</time>
      </trkpt>
      <trkpt lat="47.53764" lon="6.77212">
        <ele>408</ele>
        <time>2015-11-01T08:42:03.000Z</time>
      </trkpt>
      <trkpt lat="47.53764" lon="6.77206">
        <ele>408</ele>
        <time>2015-11-01T08:42:06.000Z</time>
      </trkpt>
      <trkpt lat="47.53764" lon="6.77204">
        <ele>408</ele>
        <time>2015-11-01T08:42:07.000Z</time>
      </trkpt>
      <trkpt lat="47.53763" lon="6.77199">
        <ele>409</ele>
        <time>2015-11-01T08:42:09.000Z</time>
      </trkpt>
      <trkpt lat="47.53763" lon="6.77197">
        <ele>409</ele>
        <time>2015-11-01T08:42:10.000Z</time>
      </trkpt>
      <trkpt lat="47.53762" lon="6.77191">
        <ele>409</ele>
        <time>2015-11-01T08:42:13.000Z</time>
      </trkpt>
      <trkpt lat="47.53763" lon="6.77188">
        <ele>409</ele>
        <time>2015-11-01T08:42:14.000Z</time>
      </trkpt>
      <trkpt lat="47.53763" lon="6.77182">
        <ele>409</ele>
        <time>2015-11-01T08:42:16.000Z</time>
      </trkpt>
      <trkpt lat="47.53763" lon="6.77179">
        <ele>409</ele>
        <time>2015-11-01T08:42:17.000Z</time>
      </trkpt>
      <trkpt lat="47.53763" lon="6.77173">
        <ele>409</ele>
        <time>2015-11-01T08:42:19.000Z</time>
      </trkpt>
      <trkpt lat="47.53763" lon="6.7717">
        <ele>409</ele>
        <time>2015-11-01T08:42:20.000Z</time>
      </trkpt>
      <trkpt lat="47.53764" lon="6.77164">
        <ele>412</ele>
        <time>2015-11-01T08:42:22.000Z</time>
      </trkpt>
      <trkpt lat="47.53764" lon="6.77161">
        <ele>412</ele>
        <time>2015-11-01T08:42:23.000Z</time>
      </trkpt>
      <trkpt lat="47.53765" lon="6.77154">
        <ele>412</ele>
        <time>2015-11-01T08:42:25.000Z</time>
      </trkpt>
      <trkpt lat="47.53766" lon="6.77151">
        <ele>413</ele>
        <time>2015-11-01T08:42:26.000Z</time>
      </trkpt>
      <trkpt lat="47.53766" lon="6.77145">
        <ele>413</ele>
        <time>2015-11-01T08:42:29.000Z</time>
      </trkpt>
      <trkpt lat="47.53766" lon="6.77143">
        <ele>413</ele>
        <time>2015-11-01T08:42:30.000Z</time>
      </trkpt>
      <trkpt lat="47.53766" lon="6.77137">
        <ele>413</ele>
        <time>2015-11-01T08:42:32.000Z</time>
      </trkpt>
      <trkpt lat="47.53766" lon="6.77135">
        <ele>414</ele>
        <time>2015-11-01T08:42:33.000Z</time>
      </trkpt>
      <trkpt lat="47.53766" lon="6.7713">
        <ele>414</ele>
        <time>2015-11-01T08:42:35.000Z</time>
      </trkpt>
      <trkpt lat="47.53767" lon="6.77128">
        <ele>414</ele>
        <time>2015-11-01T08:42:36.000Z</time>
      </trkpt>
      <trkpt lat="47.53768" lon="6.77122">
        <ele>414</ele>
        <time>2015-11-01T08:42:38.000Z</time>
      </trkpt>
      <trkpt lat="47.53768" lon="6.77119">
        <ele>414</ele>
        <time>2015-11-01T08:42:39.000Z</time>
      </trkpt>
      <trkpt lat="47.53768" lon="6.77113">
        <ele>414</ele>
        <time>2015-11-01T08:42:41.000Z</time>
      </trkpt>
      <trkpt lat="47.53769" lon="6.77111">
        <ele>414</ele>
        <time>2015-11-01T08:42:42.000Z</time>
      </trkpt>
      <trkpt lat="47.5377" lon="6.77106">
        <ele>415</ele>
        <time>2015-11-01T08:42:44.000Z</time>
      </trkpt>
      <trkpt lat="47.5377" lon="6.77104">
        <ele>415</ele>
        <time>2015-11-01T08:42:45.000Z</time>
      </trkpt>
      <trkpt lat="47.5377" lon="6.77098">
        <ele>415</ele>
        <time>2015-11-01T08:42:48.000Z</time>
      </trkpt>
      <trkpt lat="47.53771" lon="6.77097">
        <ele>415</ele>
        <time>2015-11-01T08:42:49.000Z</time>
      </trkpt>
      <trkpt lat="47.5377" lon="6.7709">
        <ele>415</ele>
        <time>2015-11-01T08:42:52.000Z</time>
      </trkpt>
      <trkpt lat="47.53769" lon="6.77088">
        <ele>415</ele>
        <time>2015-11-01T08:42:53.000Z</time>
      </trkpt>
      <trkpt lat="47.53769" lon="6.77081">
        <ele>417</ele>
        <time>2015-11-01T08:42:55.000Z</time>
      </trkpt>
      <trkpt lat="47.53769" lon="6.77078">
        <ele>417</ele>
        <time>2015-11-01T08:42:56.000Z</time>
      </trkpt>
      <trkpt lat="47.5377" lon="6.77072">
        <ele>417</ele>
        <time>2015-11-01T08:42:58.000Z</time>
      </trkpt>
      <trkpt lat="47.5377" lon="6.77069">
        <ele>417</ele>
        <time>2015-11-01T08:42:59.000Z</time>
      </trkpt>
      <trkpt lat="47.5377" lon="6.77064">
        <ele>417</ele>
        <time>2015-11-01T08:43:01.000Z</time>
      </trkpt>
      <trkpt lat="47.5377" lon="6.77062">
        <ele>417</ele>
        <time>2015-11-01T08:43:02.000Z</time>
      </trkpt>
      <trkpt lat="47.53769" lon="6.77057">
        <ele>418</ele>
        <time>2015-11-01T08:43:04.000Z</time>
      </trkpt>
      <trkpt lat="47.53769" lon="6.77055">
        <ele>418</ele>
        <time>2015-11-01T08:43:05.000Z</time>
      </trkpt>
      <trkpt lat="47.5377" lon="6.7705">
        <ele>418</ele>
        <time>2015-11-01T08:43:07.000Z</time>
      </trkpt>
      <trkpt lat="47.5377" lon="6.77047">
        <ele>418</ele>
        <time>2015-11-01T08:43:08.000Z</time>
      </trkpt>
      <trkpt lat="47.5377" lon="6.77043">
        <ele>418</ele>
        <time>2015-11-01T08:43:09.000Z</time>
      </trkpt>
      <trkpt lat="47.5377" lon="6.77039">
        <ele>418</ele>
        <time>2015-11-01T08:43:10.000Z</time>
      </trkpt>
      <trkpt lat="47.5377" lon="6.77035">
        <ele>418</ele>
        <time>2015-11-01T08:43:11.000Z</time>
      </trkpt>
      <trkpt lat="47.53771" lon="6.7703">
        <ele>419</ele>
        <time>2015-11-01T08:43:12.000Z</time>
      </trkpt>
      <trkpt lat="47.53771" lon="6.77027">
        <ele>419</ele>
        <time>2015-11-01T08:43:13.000Z</time>
      </trkpt>
      <trkpt lat="47.53771" lon="6.77023">
        <ele>419</ele>
        <time>2015-11-01T08:43:14.000Z</time>
      </trkpt>
      <trkpt lat="47.53772" lon="6.77017">
        <ele>419</ele>
        <time>2015-11-01T08:43:16.000Z</time>
      </trkpt>
      <trkpt lat="47.53771" lon="6.77014">
        <ele>419</ele>
        <time>2015-11-01T08:43:17.000Z</time>
      </trkpt>
      <trkpt lat="47.53771" lon="6.77008">
        <ele>419</ele>
        <time>2015-11-01T08:43:19.000Z</time>
      </trkpt>
      <trkpt lat="47.5377" lon="6.77005">
        <ele>419</ele>
        <time>2015-11-01T08:43:20.000Z</time>
      </trkpt>
      <trkpt lat="47.5377" lon="6.76998">
        <ele>420</ele>
        <time>2015-11-01T08:43:22.000Z</time>
      </trkpt>
      <trkpt lat="47.5377" lon="6.76995">
        <ele>420</ele>
        <time>2015-11-01T08:43:23.000Z</time>
      </trkpt>
      <trkpt lat="47.53769" lon="6.76991">
        <ele>420</ele>
        <time>2015-11-01T08:43:24.000Z</time>
      </trkpt>
      <trkpt lat="47.53768" lon="6.76987">
        <ele>420</ele>
        <time>2015-11-01T08:43:25.000Z</time>
      </trkpt>
      <trkpt lat="47.53768" lon="6.76983">
        <ele>420</ele>
        <time>2015-11-01T08:43:26.000Z</time>
      </trkpt>
      <trkpt lat="47.53767" lon="6.76978">
        <ele>421</ele>
        <time>2015-11-01T08:43:27.000Z</time>
      </trkpt>
      <trkpt lat="47.53767" lon="6.76973">
        <ele>421</ele>
        <time>2015-11-01T08:43:28.000Z</time>
      </trkpt>
      <trkpt lat="47.53766" lon="6.76969">
        <ele>421</ele>
        <time>2015-11-01T08:43:29.000Z</time>
      </trkpt>
      <trkpt lat="47.53766" lon="6.76964">
        <ele>421</ele>
        <time>2015-11-01T08:43:30.000Z</time>
      </trkpt>
      <trkpt lat="47.53766" lon="6.7696">
        <ele>421</ele>
        <time>2015-11-01T08:43:31.000Z</time>
      </trkpt>
      <trkpt lat="47.53767" lon="6.76955">
        <ele>421</ele>
        <time>2015-11-01T08:43:32.000Z</time>
      </trkpt>
      <trkpt lat="47.53767" lon="6.76951">
        <ele>421</ele>
        <time>2015-11-01T08:43:33.000Z</time>
      </trkpt>
      <trkpt lat="47.53767" lon="6.76946">
        <ele>421</ele>
        <time>2015-11-01T08:43:34.000Z</time>
      </trkpt>
      <trkpt lat="47.53768" lon="6.76942">
        <ele>421</ele>
        <time>2015-11-01T08:43:35.000Z</time>
      </trkpt>
      <trkpt lat="47.53768" lon="6.76938">
        <ele>421</ele>
        <time>2015-11-01T08:43:36.000Z</time>
      </trkpt>
      <trkpt lat="47.53768" lon="6.76934">
        <ele>421</ele>
        <time>2015-11-01T08:43:37.000Z</time>
      </trkpt>
      <trkpt lat="47.53768" lon="6.7693">
        <ele>421</ele>
        <time>2015-11-01T08:43:38.000Z</time>
      </trkpt>
      <trkpt lat="47.53768" lon="6.76926">
        <ele>421</ele>
        <time>2015-11-01T08:43:39.000Z</time>
      </trkpt>
      <trkpt lat="47.53768" lon="6.76921">
        <ele>421</ele>
        <time>2015-11-01T08:43:40.000Z</time>
      </trkpt>
      <trkpt lat="47.53768" lon="6.76917">
        <ele>421</ele>
        <time>2015-11-01T08:43:41.000Z</time>
      </trkpt>
      <trkpt lat="47.53769" lon="6.76912">
        <ele>422</ele>
        <time>2015-11-01T08:43:42.000Z</time>
      </trkpt>
      <trkpt lat="47.53771" lon="6.76908">
        <ele>422</ele>
        <time>2015-11-01T08:43:43.000Z</time>
      </trkpt>
      <trkpt lat="47.53772" lon="6.76903">
        <ele>422</ele>
        <time>2015-11-01T08:43:44.000Z</time>
      </trkpt>
      <trkpt lat="47.53773" lon="6.76899">
        <ele>423</ele>
        <time>2015-11-01T08:43:45.000Z</time>
      </trkpt>
      <trkpt lat="47.53774" lon="6.76896">
        <ele>423</ele>
        <time>2015-11-01T08:43:46.000Z</time>
      </trkpt>
      <trkpt lat="47.53775" lon="6.76893">
        <ele>423</ele>
        <time>2015-11-01T08:43:47.000Z</time>
      </trkpt>
      <trkpt lat="47.53776" lon="6.76888">
        <ele>423</ele>
        <time>2015-11-01T08:43:49.000Z</time>
      </trkpt>
      <trkpt lat="47.53776" lon="6.76885">
        <ele>423</ele>
        <time>2015-11-01T08:43:50.000Z</time>
      </trkpt>
      <trkpt lat="47.53776" lon="6.76879">
        <ele>423</ele>
        <time>2015-11-01T08:43:52.000Z</time>
      </trkpt>
      <trkpt lat="47.53776" lon="6.76877">
        <ele>423</ele>
        <time>2015-11-01T08:43:53.000Z</time>
      </trkpt>
      <trkpt lat="47.53776" lon="6.7687">
        <ele>423</ele>
        <time>2015-11-01T08:43:56.000Z</time>
      </trkpt>
      <trkpt lat="47.53777" lon="6.76868">
        <ele>423</ele>
        <time>2015-11-01T08:43:57.000Z</time>
      </trkpt>
      <trkpt lat="47.53777" lon="6.76864">
        <ele>423</ele>
        <time>2015-11-01T08:43:59.000Z</time>
      </trkpt>
      <trkpt lat="47.53777" lon="6.76861">
        <ele>423</ele>
        <time>2015-11-01T08:44:00.000Z</time>
      </trkpt>
      <trkpt lat="47.53778" lon="6.76857">
        <ele>423</ele>
        <time>2015-11-01T08:44:02.000Z</time>
      </trkpt>
      <trkpt lat="47.53778" lon="6.76854">
        <ele>423</ele>
        <time>2015-11-01T08:44:03.000Z</time>
      </trkpt>
      <trkpt lat="47.53778" lon="6.76849">
        <ele>423</ele>
        <time>2015-11-01T08:44:05.000Z</time>
      </trkpt>
      <trkpt lat="47.53779" lon="6.76846">
        <ele>423</ele>
        <time>2015-11-01T08:44:06.000Z</time>
      </trkpt>
      <trkpt lat="47.53779" lon="6.76842">
        <ele>423</ele>
        <time>2015-11-01T08:44:08.000Z</time>
      </trkpt>
      <trkpt lat="47.53779" lon="6.76839">
        <ele>423</ele>
        <time>2015-11-01T08:44:09.000Z</time>
      </trkpt>
      <trkpt lat="47.53779" lon="6.76834">
        <ele>424</ele>
        <time>2015-11-01T08:44:11.000Z</time>
      </trkpt>
      <trkpt lat="47.5378" lon="6.76831">
        <ele>425</ele>
        <time>2015-11-01T08:44:12.000Z</time>
      </trkpt>
      <trkpt lat="47.53781" lon="6.76825">
        <ele>426</ele>
        <time>2015-11-01T08:44:14.000Z</time>
      </trkpt>
      <trkpt lat="47.53782" lon="6.76822">
        <ele>426</ele>
        <time>2015-11-01T08:44:15.000Z</time>
      </trkpt>
      <trkpt lat="47.53785" lon="6.76817">
        <ele>426</ele>
        <time>2015-11-01T08:44:17.000Z</time>
      </trkpt>
      <trkpt lat="47.53786" lon="6.76814">
        <ele>426</ele>
        <time>2015-11-01T08:44:18.000Z</time>
      </trkpt>
      <trkpt lat="47.53787" lon="6.76808">
        <ele>427</ele>
        <time>2015-11-01T08:44:20.000Z</time>
      </trkpt>
      <trkpt lat="47.53787" lon="6.76805">
        <ele>427</ele>
        <time>2015-11-01T08:44:21.000Z</time>
      </trkpt>
      <trkpt lat="47.53788" lon="6.76799">
        <ele>427</ele>
        <time>2015-11-01T08:44:23.000Z</time>
      </trkpt>
      <trkpt lat="47.53789" lon="6.76796">
        <ele>427</ele>
        <time>2015-11-01T08:44:24.000Z</time>
      </trkpt>
      <trkpt lat="47.5379" lon="6.7679">
        <ele>427</ele>
        <time>2015-11-01T08:44:26.000Z</time>
      </trkpt>
      <trkpt lat="47.53791" lon="6.76787">
        <ele>427</ele>
        <time>2015-11-01T08:44:27.000Z</time>
      </trkpt>
      <trkpt lat="47.53792" lon="6.76782">
        <ele>428</ele>
        <time>2015-11-01T08:44:29.000Z</time>
      </trkpt>
      <trkpt lat="47.53792" lon="6.7678">
        <ele>428</ele>
        <time>2015-11-01T08:44:30.000Z</time>
      </trkpt>
      <trkpt lat="47.53794" lon="6.76776">
        <ele>428</ele>
        <time>2015-11-01T08:44:32.000Z</time>
      </trkpt>
      <trkpt lat="47.53796" lon="6.76774">
        <ele>428</ele>
        <time>2015-11-01T08:44:33.000Z</time>
      </trkpt>
      <trkpt lat="47.53798" lon="6.7677">
        <ele>428</ele>
        <time>2015-11-01T08:44:35.000Z</time>
      </trkpt>
      <trkpt lat="47.538" lon="6.76768">
        <ele>428</ele>
        <time>2015-11-01T08:44:36.000Z</time>
      </trkpt>
      <trkpt lat="47.53802" lon="6.76764">
        <ele>428</ele>
        <time>2015-11-01T08:44:38.000Z</time>
      </trkpt>
      <trkpt lat="47.53803" lon="6.76762">
        <ele>429</ele>
        <time>2015-11-01T08:44:39.000Z</time>
      </trkpt>
      <trkpt lat="47.53805" lon="6.76757">
        <ele>429</ele>
        <time>2015-11-01T08:44:41.000Z</time>
      </trkpt>
      <trkpt lat="47.53805" lon="6.76754">
        <ele>429</ele>
        <time>2015-11-01T08:44:42.000Z</time>
      </trkpt>
      <trkpt lat="47.53806" lon="6.76749">
        <ele>431</ele>
        <time>2015-11-01T08:44:44.000Z</time>
      </trkpt>
      <trkpt lat="47.53806" lon="6.76747">
        <ele>431</ele>
        <time>2015-11-01T08:44:45.000Z</time>
      </trkpt>
      <trkpt lat="47.53806" lon="6.76742">
        <ele>431</ele>
        <time>2015-11-01T08:44:47.000Z</time>
      </trkpt>
      <trkpt lat="47.53807" lon="6.7674">
        <ele>431</ele>
        <time>2015-11-01T08:44:48.000Z</time>
      </trkpt>
      <trkpt lat="47.53808" lon="6.76735">
        <ele>431</ele>
        <time>2015-11-01T08:44:50.000Z</time>
      </trkpt>
      <trkpt lat="47.53808" lon="6.76732">
        <ele>431</ele>
        <time>2015-11-01T08:44:51.000Z</time>
      </trkpt>
      <trkpt lat="47.5381" lon="6.76728">
        <ele>431</ele>
        <time>2015-11-01T08:44:53.000Z</time>
      </trkpt>
      <trkpt lat="47.53811" lon="6.76727">
        <ele>431</ele>
        <time>2015-11-01T08:44:54.000Z</time>
      </trkpt>
      <trkpt lat="47.53813" lon="6.76722">
        <ele>431</ele>
        <time>2015-11-01T08:44:56.000Z</time>
      </trkpt>
      <trkpt lat="47.53814" lon="6.76718">
        <ele>432</ele>
        <time>2015-11-01T08:44:57.000Z</time>
      </trkpt>
      <trkpt lat="47.53815" lon="6.76715">
        <ele>432</ele>
        <time>2015-11-01T08:44:58.000Z</time>
      </trkpt>
      <trkpt lat="47.53815" lon="6.76712">
        <ele>432</ele>
        <time>2015-11-01T08:44:59.000Z</time>
      </trkpt>
      <trkpt lat="47.53817" lon="6.76706">
        <ele>432</ele>
        <time>2015-11-01T08:45:01.000Z</time>
      </trkpt>
      <trkpt lat="47.53817" lon="6.76702">
        <ele>432</ele>
        <time>2015-11-01T08:45:02.000Z</time>
      </trkpt>
      <trkpt lat="47.53819" lon="6.76699">
        <ele>432</ele>
        <time>2015-11-01T08:45:03.000Z</time>
      </trkpt>
      <trkpt lat="47.5382" lon="6.76696">
        <ele>432</ele>
        <time>2015-11-01T08:45:04.000Z</time>
      </trkpt>
      <trkpt lat="47.53822" lon="6.76691">
        <ele>432</ele>
        <time>2015-11-01T08:45:06.000Z</time>
      </trkpt>
      <trkpt lat="47.53824" lon="6.76689">
        <ele>432</ele>
        <time>2015-11-01T08:45:07.000Z</time>
      </trkpt>
      <trkpt lat="47.53827" lon="6.76685">
        <ele>433</ele>
        <time>2015-11-01T08:45:09.000Z</time>
      </trkpt>
      <trkpt lat="47.53829" lon="6.76683">
        <ele>433</ele>
        <time>2015-11-01T08:45:10.000Z</time>
      </trkpt>
      <trkpt lat="47.53831" lon="6.76681">
        <ele>433</ele>
        <time>2015-11-01T08:45:11.000Z</time>
      </trkpt>
      <trkpt lat="47.53834" lon="6.76679">
        <ele>434</ele>
        <time>2015-11-01T08:45:12.000Z</time>
      </trkpt>
      <trkpt lat="47.53837" lon="6.76676">
        <ele>434</ele>
        <time>2015-11-01T08:45:13.000Z</time>
      </trkpt>
      <trkpt lat="47.5384" lon="6.76673">
        <ele>434</ele>
        <time>2015-11-01T08:45:14.000Z</time>
      </trkpt>
      <trkpt lat="47.53843" lon="6.7667">
        <ele>434</ele>
        <time>2015-11-01T08:45:15.000Z</time>
      </trkpt>
      <trkpt lat="47.53845" lon="6.76667">
        <ele>434</ele>
        <time>2015-11-01T08:45:16.000Z</time>
      </trkpt>
      <trkpt lat="47.53848" lon="6.76664">
        <ele>435</ele>
        <time>2015-11-01T08:45:17.000Z</time>
      </trkpt>
      <trkpt lat="47.5385" lon="6.7666">
        <ele>435</ele>
        <time>2015-11-01T08:45:18.000Z</time>
      </trkpt>
      <trkpt lat="47.53852" lon="6.76657">
        <ele>435</ele>
        <time>2015-11-01T08:45:19.000Z</time>
      </trkpt>
      <trkpt lat="47.53855" lon="6.76654">
        <ele>435</ele>
        <time>2015-11-01T08:45:20.000Z</time>
      </trkpt>
      <trkpt lat="47.53857" lon="6.7665">
        <ele>435</ele>
        <time>2015-11-01T08:45:21.000Z</time>
      </trkpt>
      <trkpt lat="47.53858" lon="6.76645">
        <ele>435</ele>
        <time>2015-11-01T08:45:22.000Z</time>
      </trkpt>
      <trkpt lat="47.53861" lon="6.76641">
        <ele>435</ele>
        <time>2015-11-01T08:45:23.000Z</time>
      </trkpt>
      <trkpt lat="47.53863" lon="6.76637">
        <ele>435</ele>
        <time>2015-11-01T08:45:24.000Z</time>
      </trkpt>
      <trkpt lat="47.53866" lon="6.76633">
        <ele>435</ele>
        <time>2015-11-01T08:45:25.000Z</time>
      </trkpt>
      <trkpt lat="47.53869" lon="6.76629">
        <ele>435</ele>
        <time>2015-11-01T08:45:26.000Z</time>
      </trkpt>
      <trkpt lat="47.53872" lon="6.76625">
        <ele>436</ele>
        <time>2015-11-01T08:45:27.000Z</time>
      </trkpt>
      <trkpt lat="47.53874" lon="6.7662">
        <ele>436</ele>
        <time>2015-11-01T08:45:28.000Z</time>
      </trkpt>
      <trkpt lat="47.53876" lon="6.76615">
        <ele>436</ele>
        <time>2015-11-01T08:45:29.000Z</time>
      </trkpt>
      <trkpt lat="47.53878" lon="6.7661">
        <ele>436</ele>
        <time>2015-11-01T08:45:30.000Z</time>
      </trkpt>
      <trkpt lat="47.5388" lon="6.76605">
        <ele>436</ele>
        <time>2015-11-01T08:45:31.000Z</time>
      </trkpt>
      <trkpt lat="47.53882" lon="6.76601">
        <ele>436</ele>
        <time>2015-11-01T08:45:32.000Z</time>
      </trkpt>
      <trkpt lat="47.53883" lon="6.76597">
        <ele>436</ele>
        <time>2015-11-01T08:45:33.000Z</time>
      </trkpt>
      <trkpt lat="47.53885" lon="6.76592">
        <ele>436</ele>
        <time>2015-11-01T08:45:34.000Z</time>
      </trkpt>
      <trkpt lat="47.53887" lon="6.76589">
        <ele>436</ele>
        <time>2015-11-01T08:45:35.000Z</time>
      </trkpt>
      <trkpt lat="47.53889" lon="6.76585">
        <ele>436</ele>
        <time>2015-11-01T08:45:36.000Z</time>
      </trkpt>
      <trkpt lat="47.53892" lon="6.76583">
        <ele>437</ele>
        <time>2015-11-01T08:45:37.000Z</time>
      </trkpt>
      <trkpt lat="47.53896" lon="6.76581">
        <ele>437</ele>
        <time>2015-11-01T08:45:38.000Z</time>
      </trkpt>
      <trkpt lat="47.53899" lon="6.7658">
        <ele>437</ele>
        <time>2015-11-01T08:45:39.000Z</time>
      </trkpt>
      <trkpt lat="47.53903" lon="6.76577">
        <ele>437</ele>
        <time>2015-11-01T08:45:40.000Z</time>
      </trkpt>
      <trkpt lat="47.53906" lon="6.76573">
        <ele>437</ele>
        <time>2015-11-01T08:45:41.000Z</time>
      </trkpt>
      <trkpt lat="47.53909" lon="6.76569">
        <ele>437</ele>
        <time>2015-11-01T08:45:42.000Z</time>
      </trkpt>
      <trkpt lat="47.53911" lon="6.76563">
        <ele>437</ele>
        <time>2015-11-01T08:45:43.000Z</time>
      </trkpt>
      <trkpt lat="47.53914" lon="6.76558">
        <ele>437</ele>
        <time>2015-11-01T08:45:44.000Z</time>
      </trkpt>
      <trkpt lat="47.53915" lon="6.76553">
        <ele>437</ele>
        <time>2015-11-01T08:45:45.000Z</time>
      </trkpt>
      <trkpt lat="47.53917" lon="6.76548">
        <ele>435</ele>
        <time>2015-11-01T08:45:46.000Z</time>
      </trkpt>
      <trkpt lat="47.5392" lon="6.76544">
        <ele>435</ele>
        <time>2015-11-01T08:45:47.000Z</time>
      </trkpt>
      <trkpt lat="47.53922" lon="6.7654">
        <ele>435</ele>
        <time>2015-11-01T08:45:48.000Z</time>
      </trkpt>
      <trkpt lat="47.53925" lon="6.76536">
        <ele>435</ele>
        <time>2015-11-01T08:45:49.000Z</time>
      </trkpt>
      <trkpt lat="47.53928" lon="6.76532">
        <ele>435</ele>
        <time>2015-11-01T08:45:50.000Z</time>
      </trkpt>
      <trkpt lat="47.5393" lon="6.76529">
        <ele>435</ele>
        <time>2015-11-01T08:45:51.000Z</time>
      </trkpt>
      <trkpt lat="47.53933" lon="6.76525">
        <ele>435</ele>
        <time>2015-11-01T08:45:52.000Z</time>
      </trkpt>
      <trkpt lat="47.53936" lon="6.76522">
        <ele>435</ele>
        <time>2015-11-01T08:45:53.000Z</time>
      </trkpt>
      <trkpt lat="47.53939" lon="6.76518">
        <ele>435</ele>
        <time>2015-11-01T08:45:54.000Z</time>
      </trkpt>
      <trkpt lat="47.53942" lon="6.76515">
        <ele>435</ele>
        <time>2015-11-01T08:45:55.000Z</time>
      </trkpt>
      <trkpt lat="47.53945" lon="6.76512">
        <ele>435</ele>
        <time>2015-11-01T08:45:56.000Z</time>
      </trkpt>
      <trkpt lat="47.53947" lon="6.76509">
        <ele>435</ele>
        <time>2015-11-01T08:45:57.000Z</time>
      </trkpt>
      <trkpt lat="47.53949" lon="6.76506">
        <ele>435</ele>
        <time>2015-11-01T08:45:58.000Z</time>
      </trkpt>
      <trkpt lat="47.53952" lon="6.76502">
        <ele>435</ele>
        <time>2015-11-01T08:45:59.000Z</time>
      </trkpt>
      <trkpt lat="47.53953" lon="6.76498">
        <ele>435</ele>
        <time>2015-11-01T08:46:00.000Z</time>
      </trkpt>
      <trkpt lat="47.53956" lon="6.76493">
        <ele>435</ele>
        <time>2015-11-01T08:46:01.000Z</time>
      </trkpt>
      <trkpt lat="47.53958" lon="6.76488">
        <ele>435</ele>
        <time>2015-11-01T08:46:02.000Z</time>
      </trkpt>
      <trkpt lat="47.53961" lon="6.76483">
        <ele>435</ele>
        <time>2015-11-01T08:46:03.000Z</time>
      </trkpt>
      <trkpt lat="47.53963" lon="6.76478">
        <ele>435</ele>
        <time>2015-11-01T08:46:04.000Z</time>
      </trkpt>
      <trkpt lat="47.53966" lon="6.76473">
        <ele>435</ele>
        <time>2015-11-01T08:46:05.000Z</time>
      </trkpt>
      <trkpt lat="47.53968" lon="6.76468">
        <ele>435</ele>
        <time>2015-11-01T08:46:06.000Z</time>
      </trkpt>
      <trkpt lat="47.53971" lon="6.76463">
        <ele>435</ele>
        <time>2015-11-01T08:46:07.000Z</time>
      </trkpt>
      <trkpt lat="47.53973" lon="6.76458">
        <ele>435</ele>
        <time>2015-11-01T08:46:08.000Z</time>
      </trkpt>
      <trkpt lat="47.53975" lon="6.76453">
        <ele>435</ele>
        <time>2015-11-01T08:46:09.000Z</time>
      </trkpt>
      <trkpt lat="47.53977" lon="6.76447">
        <ele>435</ele>
        <time>2015-11-01T08:46:10.000Z</time>
      </trkpt>
      <trkpt lat="47.5398" lon="6.76442">
        <ele>435</ele>
        <time>2015-11-01T08:46:11.000Z</time>
      </trkpt>
      <trkpt lat="47.53982" lon="6.76437">
        <ele>436</ele>
        <time>2015-11-01T08:46:12.000Z</time>
      </trkpt>
      <trkpt lat="47.53985" lon="6.76433">
        <ele>436</ele>
        <time>2015-11-01T08:46:13.000Z</time>
      </trkpt>
      <trkpt lat="47.53987" lon="6.76428">
        <ele>436</ele>
        <time>2015-11-01T08:46:14.000Z</time>
      </trkpt>
      <trkpt lat="47.5399" lon="6.76423">
        <ele>436</ele>
        <time>2015-11-01T08:46:15.000Z</time>
      </trkpt>
      <trkpt lat="47.53992" lon="6.76419">
        <ele>436</ele>
        <time>2015-11-01T08:46:16.000Z</time>
      </trkpt>
      <trkpt lat="47.53995" lon="6.76414">
        <ele>437</ele>
        <time>2015-11-01T08:46:17.000Z</time>
      </trkpt>
      <trkpt lat="47.53998" lon="6.76409">
        <ele>437</ele>
        <time>2015-11-01T08:46:18.000Z</time>
      </trkpt>
      <trkpt lat="47.54" lon="6.76405">
        <ele>437</ele>
        <time>2015-11-01T08:46:19.000Z</time>
      </trkpt>
      <trkpt lat="47.54003" lon="6.76402">
        <ele>437</ele>
        <time>2015-11-01T08:46:20.000Z</time>
      </trkpt>
      <trkpt lat="47.54005" lon="6.76398">
        <ele>437</ele>
        <time>2015-11-01T08:46:21.000Z</time>
      </trkpt>
      <trkpt lat="47.54008" lon="6.76395">
        <ele>436</ele>
        <time>2015-11-01T08:46:22.000Z</time>
      </trkpt>
      <trkpt lat="47.5401" lon="6.76391">
        <ele>436</ele>
        <time>2015-11-01T08:46:23.000Z</time>
      </trkpt>
      <trkpt lat="47.54012" lon="6.76386">
        <ele>436</ele>
        <time>2015-11-01T08:46:24.000Z</time>
      </trkpt>
      <trkpt lat="47.54014" lon="6.76382">
        <ele>436</ele>
        <time>2015-11-01T08:46:25.000Z</time>
      </trkpt>
      <trkpt lat="47.54016" lon="6.76377">
        <ele>436</ele>
        <time>2015-11-01T08:46:26.000Z</time>
      </trkpt>
      <trkpt lat="47.54019" lon="6.76373">
        <ele>436</ele>
        <time>2015-11-01T08:46:27.000Z</time>
      </trkpt>
      <trkpt lat="47.54022" lon="6.7637">
        <ele>436</ele>
        <time>2015-11-01T08:46:28.000Z</time>
      </trkpt>
      <trkpt lat="47.54025" lon="6.76366">
        <ele>436</ele>
        <time>2015-11-01T08:46:29.000Z</time>
      </trkpt>
      <trkpt lat="47.54027" lon="6.76361">
        <ele>436</ele>
        <time>2015-11-01T08:46:30.000Z</time>
      </trkpt>
      <trkpt lat="47.54029" lon="6.76357">
        <ele>436</ele>
        <time>2015-11-01T08:46:31.000Z</time>
      </trkpt>
      <trkpt lat="47.5403" lon="6.76353">
        <ele>436</ele>
        <time>2015-11-01T08:46:32.000Z</time>
      </trkpt>
      <trkpt lat="47.54031" lon="6.76349">
        <ele>436</ele>
        <time>2015-11-01T08:46:33.000Z</time>
      </trkpt>
      <trkpt lat="47.54031" lon="6.76345">
        <ele>436</ele>
        <time>2015-11-01T08:46:34.000Z</time>
      </trkpt>
      <trkpt lat="47.54032" lon="6.76341">
        <ele>436</ele>
        <time>2015-11-01T08:46:35.000Z</time>
      </trkpt>
      <trkpt lat="47.54032" lon="6.76337">
        <ele>436</ele>
        <time>2015-11-01T08:46:36.000Z</time>
      </trkpt>
      <trkpt lat="47.54033" lon="6.76334">
        <ele>436</ele>
        <time>2015-11-01T08:46:37.000Z</time>
      </trkpt>
      <trkpt lat="47.54034" lon="6.7633">
        <ele>436</ele>
        <time>2015-11-01T08:46:38.000Z</time>
      </trkpt>
      <trkpt lat="47.54035" lon="6.76326">
        <ele>436</ele>
        <time>2015-11-01T08:46:39.000Z</time>
      </trkpt>
      <trkpt lat="47.54036" lon="6.76322">
        <ele>436</ele>
        <time>2015-11-01T08:46:40.000Z</time>
      </trkpt>
      <trkpt lat="47.54038" lon="6.76319">
        <ele>436</ele>
        <time>2015-11-01T08:46:41.000Z</time>
      </trkpt>
      <trkpt lat="47.54039" lon="6.76315">
        <ele>436</ele>
        <time>2015-11-01T08:46:42.000Z</time>
      </trkpt>
      <trkpt lat="47.54039" lon="6.76311">
        <ele>436</ele>
        <time>2015-11-01T08:46:43.000Z</time>
      </trkpt>
      <trkpt lat="47.5404" lon="6.76307">
        <ele>436</ele>
        <time>2015-11-01T08:46:44.000Z</time>
      </trkpt>
      <trkpt lat="47.5404" lon="6.76303">
        <ele>436</ele>
        <time>2015-11-01T08:46:45.000Z</time>
      </trkpt>
      <trkpt lat="47.5404" lon="6.763">
        <ele>436</ele>
        <time>2015-11-01T08:46:46.000Z</time>
      </trkpt>
      <trkpt lat="47.54041" lon="6.76295">
        <ele>436</ele>
        <time>2015-11-01T08:46:48.000Z</time>
      </trkpt>
      <trkpt lat="47.54042" lon="6.76293">
        <ele>436</ele>
        <time>2015-11-01T08:46:49.000Z</time>
      </trkpt>
      <trkpt lat="47.54044" lon="6.76287">
        <ele>435</ele>
        <time>2015-11-01T08:46:51.000Z</time>
      </trkpt>
      <trkpt lat="47.54045" lon="6.76284">
        <ele>435</ele>
        <time>2015-11-01T08:46:52.000Z</time>
      </trkpt>
      <trkpt lat="47.54046" lon="6.7628">
        <ele>435</ele>
        <time>2015-11-01T08:46:53.000Z</time>
      </trkpt>
      <trkpt lat="47.54048" lon="6.76276">
        <ele>435</ele>
        <time>2015-11-01T08:46:54.000Z</time>
      </trkpt>
      <trkpt lat="47.54049" lon="6.76272">
        <ele>435</ele>
        <time>2015-11-01T08:46:55.000Z</time>
      </trkpt>
      <trkpt lat="47.5405" lon="6.76268">
        <ele>435</ele>
        <time>2015-11-01T08:46:56.000Z</time>
      </trkpt>
      <trkpt lat="47.54052" lon="6.76262">
        <ele>435</ele>
        <time>2015-11-01T08:46:58.000Z</time>
      </trkpt>
      <trkpt lat="47.54053" lon="6.76259">
        <ele>435</ele>
        <time>2015-11-01T08:46:59.000Z</time>
      </trkpt>
      <trkpt lat="47.54053" lon="6.76253">
        <ele>435</ele>
        <time>2015-11-01T08:47:01.000Z</time>
      </trkpt>
      <trkpt lat="47.54054" lon="6.7625">
        <ele>435</ele>
        <time>2015-11-01T08:47:02.000Z</time>
      </trkpt>
      <trkpt lat="47.54055" lon="6.76245">
        <ele>436</ele>
        <time>2015-11-01T08:47:04.000Z</time>
      </trkpt>
      <trkpt lat="47.54056" lon="6.76242">
        <ele>436</ele>
        <time>2015-11-01T08:47:05.000Z</time>
      </trkpt>
      <trkpt lat="47.54059" lon="6.76238">
        <ele>436</ele>
        <time>2015-11-01T08:47:07.000Z</time>
      </trkpt>
      <trkpt lat="47.5406" lon="6.76235">
        <ele>436</ele>
        <time>2015-11-01T08:47:08.000Z</time>
      </trkpt>
      <trkpt lat="47.54061" lon="6.76232">
        <ele>436</ele>
        <time>2015-11-01T08:47:09.000Z</time>
      </trkpt>
      <trkpt lat="47.54062" lon="6.76228">
        <ele>436</ele>
        <time>2015-11-01T08:47:10.000Z</time>
      </trkpt>
      <trkpt lat="47.54063" lon="6.76224">
        <ele>436</ele>
        <time>2015-11-01T08:47:11.000Z</time>
      </trkpt>
      <trkpt lat="47.54064" lon="6.7622">
        <ele>436</ele>
        <time>2015-11-01T08:47:12.000Z</time>
      </trkpt>
      <trkpt lat="47.54066" lon="6.76214">
        <ele>436</ele>
        <time>2015-11-01T08:47:13.000Z</time>
      </trkpt>
      <trkpt lat="47.54067" lon="6.76209">
        <ele>436</ele>
        <time>2015-11-01T08:47:14.000Z</time>
      </trkpt>
      <trkpt lat="47.5407" lon="6.76196">
        <ele>436</ele>
        <time>2015-11-01T08:47:16.000Z</time>
      </trkpt>
      <trkpt lat="47.54071" lon="6.7619">
        <ele>436</ele>
        <time>2015-11-01T08:47:17.000Z</time>
      </trkpt>
      <trkpt lat="47.54073" lon="6.76185">
        <ele>437</ele>
        <time>2015-11-01T08:47:18.000Z</time>
      </trkpt>
      <trkpt lat="47.54075" lon="6.7618">
        <ele>437</ele>
        <time>2015-11-01T08:47:19.000Z</time>
      </trkpt>
      <trkpt lat="47.54077" lon="6.76176">
        <ele>437</ele>
        <time>2015-11-01T08:47:20.000Z</time>
      </trkpt>
      <trkpt lat="47.54078" lon="6.76173">
        <ele>437</ele>
        <time>2015-11-01T08:47:21.000Z</time>
      </trkpt>
      <trkpt lat="47.54079" lon="6.76169">
        <ele>438</ele>
        <time>2015-11-01T08:47:22.000Z</time>
      </trkpt>
      <trkpt lat="47.5408" lon="6.76166">
        <ele>438</ele>
        <time>2015-11-01T08:47:23.000Z</time>
      </trkpt>
      <trkpt lat="47.54081" lon="6.76163">
        <ele>438</ele>
        <time>2015-11-01T08:47:24.000Z</time>
      </trkpt>
      <trkpt lat="47.54082" lon="6.76157">
        <ele>437</ele>
        <time>2015-11-01T08:47:26.000Z</time>
      </trkpt>
      <trkpt lat="47.54083" lon="6.76154">
        <ele>437</ele>
        <time>2015-11-01T08:47:27.000Z</time>
      </trkpt>
      <trkpt lat="47.54084" lon="6.76147">
        <ele>437</ele>
        <time>2015-11-01T08:47:29.000Z</time>
      </trkpt>
      <trkpt lat="47.54084" lon="6.76144">
        <ele>437</ele>
        <time>2015-11-01T08:47:30.000Z</time>
      </trkpt>
      <trkpt lat="47.54085" lon="6.76141">
        <ele>437</ele>
        <time>2015-11-01T08:47:31.000Z</time>
      </trkpt>
      <trkpt lat="47.54086" lon="6.76137">
        <ele>437</ele>
        <time>2015-11-01T08:47:32.000Z</time>
      </trkpt>
      <trkpt lat="47.54087" lon="6.76134">
        <ele>437</ele>
        <time>2015-11-01T08:47:33.000Z</time>
      </trkpt>
      <trkpt lat="47.54089" lon="6.76131">
        <ele>437</ele>
        <time>2015-11-01T08:47:34.000Z</time>
      </trkpt>
      <trkpt lat="47.5409" lon="6.76127">
        <ele>437</ele>
        <time>2015-11-01T08:47:35.000Z</time>
      </trkpt>
      <trkpt lat="47.5409" lon="6.76123">
        <ele>437</ele>
        <time>2015-11-01T08:47:36.000Z</time>
      </trkpt>
      <trkpt lat="47.54091" lon="6.7612">
        <ele>437</ele>
        <time>2015-11-01T08:47:37.000Z</time>
      </trkpt>
      <trkpt lat="47.54091" lon="6.76116">
        <ele>437</ele>
        <time>2015-11-01T08:47:38.000Z</time>
      </trkpt>
      <trkpt lat="47.54092" lon="6.76114">
        <ele>437</ele>
        <time>2015-11-01T08:47:38.999Z</time>
      </trkpt>
      <trkpt lat="47.54091" lon="6.76109">
        <ele>437</ele>
        <time>2015-11-01T08:47:40.000Z</time>
      </trkpt>
      <trkpt lat="47.5409" lon="6.76105">
        <ele>437</ele>
        <time>2015-11-01T08:47:41.000Z</time>
      </trkpt>
      <trkpt lat="47.5409" lon="6.76101">
        <ele>437</ele>
        <time>2015-11-01T08:47:42.000Z</time>
      </trkpt>
      <trkpt lat="47.54089" lon="6.76098">
        <ele>437</ele>
        <time>2015-11-01T08:47:43.000Z</time>
      </trkpt>
      <trkpt lat="47.54088" lon="6.76095">
        <ele>437</ele>
        <time>2015-11-01T08:47:44.000Z</time>
      </trkpt>
      <trkpt lat="47.54086" lon="6.76089">
        <ele>438</ele>
        <time>2015-11-01T08:47:47.000Z</time>
      </trkpt>
      <trkpt lat="47.54086" lon="6.76087">
        <ele>438</ele>
        <time>2015-11-01T08:47:48.000Z</time>
      </trkpt>
      <trkpt lat="47.54088" lon="6.76081">
        <ele>438</ele>
        <time>2015-11-01T08:49:05.000Z</time>
      </trkpt>
      <trkpt lat="47.54088" lon="6.7608">
        <ele>438</ele>
        <time>2015-11-01T08:49:06.000Z</time>
      </trkpt>
      <trkpt lat="47.54087" lon="6.76074">
        <ele>437</ele>
        <time>2015-11-01T08:49:14.000Z</time>
      </trkpt>
      <trkpt lat="47.54087" lon="6.76074">
        <ele>437</ele>
        <time>2015-11-01T08:49:15.000Z</time>
      </trkpt>
      <trkpt lat="47.54089" lon="6.76069">
        <ele>437</ele>
        <time>2015-11-01T08:49:47.000Z</time>
      </trkpt>
      <trkpt lat="47.54091" lon="6.76068">
        <ele>437</ele>
        <time>2015-11-01T08:49:48.000Z</time>
      </trkpt>
      <trkpt lat="47.54092" lon="6.76065">
        <ele>437</ele>
        <time>2015-11-01T08:49:49.000Z</time>
      </trkpt>
      <trkpt lat="47.54093" lon="6.76062">
        <ele>437</ele>
        <time>2015-11-01T08:49:50.000Z</time>
      </trkpt>
      <trkpt lat="47.54095" lon="6.76058">
        <ele>436</ele>
        <time>2015-11-01T08:49:51.000Z</time>
      </trkpt>
      <trkpt lat="47.54097" lon="6.76054">
        <ele>436</ele>
        <time>2015-11-01T08:49:52.000Z</time>
      </trkpt>
      <trkpt lat="47.54098" lon="6.7605">
        <ele>436</ele>
        <time>2015-11-01T08:49:53.000Z</time>
      </trkpt>
      <trkpt lat="47.54098" lon="6.76046">
        <ele>436</ele>
        <time>2015-11-01T08:49:54.000Z</time>
      </trkpt>
      <trkpt lat="47.54099" lon="6.76043">
        <ele>436</ele>
        <time>2015-11-01T08:49:55.000Z</time>
      </trkpt>
      <trkpt lat="47.54098" lon="6.7604">
        <ele>436</ele>
        <time>2015-11-01T08:49:56.000Z</time>
      </trkpt>
      <trkpt lat="47.54099" lon="6.76035">
        <ele>436</ele>
        <time>2015-11-01T08:49:57.000Z</time>
      </trkpt>
      <trkpt lat="47.54099" lon="6.76029">
        <ele>436</ele>
        <time>2015-11-01T08:49:58.000Z</time>
      </trkpt>
      <trkpt lat="47.541" lon="6.76023">
        <ele>436</ele>
        <time>2015-11-01T08:49:59.000Z</time>
      </trkpt>
      <trkpt lat="47.54102" lon="6.76017">
        <ele>436</ele>
        <time>2015-11-01T08:50:00.000Z</time>
      </trkpt>
      <trkpt lat="47.54104" lon="6.76012">
        <ele>436</ele>
        <time>2015-11-01T08:50:01.000Z</time>
      </trkpt>
      <trkpt lat="47.54106" lon="6.76008">
        <ele>436</ele>
        <time>2015-11-01T08:50:02.000Z</time>
      </trkpt>
      <trkpt lat="47.54108" lon="6.76004">
        <ele>436</ele>
        <time>2015-11-01T08:50:03.000Z</time>
      </trkpt>
      <trkpt lat="47.54109" lon="6.76001">
        <ele>436</ele>
        <time>2015-11-01T08:50:04.000Z</time>
      </trkpt>
      <trkpt lat="47.54111" lon="6.75996">
        <ele>437</ele>
        <time>2015-11-01T08:50:05.000Z</time>
      </trkpt>
      <trkpt lat="47.54112" lon="6.75992">
        <ele>437</ele>
        <time>2015-11-01T08:50:06.000Z</time>
      </trkpt>
      <trkpt lat="47.54114" lon="6.75987">
        <ele>437</ele>
        <time>2015-11-01T08:50:07.000Z</time>
      </trkpt>
      <trkpt lat="47.54115" lon="6.75982">
        <ele>437</ele>
        <time>2015-11-01T08:50:08.000Z</time>
      </trkpt>
      <trkpt lat="47.54117" lon="6.75978">
        <ele>437</ele>
        <time>2015-11-01T08:50:09.000Z</time>
      </trkpt>
      <trkpt lat="47.54118" lon="6.75973">
        <ele>437</ele>
        <time>2015-11-01T08:50:10.000Z</time>
      </trkpt>
      <trkpt lat="47.54119" lon="6.75968">
        <ele>437</ele>
        <time>2015-11-01T08:50:11.000Z</time>
      </trkpt>
      <trkpt lat="47.5412" lon="6.75963">
        <ele>437</ele>
        <time>2015-11-01T08:50:12.000Z</time>
      </trkpt>
      <trkpt lat="47.54121" lon="6.75958">
        <ele>437</ele>
        <time>2015-11-01T08:50:13.000Z</time>
      </trkpt>
      <trkpt lat="47.54121" lon="6.75954">
        <ele>437</ele>
        <time>2015-11-01T08:50:14.000Z</time>
      </trkpt>
      <trkpt lat="47.54122" lon="6.7595">
        <ele>437</ele>
        <time>2015-11-01T08:50:15.000Z</time>
      </trkpt>
      <trkpt lat="47.54123" lon="6.75946">
        <ele>437</ele>
        <time>2015-11-01T08:50:16.000Z</time>
      </trkpt>
      <trkpt lat="47.54123" lon="6.75941">
        <ele>437</ele>
        <time>2015-11-01T08:50:17.000Z</time>
      </trkpt>
      <trkpt lat="47.54124" lon="6.75937">
        <ele>437</ele>
        <time>2015-11-01T08:50:18.000Z</time>
      </trkpt>
      <trkpt lat="47.54124" lon="6.75933">
        <ele>437</ele>
        <time>2015-11-01T08:50:19.000Z</time>
      </trkpt>
      <trkpt lat="47.54125" lon="6.75928">
        <ele>437</ele>
        <time>2015-11-01T08:50:20.000Z</time>
      </trkpt>
      <trkpt lat="47.54125" lon="6.75923">
        <ele>437</ele>
        <time>2015-11-01T08:50:21.000Z</time>
      </trkpt>
      <trkpt lat="47.54125" lon="6.75918">
        <ele>437</ele>
        <time>2015-11-01T08:50:22.000Z</time>
      </trkpt>
      <trkpt lat="47.54125" lon="6.75911">
        <ele>438</ele>
        <time>2015-11-01T08:50:23.000Z</time>
      </trkpt>
      <trkpt lat="47.54125" lon="6.75904">
        <ele>439</ele>
        <time>2015-11-01T08:50:24.000Z</time>
      </trkpt>
      <trkpt lat="47.54125" lon="6.75897">
        <ele>439</ele>
        <time>2015-11-01T08:50:25.000Z</time>
      </trkpt>
      <trkpt lat="47.54125" lon="6.75891">
        <ele>439</ele>
        <time>2015-11-01T08:50:26.000Z</time>
      </trkpt>
      <trkpt lat="47.54125" lon="6.75885">
        <ele>439</ele>
        <time>2015-11-01T08:50:27.000Z</time>
      </trkpt>
      <trkpt lat="47.54126" lon="6.75879">
        <ele>439</ele>
        <time>2015-11-01T08:50:28.000Z</time>
      </trkpt>
      <trkpt lat="47.54126" lon="6.75873">
        <ele>439</ele>
        <time>2015-11-01T08:50:29.000Z</time>
      </trkpt>
      <trkpt lat="47.54127" lon="6.75868">
        <ele>439</ele>
        <time>2015-11-01T08:50:30.000Z</time>
      </trkpt>
      <trkpt lat="47.54128" lon="6.75863">
        <ele>439</ele>
        <time>2015-11-01T08:50:31.000Z</time>
      </trkpt>
      <trkpt lat="47.54131" lon="6.75858">
        <ele>439</ele>
        <time>2015-11-01T08:50:32.000Z</time>
      </trkpt>
      <trkpt lat="47.54133" lon="6.75855">
        <ele>440</ele>
        <time>2015-11-01T08:50:33.000Z</time>
      </trkpt>
      <trkpt lat="47.54136" lon="6.75851">
        <ele>440</ele>
        <time>2015-11-01T08:50:34.000Z</time>
      </trkpt>
      <trkpt lat="47.54137" lon="6.75847">
        <ele>440</ele>
        <time>2015-11-01T08:50:35.000Z</time>
      </trkpt>
      <trkpt lat="47.54138" lon="6.75842">
        <ele>440</ele>
        <time>2015-11-01T08:50:36.000Z</time>
      </trkpt>
      <trkpt lat="47.54139" lon="6.75837">
        <ele>440</ele>
        <time>2015-11-01T08:50:37.000Z</time>
      </trkpt>
      <trkpt lat="47.5414" lon="6.75832">
        <ele>442</ele>
        <time>2015-11-01T08:50:38.000Z</time>
      </trkpt>
      <trkpt lat="47.54141" lon="6.75826">
        <ele>442</ele>
        <time>2015-11-01T08:50:39.000Z</time>
      </trkpt>
      <trkpt lat="47.54143" lon="6.75821">
        <ele>443</ele>
        <time>2015-11-01T08:50:40.000Z</time>
      </trkpt>
      <trkpt lat="47.54144" lon="6.75816">
        <ele>443</ele>
        <time>2015-11-01T08:50:41.000Z</time>
      </trkpt>
      <trkpt lat="47.54146" lon="6.75811">
        <ele>443</ele>
        <time>2015-11-01T08:50:42.000Z</time>
      </trkpt>
      <trkpt lat="47.54148" lon="6.75807">
        <ele>443</ele>
        <time>2015-11-01T08:50:43.000Z</time>
      </trkpt>
      <trkpt lat="47.5415" lon="6.75803">
        <ele>443</ele>
        <time>2015-11-01T08:50:44.000Z</time>
      </trkpt>
      <trkpt lat="47.54152" lon="6.758">
        <ele>443</ele>
        <time>2015-11-01T08:50:45.000Z</time>
      </trkpt>
      <trkpt lat="47.54154" lon="6.75797">
        <ele>443</ele>
        <time>2015-11-01T08:50:46.000Z</time>
      </trkpt>
      <trkpt lat="47.54155" lon="6.75794">
        <ele>444</ele>
        <time>2015-11-01T08:50:47.000Z</time>
      </trkpt>
      <trkpt lat="47.54156" lon="6.75791">
        <ele>444</ele>
        <time>2015-11-01T08:50:48.000Z</time>
      </trkpt>
      <trkpt lat="47.54157" lon="6.75787">
        <ele>444</ele>
        <time>2015-11-01T08:50:49.000Z</time>
      </trkpt>
      <trkpt lat="47.54158" lon="6.75784">
        <ele>444</ele>
        <time>2015-11-01T08:50:50.000Z</time>
      </trkpt>
      <trkpt lat="47.54159" lon="6.7578">
        <ele>444</ele>
        <time>2015-11-01T08:50:51.000Z</time>
      </trkpt>
      <trkpt lat="47.5416" lon="6.75776">
        <ele>445</ele>
        <time>2015-11-01T08:50:52.000Z</time>
      </trkpt>
      <trkpt lat="47.54161" lon="6.75773">
        <ele>445</ele>
        <time>2015-11-01T08:50:53.000Z</time>
      </trkpt>
      <trkpt lat="47.54162" lon="6.75769">
        <ele>445</ele>
        <time>2015-11-01T08:50:54.000Z</time>
      </trkpt>
      <trkpt lat="47.54164" lon="6.75766">
        <ele>446</ele>
        <time>2015-11-01T08:50:55.000Z</time>
      </trkpt>
      <trkpt lat="47.54165" lon="6.75763">
        <ele>446</ele>
        <time>2015-11-01T08:50:56.000Z</time>
      </trkpt>
      <trkpt lat="47.54167" lon="6.7576">
        <ele>447</ele>
        <time>2015-11-01T08:50:57.000Z</time>
      </trkpt>
      <trkpt lat="47.54168" lon="6.75757">
        <ele>448</ele>
        <time>2015-11-01T08:50:58.000Z</time>
      </trkpt>
      <trkpt lat="47.54169" lon="6.75754">
        <ele>448</ele>
        <time>2015-11-01T08:50:59.000Z</time>
      </trkpt>
      <trkpt lat="47.54169" lon="6.75751">
        <ele>449</ele>
        <time>2015-11-01T08:51:00.000Z</time>
      </trkpt>
      <trkpt lat="47.5417" lon="6.75748">
        <ele>449</ele>
        <time>2015-11-01T08:51:01.000Z</time>
      </trkpt>
      <trkpt lat="47.54171" lon="6.75744">
        <ele>449</ele>
        <time>2015-11-01T08:51:02.000Z</time>
      </trkpt>
      <trkpt lat="47.54172" lon="6.75741">
        <ele>449</ele>
        <time>2015-11-01T08:51:03.000Z</time>
      </trkpt>
      <trkpt lat="47.54173" lon="6.75737">
        <ele>450</ele>
        <time>2015-11-01T08:51:04.000Z</time>
      </trkpt>
      <trkpt lat="47.54174" lon="6.75734">
        <ele>450</ele>
        <time>2015-11-01T08:51:05.000Z</time>
      </trkpt>
      <trkpt lat="47.54175" lon="6.7573">
        <ele>450</ele>
        <time>2015-11-01T08:51:06.000Z</time>
      </trkpt>
      <trkpt lat="47.54176" lon="6.75727">
        <ele>450</ele>
        <time>2015-11-01T08:51:07.000Z</time>
      </trkpt>
      <trkpt lat="47.54177" lon="6.75724">
        <ele>450</ele>
        <time>2015-11-01T08:51:08.000Z</time>
      </trkpt>
      <trkpt lat="47.54177" lon="6.75721">
        <ele>450</ele>
        <time>2015-11-01T08:51:09.000Z</time>
      </trkpt>
      <trkpt lat="47.54178" lon="6.75717">
        <ele>450</ele>
        <time>2015-11-01T08:51:10.000Z</time>
      </trkpt>
      <trkpt lat="47.54178" lon="6.75713">
        <ele>450</ele>
        <time>2015-11-01T08:51:11.000Z</time>
      </trkpt>
      <trkpt lat="47.54178" lon="6.75709">
        <ele>450</ele>
        <time>2015-11-01T08:51:12.000Z</time>
      </trkpt>
      <trkpt lat="47.54178" lon="6.75705">
        <ele>450</ele>
        <time>2015-11-01T08:51:13.000Z</time>
      </trkpt>
      <trkpt lat="47.54178" lon="6.75699">
        <ele>450</ele>
        <time>2015-11-01T08:51:15.000Z</time>
      </trkpt>
      <trkpt lat="47.54179" lon="6.75695">
        <ele>450</ele>
        <time>2015-11-01T08:51:16.000Z</time>
      </trkpt>
      <trkpt lat="47.54179" lon="6.75692">
        <ele>450</ele>
        <time>2015-11-01T08:51:17.000Z</time>
      </trkpt>
      <trkpt lat="47.5418" lon="6.75689">
        <ele>450</ele>
        <time>2015-11-01T08:51:18.000Z</time>
      </trkpt>
      <trkpt lat="47.54181" lon="6.75683">
        <ele>451</ele>
        <time>2015-11-01T08:51:20.000Z</time>
      </trkpt>
      <trkpt lat="47.54183" lon="6.7568">
        <ele>451</ele>
        <time>2015-11-01T08:51:21.000Z</time>
      </trkpt>
      <trkpt lat="47.54185" lon="6.75674">
        <ele>451</ele>
        <time>2015-11-01T08:51:23.000Z</time>
      </trkpt>
      <trkpt lat="47.54186" lon="6.75672">
        <ele>451</ele>
        <time>2015-11-01T08:51:24.000Z</time>
      </trkpt>
      <trkpt lat="47.54187" lon="6.75665">
        <ele>452</ele>
        <time>2015-11-01T08:51:26.000Z</time>
      </trkpt>
      <trkpt lat="47.54188" lon="6.75662">
        <ele>452</ele>
        <time>2015-11-01T08:51:27.000Z</time>
      </trkpt>
      <trkpt lat="47.54189" lon="6.75658">
        <ele>452</ele>
        <time>2015-11-01T08:51:28.000Z</time>
      </trkpt>
      <trkpt lat="47.54191" lon="6.75655">
        <ele>452</ele>
        <time>2015-11-01T08:51:29.000Z</time>
      </trkpt>
      <trkpt lat="47.54192" lon="6.75651">
        <ele>452</ele>
        <time>2015-11-01T08:51:30.000Z</time>
      </trkpt>
      <trkpt lat="47.54194" lon="6.75647">
        <ele>452</ele>
        <time>2015-11-01T08:51:31.000Z</time>
      </trkpt>
      <trkpt lat="47.54195" lon="6.75644">
        <ele>453</ele>
        <time>2015-11-01T08:51:32.000Z</time>
      </trkpt>
      <trkpt lat="47.54196" lon="6.7564">
        <ele>453</ele>
        <time>2015-11-01T08:51:33.000Z</time>
      </trkpt>
      <trkpt lat="47.54196" lon="6.75636">
        <ele>453</ele>
        <time>2015-11-01T08:51:34.000Z</time>
      </trkpt>
      <trkpt lat="47.54197" lon="6.75632">
        <ele>453</ele>
        <time>2015-11-01T08:51:35.000Z</time>
      </trkpt>
      <trkpt lat="47.54198" lon="6.75628">
        <ele>453</ele>
        <time>2015-11-01T08:51:36.000Z</time>
      </trkpt>
      <trkpt lat="47.54198" lon="6.75624">
        <ele>453</ele>
        <time>2015-11-01T08:51:37.000Z</time>
      </trkpt>
      <trkpt lat="47.54199" lon="6.75621">
        <ele>453</ele>
        <time>2015-11-01T08:51:38.000Z</time>
      </trkpt>
      <trkpt lat="47.542" lon="6.75617">
        <ele>453</ele>
        <time>2015-11-01T08:51:39.000Z</time>
      </trkpt>
      <trkpt lat="47.54201" lon="6.75612">
        <ele>453</ele>
        <time>2015-11-01T08:51:40.000Z</time>
      </trkpt>
      <trkpt lat="47.54202" lon="6.75608">
        <ele>453</ele>
        <time>2015-11-01T08:51:41.000Z</time>
      </trkpt>
      <trkpt lat="47.54203" lon="6.75604">
        <ele>453</ele>
        <time>2015-11-01T08:51:42.000Z</time>
      </trkpt>
      <trkpt lat="47.54205" lon="6.75599">
        <ele>453</ele>
        <time>2015-11-01T08:51:43.000Z</time>
      </trkpt>
      <trkpt lat="47.54207" lon="6.75595">
        <ele>453</ele>
        <time>2015-11-01T08:51:44.000Z</time>
      </trkpt>
      <trkpt lat="47.54209" lon="6.75592">
        <ele>454</ele>
        <time>2015-11-01T08:51:45.000Z</time>
      </trkpt>
      <trkpt lat="47.54211" lon="6.75588">
        <ele>454</ele>
        <time>2015-11-01T08:51:46.000Z</time>
      </trkpt>
      <trkpt lat="47.54213" lon="6.75584">
        <ele>454</ele>
        <time>2015-11-01T08:51:47.000Z</time>
      </trkpt>
      <trkpt lat="47.54214" lon="6.7558">
        <ele>455</ele>
        <time>2015-11-01T08:51:48.000Z</time>
      </trkpt>
      <trkpt lat="47.54216" lon="6.75576">
        <ele>455</ele>
        <time>2015-11-01T08:51:49.000Z</time>
      </trkpt>
      <trkpt lat="47.54217" lon="6.75572">
        <ele>455</ele>
        <time>2015-11-01T08:51:50.000Z</time>
      </trkpt>
      <trkpt lat="47.54218" lon="6.75569">
        <ele>455</ele>
        <time>2015-11-01T08:51:51.000Z</time>
      </trkpt>
      <trkpt lat="47.54219" lon="6.75566">
        <ele>455</ele>
        <time>2015-11-01T08:51:52.000Z</time>
      </trkpt>
      <trkpt lat="47.54221" lon="6.75563">
        <ele>455</ele>
        <time>2015-11-01T08:51:53.000Z</time>
      </trkpt>
      <trkpt lat="47.54222" lon="6.7556">
        <ele>455</ele>
        <time>2015-11-01T08:51:54.000Z</time>
      </trkpt>
      <trkpt lat="47.54223" lon="6.75556">
        <ele>455</ele>
        <time>2015-11-01T08:51:55.000Z</time>
      </trkpt>
      <trkpt lat="47.54225" lon="6.75552">
        <ele>455</ele>
        <time>2015-11-01T08:51:56.000Z</time>
      </trkpt>
      <trkpt lat="47.54225" lon="6.75548">
        <ele>456</ele>
        <time>2015-11-01T08:51:57.000Z</time>
      </trkpt>
      <trkpt lat="47.54226" lon="6.75542">
        <ele>456</ele>
        <time>2015-11-01T08:51:59.000Z</time>
      </trkpt>
      <trkpt lat="47.54226" lon="6.75539">
        <ele>456</ele>
        <time>2015-11-01T08:52:00.000Z</time>
      </trkpt>
      <trkpt lat="47.54227" lon="6.75534">
        <ele>456</ele>
        <time>2015-11-01T08:52:02.000Z</time>
      </trkpt>
      <trkpt lat="47.54228" lon="6.75531">
        <ele>456</ele>
        <time>2015-11-01T08:52:03.000Z</time>
      </trkpt>
      <trkpt lat="47.54229" lon="6.75525">
        <ele>456</ele>
        <time>2015-11-01T08:52:05.000Z</time>
      </trkpt>
      <trkpt lat="47.5423" lon="6.75522">
        <ele>456</ele>
        <time>2015-11-01T08:52:06.000Z</time>
      </trkpt>
      <trkpt lat="47.54231" lon="6.75518">
        <ele>456</ele>
        <time>2015-11-01T08:52:07.000Z</time>
      </trkpt>
      <trkpt lat="47.54232" lon="6.75514">
        <ele>456</ele>
        <time>2015-11-01T08:52:08.000Z</time>
      </trkpt>
      <trkpt lat="47.54233" lon="6.75511">
        <ele>456</ele>
        <time>2015-11-01T08:52:09.000Z</time>
      </trkpt>
      <trkpt lat="47.54234" lon="6.75507">
        <ele>457</ele>
        <time>2015-11-01T08:52:10.000Z</time>
      </trkpt>
      <trkpt lat="47.54235" lon="6.75503">
        <ele>457</ele>
        <time>2015-11-01T08:52:11.000Z</time>
      </trkpt>
      <trkpt lat="47.54236" lon="6.755">
        <ele>457</ele>
        <time>2015-11-01T08:52:12.000Z</time>
      </trkpt>
      <trkpt lat="47.54237" lon="6.75497">
        <ele>457</ele>
        <time>2015-11-01T08:52:13.000Z</time>
      </trkpt>
      <trkpt lat="47.54239" lon="6.75494">
        <ele>457</ele>
        <time>2015-11-01T08:52:14.000Z</time>
      </trkpt>
      <trkpt lat="47.5424" lon="6.75491">
        <ele>457</ele>
        <time>2015-11-01T08:52:15.000Z</time>
      </trkpt>
      <trkpt lat="47.54242" lon="6.75488">
        <ele>457</ele>
        <time>2015-11-01T08:52:16.000Z</time>
      </trkpt>
      <trkpt lat="47.54244" lon="6.75485">
        <ele>457</ele>
        <time>2015-11-01T08:52:17.000Z</time>
      </trkpt>
      <trkpt lat="47.54246" lon="6.75483">
        <ele>457</ele>
        <time>2015-11-01T08:52:18.000Z</time>
      </trkpt>
      <trkpt lat="47.54249" lon="6.75481">
        <ele>458</ele>
        <time>2015-11-01T08:52:19.000Z</time>
      </trkpt>
      <trkpt lat="47.54251" lon="6.7548">
        <ele>459</ele>
        <time>2015-11-01T08:52:20.000Z</time>
      </trkpt>
      <trkpt lat="47.54254" lon="6.75478">
        <ele>459</ele>
        <time>2015-11-01T08:52:21.000Z</time>
      </trkpt>
      <trkpt lat="47.54255" lon="6.75475">
        <ele>459</ele>
        <time>2015-11-01T08:52:22.000Z</time>
      </trkpt>
      <trkpt lat="47.54258" lon="6.7547">
        <ele>460</ele>
        <time>2015-11-01T08:52:24.000Z</time>
      </trkpt>
      <trkpt lat="47.54259" lon="6.75467">
        <ele>460</ele>
        <time>2015-11-01T08:52:25.000Z</time>
      </trkpt>
      <trkpt lat="47.5426" lon="6.75465">
        <ele>460</ele>
        <time>2015-11-01T08:52:26.000Z</time>
      </trkpt>
      <trkpt lat="47.5426" lon="6.75461">
        <ele>460</ele>
        <time>2015-11-01T08:52:27.000Z</time>
      </trkpt>
      <trkpt lat="47.54261" lon="6.75456">
        <ele>460</ele>
        <time>2015-11-01T08:52:28.000Z</time>
      </trkpt>
      <trkpt lat="47.54261" lon="6.75451">
        <ele>460</ele>
        <time>2015-11-01T08:52:29.000Z</time>
      </trkpt>
      <trkpt lat="47.54262" lon="6.75447">
        <ele>460</ele>
        <time>2015-11-01T08:52:30.000Z</time>
      </trkpt>
      <trkpt lat="47.54264" lon="6.75442">
        <ele>460</ele>
        <time>2015-11-01T08:52:31.000Z</time>
      </trkpt>
      <trkpt lat="47.54266" lon="6.75438">
        <ele>460</ele>
        <time>2015-11-01T08:52:32.000Z</time>
      </trkpt>
      <trkpt lat="47.54268" lon="6.75434">
        <ele>460</ele>
        <time>2015-11-01T08:52:33.000Z</time>
      </trkpt>
      <trkpt lat="47.5427" lon="6.7543">
        <ele>460</ele>
        <time>2015-11-01T08:52:34.000Z</time>
      </trkpt>
      <trkpt lat="47.54272" lon="6.75426">
        <ele>460</ele>
        <time>2015-11-01T08:52:35.000Z</time>
      </trkpt>
      <trkpt lat="47.54274" lon="6.75423">
        <ele>460</ele>
        <time>2015-11-01T08:52:36.000Z</time>
      </trkpt>
      <trkpt lat="47.54276" lon="6.75419">
        <ele>460</ele>
        <time>2015-11-01T08:52:37.000Z</time>
      </trkpt>
      <trkpt lat="47.54277" lon="6.75416">
        <ele>462</ele>
        <time>2015-11-01T08:52:38.000Z</time>
      </trkpt>
      <trkpt lat="47.54279" lon="6.75412">
        <ele>462</ele>
        <time>2015-11-01T08:52:39.000Z</time>
      </trkpt>
      <trkpt lat="47.5428" lon="6.75408">
        <ele>462</ele>
        <time>2015-11-01T08:52:40.000Z</time>
      </trkpt>
      <trkpt lat="47.54282" lon="6.75405">
        <ele>462</ele>
        <time>2015-11-01T08:52:41.000Z</time>
      </trkpt>
      <trkpt lat="47.54283" lon="6.75399">
        <ele>462</ele>
        <time>2015-11-01T08:52:43.000Z</time>
      </trkpt>
      <trkpt lat="47.54284" lon="6.75396">
        <ele>462</ele>
        <time>2015-11-01T08:52:44.000Z</time>
      </trkpt>
      <trkpt lat="47.54285" lon="6.75392">
        <ele>462</ele>
        <time>2015-11-01T08:52:46.000Z</time>
      </trkpt>
      <trkpt lat="47.54286" lon="6.7539">
        <ele>462</ele>
        <time>2015-11-01T08:52:47.000Z</time>
      </trkpt>
      <trkpt lat="47.54287" lon="6.75387">
        <ele>462</ele>
        <time>2015-11-01T08:52:48.000Z</time>
      </trkpt>
      <trkpt lat="47.54289" lon="6.75384">
        <ele>462</ele>
        <time>2015-11-01T08:52:49.000Z</time>
      </trkpt>
      <trkpt lat="47.5429" lon="6.75381">
        <ele>462</ele>
        <time>2015-11-01T08:52:50.000Z</time>
      </trkpt>
      <trkpt lat="47.54292" lon="6.75377">
        <ele>462</ele>
        <time>2015-11-01T08:52:51.000Z</time>
      </trkpt>
      <trkpt lat="47.54293" lon="6.75373">
        <ele>463</ele>
        <time>2015-11-01T08:52:52.000Z</time>
      </trkpt>
      <trkpt lat="47.54294" lon="6.75369">
        <ele>463</ele>
        <time>2015-11-01T08:52:53.000Z</time>
      </trkpt>
      <trkpt lat="47.54295" lon="6.75365">
        <ele>463</ele>
        <time>2015-11-01T08:52:54.000Z</time>
      </trkpt>
      <trkpt lat="47.54296" lon="6.75362">
        <ele>463</ele>
        <time>2015-11-01T08:52:55.000Z</time>
      </trkpt>
      <trkpt lat="47.54298" lon="6.75359">
        <ele>463</ele>
        <time>2015-11-01T08:52:56.000Z</time>
      </trkpt>
      <trkpt lat="47.54299" lon="6.75356">
        <ele>463</ele>
        <time>2015-11-01T08:52:57.000Z</time>
      </trkpt>
      <trkpt lat="47.54301" lon="6.75353">
        <ele>463</ele>
        <time>2015-11-01T08:52:58.000Z</time>
      </trkpt>
      <trkpt lat="47.54303" lon="6.75349">
        <ele>463</ele>
        <time>2015-11-01T08:52:59.000Z</time>
      </trkpt>
      <trkpt lat="47.54305" lon="6.75346">
        <ele>463</ele>
        <time>2015-11-01T08:53:00.000Z</time>
      </trkpt>
      <trkpt lat="47.54306" lon="6.75343">
        <ele>463</ele>
        <time>2015-11-01T08:53:01.000Z</time>
      </trkpt>
      <trkpt lat="47.54308" lon="6.7534">
        <ele>464</ele>
        <time>2015-11-01T08:53:02.000Z</time>
      </trkpt>
      <trkpt lat="47.5431" lon="6.75337">
        <ele>464</ele>
        <time>2015-11-01T08:53:03.000Z</time>
      </trkpt>
      <trkpt lat="47.54312" lon="6.75335">
        <ele>464</ele>
        <time>2015-11-01T08:53:04.000Z</time>
      </trkpt>
      <trkpt lat="47.54314" lon="6.75333">
        <ele>465</ele>
        <time>2015-11-01T08:53:05.000Z</time>
      </trkpt>
      <trkpt lat="47.54316" lon="6.75331">
        <ele>465</ele>
        <time>2015-11-01T08:53:06.000Z</time>
      </trkpt>
      <trkpt lat="47.54318" lon="6.7533">
        <ele>465</ele>
        <time>2015-11-01T08:53:07.000Z</time>
      </trkpt>
      <trkpt lat="47.54321" lon="6.75327">
        <ele>465</ele>
        <time>2015-11-01T08:53:09.000Z</time>
      </trkpt>
      <trkpt lat="47.54322" lon="6.75325">
        <ele>465</ele>
        <time>2015-11-01T08:53:10.000Z</time>
      </trkpt>
      <trkpt lat="47.54324" lon="6.75319">
        <ele>465</ele>
        <time>2015-11-01T08:53:12.000Z</time>
      </trkpt>
      <trkpt lat="47.54325" lon="6.75316">
        <ele>465</ele>
        <time>2015-11-01T08:53:13.000Z</time>
      </trkpt>
      <trkpt lat="47.54327" lon="6.75313">
        <ele>465</ele>
        <time>2015-11-01T08:53:14.000Z</time>
      </trkpt>
      <trkpt lat="47.54328" lon="6.7531">
        <ele>465</ele>
        <time>2015-11-01T08:53:15.000Z</time>
      </trkpt>
      <trkpt lat="47.5433" lon="6.75308">
        <ele>465</ele>
        <time>2015-11-01T08:53:16.000Z</time>
      </trkpt>
      <trkpt lat="47.54331" lon="6.75305">
        <ele>465</ele>
        <time>2015-11-01T08:53:17.000Z</time>
      </trkpt>
      <trkpt lat="47.54333" lon="6.75303">
        <ele>465</ele>
        <time>2015-11-01T08:53:18.000Z</time>
      </trkpt>
      <trkpt lat="47.54335" lon="6.753">
        <ele>467</ele>
        <time>2015-11-01T08:53:19.000Z</time>
      </trkpt>
      <trkpt lat="47.54337" lon="6.75297">
        <ele>467</ele>
        <time>2015-11-01T08:53:20.000Z</time>
      </trkpt>
      <trkpt lat="47.54339" lon="6.75293">
        <ele>467</ele>
        <time>2015-11-01T08:53:21.000Z</time>
      </trkpt>
      <trkpt lat="47.54342" lon="6.75289">
        <ele>468</ele>
        <time>2015-11-01T08:53:22.000Z</time>
      </trkpt>
      <trkpt lat="47.54345" lon="6.75285">
        <ele>468</ele>
        <time>2015-11-01T08:53:23.000Z</time>
      </trkpt>
      <trkpt lat="47.54348" lon="6.75282">
        <ele>468</ele>
        <time>2015-11-01T08:53:24.000Z</time>
      </trkpt>
      <trkpt lat="47.54352" lon="6.7528">
        <ele>468</ele>
        <time>2015-11-01T08:53:25.000Z</time>
      </trkpt>
      <trkpt lat="47.54356" lon="6.75278">
        <ele>468</ele>
        <time>2015-11-01T08:53:26.000Z</time>
      </trkpt>
      <trkpt lat="47.54359" lon="6.75276">
        <ele>468</ele>
        <time>2015-11-01T08:53:27.000Z</time>
      </trkpt>
      <trkpt lat="47.54362" lon="6.75273">
        <ele>468</ele>
        <time>2015-11-01T08:53:28.000Z</time>
      </trkpt>
      <trkpt lat="47.54365" lon="6.75269">
        <ele>468</ele>
        <time>2015-11-01T08:53:29.000Z</time>
      </trkpt>
      <trkpt lat="47.54367" lon="6.75265">
        <ele>468</ele>
        <time>2015-11-01T08:53:30.000Z</time>
      </trkpt>
      <trkpt lat="47.5437" lon="6.75261">
        <ele>468</ele>
        <time>2015-11-01T08:53:31.000Z</time>
      </trkpt>
      <trkpt lat="47.54374" lon="6.75256">
        <ele>468</ele>
        <time>2015-11-01T08:53:32.000Z</time>
      </trkpt>
      <trkpt lat="47.54377" lon="6.75252">
        <ele>468</ele>
        <time>2015-11-01T08:53:33.000Z</time>
      </trkpt>
      <trkpt lat="47.5438" lon="6.75248">
        <ele>469</ele>
        <time>2015-11-01T08:53:34.000Z</time>
      </trkpt>
      <trkpt lat="47.54384" lon="6.75245">
        <ele>469</ele>
        <time>2015-11-01T08:53:35.000Z</time>
      </trkpt>
      <trkpt lat="47.54387" lon="6.75241">
        <ele>469</ele>
        <time>2015-11-01T08:53:36.000Z</time>
      </trkpt>
      <trkpt lat="47.5439" lon="6.75238">
        <ele>469</ele>
        <time>2015-11-01T08:53:37.000Z</time>
      </trkpt>
      <trkpt lat="47.54393" lon="6.75234">
        <ele>469</ele>
        <time>2015-11-01T08:53:38.000Z</time>
      </trkpt>
      <trkpt lat="47.54395" lon="6.7523">
        <ele>469</ele>
        <time>2015-11-01T08:53:39.000Z</time>
      </trkpt>
      <trkpt lat="47.54398" lon="6.75226">
        <ele>469</ele>
        <time>2015-11-01T08:53:40.000Z</time>
      </trkpt>
      <trkpt lat="47.54401" lon="6.75223">
        <ele>469</ele>
        <time>2015-11-01T08:53:41.000Z</time>
      </trkpt>
      <trkpt lat="47.54404" lon="6.7522">
        <ele>469</ele>
        <time>2015-11-01T08:53:42.000Z</time>
      </trkpt>
      <trkpt lat="47.54407" lon="6.75217">
        <ele>469</ele>
        <time>2015-11-01T08:53:43.000Z</time>
      </trkpt>
      <trkpt lat="47.5441" lon="6.75214">
        <ele>469</ele>
        <time>2015-11-01T08:53:44.000Z</time>
      </trkpt>
      <trkpt lat="47.54412" lon="6.75211">
        <ele>469</ele>
        <time>2015-11-01T08:53:45.000Z</time>
      </trkpt>
      <trkpt lat="47.54415" lon="6.75208">
        <ele>469</ele>
        <time>2015-11-01T08:53:46.000Z</time>
      </trkpt>
      <trkpt lat="47.54418" lon="6.75205">
        <ele>471</ele>
        <time>2015-11-01T08:53:47.000Z</time>
      </trkpt>
      <trkpt lat="47.5442" lon="6.75202">
        <ele>471</ele>
        <time>2015-11-01T08:53:48.000Z</time>
      </trkpt>
      <trkpt lat="47.54423" lon="6.752">
        <ele>471</ele>
        <time>2015-11-01T08:53:49.000Z</time>
      </trkpt>
      <trkpt lat="47.54426" lon="6.75197">
        <ele>471</ele>
        <time>2015-11-01T08:53:50.000Z</time>
      </trkpt>
      <trkpt lat="47.54428" lon="6.75195">
        <ele>471</ele>
        <time>2015-11-01T08:53:51.000Z</time>
      </trkpt>
      <trkpt lat="47.5443" lon="6.75193">
        <ele>471</ele>
        <time>2015-11-01T08:53:52.000Z</time>
      </trkpt>
      <trkpt lat="47.54432" lon="6.7519">
        <ele>471</ele>
        <time>2015-11-01T08:53:53.000Z</time>
      </trkpt>
      <trkpt lat="47.54434" lon="6.75186">
        <ele>471</ele>
        <time>2015-11-01T08:53:54.000Z</time>
      </trkpt>
      <trkpt lat="47.54437" lon="6.75183">
        <ele>471</ele>
        <time>2015-11-01T08:53:55.000Z</time>
      </trkpt>
      <trkpt lat="47.54439" lon="6.7518">
        <ele>471</ele>
        <time>2015-11-01T08:53:56.000Z</time>
      </trkpt>
      <trkpt lat="47.54442" lon="6.75176">
        <ele>471</ele>
        <time>2015-11-01T08:53:57.000Z</time>
      </trkpt>
      <trkpt lat="47.54445" lon="6.75172">
        <ele>471</ele>
        <time>2015-11-01T08:53:58.000Z</time>
      </trkpt>
      <trkpt lat="47.54448" lon="6.75169">
        <ele>471</ele>
        <time>2015-11-01T08:53:59.000Z</time>
      </trkpt>
      <trkpt lat="47.54451" lon="6.75165">
        <ele>471</ele>
        <time>2015-11-01T08:54:00.000Z</time>
      </trkpt>
      <trkpt lat="47.54454" lon="6.75162">
        <ele>471</ele>
        <time>2015-11-01T08:54:01.000Z</time>
      </trkpt>
      <trkpt lat="47.54458" lon="6.75159">
        <ele>471</ele>
        <time>2015-11-01T08:54:02.000Z</time>
      </trkpt>
      <trkpt lat="47.54461" lon="6.75155">
        <ele>471</ele>
        <time>2015-11-01T08:54:03.000Z</time>
      </trkpt>
      <trkpt lat="47.54464" lon="6.75152">
        <ele>471</ele>
        <time>2015-11-01T08:54:04.000Z</time>
      </trkpt>
      <trkpt lat="47.54468" lon="6.75151">
        <ele>471</ele>
        <time>2015-11-01T08:54:05.000Z</time>
      </trkpt>
      <trkpt lat="47.54471" lon="6.7515">
        <ele>471</ele>
        <time>2015-11-01T08:54:06.000Z</time>
      </trkpt>
      <trkpt lat="47.54474" lon="6.75149">
        <ele>471</ele>
        <time>2015-11-01T08:54:07.000Z</time>
      </trkpt>
      <trkpt lat="47.54477" lon="6.75147">
        <ele>471</ele>
        <time>2015-11-01T08:54:08.000Z</time>
      </trkpt>
      <trkpt lat="47.5448" lon="6.75145">
        <ele>471</ele>
        <time>2015-11-01T08:54:09.000Z</time>
      </trkpt>
      <trkpt lat="47.54482" lon="6.75142">
        <ele>470</ele>
        <time>2015-11-01T08:54:10.000Z</time>
      </trkpt>
      <trkpt lat="47.54484" lon="6.75138">
        <ele>471</ele>
        <time>2015-11-01T08:54:11.000Z</time>
      </trkpt>
      <trkpt lat="47.54487" lon="6.75133">
        <ele>471</ele>
        <time>2015-11-01T08:54:12.000Z</time>
      </trkpt>
      <trkpt lat="47.54489" lon="6.75127">
        <ele>471</ele>
        <time>2015-11-01T08:54:13.000Z</time>
      </trkpt>
      <trkpt lat="47.54491" lon="6.75122">
        <ele>471</ele>
        <time>2015-11-01T08:54:14.000Z</time>
      </trkpt>
      <trkpt lat="47.54494" lon="6.75117">
        <ele>470</ele>
        <time>2015-11-01T08:54:15.000Z</time>
      </trkpt>
      <trkpt lat="47.54497" lon="6.75115">
        <ele>470</ele>
        <time>2015-11-01T08:54:16.000Z</time>
      </trkpt>
      <trkpt lat="47.545" lon="6.75113">
        <ele>469</ele>
        <time>2015-11-01T08:54:17.000Z</time>
      </trkpt>
      <trkpt lat="47.54504" lon="6.75113">
        <ele>468</ele>
        <time>2015-11-01T08:54:18.000Z</time>
      </trkpt>
      <trkpt lat="47.54506" lon="6.75112">
        <ele>468</ele>
        <time>2015-11-01T08:54:19.000Z</time>
      </trkpt>
      <trkpt lat="47.54509" lon="6.75111">
        <ele>468</ele>
        <time>2015-11-01T08:54:20.000Z</time>
      </trkpt>
      <trkpt lat="47.54511" lon="6.75109">
        <ele>468</ele>
        <time>2015-11-01T08:54:21.000Z</time>
      </trkpt>
      <trkpt lat="47.54514" lon="6.75107">
        <ele>468</ele>
        <time>2015-11-01T08:54:23.000Z</time>
      </trkpt>
      <trkpt lat="47.54515" lon="6.75106">
        <ele>468</ele>
        <time>2015-11-01T08:54:24.000Z</time>
      </trkpt>
      <trkpt lat="47.54519" lon="6.75106">
        <ele>468</ele>
        <time>2015-11-01T08:54:32.000Z</time>
      </trkpt>
      <trkpt lat="47.5452" lon="6.75105">
        <ele>468</ele>
        <time>2015-11-01T08:54:33.000Z</time>
      </trkpt>
      <trkpt lat="47.54523" lon="6.75104">
        <ele>468</ele>
        <time>2015-11-01T08:54:34.000Z</time>
      </trkpt>
      <trkpt lat="47.54526" lon="6.75102">
        <ele>468</ele>
        <time>2015-11-01T08:54:35.000Z</time>
      </trkpt>
      <trkpt lat="47.54529" lon="6.751">
        <ele>468</ele>
        <time>2015-11-01T08:54:36.000Z</time>
      </trkpt>
      <trkpt lat="47.54532" lon="6.75097">
        <ele>468</ele>
        <time>2015-11-01T08:54:37.000Z</time>
      </trkpt>
      <trkpt lat="47.54536" lon="6.75094">
        <ele>467</ele>
        <time>2015-11-01T08:54:38.000Z</time>
      </trkpt>
      <trkpt lat="47.54539" lon="6.7509">
        <ele>467</ele>
        <time>2015-11-01T08:54:39.000Z</time>
      </trkpt>
      <trkpt lat="47.54544" lon="6.75082">
        <ele>466</ele>
        <time>2015-11-01T08:54:40.000Z</time>
      </trkpt>
      <trkpt lat="47.54548" lon="6.75079">
        <ele>466</ele>
        <time>2015-11-01T08:54:41.000Z</time>
      </trkpt>
      <trkpt lat="47.54552" lon="6.75077">
        <ele>466</ele>
        <time>2015-11-01T08:54:42.000Z</time>
      </trkpt>
      <trkpt lat="47.54555" lon="6.75074">
        <ele>466</ele>
        <time>2015-11-01T08:54:43.000Z</time>
      </trkpt>
      <trkpt lat="47.5456" lon="6.75072">
        <ele>465</ele>
        <time>2015-11-01T08:54:44.000Z</time>
      </trkpt>
      <trkpt lat="47.54564" lon="6.7507">
        <ele>465</ele>
        <time>2015-11-01T08:54:45.000Z</time>
      </trkpt>
      <trkpt lat="47.54568" lon="6.75066">
        <ele>465</ele>
        <time>2015-11-01T08:54:46.000Z</time>
      </trkpt>
      <trkpt lat="47.54573" lon="6.7506">
        <ele>465</ele>
        <time>2015-11-01T08:54:47.000Z</time>
      </trkpt>
      <trkpt lat="47.54577" lon="6.75055">
        <ele>465</ele>
        <time>2015-11-01T08:54:48.000Z</time>
      </trkpt>
      <trkpt lat="47.54584" lon="6.75053">
        <ele>461</ele>
        <time>2015-11-01T08:54:49.000Z</time>
      </trkpt>
      <trkpt lat="47.5459" lon="6.75052">
        <ele>461</ele>
        <time>2015-11-01T08:54:50.000Z</time>
      </trkpt>
      <trkpt lat="47.54596" lon="6.7505">
        <ele>461</ele>
        <time>2015-11-01T08:54:51.000Z</time>
      </trkpt>
      <trkpt lat="47.54602" lon="6.75048">
        <ele>460</ele>
        <time>2015-11-01T08:54:52.000Z</time>
      </trkpt>
      <trkpt lat="47.54608" lon="6.75046">
        <ele>460</ele>
        <time>2015-11-01T08:54:53.000Z</time>
      </trkpt>
      <trkpt lat="47.54614" lon="6.75043">
        <ele>460</ele>
        <time>2015-11-01T08:54:54.000Z</time>
      </trkpt>
      <trkpt lat="47.5462" lon="6.7504">
        <ele>459</ele>
        <time>2015-11-01T08:54:55.000Z</time>
      </trkpt>
      <trkpt lat="47.54626" lon="6.75038">
        <ele>459</ele>
        <time>2015-11-01T08:54:56.000Z</time>
      </trkpt>
      <trkpt lat="47.54631" lon="6.75034">
        <ele>459</ele>
        <time>2015-11-01T08:54:57.000Z</time>
      </trkpt>
      <trkpt lat="47.54637" lon="6.75031">
        <ele>458</ele>
        <time>2015-11-01T08:54:58.000Z</time>
      </trkpt>
      <trkpt lat="47.54642" lon="6.75028">
        <ele>458</ele>
        <time>2015-11-01T08:54:59.000Z</time>
      </trkpt>
      <trkpt lat="47.54648" lon="6.75026">
        <ele>458</ele>
        <time>2015-11-01T08:55:00.000Z</time>
      </trkpt>
      <trkpt lat="47.54654" lon="6.75023">
        <ele>457</ele>
        <time>2015-11-01T08:55:01.000Z</time>
      </trkpt>
      <trkpt lat="47.54661" lon="6.75022">
        <ele>457</ele>
        <time>2015-11-01T08:55:02.000Z</time>
      </trkpt>
      <trkpt lat="47.54667" lon="6.75019">
        <ele>453</ele>
        <time>2015-11-01T08:55:03.000Z</time>
      </trkpt>
      <trkpt lat="47.54673" lon="6.75017">
        <ele>453</ele>
        <time>2015-11-01T08:55:04.000Z</time>
      </trkpt>
      <trkpt lat="47.5468" lon="6.75014">
        <ele>453</ele>
        <time>2015-11-01T08:55:05.000Z</time>
      </trkpt>
      <trkpt lat="47.54687" lon="6.75012">
        <ele>453</ele>
        <time>2015-11-01T08:55:06.000Z</time>
      </trkpt>
      <trkpt lat="47.54692" lon="6.75009">
        <ele>452</ele>
        <time>2015-11-01T08:55:07.000Z</time>
      </trkpt>
      <trkpt lat="47.54698" lon="6.75005">
        <ele>452</ele>
        <time>2015-11-01T08:55:08.000Z</time>
      </trkpt>
      <trkpt lat="47.54702" lon="6.74999">
        <ele>452</ele>
        <time>2015-11-01T08:55:09.000Z</time>
      </trkpt>
      <trkpt lat="47.54707" lon="6.74994">
        <ele>451</ele>
        <time>2015-11-01T08:55:10.000Z</time>
      </trkpt>
      <trkpt lat="47.54713" lon="6.7499">
        <ele>451</ele>
        <time>2015-11-01T08:55:11.000Z</time>
      </trkpt>
      <trkpt lat="47.54719" lon="6.74988">
        <ele>451</ele>
        <time>2015-11-01T08:55:12.000Z</time>
      </trkpt>
      <trkpt lat="47.54724" lon="6.74986">
        <ele>451</ele>
        <time>2015-11-01T08:55:13.000Z</time>
      </trkpt>
      <trkpt lat="47.54729" lon="6.74985">
        <ele>451</ele>
        <time>2015-11-01T08:55:14.000Z</time>
      </trkpt>
      <trkpt lat="47.54733" lon="6.74984">
        <ele>451</ele>
        <time>2015-11-01T08:55:15.000Z</time>
      </trkpt>
      <trkpt lat="47.54735" lon="6.74984">
        <ele>450</ele>
        <time>2015-11-01T08:55:16.000Z</time>
      </trkpt>
      <trkpt lat="47.54739" lon="6.74984">
        <ele>450</ele>
        <time>2015-11-01T08:55:22.000Z</time>
      </trkpt>
      <trkpt lat="47.5474" lon="6.74983">
        <ele>450</ele>
        <time>2015-11-01T08:55:23.000Z</time>
      </trkpt>
      <trkpt lat="47.54744" lon="6.7498">
        <ele>450</ele>
        <time>2015-11-01T08:55:26.000Z</time>
      </trkpt>
      <trkpt lat="47.54745" lon="6.74979">
        <ele>450</ele>
        <time>2015-11-01T08:55:27.000Z</time>
      </trkpt>
      <trkpt lat="47.54748" lon="6.74977">
        <ele>450</ele>
        <time>2015-11-01T08:55:29.000Z</time>
      </trkpt>
      <trkpt lat="47.5475" lon="6.74977">
        <ele>447</ele>
        <time>2015-11-01T08:55:30.000Z</time>
      </trkpt>
      <trkpt lat="47.54752" lon="6.74975">
        <ele>447</ele>
        <time>2015-11-01T08:55:31.000Z</time>
      </trkpt>
      <trkpt lat="47.54755" lon="6.74973">
        <ele>447</ele>
        <time>2015-11-01T08:55:32.000Z</time>
      </trkpt>
      <trkpt lat="47.54757" lon="6.7497">
        <ele>447</ele>
        <time>2015-11-01T08:55:33.000Z</time>
      </trkpt>
      <trkpt lat="47.5476" lon="6.74968">
        <ele>447</ele>
        <time>2015-11-01T08:55:34.000Z</time>
      </trkpt>
      <trkpt lat="47.54763" lon="6.74965">
        <ele>447</ele>
        <time>2015-11-01T08:55:35.000Z</time>
      </trkpt>
      <trkpt lat="47.54766" lon="6.74963">
        <ele>447</ele>
        <time>2015-11-01T08:55:36.000Z</time>
      </trkpt>
      <trkpt lat="47.54769" lon="6.7496">
        <ele>446</ele>
        <time>2015-11-01T08:55:37.000Z</time>
      </trkpt>
      <trkpt lat="47.54773" lon="6.74957">
        <ele>446</ele>
        <time>2015-11-01T08:55:38.000Z</time>
      </trkpt>
      <trkpt lat="47.54776" lon="6.74955">
        <ele>446</ele>
        <time>2015-11-01T08:55:39.000Z</time>
      </trkpt>
      <trkpt lat="47.5478" lon="6.74954">
        <ele>446</ele>
        <time>2015-11-01T08:55:40.000Z</time>
      </trkpt>
      <trkpt lat="47.54783" lon="6.74953">
        <ele>446</ele>
        <time>2015-11-01T08:55:41.000Z</time>
      </trkpt>
      <trkpt lat="47.54786" lon="6.74952">
        <ele>446</ele>
        <time>2015-11-01T08:55:42.000Z</time>
      </trkpt>
      <trkpt lat="47.54789" lon="6.7495">
        <ele>446</ele>
        <time>2015-11-01T08:55:43.000Z</time>
      </trkpt>
      <trkpt lat="47.54792" lon="6.74948">
        <ele>445</ele>
        <time>2015-11-01T08:55:44.000Z</time>
      </trkpt>
      <trkpt lat="47.54795" lon="6.74945">
        <ele>445</ele>
        <time>2015-11-01T08:55:45.000Z</time>
      </trkpt>
      <trkpt lat="47.54798" lon="6.74942">
        <ele>445</ele>
        <time>2015-11-01T08:55:46.000Z</time>
      </trkpt>
      <trkpt lat="47.54801" lon="6.74938">
        <ele>445</ele>
        <time>2015-11-01T08:55:47.000Z</time>
      </trkpt>
      <trkpt lat="47.54804" lon="6.74934">
        <ele>445</ele>
        <time>2015-11-01T08:55:48.000Z</time>
      </trkpt>
      <trkpt lat="47.54807" lon="6.74931">
        <ele>445</ele>
        <time>2015-11-01T08:55:49.000Z</time>
      </trkpt>
      <trkpt lat="47.5481" lon="6.74927">
        <ele>445</ele>
        <time>2015-11-01T08:55:50.000Z</time>
      </trkpt>
      <trkpt lat="47.54814" lon="6.74924">
        <ele>444</ele>
        <time>2015-11-01T08:55:51.000Z</time>
      </trkpt>
      <trkpt lat="47.54818" lon="6.74922">
        <ele>444</ele>
        <time>2015-11-01T08:55:52.000Z</time>
      </trkpt>
      <trkpt lat="47.54821" lon="6.74919">
        <ele>444</ele>
        <time>2015-11-01T08:55:53.000Z</time>
      </trkpt>
      <trkpt lat="47.54825" lon="6.74917">
        <ele>444</ele>
        <time>2015-11-01T08:55:54.000Z</time>
      </trkpt>
      <trkpt lat="47.54828" lon="6.74915">
        <ele>444</ele>
        <time>2015-11-01T08:55:55.000Z</time>
      </trkpt>
      <trkpt lat="47.5483" lon="6.74913">
        <ele>444</ele>
        <time>2015-11-01T08:55:56.000Z</time>
      </trkpt>
      <trkpt lat="47.54833" lon="6.74911">
        <ele>444</ele>
        <time>2015-11-01T08:55:57.000Z</time>
      </trkpt>
      <trkpt lat="47.54835" lon="6.74909">
        <ele>444</ele>
        <time>2015-11-01T08:55:58.000Z</time>
      </trkpt>
      <trkpt lat="47.54838" lon="6.74904">
        <ele>444</ele>
        <time>2015-11-01T08:56:00.000Z</time>
      </trkpt>
      <trkpt lat="47.54839" lon="6.74902">
        <ele>444</ele>
        <time>2015-11-01T08:56:01.000Z</time>
      </trkpt>
      <trkpt lat="47.54841" lon="6.74899">
        <ele>444</ele>
        <time>2015-11-01T08:56:02.000Z</time>
      </trkpt>
      <trkpt lat="47.54843" lon="6.74896">
        <ele>444</ele>
        <time>2015-11-01T08:56:03.000Z</time>
      </trkpt>
      <trkpt lat="47.54845" lon="6.74893">
        <ele>444</ele>
        <time>2015-11-01T08:56:04.000Z</time>
      </trkpt>
      <trkpt lat="47.54846" lon="6.74891">
        <ele>444</ele>
        <time>2015-11-01T08:56:05.000Z</time>
      </trkpt>
      <trkpt lat="47.54848" lon="6.74888">
        <ele>445</ele>
        <time>2015-11-01T08:56:06.000Z</time>
      </trkpt>
      <trkpt lat="47.5485" lon="6.74885">
        <ele>445</ele>
        <time>2015-11-01T08:56:07.000Z</time>
      </trkpt>
      <trkpt lat="47.54852" lon="6.74881">
        <ele>445</ele>
        <time>2015-11-01T08:56:08.000Z</time>
      </trkpt>
      <trkpt lat="47.54855" lon="6.74877">
        <ele>445</ele>
        <time>2015-11-01T08:56:09.000Z</time>
      </trkpt>
      <trkpt lat="47.54857" lon="6.74873">
        <ele>445</ele>
        <time>2015-11-01T08:56:10.000Z</time>
      </trkpt>
      <trkpt lat="47.54859" lon="6.74871">
        <ele>445</ele>
        <time>2015-11-01T08:56:11.000Z</time>
      </trkpt>
      <trkpt lat="47.54861" lon="6.74869">
        <ele>445</ele>
        <time>2015-11-01T08:56:12.000Z</time>
      </trkpt>
      <trkpt lat="47.54863" lon="6.74866">
        <ele>445</ele>
        <time>2015-11-01T08:56:13.000Z</time>
      </trkpt>
      <trkpt lat="47.54865" lon="6.74864">
        <ele>445</ele>
        <time>2015-11-01T08:56:14.000Z</time>
      </trkpt>
      <trkpt lat="47.54867" lon="6.74861">
        <ele>445</ele>
        <time>2015-11-01T08:56:15.000Z</time>
      </trkpt>
      <trkpt lat="47.54868" lon="6.74857">
        <ele>445</ele>
        <time>2015-11-01T08:56:16.000Z</time>
      </trkpt>
      <trkpt lat="47.5487" lon="6.74854">
        <ele>445</ele>
        <time>2015-11-01T08:56:17.000Z</time>
      </trkpt>
      <trkpt lat="47.54872" lon="6.7485">
        <ele>446</ele>
        <time>2015-11-01T08:56:18.000Z</time>
      </trkpt>
      <trkpt lat="47.54873" lon="6.74846">
        <ele>446</ele>
        <time>2015-11-01T08:56:19.000Z</time>
      </trkpt>
      <trkpt lat="47.54875" lon="6.74843">
        <ele>446</ele>
        <time>2015-11-01T08:56:20.000Z</time>
      </trkpt>
      <trkpt lat="47.54877" lon="6.74839">
        <ele>446</ele>
        <time>2015-11-01T08:56:21.000Z</time>
      </trkpt>
      <trkpt lat="47.5488" lon="6.74836">
        <ele>446</ele>
        <time>2015-11-01T08:56:22.000Z</time>
      </trkpt>
      <trkpt lat="47.54882" lon="6.74833">
        <ele>447</ele>
        <time>2015-11-01T08:56:23.000Z</time>
      </trkpt>
      <trkpt lat="47.54884" lon="6.74829">
        <ele>447</ele>
        <time>2015-11-01T08:56:24.000Z</time>
      </trkpt>
      <trkpt lat="47.54887" lon="6.74826">
        <ele>447</ele>
        <time>2015-11-01T08:56:25.000Z</time>
      </trkpt>
      <trkpt lat="47.54889" lon="6.74823">
        <ele>448</ele>
        <time>2015-11-01T08:56:26.000Z</time>
      </trkpt>
      <trkpt lat="47.54891" lon="6.74821">
        <ele>448</ele>
        <time>2015-11-01T08:56:27.000Z</time>
      </trkpt>
      <trkpt lat="47.54894" lon="6.74819">
        <ele>448</ele>
        <time>2015-11-01T08:56:28.000Z</time>
      </trkpt>
      <trkpt lat="47.54896" lon="6.74817">
        <ele>448</ele>
        <time>2015-11-01T08:56:29.000Z</time>
      </trkpt>
      <trkpt lat="47.54898" lon="6.74814">
        <ele>448</ele>
        <time>2015-11-01T08:56:30.000Z</time>
      </trkpt>
      <trkpt lat="47.54899" lon="6.7481">
        <ele>448</ele>
        <time>2015-11-01T08:56:31.000Z</time>
      </trkpt>
      <trkpt lat="47.549" lon="6.74806">
        <ele>448</ele>
        <time>2015-11-01T08:56:32.000Z</time>
      </trkpt>
      <trkpt lat="47.549" lon="6.74801">
        <ele>448</ele>
        <time>2015-11-01T08:56:33.000Z</time>
      </trkpt>
      <trkpt lat="47.54902" lon="6.74797">
        <ele>447</ele>
        <time>2015-11-01T08:56:34.000Z</time>
      </trkpt>
      <trkpt lat="47.54904" lon="6.74793">
        <ele>447</ele>
        <time>2015-11-01T08:56:35.000Z</time>
      </trkpt>
      <trkpt lat="47.54906" lon="6.7479">
        <ele>447</ele>
        <time>2015-11-01T08:56:36.000Z</time>
      </trkpt>
      <trkpt lat="47.54908" lon="6.74787">
        <ele>447</ele>
        <time>2015-11-01T08:56:37.000Z</time>
      </trkpt>
      <trkpt lat="47.5491" lon="6.74783">
        <ele>447</ele>
        <time>2015-11-01T08:56:38.000Z</time>
      </trkpt>
      <trkpt lat="47.54911" lon="6.74781">
        <ele>447</ele>
        <time>2015-11-01T08:56:39.000Z</time>
      </trkpt>
      <trkpt lat="47.54913" lon="6.74775">
        <ele>447</ele>
        <time>2015-11-01T08:56:41.000Z</time>
      </trkpt>
      <trkpt lat="47.54914" lon="6.74773">
        <ele>447</ele>
        <time>2015-11-01T08:56:42.000Z</time>
      </trkpt>
      <trkpt lat="47.54915" lon="6.74769">
        <ele>448</ele>
        <time>2015-11-01T08:56:43.000Z</time>
      </trkpt>
      <trkpt lat="47.54917" lon="6.74766">
        <ele>448</ele>
        <time>2015-11-01T08:56:44.000Z</time>
      </trkpt>
      <trkpt lat="47.54918" lon="6.74762">
        <ele>449</ele>
        <time>2015-11-01T08:56:45.000Z</time>
      </trkpt>
      <trkpt lat="47.54919" lon="6.74758">
        <ele>449</ele>
        <time>2015-11-01T08:56:46.000Z</time>
      </trkpt>
      <trkpt lat="47.5492" lon="6.74755">
        <ele>449</ele>
        <time>2015-11-01T08:56:47.000Z</time>
      </trkpt>
      <trkpt lat="47.54922" lon="6.74751">
        <ele>449</ele>
        <time>2015-11-01T08:56:48.000Z</time>
      </trkpt>
      <trkpt lat="47.54923" lon="6.74747">
        <ele>448</ele>
        <time>2015-11-01T08:56:49.000Z</time>
      </trkpt>
      <trkpt lat="47.54924" lon="6.74743">
        <ele>448</ele>
        <time>2015-11-01T08:56:50.000Z</time>
      </trkpt>
      <trkpt lat="47.54926" lon="6.74739">
        <ele>449</ele>
        <time>2015-11-01T08:56:51.000Z</time>
      </trkpt>
      <trkpt lat="47.54929" lon="6.74736">
        <ele>449</ele>
        <time>2015-11-01T08:56:52.000Z</time>
      </trkpt>
      <trkpt lat="47.54933" lon="6.74733">
        <ele>449</ele>
        <time>2015-11-01T08:56:53.000Z</time>
      </trkpt>
      <trkpt lat="47.54936" lon="6.7473">
        <ele>449</ele>
        <time>2015-11-01T08:56:54.000Z</time>
      </trkpt>
      <trkpt lat="47.54938" lon="6.74727">
        <ele>449</ele>
        <time>2015-11-01T08:56:55.000Z</time>
      </trkpt>
      <trkpt lat="47.5494" lon="6.74723">
        <ele>449</ele>
        <time>2015-11-01T08:56:56.000Z</time>
      </trkpt>
      <trkpt lat="47.54942" lon="6.74718">
        <ele>449</ele>
        <time>2015-11-01T08:56:57.000Z</time>
      </trkpt>
      <trkpt lat="47.54945" lon="6.74714">
        <ele>449</ele>
        <time>2015-11-01T08:56:58.000Z</time>
      </trkpt>
      <trkpt lat="47.54947" lon="6.74709">
        <ele>449</ele>
        <time>2015-11-01T08:56:59.000Z</time>
      </trkpt>
      <trkpt lat="47.54949" lon="6.74705">
        <ele>449</ele>
        <time>2015-11-01T08:57:00.000Z</time>
      </trkpt>
      <trkpt lat="47.54952" lon="6.74699">
        <ele>449</ele>
        <time>2015-11-01T08:57:01.000Z</time>
      </trkpt>
      <trkpt lat="47.54953" lon="6.74694">
        <ele>449</ele>
        <time>2015-11-01T08:57:02.000Z</time>
      </trkpt>
      <trkpt lat="47.54955" lon="6.74688">
        <ele>449</ele>
        <time>2015-11-01T08:57:03.000Z</time>
      </trkpt>
      <trkpt lat="47.54956" lon="6.74682">
        <ele>449</ele>
        <time>2015-11-01T08:57:04.000Z</time>
      </trkpt>
      <trkpt lat="47.54957" lon="6.74677">
        <ele>449</ele>
        <time>2015-11-01T08:57:05.000Z</time>
      </trkpt>
      <trkpt lat="47.54957" lon="6.74673">
        <ele>449</ele>
        <time>2015-11-01T08:57:06.000Z</time>
      </trkpt>
      <trkpt lat="47.54958" lon="6.74667">
        <ele>449</ele>
        <time>2015-11-01T08:57:08.000Z</time>
      </trkpt>
      <trkpt lat="47.54959" lon="6.74665">
        <ele>447</ele>
        <time>2015-11-01T08:57:09.000Z</time>
      </trkpt>
      <trkpt lat="47.5496" lon="6.74659">
        <ele>447</ele>
        <time>2015-11-01T08:57:13.000Z</time>
      </trkpt>
      <trkpt lat="47.5496" lon="6.74657">
        <ele>447</ele>
        <time>2015-11-01T08:57:14.000Z</time>
      </trkpt>
      <trkpt lat="47.5496" lon="6.7465">
        <ele>447</ele>
        <time>2015-11-01T08:57:16.000Z</time>
      </trkpt>
      <trkpt lat="47.54962" lon="6.74647">
        <ele>447</ele>
        <time>2015-11-01T08:57:17.000Z</time>
      </trkpt>
      <trkpt lat="47.54964" lon="6.74644">
        <ele>447</ele>
        <time>2015-11-01T08:57:18.000Z</time>
      </trkpt>
      <trkpt lat="47.54966" lon="6.74641">
        <ele>447</ele>
        <time>2015-11-01T08:57:19.000Z</time>
      </trkpt>
      <trkpt lat="47.54968" lon="6.74638">
        <ele>447</ele>
        <time>2015-11-01T08:57:20.000Z</time>
      </trkpt>
      <trkpt lat="47.54971" lon="6.74634">
        <ele>447</ele>
        <time>2015-11-01T08:57:21.000Z</time>
      </trkpt>
      <trkpt lat="47.54973" lon="6.74631">
        <ele>447</ele>
        <time>2015-11-01T08:57:22.000Z</time>
      </trkpt>
      <trkpt lat="47.54976" lon="6.74628">
        <ele>447</ele>
        <time>2015-11-01T08:57:23.000Z</time>
      </trkpt>
      <trkpt lat="47.54978" lon="6.74625">
        <ele>447</ele>
        <time>2015-11-01T08:57:24.000Z</time>
      </trkpt>
      <trkpt lat="47.5498" lon="6.74621">
        <ele>447</ele>
        <time>2015-11-01T08:57:25.000Z</time>
      </trkpt>
      <trkpt lat="47.54982" lon="6.74617">
        <ele>447</ele>
        <time>2015-11-01T08:57:26.000Z</time>
      </trkpt>
      <trkpt lat="47.54985" lon="6.74613">
        <ele>447</ele>
        <time>2015-11-01T08:57:27.000Z</time>
      </trkpt>
      <trkpt lat="47.54988" lon="6.74609">
        <ele>447</ele>
        <time>2015-11-01T08:57:28.000Z</time>
      </trkpt>
      <trkpt lat="47.54992" lon="6.74606">
        <ele>447</ele>
        <time>2015-11-01T08:57:29.000Z</time>
      </trkpt>
      <trkpt lat="47.54996" lon="6.74603">
        <ele>447</ele>
        <time>2015-11-01T08:57:30.000Z</time>
      </trkpt>
      <trkpt lat="47.54999" lon="6.746">
        <ele>448</ele>
        <time>2015-11-01T08:57:31.000Z</time>
      </trkpt>
      <trkpt lat="47.55002" lon="6.74597">
        <ele>449</ele>
        <time>2015-11-01T08:57:32.000Z</time>
      </trkpt>
      <trkpt lat="47.55004" lon="6.74596">
        <ele>449</ele>
        <time>2015-11-01T08:57:33.000Z</time>
      </trkpt>
      <trkpt lat="47.55008" lon="6.74593">
        <ele>449</ele>
        <time>2015-11-01T08:57:36.000Z</time>
      </trkpt>
      <trkpt lat="47.55008" lon="6.74592">
        <ele>449</ele>
        <time>2015-11-01T08:57:37.000Z</time>
      </trkpt>
      <trkpt lat="47.5501" lon="6.7459">
        <ele>449</ele>
        <time>2015-11-01T08:57:38.000Z</time>
      </trkpt>
      <trkpt lat="47.55012" lon="6.74588">
        <ele>449</ele>
        <time>2015-11-01T08:57:39.000Z</time>
      </trkpt>
      <trkpt lat="47.55015" lon="6.74585">
        <ele>449</ele>
        <time>2015-11-01T08:57:40.000Z</time>
      </trkpt>
      <trkpt lat="47.55018" lon="6.74582">
        <ele>448</ele>
        <time>2015-11-01T08:57:41.000Z</time>
      </trkpt>
      <trkpt lat="47.55021" lon="6.74579">
        <ele>448</ele>
        <time>2015-11-01T08:57:42.000Z</time>
      </trkpt>
      <trkpt lat="47.55025" lon="6.74575">
        <ele>447</ele>
        <time>2015-11-01T08:57:43.000Z</time>
      </trkpt>
      <trkpt lat="47.55028" lon="6.74572">
        <ele>447</ele>
        <time>2015-11-01T08:57:44.000Z</time>
      </trkpt>
      <trkpt lat="47.55037" lon="6.74567">
        <ele>447</ele>
        <time>2015-11-01T08:57:45.000Z</time>
      </trkpt>
      <trkpt lat="47.55041" lon="6.74562">
        <ele>447</ele>
        <time>2015-11-01T08:57:46.000Z</time>
      </trkpt>
      <trkpt lat="47.55046" lon="6.74559">
        <ele>447</ele>
        <time>2015-11-01T08:57:47.000Z</time>
      </trkpt>
      <trkpt lat="47.5505" lon="6.74554">
        <ele>447</ele>
        <time>2015-11-01T08:57:48.000Z</time>
      </trkpt>
      <trkpt lat="47.55053" lon="6.7455">
        <ele>447</ele>
        <time>2015-11-01T08:57:49.000Z</time>
      </trkpt>
      <trkpt lat="47.55056" lon="6.74546">
        <ele>447</ele>
        <time>2015-11-01T08:57:50.000Z</time>
      </trkpt>
      <trkpt lat="47.5506" lon="6.74542">
        <ele>447</ele>
        <time>2015-11-01T08:57:51.000Z</time>
      </trkpt>
      <trkpt lat="47.55063" lon="6.7454">
        <ele>447</ele>
        <time>2015-11-01T08:57:52.000Z</time>
      </trkpt>
      <trkpt lat="47.55066" lon="6.7454">
        <ele>447</ele>
        <time>2015-11-01T08:57:53.000Z</time>
      </trkpt>
      <trkpt lat="47.55068" lon="6.7454">
        <ele>447</ele>
        <time>2015-11-01T08:57:54.000Z</time>
      </trkpt>
      <trkpt lat="47.5507" lon="6.74539">
        <ele>447</ele>
        <time>2015-11-01T08:57:55.000Z</time>
      </trkpt>
      <trkpt lat="47.55073" lon="6.74537">
        <ele>447</ele>
        <time>2015-11-01T08:57:56.000Z</time>
      </trkpt>
      <trkpt lat="47.55076" lon="6.74536">
        <ele>446</ele>
        <time>2015-11-01T08:57:57.000Z</time>
      </trkpt>
      <trkpt lat="47.55078" lon="6.74535">
        <ele>446</ele>
        <time>2015-11-01T08:57:58.000Z</time>
      </trkpt>
      <trkpt lat="47.55081" lon="6.74532">
        <ele>446</ele>
        <time>2015-11-01T08:57:59.000Z</time>
      </trkpt>
      <trkpt lat="47.55083" lon="6.7453">
        <ele>446</ele>
        <time>2015-11-01T08:58:00.000Z</time>
      </trkpt>
      <trkpt lat="47.55086" lon="6.74526">
        <ele>446</ele>
        <time>2015-11-01T08:58:01.000Z</time>
      </trkpt>
      <trkpt lat="47.55089" lon="6.74523">
        <ele>446</ele>
        <time>2015-11-01T08:58:02.000Z</time>
      </trkpt>
      <trkpt lat="47.55091" lon="6.74519">
        <ele>446</ele>
        <time>2015-11-01T08:58:03.000Z</time>
      </trkpt>
      <trkpt lat="47.55094" lon="6.74515">
        <ele>446</ele>
        <time>2015-11-01T08:58:04.000Z</time>
      </trkpt>
      <trkpt lat="47.55096" lon="6.74511">
        <ele>446</ele>
        <time>2015-11-01T08:58:05.000Z</time>
      </trkpt>
      <trkpt lat="47.55099" lon="6.74506">
        <ele>446</ele>
        <time>2015-11-01T08:58:07.000Z</time>
      </trkpt>
      <trkpt lat="47.551" lon="6.74505">
        <ele>446</ele>
        <time>2015-11-01T08:58:08.000Z</time>
      </trkpt>
      <trkpt lat="47.55103" lon="6.74501">
        <ele>446</ele>
        <time>2015-11-01T08:58:14.000Z</time>
      </trkpt>
      <trkpt lat="47.55104" lon="6.745">
        <ele>446</ele>
        <time>2015-11-01T08:58:15.000Z</time>
      </trkpt>
      <trkpt lat="47.55107" lon="6.74495">
        <ele>445</ele>
        <time>2015-11-01T08:58:18.000Z</time>
      </trkpt>
      <trkpt lat="47.55109" lon="6.74493">
        <ele>445</ele>
        <time>2015-11-01T08:58:19.000Z</time>
      </trkpt>
      <trkpt lat="47.55111" lon="6.74489">
        <ele>445</ele>
        <time>2015-11-01T08:58:21.000Z</time>
      </trkpt>
      <trkpt lat="47.55113" lon="6.74488">
        <ele>445</ele>
        <time>2015-11-01T08:58:22.000Z</time>
      </trkpt>
      <trkpt lat="47.55116" lon="6.74484">
        <ele>446</ele>
        <time>2015-11-01T08:58:24.000Z</time>
      </trkpt>
      <trkpt lat="47.55118" lon="6.74483">
        <ele>446</ele>
        <time>2015-11-01T08:58:25.000Z</time>
      </trkpt>
      <trkpt lat="47.55122" lon="6.7448">
        <ele>446</ele>
        <time>2015-11-01T08:58:27.000Z</time>
      </trkpt>
      <trkpt lat="47.55124" lon="6.74479">
        <ele>446</ele>
        <time>2015-11-01T08:58:28.000Z</time>
      </trkpt>
      <trkpt lat="47.55127" lon="6.74475">
        <ele>446</ele>
        <time>2015-11-01T08:58:30.000Z</time>
      </trkpt>
      <trkpt lat="47.55128" lon="6.74473">
        <ele>446</ele>
        <time>2015-11-01T08:58:31.000Z</time>
      </trkpt>
      <trkpt lat="47.5513" lon="6.74469">
        <ele>446</ele>
        <time>2015-11-01T08:58:34.000Z</time>
      </trkpt>
      <trkpt lat="47.55131" lon="6.74467">
        <ele>446</ele>
        <time>2015-11-01T08:58:35.000Z</time>
      </trkpt>
      <trkpt lat="47.55131" lon="6.74462">
        <ele>446</ele>
        <time>2015-11-01T08:58:37.000Z</time>
      </trkpt>
      <trkpt lat="47.55131" lon="6.74459">
        <ele>446</ele>
        <time>2015-11-01T08:58:38.000Z</time>
      </trkpt>
      <trkpt lat="47.55131" lon="6.74455">
        <ele>446</ele>
        <time>2015-11-01T08:58:39.000Z</time>
      </trkpt>
      <trkpt lat="47.55131" lon="6.74452">
        <ele>446</ele>
        <time>2015-11-01T08:58:40.000Z</time>
      </trkpt>
      <trkpt lat="47.55132" lon="6.74448">
        <ele>446</ele>
        <time>2015-11-01T08:58:41.000Z</time>
      </trkpt>
      <trkpt lat="47.55134" lon="6.74445">
        <ele>446</ele>
        <time>2015-11-01T08:58:42.000Z</time>
      </trkpt>
      <trkpt lat="47.55135" lon="6.74443">
        <ele>446</ele>
        <time>2015-11-01T08:58:43.000Z</time>
      </trkpt>
      <trkpt lat="47.55137" lon="6.74441">
        <ele>446</ele>
        <time>2015-11-01T08:58:44.000Z</time>
      </trkpt>
      <trkpt lat="47.55139" lon="6.74439">
        <ele>446</ele>
        <time>2015-11-01T08:58:45.000Z</time>
      </trkpt>
      <trkpt lat="47.55141" lon="6.74438">
        <ele>446</ele>
        <time>2015-11-01T08:58:46.000Z</time>
      </trkpt>
      <trkpt lat="47.55146" lon="6.74436">
        <ele>447</ele>
        <time>2015-11-01T08:58:48.000Z</time>
      </trkpt>
      <trkpt lat="47.55147" lon="6.74435">
        <ele>447</ele>
        <time>2015-11-01T08:58:49.000Z</time>
      </trkpt>
      <trkpt lat="47.55151" lon="6.74436">
        <ele>447</ele>
        <time>2015-11-01T08:58:52.000Z</time>
      </trkpt>
      <trkpt lat="47.55152" lon="6.74437">
        <ele>447</ele>
        <time>2015-11-01T08:58:53.000Z</time>
      </trkpt>
      <trkpt lat="47.55156" lon="6.74439">
        <ele>447</ele>
        <time>2015-11-01T08:58:56.000Z</time>
      </trkpt>
      <trkpt lat="47.55157" lon="6.74439">
        <ele>447</ele>
        <time>2015-11-01T08:58:57.000Z</time>
      </trkpt>
      <trkpt lat="47.55161" lon="6.7444">
        <ele>447</ele>
        <time>2015-11-01T08:58:59.000Z</time>
      </trkpt>
      <trkpt lat="47.55164" lon="6.74439">
        <ele>447</ele>
        <time>2015-11-01T08:59:00.000Z</time>
      </trkpt>
      <trkpt lat="47.55166" lon="6.74439">
        <ele>447</ele>
        <time>2015-11-01T08:59:01.000Z</time>
      </trkpt>
      <trkpt lat="47.55169" lon="6.74437">
        <ele>448</ele>
        <time>2015-11-01T08:59:02.000Z</time>
      </trkpt>
      <trkpt lat="47.55172" lon="6.74434">
        <ele>448</ele>
        <time>2015-11-01T08:59:03.000Z</time>
      </trkpt>
      <trkpt lat="47.55175" lon="6.74431">
        <ele>448</ele>
        <time>2015-11-01T08:59:04.000Z</time>
      </trkpt>
      <trkpt lat="47.55177" lon="6.74428">
        <ele>448</ele>
        <time>2015-11-01T08:59:05.000Z</time>
      </trkpt>
      <trkpt lat="47.5518" lon="6.74425">
        <ele>448</ele>
        <time>2015-11-01T08:59:06.000Z</time>
      </trkpt>
      <trkpt lat="47.55182" lon="6.74422">
        <ele>448</ele>
        <time>2015-11-01T08:59:07.000Z</time>
      </trkpt>
      <trkpt lat="47.55185" lon="6.74419">
        <ele>448</ele>
        <time>2015-11-01T08:59:08.000Z</time>
      </trkpt>
      <trkpt lat="47.55188" lon="6.74417">
        <ele>448</ele>
        <time>2015-11-01T08:59:09.000Z</time>
      </trkpt>
      <trkpt lat="47.55191" lon="6.74414">
        <ele>448</ele>
        <time>2015-11-01T08:59:10.000Z</time>
      </trkpt>
      <trkpt lat="47.55194" lon="6.74411">
        <ele>448</ele>
        <time>2015-11-01T08:59:11.000Z</time>
      </trkpt>
      <trkpt lat="47.55196" lon="6.74407">
        <ele>448</ele>
        <time>2015-11-01T08:59:12.000Z</time>
      </trkpt>
      <trkpt lat="47.55199" lon="6.74403">
        <ele>448</ele>
        <time>2015-11-01T08:59:13.000Z</time>
      </trkpt>
      <trkpt lat="47.55201" lon="6.74398">
        <ele>448</ele>
        <time>2015-11-01T08:59:14.000Z</time>
      </trkpt>
      <trkpt lat="47.55204" lon="6.74394">
        <ele>448</ele>
        <time>2015-11-01T08:59:15.000Z</time>
      </trkpt>
      <trkpt lat="47.55207" lon="6.7439">
        <ele>448</ele>
        <time>2015-11-01T08:59:16.000Z</time>
      </trkpt>
      <trkpt lat="47.55209" lon="6.74387">
        <ele>448</ele>
        <time>2015-11-01T08:59:17.000Z</time>
      </trkpt>
      <trkpt lat="47.55212" lon="6.74384">
        <ele>448</ele>
        <time>2015-11-01T08:59:18.000Z</time>
      </trkpt>
      <trkpt lat="47.55215" lon="6.74381">
        <ele>448</ele>
        <time>2015-11-01T08:59:19.000Z</time>
      </trkpt>
      <trkpt lat="47.55218" lon="6.74378">
        <ele>448</ele>
        <time>2015-11-01T08:59:20.000Z</time>
      </trkpt>
      <trkpt lat="47.55221" lon="6.74375">
        <ele>447</ele>
        <time>2015-11-01T08:59:21.000Z</time>
      </trkpt>
      <trkpt lat="47.55225" lon="6.74371">
        <ele>447</ele>
        <time>2015-11-01T08:59:22.000Z</time>
      </trkpt>
      <trkpt lat="47.55228" lon="6.74368">
        <ele>447</ele>
        <time>2015-11-01T08:59:23.000Z</time>
      </trkpt>
      <trkpt lat="47.55231" lon="6.74364">
        <ele>447</ele>
        <time>2015-11-01T08:59:24.000Z</time>
      </trkpt>
      <trkpt lat="47.55235" lon="6.7436">
        <ele>447</ele>
        <time>2015-11-01T08:59:25.000Z</time>
      </trkpt>
      <trkpt lat="47.55238" lon="6.74356">
        <ele>447</ele>
        <time>2015-11-01T08:59:26.000Z</time>
      </trkpt>
      <trkpt lat="47.55241" lon="6.74352">
        <ele>447</ele>
        <time>2015-11-01T08:59:27.000Z</time>
      </trkpt>
      <trkpt lat="47.55243" lon="6.74349">
        <ele>447</ele>
        <time>2015-11-01T08:59:28.000Z</time>
      </trkpt>
      <trkpt lat="47.55245" lon="6.74346">
        <ele>447</ele>
        <time>2015-11-01T08:59:29.000Z</time>
      </trkpt>
      <trkpt lat="47.55248" lon="6.74343">
        <ele>447</ele>
        <time>2015-11-01T08:59:30.000Z</time>
      </trkpt>
      <trkpt lat="47.5525" lon="6.74339">
        <ele>445</ele>
        <time>2015-11-01T08:59:31.000Z</time>
      </trkpt>
      <trkpt lat="47.55253" lon="6.74336">
        <ele>445</ele>
        <time>2015-11-01T08:59:32.000Z</time>
      </trkpt>
      <trkpt lat="47.55257" lon="6.74332">
        <ele>445</ele>
        <time>2015-11-01T08:59:33.000Z</time>
      </trkpt>
      <trkpt lat="47.55261" lon="6.7433">
        <ele>444</ele>
        <time>2015-11-01T08:59:34.000Z</time>
      </trkpt>
      <trkpt lat="47.55265" lon="6.74328">
        <ele>443</ele>
        <time>2015-11-01T08:59:35.000Z</time>
      </trkpt>
      <trkpt lat="47.55269" lon="6.74327">
        <ele>443</ele>
        <time>2015-11-01T08:59:36.000Z</time>
      </trkpt>
      <trkpt lat="47.55274" lon="6.74326">
        <ele>442</ele>
        <time>2015-11-01T08:59:37.000Z</time>
      </trkpt>
      <trkpt lat="47.55279" lon="6.74325">
        <ele>442</ele>
        <time>2015-11-01T08:59:38.000Z</time>
      </trkpt>
      <trkpt lat="47.55288" lon="6.74319">
        <ele>441</ele>
        <time>2015-11-01T08:59:39.000Z</time>
      </trkpt>
      <trkpt lat="47.55292" lon="6.74316">
        <ele>441</ele>
        <time>2015-11-01T08:59:40.000Z</time>
      </trkpt>
      <trkpt lat="47.553" lon="6.74309">
        <ele>440</ele>
        <time>2015-11-01T08:59:41.000Z</time>
      </trkpt>
      <trkpt lat="47.55306" lon="6.74306">
        <ele>440</ele>
        <time>2015-11-01T08:59:42.000Z</time>
      </trkpt>
      <trkpt lat="47.55312" lon="6.74303">
        <ele>439</ele>
        <time>2015-11-01T08:59:43.000Z</time>
      </trkpt>
      <trkpt lat="47.55319" lon="6.74299">
        <ele>439</ele>
        <time>2015-11-01T08:59:44.000Z</time>
      </trkpt>
      <trkpt lat="47.55325" lon="6.74295">
        <ele>439</ele>
        <time>2015-11-01T08:59:45.000Z</time>
      </trkpt>
      <trkpt lat="47.55332" lon="6.7429">
        <ele>439</ele>
        <time>2015-11-01T08:59:46.000Z</time>
      </trkpt>
      <trkpt lat="47.55339" lon="6.74286">
        <ele>432</ele>
        <time>2015-11-01T08:59:47.000Z</time>
      </trkpt>
      <trkpt lat="47.55349" lon="6.74284">
        <ele>432</ele>
        <time>2015-11-01T08:59:48.000Z</time>
      </trkpt>
      <trkpt lat="47.55356" lon="6.74282">
        <ele>432</ele>
        <time>2015-11-01T08:59:49.000Z</time>
      </trkpt>
      <trkpt lat="47.55363" lon="6.7428">
        <ele>431</ele>
        <time>2015-11-01T08:59:50.000Z</time>
      </trkpt>
      <trkpt lat="47.55367" lon="6.74277">
        <ele>431</ele>
        <time>2015-11-01T08:59:51.000Z</time>
      </trkpt>
      <trkpt lat="47.55371" lon="6.74273">
        <ele>431</ele>
        <time>2015-11-01T08:59:52.000Z</time>
      </trkpt>
      <trkpt lat="47.55375" lon="6.74275">
        <ele>431</ele>
        <time>2015-11-01T08:59:53.000Z</time>
      </trkpt>
      <trkpt lat="47.55378" lon="6.74275">
        <ele>430</ele>
        <time>2015-11-01T08:59:54.000Z</time>
      </trkpt>
      <trkpt lat="47.5538" lon="6.74276">
        <ele>430</ele>
        <time>2015-11-01T08:59:55.000Z</time>
      </trkpt>
      <trkpt lat="47.55383" lon="6.74278">
        <ele>430</ele>
        <time>2015-11-01T08:59:59.000Z</time>
      </trkpt>
      <trkpt lat="47.55384" lon="6.74279">
        <ele>430</ele>
        <time>2015-11-01T09:00:00.000Z</time>
      </trkpt>
      <trkpt lat="47.55386" lon="6.74283">
        <ele>430</ele>
        <time>2015-11-01T09:00:02.000Z</time>
      </trkpt>
      <trkpt lat="47.55387" lon="6.74285">
        <ele>430</ele>
        <time>2015-11-01T09:00:03.000Z</time>
      </trkpt>
      <trkpt lat="47.55389" lon="6.74287">
        <ele>429</ele>
        <time>2015-11-01T09:00:04.000Z</time>
      </trkpt>
      <trkpt lat="47.55391" lon="6.74288">
        <ele>429</ele>
        <time>2015-11-01T09:00:05.000Z</time>
      </trkpt>
      <trkpt lat="47.55393" lon="6.7429">
        <ele>429</ele>
        <time>2015-11-01T09:00:06.000Z</time>
      </trkpt>
      <trkpt lat="47.55396" lon="6.74291">
        <ele>429</ele>
        <time>2015-11-01T09:00:07.000Z</time>
      </trkpt>
      <trkpt lat="47.554" lon="6.74292">
        <ele>429</ele>
        <time>2015-11-01T09:00:09.000Z</time>
      </trkpt>
      <trkpt lat="47.55401" lon="6.74293">
        <ele>429</ele>
        <time>2015-11-01T09:00:10.000Z</time>
      </trkpt>
      <trkpt lat="47.55403" lon="6.74295">
        <ele>429</ele>
        <time>2015-11-01T09:00:11.000Z</time>
      </trkpt>
      <trkpt lat="47.55406" lon="6.74297">
        <ele>428</ele>
        <time>2015-11-01T09:00:12.000Z</time>
      </trkpt>
      <trkpt lat="47.55408" lon="6.74299">
        <ele>428</ele>
        <time>2015-11-01T09:00:13.000Z</time>
      </trkpt>
      <trkpt lat="47.55411" lon="6.74301">
        <ele>428</ele>
        <time>2015-11-01T09:00:14.000Z</time>
      </trkpt>
      <trkpt lat="47.55414" lon="6.74303">
        <ele>428</ele>
        <time>2015-11-01T09:00:15.000Z</time>
      </trkpt>
      <trkpt lat="47.55418" lon="6.74305">
        <ele>424</ele>
        <time>2015-11-01T09:00:16.000Z</time>
      </trkpt>
      <trkpt lat="47.55421" lon="6.74306">
        <ele>424</ele>
        <time>2015-11-01T09:00:17.000Z</time>
      </trkpt>
      <trkpt lat="47.55424" lon="6.74307">
        <ele>424</ele>
        <time>2015-11-01T09:00:18.000Z</time>
      </trkpt>
      <trkpt lat="47.55427" lon="6.74309">
        <ele>424</ele>
        <time>2015-11-01T09:00:19.000Z</time>
      </trkpt>
      <trkpt lat="47.55431" lon="6.7431">
        <ele>424</ele>
        <time>2015-11-01T09:00:20.000Z</time>
      </trkpt>
      <trkpt lat="47.55435" lon="6.74312">
        <ele>424</ele>
        <time>2015-11-01T09:00:21.000Z</time>
      </trkpt>
      <trkpt lat="47.5544" lon="6.74313">
        <ele>424</ele>
        <time>2015-11-01T09:00:22.000Z</time>
      </trkpt>
      <trkpt lat="47.55444" lon="6.74315">
        <ele>423</ele>
        <time>2015-11-01T09:00:23.000Z</time>
      </trkpt>
      <trkpt lat="47.55449" lon="6.74316">
        <ele>423</ele>
        <time>2015-11-01T09:00:24.000Z</time>
      </trkpt>
      <trkpt lat="47.55454" lon="6.74318">
        <ele>423</ele>
        <time>2015-11-01T09:00:25.000Z</time>
      </trkpt>
      <trkpt lat="47.55458" lon="6.74319">
        <ele>423</ele>
        <time>2015-11-01T09:00:26.000Z</time>
      </trkpt>
      <trkpt lat="47.55463" lon="6.7432">
        <ele>423</ele>
        <time>2015-11-01T09:00:27.000Z</time>
      </trkpt>
      <trkpt lat="47.55467" lon="6.74321">
        <ele>423</ele>
        <time>2015-11-01T09:00:28.000Z</time>
      </trkpt>
      <trkpt lat="47.55475" lon="6.74327">
        <ele>422</ele>
        <time>2015-11-01T09:00:29.000Z</time>
      </trkpt>
      <trkpt lat="47.5548" lon="6.74328">
        <ele>422</ele>
        <time>2015-11-01T09:00:30.000Z</time>
      </trkpt>
      <trkpt lat="47.55486" lon="6.7433">
        <ele>422</ele>
        <time>2015-11-01T09:00:31.000Z</time>
      </trkpt>
      <trkpt lat="47.55491" lon="6.74331">
        <ele>421</ele>
        <time>2015-11-01T09:00:32.000Z</time>
      </trkpt>
      <trkpt lat="47.55496" lon="6.74332">
        <ele>421</ele>
        <time>2015-11-01T09:00:33.000Z</time>
      </trkpt>
      <trkpt lat="47.55501" lon="6.74334">
        <ele>420</ele>
        <time>2015-11-01T09:00:34.000Z</time>
      </trkpt>
      <trkpt lat="47.55505" lon="6.74337">
        <ele>418</ele>
        <time>2015-11-01T09:00:35.000Z</time>
      </trkpt>
      <trkpt lat="47.55509" lon="6.7434">
        <ele>417</ele>
        <time>2015-11-01T09:00:36.000Z</time>
      </trkpt>
      <trkpt lat="47.55513" lon="6.74342">
        <ele>417</ele>
        <time>2015-11-01T09:00:37.000Z</time>
      </trkpt>
      <trkpt lat="47.55517" lon="6.74343">
        <ele>416</ele>
        <time>2015-11-01T09:00:38.000Z</time>
      </trkpt>
      <trkpt lat="47.55523" lon="6.74351">
        <ele>415</ele>
        <time>2015-11-01T09:00:39.000Z</time>
      </trkpt>
      <trkpt lat="47.55529" lon="6.74353">
        <ele>415</ele>
        <time>2015-11-01T09:00:40.000Z</time>
      </trkpt>
      <trkpt lat="47.55533" lon="6.74354">
        <ele>414</ele>
        <time>2015-11-01T09:00:41.000Z</time>
      </trkpt>
      <trkpt lat="47.55536" lon="6.74352">
        <ele>414</ele>
        <time>2015-11-01T09:00:42.000Z</time>
      </trkpt>
      <trkpt lat="47.5554" lon="6.74351">
        <ele>414</ele>
        <time>2015-11-01T09:00:44.000Z</time>
      </trkpt>
      <trkpt lat="47.55542" lon="6.74349">
        <ele>414</ele>
        <time>2015-11-01T09:00:45.000Z</time>
      </trkpt>
      <trkpt lat="47.55544" lon="6.74344">
        <ele>415</ele>
        <time>2015-11-01T09:00:47.000Z</time>
      </trkpt>
      <trkpt lat="47.55546" lon="6.74342">
        <ele>415</ele>
        <time>2015-11-01T09:00:48.000Z</time>
      </trkpt>
      <trkpt lat="47.55549" lon="6.74338">
        <ele>415</ele>
        <time>2015-11-01T09:00:50.000Z</time>
      </trkpt>
      <trkpt lat="47.5555" lon="6.74336">
        <ele>415</ele>
        <time>2015-11-01T09:00:51.000Z</time>
      </trkpt>
      <trkpt lat="47.55552" lon="6.74331">
        <ele>419</ele>
        <time>2015-11-01T09:00:54.000Z</time>
      </trkpt>
      <trkpt lat="47.55553" lon="6.7433">
        <ele>419</ele>
        <time>2015-11-01T09:00:55.000Z</time>
      </trkpt>
      <trkpt lat="47.55556" lon="6.74325">
        <ele>419</ele>
        <time>2015-11-01T09:00:58.000Z</time>
      </trkpt>
      <trkpt lat="47.55556" lon="6.74324">
        <ele>419</ele>
        <time>2015-11-01T09:00:59.000Z</time>
      </trkpt>
      <trkpt lat="47.55558" lon="6.74319">
        <ele>419</ele>
        <time>2015-11-01T09:01:02.000Z</time>
      </trkpt>
      <trkpt lat="47.55559" lon="6.74317">
        <ele>419</ele>
        <time>2015-11-01T09:01:03.000Z</time>
      </trkpt>
      <trkpt lat="47.55562" lon="6.74312">
        <ele>419</ele>
        <time>2015-11-01T09:01:06.000Z</time>
      </trkpt>
      <trkpt lat="47.55562" lon="6.74311">
        <ele>419</ele>
        <time>2015-11-01T09:01:07.000Z</time>
      </trkpt>
      <trkpt lat="47.55566" lon="6.74308">
        <ele>419</ele>
        <time>2015-11-01T09:02:04.000Z</time>
      </trkpt>
      <trkpt lat="47.55567" lon="6.74306">
        <ele>419</ele>
        <time>2015-11-01T09:02:05.000Z</time>
      </trkpt>
      <trkpt lat="47.55569" lon="6.74301">
        <ele>419</ele>
        <time>2015-11-01T09:02:07.000Z</time>
      </trkpt>
      <trkpt lat="47.55571" lon="6.74298">
        <ele>420</ele>
        <time>2015-11-01T09:02:08.000Z</time>
      </trkpt>
      <trkpt lat="47.55573" lon="6.74295">
        <ele>420</ele>
        <time>2015-11-01T09:02:09.000Z</time>
      </trkpt>
      <trkpt lat="47.55574" lon="6.74292">
        <ele>420</ele>
        <time>2015-11-01T09:02:10.000Z</time>
      </trkpt>
      <trkpt lat="47.55576" lon="6.74288">
        <ele>420</ele>
        <time>2015-11-01T09:02:11.000Z</time>
      </trkpt>
      <trkpt lat="47.55577" lon="6.74284">
        <ele>420</ele>
        <time>2015-11-01T09:02:12.000Z</time>
      </trkpt>
      <trkpt lat="47.55578" lon="6.7428">
        <ele>420</ele>
        <time>2015-11-01T09:02:13.000Z</time>
      </trkpt>
      <trkpt lat="47.5558" lon="6.74276">
        <ele>420</ele>
        <time>2015-11-01T09:02:14.000Z</time>
      </trkpt>
      <trkpt lat="47.55581" lon="6.74272">
        <ele>420</ele>
        <time>2015-11-01T09:02:15.000Z</time>
      </trkpt>
      <trkpt lat="47.55583" lon="6.74268">
        <ele>420</ele>
        <time>2015-11-01T09:02:16.000Z</time>
      </trkpt>
      <trkpt lat="47.55585" lon="6.74264">
        <ele>420</ele>
        <time>2015-11-01T09:02:17.000Z</time>
      </trkpt>
      <trkpt lat="47.55586" lon="6.74261">
        <ele>420</ele>
        <time>2015-11-01T09:02:18.000Z</time>
      </trkpt>
      <trkpt lat="47.55588" lon="6.74257">
        <ele>420</ele>
        <time>2015-11-01T09:02:19.000Z</time>
      </trkpt>
      <trkpt lat="47.55589" lon="6.74253">
        <ele>420</ele>
        <time>2015-11-01T09:02:20.000Z</time>
      </trkpt>
      <trkpt lat="47.55591" lon="6.74249">
        <ele>420</ele>
        <time>2015-11-01T09:02:21.000Z</time>
      </trkpt>
      <trkpt lat="47.55593" lon="6.74245">
        <ele>420</ele>
        <time>2015-11-01T09:02:22.000Z</time>
      </trkpt>
      <trkpt lat="47.55594" lon="6.74241">
        <ele>420</ele>
        <time>2015-11-01T09:02:23.000Z</time>
      </trkpt>
      <trkpt lat="47.55596" lon="6.74238">
        <ele>420</ele>
        <time>2015-11-01T09:02:24.000Z</time>
      </trkpt>
      <trkpt lat="47.55598" lon="6.74235">
        <ele>420</ele>
        <time>2015-11-01T09:02:25.000Z</time>
      </trkpt>
      <trkpt lat="47.556" lon="6.74231">
        <ele>420</ele>
        <time>2015-11-01T09:02:26.000Z</time>
      </trkpt>
      <trkpt lat="47.55601" lon="6.74227">
        <ele>421</ele>
        <time>2015-11-01T09:02:27.000Z</time>
      </trkpt>
      <trkpt lat="47.55603" lon="6.74223">
        <ele>421</ele>
        <time>2015-11-01T09:02:28.000Z</time>
      </trkpt>
      <trkpt lat="47.55605" lon="6.74219">
        <ele>421</ele>
        <time>2015-11-01T09:02:29.000Z</time>
      </trkpt>
      <trkpt lat="47.55607" lon="6.74215">
        <ele>421</ele>
        <time>2015-11-01T09:02:30.000Z</time>
      </trkpt>
      <trkpt lat="47.55608" lon="6.74211">
        <ele>421</ele>
        <time>2015-11-01T09:02:31.000Z</time>
      </trkpt>
      <trkpt lat="47.5561" lon="6.74206">
        <ele>421</ele>
        <time>2015-11-01T09:02:32.000Z</time>
      </trkpt>
      <trkpt lat="47.55612" lon="6.74202">
        <ele>421</ele>
        <time>2015-11-01T09:02:33.000Z</time>
      </trkpt>
      <trkpt lat="47.55614" lon="6.74197">
        <ele>420</ele>
        <time>2015-11-01T09:02:34.000Z</time>
      </trkpt>
      <trkpt lat="47.55616" lon="6.74193">
        <ele>420</ele>
        <time>2015-11-01T09:02:35.000Z</time>
      </trkpt>
      <trkpt lat="47.55617" lon="6.74189">
        <ele>420</ele>
        <time>2015-11-01T09:02:36.000Z</time>
      </trkpt>
      <trkpt lat="47.55619" lon="6.74184">
        <ele>420</ele>
        <time>2015-11-01T09:02:37.000Z</time>
      </trkpt>
      <trkpt lat="47.5562" lon="6.7418">
        <ele>420</ele>
        <time>2015-11-01T09:02:38.000Z</time>
      </trkpt>
      <trkpt lat="47.55622" lon="6.74176">
        <ele>420</ele>
        <time>2015-11-01T09:02:39.000Z</time>
      </trkpt>
      <trkpt lat="47.55623" lon="6.74171">
        <ele>420</ele>
        <time>2015-11-01T09:02:40.000Z</time>
      </trkpt>
      <trkpt lat="47.55625" lon="6.74167">
        <ele>420</ele>
        <time>2015-11-01T09:02:41.000Z</time>
      </trkpt>
      <trkpt lat="47.55627" lon="6.74162">
        <ele>419</ele>
        <time>2015-11-01T09:02:42.000Z</time>
      </trkpt>
      <trkpt lat="47.55628" lon="6.74158">
        <ele>419</ele>
        <time>2015-11-01T09:02:43.000Z</time>
      </trkpt>
      <trkpt lat="47.5563" lon="6.74154">
        <ele>419</ele>
        <time>2015-11-01T09:02:44.000Z</time>
      </trkpt>
      <trkpt lat="47.55632" lon="6.7415">
        <ele>419</ele>
        <time>2015-11-01T09:02:45.000Z</time>
      </trkpt>
      <trkpt lat="47.55634" lon="6.74145">
        <ele>419</ele>
        <time>2015-11-01T09:02:46.000Z</time>
      </trkpt>
      <trkpt lat="47.55636" lon="6.74141">
        <ele>419</ele>
        <time>2015-11-01T09:02:47.000Z</time>
      </trkpt>
      <trkpt lat="47.55638" lon="6.74137">
        <ele>419</ele>
        <time>2015-11-01T09:02:48.000Z</time>
      </trkpt>
      <trkpt lat="47.5564" lon="6.74132">
        <ele>419</ele>
        <time>2015-11-01T09:02:49.000Z</time>
      </trkpt>
      <trkpt lat="47.55642" lon="6.74128">
        <ele>419</ele>
        <time>2015-11-01T09:02:50.000Z</time>
      </trkpt>
      <trkpt lat="47.55644" lon="6.74123">
        <ele>419</ele>
        <time>2015-11-01T09:02:51.000Z</time>
      </trkpt>
      <trkpt lat="47.55646" lon="6.74118">
        <ele>419</ele>
        <time>2015-11-01T09:02:52.000Z</time>
      </trkpt>
      <trkpt lat="47.55648" lon="6.74113">
        <ele>419</ele>
        <time>2015-11-01T09:02:53.000Z</time>
      </trkpt>
      <trkpt lat="47.5565" lon="6.74108">
        <ele>419</ele>
        <time>2015-11-01T09:02:54.000Z</time>
      </trkpt>
      <trkpt lat="47.55652" lon="6.74103">
        <ele>418</ele>
        <time>2015-11-01T09:02:55.000Z</time>
      </trkpt>
      <trkpt lat="47.55654" lon="6.74098">
        <ele>418</ele>
        <time>2015-11-01T09:02:56.000Z</time>
      </trkpt>
      <trkpt lat="47.55656" lon="6.74093">
        <ele>418</ele>
        <time>2015-11-01T09:02:57.000Z</time>
      </trkpt>
      <trkpt lat="47.55658" lon="6.74088">
        <ele>418</ele>
        <time>2015-11-01T09:02:58.000Z</time>
      </trkpt>
      <trkpt lat="47.55659" lon="6.74084">
        <ele>418</ele>
        <time>2015-11-01T09:02:59.000Z</time>
      </trkpt>
      <trkpt lat="47.55661" lon="6.74079">
        <ele>417</ele>
        <time>2015-11-01T09:03:00.000Z</time>
      </trkpt>
      <trkpt lat="47.55663" lon="6.74074">
        <ele>417</ele>
        <time>2015-11-01T09:03:01.000Z</time>
      </trkpt>
      <trkpt lat="47.55665" lon="6.7407">
        <ele>417</ele>
        <time>2015-11-01T09:03:02.000Z</time>
      </trkpt>
      <trkpt lat="47.55668" lon="6.74065">
        <ele>416</ele>
        <time>2015-11-01T09:03:03.000Z</time>
      </trkpt>
      <trkpt lat="47.5567" lon="6.7406">
        <ele>416</ele>
        <time>2015-11-01T09:03:04.000Z</time>
      </trkpt>
      <trkpt lat="47.55672" lon="6.74055">
        <ele>416</ele>
        <time>2015-11-01T09:03:05.000Z</time>
      </trkpt>
      <trkpt lat="47.55674" lon="6.7405">
        <ele>416</ele>
        <time>2015-11-01T09:03:06.000Z</time>
      </trkpt>
      <trkpt lat="47.55676" lon="6.74044">
        <ele>415</ele>
        <time>2015-11-01T09:03:07.000Z</time>
      </trkpt>
      <trkpt lat="47.55679" lon="6.74038">
        <ele>415</ele>
        <time>2015-11-01T09:03:08.000Z</time>
      </trkpt>
      <trkpt lat="47.55681" lon="6.74031">
        <ele>415</ele>
        <time>2015-11-01T09:03:09.000Z</time>
      </trkpt>
      <trkpt lat="47.55684" lon="6.74025">
        <ele>415</ele>
        <time>2015-11-01T09:03:10.000Z</time>
      </trkpt>
      <trkpt lat="47.55686" lon="6.74019">
        <ele>415</ele>
        <time>2015-11-01T09:03:11.000Z</time>
      </trkpt>
      <trkpt lat="47.55689" lon="6.74012">
        <ele>415</ele>
        <time>2015-11-01T09:03:12.000Z</time>
      </trkpt>
      <trkpt lat="47.55691" lon="6.74005">
        <ele>415</ele>
        <time>2015-11-01T09:03:13.000Z</time>
      </trkpt>
      <trkpt lat="47.55694" lon="6.73998">
        <ele>412</ele>
        <time>2015-11-01T09:03:14.000Z</time>
      </trkpt>
      <trkpt lat="47.55697" lon="6.73991">
        <ele>412</ele>
        <time>2015-11-01T09:03:15.000Z</time>
      </trkpt>
      <trkpt lat="47.557" lon="6.73983">
        <ele>411</ele>
        <time>2015-11-01T09:03:16.000Z</time>
      </trkpt>
      <trkpt lat="47.55702" lon="6.73975">
        <ele>411</ele>
        <time>2015-11-01T09:03:17.000Z</time>
      </trkpt>
      <trkpt lat="47.55705" lon="6.73968">
        <ele>411</ele>
        <time>2015-11-01T09:03:18.000Z</time>
      </trkpt>
      <trkpt lat="47.55708" lon="6.73962">
        <ele>411</ele>
        <time>2015-11-01T09:03:19.000Z</time>
      </trkpt>
      <trkpt lat="47.5571" lon="6.73957">
        <ele>410</ele>
        <time>2015-11-01T09:03:20.000Z</time>
      </trkpt>
      <trkpt lat="47.55711" lon="6.73955">
        <ele>410</ele>
        <time>2015-11-01T09:03:21.000Z</time>
      </trkpt>
      <trkpt lat="47.55713" lon="6.73951">
        <ele>410</ele>
        <time>2015-11-01T09:03:22.000Z</time>
      </trkpt>
      <trkpt lat="47.55714" lon="6.73947">
        <ele>410</ele>
        <time>2015-11-01T09:03:23.000Z</time>
      </trkpt>
      <trkpt lat="47.55716" lon="6.73944">
        <ele>410</ele>
        <time>2015-11-01T09:03:24.000Z</time>
      </trkpt>
      <trkpt lat="47.55718" lon="6.73939">
        <ele>410</ele>
        <time>2015-11-01T09:03:25.000Z</time>
      </trkpt>
      <trkpt lat="47.5572" lon="6.73934">
        <ele>409</ele>
        <time>2015-11-01T09:03:26.000Z</time>
      </trkpt>
      <trkpt lat="47.55723" lon="6.73929">
        <ele>409</ele>
        <time>2015-11-01T09:03:27.000Z</time>
      </trkpt>
      <trkpt lat="47.55725" lon="6.73923">
        <ele>409</ele>
        <time>2015-11-01T09:03:28.000Z</time>
      </trkpt>
      <trkpt lat="47.55727" lon="6.73918">
        <ele>409</ele>
        <time>2015-11-01T09:03:29.000Z</time>
      </trkpt>
      <trkpt lat="47.55729" lon="6.73914">
        <ele>406</ele>
        <time>2015-11-01T09:03:30.000Z</time>
      </trkpt>
      <trkpt lat="47.55732" lon="6.73909">
        <ele>406</ele>
        <time>2015-11-01T09:03:31.000Z</time>
      </trkpt>
      <trkpt lat="47.55734" lon="6.73905">
        <ele>406</ele>
        <time>2015-11-01T09:03:32.000Z</time>
      </trkpt>
      <trkpt lat="47.55737" lon="6.73901">
        <ele>406</ele>
        <time>2015-11-01T09:03:33.000Z</time>
      </trkpt>
      <trkpt lat="47.55741" lon="6.73897">
        <ele>406</ele>
        <time>2015-11-01T09:03:34.000Z</time>
      </trkpt>
      <trkpt lat="47.55745" lon="6.73893">
        <ele>406</ele>
        <time>2015-11-01T09:03:35.000Z</time>
      </trkpt>
      <trkpt lat="47.55749" lon="6.73889">
        <ele>405</ele>
        <time>2015-11-01T09:03:36.000Z</time>
      </trkpt>
      <trkpt lat="47.55753" lon="6.73885">
        <ele>403</ele>
        <time>2015-11-01T09:03:37.000Z</time>
      </trkpt>
      <trkpt lat="47.55757" lon="6.73881">
        <ele>403</ele>
        <time>2015-11-01T09:03:38.000Z</time>
      </trkpt>
      <trkpt lat="47.55761" lon="6.73878">
        <ele>403</ele>
        <time>2015-11-01T09:03:39.000Z</time>
      </trkpt>
      <trkpt lat="47.55766" lon="6.73873">
        <ele>402</ele>
        <time>2015-11-01T09:03:40.000Z</time>
      </trkpt>
      <trkpt lat="47.55771" lon="6.7387">
        <ele>402</ele>
        <time>2015-11-01T09:03:41.000Z</time>
      </trkpt>
      <trkpt lat="47.55776" lon="6.73869">
        <ele>402</ele>
        <time>2015-11-01T09:03:42.000Z</time>
      </trkpt>
      <trkpt lat="47.55782" lon="6.73868">
        <ele>402</ele>
        <time>2015-11-01T09:03:43.000Z</time>
      </trkpt>
      <trkpt lat="47.55787" lon="6.73868">
        <ele>402</ele>
        <time>2015-11-01T09:03:44.000Z</time>
      </trkpt>
      <trkpt lat="47.55791" lon="6.73867">
        <ele>402</ele>
        <time>2015-11-01T09:03:45.000Z</time>
      </trkpt>
      <trkpt lat="47.55796" lon="6.73867">
        <ele>402</ele>
        <time>2015-11-01T09:03:46.000Z</time>
      </trkpt>
      <trkpt lat="47.55799" lon="6.73867">
        <ele>402</ele>
        <time>2015-11-01T09:03:47.000Z</time>
      </trkpt>
      <trkpt lat="47.55803" lon="6.73866">
        <ele>402</ele>
        <time>2015-11-01T09:03:48.000Z</time>
      </trkpt>
      <trkpt lat="47.55807" lon="6.73867">
        <ele>401</ele>
        <time>2015-11-01T09:03:49.000Z</time>
      </trkpt>
      <trkpt lat="47.55811" lon="6.73867">
        <ele>401</ele>
        <time>2015-11-01T09:03:50.000Z</time>
      </trkpt>
      <trkpt lat="47.55814" lon="6.73867">
        <ele>401</ele>
        <time>2015-11-01T09:03:51.000Z</time>
      </trkpt>
      <trkpt lat="47.55818" lon="6.73866">
        <ele>401</ele>
        <time>2015-11-01T09:03:52.000Z</time>
      </trkpt>
      <trkpt lat="47.55821" lon="6.73865">
        <ele>401</ele>
        <time>2015-11-01T09:03:53.000Z</time>
      </trkpt>
      <trkpt lat="47.55825" lon="6.73864">
        <ele>401</ele>
        <time>2015-11-01T09:03:54.000Z</time>
      </trkpt>
      <trkpt lat="47.55828" lon="6.73863">
        <ele>401</ele>
        <time>2015-11-01T09:03:55.000Z</time>
      </trkpt>
      <trkpt lat="47.55831" lon="6.73862">
        <ele>401</ele>
        <time>2015-11-01T09:03:56.000Z</time>
      </trkpt>
      <trkpt lat="47.55834" lon="6.73863">
        <ele>400</ele>
        <time>2015-11-01T09:03:57.000Z</time>
      </trkpt>
      <trkpt lat="47.55837" lon="6.73864">
        <ele>400</ele>
        <time>2015-11-01T09:03:58.000Z</time>
      </trkpt>
      <trkpt lat="47.55839" lon="6.73867">
        <ele>400</ele>
        <time>2015-11-01T09:03:59.000Z</time>
      </trkpt>
      <trkpt lat="47.55841" lon="6.73871">
        <ele>400</ele>
        <time>2015-11-01T09:04:00.000Z</time>
      </trkpt>
      <trkpt lat="47.55842" lon="6.73874">
        <ele>401</ele>
        <time>2015-11-01T09:04:01.000Z</time>
      </trkpt>
      <trkpt lat="47.55843" lon="6.73878">
        <ele>401</ele>
        <time>2015-11-01T09:04:02.000Z</time>
      </trkpt>
      <trkpt lat="47.55844" lon="6.73882">
        <ele>401</ele>
        <time>2015-11-01T09:04:03.000Z</time>
      </trkpt>
      <trkpt lat="47.55844" lon="6.73886">
        <ele>401</ele>
        <time>2015-11-01T09:04:04.000Z</time>
      </trkpt>
      <trkpt lat="47.55844" lon="6.73889">
        <ele>401</ele>
        <time>2015-11-01T09:04:05.000Z</time>
      </trkpt>
      <trkpt lat="47.55844" lon="6.73893">
        <ele>401</ele>
        <time>2015-11-01T09:04:06.000Z</time>
      </trkpt>
      <trkpt lat="47.55844" lon="6.73896">
        <ele>402</ele>
        <time>2015-11-01T09:04:07.000Z</time>
      </trkpt>
      <trkpt lat="47.55844" lon="6.739">
        <ele>402</ele>
        <time>2015-11-01T09:04:08.000Z</time>
      </trkpt>
      <trkpt lat="47.55844" lon="6.73903">
        <ele>402</ele>
        <time>2015-11-01T09:04:09.000Z</time>
      </trkpt>
      <trkpt lat="47.55845" lon="6.73906">
        <ele>402</ele>
        <time>2015-11-01T09:04:10.067Z</time>
      </trkpt>
      <trkpt lat="47.55845" lon="6.7391">
        <ele>402</ele>
        <time>2015-11-01T09:04:11.000Z</time>
      </trkpt>
      <trkpt lat="47.55845" lon="6.73913">
        <ele>402</ele>
        <time>2015-11-01T09:04:12.000Z</time>
      </trkpt>
      <trkpt lat="47.55846" lon="6.73917">
        <ele>402</ele>
        <time>2015-11-01T09:04:13.000Z</time>
      </trkpt>
      <trkpt lat="47.55846" lon="6.7392">
        <ele>404</ele>
        <time>2015-11-01T09:04:14.000Z</time>
      </trkpt>
      <trkpt lat="47.55847" lon="6.73926">
        <ele>404</ele>
        <time>2015-11-01T09:04:16.000Z</time>
      </trkpt>
      <trkpt lat="47.55847" lon="6.73929">
        <ele>404</ele>
        <time>2015-11-01T09:04:17.000Z</time>
      </trkpt>
      <trkpt lat="47.55848" lon="6.73933">
        <ele>404</ele>
        <time>2015-11-01T09:04:18.000Z</time>
      </trkpt>
      <trkpt lat="47.55848" lon="6.73937">
        <ele>404</ele>
        <time>2015-11-01T09:04:19.000Z</time>
      </trkpt>
      <trkpt lat="47.55849" lon="6.7394">
        <ele>405</ele>
        <time>2015-11-01T09:04:20.000Z</time>
      </trkpt>
      <trkpt lat="47.5585" lon="6.73944">
        <ele>405</ele>
        <time>2015-11-01T09:04:21.000Z</time>
      </trkpt>
      <trkpt lat="47.5585" lon="6.73948">
        <ele>405</ele>
        <time>2015-11-01T09:04:22.000Z</time>
      </trkpt>
      <trkpt lat="47.55851" lon="6.73951">
        <ele>405</ele>
        <time>2015-11-01T09:04:23.000Z</time>
      </trkpt>
      <trkpt lat="47.55851" lon="6.73955">
        <ele>405</ele>
        <time>2015-11-01T09:04:24.000Z</time>
      </trkpt>
      <trkpt lat="47.55851" lon="6.73958">
        <ele>405</ele>
        <time>2015-11-01T09:04:25.000Z</time>
      </trkpt>
      <trkpt lat="47.55852" lon="6.73962">
        <ele>405</ele>
        <time>2015-11-01T09:04:26.000Z</time>
      </trkpt>
      <trkpt lat="47.55852" lon="6.73966">
        <ele>406</ele>
        <time>2015-11-01T09:04:27.000Z</time>
      </trkpt>
      <trkpt lat="47.55852" lon="6.7397">
        <ele>406</ele>
        <time>2015-11-01T09:04:28.000Z</time>
      </trkpt>
      <trkpt lat="47.55853" lon="6.73974">
        <ele>406</ele>
        <time>2015-11-01T09:04:29.000Z</time>
      </trkpt>
      <trkpt lat="47.55853" lon="6.73978">
        <ele>406</ele>
        <time>2015-11-01T09:04:30.000Z</time>
      </trkpt>
      <trkpt lat="47.55854" lon="6.73982">
        <ele>406</ele>
        <time>2015-11-01T09:04:31.000Z</time>
      </trkpt>
      <trkpt lat="47.55854" lon="6.73986">
        <ele>406</ele>
        <time>2015-11-01T09:04:32.000Z</time>
      </trkpt>
      <trkpt lat="47.55854" lon="6.7399">
        <ele>406</ele>
        <time>2015-11-01T09:04:33.000Z</time>
      </trkpt>
      <trkpt lat="47.55855" lon="6.73993">
        <ele>406</ele>
        <time>2015-11-01T09:04:34.000Z</time>
      </trkpt>
      <trkpt lat="47.55855" lon="6.73997">
        <ele>406</ele>
        <time>2015-11-01T09:04:35.000Z</time>
      </trkpt>
      <trkpt lat="47.55856" lon="6.74">
        <ele>407</ele>
        <time>2015-11-01T09:04:36.000Z</time>
      </trkpt>
      <trkpt lat="47.55856" lon="6.74003">
        <ele>409</ele>
        <time>2015-11-01T09:04:37.000Z</time>
      </trkpt>
      <trkpt lat="47.55857" lon="6.74006">
        <ele>409</ele>
        <time>2015-11-01T09:04:38.000Z</time>
      </trkpt>
      <trkpt lat="47.55857" lon="6.7401">
        <ele>409</ele>
        <time>2015-11-01T09:04:39.000Z</time>
      </trkpt>
      <trkpt lat="47.55857" lon="6.74013">
        <ele>409</ele>
        <time>2015-11-01T09:04:40.000Z</time>
      </trkpt>
      <trkpt lat="47.55858" lon="6.74017">
        <ele>409</ele>
        <time>2015-11-01T09:04:41.000Z</time>
      </trkpt>
      <trkpt lat="47.55858" lon="6.74021">
        <ele>409</ele>
        <time>2015-11-01T09:04:42.000Z</time>
      </trkpt>
      <trkpt lat="47.55859" lon="6.74025">
        <ele>409</ele>
        <time>2015-11-01T09:04:43.000Z</time>
      </trkpt>
      <trkpt lat="47.5586" lon="6.74028">
        <ele>409</ele>
        <time>2015-11-01T09:04:44.000Z</time>
      </trkpt>
      <trkpt lat="47.5586" lon="6.74032">
        <ele>409</ele>
        <time>2015-11-01T09:04:45.000Z</time>
      </trkpt>
      <trkpt lat="47.55861" lon="6.74036">
        <ele>409</ele>
        <time>2015-11-01T09:04:46.000Z</time>
      </trkpt>
      <trkpt lat="47.55862" lon="6.74039">
        <ele>409</ele>
        <time>2015-11-01T09:04:47.000Z</time>
      </trkpt>
      <trkpt lat="47.55862" lon="6.74043">
        <ele>409</ele>
        <time>2015-11-01T09:04:48.000Z</time>
      </trkpt>
      <trkpt lat="47.55863" lon="6.74046">
        <ele>409</ele>
        <time>2015-11-01T09:04:49.000Z</time>
      </trkpt>
      <trkpt lat="47.55864" lon="6.7405">
        <ele>410</ele>
        <time>2015-11-01T09:04:50.000Z</time>
      </trkpt>
      <trkpt lat="47.55864" lon="6.74053">
        <ele>410</ele>
        <time>2015-11-01T09:04:51.000Z</time>
      </trkpt>
      <trkpt lat="47.55865" lon="6.74057">
        <ele>410</ele>
        <time>2015-11-01T09:04:52.000Z</time>
      </trkpt>
      <trkpt lat="47.55866" lon="6.7406">
        <ele>410</ele>
        <time>2015-11-01T09:04:53.000Z</time>
      </trkpt>
      <trkpt lat="47.55866" lon="6.74063">
        <ele>410</ele>
        <time>2015-11-01T09:04:54.000Z</time>
      </trkpt>
      <trkpt lat="47.55867" lon="6.74067">
        <ele>410</ele>
        <time>2015-11-01T09:04:55.000Z</time>
      </trkpt>
      <trkpt lat="47.55868" lon="6.7407">
        <ele>410</ele>
        <time>2015-11-01T09:04:56.000Z</time>
      </trkpt>
      <trkpt lat="47.55868" lon="6.74074">
        <ele>410</ele>
        <time>2015-11-01T09:04:57.000Z</time>
      </trkpt>
      <trkpt lat="47.55869" lon="6.74077">
        <ele>410</ele>
        <time>2015-11-01T09:04:58.000Z</time>
      </trkpt>
      <trkpt lat="47.55869" lon="6.74081">
        <ele>410</ele>
        <time>2015-11-01T09:04:59.000Z</time>
      </trkpt>
      <trkpt lat="47.5587" lon="6.74085">
        <ele>412</ele>
        <time>2015-11-01T09:05:00.000Z</time>
      </trkpt>
      <trkpt lat="47.55871" lon="6.74088">
        <ele>412</ele>
        <time>2015-11-01T09:05:01.000Z</time>
      </trkpt>
      <trkpt lat="47.55871" lon="6.74092">
        <ele>412</ele>
        <time>2015-11-01T09:05:02.000Z</time>
      </trkpt>
      <trkpt lat="47.55872" lon="6.74096">
        <ele>412</ele>
        <time>2015-11-01T09:05:03.000Z</time>
      </trkpt>
      <trkpt lat="47.55872" lon="6.74099">
        <ele>412</ele>
        <time>2015-11-01T09:05:04.000Z</time>
      </trkpt>
      <trkpt lat="47.55873" lon="6.74103">
        <ele>412</ele>
        <time>2015-11-01T09:05:05.000Z</time>
      </trkpt>
      <trkpt lat="47.55873" lon="6.74106">
        <ele>412</ele>
        <time>2015-11-01T09:05:06.000Z</time>
      </trkpt>
      <trkpt lat="47.55874" lon="6.7411">
        <ele>412</ele>
        <time>2015-11-01T09:05:07.000Z</time>
      </trkpt>
      <trkpt lat="47.55874" lon="6.74113">
        <ele>412</ele>
        <time>2015-11-01T09:05:08.000Z</time>
      </trkpt>
      <trkpt lat="47.55875" lon="6.74117">
        <ele>412</ele>
        <time>2015-11-01T09:05:09.000Z</time>
      </trkpt>
      <trkpt lat="47.55875" lon="6.7412">
        <ele>412</ele>
        <time>2015-11-01T09:05:10.000Z</time>
      </trkpt>
      <trkpt lat="47.55876" lon="6.74124">
        <ele>412</ele>
        <time>2015-11-01T09:05:11.000Z</time>
      </trkpt>
      <trkpt lat="47.55876" lon="6.74128">
        <ele>413</ele>
        <time>2015-11-01T09:05:12.000Z</time>
      </trkpt>
      <trkpt lat="47.55877" lon="6.74131">
        <ele>413</ele>
        <time>2015-11-01T09:05:13.000Z</time>
      </trkpt>
      <trkpt lat="47.55877" lon="6.74135">
        <ele>413</ele>
        <time>2015-11-01T09:05:14.000Z</time>
      </trkpt>
      <trkpt lat="47.55876" lon="6.74139">
        <ele>413</ele>
        <time>2015-11-01T09:05:15.000Z</time>
      </trkpt>
      <trkpt lat="47.55876" lon="6.74142">
        <ele>413</ele>
        <time>2015-11-01T09:05:16.000Z</time>
      </trkpt>
      <trkpt lat="47.55876" lon="6.74146">
        <ele>413</ele>
        <time>2015-11-01T09:05:17.000Z</time>
      </trkpt>
      <trkpt lat="47.55877" lon="6.7415">
        <ele>413</ele>
        <time>2015-11-01T09:05:18.000Z</time>
      </trkpt>
      <trkpt lat="47.55877" lon="6.74154">
        <ele>413</ele>
        <time>2015-11-01T09:05:19.000Z</time>
      </trkpt>
      <trkpt lat="47.55878" lon="6.74158">
        <ele>413</ele>
        <time>2015-11-01T09:05:20.000Z</time>
      </trkpt>
      <trkpt lat="47.55879" lon="6.74162">
        <ele>413</ele>
        <time>2015-11-01T09:05:21.000Z</time>
      </trkpt>
      <trkpt lat="47.55879" lon="6.74166">
        <ele>413</ele>
        <time>2015-11-01T09:05:22.000Z</time>
      </trkpt>
      <trkpt lat="47.5588" lon="6.74169">
        <ele>415</ele>
        <time>2015-11-01T09:05:23.000Z</time>
      </trkpt>
      <trkpt lat="47.55881" lon="6.74173">
        <ele>415</ele>
        <time>2015-11-01T09:05:24.000Z</time>
      </trkpt>
      <trkpt lat="47.55882" lon="6.74177">
        <ele>415</ele>
        <time>2015-11-01T09:05:25.000Z</time>
      </trkpt>
      <trkpt lat="47.55882" lon="6.7418">
        <ele>416</ele>
        <time>2015-11-01T09:05:26.000Z</time>
      </trkpt>
      <trkpt lat="47.55883" lon="6.74184">
        <ele>416</ele>
        <time>2015-11-01T09:05:27.000Z</time>
      </trkpt>
      <trkpt lat="47.55883" lon="6.74188">
        <ele>416</ele>
        <time>2015-11-01T09:05:28.000Z</time>
      </trkpt>
      <trkpt lat="47.55884" lon="6.74191">
        <ele>416</ele>
        <time>2015-11-01T09:05:29.000Z</time>
      </trkpt>
      <trkpt lat="47.55884" lon="6.74195">
        <ele>416</ele>
        <time>2015-11-01T09:05:30.000Z</time>
      </trkpt>
      <trkpt lat="47.55885" lon="6.74199">
        <ele>416</ele>
        <time>2015-11-01T09:05:31.000Z</time>
      </trkpt>
      <trkpt lat="47.55886" lon="6.74202">
        <ele>416</ele>
        <time>2015-11-01T09:05:32.000Z</time>
      </trkpt>
      <trkpt lat="47.55886" lon="6.74206">
        <ele>416</ele>
        <time>2015-11-01T09:05:33.000Z</time>
      </trkpt>
      <trkpt lat="47.55887" lon="6.7421">
        <ele>416</ele>
        <time>2015-11-01T09:05:34.000Z</time>
      </trkpt>
      <trkpt lat="47.55888" lon="6.74213">
        <ele>416</ele>
        <time>2015-11-01T09:05:35.000Z</time>
      </trkpt>
      <trkpt lat="47.55888" lon="6.74217">
        <ele>417</ele>
        <time>2015-11-01T09:05:36.000Z</time>
      </trkpt>
      <trkpt lat="47.55889" lon="6.74221">
        <ele>417</ele>
        <time>2015-11-01T09:05:37.000Z</time>
      </trkpt>
      <trkpt lat="47.55889" lon="6.74225">
        <ele>417</ele>
        <time>2015-11-01T09:05:38.000Z</time>
      </trkpt>
      <trkpt lat="47.5589" lon="6.74229">
        <ele>417</ele>
        <time>2015-11-01T09:05:39.000Z</time>
      </trkpt>
      <trkpt lat="47.5589" lon="6.74233">
        <ele>417</ele>
        <time>2015-11-01T09:05:40.000Z</time>
      </trkpt>
      <trkpt lat="47.5589" lon="6.74237">
        <ele>417</ele>
        <time>2015-11-01T09:05:41.000Z</time>
      </trkpt>
      <trkpt lat="47.5589" lon="6.74241">
        <ele>417</ele>
        <time>2015-11-01T09:05:42.000Z</time>
      </trkpt>
      <trkpt lat="47.55891" lon="6.74245">
        <ele>417</ele>
        <time>2015-11-01T09:05:43.000Z</time>
      </trkpt>
      <trkpt lat="47.55891" lon="6.74249">
        <ele>417</ele>
        <time>2015-11-01T09:05:44.000Z</time>
      </trkpt>
      <trkpt lat="47.55892" lon="6.74253">
        <ele>419</ele>
        <time>2015-11-01T09:05:45.000Z</time>
      </trkpt>
      <trkpt lat="47.55892" lon="6.74257">
        <ele>419</ele>
        <time>2015-11-01T09:05:46.000Z</time>
      </trkpt>
      <trkpt lat="47.55892" lon="6.74262">
        <ele>419</ele>
        <time>2015-11-01T09:05:47.000Z</time>
      </trkpt>
      <trkpt lat="47.55893" lon="6.74266">
        <ele>419</ele>
        <time>2015-11-01T09:05:48.000Z</time>
      </trkpt>
      <trkpt lat="47.55894" lon="6.74269">
        <ele>419</ele>
        <time>2015-11-01T09:05:49.000Z</time>
      </trkpt>
      <trkpt lat="47.55896" lon="6.74272">
        <ele>419</ele>
        <time>2015-11-01T09:05:50.000Z</time>
      </trkpt>
      <trkpt lat="47.55898" lon="6.74273">
        <ele>419</ele>
        <time>2015-11-01T09:05:51.000Z</time>
      </trkpt>
      <trkpt lat="47.55901" lon="6.74272">
        <ele>419</ele>
        <time>2015-11-01T09:05:52.000Z</time>
      </trkpt>
      <trkpt lat="47.55904" lon="6.7427">
        <ele>419</ele>
        <time>2015-11-01T09:05:53.000Z</time>
      </trkpt>
      <trkpt lat="47.55906" lon="6.74267">
        <ele>419</ele>
        <time>2015-11-01T09:05:54.000Z</time>
      </trkpt>
      <trkpt lat="47.55909" lon="6.74265">
        <ele>419</ele>
        <time>2015-11-01T09:05:55.000Z</time>
      </trkpt>
      <trkpt lat="47.55911" lon="6.74264">
        <ele>419</ele>
        <time>2015-11-01T09:05:56.000Z</time>
      </trkpt>
      <trkpt lat="47.55914" lon="6.74264">
        <ele>419</ele>
        <time>2015-11-01T09:05:57.000Z</time>
      </trkpt>
      <trkpt lat="47.55917" lon="6.74264">
        <ele>419</ele>
        <time>2015-11-01T09:05:58.000Z</time>
      </trkpt>
      <trkpt lat="47.55919" lon="6.74264">
        <ele>419</ele>
        <time>2015-11-01T09:05:59.000Z</time>
      </trkpt>
      <trkpt lat="47.55922" lon="6.74264">
        <ele>419</ele>
        <time>2015-11-01T09:06:00.000Z</time>
      </trkpt>
      <trkpt lat="47.55925" lon="6.74263">
        <ele>419</ele>
        <time>2015-11-01T09:06:01.000Z</time>
      </trkpt>
      <trkpt lat="47.55928" lon="6.74262">
        <ele>419</ele>
        <time>2015-11-01T09:06:02.000Z</time>
      </trkpt>
      <trkpt lat="47.5593" lon="6.74261">
        <ele>419</ele>
        <time>2015-11-01T09:06:03.000Z</time>
      </trkpt>
      <trkpt lat="47.55933" lon="6.7426">
        <ele>419</ele>
        <time>2015-11-01T09:06:04.000Z</time>
      </trkpt>
      <trkpt lat="47.55935" lon="6.74258">
        <ele>419</ele>
        <time>2015-11-01T09:06:05.000Z</time>
      </trkpt>
      <trkpt lat="47.55938" lon="6.74257">
        <ele>419</ele>
        <time>2015-11-01T09:06:06.000Z</time>
      </trkpt>
      <trkpt lat="47.5594" lon="6.74256">
        <ele>419</ele>
        <time>2015-11-01T09:06:07.000Z</time>
      </trkpt>
      <trkpt lat="47.55943" lon="6.74255">
        <ele>419</ele>
        <time>2015-11-01T09:06:08.000Z</time>
      </trkpt>
      <trkpt lat="47.55945" lon="6.74254">
        <ele>419</ele>
        <time>2015-11-01T09:06:09.000Z</time>
      </trkpt>
      <trkpt lat="47.55948" lon="6.74253">
        <ele>419</ele>
        <time>2015-11-01T09:06:10.000Z</time>
      </trkpt>
      <trkpt lat="47.55951" lon="6.74252">
        <ele>419</ele>
        <time>2015-11-01T09:06:11.000Z</time>
      </trkpt>
      <trkpt lat="47.55953" lon="6.74251">
        <ele>419</ele>
        <time>2015-11-01T09:06:12.000Z</time>
      </trkpt>
      <trkpt lat="47.55956" lon="6.7425">
        <ele>419</ele>
        <time>2015-11-01T09:06:13.000Z</time>
      </trkpt>
      <trkpt lat="47.55959" lon="6.74249">
        <ele>417</ele>
        <time>2015-11-01T09:06:14.000Z</time>
      </trkpt>
      <trkpt lat="47.55961" lon="6.74248">
        <ele>417</ele>
        <time>2015-11-01T09:06:15.000Z</time>
      </trkpt>
      <trkpt lat="47.55964" lon="6.74247">
        <ele>417</ele>
        <time>2015-11-01T09:06:16.000Z</time>
      </trkpt>
      <trkpt lat="47.55966" lon="6.74246">
        <ele>417</ele>
        <time>2015-11-01T09:06:17.000Z</time>
      </trkpt>
      <trkpt lat="47.55969" lon="6.74245">
        <ele>417</ele>
        <time>2015-11-01T09:06:18.000Z</time>
      </trkpt>
      <trkpt lat="47.55971" lon="6.74244">
        <ele>417</ele>
        <time>2015-11-01T09:06:19.000Z</time>
      </trkpt>
      <trkpt lat="47.55973" lon="6.74243">
        <ele>418</ele>
        <time>2015-11-01T09:06:20.000Z</time>
      </trkpt>
      <trkpt lat="47.55976" lon="6.74242">
        <ele>418</ele>
        <time>2015-11-01T09:06:21.000Z</time>
      </trkpt>
      <trkpt lat="47.55979" lon="6.74242">
        <ele>418</ele>
        <time>2015-11-01T09:06:22.000Z</time>
      </trkpt>
      <trkpt lat="47.55982" lon="6.74241">
        <ele>418</ele>
        <time>2015-11-01T09:06:23.000Z</time>
      </trkpt>
      <trkpt lat="47.55985" lon="6.74241">
        <ele>418</ele>
        <time>2015-11-01T09:06:24.000Z</time>
      </trkpt>
      <trkpt lat="47.55988" lon="6.74241">
        <ele>418</ele>
        <time>2015-11-01T09:06:25.000Z</time>
      </trkpt>
      <trkpt lat="47.55991" lon="6.74241">
        <ele>418</ele>
        <time>2015-11-01T09:06:26.000Z</time>
      </trkpt>
      <trkpt lat="47.55993" lon="6.74242">
        <ele>418</ele>
        <time>2015-11-01T09:06:27.000Z</time>
      </trkpt>
      <trkpt lat="47.55996" lon="6.74241">
        <ele>418</ele>
        <time>2015-11-01T09:06:28.000Z</time>
      </trkpt>
      <trkpt lat="47.55999" lon="6.74241">
        <ele>418</ele>
        <time>2015-11-01T09:06:29.000Z</time>
      </trkpt>
      <trkpt lat="47.56002" lon="6.74239">
        <ele>418</ele>
        <time>2015-11-01T09:06:30.000Z</time>
      </trkpt>
      <trkpt lat="47.56004" lon="6.74238">
        <ele>418</ele>
        <time>2015-11-01T09:06:31.000Z</time>
      </trkpt>
      <trkpt lat="47.56007" lon="6.74236">
        <ele>418</ele>
        <time>2015-11-01T09:06:32.000Z</time>
      </trkpt>
      <trkpt lat="47.5601" lon="6.74234">
        <ele>418</ele>
        <time>2015-11-01T09:06:33.000Z</time>
      </trkpt>
      <trkpt lat="47.56014" lon="6.74233">
        <ele>418</ele>
        <time>2015-11-01T09:06:34.000Z</time>
      </trkpt>
      <trkpt lat="47.56018" lon="6.74233">
        <ele>417</ele>
        <time>2015-11-01T09:06:35.000Z</time>
      </trkpt>
      <trkpt lat="47.56022" lon="6.74233">
        <ele>417</ele>
        <time>2015-11-01T09:06:36.000Z</time>
      </trkpt>
      <trkpt lat="47.56026" lon="6.74233">
        <ele>417</ele>
        <time>2015-11-01T09:06:37.000Z</time>
      </trkpt>
      <trkpt lat="47.56029" lon="6.74233">
        <ele>417</ele>
        <time>2015-11-01T09:06:38.000Z</time>
      </trkpt>
      <trkpt lat="47.56033" lon="6.74232">
        <ele>417</ele>
        <time>2015-11-01T09:06:39.000Z</time>
      </trkpt>
      <trkpt lat="47.56036" lon="6.7423">
        <ele>417</ele>
        <time>2015-11-01T09:06:40.000Z</time>
      </trkpt>
      <trkpt lat="47.56039" lon="6.74229">
        <ele>417</ele>
        <time>2015-11-01T09:06:41.000Z</time>
      </trkpt>
      <trkpt lat="47.56042" lon="6.74227">
        <ele>417</ele>
        <time>2015-11-01T09:06:42.000Z</time>
      </trkpt>
      <trkpt lat="47.56045" lon="6.74226">
        <ele>417</ele>
        <time>2015-11-01T09:06:43.000Z</time>
      </trkpt>
      <trkpt lat="47.56048" lon="6.74224">
        <ele>417</ele>
        <time>2015-11-01T09:06:44.000Z</time>
      </trkpt>
      <trkpt lat="47.56052" lon="6.74222">
        <ele>417</ele>
        <time>2015-11-01T09:06:45.000Z</time>
      </trkpt>
      <trkpt lat="47.56055" lon="6.74221">
        <ele>417</ele>
        <time>2015-11-01T09:06:46.000Z</time>
      </trkpt>
      <trkpt lat="47.56058" lon="6.74219">
        <ele>417</ele>
        <time>2015-11-01T09:06:47.000Z</time>
      </trkpt>
      <trkpt lat="47.56062" lon="6.74217">
        <ele>417</ele>
        <time>2015-11-01T09:06:48.000Z</time>
      </trkpt>
      <trkpt lat="47.56066" lon="6.74214">
        <ele>417</ele>
        <time>2015-11-01T09:06:49.000Z</time>
      </trkpt>
      <trkpt lat="47.5607" lon="6.74212">
        <ele>417</ele>
        <time>2015-11-01T09:06:50.000Z</time>
      </trkpt>
      <trkpt lat="47.56079" lon="6.74206">
        <ele>416</ele>
        <time>2015-11-01T09:06:51.000Z</time>
      </trkpt>
      <trkpt lat="47.56084" lon="6.74204">
        <ele>418</ele>
        <time>2015-11-01T09:06:52.000Z</time>
      </trkpt>
      <trkpt lat="47.5609" lon="6.74202">
        <ele>418</ele>
        <time>2015-11-01T09:06:53.000Z</time>
      </trkpt>
      <trkpt lat="47.56096" lon="6.742">
        <ele>418</ele>
        <time>2015-11-01T09:06:54.000Z</time>
      </trkpt>
      <trkpt lat="47.56102" lon="6.74198">
        <ele>418</ele>
        <time>2015-11-01T09:06:55.000Z</time>
      </trkpt>
      <trkpt lat="47.56108" lon="6.74196">
        <ele>418</ele>
        <time>2015-11-01T09:06:56.000Z</time>
      </trkpt>
      <trkpt lat="47.56113" lon="6.74192">
        <ele>418</ele>
        <time>2015-11-01T09:06:57.000Z</time>
      </trkpt>
      <trkpt lat="47.56118" lon="6.74189">
        <ele>418</ele>
        <time>2015-11-01T09:06:58.000Z</time>
      </trkpt>
      <trkpt lat="47.56123" lon="6.74183">
        <ele>418</ele>
        <time>2015-11-01T09:06:59.000Z</time>
      </trkpt>
      <trkpt lat="47.56128" lon="6.74178">
        <ele>418</ele>
        <time>2015-11-01T09:07:00.000Z</time>
      </trkpt>
      <trkpt lat="47.56133" lon="6.74171">
        <ele>418</ele>
        <time>2015-11-01T09:07:01.000Z</time>
      </trkpt>
      <trkpt lat="47.56138" lon="6.74166">
        <ele>413</ele>
        <time>2015-11-01T09:07:02.000Z</time>
      </trkpt>
      <trkpt lat="47.56145" lon="6.74162">
        <ele>413</ele>
        <time>2015-11-01T09:07:03.000Z</time>
      </trkpt>
      <trkpt lat="47.56151" lon="6.74158">
        <ele>414</ele>
        <time>2015-11-01T09:07:04.000Z</time>
      </trkpt>
      <trkpt lat="47.56158" lon="6.74153">
        <ele>414</ele>
        <time>2015-11-01T09:07:05.000Z</time>
      </trkpt>
      <trkpt lat="47.56166" lon="6.74149">
        <ele>414</ele>
        <time>2015-11-01T09:07:06.000Z</time>
      </trkpt>
      <trkpt lat="47.56173" lon="6.74145">
        <ele>412</ele>
        <time>2015-11-01T09:07:07.000Z</time>
      </trkpt>
      <trkpt lat="47.5618" lon="6.7414">
        <ele>411</ele>
        <time>2015-11-01T09:07:08.000Z</time>
      </trkpt>
      <trkpt lat="47.56188" lon="6.74137">
        <ele>410</ele>
        <time>2015-11-01T09:07:09.000Z</time>
      </trkpt>
      <trkpt lat="47.56195" lon="6.74133">
        <ele>409</ele>
        <time>2015-11-01T09:07:10.000Z</time>
      </trkpt>
      <trkpt lat="47.56202" lon="6.74129">
        <ele>408</ele>
        <time>2015-11-01T09:07:11.000Z</time>
      </trkpt>
      <trkpt lat="47.56209" lon="6.74123">
        <ele>408</ele>
        <time>2015-11-01T09:07:12.000Z</time>
      </trkpt>
      <trkpt lat="47.56216" lon="6.74116">
        <ele>407</ele>
        <time>2015-11-01T09:07:13.000Z</time>
      </trkpt>
      <trkpt lat="47.56221" lon="6.74108">
        <ele>406</ele>
        <time>2015-11-01T09:07:14.000Z</time>
      </trkpt>
      <trkpt lat="47.56228" lon="6.741">
        <ele>405</ele>
        <time>2015-11-01T09:07:15.000Z</time>
      </trkpt>
      <trkpt lat="47.56235" lon="6.74096">
        <ele>404</ele>
        <time>2015-11-01T09:07:16.000Z</time>
      </trkpt>
      <trkpt lat="47.56243" lon="6.74092">
        <ele>403</ele>
        <time>2015-11-01T09:07:17.000Z</time>
      </trkpt>
      <trkpt lat="47.5625" lon="6.74088">
        <ele>401</ele>
        <time>2015-11-01T09:07:18.000Z</time>
      </trkpt>
      <trkpt lat="47.56256" lon="6.74085">
        <ele>400</ele>
        <time>2015-11-01T09:07:19.000Z</time>
      </trkpt>
      <trkpt lat="47.56262" lon="6.74081">
        <ele>397</ele>
        <time>2015-11-01T09:07:20.000Z</time>
      </trkpt>
      <trkpt lat="47.56268" lon="6.74078">
        <ele>395</ele>
        <time>2015-11-01T09:07:21.000Z</time>
      </trkpt>
      <trkpt lat="47.56275" lon="6.74075">
        <ele>394</ele>
        <time>2015-11-01T09:07:22.000Z</time>
      </trkpt>
      <trkpt lat="47.56281" lon="6.74072">
        <ele>393</ele>
        <time>2015-11-01T09:07:23.000Z</time>
      </trkpt>
      <trkpt lat="47.56286" lon="6.74069">
        <ele>393</ele>
        <time>2015-11-01T09:07:24.000Z</time>
      </trkpt>
      <trkpt lat="47.56293" lon="6.74068">
        <ele>392</ele>
        <time>2015-11-01T09:07:25.000Z</time>
      </trkpt>
      <trkpt lat="47.563" lon="6.74067">
        <ele>391</ele>
        <time>2015-11-01T09:07:26.000Z</time>
      </trkpt>
      <trkpt lat="47.56307" lon="6.74065">
        <ele>391</ele>
        <time>2015-11-01T09:07:27.000Z</time>
      </trkpt>
      <trkpt lat="47.56314" lon="6.7406">
        <ele>390</ele>
        <time>2015-11-01T09:07:28.000Z</time>
      </trkpt>
      <trkpt lat="47.56321" lon="6.74053">
        <ele>390</ele>
        <time>2015-11-01T09:07:29.000Z</time>
      </trkpt>
      <trkpt lat="47.56328" lon="6.74046">
        <ele>389</ele>
        <time>2015-11-01T09:07:30.000Z</time>
      </trkpt>
      <trkpt lat="47.56334" lon="6.74039">
        <ele>381</ele>
        <time>2015-11-01T09:07:31.000Z</time>
      </trkpt>
      <trkpt lat="47.56341" lon="6.74032">
        <ele>381</ele>
        <time>2015-11-01T09:07:32.000Z</time>
      </trkpt>
      <trkpt lat="47.56348" lon="6.74024">
        <ele>380</ele>
        <time>2015-11-01T09:07:33.000Z</time>
      </trkpt>
      <trkpt lat="47.56356" lon="6.74016">
        <ele>380</ele>
        <time>2015-11-01T09:07:34.000Z</time>
      </trkpt>
      <trkpt lat="47.56364" lon="6.7401">
        <ele>379</ele>
        <time>2015-11-01T09:07:35.000Z</time>
      </trkpt>
      <trkpt lat="47.56371" lon="6.74003">
        <ele>378</ele>
        <time>2015-11-01T09:07:36.000Z</time>
      </trkpt>
      <trkpt lat="47.56377" lon="6.73997">
        <ele>374</ele>
        <time>2015-11-01T09:07:37.000Z</time>
      </trkpt>
      <trkpt lat="47.56384" lon="6.73992">
        <ele>373</ele>
        <time>2015-11-01T09:07:38.000Z</time>
      </trkpt>
      <trkpt lat="47.5639" lon="6.73986">
        <ele>373</ele>
        <time>2015-11-01T09:07:39.000Z</time>
      </trkpt>
      <trkpt lat="47.56394" lon="6.73983">
        <ele>372</ele>
        <time>2015-11-01T09:07:40.000Z</time>
      </trkpt>
      <trkpt lat="47.56397" lon="6.7398">
        <ele>372</ele>
        <time>2015-11-01T09:07:41.000Z</time>
      </trkpt>
      <trkpt lat="47.564" lon="6.73979">
        <ele>372</ele>
        <time>2015-11-01T09:07:42.000Z</time>
      </trkpt>
      <trkpt lat="47.56403" lon="6.73977">
        <ele>372</ele>
        <time>2015-11-01T09:07:43.000Z</time>
      </trkpt>
      <trkpt lat="47.56407" lon="6.73977">
        <ele>372</ele>
        <time>2015-11-01T09:07:48.000Z</time>
      </trkpt>
      <trkpt lat="47.56408" lon="6.73976">
        <ele>372</ele>
        <time>2015-11-01T09:07:49.000Z</time>
      </trkpt>
      <trkpt lat="47.5641" lon="6.73972">
        <ele>372</ele>
        <time>2015-11-01T09:07:51.000Z</time>
      </trkpt>
      <trkpt lat="47.5641" lon="6.73969">
        <ele>372</ele>
        <time>2015-11-01T09:07:52.000Z</time>
      </trkpt>
      <trkpt lat="47.56411" lon="6.73964">
        <ele>372</ele>
        <time>2015-11-01T09:07:54.000Z</time>
      </trkpt>
      <trkpt lat="47.56411" lon="6.73962">
        <ele>372</ele>
        <time>2015-11-01T09:07:55.000Z</time>
      </trkpt>
      <trkpt lat="47.56411" lon="6.73959">
        <ele>371</ele>
        <time>2015-11-01T09:07:57.000Z</time>
      </trkpt>
      <trkpt lat="47.56413" lon="6.73956">
        <ele>371</ele>
        <time>2015-11-01T09:07:58.000Z</time>
      </trkpt>
      <trkpt lat="47.56417" lon="6.73947">
        <ele>365</ele>
        <time>2015-11-01T09:07:59.000Z</time>
      </trkpt>
      <trkpt lat="47.56422" lon="6.73942">
        <ele>365</ele>
        <time>2015-11-01T09:08:00.000Z</time>
      </trkpt>
      <trkpt lat="47.56428" lon="6.73938">
        <ele>365</ele>
        <time>2015-11-01T09:08:01.000Z</time>
      </trkpt>
      <trkpt lat="47.56435" lon="6.73935">
        <ele>365</ele>
        <time>2015-11-01T09:08:02.000Z</time>
      </trkpt>
      <trkpt lat="47.56443" lon="6.73932">
        <ele>364</ele>
        <time>2015-11-01T09:08:03.000Z</time>
      </trkpt>
      <trkpt lat="47.5645" lon="6.7393">
        <ele>364</ele>
        <time>2015-11-01T09:08:03.989Z</time>
      </trkpt>
      <trkpt lat="47.56459" lon="6.7393">
        <ele>364</ele>
        <time>2015-11-01T09:08:05.000Z</time>
      </trkpt>
      <trkpt lat="47.56467" lon="6.73931">
        <ele>363</ele>
        <time>2015-11-01T09:08:06.000Z</time>
      </trkpt>
      <trkpt lat="47.56475" lon="6.73932">
        <ele>363</ele>
        <time>2015-11-01T09:08:07.000Z</time>
      </trkpt>
      <trkpt lat="47.56481" lon="6.73935">
        <ele>363</ele>
        <time>2015-11-01T09:08:08.000Z</time>
      </trkpt>
      <trkpt lat="47.56486" lon="6.73939">
        <ele>362</ele>
        <time>2015-11-01T09:08:09.000Z</time>
      </trkpt>
      <trkpt lat="47.56492" lon="6.73941">
        <ele>362</ele>
        <time>2015-11-01T09:08:10.000Z</time>
      </trkpt>
      <trkpt lat="47.56498" lon="6.73942">
        <ele>362</ele>
        <time>2015-11-01T09:08:11.000Z</time>
      </trkpt>
      <trkpt lat="47.56504" lon="6.73942">
        <ele>359</ele>
        <time>2015-11-01T09:08:12.000Z</time>
      </trkpt>
      <trkpt lat="47.56511" lon="6.73941">
        <ele>359</ele>
        <time>2015-11-01T09:08:13.000Z</time>
      </trkpt>
      <trkpt lat="47.56517" lon="6.73939">
        <ele>359</ele>
        <time>2015-11-01T09:08:14.000Z</time>
      </trkpt>
      <trkpt lat="47.56523" lon="6.73937">
        <ele>359</ele>
        <time>2015-11-01T09:08:15.000Z</time>
      </trkpt>
      <trkpt lat="47.56528" lon="6.73933">
        <ele>359</ele>
        <time>2015-11-01T09:08:16.000Z</time>
      </trkpt>
      <trkpt lat="47.56535" lon="6.73932">
        <ele>359</ele>
        <time>2015-11-01T09:08:17.000Z</time>
      </trkpt>
      <trkpt lat="47.56541" lon="6.73931">
        <ele>359</ele>
        <time>2015-11-01T09:08:18.000Z</time>
      </trkpt>
      <trkpt lat="47.56547" lon="6.73931">
        <ele>359</ele>
        <time>2015-11-01T09:08:19.000Z</time>
      </trkpt>
      <trkpt lat="47.56552" lon="6.7393">
        <ele>359</ele>
        <time>2015-11-01T09:08:20.000Z</time>
      </trkpt>
      <trkpt lat="47.56559" lon="6.73929">
        <ele>358</ele>
        <time>2015-11-01T09:08:21.000Z</time>
      </trkpt>
      <trkpt lat="47.56564" lon="6.7393">
        <ele>358</ele>
        <time>2015-11-01T09:08:22.000Z</time>
      </trkpt>
      <trkpt lat="47.5657" lon="6.73931">
        <ele>358</ele>
        <time>2015-11-01T09:08:23.000Z</time>
      </trkpt>
      <trkpt lat="47.56575" lon="6.73932">
        <ele>358</ele>
        <time>2015-11-01T09:08:24.000Z</time>
      </trkpt>
      <trkpt lat="47.5658" lon="6.73932">
        <ele>358</ele>
        <time>2015-11-01T09:08:25.000Z</time>
      </trkpt>
      <trkpt lat="47.56585" lon="6.73932">
        <ele>357</ele>
        <time>2015-11-01T09:08:26.000Z</time>
      </trkpt>
      <trkpt lat="47.5659" lon="6.73932">
        <ele>357</ele>
        <time>2015-11-01T09:08:27.000Z</time>
      </trkpt>
      <trkpt lat="47.56595" lon="6.73932">
        <ele>357</ele>
        <time>2015-11-01T09:08:28.000Z</time>
      </trkpt>
      <trkpt lat="47.566" lon="6.73932">
        <ele>357</ele>
        <time>2015-11-01T09:08:29.000Z</time>
      </trkpt>
      <trkpt lat="47.56606" lon="6.73932">
        <ele>357</ele>
        <time>2015-11-01T09:08:30.000Z</time>
      </trkpt>
      <trkpt lat="47.56611" lon="6.73932">
        <ele>357</ele>
        <time>2015-11-01T09:08:31.000Z</time>
      </trkpt>
      <trkpt lat="47.56616" lon="6.73932">
        <ele>357</ele>
        <time>2015-11-01T09:08:32.000Z</time>
      </trkpt>
      <trkpt lat="47.56621" lon="6.73932">
        <ele>357</ele>
        <time>2015-11-01T09:08:33.000Z</time>
      </trkpt>
      <trkpt lat="47.56626" lon="6.73932">
        <ele>356</ele>
        <time>2015-11-01T09:08:34.000Z</time>
      </trkpt>
      <trkpt lat="47.56632" lon="6.73931">
        <ele>357</ele>
        <time>2015-11-01T09:08:35.000Z</time>
      </trkpt>
      <trkpt lat="47.56637" lon="6.7393">
        <ele>357</ele>
        <time>2015-11-01T09:08:36.000Z</time>
      </trkpt>
      <trkpt lat="47.56643" lon="6.73928">
        <ele>357</ele>
        <time>2015-11-01T09:08:37.000Z</time>
      </trkpt>
      <trkpt lat="47.56648" lon="6.73927">
        <ele>357</ele>
        <time>2015-11-01T09:08:38.000Z</time>
      </trkpt>
      <trkpt lat="47.56653" lon="6.73926">
        <ele>357</ele>
        <time>2015-11-01T09:08:39.000Z</time>
      </trkpt>
      <trkpt lat="47.56658" lon="6.73923">
        <ele>358</ele>
        <time>2015-11-01T09:08:40.000Z</time>
      </trkpt>
      <trkpt lat="47.56664" lon="6.73921">
        <ele>358</ele>
        <time>2015-11-01T09:08:41.000Z</time>
      </trkpt>
      <trkpt lat="47.56668" lon="6.73919">
        <ele>358</ele>
        <time>2015-11-01T09:08:42.000Z</time>
      </trkpt>
      <trkpt lat="47.56673" lon="6.73917">
        <ele>358</ele>
        <time>2015-11-01T09:08:43.000Z</time>
      </trkpt>
      <trkpt lat="47.56677" lon="6.73915">
        <ele>362</ele>
        <time>2015-11-01T09:08:44.000Z</time>
      </trkpt>
      <trkpt lat="47.56682" lon="6.73913">
        <ele>363</ele>
        <time>2015-11-01T09:08:45.000Z</time>
      </trkpt>
      <trkpt lat="47.56687" lon="6.73912">
        <ele>363</ele>
        <time>2015-11-01T09:08:46.000Z</time>
      </trkpt>
      <trkpt lat="47.56692" lon="6.73911">
        <ele>364</ele>
        <time>2015-11-01T09:08:47.000Z</time>
      </trkpt>
      <trkpt lat="47.56697" lon="6.73911">
        <ele>364</ele>
        <time>2015-11-01T09:08:48.000Z</time>
      </trkpt>
      <trkpt lat="47.56702" lon="6.73909">
        <ele>364</ele>
        <time>2015-11-01T09:08:49.000Z</time>
      </trkpt>
      <trkpt lat="47.56707" lon="6.73908">
        <ele>364</ele>
        <time>2015-11-01T09:08:50.000Z</time>
      </trkpt>
      <trkpt lat="47.56713" lon="6.73906">
        <ele>364</ele>
        <time>2015-11-01T09:08:51.000Z</time>
      </trkpt>
      <trkpt lat="47.56719" lon="6.73905">
        <ele>363</ele>
        <time>2015-11-01T09:08:52.000Z</time>
      </trkpt>
      <trkpt lat="47.56725" lon="6.73903">
        <ele>363</ele>
        <time>2015-11-01T09:08:53.000Z</time>
      </trkpt>
      <trkpt lat="47.56731" lon="6.73901">
        <ele>363</ele>
        <time>2015-11-01T09:08:54.000Z</time>
      </trkpt>
      <trkpt lat="47.56738" lon="6.73899">
        <ele>362</ele>
        <time>2015-11-01T09:08:55.000Z</time>
      </trkpt>
      <trkpt lat="47.56745" lon="6.73897">
        <ele>362</ele>
        <time>2015-11-01T09:08:56.000Z</time>
      </trkpt>
      <trkpt lat="47.56752" lon="6.73895">
        <ele>357</ele>
        <time>2015-11-01T09:08:57.000Z</time>
      </trkpt>
      <trkpt lat="47.56758" lon="6.73892">
        <ele>357</ele>
        <time>2015-11-01T09:08:58.000Z</time>
      </trkpt>
      <trkpt lat="47.56765" lon="6.7389">
        <ele>357</ele>
        <time>2015-11-01T09:08:59.000Z</time>
      </trkpt>
      <trkpt lat="47.56772" lon="6.73886">
        <ele>357</ele>
        <time>2015-11-01T09:09:00.000Z</time>
      </trkpt>
      <trkpt lat="47.56778" lon="6.73882">
        <ele>357</ele>
        <time>2015-11-01T09:09:01.000Z</time>
      </trkpt>
      <trkpt lat="47.56785" lon="6.73878">
        <ele>357</ele>
        <time>2015-11-01T09:09:02.000Z</time>
      </trkpt>
      <trkpt lat="47.56792" lon="6.73874">
        <ele>357</ele>
        <time>2015-11-01T09:09:03.000Z</time>
      </trkpt>
      <trkpt lat="47.56797" lon="6.7387">
        <ele>357</ele>
        <time>2015-11-01T09:09:04.000Z</time>
      </trkpt>
      <trkpt lat="47.56802" lon="6.73864">
        <ele>357</ele>
        <time>2015-11-01T09:09:05.000Z</time>
      </trkpt>
      <trkpt lat="47.56807" lon="6.73857">
        <ele>357</ele>
        <time>2015-11-01T09:09:06.000Z</time>
      </trkpt>
      <trkpt lat="47.56813" lon="6.73852">
        <ele>357</ele>
        <time>2015-11-01T09:09:07.000Z</time>
      </trkpt>
      <trkpt lat="47.56818" lon="6.73845">
        <ele>357</ele>
        <time>2015-11-01T09:09:08.000Z</time>
      </trkpt>
      <trkpt lat="47.56823" lon="6.73838">
        <ele>356</ele>
        <time>2015-11-01T09:09:09.000Z</time>
      </trkpt>
      <trkpt lat="47.56828" lon="6.73832">
        <ele>359</ele>
        <time>2015-11-01T09:09:10.000Z</time>
      </trkpt>
      <trkpt lat="47.56833" lon="6.73826">
        <ele>359</ele>
        <time>2015-11-01T09:09:11.000Z</time>
      </trkpt>
      <trkpt lat="47.56837" lon="6.7382">
        <ele>355</ele>
        <time>2015-11-01T09:09:12.000Z</time>
      </trkpt>
      <trkpt lat="47.56842" lon="6.73813">
        <ele>354</ele>
        <time>2015-11-01T09:09:13.000Z</time>
      </trkpt>
      <trkpt lat="47.56846" lon="6.73806">
        <ele>354</ele>
        <time>2015-11-01T09:09:14.000Z</time>
      </trkpt>
      <trkpt lat="47.5685" lon="6.738">
        <ele>354</ele>
        <time>2015-11-01T09:09:15.000Z</time>
      </trkpt>
      <trkpt lat="47.56855" lon="6.73792">
        <ele>354</ele>
        <time>2015-11-01T09:09:16.000Z</time>
      </trkpt>
      <trkpt lat="47.56859" lon="6.73784">
        <ele>354</ele>
        <time>2015-11-01T09:09:17.000Z</time>
      </trkpt>
      <trkpt lat="47.56864" lon="6.73777">
        <ele>354</ele>
        <time>2015-11-01T09:09:18.000Z</time>
      </trkpt>
      <trkpt lat="47.56868" lon="6.73768">
        <ele>354</ele>
        <time>2015-11-01T09:09:19.000Z</time>
      </trkpt>
      <trkpt lat="47.56872" lon="6.73761">
        <ele>354</ele>
        <time>2015-11-01T09:09:20.000Z</time>
      </trkpt>
      <trkpt lat="47.56875" lon="6.73754">
        <ele>354</ele>
        <time>2015-11-01T09:09:21.000Z</time>
      </trkpt>
      <trkpt lat="47.5688" lon="6.73748">
        <ele>357</ele>
        <time>2015-11-01T09:09:22.000Z</time>
      </trkpt>
      <trkpt lat="47.56886" lon="6.73743">
        <ele>356</ele>
        <time>2015-11-01T09:09:23.000Z</time>
      </trkpt>
      <trkpt lat="47.56892" lon="6.73737">
        <ele>355</ele>
        <time>2015-11-01T09:09:24.000Z</time>
      </trkpt>
      <trkpt lat="47.56896" lon="6.73729">
        <ele>355</ele>
        <time>2015-11-01T09:09:25.000Z</time>
      </trkpt>
      <trkpt lat="47.569" lon="6.73721">
        <ele>355</ele>
        <time>2015-11-01T09:09:26.000Z</time>
      </trkpt>
      <trkpt lat="47.56904" lon="6.73714">
        <ele>355</ele>
        <time>2015-11-01T09:09:27.000Z</time>
      </trkpt>
      <trkpt lat="47.56908" lon="6.73707">
        <ele>355</ele>
        <time>2015-11-01T09:09:28.000Z</time>
      </trkpt>
      <trkpt lat="47.56912" lon="6.737">
        <ele>355</ele>
        <time>2015-11-01T09:09:29.000Z</time>
      </trkpt>
      <trkpt lat="47.56915" lon="6.73692">
        <ele>354</ele>
        <time>2015-11-01T09:09:30.000Z</time>
      </trkpt>
      <trkpt lat="47.56917" lon="6.73684">
        <ele>347</ele>
        <time>2015-11-01T09:09:31.000Z</time>
      </trkpt>
      <trkpt lat="47.56918" lon="6.73675">
        <ele>348</ele>
        <time>2015-11-01T09:09:32.000Z</time>
      </trkpt>
      <trkpt lat="47.56921" lon="6.73665">
        <ele>349</ele>
        <time>2015-11-01T09:09:33.000Z</time>
      </trkpt>
      <trkpt lat="47.56923" lon="6.73656">
        <ele>349</ele>
        <time>2015-11-01T09:09:34.000Z</time>
      </trkpt>
      <trkpt lat="47.56924" lon="6.73648">
        <ele>348</ele>
        <time>2015-11-01T09:09:35.000Z</time>
      </trkpt>
      <trkpt lat="47.56925" lon="6.7364">
        <ele>348</ele>
        <time>2015-11-01T09:09:36.000Z</time>
      </trkpt>
      <trkpt lat="47.56927" lon="6.73632">
        <ele>348</ele>
        <time>2015-11-01T09:09:37.000Z</time>
      </trkpt>
      <trkpt lat="47.56928" lon="6.73625">
        <ele>348</ele>
        <time>2015-11-01T09:09:38.000Z</time>
      </trkpt>
      <trkpt lat="47.5693" lon="6.73617">
        <ele>348</ele>
        <time>2015-11-01T09:09:39.000Z</time>
      </trkpt>
      <trkpt lat="47.56931" lon="6.7361">
        <ele>348</ele>
        <time>2015-11-01T09:09:40.000Z</time>
      </trkpt>
      <trkpt lat="47.56934" lon="6.73603">
        <ele>348</ele>
        <time>2015-11-01T09:09:41.000Z</time>
      </trkpt>
      <trkpt lat="47.56938" lon="6.73596">
        <ele>348</ele>
        <time>2015-11-01T09:09:42.000Z</time>
      </trkpt>
      <trkpt lat="47.56941" lon="6.73588">
        <ele>348</ele>
        <time>2015-11-01T09:09:43.000Z</time>
      </trkpt>
      <trkpt lat="47.56945" lon="6.73582">
        <ele>354</ele>
        <time>2015-11-01T09:09:44.000Z</time>
      </trkpt>
      <trkpt lat="47.5695" lon="6.73575">
        <ele>354</ele>
        <time>2015-11-01T09:09:45.000Z</time>
      </trkpt>
      <trkpt lat="47.56955" lon="6.7357">
        <ele>354</ele>
        <time>2015-11-01T09:09:46.000Z</time>
      </trkpt>
      <trkpt lat="47.56961" lon="6.73565">
        <ele>355</ele>
        <time>2015-11-01T09:09:47.000Z</time>
      </trkpt>
      <trkpt lat="47.56966" lon="6.7356">
        <ele>355</ele>
        <time>2015-11-01T09:09:48.000Z</time>
      </trkpt>
      <trkpt lat="47.56972" lon="6.73555">
        <ele>355</ele>
        <time>2015-11-01T09:09:49.000Z</time>
      </trkpt>
      <trkpt lat="47.56978" lon="6.73551">
        <ele>355</ele>
        <time>2015-11-01T09:09:50.000Z</time>
      </trkpt>
      <trkpt lat="47.56985" lon="6.73548">
        <ele>355</ele>
        <time>2015-11-01T09:09:51.000Z</time>
      </trkpt>
      <trkpt lat="47.56991" lon="6.73544">
        <ele>356</ele>
        <time>2015-11-01T09:09:52.000Z</time>
      </trkpt>
      <trkpt lat="47.56998" lon="6.73541">
        <ele>356</ele>
        <time>2015-11-01T09:09:53.000Z</time>
      </trkpt>
      <trkpt lat="47.57004" lon="6.73537">
        <ele>351</ele>
        <time>2015-11-01T09:09:54.000Z</time>
      </trkpt>
      <trkpt lat="47.57011" lon="6.73534">
        <ele>351</ele>
        <time>2015-11-01T09:09:55.000Z</time>
      </trkpt>
      <trkpt lat="47.57018" lon="6.73533">
        <ele>351</ele>
        <time>2015-11-01T09:09:56.000Z</time>
      </trkpt>
      <trkpt lat="47.57023" lon="6.7353">
        <ele>351</ele>
        <time>2015-11-01T09:09:57.000Z</time>
      </trkpt>
      <trkpt lat="47.57026" lon="6.73526">
        <ele>351</ele>
        <time>2015-11-01T09:09:58.000Z</time>
      </trkpt>
      <trkpt lat="47.57028" lon="6.73523">
        <ele>351</ele>
        <time>2015-11-01T09:09:59.000Z</time>
      </trkpt>
      <trkpt lat="47.57029" lon="6.73519">
        <ele>351</ele>
        <time>2015-11-01T09:10:00.000Z</time>
      </trkpt>
      <trkpt lat="47.5703" lon="6.73515">
        <ele>351</ele>
        <time>2015-11-01T09:10:01.000Z</time>
      </trkpt>
      <trkpt lat="47.57031" lon="6.73512">
        <ele>352</ele>
        <time>2015-11-01T09:10:02.000Z</time>
      </trkpt>
      <trkpt lat="47.57031" lon="6.73508">
        <ele>352</ele>
        <time>2015-11-01T09:10:03.000Z</time>
      </trkpt>
      <trkpt lat="47.57034" lon="6.73502">
        <ele>352</ele>
        <time>2015-11-01T09:10:05.000Z</time>
      </trkpt>
      <trkpt lat="47.57037" lon="6.73501">
        <ele>351</ele>
        <time>2015-11-01T09:10:06.000Z</time>
      </trkpt>
      <trkpt lat="47.57038" lon="6.73499">
        <ele>359</ele>
        <time>2015-11-01T09:10:07.000Z</time>
      </trkpt>
      <trkpt lat="47.57041" lon="6.73498">
        <ele>359</ele>
        <time>2015-11-01T09:10:08.000Z</time>
      </trkpt>
      <trkpt lat="47.57044" lon="6.73497">
        <ele>358</ele>
        <time>2015-11-01T09:10:09.000Z</time>
      </trkpt>
      <trkpt lat="47.57049" lon="6.73499">
        <ele>357</ele>
        <time>2015-11-01T09:10:10.000Z</time>
      </trkpt>
      <trkpt lat="47.57052" lon="6.73496">
        <ele>357</ele>
        <time>2015-11-01T09:10:11.000Z</time>
      </trkpt>
      <trkpt lat="47.57055" lon="6.73493">
        <ele>356</ele>
        <time>2015-11-01T09:10:12.000Z</time>
      </trkpt>
      <trkpt lat="47.57058" lon="6.7349">
        <ele>356</ele>
        <time>2015-11-01T09:10:13.000Z</time>
      </trkpt>
      <trkpt lat="47.57061" lon="6.73486">
        <ele>356</ele>
        <time>2015-11-01T09:10:14.000Z</time>
      </trkpt>
      <trkpt lat="47.57064" lon="6.73482">
        <ele>356</ele>
        <time>2015-11-01T09:10:15.000Z</time>
      </trkpt>
      <trkpt lat="47.57065" lon="6.73478">
        <ele>356</ele>
        <time>2015-11-01T09:10:16.000Z</time>
      </trkpt>
      <trkpt lat="47.57066" lon="6.73474">
        <ele>356</ele>
        <time>2015-11-01T09:10:17.000Z</time>
      </trkpt>
      <trkpt lat="47.57067" lon="6.7347">
        <ele>357</ele>
        <time>2015-11-01T09:10:18.000Z</time>
      </trkpt>
      <trkpt lat="47.57068" lon="6.73467">
        <ele>357</ele>
        <time>2015-11-01T09:10:19.000Z</time>
      </trkpt>
      <trkpt lat="47.57069" lon="6.73464">
        <ele>358</ele>
        <time>2015-11-01T09:10:20.000Z</time>
      </trkpt>
      <trkpt lat="47.5707" lon="6.73458">
        <ele>358</ele>
        <time>2015-11-01T09:10:22.000Z</time>
      </trkpt>
      <trkpt lat="47.57071" lon="6.73454">
        <ele>358</ele>
        <time>2015-11-01T09:10:23.000Z</time>
      </trkpt>
      <trkpt lat="47.57071" lon="6.73448">
        <ele>359</ele>
        <time>2015-11-01T09:10:25.000Z</time>
      </trkpt>
      <trkpt lat="47.57071" lon="6.73445">
        <ele>359</ele>
        <time>2015-11-01T09:10:26.000Z</time>
      </trkpt>
      <trkpt lat="47.57072" lon="6.7344">
        <ele>359</ele>
        <time>2015-11-01T09:10:28.000Z</time>
      </trkpt>
      <trkpt lat="47.57072" lon="6.73436">
        <ele>359</ele>
        <time>2015-11-01T09:10:29.000Z</time>
      </trkpt>
      <trkpt lat="47.57073" lon="6.73432">
        <ele>358</ele>
        <time>2015-11-01T09:10:30.000Z</time>
      </trkpt>
      <trkpt lat="47.57073" lon="6.73428">
        <ele>358</ele>
        <time>2015-11-01T09:10:31.000Z</time>
      </trkpt>
      <trkpt lat="47.57073" lon="6.73424">
        <ele>358</ele>
        <time>2015-11-01T09:10:32.000Z</time>
      </trkpt>
      <trkpt lat="47.57074" lon="6.7342">
        <ele>357</ele>
        <time>2015-11-01T09:10:33.000Z</time>
      </trkpt>
      <trkpt lat="47.57074" lon="6.73416">
        <ele>360</ele>
        <time>2015-11-01T09:10:34.000Z</time>
      </trkpt>
      <trkpt lat="47.57074" lon="6.73411">
        <ele>361</ele>
        <time>2015-11-01T09:10:35.000Z</time>
      </trkpt>
      <trkpt lat="47.57074" lon="6.73407">
        <ele>362</ele>
        <time>2015-11-01T09:10:36.000Z</time>
      </trkpt>
      <trkpt lat="47.57075" lon="6.73403">
        <ele>363</ele>
        <time>2015-11-01T09:10:37.000Z</time>
      </trkpt>
      <trkpt lat="47.57075" lon="6.73399">
        <ele>364</ele>
        <time>2015-11-01T09:10:38.000Z</time>
      </trkpt>
      <trkpt lat="47.57075" lon="6.73394">
        <ele>365</ele>
        <time>2015-11-01T09:10:39.000Z</time>
      </trkpt>
      <trkpt lat="47.57076" lon="6.7339">
        <ele>366</ele>
        <time>2015-11-01T09:10:40.000Z</time>
      </trkpt>
      <trkpt lat="47.57076" lon="6.73386">
        <ele>366</ele>
        <time>2015-11-01T09:10:41.000Z</time>
      </trkpt>
      <trkpt lat="47.57077" lon="6.73382">
        <ele>367</ele>
        <time>2015-11-01T09:10:42.000Z</time>
      </trkpt>
      <trkpt lat="47.57077" lon="6.73378">
        <ele>367</ele>
        <time>2015-11-01T09:10:43.000Z</time>
      </trkpt>
      <trkpt lat="47.57078" lon="6.73373">
        <ele>367</ele>
        <time>2015-11-01T09:10:44.000Z</time>
      </trkpt>
      <trkpt lat="47.57078" lon="6.73369">
        <ele>367</ele>
        <time>2015-11-01T09:10:45.000Z</time>
      </trkpt>
      <trkpt lat="47.57079" lon="6.73365">
        <ele>367</ele>
        <time>2015-11-01T09:10:46.000Z</time>
      </trkpt>
      <trkpt lat="47.57079" lon="6.73361">
        <ele>367</ele>
        <time>2015-11-01T09:10:47.000Z</time>
      </trkpt>
      <trkpt lat="47.5708" lon="6.73358">
        <ele>367</ele>
        <time>2015-11-01T09:10:48.000Z</time>
      </trkpt>
      <trkpt lat="47.57081" lon="6.73353">
        <ele>366</ele>
        <time>2015-11-01T09:10:49.000Z</time>
      </trkpt>
      <trkpt lat="47.57081" lon="6.73349">
        <ele>365</ele>
        <time>2015-11-01T09:10:50.000Z</time>
      </trkpt>
      <trkpt lat="47.57081" lon="6.73345">
        <ele>364</ele>
        <time>2015-11-01T09:10:51.000Z</time>
      </trkpt>
      <trkpt lat="47.57081" lon="6.73341">
        <ele>363</ele>
        <time>2015-11-01T09:10:52.000Z</time>
      </trkpt>
      <trkpt lat="47.57081" lon="6.73337">
        <ele>362</ele>
        <time>2015-11-01T09:10:53.000Z</time>
      </trkpt>
      <trkpt lat="47.57081" lon="6.73333">
        <ele>362</ele>
        <time>2015-11-01T09:10:54.000Z</time>
      </trkpt>
      <trkpt lat="47.57081" lon="6.73329">
        <ele>363</ele>
        <time>2015-11-01T09:10:55.000Z</time>
      </trkpt>
      <trkpt lat="47.57081" lon="6.73326">
        <ele>365</ele>
        <time>2015-11-01T09:10:56.000Z</time>
      </trkpt>
      <trkpt lat="47.57081" lon="6.73322">
        <ele>366</ele>
        <time>2015-11-01T09:10:57.000Z</time>
      </trkpt>
      <trkpt lat="47.57081" lon="6.73318">
        <ele>367</ele>
        <time>2015-11-01T09:10:58.000Z</time>
      </trkpt>
      <trkpt lat="47.57081" lon="6.73314">
        <ele>368</ele>
        <time>2015-11-01T09:10:59.000Z</time>
      </trkpt>
      <trkpt lat="47.5708" lon="6.73308">
        <ele>370</ele>
        <time>2015-11-01T09:11:01.000Z</time>
      </trkpt>
      <trkpt lat="47.5708" lon="6.73304">
        <ele>370</ele>
        <time>2015-11-01T09:11:02.000Z</time>
      </trkpt>
      <trkpt lat="47.5708" lon="6.73298">
        <ele>371</ele>
        <time>2015-11-01T09:11:04.000Z</time>
      </trkpt>
      <trkpt lat="47.5708" lon="6.73295">
        <ele>371</ele>
        <time>2015-11-01T09:11:05.000Z</time>
      </trkpt>
      <trkpt lat="47.57081" lon="6.73288">
        <ele>371</ele>
        <time>2015-11-01T09:11:07.000Z</time>
      </trkpt>
      <trkpt lat="47.57081" lon="6.73285">
        <ele>371</ele>
        <time>2015-11-01T09:11:08.000Z</time>
      </trkpt>
      <trkpt lat="47.57081" lon="6.73279">
        <ele>370</ele>
        <time>2015-11-01T09:11:10.000Z</time>
      </trkpt>
      <trkpt lat="47.57081" lon="6.73275">
        <ele>370</ele>
        <time>2015-11-01T09:11:11.000Z</time>
      </trkpt>
      <trkpt lat="47.57081" lon="6.73272">
        <ele>369</ele>
        <time>2015-11-01T09:11:12.000Z</time>
      </trkpt>
      <trkpt lat="47.57081" lon="6.73269">
        <ele>369</ele>
        <time>2015-11-01T09:11:13.000Z</time>
      </trkpt>
      <trkpt lat="47.57081" lon="6.73265">
        <ele>368</ele>
        <time>2015-11-01T09:11:14.000Z</time>
      </trkpt>
      <trkpt lat="47.57081" lon="6.73262">
        <ele>367</ele>
        <time>2015-11-01T09:11:15.000Z</time>
      </trkpt>
      <trkpt lat="47.5708" lon="6.73258">
        <ele>365</ele>
        <time>2015-11-01T09:11:16.000Z</time>
      </trkpt>
      <trkpt lat="47.57081" lon="6.73254">
        <ele>364</ele>
        <time>2015-11-01T09:11:17.000Z</time>
      </trkpt>
      <trkpt lat="47.57081" lon="6.73251">
        <ele>362</ele>
        <time>2015-11-01T09:11:18.000Z</time>
      </trkpt>
      <trkpt lat="47.57081" lon="6.73247">
        <ele>364</ele>
        <time>2015-11-01T09:11:19.000Z</time>
      </trkpt>
      <trkpt lat="47.57081" lon="6.73243">
        <ele>366</ele>
        <time>2015-11-01T09:11:20.000Z</time>
      </trkpt>
      <trkpt lat="47.57081" lon="6.73239">
        <ele>367</ele>
        <time>2015-11-01T09:11:21.000Z</time>
      </trkpt>
      <trkpt lat="47.5708" lon="6.73235">
        <ele>369</ele>
        <time>2015-11-01T09:11:22.000Z</time>
      </trkpt>
      <trkpt lat="47.5708" lon="6.73232">
        <ele>370</ele>
        <time>2015-11-01T09:11:23.000Z</time>
      </trkpt>
      <trkpt lat="47.5708" lon="6.73228">
        <ele>371</ele>
        <time>2015-11-01T09:11:24.000Z</time>
      </trkpt>
      <trkpt lat="47.5708" lon="6.73224">
        <ele>371</ele>
        <time>2015-11-01T09:11:25.000Z</time>
      </trkpt>
      <trkpt lat="47.5708" lon="6.7322">
        <ele>372</ele>
        <time>2015-11-01T09:11:26.000Z</time>
      </trkpt>
      <trkpt lat="47.5708" lon="6.73216">
        <ele>373</ele>
        <time>2015-11-01T09:11:27.000Z</time>
      </trkpt>
      <trkpt lat="47.57079" lon="6.73212">
        <ele>373</ele>
        <time>2015-11-01T09:11:28.000Z</time>
      </trkpt>
      <trkpt lat="47.57078" lon="6.73209">
        <ele>373</ele>
        <time>2015-11-01T09:11:29.000Z</time>
      </trkpt>
      <trkpt lat="47.57078" lon="6.73205">
        <ele>373</ele>
        <time>2015-11-01T09:11:30.000Z</time>
      </trkpt>
      <trkpt lat="47.57077" lon="6.73201">
        <ele>373</ele>
        <time>2015-11-01T09:11:31.000Z</time>
      </trkpt>
      <trkpt lat="47.57077" lon="6.73197">
        <ele>373</ele>
        <time>2015-11-01T09:11:32.000Z</time>
      </trkpt>
      <trkpt lat="47.57076" lon="6.73193">
        <ele>373</ele>
        <time>2015-11-01T09:11:33.000Z</time>
      </trkpt>
      <trkpt lat="47.57076" lon="6.73189">
        <ele>372</ele>
        <time>2015-11-01T09:11:34.000Z</time>
      </trkpt>
      <trkpt lat="47.57076" lon="6.73185">
        <ele>372</ele>
        <time>2015-11-01T09:11:35.000Z</time>
      </trkpt>
      <trkpt lat="47.57076" lon="6.73182">
        <ele>371</ele>
        <time>2015-11-01T09:11:36.000Z</time>
      </trkpt>
      <trkpt lat="47.57076" lon="6.73178">
        <ele>370</ele>
        <time>2015-11-01T09:11:37.000Z</time>
      </trkpt>
      <trkpt lat="47.57075" lon="6.73173">
        <ele>369</ele>
        <time>2015-11-01T09:11:39.000Z</time>
      </trkpt>
      <trkpt lat="47.57075" lon="6.7317">
        <ele>369</ele>
        <time>2015-11-01T09:11:40.000Z</time>
      </trkpt>
      <trkpt lat="47.57075" lon="6.73166">
        <ele>369</ele>
        <time>2015-11-01T09:11:42.000Z</time>
      </trkpt>
      <trkpt lat="47.57075" lon="6.73163">
        <ele>370</ele>
        <time>2015-11-01T09:11:43.000Z</time>
      </trkpt>
      <trkpt lat="47.57074" lon="6.73159">
        <ele>371</ele>
        <time>2015-11-01T09:11:45.000Z</time>
      </trkpt>
      <trkpt lat="47.57073" lon="6.73156">
        <ele>372</ele>
        <time>2015-11-01T09:11:46.000Z</time>
      </trkpt>
      <trkpt lat="47.57072" lon="6.7315">
        <ele>373</ele>
        <time>2015-11-01T09:11:48.000Z</time>
      </trkpt>
      <trkpt lat="47.57072" lon="6.73148">
        <ele>374</ele>
        <time>2015-11-01T09:11:49.000Z</time>
      </trkpt>
      <trkpt lat="47.57072" lon="6.73143">
        <ele>375</ele>
        <time>2015-11-01T09:11:51.000Z</time>
      </trkpt>
      <trkpt lat="47.57071" lon="6.7314">
        <ele>375</ele>
        <time>2015-11-01T09:11:52.000Z</time>
      </trkpt>
      <trkpt lat="47.5707" lon="6.73135">
        <ele>376</ele>
        <time>2015-11-01T09:11:54.000Z</time>
      </trkpt>
      <trkpt lat="47.5707" lon="6.73132">
        <ele>376</ele>
        <time>2015-11-01T09:11:55.000Z</time>
      </trkpt>
      <trkpt lat="47.5707" lon="6.73127">
        <ele>376</ele>
        <time>2015-11-01T09:11:57.000Z</time>
      </trkpt>
      <trkpt lat="47.5707" lon="6.73124">
        <ele>376</ele>
        <time>2015-11-01T09:11:58.000Z</time>
      </trkpt>
      <trkpt lat="47.5707" lon="6.73118">
        <ele>376</ele>
        <time>2015-11-01T09:12:00.000Z</time>
      </trkpt>
      <trkpt lat="47.5707" lon="6.73115">
        <ele>376</ele>
        <time>2015-11-01T09:12:01.000Z</time>
      </trkpt>
      <trkpt lat="47.57069" lon="6.7311">
        <ele>376</ele>
        <time>2015-11-01T09:12:03.000Z</time>
      </trkpt>
      <trkpt lat="47.57068" lon="6.73107">
        <ele>376</ele>
        <time>2015-11-01T09:12:04.000Z</time>
      </trkpt>
      <trkpt lat="47.57067" lon="6.73102">
        <ele>376</ele>
        <time>2015-11-01T09:12:06.000Z</time>
      </trkpt>
      <trkpt lat="47.57067" lon="6.73099">
        <ele>375</ele>
        <time>2015-11-01T09:12:07.000Z</time>
      </trkpt>
      <trkpt lat="47.57066" lon="6.73094">
        <ele>375</ele>
        <time>2015-11-01T09:12:09.000Z</time>
      </trkpt>
      <trkpt lat="47.57066" lon="6.73091">
        <ele>375</ele>
        <time>2015-11-01T09:12:10.000Z</time>
      </trkpt>
      <trkpt lat="47.57065" lon="6.73087">
        <ele>375</ele>
        <time>2015-11-01T09:12:11.000Z</time>
      </trkpt>
      <trkpt lat="47.57064" lon="6.73084">
        <ele>375</ele>
        <time>2015-11-01T09:12:12.000Z</time>
      </trkpt>
      <trkpt lat="47.57063" lon="6.73078">
        <ele>376</ele>
        <time>2015-11-01T09:12:14.000Z</time>
      </trkpt>
      <trkpt lat="47.57062" lon="6.73075">
        <ele>376</ele>
        <time>2015-11-01T09:12:15.000Z</time>
      </trkpt>
      <trkpt lat="47.57061" lon="6.73071">
        <ele>377</ele>
        <time>2015-11-01T09:12:16.000Z</time>
      </trkpt>
      <trkpt lat="47.5706" lon="6.73068">
        <ele>377</ele>
        <time>2015-11-01T09:12:17.000Z</time>
      </trkpt>
      <trkpt lat="47.5706" lon="6.73064">
        <ele>378</ele>
        <time>2015-11-01T09:12:18.000Z</time>
      </trkpt>
      <trkpt lat="47.57059" lon="6.7306">
        <ele>378</ele>
        <time>2015-11-01T09:12:19.000Z</time>
      </trkpt>
      <trkpt lat="47.57057" lon="6.73054">
        <ele>379</ele>
        <time>2015-11-01T09:12:21.000Z</time>
      </trkpt>
      <trkpt lat="47.57056" lon="6.73051">
        <ele>379</ele>
        <time>2015-11-01T09:12:22.000Z</time>
      </trkpt>
      <trkpt lat="47.57054" lon="6.73046">
        <ele>380</ele>
        <time>2015-11-01T09:12:24.000Z</time>
      </trkpt>
      <trkpt lat="47.57054" lon="6.73043">
        <ele>380</ele>
        <time>2015-11-01T09:12:25.000Z</time>
      </trkpt>
      <trkpt lat="47.57052" lon="6.73038">
        <ele>380</ele>
        <time>2015-11-01T09:12:27.000Z</time>
      </trkpt>
      <trkpt lat="47.57051" lon="6.73035">
        <ele>380</ele>
        <time>2015-11-01T09:12:28.000Z</time>
      </trkpt>
      <trkpt lat="47.5705" lon="6.7303">
        <ele>380</ele>
        <time>2015-11-01T09:12:30.000Z</time>
      </trkpt>
      <trkpt lat="47.5705" lon="6.73028">
        <ele>381</ele>
        <time>2015-11-01T09:12:31.000Z</time>
      </trkpt>
      <trkpt lat="47.57048" lon="6.73022">
        <ele>381</ele>
        <time>2015-11-01T09:12:33.000Z</time>
      </trkpt>
      <trkpt lat="47.57048" lon="6.73019">
        <ele>381</ele>
        <time>2015-11-01T09:12:34.000Z</time>
      </trkpt>
      <trkpt lat="47.57047" lon="6.73015">
        <ele>381</ele>
        <time>2015-11-01T09:12:35.000Z</time>
      </trkpt>
      <trkpt lat="47.57047" lon="6.73011">
        <ele>381</ele>
        <time>2015-11-01T09:12:36.000Z</time>
      </trkpt>
      <trkpt lat="47.57046" lon="6.73007">
        <ele>381</ele>
        <time>2015-11-01T09:12:37.000Z</time>
      </trkpt>
      <trkpt lat="47.57046" lon="6.73004">
        <ele>381</ele>
        <time>2015-11-01T09:12:38.000Z</time>
      </trkpt>
      <trkpt lat="47.57045" lon="6.73001">
        <ele>381</ele>
        <time>2015-11-01T09:12:39.000Z</time>
      </trkpt>
      <trkpt lat="47.57046" lon="6.72997">
        <ele>382</ele>
        <time>2015-11-01T09:12:40.000Z</time>
      </trkpt>
      <trkpt lat="47.57046" lon="6.72993">
        <ele>382</ele>
        <time>2015-11-01T09:12:41.000Z</time>
      </trkpt>
      <trkpt lat="47.57046" lon="6.72989">
        <ele>382</ele>
        <time>2015-11-01T09:12:42.000Z</time>
      </trkpt>
      <trkpt lat="47.57046" lon="6.72985">
        <ele>382</ele>
        <time>2015-11-01T09:12:43.000Z</time>
      </trkpt>
      <trkpt lat="47.57046" lon="6.72981">
        <ele>382</ele>
        <time>2015-11-01T09:12:44.000Z</time>
      </trkpt>
      <trkpt lat="47.57045" lon="6.72977">
        <ele>382</ele>
        <time>2015-11-01T09:12:45.000Z</time>
      </trkpt>
      <trkpt lat="47.57045" lon="6.72974">
        <ele>382</ele>
        <time>2015-11-01T09:12:46.000Z</time>
      </trkpt>
      <trkpt lat="47.57045" lon="6.7297">
        <ele>383</ele>
        <time>2015-11-01T09:12:47.000Z</time>
      </trkpt>
      <trkpt lat="47.57044" lon="6.72967">
        <ele>383</ele>
        <time>2015-11-01T09:12:48.000Z</time>
      </trkpt>
      <trkpt lat="47.57044" lon="6.72963">
        <ele>383</ele>
        <time>2015-11-01T09:12:49.000Z</time>
      </trkpt>
      <trkpt lat="47.57043" lon="6.72959">
        <ele>383</ele>
        <time>2015-11-01T09:12:50.000Z</time>
      </trkpt>
      <trkpt lat="47.57042" lon="6.72955">
        <ele>383</ele>
        <time>2015-11-01T09:12:51.000Z</time>
      </trkpt>
      <trkpt lat="47.57042" lon="6.7295">
        <ele>383</ele>
        <time>2015-11-01T09:12:52.000Z</time>
      </trkpt>
      <trkpt lat="47.57041" lon="6.72946">
        <ele>383</ele>
        <time>2015-11-01T09:12:53.000Z</time>
      </trkpt>
      <trkpt lat="47.57041" lon="6.72941">
        <ele>384</ele>
        <time>2015-11-01T09:12:54.000Z</time>
      </trkpt>
      <trkpt lat="47.5704" lon="6.72937">
        <ele>384</ele>
        <time>2015-11-01T09:12:55.000Z</time>
      </trkpt>
      <trkpt lat="47.5704" lon="6.72933">
        <ele>384</ele>
        <time>2015-11-01T09:12:56.000Z</time>
      </trkpt>
      <trkpt lat="47.57039" lon="6.72929">
        <ele>384</ele>
        <time>2015-11-01T09:12:57.000Z</time>
      </trkpt>
      <trkpt lat="47.57038" lon="6.72925">
        <ele>385</ele>
        <time>2015-11-01T09:12:58.000Z</time>
      </trkpt>
      <trkpt lat="47.57037" lon="6.72921">
        <ele>385</ele>
        <time>2015-11-01T09:12:59.000Z</time>
      </trkpt>
      <trkpt lat="47.57036" lon="6.72918">
        <ele>385</ele>
        <time>2015-11-01T09:13:00.000Z</time>
      </trkpt>
      <trkpt lat="47.57036" lon="6.72914">
        <ele>385</ele>
        <time>2015-11-01T09:13:01.000Z</time>
      </trkpt>
      <trkpt lat="47.57035" lon="6.72911">
        <ele>385</ele>
        <time>2015-11-01T09:13:02.000Z</time>
      </trkpt>
      <trkpt lat="47.57035" lon="6.72907">
        <ele>385</ele>
        <time>2015-11-01T09:13:03.000Z</time>
      </trkpt>
      <trkpt lat="47.57034" lon="6.72904">
        <ele>386</ele>
        <time>2015-11-01T09:13:04.000Z</time>
      </trkpt>
      <trkpt lat="47.57033" lon="6.729">
        <ele>386</ele>
        <time>2015-11-01T09:13:05.000Z</time>
      </trkpt>
      <trkpt lat="47.57033" lon="6.72896">
        <ele>385</ele>
        <time>2015-11-01T09:13:06.000Z</time>
      </trkpt>
      <trkpt lat="47.57032" lon="6.7289">
        <ele>385</ele>
        <time>2015-11-01T09:13:08.000Z</time>
      </trkpt>
      <trkpt lat="47.57031" lon="6.72888">
        <ele>385</ele>
        <time>2015-11-01T09:13:09.000Z</time>
      </trkpt>
      <trkpt lat="47.57031" lon="6.72883">
        <ele>385</ele>
        <time>2015-11-01T09:13:11.000Z</time>
      </trkpt>
      <trkpt lat="47.5703" lon="6.7288">
        <ele>385</ele>
        <time>2015-11-01T09:13:12.000Z</time>
      </trkpt>
      <trkpt lat="47.57029" lon="6.72876">
        <ele>385</ele>
        <time>2015-11-01T09:13:14.000Z</time>
      </trkpt>
      <trkpt lat="47.57028" lon="6.72875">
        <ele>386</ele>
        <time>2015-11-01T09:13:15.000Z</time>
      </trkpt>
      <trkpt lat="47.57025" lon="6.72871">
        <ele>386</ele>
        <time>2015-11-01T09:13:17.000Z</time>
      </trkpt>
      <trkpt lat="47.57024" lon="6.72871">
        <ele>386</ele>
        <time>2015-11-01T09:13:18.000Z</time>
      </trkpt>
      <trkpt lat="47.5702" lon="6.72869">
        <ele>387</ele>
        <time>2015-11-01T09:13:22.000Z</time>
      </trkpt>
      <trkpt lat="47.5702" lon="6.72869">
        <ele>387</ele>
        <time>2015-11-01T09:13:23.000Z</time>
      </trkpt>
      <trkpt lat="47.57018" lon="6.72864">
        <ele>387</ele>
        <time>2015-11-01T09:13:27.000Z</time>
      </trkpt>
      <trkpt lat="47.5702" lon="6.72862">
        <ele>387</ele>
        <time>2015-11-01T09:13:28.000Z</time>
      </trkpt>
      <trkpt lat="47.57023" lon="6.72857">
        <ele>387</ele>
        <time>2015-11-01T09:13:30.000Z</time>
      </trkpt>
      <trkpt lat="47.57024" lon="6.72854">
        <ele>387</ele>
        <time>2015-11-01T09:13:31.000Z</time>
      </trkpt>
      <trkpt lat="47.57024" lon="6.72851">
        <ele>387</ele>
        <time>2015-11-01T09:13:32.000Z</time>
      </trkpt>
      <trkpt lat="47.57023" lon="6.72847">
        <ele>387</ele>
        <time>2015-11-01T09:13:33.000Z</time>
      </trkpt>
      <trkpt lat="47.57023" lon="6.72843">
        <ele>388</ele>
        <time>2015-11-01T09:13:34.000Z</time>
      </trkpt>
      <trkpt lat="47.57021" lon="6.72839">
        <ele>389</ele>
        <time>2015-11-01T09:13:35.000Z</time>
      </trkpt>
      <trkpt lat="47.5702" lon="6.72835">
        <ele>389</ele>
        <time>2015-11-01T09:13:36.000Z</time>
      </trkpt>
      <trkpt lat="47.57019" lon="6.72832">
        <ele>388</ele>
        <time>2015-11-01T09:13:37.000Z</time>
      </trkpt>
      <trkpt lat="47.57019" lon="6.72829">
        <ele>388</ele>
        <time>2015-11-01T09:13:38.000Z</time>
      </trkpt>
      <trkpt lat="47.57018" lon="6.72825">
        <ele>388</ele>
        <time>2015-11-01T09:13:39.000Z</time>
      </trkpt>
      <trkpt lat="47.57018" lon="6.72821">
        <ele>387</ele>
        <time>2015-11-01T09:13:40.000Z</time>
      </trkpt>
      <trkpt lat="47.57018" lon="6.72818">
        <ele>387</ele>
        <time>2015-11-01T09:13:41.000Z</time>
      </trkpt>
      <trkpt lat="47.57017" lon="6.72814">
        <ele>386</ele>
        <time>2015-11-01T09:13:42.000Z</time>
      </trkpt>
      <trkpt lat="47.57016" lon="6.7281">
        <ele>386</ele>
        <time>2015-11-01T09:13:43.000Z</time>
      </trkpt>
      <trkpt lat="47.57016" lon="6.72806">
        <ele>385</ele>
        <time>2015-11-01T09:13:44.000Z</time>
      </trkpt>
      <trkpt lat="47.57015" lon="6.72801">
        <ele>385</ele>
        <time>2015-11-01T09:13:45.000Z</time>
      </trkpt>
      <trkpt lat="47.57014" lon="6.72796">
        <ele>385</ele>
        <time>2015-11-01T09:13:46.000Z</time>
      </trkpt>
      <trkpt lat="47.57013" lon="6.72791">
        <ele>385</ele>
        <time>2015-11-01T09:13:47.000Z</time>
      </trkpt>
      <trkpt lat="47.57011" lon="6.72786">
        <ele>385</ele>
        <time>2015-11-01T09:13:48.000Z</time>
      </trkpt>
      <trkpt lat="47.57011" lon="6.72782">
        <ele>385</ele>
        <time>2015-11-01T09:13:49.000Z</time>
      </trkpt>
      <trkpt lat="47.5701" lon="6.72778">
        <ele>385</ele>
        <time>2015-11-01T09:13:50.000Z</time>
      </trkpt>
      <trkpt lat="47.57009" lon="6.72773">
        <ele>385</ele>
        <time>2015-11-01T09:13:51.000Z</time>
      </trkpt>
      <trkpt lat="47.57008" lon="6.72768">
        <ele>386</ele>
        <time>2015-11-01T09:13:52.000Z</time>
      </trkpt>
      <trkpt lat="47.57007" lon="6.72763">
        <ele>387</ele>
        <time>2015-11-01T09:13:53.000Z</time>
      </trkpt>
      <trkpt lat="47.57006" lon="6.72758">
        <ele>388</ele>
        <time>2015-11-01T09:13:54.000Z</time>
      </trkpt>
      <trkpt lat="47.57005" lon="6.72753">
        <ele>389</ele>
        <time>2015-11-01T09:13:55.000Z</time>
      </trkpt>
      <trkpt lat="47.57004" lon="6.72749">
        <ele>390</ele>
        <time>2015-11-01T09:13:56.000Z</time>
      </trkpt>
      <trkpt lat="47.57003" lon="6.72745">
        <ele>389</ele>
        <time>2015-11-01T09:13:57.000Z</time>
      </trkpt>
      <trkpt lat="47.57002" lon="6.7274">
        <ele>387</ele>
        <time>2015-11-01T09:13:58.000Z</time>
      </trkpt>
      <trkpt lat="47.57001" lon="6.72736">
        <ele>386</ele>
        <time>2015-11-01T09:13:59.000Z</time>
      </trkpt>
      <trkpt lat="47.57001" lon="6.72733">
        <ele>385</ele>
        <time>2015-11-01T09:14:00.000Z</time>
      </trkpt>
      <trkpt lat="47.57" lon="6.72729">
        <ele>384</ele>
        <time>2015-11-01T09:14:01.000Z</time>
      </trkpt>
      <trkpt lat="47.56999" lon="6.72725">
        <ele>397</ele>
        <time>2015-11-01T09:14:02.000Z</time>
      </trkpt>
      <trkpt lat="47.56999" lon="6.72721">
        <ele>398</ele>
        <time>2015-11-01T09:14:03.000Z</time>
      </trkpt>
      <trkpt lat="47.56998" lon="6.72718">
        <ele>398</ele>
        <time>2015-11-01T09:14:04.000Z</time>
      </trkpt>
      <trkpt lat="47.56997" lon="6.72714">
        <ele>398</ele>
        <time>2015-11-01T09:14:05.000Z</time>
      </trkpt>
      <trkpt lat="47.56995" lon="6.72711">
        <ele>398</ele>
        <time>2015-11-01T09:14:06.000Z</time>
      </trkpt>
      <trkpt lat="47.56994" lon="6.72707">
        <ele>398</ele>
        <time>2015-11-01T09:14:07.000Z</time>
      </trkpt>
      <trkpt lat="47.56993" lon="6.72704">
        <ele>398</ele>
        <time>2015-11-01T09:14:08.000Z</time>
      </trkpt>
      <trkpt lat="47.56992" lon="6.727">
        <ele>398</ele>
        <time>2015-11-01T09:14:09.000Z</time>
      </trkpt>
      <trkpt lat="47.56991" lon="6.72697">
        <ele>397</ele>
        <time>2015-11-01T09:14:10.000Z</time>
      </trkpt>
      <trkpt lat="47.5699" lon="6.72694">
        <ele>397</ele>
        <time>2015-11-01T09:14:11.000Z</time>
      </trkpt>
      <trkpt lat="47.56989" lon="6.72691">
        <ele>397</ele>
        <time>2015-11-01T09:14:12.000Z</time>
      </trkpt>
      <trkpt lat="47.56988" lon="6.72687">
        <ele>397</ele>
        <time>2015-11-01T09:14:13.000Z</time>
      </trkpt>
      <trkpt lat="47.56987" lon="6.72684">
        <ele>396</ele>
        <time>2015-11-01T09:14:14.000Z</time>
      </trkpt>
      <trkpt lat="47.56985" lon="6.72681">
        <ele>396</ele>
        <time>2015-11-01T09:14:15.000Z</time>
      </trkpt>
      <trkpt lat="47.56984" lon="6.72677">
        <ele>396</ele>
        <time>2015-11-01T09:14:16.000Z</time>
      </trkpt>
      <trkpt lat="47.56983" lon="6.72673">
        <ele>396</ele>
        <time>2015-11-01T09:14:17.000Z</time>
      </trkpt>
      <trkpt lat="47.56981" lon="6.7267">
        <ele>396</ele>
        <time>2015-11-01T09:14:18.000Z</time>
      </trkpt>
      <trkpt lat="47.5698" lon="6.72666">
        <ele>393</ele>
        <time>2015-11-01T09:14:19.000Z</time>
      </trkpt>
      <trkpt lat="47.56979" lon="6.72662">
        <ele>394</ele>
        <time>2015-11-01T09:14:20.000Z</time>
      </trkpt>
      <trkpt lat="47.56977" lon="6.72658">
        <ele>394</ele>
        <time>2015-11-01T09:14:21.000Z</time>
      </trkpt>
      <trkpt lat="47.56976" lon="6.72654">
        <ele>394</ele>
        <time>2015-11-01T09:14:22.000Z</time>
      </trkpt>
      <trkpt lat="47.56975" lon="6.7265">
        <ele>395</ele>
        <time>2015-11-01T09:14:23.000Z</time>
      </trkpt>
      <trkpt lat="47.56974" lon="6.72646">
        <ele>395</ele>
        <time>2015-11-01T09:14:24.000Z</time>
      </trkpt>
      <trkpt lat="47.56972" lon="6.72642">
        <ele>395</ele>
        <time>2015-11-01T09:14:25.000Z</time>
      </trkpt>
      <trkpt lat="47.56971" lon="6.72638">
        <ele>395</ele>
        <time>2015-11-01T09:14:26.000Z</time>
      </trkpt>
      <trkpt lat="47.56969" lon="6.72634">
        <ele>396</ele>
        <time>2015-11-01T09:14:27.000Z</time>
      </trkpt>
      <trkpt lat="47.56968" lon="6.7263">
        <ele>396</ele>
        <time>2015-11-01T09:14:28.000Z</time>
      </trkpt>
      <trkpt lat="47.56966" lon="6.72626">
        <ele>396</ele>
        <time>2015-11-01T09:14:29.000Z</time>
      </trkpt>
      <trkpt lat="47.56965" lon="6.72622">
        <ele>396</ele>
        <time>2015-11-01T09:14:30.000Z</time>
      </trkpt>
      <trkpt lat="47.56964" lon="6.72617">
        <ele>396</ele>
        <time>2015-11-01T09:14:31.000Z</time>
      </trkpt>
      <trkpt lat="47.56963" lon="6.72613">
        <ele>396</ele>
        <time>2015-11-01T09:14:32.000Z</time>
      </trkpt>
      <trkpt lat="47.56962" lon="6.72609">
        <ele>396</ele>
        <time>2015-11-01T09:14:33.000Z</time>
      </trkpt>
      <trkpt lat="47.56961" lon="6.72605">
        <ele>396</ele>
        <time>2015-11-01T09:14:34.000Z</time>
      </trkpt>
      <trkpt lat="47.56959" lon="6.72601">
        <ele>396</ele>
        <time>2015-11-01T09:14:35.000Z</time>
      </trkpt>
      <trkpt lat="47.56958" lon="6.72598">
        <ele>396</ele>
        <time>2015-11-01T09:14:36.000Z</time>
      </trkpt>
      <trkpt lat="47.56957" lon="6.72594">
        <ele>396</ele>
        <time>2015-11-01T09:14:37.000Z</time>
      </trkpt>
      <trkpt lat="47.56955" lon="6.7259">
        <ele>396</ele>
        <time>2015-11-01T09:14:38.000Z</time>
      </trkpt>
      <trkpt lat="47.56954" lon="6.72586">
        <ele>396</ele>
        <time>2015-11-01T09:14:39.000Z</time>
      </trkpt>
      <trkpt lat="47.56952" lon="6.72582">
        <ele>392</ele>
        <time>2015-11-01T09:14:40.000Z</time>
      </trkpt>
      <trkpt lat="47.5695" lon="6.72578">
        <ele>392</ele>
        <time>2015-11-01T09:14:41.000Z</time>
      </trkpt>
      <trkpt lat="47.56949" lon="6.72575">
        <ele>392</ele>
        <time>2015-11-01T09:14:42.000Z</time>
      </trkpt>
      <trkpt lat="47.56947" lon="6.72572">
        <ele>392</ele>
        <time>2015-11-01T09:14:43.000Z</time>
      </trkpt>
      <trkpt lat="47.56945" lon="6.72568">
        <ele>392</ele>
        <time>2015-11-01T09:14:44.000Z</time>
      </trkpt>
      <trkpt lat="47.56944" lon="6.72565">
        <ele>392</ele>
        <time>2015-11-01T09:14:45.000Z</time>
      </trkpt>
      <trkpt lat="47.56942" lon="6.72561">
        <ele>392</ele>
        <time>2015-11-01T09:14:46.000Z</time>
      </trkpt>
      <trkpt lat="47.56941" lon="6.72558">
        <ele>392</ele>
        <time>2015-11-01T09:14:47.000Z</time>
      </trkpt>
      <trkpt lat="47.56938" lon="6.72555">
        <ele>392</ele>
        <time>2015-11-01T09:14:49.000Z</time>
      </trkpt>
      <trkpt lat="47.56936" lon="6.72554">
        <ele>392</ele>
        <time>2015-11-01T09:14:50.000Z</time>
      </trkpt>
      <trkpt lat="47.56933" lon="6.72552">
        <ele>392</ele>
        <time>2015-11-01T09:14:55.000Z</time>
      </trkpt>
      <trkpt lat="47.56933" lon="6.72549">
        <ele>392</ele>
        <time>2015-11-01T09:14:56.000Z</time>
      </trkpt>
      <trkpt lat="47.56932" lon="6.72545">
        <ele>392</ele>
        <time>2015-11-01T09:14:57.000Z</time>
      </trkpt>
      <trkpt lat="47.56931" lon="6.7254">
        <ele>392</ele>
        <time>2015-11-01T09:14:58.000Z</time>
      </trkpt>
      <trkpt lat="47.56929" lon="6.72535">
        <ele>391</ele>
        <time>2015-11-01T09:14:59.000Z</time>
      </trkpt>
      <trkpt lat="47.56928" lon="6.72531">
        <ele>391</ele>
        <time>2015-11-01T09:15:00.000Z</time>
      </trkpt>
      <trkpt lat="47.56927" lon="6.72527">
        <ele>391</ele>
        <time>2015-11-01T09:15:01.000Z</time>
      </trkpt>
      <trkpt lat="47.56926" lon="6.72524">
        <ele>391</ele>
        <time>2015-11-01T09:15:02.000Z</time>
      </trkpt>
      <trkpt lat="47.56925" lon="6.72521">
        <ele>391</ele>
        <time>2015-11-01T09:15:03.000Z</time>
      </trkpt>
      <trkpt lat="47.56924" lon="6.72518">
        <ele>392</ele>
        <time>2015-11-01T09:15:04.000Z</time>
      </trkpt>
      <trkpt lat="47.56923" lon="6.72515">
        <ele>392</ele>
        <time>2015-11-01T09:15:05.000Z</time>
      </trkpt>
      <trkpt lat="47.56922" lon="6.72511">
        <ele>392</ele>
        <time>2015-11-01T09:15:06.000Z</time>
      </trkpt>
      <trkpt lat="47.5692" lon="6.72508">
        <ele>392</ele>
        <time>2015-11-01T09:15:07.000Z</time>
      </trkpt>
      <trkpt lat="47.56919" lon="6.72505">
        <ele>393</ele>
        <time>2015-11-01T09:15:08.000Z</time>
      </trkpt>
      <trkpt lat="47.56918" lon="6.72501">
        <ele>394</ele>
        <time>2015-11-01T09:15:09.000Z</time>
      </trkpt>
      <trkpt lat="47.56916" lon="6.72497">
        <ele>395</ele>
        <time>2015-11-01T09:15:10.000Z</time>
      </trkpt>
      <trkpt lat="47.56915" lon="6.72493">
        <ele>395</ele>
        <time>2015-11-01T09:15:11.000Z</time>
      </trkpt>
      <trkpt lat="47.56914" lon="6.72489">
        <ele>396</ele>
        <time>2015-11-01T09:15:12.000Z</time>
      </trkpt>
      <trkpt lat="47.56913" lon="6.72485">
        <ele>396</ele>
        <time>2015-11-01T09:15:13.000Z</time>
      </trkpt>
      <trkpt lat="47.56911" lon="6.7248">
        <ele>396</ele>
        <time>2015-11-01T09:15:14.000Z</time>
      </trkpt>
      <trkpt lat="47.5691" lon="6.72477">
        <ele>397</ele>
        <time>2015-11-01T09:15:15.000Z</time>
      </trkpt>
      <trkpt lat="47.56908" lon="6.72473">
        <ele>397</ele>
        <time>2015-11-01T09:15:16.000Z</time>
      </trkpt>
      <trkpt lat="47.56907" lon="6.7247">
        <ele>397</ele>
        <time>2015-11-01T09:15:17.000Z</time>
      </trkpt>
      <trkpt lat="47.56905" lon="6.72467">
        <ele>397</ele>
        <time>2015-11-01T09:15:18.000Z</time>
      </trkpt>
      <trkpt lat="47.56903" lon="6.72464">
        <ele>397</ele>
        <time>2015-11-01T09:15:19.000Z</time>
      </trkpt>
      <trkpt lat="47.56902" lon="6.72461">
        <ele>397</ele>
        <time>2015-11-01T09:15:20.000Z</time>
      </trkpt>
      <trkpt lat="47.569" lon="6.72457">
        <ele>397</ele>
        <time>2015-11-01T09:15:21.000Z</time>
      </trkpt>
      <trkpt lat="47.56898" lon="6.72452">
        <ele>397</ele>
        <time>2015-11-01T09:15:22.000Z</time>
      </trkpt>
      <trkpt lat="47.56897" lon="6.72448">
        <ele>397</ele>
        <time>2015-11-01T09:15:23.000Z</time>
      </trkpt>
      <trkpt lat="47.56896" lon="6.72442">
        <ele>396</ele>
        <time>2015-11-01T09:15:24.000Z</time>
      </trkpt>
      <trkpt lat="47.56894" lon="6.72436">
        <ele>396</ele>
        <time>2015-11-01T09:15:25.000Z</time>
      </trkpt>
      <trkpt lat="47.56892" lon="6.72429">
        <ele>396</ele>
        <time>2015-11-01T09:15:26.000Z</time>
      </trkpt>
      <trkpt lat="47.5689" lon="6.72422">
        <ele>396</ele>
        <time>2015-11-01T09:15:27.000Z</time>
      </trkpt>
      <trkpt lat="47.56887" lon="6.72415">
        <ele>392</ele>
        <time>2015-11-01T09:15:28.000Z</time>
      </trkpt>
      <trkpt lat="47.56885" lon="6.72407">
        <ele>392</ele>
        <time>2015-11-01T09:15:29.000Z</time>
      </trkpt>
      <trkpt lat="47.56883" lon="6.724">
        <ele>392</ele>
        <time>2015-11-01T09:15:30.000Z</time>
      </trkpt>
      <trkpt lat="47.56881" lon="6.72392">
        <ele>392</ele>
        <time>2015-11-01T09:15:31.000Z</time>
      </trkpt>
      <trkpt lat="47.56881" lon="6.72385">
        <ele>392</ele>
        <time>2015-11-01T09:15:32.000Z</time>
      </trkpt>
      <trkpt lat="47.56881" lon="6.72378">
        <ele>391</ele>
        <time>2015-11-01T09:15:33.000Z</time>
      </trkpt>
      <trkpt lat="47.56888" lon="6.72356">
        <ele>389</ele>
        <time>2015-11-01T09:15:34.000Z</time>
      </trkpt>
      <trkpt lat="47.56892" lon="6.72347">
        <ele>388</ele>
        <time>2015-11-01T09:15:35.000Z</time>
      </trkpt>
      <trkpt lat="47.56893" lon="6.72339">
        <ele>387</ele>
        <time>2015-11-01T09:15:36.000Z</time>
      </trkpt>
      <trkpt lat="47.56896" lon="6.7233">
        <ele>382</ele>
        <time>2015-11-01T09:15:37.000Z</time>
      </trkpt>
      <trkpt lat="47.56897" lon="6.72322">
        <ele>382</ele>
        <time>2015-11-01T09:15:38.000Z</time>
      </trkpt>
      <trkpt lat="47.569" lon="6.7231">
        <ele>382</ele>
        <time>2015-11-01T09:15:39.000Z</time>
      </trkpt>
      <trkpt lat="47.56903" lon="6.723">
        <ele>382</ele>
        <time>2015-11-01T09:15:40.000Z</time>
      </trkpt>
      <trkpt lat="47.56905" lon="6.7229">
        <ele>381</ele>
        <time>2015-11-01T09:15:41.000Z</time>
      </trkpt>
      <trkpt lat="47.56907" lon="6.72281">
        <ele>380</ele>
        <time>2015-11-01T09:15:42.000Z</time>
      </trkpt>
      <trkpt lat="47.56907" lon="6.72274">
        <ele>379</ele>
        <time>2015-11-01T09:15:43.000Z</time>
      </trkpt>
      <trkpt lat="47.56904" lon="6.72264">
        <ele>378</ele>
        <time>2015-11-01T09:15:44.000Z</time>
      </trkpt>
      <trkpt lat="47.56901" lon="6.72255">
        <ele>378</ele>
        <time>2015-11-01T09:15:45.000Z</time>
      </trkpt>
      <trkpt lat="47.56897" lon="6.72247">
        <ele>375</ele>
        <time>2015-11-01T09:15:46.000Z</time>
      </trkpt>
      <trkpt lat="47.56895" lon="6.7224">
        <ele>376</ele>
        <time>2015-11-01T09:15:47.000Z</time>
      </trkpt>
      <trkpt lat="47.56893" lon="6.7223">
        <ele>376</ele>
        <time>2015-11-01T09:15:48.000Z</time>
      </trkpt>
      <trkpt lat="47.56892" lon="6.72221">
        <ele>376</ele>
        <time>2015-11-01T09:15:49.000Z</time>
      </trkpt>
      <trkpt lat="47.56893" lon="6.72211">
        <ele>376</ele>
        <time>2015-11-01T09:15:50.000Z</time>
      </trkpt>
      <trkpt lat="47.56896" lon="6.72198">
        <ele>375</ele>
        <time>2015-11-01T09:15:51.000Z</time>
      </trkpt>
      <trkpt lat="47.569" lon="6.72183">
        <ele>372</ele>
        <time>2015-11-01T09:15:52.000Z</time>
      </trkpt>
      <trkpt lat="47.56904" lon="6.72171">
        <ele>370</ele>
        <time>2015-11-01T09:15:53.000Z</time>
      </trkpt>
      <trkpt lat="47.56904" lon="6.7216">
        <ele>367</ele>
        <time>2015-11-01T09:15:54.000Z</time>
      </trkpt>
      <trkpt lat="47.56906" lon="6.72152">
        <ele>367</ele>
        <time>2015-11-01T09:15:55.000Z</time>
      </trkpt>
      <trkpt lat="47.56907" lon="6.72145">
        <ele>368</ele>
        <time>2015-11-01T09:15:56.000Z</time>
      </trkpt>
      <trkpt lat="47.56909" lon="6.72138">
        <ele>368</ele>
        <time>2015-11-01T09:15:57.000Z</time>
      </trkpt>
      <trkpt lat="47.5691" lon="6.72132">
        <ele>368</ele>
        <time>2015-11-01T09:15:58.000Z</time>
      </trkpt>
      <trkpt lat="47.5691" lon="6.72128">
        <ele>368</ele>
        <time>2015-11-01T09:15:59.000Z</time>
      </trkpt>
      <trkpt lat="47.56911" lon="6.72124">
        <ele>368</ele>
        <time>2015-11-01T09:16:00.000Z</time>
      </trkpt>
      <trkpt lat="47.56912" lon="6.72118">
        <ele>367</ele>
        <time>2015-11-01T09:16:01.000Z</time>
      </trkpt>
      <trkpt lat="47.56914" lon="6.72112">
        <ele>366</ele>
        <time>2015-11-01T09:16:02.000Z</time>
      </trkpt>
      <trkpt lat="47.56915" lon="6.72106">
        <ele>365</ele>
        <time>2015-11-01T09:16:03.000Z</time>
      </trkpt>
      <trkpt lat="47.56917" lon="6.72101">
        <ele>356</ele>
        <time>2015-11-01T09:16:04.000Z</time>
      </trkpt>
      <trkpt lat="47.56922" lon="6.72096">
        <ele>356</ele>
        <time>2015-11-01T09:16:05.000Z</time>
      </trkpt>
      <trkpt lat="47.56927" lon="6.72092">
        <ele>356</ele>
        <time>2015-11-01T09:16:06.000Z</time>
      </trkpt>
      <trkpt lat="47.56933" lon="6.72088">
        <ele>356</ele>
        <time>2015-11-01T09:16:07.000Z</time>
      </trkpt>
      <trkpt lat="47.56941" lon="6.72086">
        <ele>355</ele>
        <time>2015-11-01T09:16:08.000Z</time>
      </trkpt>
      <trkpt lat="47.56948" lon="6.72085">
        <ele>354</ele>
        <time>2015-11-01T09:16:09.000Z</time>
      </trkpt>
      <trkpt lat="47.56956" lon="6.72083">
        <ele>352</ele>
        <time>2015-11-01T09:16:10.000Z</time>
      </trkpt>
      <trkpt lat="47.56964" lon="6.72082">
        <ele>352</ele>
        <time>2015-11-01T09:16:11.000Z</time>
      </trkpt>
      <trkpt lat="47.56972" lon="6.7208">
        <ele>351</ele>
        <time>2015-11-01T09:16:12.000Z</time>
      </trkpt>
      <trkpt lat="47.5698" lon="6.7208">
        <ele>350</ele>
        <time>2015-11-01T09:16:13.000Z</time>
      </trkpt>
      <trkpt lat="47.56989" lon="6.72079">
        <ele>350</ele>
        <time>2015-11-01T09:16:14.000Z</time>
      </trkpt>
      <trkpt lat="47.56996" lon="6.72079">
        <ele>349</ele>
        <time>2015-11-01T09:16:15.000Z</time>
      </trkpt>
      <trkpt lat="47.57004" lon="6.72077">
        <ele>348</ele>
        <time>2015-11-01T09:16:16.000Z</time>
      </trkpt>
      <trkpt lat="47.57011" lon="6.72075">
        <ele>349</ele>
        <time>2015-11-01T09:16:17.000Z</time>
      </trkpt>
      <trkpt lat="47.57018" lon="6.72072">
        <ele>349</ele>
        <time>2015-11-01T09:16:18.000Z</time>
      </trkpt>
      <trkpt lat="47.57025" lon="6.72069">
        <ele>349</ele>
        <time>2015-11-01T09:16:19.000Z</time>
      </trkpt>
      <trkpt lat="47.57031" lon="6.72066">
        <ele>349</ele>
        <time>2015-11-01T09:16:20.000Z</time>
      </trkpt>
      <trkpt lat="47.57038" lon="6.72063">
        <ele>349</ele>
        <time>2015-11-01T09:16:21.000Z</time>
      </trkpt>
      <trkpt lat="47.57044" lon="6.7206">
        <ele>350</ele>
        <time>2015-11-01T09:16:22.000Z</time>
      </trkpt>
      <trkpt lat="47.5705" lon="6.72057">
        <ele>350</ele>
        <time>2015-11-01T09:16:23.000Z</time>
      </trkpt>
      <trkpt lat="47.57055" lon="6.72053">
        <ele>350</ele>
        <time>2015-11-01T09:16:24.000Z</time>
      </trkpt>
      <trkpt lat="47.5706" lon="6.72049">
        <ele>350</ele>
        <time>2015-11-01T09:16:25.000Z</time>
      </trkpt>
      <trkpt lat="47.57064" lon="6.72045">
        <ele>350</ele>
        <time>2015-11-01T09:16:26.000Z</time>
      </trkpt>
      <trkpt lat="47.57068" lon="6.72041">
        <ele>350</ele>
        <time>2015-11-01T09:16:27.000Z</time>
      </trkpt>
      <trkpt lat="47.57071" lon="6.72037">
        <ele>350</ele>
        <time>2015-11-01T09:16:28.000Z</time>
      </trkpt>
      <trkpt lat="47.57073" lon="6.72033">
        <ele>351</ele>
        <time>2015-11-01T09:16:29.000Z</time>
      </trkpt>
      <trkpt lat="47.57075" lon="6.7203">
        <ele>351</ele>
        <time>2015-11-01T09:16:30.000Z</time>
      </trkpt>
      <trkpt lat="47.57078" lon="6.72027">
        <ele>351</ele>
        <time>2015-11-01T09:16:31.000Z</time>
      </trkpt>
      <trkpt lat="47.5708" lon="6.72024">
        <ele>351</ele>
        <time>2015-11-01T09:16:32.000Z</time>
      </trkpt>
      <trkpt lat="47.57082" lon="6.72021">
        <ele>351</ele>
        <time>2015-11-01T09:16:33.000Z</time>
      </trkpt>
      <trkpt lat="47.57084" lon="6.72019">
        <ele>354</ele>
        <time>2015-11-01T09:16:34.000Z</time>
      </trkpt>
      <trkpt lat="47.57087" lon="6.72016">
        <ele>354</ele>
        <time>2015-11-01T09:16:35.000Z</time>
      </trkpt>
      <trkpt lat="47.57089" lon="6.72015">
        <ele>354</ele>
        <time>2015-11-01T09:16:36.000Z</time>
      </trkpt>
      <trkpt lat="47.57091" lon="6.72013">
        <ele>354</ele>
        <time>2015-11-01T09:16:37.000Z</time>
      </trkpt>
      <trkpt lat="47.57094" lon="6.72011">
        <ele>354</ele>
        <time>2015-11-01T09:16:38.000Z</time>
      </trkpt>
      <trkpt lat="47.57096" lon="6.7201">
        <ele>355</ele>
        <time>2015-11-01T09:16:39.000Z</time>
      </trkpt>
      <trkpt lat="47.57098" lon="6.72009">
        <ele>355</ele>
        <time>2015-11-01T09:16:40.000Z</time>
      </trkpt>
      <trkpt lat="47.571" lon="6.72008">
        <ele>355</ele>
        <time>2015-11-01T09:16:41.000Z</time>
      </trkpt>
      <trkpt lat="47.57104" lon="6.72006">
        <ele>355</ele>
        <time>2015-11-01T09:16:43.000Z</time>
      </trkpt>
      <trkpt lat="47.57107" lon="6.72006">
        <ele>355</ele>
        <time>2015-11-01T09:16:44.000Z</time>
      </trkpt>
      <trkpt lat="47.57109" lon="6.72006">
        <ele>356</ele>
        <time>2015-11-01T09:16:45.000Z</time>
      </trkpt>
      <trkpt lat="47.57111" lon="6.72005">
        <ele>356</ele>
        <time>2015-11-01T09:16:46.000Z</time>
      </trkpt>
      <trkpt lat="47.57114" lon="6.72004">
        <ele>356</ele>
        <time>2015-11-01T09:16:47.000Z</time>
      </trkpt>
      <trkpt lat="47.57116" lon="6.72002">
        <ele>356</ele>
        <time>2015-11-01T09:16:48.000Z</time>
      </trkpt>
      <trkpt lat="47.57118" lon="6.72">
        <ele>359</ele>
        <time>2015-11-01T09:16:49.000Z</time>
      </trkpt>
      <trkpt lat="47.5712" lon="6.71998">
        <ele>359</ele>
        <time>2015-11-01T09:16:50.000Z</time>
      </trkpt>
      <trkpt lat="47.57122" lon="6.71996">
        <ele>359</ele>
        <time>2015-11-01T09:16:51.000Z</time>
      </trkpt>
      <trkpt lat="47.57124" lon="6.71994">
        <ele>359</ele>
        <time>2015-11-01T09:16:52.000Z</time>
      </trkpt>
      <trkpt lat="47.57126" lon="6.71993">
        <ele>360</ele>
        <time>2015-11-01T09:16:53.000Z</time>
      </trkpt>
      <trkpt lat="47.57129" lon="6.71992">
        <ele>360</ele>
        <time>2015-11-01T09:16:54.000Z</time>
      </trkpt>
      <trkpt lat="47.57131" lon="6.71991">
        <ele>360</ele>
        <time>2015-11-01T09:16:55.000Z</time>
      </trkpt>
      <trkpt lat="47.57133" lon="6.7199">
        <ele>360</ele>
        <time>2015-11-01T09:16:56.000Z</time>
      </trkpt>
      <trkpt lat="47.57137" lon="6.7199">
        <ele>360</ele>
        <time>2015-11-01T09:16:58.000Z</time>
      </trkpt>
      <trkpt lat="47.57139" lon="6.71989">
        <ele>361</ele>
        <time>2015-11-01T09:16:59.000Z</time>
      </trkpt>
      <trkpt lat="47.57143" lon="6.71987">
        <ele>361</ele>
        <time>2015-11-01T09:17:01.000Z</time>
      </trkpt>
      <trkpt lat="47.57145" lon="6.71986">
        <ele>361</ele>
        <time>2015-11-01T09:17:02.000Z</time>
      </trkpt>
      <trkpt lat="47.57147" lon="6.71985">
        <ele>361</ele>
        <time>2015-11-01T09:17:03.000Z</time>
      </trkpt>
      <trkpt lat="47.57149" lon="6.71984">
        <ele>361</ele>
        <time>2015-11-01T09:17:04.000Z</time>
      </trkpt>
      <trkpt lat="47.57151" lon="6.71984">
        <ele>361</ele>
        <time>2015-11-01T09:17:05.000Z</time>
      </trkpt>
      <trkpt lat="47.57153" lon="6.71983">
        <ele>362</ele>
        <time>2015-11-01T09:17:06.000Z</time>
      </trkpt>
      <trkpt lat="47.57156" lon="6.71983">
        <ele>362</ele>
        <time>2015-11-01T09:17:07.000Z</time>
      </trkpt>
      <trkpt lat="47.57158" lon="6.71982">
        <ele>362</ele>
        <time>2015-11-01T09:17:08.000Z</time>
      </trkpt>
      <trkpt lat="47.5716" lon="6.71981">
        <ele>362</ele>
        <time>2015-11-01T09:17:09.000Z</time>
      </trkpt>
      <trkpt lat="47.57163" lon="6.71981">
        <ele>362</ele>
        <time>2015-11-01T09:17:10.000Z</time>
      </trkpt>
      <trkpt lat="47.57165" lon="6.7198">
        <ele>362</ele>
        <time>2015-11-01T09:17:11.000Z</time>
      </trkpt>
      <trkpt lat="47.57167" lon="6.7198">
        <ele>367</ele>
        <time>2015-11-01T09:17:12.000Z</time>
      </trkpt>
      <trkpt lat="47.5717" lon="6.7198">
        <ele>367</ele>
        <time>2015-11-01T09:17:13.000Z</time>
      </trkpt>
      <trkpt lat="47.57172" lon="6.71979">
        <ele>367</ele>
        <time>2015-11-01T09:17:14.000Z</time>
      </trkpt>
      <trkpt lat="47.57176" lon="6.71977">
        <ele>368</ele>
        <time>2015-11-01T09:17:16.000Z</time>
      </trkpt>
      <trkpt lat="47.57178" lon="6.71976">
        <ele>368</ele>
        <time>2015-11-01T09:17:17.000Z</time>
      </trkpt>
      <trkpt lat="47.5718" lon="6.71974">
        <ele>368</ele>
        <time>2015-11-01T09:17:18.000Z</time>
      </trkpt>
      <trkpt lat="47.57182" lon="6.71973">
        <ele>368</ele>
        <time>2015-11-01T09:17:19.000Z</time>
      </trkpt>
      <trkpt lat="47.57184" lon="6.71972">
        <ele>369</ele>
        <time>2015-11-01T09:17:20.000Z</time>
      </trkpt>
      <trkpt lat="47.57187" lon="6.71971">
        <ele>369</ele>
        <time>2015-11-01T09:17:21.000Z</time>
      </trkpt>
      <trkpt lat="47.57189" lon="6.7197">
        <ele>369</ele>
        <time>2015-11-01T09:17:22.000Z</time>
      </trkpt>
      <trkpt lat="47.57192" lon="6.7197">
        <ele>369</ele>
        <time>2015-11-01T09:17:23.000Z</time>
      </trkpt>
      <trkpt lat="47.57194" lon="6.71969">
        <ele>369</ele>
        <time>2015-11-01T09:17:24.000Z</time>
      </trkpt>
      <trkpt lat="47.57196" lon="6.71968">
        <ele>370</ele>
        <time>2015-11-01T09:17:25.000Z</time>
      </trkpt>
      <trkpt lat="47.572" lon="6.71966">
        <ele>370</ele>
        <time>2015-11-01T09:17:27.000Z</time>
      </trkpt>
      <trkpt lat="47.57202" lon="6.71966">
        <ele>370</ele>
        <time>2015-11-01T09:17:28.000Z</time>
      </trkpt>
      <trkpt lat="47.57206" lon="6.71965">
        <ele>370</ele>
        <time>2015-11-01T09:17:30.000Z</time>
      </trkpt>
      <trkpt lat="47.57209" lon="6.71966">
        <ele>371</ele>
        <time>2015-11-01T09:17:31.000Z</time>
      </trkpt>
      <trkpt lat="47.57211" lon="6.71966">
        <ele>371</ele>
        <time>2015-11-01T09:17:32.000Z</time>
      </trkpt>
      <trkpt lat="47.57213" lon="6.71967">
        <ele>371</ele>
        <time>2015-11-01T09:17:33.000Z</time>
      </trkpt>
      <trkpt lat="47.57217" lon="6.71967">
        <ele>371</ele>
        <time>2015-11-01T09:17:35.000Z</time>
      </trkpt>
      <trkpt lat="47.57219" lon="6.71968">
        <ele>371</ele>
        <time>2015-11-01T09:17:36.000Z</time>
      </trkpt>
      <trkpt lat="47.57221" lon="6.71969">
        <ele>371</ele>
        <time>2015-11-01T09:17:37.000Z</time>
      </trkpt>
      <trkpt lat="47.57223" lon="6.7197">
        <ele>371</ele>
        <time>2015-11-01T09:17:38.000Z</time>
      </trkpt>
      <trkpt lat="47.57227" lon="6.71972">
        <ele>372</ele>
        <time>2015-11-01T09:17:40.000Z</time>
      </trkpt>
      <trkpt lat="47.57229" lon="6.71973">
        <ele>372</ele>
        <time>2015-11-01T09:17:41.000Z</time>
      </trkpt>
      <trkpt lat="47.57233" lon="6.71975">
        <ele>372</ele>
        <time>2015-11-01T09:17:43.000Z</time>
      </trkpt>
      <trkpt lat="47.57234" lon="6.71977">
        <ele>372</ele>
        <time>2015-11-01T09:17:44.000Z</time>
      </trkpt>
      <trkpt lat="47.57236" lon="6.71978">
        <ele>372</ele>
        <time>2015-11-01T09:17:45.000Z</time>
      </trkpt>
      <trkpt lat="47.57239" lon="6.7198">
        <ele>372</ele>
        <time>2015-11-01T09:17:46.000Z</time>
      </trkpt>
      <trkpt lat="47.57241" lon="6.71982">
        <ele>372</ele>
        <time>2015-11-01T09:17:47.000Z</time>
      </trkpt>
      <trkpt lat="47.57243" lon="6.71983">
        <ele>372</ele>
        <time>2015-11-01T09:17:48.000Z</time>
      </trkpt>
      <trkpt lat="47.57245" lon="6.71985">
        <ele>373</ele>
        <time>2015-11-01T09:17:49.000Z</time>
      </trkpt>
      <trkpt lat="47.57247" lon="6.71986">
        <ele>373</ele>
        <time>2015-11-01T09:17:50.000Z</time>
      </trkpt>
      <trkpt lat="47.5725" lon="6.71988">
        <ele>373</ele>
        <time>2015-11-01T09:17:51.000Z</time>
      </trkpt>
      <trkpt lat="47.57252" lon="6.71989">
        <ele>376</ele>
        <time>2015-11-01T09:17:52.000Z</time>
      </trkpt>
      <trkpt lat="47.57255" lon="6.71991">
        <ele>376</ele>
        <time>2015-11-01T09:17:54.000Z</time>
      </trkpt>
      <trkpt lat="47.57257" lon="6.71992">
        <ele>376</ele>
        <time>2015-11-01T09:17:55.000Z</time>
      </trkpt>
      <trkpt lat="47.57261" lon="6.71994">
        <ele>377</ele>
        <time>2015-11-01T09:17:57.000Z</time>
      </trkpt>
      <trkpt lat="47.57263" lon="6.71996">
        <ele>377</ele>
        <time>2015-11-01T09:17:58.000Z</time>
      </trkpt>
      <trkpt lat="47.57267" lon="6.71998">
        <ele>377</ele>
        <time>2015-11-01T09:18:00.000Z</time>
      </trkpt>
      <trkpt lat="47.57268" lon="6.71999">
        <ele>377</ele>
        <time>2015-11-01T09:18:01.000Z</time>
      </trkpt>
      <trkpt lat="47.57272" lon="6.72002">
        <ele>376</ele>
        <time>2015-11-01T09:18:03.000Z</time>
      </trkpt>
      <trkpt lat="47.57273" lon="6.72002">
        <ele>376</ele>
        <time>2015-11-01T09:18:04.000Z</time>
      </trkpt>
      <trkpt lat="47.57277" lon="6.72004">
        <ele>376</ele>
        <time>2015-11-01T09:18:06.000Z</time>
      </trkpt>
      <trkpt lat="47.57278" lon="6.72004">
        <ele>376</ele>
        <time>2015-11-01T09:18:07.000Z</time>
      </trkpt>
      <trkpt lat="47.57282" lon="6.72006">
        <ele>377</ele>
        <time>2015-11-01T09:18:09.000Z</time>
      </trkpt>
      <trkpt lat="47.57284" lon="6.72008">
        <ele>377</ele>
        <time>2015-11-01T09:18:10.000Z</time>
      </trkpt>
      <trkpt lat="47.57287" lon="6.7201">
        <ele>377</ele>
        <time>2015-11-01T09:18:12.000Z</time>
      </trkpt>
      <trkpt lat="47.57289" lon="6.72011">
        <ele>377</ele>
        <time>2015-11-01T09:18:13.000Z</time>
      </trkpt>
      <trkpt lat="47.57293" lon="6.72013">
        <ele>377</ele>
        <time>2015-11-01T09:18:15.000Z</time>
      </trkpt>
      <trkpt lat="47.57294" lon="6.72014">
        <ele>377</ele>
        <time>2015-11-01T09:18:16.000Z</time>
      </trkpt>
      <trkpt lat="47.57298" lon="6.72016">
        <ele>378</ele>
        <time>2015-11-01T09:18:18.000Z</time>
      </trkpt>
      <trkpt lat="47.573" lon="6.72016">
        <ele>378</ele>
        <time>2015-11-01T09:18:19.000Z</time>
      </trkpt>
      <trkpt lat="47.57303" lon="6.72017">
        <ele>378</ele>
        <time>2015-11-01T09:18:21.000Z</time>
      </trkpt>
      <trkpt lat="47.57305" lon="6.72017">
        <ele>378</ele>
        <time>2015-11-01T09:18:22.000Z</time>
      </trkpt>
      <trkpt lat="47.57308" lon="6.72017">
        <ele>379</ele>
        <time>2015-11-01T09:18:24.000Z</time>
      </trkpt>
      <trkpt lat="47.5731" lon="6.72017">
        <ele>379</ele>
        <time>2015-11-01T09:18:25.000Z</time>
      </trkpt>
      <trkpt lat="47.57313" lon="6.72016">
        <ele>379</ele>
        <time>2015-11-01T09:18:27.000Z</time>
      </trkpt>
      <trkpt lat="47.57314" lon="6.72015">
        <ele>379</ele>
        <time>2015-11-01T09:18:28.000Z</time>
      </trkpt>
      <trkpt lat="47.57318" lon="6.72013">
        <ele>380</ele>
        <time>2015-11-01T09:18:30.000Z</time>
      </trkpt>
      <trkpt lat="47.57319" lon="6.72011">
        <ele>380</ele>
        <time>2015-11-01T09:18:31.000Z</time>
      </trkpt>
      <trkpt lat="47.57322" lon="6.72009">
        <ele>381</ele>
        <time>2015-11-01T09:18:33.000Z</time>
      </trkpt>
      <trkpt lat="47.57324" lon="6.72007">
        <ele>381</ele>
        <time>2015-11-01T09:18:34.000Z</time>
      </trkpt>
      <trkpt lat="47.57327" lon="6.72004">
        <ele>382</ele>
        <time>2015-11-01T09:18:36.000Z</time>
      </trkpt>
      <trkpt lat="47.57329" lon="6.72002">
        <ele>383</ele>
        <time>2015-11-01T09:18:37.000Z</time>
      </trkpt>
      <trkpt lat="47.57332" lon="6.71998">
        <ele>384</ele>
        <time>2015-11-01T09:18:39.000Z</time>
      </trkpt>
      <trkpt lat="47.57333" lon="6.71996">
        <ele>383</ele>
        <time>2015-11-01T09:18:40.000Z</time>
      </trkpt>
      <trkpt lat="47.57336" lon="6.71991">
        <ele>385</ele>
        <time>2015-11-01T09:18:42.000Z</time>
      </trkpt>
      <trkpt lat="47.57337" lon="6.71988">
        <ele>385</ele>
        <time>2015-11-01T09:18:43.000Z</time>
      </trkpt>
      <trkpt lat="47.57339" lon="6.71986">
        <ele>385</ele>
        <time>2015-11-01T09:18:44.000Z</time>
      </trkpt>
      <trkpt lat="47.5734" lon="6.71984">
        <ele>385</ele>
        <time>2015-11-01T09:18:45.000Z</time>
      </trkpt>
      <trkpt lat="47.57343" lon="6.71979">
        <ele>386</ele>
        <time>2015-11-01T09:18:47.000Z</time>
      </trkpt>
      <trkpt lat="47.57345" lon="6.71976">
        <ele>386</ele>
        <time>2015-11-01T09:18:48.000Z</time>
      </trkpt>
      <trkpt lat="47.57346" lon="6.71974">
        <ele>386</ele>
        <time>2015-11-01T09:18:49.000Z</time>
      </trkpt>
      <trkpt lat="47.57347" lon="6.71971">
        <ele>386</ele>
        <time>2015-11-01T09:18:50.000Z</time>
      </trkpt>
      <trkpt lat="47.5735" lon="6.71966">
        <ele>386</ele>
        <time>2015-11-01T09:18:52.000Z</time>
      </trkpt>
      <trkpt lat="47.57352" lon="6.71963">
        <ele>386</ele>
        <time>2015-11-01T09:18:53.000Z</time>
      </trkpt>
      <trkpt lat="47.57353" lon="6.7196">
        <ele>386</ele>
        <time>2015-11-01T09:18:54.000Z</time>
      </trkpt>
      <trkpt lat="47.57355" lon="6.71958">
        <ele>386</ele>
        <time>2015-11-01T09:18:55.000Z</time>
      </trkpt>
      <trkpt lat="47.57356" lon="6.71955">
        <ele>386</ele>
        <time>2015-11-01T09:18:56.000Z</time>
      </trkpt>
      <trkpt lat="47.57358" lon="6.71953">
        <ele>387</ele>
        <time>2015-11-01T09:18:57.000Z</time>
      </trkpt>
      <trkpt lat="47.5736" lon="6.7195">
        <ele>387</ele>
        <time>2015-11-01T09:18:58.000Z</time>
      </trkpt>
      <trkpt lat="47.57361" lon="6.71948">
        <ele>387</ele>
        <time>2015-11-01T09:18:59.000Z</time>
      </trkpt>
      <trkpt lat="47.57363" lon="6.71945">
        <ele>387</ele>
        <time>2015-11-01T09:19:00.000Z</time>
      </trkpt>
      <trkpt lat="47.57365" lon="6.71943">
        <ele>387</ele>
        <time>2015-11-01T09:19:01.000Z</time>
      </trkpt>
      <trkpt lat="47.57366" lon="6.7194">
        <ele>387</ele>
        <time>2015-11-01T09:19:02.000Z</time>
      </trkpt>
      <trkpt lat="47.57368" lon="6.71938">
        <ele>387</ele>
        <time>2015-11-01T09:19:03.000Z</time>
      </trkpt>
      <trkpt lat="47.57371" lon="6.71933">
        <ele>387</ele>
        <time>2015-11-01T09:19:05.000Z</time>
      </trkpt>
      <trkpt lat="47.57372" lon="6.71931">
        <ele>387</ele>
        <time>2015-11-01T09:19:06.000Z</time>
      </trkpt>
      <trkpt lat="47.57375" lon="6.71926">
        <ele>388</ele>
        <time>2015-11-01T09:19:08.000Z</time>
      </trkpt>
      <trkpt lat="47.57377" lon="6.71924">
        <ele>388</ele>
        <time>2015-11-01T09:19:09.000Z</time>
      </trkpt>
      <trkpt lat="47.57379" lon="6.71922">
        <ele>388</ele>
        <time>2015-11-01T09:19:10.000Z</time>
      </trkpt>
      <trkpt lat="47.57381" lon="6.7192">
        <ele>388</ele>
        <time>2015-11-01T09:19:11.000Z</time>
      </trkpt>
      <trkpt lat="47.57383" lon="6.71917">
        <ele>388</ele>
        <time>2015-11-01T09:19:12.000Z</time>
      </trkpt>
      <trkpt lat="47.57384" lon="6.71915">
        <ele>391</ele>
        <time>2015-11-01T09:19:13.000Z</time>
      </trkpt>
      <trkpt lat="47.57386" lon="6.71913">
        <ele>391</ele>
        <time>2015-11-01T09:19:14.000Z</time>
      </trkpt>
      <trkpt lat="47.57388" lon="6.71912">
        <ele>391</ele>
        <time>2015-11-01T09:19:15.000Z</time>
      </trkpt>
      <trkpt lat="47.5739" lon="6.7191">
        <ele>391</ele>
        <time>2015-11-01T09:19:16.000Z</time>
      </trkpt>
      <trkpt lat="47.57392" lon="6.71908">
        <ele>391</ele>
        <time>2015-11-01T09:19:17.000Z</time>
      </trkpt>
      <trkpt lat="47.57394" lon="6.71907">
        <ele>391</ele>
        <time>2015-11-01T09:19:18.000Z</time>
      </trkpt>
      <trkpt lat="47.57396" lon="6.71904">
        <ele>391</ele>
        <time>2015-11-01T09:19:19.000Z</time>
      </trkpt>
      <trkpt lat="47.57398" lon="6.71902">
        <ele>391</ele>
        <time>2015-11-01T09:19:20.000Z</time>
      </trkpt>
      <trkpt lat="47.574" lon="6.719">
        <ele>392</ele>
        <time>2015-11-01T09:19:21.000Z</time>
      </trkpt>
      <trkpt lat="47.57402" lon="6.71898">
        <ele>392</ele>
        <time>2015-11-01T09:19:22.000Z</time>
      </trkpt>
      <trkpt lat="47.57405" lon="6.71896">
        <ele>392</ele>
        <time>2015-11-01T09:19:23.000Z</time>
      </trkpt>
      <trkpt lat="47.57407" lon="6.71894">
        <ele>392</ele>
        <time>2015-11-01T09:19:24.000Z</time>
      </trkpt>
      <trkpt lat="47.57409" lon="6.71893">
        <ele>392</ele>
        <time>2015-11-01T09:19:25.000Z</time>
      </trkpt>
      <trkpt lat="47.57411" lon="6.71891">
        <ele>392</ele>
        <time>2015-11-01T09:19:26.000Z</time>
      </trkpt>
      <trkpt lat="47.57413" lon="6.71889">
        <ele>392</ele>
        <time>2015-11-01T09:19:27.000Z</time>
      </trkpt>
      <trkpt lat="47.57415" lon="6.71888">
        <ele>392</ele>
        <time>2015-11-01T09:19:28.000Z</time>
      </trkpt>
      <trkpt lat="47.57417" lon="6.71886">
        <ele>397</ele>
        <time>2015-11-01T09:19:29.000Z</time>
      </trkpt>
      <trkpt lat="47.57419" lon="6.71885">
        <ele>397</ele>
        <time>2015-11-01T09:19:30.000Z</time>
      </trkpt>
      <trkpt lat="47.57421" lon="6.71883">
        <ele>397</ele>
        <time>2015-11-01T09:19:31.000Z</time>
      </trkpt>
      <trkpt lat="47.57423" lon="6.71882">
        <ele>397</ele>
        <time>2015-11-01T09:19:32.000Z</time>
      </trkpt>
      <trkpt lat="47.57425" lon="6.7188">
        <ele>397</ele>
        <time>2015-11-01T09:19:33.000Z</time>
      </trkpt>
      <trkpt lat="47.57429" lon="6.71877">
        <ele>398</ele>
        <time>2015-11-01T09:19:35.000Z</time>
      </trkpt>
      <trkpt lat="47.57431" lon="6.71875">
        <ele>398</ele>
        <time>2015-11-01T09:19:36.000Z</time>
      </trkpt>
      <trkpt lat="47.57434" lon="6.71872">
        <ele>398</ele>
        <time>2015-11-01T09:19:38.000Z</time>
      </trkpt>
      <trkpt lat="47.57436" lon="6.7187">
        <ele>398</ele>
        <time>2015-11-01T09:19:39.000Z</time>
      </trkpt>
      <trkpt lat="47.5744" lon="6.71867">
        <ele>398</ele>
        <time>2015-11-01T09:19:41.000Z</time>
      </trkpt>
      <trkpt lat="47.57442" lon="6.71865">
        <ele>398</ele>
        <time>2015-11-01T09:19:42.000Z</time>
      </trkpt>
      <trkpt lat="47.57445" lon="6.71862">
        <ele>399</ele>
        <time>2015-11-01T09:19:44.000Z</time>
      </trkpt>
      <trkpt lat="47.57447" lon="6.7186">
        <ele>399</ele>
        <time>2015-11-01T09:19:45.000Z</time>
      </trkpt>
      <trkpt lat="47.57449" lon="6.71856">
        <ele>399</ele>
        <time>2015-11-01T09:19:47.000Z</time>
      </trkpt>
      <trkpt lat="47.5745" lon="6.71854">
        <ele>399</ele>
        <time>2015-11-01T09:19:48.000Z</time>
      </trkpt>
      <trkpt lat="47.57452" lon="6.71848">
        <ele>399</ele>
        <time>2015-11-01T09:19:51.000Z</time>
      </trkpt>
      <trkpt lat="47.57452" lon="6.71846">
        <ele>399</ele>
        <time>2015-11-01T09:19:52.000Z</time>
      </trkpt>
      <trkpt lat="47.57452" lon="6.71841">
        <ele>399</ele>
        <time>2015-11-01T09:19:54.000Z</time>
      </trkpt>
      <trkpt lat="47.57453" lon="6.71838">
        <ele>399</ele>
        <time>2015-11-01T09:19:55.000Z</time>
      </trkpt>
      <trkpt lat="47.57454" lon="6.71833">
        <ele>399</ele>
        <time>2015-11-01T09:19:57.000Z</time>
      </trkpt>
      <trkpt lat="47.57455" lon="6.71831">
        <ele>402</ele>
        <time>2015-11-01T09:19:58.000Z</time>
      </trkpt>
      <trkpt lat="47.57455" lon="6.71825">
        <ele>402</ele>
        <time>2015-11-01T09:20:00.000Z</time>
      </trkpt>
      <trkpt lat="47.57455" lon="6.71822">
        <ele>402</ele>
        <time>2015-11-01T09:20:01.000Z</time>
      </trkpt>
      <trkpt lat="47.57455" lon="6.71816">
        <ele>403</ele>
        <time>2015-11-01T09:20:03.000Z</time>
      </trkpt>
      <trkpt lat="47.57455" lon="6.71813">
        <ele>403</ele>
        <time>2015-11-01T09:20:04.000Z</time>
      </trkpt>
      <trkpt lat="47.57455" lon="6.71806">
        <ele>403</ele>
        <time>2015-11-01T09:20:06.000Z</time>
      </trkpt>
      <trkpt lat="47.57455" lon="6.71803">
        <ele>403</ele>
        <time>2015-11-01T09:20:07.000Z</time>
      </trkpt>
      <trkpt lat="47.57455" lon="6.71798">
        <ele>403</ele>
        <time>2015-11-01T09:20:09.000Z</time>
      </trkpt>
      <trkpt lat="47.57455" lon="6.71795">
        <ele>403</ele>
        <time>2015-11-01T09:20:10.000Z</time>
      </trkpt>
      <trkpt lat="47.57456" lon="6.71789">
        <ele>403</ele>
        <time>2015-11-01T09:20:12.000Z</time>
      </trkpt>
      <trkpt lat="47.57456" lon="6.71786">
        <ele>404</ele>
        <time>2015-11-01T09:20:13.000Z</time>
      </trkpt>
      <trkpt lat="47.57456" lon="6.7178">
        <ele>404</ele>
        <time>2015-11-01T09:20:15.000Z</time>
      </trkpt>
      <trkpt lat="47.57457" lon="6.71777">
        <ele>404</ele>
        <time>2015-11-01T09:20:16.000Z</time>
      </trkpt>
      <trkpt lat="47.57457" lon="6.71772">
        <ele>404</ele>
        <time>2015-11-01T09:20:18.000Z</time>
      </trkpt>
      <trkpt lat="47.57457" lon="6.71769">
        <ele>404</ele>
        <time>2015-11-01T09:20:19.000Z</time>
      </trkpt>
      <trkpt lat="47.57458" lon="6.71764">
        <ele>404</ele>
        <time>2015-11-01T09:20:21.000Z</time>
      </trkpt>
      <trkpt lat="47.57458" lon="6.71761">
        <ele>404</ele>
        <time>2015-11-01T09:20:22.000Z</time>
      </trkpt>
      <trkpt lat="47.57459" lon="6.71756">
        <ele>404</ele>
        <time>2015-11-01T09:20:24.000Z</time>
      </trkpt>
      <trkpt lat="47.5746" lon="6.71754">
        <ele>405</ele>
        <time>2015-11-01T09:20:25.000Z</time>
      </trkpt>
      <trkpt lat="47.57462" lon="6.71749">
        <ele>408</ele>
        <time>2015-11-01T09:20:27.000Z</time>
      </trkpt>
      <trkpt lat="47.57464" lon="6.71747">
        <ele>408</ele>
        <time>2015-11-01T09:20:28.000Z</time>
      </trkpt>
      <trkpt lat="47.57467" lon="6.71743">
        <ele>409</ele>
        <time>2015-11-01T09:20:30.000Z</time>
      </trkpt>
      <trkpt lat="47.57468" lon="6.7174">
        <ele>409</ele>
        <time>2015-11-01T09:20:31.000Z</time>
      </trkpt>
      <trkpt lat="47.57468" lon="6.71737">
        <ele>409</ele>
        <time>2015-11-01T09:20:32.000Z</time>
      </trkpt>
      <trkpt lat="47.57469" lon="6.71734">
        <ele>409</ele>
        <time>2015-11-01T09:20:33.000Z</time>
      </trkpt>
      <trkpt lat="47.5747" lon="6.71731">
        <ele>409</ele>
        <time>2015-11-01T09:20:34.000Z</time>
      </trkpt>
      <trkpt lat="47.57472" lon="6.71728">
        <ele>409</ele>
        <time>2015-11-01T09:20:35.000Z</time>
      </trkpt>
      <trkpt lat="47.57475" lon="6.71723">
        <ele>410</ele>
        <time>2015-11-01T09:20:37.000Z</time>
      </trkpt>
      <trkpt lat="47.57476" lon="6.71721">
        <ele>410</ele>
        <time>2015-11-01T09:20:38.000Z</time>
      </trkpt>
      <trkpt lat="47.57479" lon="6.71716">
        <ele>410</ele>
        <time>2015-11-01T09:20:40.000Z</time>
      </trkpt>
      <trkpt lat="47.5748" lon="6.71714">
        <ele>410</ele>
        <time>2015-11-01T09:20:41.000Z</time>
      </trkpt>
      <trkpt lat="47.57481" lon="6.71708">
        <ele>410</ele>
        <time>2015-11-01T09:20:43.000Z</time>
      </trkpt>
      <trkpt lat="47.57482" lon="6.71706">
        <ele>411</ele>
        <time>2015-11-01T09:20:44.000Z</time>
      </trkpt>
      <trkpt lat="47.57485" lon="6.71701">
        <ele>411</ele>
        <time>2015-11-01T09:20:46.000Z</time>
      </trkpt>
      <trkpt lat="47.57486" lon="6.71698">
        <ele>411</ele>
        <time>2015-11-01T09:20:47.000Z</time>
      </trkpt>
      <trkpt lat="47.57487" lon="6.71693">
        <ele>412</ele>
        <time>2015-11-01T09:20:49.000Z</time>
      </trkpt>
      <trkpt lat="47.57488" lon="6.7169">
        <ele>412</ele>
        <time>2015-11-01T09:20:50.000Z</time>
      </trkpt>
      <trkpt lat="47.5749" lon="6.71684">
        <ele>413</ele>
        <time>2015-11-01T09:20:52.000Z</time>
      </trkpt>
      <trkpt lat="47.5749" lon="6.71681">
        <ele>413</ele>
        <time>2015-11-01T09:20:53.000Z</time>
      </trkpt>
      <trkpt lat="47.57491" lon="6.71675">
        <ele>414</ele>
        <time>2015-11-01T09:20:55.000Z</time>
      </trkpt>
      <trkpt lat="47.57492" lon="6.71672">
        <ele>415</ele>
        <time>2015-11-01T09:20:56.000Z</time>
      </trkpt>
      <trkpt lat="47.57493" lon="6.71667">
        <ele>416</ele>
        <time>2015-11-01T09:20:58.000Z</time>
      </trkpt>
      <trkpt lat="47.57493" lon="6.71664">
        <ele>417</ele>
        <time>2015-11-01T09:20:59.000Z</time>
      </trkpt>
      <trkpt lat="47.57495" lon="6.71659">
        <ele>417</ele>
        <time>2015-11-01T09:21:01.000Z</time>
      </trkpt>
      <trkpt lat="47.57495" lon="6.71656">
        <ele>416</ele>
        <time>2015-11-01T09:21:02.000Z</time>
      </trkpt>
      <trkpt lat="47.57496" lon="6.7165">
        <ele>416</ele>
        <time>2015-11-01T09:21:04.000Z</time>
      </trkpt>
      <trkpt lat="47.57497" lon="6.71647">
        <ele>416</ele>
        <time>2015-11-01T09:21:05.000Z</time>
      </trkpt>
      <trkpt lat="47.57497" lon="6.71641">
        <ele>416</ele>
        <time>2015-11-01T09:21:07.000Z</time>
      </trkpt>
      <trkpt lat="47.57498" lon="6.71638">
        <ele>416</ele>
        <time>2015-11-01T09:21:08.000Z</time>
      </trkpt>
      <trkpt lat="47.57498" lon="6.71632">
        <ele>416</ele>
        <time>2015-11-01T09:21:10.000Z</time>
      </trkpt>
      <trkpt lat="47.57499" lon="6.71629">
        <ele>416</ele>
        <time>2015-11-01T09:21:11.000Z</time>
      </trkpt>
      <trkpt lat="47.57499" lon="6.71623">
        <ele>416</ele>
        <time>2015-11-01T09:21:13.000Z</time>
      </trkpt>
      <trkpt lat="47.575" lon="6.7162">
        <ele>416</ele>
        <time>2015-11-01T09:21:14.000Z</time>
      </trkpt>
      <trkpt lat="47.57501" lon="6.71614">
        <ele>423</ele>
        <time>2015-11-01T09:21:16.000Z</time>
      </trkpt>
      <trkpt lat="47.57501" lon="6.71611">
        <ele>423</ele>
        <time>2015-11-01T09:21:17.000Z</time>
      </trkpt>
      <trkpt lat="47.57502" lon="6.71605">
        <ele>423</ele>
        <time>2015-11-01T09:21:19.000Z</time>
      </trkpt>
      <trkpt lat="47.57503" lon="6.71602">
        <ele>423</ele>
        <time>2015-11-01T09:21:20.000Z</time>
      </trkpt>
      <trkpt lat="47.57504" lon="6.71596">
        <ele>423</ele>
        <time>2015-11-01T09:21:22.000Z</time>
      </trkpt>
      <trkpt lat="47.57505" lon="6.71593">
        <ele>423</ele>
        <time>2015-11-01T09:21:23.000Z</time>
      </trkpt>
      <trkpt lat="47.57508" lon="6.71589">
        <ele>423</ele>
        <time>2015-11-01T09:21:25.000Z</time>
      </trkpt>
      <trkpt lat="47.5751" lon="6.71587">
        <ele>423</ele>
        <time>2015-11-01T09:21:26.000Z</time>
      </trkpt>
      <trkpt lat="47.57512" lon="6.71583">
        <ele>424</ele>
        <time>2015-11-01T09:21:28.000Z</time>
      </trkpt>
      <trkpt lat="47.57513" lon="6.7158">
        <ele>424</ele>
        <time>2015-11-01T09:21:29.000Z</time>
      </trkpt>
      <trkpt lat="47.57515" lon="6.71575">
        <ele>425</ele>
        <time>2015-11-01T09:21:31.000Z</time>
      </trkpt>
      <trkpt lat="47.57515" lon="6.71572">
        <ele>425</ele>
        <time>2015-11-01T09:21:32.000Z</time>
      </trkpt>
      <trkpt lat="47.57517" lon="6.71566">
        <ele>425</ele>
        <time>2015-11-01T09:21:34.000Z</time>
      </trkpt>
      <trkpt lat="47.57518" lon="6.71563">
        <ele>426</ele>
        <time>2015-11-01T09:21:35.000Z</time>
      </trkpt>
      <trkpt lat="47.5752" lon="6.71558">
        <ele>426</ele>
        <time>2015-11-01T09:21:37.000Z</time>
      </trkpt>
      <trkpt lat="47.57521" lon="6.71555">
        <ele>426</ele>
        <time>2015-11-01T09:21:38.000Z</time>
      </trkpt>
      <trkpt lat="47.57523" lon="6.71549">
        <ele>426</ele>
        <time>2015-11-01T09:21:40.000Z</time>
      </trkpt>
      <trkpt lat="47.57524" lon="6.71546">
        <ele>426</ele>
        <time>2015-11-01T09:21:41.000Z</time>
      </trkpt>
      <trkpt lat="47.57526" lon="6.71541">
        <ele>427</ele>
        <time>2015-11-01T09:21:43.000Z</time>
      </trkpt>
      <trkpt lat="47.57527" lon="6.71538">
        <ele>427</ele>
        <time>2015-11-01T09:21:44.000Z</time>
      </trkpt>
      <trkpt lat="47.57528" lon="6.71532">
        <ele>427</ele>
        <time>2015-11-01T09:21:46.000Z</time>
      </trkpt>
      <trkpt lat="47.57529" lon="6.71529">
        <ele>427</ele>
        <time>2015-11-01T09:21:47.000Z</time>
      </trkpt>
      <trkpt lat="47.57531" lon="6.71523">
        <ele>427</ele>
        <time>2015-11-01T09:21:49.000Z</time>
      </trkpt>
      <trkpt lat="47.57533" lon="6.71521">
        <ele>427</ele>
        <time>2015-11-01T09:21:50.000Z</time>
      </trkpt>
      <trkpt lat="47.57535" lon="6.71516">
        <ele>427</ele>
        <time>2015-11-01T09:21:52.000Z</time>
      </trkpt>
      <trkpt lat="47.57536" lon="6.71513">
        <ele>427</ele>
        <time>2015-11-01T09:21:53.000Z</time>
      </trkpt>
      <trkpt lat="47.57539" lon="6.71509">
        <ele>427</ele>
        <time>2015-11-01T09:21:55.000Z</time>
      </trkpt>
      <trkpt lat="47.5754" lon="6.71507">
        <ele>427</ele>
        <time>2015-11-01T09:21:56.000Z</time>
      </trkpt>
      <trkpt lat="47.57543" lon="6.71504">
        <ele>428</ele>
        <time>2015-11-01T09:21:58.000Z</time>
      </trkpt>
      <trkpt lat="47.57545" lon="6.71504">
        <ele>428</ele>
        <time>2015-11-01T09:21:59.000Z</time>
      </trkpt>
      <trkpt lat="47.57549" lon="6.71502">
        <ele>428</ele>
        <time>2015-11-01T09:22:02.000Z</time>
      </trkpt>
      <trkpt lat="47.5755" lon="6.71502">
        <ele>428</ele>
        <time>2015-11-01T09:22:03.000Z</time>
      </trkpt>
      <trkpt lat="47.57554" lon="6.71499">
        <ele>428</ele>
        <time>2015-11-01T09:23:12.000Z</time>
      </trkpt>
      <trkpt lat="47.57555" lon="6.71499">
        <ele>428</ele>
        <time>2015-11-01T09:23:13.000Z</time>
      </trkpt>
      <trkpt lat="47.57558" lon="6.715">
        <ele>428</ele>
        <time>2015-11-01T09:23:15.000Z</time>
      </trkpt>
      <trkpt lat="47.57559" lon="6.715">
        <ele>429</ele>
        <time>2015-11-01T09:23:16.000Z</time>
      </trkpt>
      <trkpt lat="47.57563" lon="6.71499">
        <ele>429</ele>
        <time>2015-11-01T09:23:18.000Z</time>
      </trkpt>
      <trkpt lat="47.57565" lon="6.715">
        <ele>429</ele>
        <time>2015-11-01T09:23:19.000Z</time>
      </trkpt>
      <trkpt lat="47.57569" lon="6.715">
        <ele>429</ele>
        <time>2015-11-01T09:23:21.000Z</time>
      </trkpt>
      <trkpt lat="47.57571" lon="6.71499">
        <ele>429</ele>
        <time>2015-11-01T09:23:22.000Z</time>
      </trkpt>
      <trkpt lat="47.57575" lon="6.71497">
        <ele>430</ele>
        <time>2015-11-01T09:23:24.000Z</time>
      </trkpt>
      <trkpt lat="47.57577" lon="6.71497">
        <ele>430</ele>
        <time>2015-11-01T09:23:25.000Z</time>
      </trkpt>
      <trkpt lat="47.5758" lon="6.71497">
        <ele>430</ele>
        <time>2015-11-01T09:23:27.000Z</time>
      </trkpt>
      <trkpt lat="47.57582" lon="6.71497">
        <ele>430</ele>
        <time>2015-11-01T09:23:28.000Z</time>
      </trkpt>
      <trkpt lat="47.57586" lon="6.71497">
        <ele>431</ele>
        <time>2015-11-01T09:23:30.000Z</time>
      </trkpt>
      <trkpt lat="47.57588" lon="6.71498">
        <ele>431</ele>
        <time>2015-11-01T09:23:31.000Z</time>
      </trkpt>
      <trkpt lat="47.57591" lon="6.71497">
        <ele>431</ele>
        <time>2015-11-01T09:23:33.000Z</time>
      </trkpt>
      <trkpt lat="47.57593" lon="6.71498">
        <ele>431</ele>
        <time>2015-11-01T09:23:34.000Z</time>
      </trkpt>
      <trkpt lat="47.57595" lon="6.715">
        <ele>431</ele>
        <time>2015-11-01T09:23:35.000Z</time>
      </trkpt>
      <trkpt lat="47.57597" lon="6.71501">
        <ele>432</ele>
        <time>2015-11-01T09:23:36.000Z</time>
      </trkpt>
      <trkpt lat="47.57599" lon="6.71502">
        <ele>432</ele>
        <time>2015-11-01T09:23:37.000Z</time>
      </trkpt>
      <trkpt lat="47.57601" lon="6.71503">
        <ele>433</ele>
        <time>2015-11-01T09:23:38.000Z</time>
      </trkpt>
      <trkpt lat="47.57604" lon="6.71506">
        <ele>433</ele>
        <time>2015-11-01T09:23:40.000Z</time>
      </trkpt>
      <trkpt lat="47.57605" lon="6.71507">
        <ele>433</ele>
        <time>2015-11-01T09:23:41.000Z</time>
      </trkpt>
      <trkpt lat="47.57609" lon="6.71509">
        <ele>433</ele>
        <time>2015-11-01T09:23:44.000Z</time>
      </trkpt>
      <trkpt lat="47.57611" lon="6.71509">
        <ele>433</ele>
        <time>2015-11-01T09:23:45.000Z</time>
      </trkpt>
      <trkpt lat="47.57615" lon="6.71507">
        <ele>433</ele>
        <time>2015-11-01T09:23:47.000Z</time>
      </trkpt>
      <trkpt lat="47.57617" lon="6.71507">
        <ele>433</ele>
        <time>2015-11-01T09:23:48.000Z</time>
      </trkpt>
      <trkpt lat="47.57619" lon="6.71507">
        <ele>434</ele>
        <time>2015-11-01T09:23:49.000Z</time>
      </trkpt>
      <trkpt lat="47.57622" lon="6.71507">
        <ele>434</ele>
        <time>2015-11-01T09:23:50.000Z</time>
      </trkpt>
      <trkpt lat="47.57624" lon="6.71508">
        <ele>434</ele>
        <time>2015-11-01T09:23:51.000Z</time>
      </trkpt>
      <trkpt lat="47.57627" lon="6.71508">
        <ele>434</ele>
        <time>2015-11-01T09:23:52.000Z</time>
      </trkpt>
      <trkpt lat="47.5763" lon="6.71509">
        <ele>434</ele>
        <time>2015-11-01T09:23:53.000Z</time>
      </trkpt>
      <trkpt lat="47.57633" lon="6.71509">
        <ele>434</ele>
        <time>2015-11-01T09:23:54.000Z</time>
      </trkpt>
      <trkpt lat="47.57635" lon="6.7151">
        <ele>434</ele>
        <time>2015-11-01T09:23:55.000Z</time>
      </trkpt>
      <trkpt lat="47.57638" lon="6.71509">
        <ele>434</ele>
        <time>2015-11-01T09:23:56.000Z</time>
      </trkpt>
      <trkpt lat="47.5764" lon="6.71509">
        <ele>435</ele>
        <time>2015-11-01T09:23:57.000Z</time>
      </trkpt>
      <trkpt lat="47.57642" lon="6.71509">
        <ele>435</ele>
        <time>2015-11-01T09:23:58.000Z</time>
      </trkpt>
      <trkpt lat="47.57645" lon="6.71508">
        <ele>435</ele>
        <time>2015-11-01T09:23:59.000Z</time>
      </trkpt>
      <trkpt lat="47.57647" lon="6.71508">
        <ele>435</ele>
        <time>2015-11-01T09:24:00.000Z</time>
      </trkpt>
      <trkpt lat="47.5765" lon="6.71507">
        <ele>435</ele>
        <time>2015-11-01T09:24:01.000Z</time>
      </trkpt>
      <trkpt lat="47.57653" lon="6.71507">
        <ele>435</ele>
        <time>2015-11-01T09:24:02.000Z</time>
      </trkpt>
      <trkpt lat="47.57656" lon="6.71507">
        <ele>436</ele>
        <time>2015-11-01T09:24:03.000Z</time>
      </trkpt>
      <trkpt lat="47.57658" lon="6.71507">
        <ele>436</ele>
        <time>2015-11-01T09:24:04.000Z</time>
      </trkpt>
      <trkpt lat="47.57662" lon="6.71507">
        <ele>436</ele>
        <time>2015-11-01T09:24:06.000Z</time>
      </trkpt>
      <trkpt lat="47.57663" lon="6.71507">
        <ele>436</ele>
        <time>2015-11-01T09:24:07.000Z</time>
      </trkpt>
      <trkpt lat="47.57666" lon="6.71509">
        <ele>436</ele>
        <time>2015-11-01T09:24:09.000Z</time>
      </trkpt>
      <trkpt lat="47.57668" lon="6.71511">
        <ele>438</ele>
        <time>2015-11-01T09:24:10.000Z</time>
      </trkpt>
      <trkpt lat="47.57671" lon="6.71514">
        <ele>438</ele>
        <time>2015-11-01T09:24:12.000Z</time>
      </trkpt>
      <trkpt lat="47.57672" lon="6.71515">
        <ele>438</ele>
        <time>2015-11-01T09:24:13.000Z</time>
      </trkpt>
      <trkpt lat="47.57675" lon="6.71519">
        <ele>438</ele>
        <time>2015-11-01T09:24:15.000Z</time>
      </trkpt>
      <trkpt lat="47.57676" lon="6.71521">
        <ele>439</ele>
        <time>2015-11-01T09:24:16.000Z</time>
      </trkpt>
      <trkpt lat="47.57679" lon="6.71525">
        <ele>439</ele>
        <time>2015-11-01T09:24:18.000Z</time>
      </trkpt>
      <trkpt lat="47.57681" lon="6.71527">
        <ele>439</ele>
        <time>2015-11-01T09:24:19.000Z</time>
      </trkpt>
      <trkpt lat="47.57684" lon="6.71532">
        <ele>439</ele>
        <time>2015-11-01T09:24:21.000Z</time>
      </trkpt>
      <trkpt lat="47.57685" lon="6.71534">
        <ele>439</ele>
        <time>2015-11-01T09:24:22.000Z</time>
      </trkpt>
      <trkpt lat="47.57687" lon="6.71537">
        <ele>439</ele>
        <time>2015-11-01T09:24:23.000Z</time>
      </trkpt>
      <trkpt lat="47.57689" lon="6.7154">
        <ele>439</ele>
        <time>2015-11-01T09:24:24.000Z</time>
      </trkpt>
      <trkpt lat="47.5769" lon="6.71542">
        <ele>439</ele>
        <time>2015-11-01T09:24:25.000Z</time>
      </trkpt>
      <trkpt lat="47.57692" lon="6.71544">
        <ele>439</ele>
        <time>2015-11-01T09:24:26.000Z</time>
      </trkpt>
      <trkpt lat="47.57694" lon="6.71547">
        <ele>439</ele>
        <time>2015-11-01T09:24:27.000Z</time>
      </trkpt>
      <trkpt lat="47.57696" lon="6.71549">
        <ele>439</ele>
        <time>2015-11-01T09:24:28.000Z</time>
      </trkpt>
      <trkpt lat="47.57697" lon="6.71552">
        <ele>439</ele>
        <time>2015-11-01T09:24:29.000Z</time>
      </trkpt>
      <trkpt lat="47.57699" lon="6.71554">
        <ele>439</ele>
        <time>2015-11-01T09:24:30.000Z</time>
      </trkpt>
      <trkpt lat="47.57702" lon="6.71559">
        <ele>439</ele>
        <time>2015-11-01T09:24:32.000Z</time>
      </trkpt>
      <trkpt lat="47.57703" lon="6.71562">
        <ele>439</ele>
        <time>2015-11-01T09:24:33.000Z</time>
      </trkpt>
      <trkpt lat="47.57704" lon="6.71565">
        <ele>439</ele>
        <time>2015-11-01T09:24:34.000Z</time>
      </trkpt>
      <trkpt lat="47.57705" lon="6.71568">
        <ele>440</ele>
        <time>2015-11-01T09:24:35.000Z</time>
      </trkpt>
      <trkpt lat="47.57708" lon="6.71573">
        <ele>440</ele>
        <time>2015-11-01T09:24:37.000Z</time>
      </trkpt>
      <trkpt lat="47.57709" lon="6.71576">
        <ele>440</ele>
        <time>2015-11-01T09:24:38.000Z</time>
      </trkpt>
      <trkpt lat="47.5771" lon="6.71578">
        <ele>440</ele>
        <time>2015-11-01T09:24:39.000Z</time>
      </trkpt>
      <trkpt lat="47.57711" lon="6.71581">
        <ele>440</ele>
        <time>2015-11-01T09:24:40.000Z</time>
      </trkpt>
      <trkpt lat="47.57713" lon="6.71586">
        <ele>441</ele>
        <time>2015-11-01T09:24:42.000Z</time>
      </trkpt>
      <trkpt lat="47.57714" lon="6.71588">
        <ele>441</ele>
        <time>2015-11-01T09:24:43.000Z</time>
      </trkpt>
      <trkpt lat="47.57716" lon="6.71594">
        <ele>441</ele>
        <time>2015-11-01T09:24:46.000Z</time>
      </trkpt>
      <trkpt lat="47.57717" lon="6.71596">
        <ele>441</ele>
        <time>2015-11-01T09:24:47.000Z</time>
      </trkpt>
      <trkpt lat="47.57719" lon="6.716">
        <ele>441</ele>
        <time>2015-11-01T09:24:49.000Z</time>
      </trkpt>
      <trkpt lat="47.5772" lon="6.71602">
        <ele>441</ele>
        <time>2015-11-01T09:24:50.000Z</time>
      </trkpt>
      <trkpt lat="47.57723" lon="6.71608">
        <ele>441</ele>
        <time>2015-11-01T09:24:52.000Z</time>
      </trkpt>
      <trkpt lat="47.57724" lon="6.7161">
        <ele>442</ele>
        <time>2015-11-01T09:24:53.000Z</time>
      </trkpt>
      <trkpt lat="47.57726" lon="6.71613">
        <ele>442</ele>
        <time>2015-11-01T09:24:54.000Z</time>
      </trkpt>
      <trkpt lat="47.57727" lon="6.71616">
        <ele>442</ele>
        <time>2015-11-01T09:24:55.000Z</time>
      </trkpt>
      <trkpt lat="47.57729" lon="6.71619">
        <ele>442</ele>
        <time>2015-11-01T09:24:56.000Z</time>
      </trkpt>
      <trkpt lat="47.57731" lon="6.71622">
        <ele>442</ele>
        <time>2015-11-01T09:24:57.000Z</time>
      </trkpt>
      <trkpt lat="47.57732" lon="6.71625">
        <ele>442</ele>
        <time>2015-11-01T09:24:58.000Z</time>
      </trkpt>
      <trkpt lat="47.57734" lon="6.71629">
        <ele>443</ele>
        <time>2015-11-01T09:24:59.000Z</time>
      </trkpt>
      <trkpt lat="47.57735" lon="6.71633">
        <ele>443</ele>
        <time>2015-11-01T09:25:00.000Z</time>
      </trkpt>
      <trkpt lat="47.57737" lon="6.71637">
        <ele>443</ele>
        <time>2015-11-01T09:25:01.000Z</time>
      </trkpt>
      <trkpt lat="47.57738" lon="6.71641">
        <ele>444</ele>
        <time>2015-11-01T09:25:02.000Z</time>
      </trkpt>
      <trkpt lat="47.57739" lon="6.71644">
        <ele>444</ele>
        <time>2015-11-01T09:25:03.000Z</time>
      </trkpt>
      <trkpt lat="47.57741" lon="6.71648">
        <ele>444</ele>
        <time>2015-11-01T09:25:04.000Z</time>
      </trkpt>
      <trkpt lat="47.57742" lon="6.71652">
        <ele>445</ele>
        <time>2015-11-01T09:25:05.000Z</time>
      </trkpt>
      <trkpt lat="47.57743" lon="6.71656">
        <ele>446</ele>
        <time>2015-11-01T09:25:06.000Z</time>
      </trkpt>
      <trkpt lat="47.57745" lon="6.7166">
        <ele>447</ele>
        <time>2015-11-01T09:25:07.000Z</time>
      </trkpt>
      <trkpt lat="47.57746" lon="6.71664">
        <ele>448</ele>
        <time>2015-11-01T09:25:08.000Z</time>
      </trkpt>
      <trkpt lat="47.57748" lon="6.71668">
        <ele>448</ele>
        <time>2015-11-01T09:25:09.000Z</time>
      </trkpt>
      <trkpt lat="47.57748" lon="6.71672">
        <ele>448</ele>
        <time>2015-11-01T09:25:10.000Z</time>
      </trkpt>
      <trkpt lat="47.5775" lon="6.71676">
        <ele>451</ele>
        <time>2015-11-01T09:25:11.000Z</time>
      </trkpt>
      <trkpt lat="47.57753" lon="6.71679">
        <ele>452</ele>
        <time>2015-11-01T09:25:12.000Z</time>
      </trkpt>
      <trkpt lat="47.57755" lon="6.71683">
        <ele>453</ele>
        <time>2015-11-01T09:25:13.000Z</time>
      </trkpt>
      <trkpt lat="47.57757" lon="6.71687">
        <ele>453</ele>
        <time>2015-11-01T09:25:14.000Z</time>
      </trkpt>
      <trkpt lat="47.57759" lon="6.7169">
        <ele>454</ele>
        <time>2015-11-01T09:25:15.000Z</time>
      </trkpt>
      <trkpt lat="47.57761" lon="6.71694">
        <ele>454</ele>
        <time>2015-11-01T09:25:16.000Z</time>
      </trkpt>
      <trkpt lat="47.57762" lon="6.71698">
        <ele>454</ele>
        <time>2015-11-01T09:25:17.000Z</time>
      </trkpt>
      <trkpt lat="47.57763" lon="6.71701">
        <ele>455</ele>
        <time>2015-11-01T09:25:18.000Z</time>
      </trkpt>
      <trkpt lat="47.57763" lon="6.71705">
        <ele>455</ele>
        <time>2015-11-01T09:25:19.000Z</time>
      </trkpt>
      <trkpt lat="47.57764" lon="6.71711">
        <ele>455</ele>
        <time>2015-11-01T09:25:21.000Z</time>
      </trkpt>
      <trkpt lat="47.57765" lon="6.71714">
        <ele>455</ele>
        <time>2015-11-01T09:25:22.000Z</time>
      </trkpt>
      <trkpt lat="47.57767" lon="6.71718">
        <ele>455</ele>
        <time>2015-11-01T09:25:24.000Z</time>
      </trkpt>
      <trkpt lat="47.57767" lon="6.7172">
        <ele>455</ele>
        <time>2015-11-01T09:25:25.000Z</time>
      </trkpt>
      <trkpt lat="47.5777" lon="6.71724">
        <ele>456</ele>
        <time>2015-11-01T09:25:27.000Z</time>
      </trkpt>
      <trkpt lat="47.57771" lon="6.71727">
        <ele>456</ele>
        <time>2015-11-01T09:25:28.000Z</time>
      </trkpt>
      <trkpt lat="47.57774" lon="6.71731">
        <ele>456</ele>
        <time>2015-11-01T09:25:30.000Z</time>
      </trkpt>
      <trkpt lat="47.57776" lon="6.71733">
        <ele>456</ele>
        <time>2015-11-01T09:25:31.000Z</time>
      </trkpt>
      <trkpt lat="47.57778" lon="6.71735">
        <ele>456</ele>
        <time>2015-11-01T09:25:32.000Z</time>
      </trkpt>
      <trkpt lat="47.5778" lon="6.71738">
        <ele>456</ele>
        <time>2015-11-01T09:25:33.000Z</time>
      </trkpt>
      <trkpt lat="47.57784" lon="6.71741">
        <ele>456</ele>
        <time>2015-11-01T09:25:35.000Z</time>
      </trkpt>
      <trkpt lat="47.57785" lon="6.71743">
        <ele>457</ele>
        <time>2015-11-01T09:25:36.000Z</time>
      </trkpt>
      <trkpt lat="47.57788" lon="6.71746">
        <ele>457</ele>
        <time>2015-11-01T09:25:38.000Z</time>
      </trkpt>
      <trkpt lat="47.5779" lon="6.71747">
        <ele>457</ele>
        <time>2015-11-01T09:25:39.000Z</time>
      </trkpt>
      <trkpt lat="47.57793" lon="6.71749">
        <ele>457</ele>
        <time>2015-11-01T09:25:41.000Z</time>
      </trkpt>
      <trkpt lat="47.57794" lon="6.7175">
        <ele>457</ele>
        <time>2015-11-01T09:25:42.000Z</time>
      </trkpt>
      <trkpt lat="47.57797" lon="6.71752">
        <ele>457</ele>
        <time>2015-11-01T09:25:44.000Z</time>
      </trkpt>
      <trkpt lat="47.57799" lon="6.71754">
        <ele>458</ele>
        <time>2015-11-01T09:25:45.000Z</time>
      </trkpt>
      <trkpt lat="47.57801" lon="6.71757">
        <ele>458</ele>
        <time>2015-11-01T09:25:46.000Z</time>
      </trkpt>
      <trkpt lat="47.57802" lon="6.7176">
        <ele>458</ele>
        <time>2015-11-01T09:25:47.000Z</time>
      </trkpt>
      <trkpt lat="47.57804" lon="6.71763">
        <ele>458</ele>
        <time>2015-11-01T09:25:48.000Z</time>
      </trkpt>
      <trkpt lat="47.57806" lon="6.71765">
        <ele>458</ele>
        <time>2015-11-01T09:25:49.000Z</time>
      </trkpt>
      <trkpt lat="47.57808" lon="6.71771">
        <ele>458</ele>
        <time>2015-11-01T09:25:51.000Z</time>
      </trkpt>
      <trkpt lat="47.57809" lon="6.71773">
        <ele>458</ele>
        <time>2015-11-01T09:25:52.000Z</time>
      </trkpt>
      <trkpt lat="47.57812" lon="6.71778">
        <ele>458</ele>
        <time>2015-11-01T09:25:54.000Z</time>
      </trkpt>
      <trkpt lat="47.57813" lon="6.7178">
        <ele>458</ele>
        <time>2015-11-01T09:25:55.000Z</time>
      </trkpt>
      <trkpt lat="47.57816" lon="6.71785">
        <ele>458</ele>
        <time>2015-11-01T09:25:57.000Z</time>
      </trkpt>
      <trkpt lat="47.57817" lon="6.71787">
        <ele>458</ele>
        <time>2015-11-01T09:25:58.000Z</time>
      </trkpt>
      <trkpt lat="47.5782" lon="6.7179">
        <ele>458</ele>
        <time>2015-11-01T09:26:00.000Z</time>
      </trkpt>
      <trkpt lat="47.57821" lon="6.71791">
        <ele>458</ele>
        <time>2015-11-01T09:26:01.000Z</time>
      </trkpt>
      <trkpt lat="47.57824" lon="6.71794">
        <ele>458</ele>
        <time>2015-11-01T09:26:03.000Z</time>
      </trkpt>
      <trkpt lat="47.57825" lon="6.71796">
        <ele>458</ele>
        <time>2015-11-01T09:26:04.000Z</time>
      </trkpt>
      <trkpt lat="47.57827" lon="6.71798">
        <ele>458</ele>
        <time>2015-11-01T09:26:05.000Z</time>
      </trkpt>
      <trkpt lat="47.57829" lon="6.718">
        <ele>458</ele>
        <time>2015-11-01T09:26:06.000Z</time>
      </trkpt>
      <trkpt lat="47.57832" lon="6.71805">
        <ele>458</ele>
        <time>2015-11-01T09:26:08.000Z</time>
      </trkpt>
      <trkpt lat="47.57833" lon="6.71807">
        <ele>458</ele>
        <time>2015-11-01T09:26:09.000Z</time>
      </trkpt>
      <trkpt lat="47.57836" lon="6.71811">
        <ele>463</ele>
        <time>2015-11-01T09:26:12.000Z</time>
      </trkpt>
      <trkpt lat="47.57837" lon="6.71812">
        <ele>463</ele>
        <time>2015-11-01T09:26:13.000Z</time>
      </trkpt>
      <trkpt lat="47.57839" lon="6.71816">
        <ele>462</ele>
        <time>2015-11-01T09:26:16.000Z</time>
      </trkpt>
      <trkpt lat="47.5784" lon="6.71818">
        <ele>462</ele>
        <time>2015-11-01T09:26:17.000Z</time>
      </trkpt>
      <trkpt lat="47.57842" lon="6.71821">
        <ele>462</ele>
        <time>2015-11-01T09:26:19.000Z</time>
      </trkpt>
      <trkpt lat="47.57843" lon="6.71823">
        <ele>462</ele>
        <time>2015-11-01T09:26:20.000Z</time>
      </trkpt>
      <trkpt lat="47.57845" lon="6.71828">
        <ele>462</ele>
        <time>2015-11-01T09:26:22.000Z</time>
      </trkpt>
      <trkpt lat="47.57847" lon="6.71831">
        <ele>462</ele>
        <time>2015-11-01T09:26:23.000Z</time>
      </trkpt>
      <trkpt lat="47.57849" lon="6.71836">
        <ele>462</ele>
        <time>2015-11-01T09:26:25.000Z</time>
      </trkpt>
      <trkpt lat="47.57851" lon="6.71839">
        <ele>462</ele>
        <time>2015-11-01T09:26:26.000Z</time>
      </trkpt>
      <trkpt lat="47.57853" lon="6.71845">
        <ele>463</ele>
        <time>2015-11-01T09:26:28.000Z</time>
      </trkpt>
      <trkpt lat="47.57854" lon="6.71847">
        <ele>463</ele>
        <time>2015-11-01T09:26:29.000Z</time>
      </trkpt>
      <trkpt lat="47.57856" lon="6.7185">
        <ele>463</ele>
        <time>2015-11-01T09:26:30.000Z</time>
      </trkpt>
      <trkpt lat="47.57858" lon="6.71853">
        <ele>463</ele>
        <time>2015-11-01T09:26:31.000Z</time>
      </trkpt>
      <trkpt lat="47.5786" lon="6.71856">
        <ele>464</ele>
        <time>2015-11-01T09:26:32.000Z</time>
      </trkpt>
      <trkpt lat="47.57862" lon="6.71858">
        <ele>464</ele>
        <time>2015-11-01T09:26:33.000Z</time>
      </trkpt>
      <trkpt lat="47.57864" lon="6.7186">
        <ele>464</ele>
        <time>2015-11-01T09:26:34.000Z</time>
      </trkpt>
      <trkpt lat="47.57866" lon="6.71863">
        <ele>464</ele>
        <time>2015-11-01T09:26:35.000Z</time>
      </trkpt>
      <trkpt lat="47.57868" lon="6.71866">
        <ele>464</ele>
        <time>2015-11-01T09:26:36.000Z</time>
      </trkpt>
      <trkpt lat="47.5787" lon="6.71869">
        <ele>465</ele>
        <time>2015-11-01T09:26:37.000Z</time>
      </trkpt>
      <trkpt lat="47.57873" lon="6.71873">
        <ele>465</ele>
        <time>2015-11-01T09:26:38.000Z</time>
      </trkpt>
      <trkpt lat="47.57875" lon="6.71877">
        <ele>465</ele>
        <time>2015-11-01T09:26:39.000Z</time>
      </trkpt>
      <trkpt lat="47.57878" lon="6.71881">
        <ele>465</ele>
        <time>2015-11-01T09:26:40.000Z</time>
      </trkpt>
      <trkpt lat="47.57881" lon="6.71884">
        <ele>465</ele>
        <time>2015-11-01T09:26:41.000Z</time>
      </trkpt>
      <trkpt lat="47.57883" lon="6.71888">
        <ele>466</ele>
        <time>2015-11-01T09:26:42.000Z</time>
      </trkpt>
      <trkpt lat="47.57886" lon="6.71892">
        <ele>466</ele>
        <time>2015-11-01T09:26:43.000Z</time>
      </trkpt>
      <trkpt lat="47.57889" lon="6.71896">
        <ele>466</ele>
        <time>2015-11-01T09:26:45.000Z</time>
      </trkpt>
      <trkpt lat="47.5789" lon="6.71897">
        <ele>466</ele>
        <time>2015-11-01T09:26:46.000Z</time>
      </trkpt>
      <trkpt lat="47.57891" lon="6.71901">
        <ele>467</ele>
        <time>2015-11-01T09:26:48.000Z</time>
      </trkpt>
      <trkpt lat="47.57893" lon="6.71903">
        <ele>467</ele>
        <time>2015-11-01T09:26:49.000Z</time>
      </trkpt>
      <trkpt lat="47.57894" lon="6.71906">
        <ele>467</ele>
        <time>2015-11-01T09:26:50.000Z</time>
      </trkpt>
      <trkpt lat="47.57896" lon="6.71908">
        <ele>467</ele>
        <time>2015-11-01T09:26:51.000Z</time>
      </trkpt>
      <trkpt lat="47.57899" lon="6.71912">
        <ele>468</ele>
        <time>2015-11-01T09:26:53.000Z</time>
      </trkpt>
      <trkpt lat="47.579" lon="6.71913">
        <ele>468</ele>
        <time>2015-11-01T09:26:54.000Z</time>
      </trkpt>
      <trkpt lat="47.57904" lon="6.71912">
        <ele>468</ele>
        <time>2015-11-01T09:26:58.000Z</time>
      </trkpt>
      <trkpt lat="47.57905" lon="6.71912">
        <ele>469</ele>
        <time>2015-11-01T09:26:59.000Z</time>
      </trkpt>
      <trkpt lat="47.57909" lon="6.71909">
        <ele>469</ele>
        <time>2015-11-01T09:27:02.000Z</time>
      </trkpt>
      <trkpt lat="47.5791" lon="6.71908">
        <ele>469</ele>
        <time>2015-11-01T09:27:03.000Z</time>
      </trkpt>
      <trkpt lat="47.57913" lon="6.71905">
        <ele>469</ele>
        <time>2015-11-01T09:27:06.000Z</time>
      </trkpt>
      <trkpt lat="47.57915" lon="6.71905">
        <ele>469</ele>
        <time>2015-11-01T09:27:07.000Z</time>
      </trkpt>
      <trkpt lat="47.57918" lon="6.71901">
        <ele>473</ele>
        <time>2015-11-01T09:27:10.000Z</time>
      </trkpt>
      <trkpt lat="47.5792" lon="6.719">
        <ele>474</ele>
        <time>2015-11-01T09:27:11.000Z</time>
      </trkpt>
      <trkpt lat="47.57923" lon="6.71897">
        <ele>474</ele>
        <time>2015-11-01T09:27:13.000Z</time>
      </trkpt>
      <trkpt lat="47.57924" lon="6.71897">
        <ele>474</ele>
        <time>2015-11-01T09:27:14.000Z</time>
      </trkpt>
      <trkpt lat="47.57928" lon="6.71895">
        <ele>474</ele>
        <time>2015-11-01T09:27:17.000Z</time>
      </trkpt>
      <trkpt lat="47.57929" lon="6.71894">
        <ele>474</ele>
        <time>2015-11-01T09:27:18.000Z</time>
      </trkpt>
      <trkpt lat="47.57932" lon="6.7189">
        <ele>475</ele>
        <time>2015-11-01T09:27:22.000Z</time>
      </trkpt>
      <trkpt lat="47.57933" lon="6.7189">
        <ele>475</ele>
        <time>2015-11-01T09:27:23.000Z</time>
      </trkpt>
      <trkpt lat="47.57934" lon="6.71884">
        <ele>475</ele>
        <time>2015-11-01T09:27:26.000Z</time>
      </trkpt>
      <trkpt lat="47.57935" lon="6.71882">
        <ele>475</ele>
        <time>2015-11-01T09:27:27.000Z</time>
      </trkpt>
      <trkpt lat="47.57937" lon="6.71877">
        <ele>475</ele>
        <time>2015-11-01T09:27:29.000Z</time>
      </trkpt>
      <trkpt lat="47.57939" lon="6.71876">
        <ele>475</ele>
        <time>2015-11-01T09:27:30.000Z</time>
      </trkpt>
      <trkpt lat="47.57942" lon="6.71873">
        <ele>475</ele>
        <time>2015-11-01T09:27:32.000Z</time>
      </trkpt>
      <trkpt lat="47.57943" lon="6.71873">
        <ele>475</ele>
        <time>2015-11-01T09:27:33.000Z</time>
      </trkpt>
      <trkpt lat="47.57947" lon="6.7187">
        <ele>476</ele>
        <time>2015-11-01T09:27:36.000Z</time>
      </trkpt>
      <trkpt lat="47.57949" lon="6.7187">
        <ele>476</ele>
        <time>2015-11-01T09:27:37.000Z</time>
      </trkpt>
      <trkpt lat="47.57952" lon="6.71868">
        <ele>476</ele>
        <time>2015-11-01T09:27:39.000Z</time>
      </trkpt>
      <trkpt lat="47.57953" lon="6.71867">
        <ele>476</ele>
        <time>2015-11-01T09:27:40.000Z</time>
      </trkpt>
      <trkpt lat="47.57957" lon="6.71865">
        <ele>476</ele>
        <time>2015-11-01T09:27:43.000Z</time>
      </trkpt>
      <trkpt lat="47.57958" lon="6.71865">
        <ele>476</ele>
        <time>2015-11-01T09:27:44.000Z</time>
      </trkpt>
      <trkpt lat="47.57961" lon="6.71862">
        <ele>477</ele>
        <time>2015-11-01T09:27:46.000Z</time>
      </trkpt>
      <trkpt lat="47.57963" lon="6.71861">
        <ele>477</ele>
        <time>2015-11-01T09:27:47.000Z</time>
      </trkpt>
      <trkpt lat="47.57966" lon="6.71858">
        <ele>477</ele>
        <time>2015-11-01T09:27:49.000Z</time>
      </trkpt>
      <trkpt lat="47.57968" lon="6.71857">
        <ele>477</ele>
        <time>2015-11-01T09:27:50.000Z</time>
      </trkpt>
      <trkpt lat="47.5797" lon="6.71854">
        <ele>477</ele>
        <time>2015-11-01T09:27:52.000Z</time>
      </trkpt>
      <trkpt lat="47.57971" lon="6.71853">
        <ele>477</ele>
        <time>2015-11-01T09:27:53.000Z</time>
      </trkpt>
      <trkpt lat="47.57974" lon="6.71848">
        <ele>478</ele>
        <time>2015-11-01T09:27:56.000Z</time>
      </trkpt>
      <trkpt lat="47.57976" lon="6.71846">
        <ele>478</ele>
        <time>2015-11-01T09:27:57.000Z</time>
      </trkpt>
      <trkpt lat="47.57979" lon="6.71844">
        <ele>478</ele>
        <time>2015-11-01T09:27:59.000Z</time>
      </trkpt>
      <trkpt lat="47.57981" lon="6.71842">
        <ele>478</ele>
        <time>2015-11-01T09:28:00.000Z</time>
      </trkpt>
      <trkpt lat="47.57985" lon="6.7184">
        <ele>479</ele>
        <time>2015-11-01T09:28:02.000Z</time>
      </trkpt>
      <trkpt lat="47.57986" lon="6.71839">
        <ele>479</ele>
        <time>2015-11-01T09:28:03.000Z</time>
      </trkpt>
      <trkpt lat="47.57989" lon="6.71836">
        <ele>479</ele>
        <time>2015-11-01T09:28:05.000Z</time>
      </trkpt>
      <trkpt lat="47.5799" lon="6.71835">
        <ele>480</ele>
        <time>2015-11-01T09:28:06.000Z</time>
      </trkpt>
      <trkpt lat="47.57993" lon="6.71832">
        <ele>479</ele>
        <time>2015-11-01T09:28:08.000Z</time>
      </trkpt>
      <trkpt lat="47.57995" lon="6.71831">
        <ele>480</ele>
        <time>2015-11-01T09:28:09.000Z</time>
      </trkpt>
      <trkpt lat="47.57998" lon="6.71829">
        <ele>480</ele>
        <time>2015-11-01T09:28:11.000Z</time>
      </trkpt>
      <trkpt lat="47.57999" lon="6.71828">
        <ele>480</ele>
        <time>2015-11-01T09:28:12.000Z</time>
      </trkpt>
      <trkpt lat="47.58002" lon="6.71827">
        <ele>482</ele>
        <time>2015-11-01T09:28:14.000Z</time>
      </trkpt>
      <trkpt lat="47.58003" lon="6.71826">
        <ele>483</ele>
        <time>2015-11-01T09:28:15.000Z</time>
      </trkpt>
      <trkpt lat="47.58006" lon="6.71824">
        <ele>483</ele>
        <time>2015-11-01T09:28:17.000Z</time>
      </trkpt>
      <trkpt lat="47.58008" lon="6.71823">
        <ele>483</ele>
        <time>2015-11-01T09:28:18.000Z</time>
      </trkpt>
      <trkpt lat="47.58012" lon="6.71823">
        <ele>484</ele>
        <time>2015-11-01T09:28:20.000Z</time>
      </trkpt>
      <trkpt lat="47.58014" lon="6.71823">
        <ele>484</ele>
        <time>2015-11-01T09:28:21.000Z</time>
      </trkpt>
      <trkpt lat="47.58016" lon="6.71818">
        <ele>485</ele>
        <time>2015-11-01T09:28:24.000Z</time>
      </trkpt>
      <trkpt lat="47.58016" lon="6.71816">
        <ele>485</ele>
        <time>2015-11-01T09:28:25.000Z</time>
      </trkpt>
      <trkpt lat="47.58019" lon="6.71812">
        <ele>485</ele>
        <time>2015-11-01T09:28:28.000Z</time>
      </trkpt>
      <trkpt lat="47.58021" lon="6.71811">
        <ele>485</ele>
        <time>2015-11-01T09:28:29.000Z</time>
      </trkpt>
      <trkpt lat="47.58024" lon="6.7181">
        <ele>486</ele>
        <time>2015-11-01T09:28:32.000Z</time>
      </trkpt>
      <trkpt lat="47.58025" lon="6.71808">
        <ele>486</ele>
        <time>2015-11-01T09:28:33.000Z</time>
      </trkpt>
      <trkpt lat="47.58029" lon="6.71805">
        <ele>486</ele>
        <time>2015-11-01T09:28:36.000Z</time>
      </trkpt>
      <trkpt lat="47.5803" lon="6.71804">
        <ele>486</ele>
        <time>2015-11-01T09:28:37.000Z</time>
      </trkpt>
      <trkpt lat="47.58034" lon="6.71801">
        <ele>486</ele>
        <time>2015-11-01T09:28:40.000Z</time>
      </trkpt>
      <trkpt lat="47.58035" lon="6.71801">
        <ele>487</ele>
        <time>2015-11-01T09:28:41.000Z</time>
      </trkpt>
      <trkpt lat="47.58038" lon="6.71798">
        <ele>487</ele>
        <time>2015-11-01T09:28:44.000Z</time>
      </trkpt>
      <trkpt lat="47.58039" lon="6.71796">
        <ele>487</ele>
        <time>2015-11-01T09:28:45.000Z</time>
      </trkpt>
      <trkpt lat="47.58042" lon="6.71792">
        <ele>487</ele>
        <time>2015-11-01T09:28:47.000Z</time>
      </trkpt>
      <trkpt lat="47.58045" lon="6.7179">
        <ele>487</ele>
        <time>2015-11-01T09:28:48.000Z</time>
      </trkpt>
      <trkpt lat="47.58047" lon="6.71789">
        <ele>487</ele>
        <time>2015-11-01T09:28:49.000Z</time>
      </trkpt>
      <trkpt lat="47.5805" lon="6.71788">
        <ele>488</ele>
        <time>2015-11-01T09:28:50.000Z</time>
      </trkpt>
      <trkpt lat="47.58054" lon="6.71786">
        <ele>488</ele>
        <time>2015-11-01T09:28:52.000Z</time>
      </trkpt>
      <trkpt lat="47.58055" lon="6.71784">
        <ele>488</ele>
        <time>2015-11-01T09:28:53.000Z</time>
      </trkpt>
      <trkpt lat="47.58057" lon="6.7178">
        <ele>488</ele>
        <time>2015-11-01T09:28:55.000Z</time>
      </trkpt>
      <trkpt lat="47.58059" lon="6.71778">
        <ele>488</ele>
        <time>2015-11-01T09:28:56.000Z</time>
      </trkpt>
      <trkpt lat="47.58062" lon="6.71776">
        <ele>488</ele>
        <time>2015-11-01T09:28:58.000Z</time>
      </trkpt>
      <trkpt lat="47.58063" lon="6.71775">
        <ele>489</ele>
        <time>2015-11-01T09:28:59.000Z</time>
      </trkpt>
      <trkpt lat="47.58066" lon="6.71772">
        <ele>489</ele>
        <time>2015-11-01T09:29:01.000Z</time>
      </trkpt>
      <trkpt lat="47.58068" lon="6.71771">
        <ele>489</ele>
        <time>2015-11-01T09:29:02.000Z</time>
      </trkpt>
      <trkpt lat="47.58071" lon="6.7177">
        <ele>489</ele>
        <time>2015-11-01T09:29:04.000Z</time>
      </trkpt>
      <trkpt lat="47.58073" lon="6.7177">
        <ele>489</ele>
        <time>2015-11-01T09:29:05.000Z</time>
      </trkpt>
      <trkpt lat="47.58077" lon="6.71768">
        <ele>490</ele>
        <time>2015-11-01T09:29:07.000Z</time>
      </trkpt>
      <trkpt lat="47.58079" lon="6.71767">
        <ele>490</ele>
        <time>2015-11-01T09:29:08.000Z</time>
      </trkpt>
      <trkpt lat="47.58082" lon="6.71764">
        <ele>490</ele>
        <time>2015-11-01T09:29:10.000Z</time>
      </trkpt>
      <trkpt lat="47.58083" lon="6.71763">
        <ele>490</ele>
        <time>2015-11-01T09:29:11.000Z</time>
      </trkpt>
      <trkpt lat="47.58086" lon="6.71759">
        <ele>492</ele>
        <time>2015-11-01T09:29:13.000Z</time>
      </trkpt>
      <trkpt lat="47.58087" lon="6.71758">
        <ele>492</ele>
        <time>2015-11-01T09:29:14.000Z</time>
      </trkpt>
      <trkpt lat="47.5809" lon="6.71755">
        <ele>492</ele>
        <time>2015-11-01T09:29:16.000Z</time>
      </trkpt>
      <trkpt lat="47.58092" lon="6.71754">
        <ele>492</ele>
        <time>2015-11-01T09:29:17.000Z</time>
      </trkpt>
      <trkpt lat="47.58094" lon="6.71752">
        <ele>492</ele>
        <time>2015-11-01T09:29:19.000Z</time>
      </trkpt>
      <trkpt lat="47.58096" lon="6.71751">
        <ele>491</ele>
        <time>2015-11-01T09:29:20.000Z</time>
      </trkpt>
      <trkpt lat="47.58098" lon="6.71748">
        <ele>486</ele>
        <time>2015-11-01T09:29:22.000Z</time>
      </trkpt>
      <trkpt lat="47.581" lon="6.71747">
        <ele>486</ele>
        <time>2015-11-01T09:29:23.000Z</time>
      </trkpt>
      <trkpt lat="47.58103" lon="6.71745">
        <ele>485</ele>
        <time>2015-11-01T09:29:25.000Z</time>
      </trkpt>
      <trkpt lat="47.58105" lon="6.71745">
        <ele>484</ele>
        <time>2015-11-01T09:29:26.000Z</time>
      </trkpt>
      <trkpt lat="47.58109" lon="6.71746">
        <ele>484</ele>
        <time>2015-11-01T09:29:29.000Z</time>
      </trkpt>
      <trkpt lat="47.5811" lon="6.71746">
        <ele>484</ele>
        <time>2015-11-01T09:29:30.000Z</time>
      </trkpt>
      <trkpt lat="47.58113" lon="6.71742">
        <ele>483</ele>
        <time>2015-11-01T09:29:44.000Z</time>
      </trkpt>
      <trkpt lat="47.58113" lon="6.71742">
        <ele>483</ele>
        <time>2015-11-01T09:29:45.000Z</time>
      </trkpt>
      <trkpt lat="47.58116" lon="6.71746">
        <ele>483</ele>
        <time>2015-11-01T09:36:32.000Z</time>
      </trkpt>
      <trkpt lat="47.58117" lon="6.71747">
        <ele>483</ele>
        <time>2015-11-01T09:36:33.000Z</time>
      </trkpt>
      <trkpt lat="47.5812" lon="6.71751">
        <ele>490</ele>
        <time>2015-11-01T09:36:48.000Z</time>
      </trkpt>
      <trkpt lat="47.5812" lon="6.71752">
        <ele>490</ele>
        <time>2015-11-01T09:36:49.000Z</time>
      </trkpt>
      <trkpt lat="47.58124" lon="6.71755">
        <ele>490</ele>
        <time>2015-11-01T09:36:53.000Z</time>
      </trkpt>
      <trkpt lat="47.58126" lon="6.71756">
        <ele>490</ele>
        <time>2015-11-01T09:36:54.000Z</time>
      </trkpt>
      <trkpt lat="47.58129" lon="6.7176">
        <ele>490</ele>
        <time>2015-11-01T09:36:56.000Z</time>
      </trkpt>
      <trkpt lat="47.58131" lon="6.71762">
        <ele>489</ele>
        <time>2015-11-01T09:36:57.000Z</time>
      </trkpt>
      <trkpt lat="47.58134" lon="6.71764">
        <ele>489</ele>
        <time>2015-11-01T09:36:59.000Z</time>
      </trkpt>
      <trkpt lat="47.58135" lon="6.71765">
        <ele>489</ele>
        <time>2015-11-01T09:37:00.000Z</time>
      </trkpt>
      <trkpt lat="47.58139" lon="6.71768">
        <ele>489</ele>
        <time>2015-11-01T09:37:03.000Z</time>
      </trkpt>
      <trkpt lat="47.5814" lon="6.7177">
        <ele>489</ele>
        <time>2015-11-01T09:37:04.000Z</time>
      </trkpt>
      <trkpt lat="47.58143" lon="6.71772">
        <ele>489</ele>
        <time>2015-11-01T09:37:06.000Z</time>
      </trkpt>
      <trkpt lat="47.58145" lon="6.71774">
        <ele>489</ele>
        <time>2015-11-01T09:37:07.000Z</time>
      </trkpt>
      <trkpt lat="47.58148" lon="6.71777">
        <ele>489</ele>
        <time>2015-11-01T09:37:09.000Z</time>
      </trkpt>
      <trkpt lat="47.58149" lon="6.71779">
        <ele>489</ele>
        <time>2015-11-01T09:37:10.000Z</time>
      </trkpt>
      <trkpt lat="47.58152" lon="6.71782">
        <ele>489</ele>
        <time>2015-11-01T09:37:12.000Z</time>
      </trkpt>
      <trkpt lat="47.58153" lon="6.71783">
        <ele>490</ele>
        <time>2015-11-01T09:37:13.000Z</time>
      </trkpt>
      <trkpt lat="47.58156" lon="6.71788">
        <ele>490</ele>
        <time>2015-11-01T09:37:17.000Z</time>
      </trkpt>
      <trkpt lat="47.58156" lon="6.7179">
        <ele>490</ele>
        <time>2015-11-01T09:37:18.000Z</time>
      </trkpt>
      <trkpt lat="47.58158" lon="6.71796">
        <ele>491</ele>
        <time>2015-11-01T09:37:20.000Z</time>
      </trkpt>
      <trkpt lat="47.58159" lon="6.71798">
        <ele>491</ele>
        <time>2015-11-01T09:37:21.000Z</time>
      </trkpt>
      <trkpt lat="47.58161" lon="6.71802">
        <ele>491</ele>
        <time>2015-11-01T09:37:23.000Z</time>
      </trkpt>
      <trkpt lat="47.58162" lon="6.71804">
        <ele>491</ele>
        <time>2015-11-01T09:37:24.000Z</time>
      </trkpt>
      <trkpt lat="47.58163" lon="6.71808">
        <ele>492</ele>
        <time>2015-11-01T09:37:26.000Z</time>
      </trkpt>
      <trkpt lat="47.58164" lon="6.71811">
        <ele>492</ele>
        <time>2015-11-01T09:37:27.000Z</time>
      </trkpt>
      <trkpt lat="47.58165" lon="6.71815">
        <ele>493</ele>
        <time>2015-11-01T09:37:28.000Z</time>
      </trkpt>
      <trkpt lat="47.58166" lon="6.71817">
        <ele>493</ele>
        <time>2015-11-01T09:37:29.000Z</time>
      </trkpt>
      <trkpt lat="47.58167" lon="6.71821">
        <ele>487</ele>
        <time>2015-11-01T09:37:30.000Z</time>
      </trkpt>
      <trkpt lat="47.58169" lon="6.71824">
        <ele>489</ele>
        <time>2015-11-01T09:37:31.000Z</time>
      </trkpt>
      <trkpt lat="47.5817" lon="6.71827">
        <ele>490</ele>
        <time>2015-11-01T09:37:32.000Z</time>
      </trkpt>
      <trkpt lat="47.58171" lon="6.71829">
        <ele>491</ele>
        <time>2015-11-01T09:37:33.000Z</time>
      </trkpt>
      <trkpt lat="47.58173" lon="6.71834">
        <ele>493</ele>
        <time>2015-11-01T09:37:35.000Z</time>
      </trkpt>
      <trkpt lat="47.58174" lon="6.71835">
        <ele>493</ele>
        <time>2015-11-01T09:37:36.000Z</time>
      </trkpt>
      <trkpt lat="47.58176" lon="6.71838">
        <ele>493</ele>
        <time>2015-11-01T09:37:37.000Z</time>
      </trkpt>
      <trkpt lat="47.58178" lon="6.7184">
        <ele>492</ele>
        <time>2015-11-01T09:37:38.000Z</time>
      </trkpt>
      <trkpt lat="47.58179" lon="6.71843">
        <ele>492</ele>
        <time>2015-11-01T09:37:39.000Z</time>
      </trkpt>
      <trkpt lat="47.58181" lon="6.71845">
        <ele>491</ele>
        <time>2015-11-01T09:37:40.000Z</time>
      </trkpt>
      <trkpt lat="47.58182" lon="6.71848">
        <ele>491</ele>
        <time>2015-11-01T09:37:41.000Z</time>
      </trkpt>
      <trkpt lat="47.58184" lon="6.71851">
        <ele>491</ele>
        <time>2015-11-01T09:37:42.000Z</time>
      </trkpt>
      <trkpt lat="47.58185" lon="6.71854">
        <ele>490</ele>
        <time>2015-11-01T09:37:43.000Z</time>
      </trkpt>
      <trkpt lat="47.58187" lon="6.71856">
        <ele>490</ele>
        <time>2015-11-01T09:37:44.000Z</time>
      </trkpt>
      <trkpt lat="47.58189" lon="6.71859">
        <ele>490</ele>
        <time>2015-11-01T09:37:45.000Z</time>
      </trkpt>
      <trkpt lat="47.5819" lon="6.71862">
        <ele>490</ele>
        <time>2015-11-01T09:37:46.000Z</time>
      </trkpt>
      <trkpt lat="47.58192" lon="6.71867">
        <ele>490</ele>
        <time>2015-11-01T09:37:48.000Z</time>
      </trkpt>
      <trkpt lat="47.58193" lon="6.71868">
        <ele>490</ele>
        <time>2015-11-01T09:37:49.000Z</time>
      </trkpt>
      <trkpt lat="47.58195" lon="6.71873">
        <ele>490</ele>
        <time>2015-11-01T09:38:00.000Z</time>
      </trkpt>
      <trkpt lat="47.58195" lon="6.71874">
        <ele>490</ele>
        <time>2015-11-01T09:38:01.000Z</time>
      </trkpt>
      <trkpt lat="47.58196" lon="6.71881">
        <ele>490</ele>
        <time>2015-11-01T09:38:04.000Z</time>
      </trkpt>
      <trkpt lat="47.58197" lon="6.71882">
        <ele>490</ele>
        <time>2015-11-01T09:38:05.000Z</time>
      </trkpt>
      <trkpt lat="47.58199" lon="6.71885">
        <ele>490</ele>
        <time>2015-11-01T09:38:07.000Z</time>
      </trkpt>
      <trkpt lat="47.582" lon="6.71887">
        <ele>490</ele>
        <time>2015-11-01T09:38:08.000Z</time>
      </trkpt>
      <trkpt lat="47.58203" lon="6.71891">
        <ele>490</ele>
        <time>2015-11-01T09:38:10.000Z</time>
      </trkpt>
      <trkpt lat="47.58205" lon="6.71894">
        <ele>490</ele>
        <time>2015-11-01T09:38:11.000Z</time>
      </trkpt>
      <trkpt lat="47.58207" lon="6.71898">
        <ele>490</ele>
        <time>2015-11-01T09:38:12.000Z</time>
      </trkpt>
      <trkpt lat="47.58208" lon="6.71903">
        <ele>490</ele>
        <time>2015-11-01T09:38:13.000Z</time>
      </trkpt>
      <trkpt lat="47.5821" lon="6.71907">
        <ele>490</ele>
        <time>2015-11-01T09:38:14.000Z</time>
      </trkpt>
      <trkpt lat="47.58212" lon="6.7191">
        <ele>490</ele>
        <time>2015-11-01T09:38:15.000Z</time>
      </trkpt>
      <trkpt lat="47.58213" lon="6.71912">
        <ele>490</ele>
        <time>2015-11-01T09:38:16.000Z</time>
      </trkpt>
      <trkpt lat="47.58215" lon="6.71915">
        <ele>490</ele>
        <time>2015-11-01T09:38:17.000Z</time>
      </trkpt>
      <trkpt lat="47.58217" lon="6.71918">
        <ele>495</ele>
        <time>2015-11-01T09:38:18.000Z</time>
      </trkpt>
      <trkpt lat="47.58219" lon="6.71921">
        <ele>495</ele>
        <time>2015-11-01T09:38:19.000Z</time>
      </trkpt>
      <trkpt lat="47.58221" lon="6.71925">
        <ele>495</ele>
        <time>2015-11-01T09:38:20.000Z</time>
      </trkpt>
      <trkpt lat="47.58223" lon="6.71928">
        <ele>494</ele>
        <time>2015-11-01T09:38:21.000Z</time>
      </trkpt>
      <trkpt lat="47.58225" lon="6.71931">
        <ele>494</ele>
        <time>2015-11-01T09:38:22.000Z</time>
      </trkpt>
      <trkpt lat="47.58227" lon="6.71934">
        <ele>494</ele>
        <time>2015-11-01T09:38:23.000Z</time>
      </trkpt>
      <trkpt lat="47.58229" lon="6.71937">
        <ele>494</ele>
        <time>2015-11-01T09:38:24.000Z</time>
      </trkpt>
      <trkpt lat="47.5823" lon="6.71941">
        <ele>495</ele>
        <time>2015-11-01T09:38:25.000Z</time>
      </trkpt>
      <trkpt lat="47.58232" lon="6.71944">
        <ele>495</ele>
        <time>2015-11-01T09:38:26.000Z</time>
      </trkpt>
      <trkpt lat="47.58233" lon="6.71948">
        <ele>495</ele>
        <time>2015-11-01T09:38:27.000Z</time>
      </trkpt>
      <trkpt lat="47.58234" lon="6.71952">
        <ele>495</ele>
        <time>2015-11-01T09:38:28.000Z</time>
      </trkpt>
      <trkpt lat="47.58236" lon="6.71957">
        <ele>495</ele>
        <time>2015-11-01T09:38:29.000Z</time>
      </trkpt>
      <trkpt lat="47.58239" lon="6.71962">
        <ele>496</ele>
        <time>2015-11-01T09:38:30.000Z</time>
      </trkpt>
      <trkpt lat="47.58242" lon="6.71966">
        <ele>496</ele>
        <time>2015-11-01T09:38:31.000Z</time>
      </trkpt>
      <trkpt lat="47.58245" lon="6.71969">
        <ele>496</ele>
        <time>2015-11-01T09:38:32.000Z</time>
      </trkpt>
      <trkpt lat="47.58248" lon="6.71972">
        <ele>496</ele>
        <time>2015-11-01T09:38:33.000Z</time>
      </trkpt>
      <trkpt lat="47.58251" lon="6.71975">
        <ele>486</ele>
        <time>2015-11-01T09:38:34.000Z</time>
      </trkpt>
      <trkpt lat="47.58253" lon="6.71977">
        <ele>486</ele>
        <time>2015-11-01T09:38:35.000Z</time>
      </trkpt>
      <trkpt lat="47.58255" lon="6.7198">
        <ele>487</ele>
        <time>2015-11-01T09:38:36.000Z</time>
      </trkpt>
      <trkpt lat="47.58256" lon="6.71983">
        <ele>488</ele>
        <time>2015-11-01T09:38:37.000Z</time>
      </trkpt>
      <trkpt lat="47.58259" lon="6.71987">
        <ele>489</ele>
        <time>2015-11-01T09:38:39.000Z</time>
      </trkpt>
      <trkpt lat="47.5826" lon="6.71989">
        <ele>489</ele>
        <time>2015-11-01T09:38:40.000Z</time>
      </trkpt>
      <trkpt lat="47.58263" lon="6.71993">
        <ele>489</ele>
        <time>2015-11-01T09:38:42.000Z</time>
      </trkpt>
      <trkpt lat="47.58265" lon="6.71995">
        <ele>488</ele>
        <time>2015-11-01T09:38:43.000Z</time>
      </trkpt>
      <trkpt lat="47.58267" lon="6.71997">
        <ele>487</ele>
        <time>2015-11-01T09:38:44.000Z</time>
      </trkpt>
      <trkpt lat="47.5827" lon="6.72">
        <ele>491</ele>
        <time>2015-11-01T09:38:45.000Z</time>
      </trkpt>
      <trkpt lat="47.58272" lon="6.72003">
        <ele>490</ele>
        <time>2015-11-01T09:38:46.000Z</time>
      </trkpt>
      <trkpt lat="47.58274" lon="6.72006">
        <ele>489</ele>
        <time>2015-11-01T09:38:47.000Z</time>
      </trkpt>
      <trkpt lat="47.58276" lon="6.72009">
        <ele>489</ele>
        <time>2015-11-01T09:38:48.000Z</time>
      </trkpt>
      <trkpt lat="47.58278" lon="6.72012">
        <ele>488</ele>
        <time>2015-11-01T09:38:49.000Z</time>
      </trkpt>
      <trkpt lat="47.58281" lon="6.72016">
        <ele>488</ele>
        <time>2015-11-01T09:38:50.000Z</time>
      </trkpt>
      <trkpt lat="47.58283" lon="6.7202">
        <ele>487</ele>
        <time>2015-11-01T09:38:51.000Z</time>
      </trkpt>
      <trkpt lat="47.58285" lon="6.72025">
        <ele>487</ele>
        <time>2015-11-01T09:38:52.000Z</time>
      </trkpt>
      <trkpt lat="47.58286" lon="6.7203">
        <ele>487</ele>
        <time>2015-11-01T09:38:53.000Z</time>
      </trkpt>
      <trkpt lat="47.58287" lon="6.72035">
        <ele>487</ele>
        <time>2015-11-01T09:38:54.000Z</time>
      </trkpt>
      <trkpt lat="47.58287" lon="6.7204">
        <ele>487</ele>
        <time>2015-11-01T09:38:55.000Z</time>
      </trkpt>
      <trkpt lat="47.58288" lon="6.72045">
        <ele>487</ele>
        <time>2015-11-01T09:38:56.000Z</time>
      </trkpt>
      <trkpt lat="47.58288" lon="6.7205">
        <ele>487</ele>
        <time>2015-11-01T09:38:57.000Z</time>
      </trkpt>
      <trkpt lat="47.58289" lon="6.72056">
        <ele>487</ele>
        <time>2015-11-01T09:38:58.000Z</time>
      </trkpt>
      <trkpt lat="47.5829" lon="6.72061">
        <ele>487</ele>
        <time>2015-11-01T09:38:59.000Z</time>
      </trkpt>
      <trkpt lat="47.58292" lon="6.72066">
        <ele>487</ele>
        <time>2015-11-01T09:39:00.000Z</time>
      </trkpt>
      <trkpt lat="47.58294" lon="6.72071">
        <ele>487</ele>
        <time>2015-11-01T09:39:01.000Z</time>
      </trkpt>
      <trkpt lat="47.58296" lon="6.72076">
        <ele>486</ele>
        <time>2015-11-01T09:39:02.000Z</time>
      </trkpt>
      <trkpt lat="47.58297" lon="6.72082">
        <ele>486</ele>
        <time>2015-11-01T09:39:03.000Z</time>
      </trkpt>
      <trkpt lat="47.58299" lon="6.72088">
        <ele>487</ele>
        <time>2015-11-01T09:39:04.000Z</time>
      </trkpt>
      <trkpt lat="47.583" lon="6.72095">
        <ele>487</ele>
        <time>2015-11-01T09:39:05.000Z</time>
      </trkpt>
      <trkpt lat="47.583" lon="6.72102">
        <ele>487</ele>
        <time>2015-11-01T09:39:06.000Z</time>
      </trkpt>
      <trkpt lat="47.58301" lon="6.72109">
        <ele>487</ele>
        <time>2015-11-01T09:39:07.000Z</time>
      </trkpt>
      <trkpt lat="47.58301" lon="6.72116">
        <ele>487</ele>
        <time>2015-11-01T09:39:08.000Z</time>
      </trkpt>
      <trkpt lat="47.58302" lon="6.72122">
        <ele>487</ele>
        <time>2015-11-01T09:39:09.000Z</time>
      </trkpt>
      <trkpt lat="47.58303" lon="6.72127">
        <ele>487</ele>
        <time>2015-11-01T09:39:10.000Z</time>
      </trkpt>
      <trkpt lat="47.58305" lon="6.72131">
        <ele>487</ele>
        <time>2015-11-01T09:39:11.000Z</time>
      </trkpt>
      <trkpt lat="47.58308" lon="6.72134">
        <ele>486</ele>
        <time>2015-11-01T09:39:12.000Z</time>
      </trkpt>
      <trkpt lat="47.58311" lon="6.72137">
        <ele>486</ele>
        <time>2015-11-01T09:39:13.000Z</time>
      </trkpt>
      <trkpt lat="47.58314" lon="6.72141">
        <ele>486</ele>
        <time>2015-11-01T09:39:14.000Z</time>
      </trkpt>
      <trkpt lat="47.58317" lon="6.72144">
        <ele>486</ele>
        <time>2015-11-01T09:39:15.000Z</time>
      </trkpt>
      <trkpt lat="47.58319" lon="6.72148">
        <ele>486</ele>
        <time>2015-11-01T09:39:16.000Z</time>
      </trkpt>
      <trkpt lat="47.58322" lon="6.72152">
        <ele>486</ele>
        <time>2015-11-01T09:39:17.000Z</time>
      </trkpt>
      <trkpt lat="47.58323" lon="6.72157">
        <ele>486</ele>
        <time>2015-11-01T09:39:18.000Z</time>
      </trkpt>
      <trkpt lat="47.58325" lon="6.72163">
        <ele>486</ele>
        <time>2015-11-01T09:39:19.000Z</time>
      </trkpt>
      <trkpt lat="47.58327" lon="6.72168">
        <ele>484</ele>
        <time>2015-11-01T09:39:20.000Z</time>
      </trkpt>
      <trkpt lat="47.58329" lon="6.72173">
        <ele>484</ele>
        <time>2015-11-01T09:39:21.000Z</time>
      </trkpt>
      <trkpt lat="47.58331" lon="6.72176">
        <ele>484</ele>
        <time>2015-11-01T09:39:22.000Z</time>
      </trkpt>
      <trkpt lat="47.58333" lon="6.7218">
        <ele>484</ele>
        <time>2015-11-01T09:39:23.000Z</time>
      </trkpt>
      <trkpt lat="47.58335" lon="6.72184">
        <ele>476</ele>
        <time>2015-11-01T09:39:24.000Z</time>
      </trkpt>
      <trkpt lat="47.58335" lon="6.72189">
        <ele>474</ele>
        <time>2015-11-01T09:39:25.000Z</time>
      </trkpt>
      <trkpt lat="47.58335" lon="6.72206">
        <ele>471</ele>
        <time>2015-11-01T09:39:26.000Z</time>
      </trkpt>
      <trkpt lat="47.58337" lon="6.72212">
        <ele>471</ele>
        <time>2015-11-01T09:39:27.000Z</time>
      </trkpt>
      <trkpt lat="47.58338" lon="6.72218">
        <ele>471</ele>
        <time>2015-11-01T09:39:28.000Z</time>
      </trkpt>
      <trkpt lat="47.58339" lon="6.72225">
        <ele>472</ele>
        <time>2015-11-01T09:39:29.000Z</time>
      </trkpt>
      <trkpt lat="47.5834" lon="6.72232">
        <ele>473</ele>
        <time>2015-11-01T09:39:30.000Z</time>
      </trkpt>
      <trkpt lat="47.58341" lon="6.7224">
        <ele>474</ele>
        <time>2015-11-01T09:39:31.000Z</time>
      </trkpt>
      <trkpt lat="47.58336" lon="6.72248">
        <ele>479</ele>
        <time>2015-11-01T09:39:32.000Z</time>
      </trkpt>
      <trkpt lat="47.58336" lon="6.72254">
        <ele>477</ele>
        <time>2015-11-01T09:39:33.000Z</time>
      </trkpt>
      <trkpt lat="47.58336" lon="6.7226">
        <ele>473</ele>
        <time>2015-11-01T09:39:34.000Z</time>
      </trkpt>
      <trkpt lat="47.58338" lon="6.72265">
        <ele>470</ele>
        <time>2015-11-01T09:39:35.000Z</time>
      </trkpt>
      <trkpt lat="47.5834" lon="6.72273">
        <ele>467</ele>
        <time>2015-11-01T09:39:36.000Z</time>
      </trkpt>
      <trkpt lat="47.58343" lon="6.7228">
        <ele>465</ele>
        <time>2015-11-01T09:39:37.000Z</time>
      </trkpt>
      <trkpt lat="47.58345" lon="6.72288">
        <ele>464</ele>
        <time>2015-11-01T09:39:38.000Z</time>
      </trkpt>
      <trkpt lat="47.58346" lon="6.72294">
        <ele>463</ele>
        <time>2015-11-01T09:39:39.000Z</time>
      </trkpt>
      <trkpt lat="47.58346" lon="6.72302">
        <ele>463</ele>
        <time>2015-11-01T09:39:40.000Z</time>
      </trkpt>
      <trkpt lat="47.58342" lon="6.72312">
        <ele>464</ele>
        <time>2015-11-01T09:39:41.000Z</time>
      </trkpt>
      <trkpt lat="47.58342" lon="6.72321">
        <ele>465</ele>
        <time>2015-11-01T09:39:42.000Z</time>
      </trkpt>
      <trkpt lat="47.58341" lon="6.72327">
        <ele>467</ele>
        <time>2015-11-01T09:39:43.000Z</time>
      </trkpt>
      <trkpt lat="47.5834" lon="6.72337">
        <ele>466</ele>
        <time>2015-11-01T09:39:44.000Z</time>
      </trkpt>
      <trkpt lat="47.58339" lon="6.72342">
        <ele>464</ele>
        <time>2015-11-01T09:39:45.000Z</time>
      </trkpt>
      <trkpt lat="47.58337" lon="6.72348">
        <ele>462</ele>
        <time>2015-11-01T09:39:46.000Z</time>
      </trkpt>
      <trkpt lat="47.5833" lon="6.72349">
        <ele>471</ele>
        <time>2015-11-01T09:39:47.000Z</time>
      </trkpt>
      <trkpt lat="47.58327" lon="6.72355">
        <ele>470</ele>
        <time>2015-11-01T09:39:48.000Z</time>
      </trkpt>
      <trkpt lat="47.58323" lon="6.72358">
        <ele>470</ele>
        <time>2015-11-01T09:39:49.000Z</time>
      </trkpt>
      <trkpt lat="47.5832" lon="6.72361">
        <ele>470</ele>
        <time>2015-11-01T09:39:50.000Z</time>
      </trkpt>
      <trkpt lat="47.58316" lon="6.72364">
        <ele>470</ele>
        <time>2015-11-01T09:39:51.000Z</time>
      </trkpt>
      <trkpt lat="47.58313" lon="6.72368">
        <ele>470</ele>
        <time>2015-11-01T09:39:52.000Z</time>
      </trkpt>
      <trkpt lat="47.58311" lon="6.72373">
        <ele>469</ele>
        <time>2015-11-01T09:39:53.000Z</time>
      </trkpt>
      <trkpt lat="47.58309" lon="6.72376">
        <ele>469</ele>
        <time>2015-11-01T09:39:54.000Z</time>
      </trkpt>
      <trkpt lat="47.58308" lon="6.7238">
        <ele>469</ele>
        <time>2015-11-01T09:39:55.000Z</time>
      </trkpt>
      <trkpt lat="47.58308" lon="6.72384">
        <ele>469</ele>
        <time>2015-11-01T09:39:56.000Z</time>
      </trkpt>
      <trkpt lat="47.58309" lon="6.72388">
        <ele>469</ele>
        <time>2015-11-01T09:39:57.000Z</time>
      </trkpt>
      <trkpt lat="47.5831" lon="6.72394">
        <ele>469</ele>
        <time>2015-11-01T09:39:58.000Z</time>
      </trkpt>
      <trkpt lat="47.58311" lon="6.724">
        <ele>468</ele>
        <time>2015-11-01T09:39:59.000Z</time>
      </trkpt>
      <trkpt lat="47.58317" lon="6.72416">
        <ele>468</ele>
        <time>2015-11-01T09:40:00.000Z</time>
      </trkpt>
      <trkpt lat="47.58319" lon="6.72422">
        <ele>466</ele>
        <time>2015-11-01T09:40:01.000Z</time>
      </trkpt>
      <trkpt lat="47.58326" lon="6.72427">
        <ele>466</ele>
        <time>2015-11-01T09:40:02.000Z</time>
      </trkpt>
      <trkpt lat="47.58329" lon="6.72435">
        <ele>466</ele>
        <time>2015-11-01T09:40:03.000Z</time>
      </trkpt>
      <trkpt lat="47.58332" lon="6.72446">
        <ele>466</ele>
        <time>2015-11-01T09:40:04.000Z</time>
      </trkpt>
      <trkpt lat="47.58335" lon="6.72457">
        <ele>453</ele>
        <time>2015-11-01T09:40:05.000Z</time>
      </trkpt>
      <trkpt lat="47.58336" lon="6.72469">
        <ele>453</ele>
        <time>2015-11-01T09:40:06.000Z</time>
      </trkpt>
      <trkpt lat="47.58337" lon="6.7248">
        <ele>454</ele>
        <time>2015-11-01T09:40:07.000Z</time>
      </trkpt>
      <trkpt lat="47.58339" lon="6.72492">
        <ele>457</ele>
        <time>2015-11-01T09:40:08.000Z</time>
      </trkpt>
      <trkpt lat="47.58339" lon="6.72504">
        <ele>458</ele>
        <time>2015-11-01T09:40:09.000Z</time>
      </trkpt>
      <trkpt lat="47.58338" lon="6.72516">
        <ele>453</ele>
        <time>2015-11-01T09:40:10.000Z</time>
      </trkpt>
      <trkpt lat="47.58338" lon="6.72525">
        <ele>451</ele>
        <time>2015-11-01T09:40:11.000Z</time>
      </trkpt>
      <trkpt lat="47.5834" lon="6.72532">
        <ele>449</ele>
        <time>2015-11-01T09:40:12.000Z</time>
      </trkpt>
      <trkpt lat="47.58341" lon="6.72537">
        <ele>448</ele>
        <time>2015-11-01T09:40:13.000Z</time>
      </trkpt>
      <trkpt lat="47.58341" lon="6.72544">
        <ele>448</ele>
        <time>2015-11-01T09:40:14.000Z</time>
      </trkpt>
      <trkpt lat="47.58343" lon="6.72551">
        <ele>448</ele>
        <time>2015-11-01T09:40:15.000Z</time>
      </trkpt>
      <trkpt lat="47.58342" lon="6.72557">
        <ele>448</ele>
        <time>2015-11-01T09:40:16.000Z</time>
      </trkpt>
      <trkpt lat="47.58343" lon="6.72567">
        <ele>449</ele>
        <time>2015-11-01T09:40:17.000Z</time>
      </trkpt>
      <trkpt lat="47.58344" lon="6.72573">
        <ele>450</ele>
        <time>2015-11-01T09:40:18.000Z</time>
      </trkpt>
      <trkpt lat="47.58341" lon="6.7258">
        <ele>453</ele>
        <time>2015-11-01T09:40:19.000Z</time>
      </trkpt>
      <trkpt lat="47.5834" lon="6.72587">
        <ele>451</ele>
        <time>2015-11-01T09:40:20.000Z</time>
      </trkpt>
      <trkpt lat="47.5834" lon="6.72595">
        <ele>448</ele>
        <time>2015-11-01T09:40:21.000Z</time>
      </trkpt>
      <trkpt lat="47.5834" lon="6.72601">
        <ele>446</ele>
        <time>2015-11-01T09:40:22.000Z</time>
      </trkpt>
      <trkpt lat="47.58345" lon="6.72615">
        <ele>442</ele>
        <time>2015-11-01T09:40:23.000Z</time>
      </trkpt>
      <trkpt lat="47.58345" lon="6.72624">
        <ele>441</ele>
        <time>2015-11-01T09:40:24.000Z</time>
      </trkpt>
      <trkpt lat="47.58344" lon="6.72635">
        <ele>441</ele>
        <time>2015-11-01T09:40:25.000Z</time>
      </trkpt>
      <trkpt lat="47.58344" lon="6.72644">
        <ele>442</ele>
        <time>2015-11-01T09:40:26.000Z</time>
      </trkpt>
      <trkpt lat="47.58345" lon="6.72655">
        <ele>443</ele>
        <time>2015-11-01T09:40:27.000Z</time>
      </trkpt>
      <trkpt lat="47.58346" lon="6.72667">
        <ele>441</ele>
        <time>2015-11-01T09:40:28.000Z</time>
      </trkpt>
      <trkpt lat="47.58346" lon="6.72678">
        <ele>439</ele>
        <time>2015-11-01T09:40:29.000Z</time>
      </trkpt>
      <trkpt lat="47.58344" lon="6.72689">
        <ele>437</ele>
        <time>2015-11-01T09:40:30.000Z</time>
      </trkpt>
      <trkpt lat="47.58344" lon="6.72702">
        <ele>434</ele>
        <time>2015-11-01T09:40:31.000Z</time>
      </trkpt>
      <trkpt lat="47.58343" lon="6.72714">
        <ele>433</ele>
        <time>2015-11-01T09:40:32.000Z</time>
      </trkpt>
      <trkpt lat="47.58344" lon="6.72722">
        <ele>433</ele>
        <time>2015-11-01T09:40:33.000Z</time>
      </trkpt>
      <trkpt lat="47.58346" lon="6.72733">
        <ele>434</ele>
        <time>2015-11-01T09:40:34.000Z</time>
      </trkpt>
      <trkpt lat="47.58348" lon="6.72741">
        <ele>434</ele>
        <time>2015-11-01T09:40:35.000Z</time>
      </trkpt>
      <trkpt lat="47.58349" lon="6.72751">
        <ele>432</ele>
        <time>2015-11-01T09:40:36.000Z</time>
      </trkpt>
      <trkpt lat="47.58348" lon="6.72762">
        <ele>430</ele>
        <time>2015-11-01T09:40:37.000Z</time>
      </trkpt>
      <trkpt lat="47.58348" lon="6.72774">
        <ele>428</ele>
        <time>2015-11-01T09:40:38.000Z</time>
      </trkpt>
      <trkpt lat="47.58348" lon="6.72784">
        <ele>426</ele>
        <time>2015-11-01T09:40:39.000Z</time>
      </trkpt>
      <trkpt lat="47.58348" lon="6.72796">
        <ele>426</ele>
        <time>2015-11-01T09:40:40.000Z</time>
      </trkpt>
      <trkpt lat="47.58348" lon="6.72807">
        <ele>426</ele>
        <time>2015-11-01T09:40:41.000Z</time>
      </trkpt>
      <trkpt lat="47.58347" lon="6.72817">
        <ele>427</ele>
        <time>2015-11-01T09:40:42.000Z</time>
      </trkpt>
      <trkpt lat="47.58346" lon="6.7283">
        <ele>428</ele>
        <time>2015-11-01T09:40:43.000Z</time>
      </trkpt>
      <trkpt lat="47.58347" lon="6.72842">
        <ele>423</ele>
        <time>2015-11-01T09:40:44.000Z</time>
      </trkpt>
      <trkpt lat="47.58347" lon="6.72854">
        <ele>420</ele>
        <time>2015-11-01T09:40:45.000Z</time>
      </trkpt>
      <trkpt lat="47.58347" lon="6.72866">
        <ele>418</ele>
        <time>2015-11-01T09:40:46.000Z</time>
      </trkpt>
      <trkpt lat="47.58347" lon="6.72877">
        <ele>416</ele>
        <time>2015-11-01T09:40:47.000Z</time>
      </trkpt>
      <trkpt lat="47.58346" lon="6.72888">
        <ele>416</ele>
        <time>2015-11-01T09:40:48.000Z</time>
      </trkpt>
      <trkpt lat="47.58341" lon="6.729">
        <ele>416</ele>
        <time>2015-11-01T09:40:49.000Z</time>
      </trkpt>
      <trkpt lat="47.58338" lon="6.72909">
        <ele>418</ele>
        <time>2015-11-01T09:40:50.000Z</time>
      </trkpt>
      <trkpt lat="47.58336" lon="6.72917">
        <ele>418</ele>
        <time>2015-11-01T09:40:51.000Z</time>
      </trkpt>
      <trkpt lat="47.58335" lon="6.72926">
        <ele>414</ele>
        <time>2015-11-01T09:40:52.000Z</time>
      </trkpt>
      <trkpt lat="47.58335" lon="6.72936">
        <ele>411</ele>
        <time>2015-11-01T09:40:53.000Z</time>
      </trkpt>
      <trkpt lat="47.58335" lon="6.7295">
        <ele>408</ele>
        <time>2015-11-01T09:40:54.000Z</time>
      </trkpt>
      <trkpt lat="47.58334" lon="6.72961">
        <ele>407</ele>
        <time>2015-11-01T09:40:55.000Z</time>
      </trkpt>
      <trkpt lat="47.58333" lon="6.72972">
        <ele>413</ele>
        <time>2015-11-01T09:40:56.000Z</time>
      </trkpt>
      <trkpt lat="47.58331" lon="6.72983">
        <ele>412</ele>
        <time>2015-11-01T09:40:57.000Z</time>
      </trkpt>
      <trkpt lat="47.58331" lon="6.72993">
        <ele>412</ele>
        <time>2015-11-01T09:40:58.000Z</time>
      </trkpt>
      <trkpt lat="47.5833" lon="6.73001">
        <ele>410</ele>
        <time>2015-11-01T09:40:59.000Z</time>
      </trkpt>
      <trkpt lat="47.5833" lon="6.73008">
        <ele>409</ele>
        <time>2015-11-01T09:41:00.000Z</time>
      </trkpt>
      <trkpt lat="47.58329" lon="6.73013">
        <ele>409</ele>
        <time>2015-11-01T09:41:01.000Z</time>
      </trkpt>
      <trkpt lat="47.58329" lon="6.73019">
        <ele>408</ele>
        <time>2015-11-01T09:41:02.000Z</time>
      </trkpt>
      <trkpt lat="47.58333" lon="6.73027">
        <ele>407</ele>
        <time>2015-11-01T09:41:03.000Z</time>
      </trkpt>
      <trkpt lat="47.58333" lon="6.73036">
        <ele>407</ele>
        <time>2015-11-01T09:41:04.000Z</time>
      </trkpt>
      <trkpt lat="47.58335" lon="6.73043">
        <ele>400</ele>
        <time>2015-11-01T09:41:05.000Z</time>
      </trkpt>
      <trkpt lat="47.58337" lon="6.73048">
        <ele>399</ele>
        <time>2015-11-01T09:41:06.000Z</time>
      </trkpt>
      <trkpt lat="47.5834" lon="6.73057">
        <ele>400</ele>
        <time>2015-11-01T09:41:07.000Z</time>
      </trkpt>
      <trkpt lat="47.58341" lon="6.73066">
        <ele>400</ele>
        <time>2015-11-01T09:41:08.000Z</time>
      </trkpt>
      <trkpt lat="47.58341" lon="6.73079">
        <ele>402</ele>
        <time>2015-11-01T09:41:09.000Z</time>
      </trkpt>
      <trkpt lat="47.58341" lon="6.7309">
        <ele>400</ele>
        <time>2015-11-01T09:41:10.000Z</time>
      </trkpt>
      <trkpt lat="47.5834" lon="6.73101">
        <ele>397</ele>
        <time>2015-11-01T09:41:11.000Z</time>
      </trkpt>
      <trkpt lat="47.5834" lon="6.73111">
        <ele>395</ele>
        <time>2015-11-01T09:41:12.000Z</time>
      </trkpt>
      <trkpt lat="47.58341" lon="6.73122">
        <ele>394</ele>
        <time>2015-11-01T09:41:13.000Z</time>
      </trkpt>
      <trkpt lat="47.58343" lon="6.73132">
        <ele>393</ele>
        <time>2015-11-01T09:41:14.000Z</time>
      </trkpt>
      <trkpt lat="47.58346" lon="6.73143">
        <ele>393</ele>
        <time>2015-11-01T09:41:15.000Z</time>
      </trkpt>
      <trkpt lat="47.58349" lon="6.73155">
        <ele>394</ele>
        <time>2015-11-01T09:41:16.000Z</time>
      </trkpt>
      <trkpt lat="47.58348" lon="6.73166">
        <ele>395</ele>
        <time>2015-11-01T09:41:17.000Z</time>
      </trkpt>
      <trkpt lat="47.58349" lon="6.73176">
        <ele>391</ele>
        <time>2015-11-01T09:41:18.000Z</time>
      </trkpt>
      <trkpt lat="47.5835" lon="6.73187">
        <ele>388</ele>
        <time>2015-11-01T09:41:19.000Z</time>
      </trkpt>
      <trkpt lat="47.5835" lon="6.732">
        <ele>387</ele>
        <time>2015-11-01T09:41:20.000Z</time>
      </trkpt>
      <trkpt lat="47.58351" lon="6.7321">
        <ele>386</ele>
        <time>2015-11-01T09:41:21.000Z</time>
      </trkpt>
      <trkpt lat="47.58351" lon="6.73223">
        <ele>386</ele>
        <time>2015-11-01T09:41:22.000Z</time>
      </trkpt>
      <trkpt lat="47.58351" lon="6.73237">
        <ele>386</ele>
        <time>2015-11-01T09:41:23.000Z</time>
      </trkpt>
      <trkpt lat="47.58351" lon="6.73248">
        <ele>387</ele>
        <time>2015-11-01T09:41:24.000Z</time>
      </trkpt>
      <trkpt lat="47.58351" lon="6.73263">
        <ele>383</ele>
        <time>2015-11-01T09:41:25.000Z</time>
      </trkpt>
      <trkpt lat="47.58352" lon="6.73276">
        <ele>381</ele>
        <time>2015-11-01T09:41:26.000Z</time>
      </trkpt>
      <trkpt lat="47.58352" lon="6.73291">
        <ele>380</ele>
        <time>2015-11-01T09:41:27.000Z</time>
      </trkpt>
      <trkpt lat="47.58353" lon="6.73303">
        <ele>380</ele>
        <time>2015-11-01T09:41:28.000Z</time>
      </trkpt>
      <trkpt lat="47.58353" lon="6.73315">
        <ele>380</ele>
        <time>2015-11-01T09:41:29.000Z</time>
      </trkpt>
      <trkpt lat="47.58353" lon="6.73327">
        <ele>380</ele>
        <time>2015-11-01T09:41:30.000Z</time>
      </trkpt>
      <trkpt lat="47.58354" lon="6.73338">
        <ele>378</ele>
        <time>2015-11-01T09:41:31.000Z</time>
      </trkpt>
      <trkpt lat="47.58353" lon="6.7335">
        <ele>377</ele>
        <time>2015-11-01T09:41:32.000Z</time>
      </trkpt>
      <trkpt lat="47.58353" lon="6.7336">
        <ele>375</ele>
        <time>2015-11-01T09:41:33.000Z</time>
      </trkpt>
      <trkpt lat="47.58353" lon="6.73371">
        <ele>374</ele>
        <time>2015-11-01T09:41:34.000Z</time>
      </trkpt>
      <trkpt lat="47.5835" lon="6.73381">
        <ele>374</ele>
        <time>2015-11-01T09:41:35.000Z</time>
      </trkpt>
      <trkpt lat="47.58348" lon="6.73392">
        <ele>374</ele>
        <time>2015-11-01T09:41:36.000Z</time>
      </trkpt>
      <trkpt lat="47.58346" lon="6.73402">
        <ele>375</ele>
        <time>2015-11-01T09:41:37.000Z</time>
      </trkpt>
      <trkpt lat="47.58345" lon="6.73414">
        <ele>376</ele>
        <time>2015-11-01T09:41:38.000Z</time>
      </trkpt>
      <trkpt lat="47.58345" lon="6.73425">
        <ele>372</ele>
        <time>2015-11-01T09:41:39.000Z</time>
      </trkpt>
      <trkpt lat="47.58347" lon="6.73436">
        <ele>370</ele>
        <time>2015-11-01T09:41:40.000Z</time>
      </trkpt>
      <trkpt lat="47.58348" lon="6.73447">
        <ele>368</ele>
        <time>2015-11-01T09:41:41.000Z</time>
      </trkpt>
      <trkpt lat="47.58349" lon="6.73458">
        <ele>367</ele>
        <time>2015-11-01T09:41:42.000Z</time>
      </trkpt>
      <trkpt lat="47.58347" lon="6.73468">
        <ele>366</ele>
        <time>2015-11-01T09:41:43.000Z</time>
      </trkpt>
      <trkpt lat="47.58346" lon="6.73479">
        <ele>366</ele>
        <time>2015-11-01T09:41:44.000Z</time>
      </trkpt>
      <trkpt lat="47.58343" lon="6.73488">
        <ele>367</ele>
        <time>2015-11-01T09:41:45.000Z</time>
      </trkpt>
      <trkpt lat="47.58343" lon="6.73494">
        <ele>367</ele>
        <time>2015-11-01T09:41:46.000Z</time>
      </trkpt>
      <trkpt lat="47.58341" lon="6.73498">
        <ele>368</ele>
        <time>2015-11-01T09:41:47.000Z</time>
      </trkpt>
      <trkpt lat="47.58339" lon="6.73502">
        <ele>366</ele>
        <time>2015-11-01T09:41:48.000Z</time>
      </trkpt>
      <trkpt lat="47.58338" lon="6.73506">
        <ele>365</ele>
        <time>2015-11-01T09:41:49.000Z</time>
      </trkpt>
      <trkpt lat="47.58336" lon="6.7351">
        <ele>364</ele>
        <time>2015-11-01T09:41:50.000Z</time>
      </trkpt>
      <trkpt lat="47.58334" lon="6.73517">
        <ele>363</ele>
        <time>2015-11-01T09:41:51.000Z</time>
      </trkpt>
      <trkpt lat="47.58332" lon="6.73523">
        <ele>365</ele>
        <time>2015-11-01T09:41:52.000Z</time>
      </trkpt>
      <trkpt lat="47.58329" lon="6.73529">
        <ele>364</ele>
        <time>2015-11-01T09:41:53.000Z</time>
      </trkpt>
      <trkpt lat="47.58326" lon="6.73536">
        <ele>363</ele>
        <time>2015-11-01T09:41:54.000Z</time>
      </trkpt>
      <trkpt lat="47.58322" lon="6.73543">
        <ele>363</ele>
        <time>2015-11-01T09:41:55.000Z</time>
      </trkpt>
      <trkpt lat="47.58319" lon="6.73547">
        <ele>363</ele>
        <time>2015-11-01T09:41:56.000Z</time>
      </trkpt>
      <trkpt lat="47.58317" lon="6.73551">
        <ele>362</ele>
        <time>2015-11-01T09:41:57.000Z</time>
      </trkpt>
      <trkpt lat="47.58316" lon="6.73554">
        <ele>362</ele>
        <time>2015-11-01T09:41:58.000Z</time>
      </trkpt>
      <trkpt lat="47.58315" lon="6.73557">
        <ele>362</ele>
        <time>2015-11-01T09:41:59.000Z</time>
      </trkpt>
      <trkpt lat="47.58315" lon="6.73562">
        <ele>362</ele>
        <time>2015-11-01T09:42:01.000Z</time>
      </trkpt>
      <trkpt lat="47.58314" lon="6.73564">
        <ele>362</ele>
        <time>2015-11-01T09:42:02.000Z</time>
      </trkpt>
      <trkpt lat="47.58313" lon="6.7357">
        <ele>362</ele>
        <time>2015-11-01T09:42:04.000Z</time>
      </trkpt>
      <trkpt lat="47.58313" lon="6.73572">
        <ele>362</ele>
        <time>2015-11-01T09:42:05.000Z</time>
      </trkpt>
      <trkpt lat="47.58313" lon="6.73577">
        <ele>362</ele>
        <time>2015-11-01T09:42:07.000Z</time>
      </trkpt>
      <trkpt lat="47.58314" lon="6.7358">
        <ele>362</ele>
        <time>2015-11-01T09:42:08.000Z</time>
      </trkpt>
      <trkpt lat="47.58315" lon="6.73583">
        <ele>361</ele>
        <time>2015-11-01T09:42:09.000Z</time>
      </trkpt>
      <trkpt lat="47.58316" lon="6.73586">
        <ele>359</ele>
        <time>2015-11-01T09:42:10.000Z</time>
      </trkpt>
      <trkpt lat="47.58317" lon="6.73589">
        <ele>359</ele>
        <time>2015-11-01T09:42:11.000Z</time>
      </trkpt>
      <trkpt lat="47.58318" lon="6.73593">
        <ele>359</ele>
        <time>2015-11-01T09:42:12.000Z</time>
      </trkpt>
      <trkpt lat="47.5832" lon="6.73596">
        <ele>359</ele>
        <time>2015-11-01T09:42:13.000Z</time>
      </trkpt>
      <trkpt lat="47.58321" lon="6.736">
        <ele>358</ele>
        <time>2015-11-01T09:42:14.000Z</time>
      </trkpt>
      <trkpt lat="47.58323" lon="6.73603">
        <ele>358</ele>
        <time>2015-11-01T09:42:15.000Z</time>
      </trkpt>
      <trkpt lat="47.58325" lon="6.73607">
        <ele>358</ele>
        <time>2015-11-01T09:42:16.000Z</time>
      </trkpt>
      <trkpt lat="47.58327" lon="6.7361">
        <ele>358</ele>
        <time>2015-11-01T09:42:17.000Z</time>
      </trkpt>
      <trkpt lat="47.58329" lon="6.73614">
        <ele>358</ele>
        <time>2015-11-01T09:42:18.000Z</time>
      </trkpt>
      <trkpt lat="47.58332" lon="6.73618">
        <ele>357</ele>
        <time>2015-11-01T09:42:19.000Z</time>
      </trkpt>
      <trkpt lat="47.58335" lon="6.73622">
        <ele>353</ele>
        <time>2015-11-01T09:42:20.000Z</time>
      </trkpt>
      <trkpt lat="47.58343" lon="6.73626">
        <ele>353</ele>
        <time>2015-11-01T09:42:21.000Z</time>
      </trkpt>
      <trkpt lat="47.58347" lon="6.73627">
        <ele>352</ele>
        <time>2015-11-01T09:42:22.000Z</time>
      </trkpt>
      <trkpt lat="47.58353" lon="6.73626">
        <ele>352</ele>
        <time>2015-11-01T09:42:23.000Z</time>
      </trkpt>
      <trkpt lat="47.58357" lon="6.73626">
        <ele>352</ele>
        <time>2015-11-01T09:42:24.000Z</time>
      </trkpt>
      <trkpt lat="47.58359" lon="6.73626">
        <ele>352</ele>
        <time>2015-11-01T09:42:25.000Z</time>
      </trkpt>
      <trkpt lat="47.58361" lon="6.73621">
        <ele>352</ele>
        <time>2015-11-01T09:42:29.000Z</time>
      </trkpt>
      <trkpt lat="47.58361" lon="6.7362">
        <ele>352</ele>
        <time>2015-11-01T09:42:30.000Z</time>
      </trkpt>
      <trkpt lat="47.58365" lon="6.73619">
        <ele>351</ele>
        <time>2015-11-01T09:42:32.000Z</time>
      </trkpt>
      <trkpt lat="47.58366" lon="6.73619">
        <ele>351</ele>
        <time>2015-11-01T09:42:33.000Z</time>
      </trkpt>
      <trkpt lat="47.5837" lon="6.73619">
        <ele>351</ele>
        <time>2015-11-01T09:42:36.000Z</time>
      </trkpt>
      <trkpt lat="47.58371" lon="6.7362">
        <ele>351</ele>
        <time>2015-11-01T09:42:37.000Z</time>
      </trkpt>
      <trkpt lat="47.58367" lon="6.73623">
        <ele>351</ele>
        <time>2015-11-01T09:43:53.000Z</time>
      </trkpt>
      <trkpt lat="47.58367" lon="6.73623">
        <ele>351</ele>
        <time>2015-11-01T09:43:54.000Z</time>
      </trkpt>
      <trkpt lat="47.5837" lon="6.73626">
        <ele>351</ele>
        <time>2015-11-01T09:45:06.000Z</time>
      </trkpt>
      <trkpt lat="47.58371" lon="6.7363">
        <ele>350</ele>
        <time>2015-11-01T09:45:07.000Z</time>
      </trkpt>
      <trkpt lat="47.58371" lon="6.73635">
        <ele>350</ele>
        <time>2015-11-01T09:45:08.000Z</time>
      </trkpt>
      <trkpt lat="47.58371" lon="6.7364">
        <ele>350</ele>
        <time>2015-11-01T09:45:09.000Z</time>
      </trkpt>
      <trkpt lat="47.58371" lon="6.73645">
        <ele>350</ele>
        <time>2015-11-01T09:45:10.000Z</time>
      </trkpt>
      <trkpt lat="47.58372" lon="6.73649">
        <ele>350</ele>
        <time>2015-11-01T09:45:11.000Z</time>
      </trkpt>
      <trkpt lat="47.58373" lon="6.73652">
        <ele>350</ele>
        <time>2015-11-01T09:45:12.000Z</time>
      </trkpt>
      <trkpt lat="47.58374" lon="6.73655">
        <ele>350</ele>
        <time>2015-11-01T09:45:13.000Z</time>
      </trkpt>
      <trkpt lat="47.58375" lon="6.73658">
        <ele>350</ele>
        <time>2015-11-01T09:45:14.000Z</time>
      </trkpt>
      <trkpt lat="47.58375" lon="6.73661">
        <ele>350</ele>
        <time>2015-11-01T09:45:15.000Z</time>
      </trkpt>
      <trkpt lat="47.58375" lon="6.73665">
        <ele>350</ele>
        <time>2015-11-01T09:45:16.000Z</time>
      </trkpt>
      <trkpt lat="47.58375" lon="6.73669">
        <ele>349</ele>
        <time>2015-11-01T09:45:17.000Z</time>
      </trkpt>
      <trkpt lat="47.58374" lon="6.73675">
        <ele>349</ele>
        <time>2015-11-01T09:45:19.000Z</time>
      </trkpt>
      <trkpt lat="47.58373" lon="6.73678">
        <ele>350</ele>
        <time>2015-11-01T09:45:20.000Z</time>
      </trkpt>
      <trkpt lat="47.58373" lon="6.73681">
        <ele>350</ele>
        <time>2015-11-01T09:45:21.000Z</time>
      </trkpt>
      <trkpt lat="47.58373" lon="6.73685">
        <ele>350</ele>
        <time>2015-11-01T09:45:22.000Z</time>
      </trkpt>
      <trkpt lat="47.58373" lon="6.73689">
        <ele>350</ele>
        <time>2015-11-01T09:45:23.000Z</time>
      </trkpt>
      <trkpt lat="47.58372" lon="6.73693">
        <ele>350</ele>
        <time>2015-11-01T09:45:24.000Z</time>
      </trkpt>
      <trkpt lat="47.58372" lon="6.73696">
        <ele>350</ele>
        <time>2015-11-01T09:45:25.000Z</time>
      </trkpt>
      <trkpt lat="47.58372" lon="6.73699">
        <ele>350</ele>
        <time>2015-11-01T09:45:26.000Z</time>
      </trkpt>
      <trkpt lat="47.58371" lon="6.73703">
        <ele>350</ele>
        <time>2015-11-01T09:45:27.000Z</time>
      </trkpt>
      <trkpt lat="47.5837" lon="6.73706">
        <ele>350</ele>
        <time>2015-11-01T09:45:28.000Z</time>
      </trkpt>
      <trkpt lat="47.58368" lon="6.7371">
        <ele>350</ele>
        <time>2015-11-01T09:45:30.000Z</time>
      </trkpt>
      <trkpt lat="47.58366" lon="6.73712">
        <ele>350</ele>
        <time>2015-11-01T09:45:31.000Z</time>
      </trkpt>
      <trkpt lat="47.58363" lon="6.73717">
        <ele>350</ele>
        <time>2015-11-01T09:45:33.000Z</time>
      </trkpt>
      <trkpt lat="47.58361" lon="6.73718">
        <ele>351</ele>
        <time>2015-11-01T09:45:34.000Z</time>
      </trkpt>
      <trkpt lat="47.58359" lon="6.73723">
        <ele>351</ele>
        <time>2015-11-01T09:45:37.000Z</time>
      </trkpt>
      <trkpt lat="47.58358" lon="6.73725">
        <ele>351</ele>
        <time>2015-11-01T09:45:38.000Z</time>
      </trkpt>
      <trkpt lat="47.58356" lon="6.73729">
        <ele>351</ele>
        <time>2015-11-01T09:45:40.000Z</time>
      </trkpt>
      <trkpt lat="47.58355" lon="6.7373">
        <ele>351</ele>
        <time>2015-11-01T09:45:41.000Z</time>
      </trkpt>
      <trkpt lat="47.58352" lon="6.73734">
        <ele>351</ele>
        <time>2015-11-01T09:45:43.000Z</time>
      </trkpt>
      <trkpt lat="47.5835" lon="6.73736">
        <ele>352</ele>
        <time>2015-11-01T09:45:44.000Z</time>
      </trkpt>
      <trkpt lat="47.58348" lon="6.73738">
        <ele>352</ele>
        <time>2015-11-01T09:45:45.000Z</time>
      </trkpt>
      <trkpt lat="47.58346" lon="6.7374">
        <ele>352</ele>
        <time>2015-11-01T09:45:46.000Z</time>
      </trkpt>
      <trkpt lat="47.58344" lon="6.73743">
        <ele>352</ele>
        <time>2015-11-01T09:45:47.000Z</time>
      </trkpt>
      <trkpt lat="47.58341" lon="6.73745">
        <ele>353</ele>
        <time>2015-11-01T09:45:48.000Z</time>
      </trkpt>
      <trkpt lat="47.58339" lon="6.73747">
        <ele>353</ele>
        <time>2015-11-01T09:45:49.000Z</time>
      </trkpt>
      <trkpt lat="47.58337" lon="6.7375">
        <ele>353</ele>
        <time>2015-11-01T09:45:50.000Z</time>
      </trkpt>
      <trkpt lat="47.58336" lon="6.73752">
        <ele>354</ele>
        <time>2015-11-01T09:45:51.000Z</time>
      </trkpt>
      <trkpt lat="47.58334" lon="6.73755">
        <ele>354</ele>
        <time>2015-11-01T09:45:52.000Z</time>
      </trkpt>
      <trkpt lat="47.58332" lon="6.73758">
        <ele>353</ele>
        <time>2015-11-01T09:45:53.000Z</time>
      </trkpt>
      <trkpt lat="47.58329" lon="6.73761">
        <ele>353</ele>
        <time>2015-11-01T09:45:54.000Z</time>
      </trkpt>
      <trkpt lat="47.58328" lon="6.73765">
        <ele>353</ele>
        <time>2015-11-01T09:45:55.000Z</time>
      </trkpt>
      <trkpt lat="47.58326" lon="6.73769">
        <ele>352</ele>
        <time>2015-11-01T09:45:56.000Z</time>
      </trkpt>
      <trkpt lat="47.58325" lon="6.73773">
        <ele>352</ele>
        <time>2015-11-01T09:45:57.000Z</time>
      </trkpt>
      <trkpt lat="47.58323" lon="6.73778">
        <ele>352</ele>
        <time>2015-11-01T09:45:58.000Z</time>
      </trkpt>
      <trkpt lat="47.58322" lon="6.73782">
        <ele>352</ele>
        <time>2015-11-01T09:45:59.000Z</time>
      </trkpt>
      <trkpt lat="47.58321" lon="6.73786">
        <ele>352</ele>
        <time>2015-11-01T09:46:00.000Z</time>
      </trkpt>
      <trkpt lat="47.5832" lon="6.7379">
        <ele>352</ele>
        <time>2015-11-01T09:46:01.000Z</time>
      </trkpt>
      <trkpt lat="47.58318" lon="6.73794">
        <ele>352</ele>
        <time>2015-11-01T09:46:02.000Z</time>
      </trkpt>
      <trkpt lat="47.58317" lon="6.73798">
        <ele>352</ele>
        <time>2015-11-01T09:46:03.000Z</time>
      </trkpt>
      <trkpt lat="47.58315" lon="6.73802">
        <ele>352</ele>
        <time>2015-11-01T09:46:04.000Z</time>
      </trkpt>
      <trkpt lat="47.58313" lon="6.73806">
        <ele>353</ele>
        <time>2015-11-01T09:46:05.000Z</time>
      </trkpt>
      <trkpt lat="47.58312" lon="6.73809">
        <ele>353</ele>
        <time>2015-11-01T09:46:06.000Z</time>
      </trkpt>
      <trkpt lat="47.5831" lon="6.73813">
        <ele>353</ele>
        <time>2015-11-01T09:46:07.000Z</time>
      </trkpt>
      <trkpt lat="47.58309" lon="6.73816">
        <ele>353</ele>
        <time>2015-11-01T09:46:08.000Z</time>
      </trkpt>
      <trkpt lat="47.58308" lon="6.7382">
        <ele>353</ele>
        <time>2015-11-01T09:46:09.000Z</time>
      </trkpt>
      <trkpt lat="47.58307" lon="6.73823">
        <ele>353</ele>
        <time>2015-11-01T09:46:10.000Z</time>
      </trkpt>
      <trkpt lat="47.58307" lon="6.73828">
        <ele>353</ele>
        <time>2015-11-01T09:46:11.000Z</time>
      </trkpt>
      <trkpt lat="47.58307" lon="6.73832">
        <ele>353</ele>
        <time>2015-11-01T09:46:12.000Z</time>
      </trkpt>
      <trkpt lat="47.58307" lon="6.73836">
        <ele>354</ele>
        <time>2015-11-01T09:46:13.000Z</time>
      </trkpt>
      <trkpt lat="47.58307" lon="6.7384">
        <ele>354</ele>
        <time>2015-11-01T09:46:14.000Z</time>
      </trkpt>
      <trkpt lat="47.58308" lon="6.73845">
        <ele>354</ele>
        <time>2015-11-01T09:46:15.000Z</time>
      </trkpt>
      <trkpt lat="47.58308" lon="6.73849">
        <ele>354</ele>
        <time>2015-11-01T09:46:16.000Z</time>
      </trkpt>
      <trkpt lat="47.58308" lon="6.73854">
        <ele>354</ele>
        <time>2015-11-01T09:46:17.000Z</time>
      </trkpt>
      <trkpt lat="47.58307" lon="6.73858">
        <ele>354</ele>
        <time>2015-11-01T09:46:18.000Z</time>
      </trkpt>
      <trkpt lat="47.58307" lon="6.73862">
        <ele>354</ele>
        <time>2015-11-01T09:46:19.000Z</time>
      </trkpt>
      <trkpt lat="47.58306" lon="6.73867">
        <ele>354</ele>
        <time>2015-11-01T09:46:20.000Z</time>
      </trkpt>
      <trkpt lat="47.58306" lon="6.73872">
        <ele>354</ele>
        <time>2015-11-01T09:46:21.000Z</time>
      </trkpt>
      <trkpt lat="47.58305" lon="6.73878">
        <ele>354</ele>
        <time>2015-11-01T09:46:22.000Z</time>
      </trkpt>
      <trkpt lat="47.58305" lon="6.73884">
        <ele>355</ele>
        <time>2015-11-01T09:46:23.000Z</time>
      </trkpt>
      <trkpt lat="47.58305" lon="6.73889">
        <ele>355</ele>
        <time>2015-11-01T09:46:24.000Z</time>
      </trkpt>
      <trkpt lat="47.58305" lon="6.73894">
        <ele>355</ele>
        <time>2015-11-01T09:46:25.000Z</time>
      </trkpt>
      <trkpt lat="47.58305" lon="6.73899">
        <ele>355</ele>
        <time>2015-11-01T09:46:26.000Z</time>
      </trkpt>
      <trkpt lat="47.58306" lon="6.73903">
        <ele>355</ele>
        <time>2015-11-01T09:46:27.000Z</time>
      </trkpt>
      <trkpt lat="47.58306" lon="6.73907">
        <ele>356</ele>
        <time>2015-11-01T09:46:28.000Z</time>
      </trkpt>
      <trkpt lat="47.58307" lon="6.7391">
        <ele>356</ele>
        <time>2015-11-01T09:46:29.000Z</time>
      </trkpt>
      <trkpt lat="47.58308" lon="6.73913">
        <ele>356</ele>
        <time>2015-11-01T09:46:30.000Z</time>
      </trkpt>
      <trkpt lat="47.58309" lon="6.73919">
        <ele>357</ele>
        <time>2015-11-01T09:46:32.000Z</time>
      </trkpt>
      <trkpt lat="47.58309" lon="6.73922">
        <ele>357</ele>
        <time>2015-11-01T09:46:33.000Z</time>
      </trkpt>
      <trkpt lat="47.58309" lon="6.73926">
        <ele>357</ele>
        <time>2015-11-01T09:46:34.000Z</time>
      </trkpt>
      <trkpt lat="47.58309" lon="6.7393">
        <ele>357</ele>
        <time>2015-11-01T09:46:35.000Z</time>
      </trkpt>
      <trkpt lat="47.5831" lon="6.73935">
        <ele>356</ele>
        <time>2015-11-01T09:46:36.000Z</time>
      </trkpt>
      <trkpt lat="47.5831" lon="6.73939">
        <ele>356</ele>
        <time>2015-11-01T09:46:37.000Z</time>
      </trkpt>
      <trkpt lat="47.58311" lon="6.73944">
        <ele>356</ele>
        <time>2015-11-01T09:46:38.000Z</time>
      </trkpt>
      <trkpt lat="47.58312" lon="6.73949">
        <ele>356</ele>
        <time>2015-11-01T09:46:39.000Z</time>
      </trkpt>
      <trkpt lat="47.58313" lon="6.73954">
        <ele>356</ele>
        <time>2015-11-01T09:46:40.000Z</time>
      </trkpt>
      <trkpt lat="47.58314" lon="6.73958">
        <ele>356</ele>
        <time>2015-11-01T09:46:41.000Z</time>
      </trkpt>
      <trkpt lat="47.58315" lon="6.73963">
        <ele>356</ele>
        <time>2015-11-01T09:46:42.000Z</time>
      </trkpt>
      <trkpt lat="47.58316" lon="6.73968">
        <ele>356</ele>
        <time>2015-11-01T09:46:43.000Z</time>
      </trkpt>
      <trkpt lat="47.58317" lon="6.73973">
        <ele>356</ele>
        <time>2015-11-01T09:46:44.000Z</time>
      </trkpt>
      <trkpt lat="47.58319" lon="6.73977">
        <ele>357</ele>
        <time>2015-11-01T09:46:45.000Z</time>
      </trkpt>
      <trkpt lat="47.58321" lon="6.73981">
        <ele>357</ele>
        <time>2015-11-01T09:46:46.000Z</time>
      </trkpt>
      <trkpt lat="47.58324" lon="6.73983">
        <ele>357</ele>
        <time>2015-11-01T09:46:47.000Z</time>
      </trkpt>
      <trkpt lat="47.58327" lon="6.73984">
        <ele>358</ele>
        <time>2015-11-01T09:46:48.000Z</time>
      </trkpt>
      <trkpt lat="47.5833" lon="6.73985">
        <ele>358</ele>
        <time>2015-11-01T09:46:49.000Z</time>
      </trkpt>
      <trkpt lat="47.58333" lon="6.73984">
        <ele>358</ele>
        <time>2015-11-01T09:46:50.000Z</time>
      </trkpt>
      <trkpt lat="47.58336" lon="6.73983">
        <ele>360</ele>
        <time>2015-11-01T09:46:51.000Z</time>
      </trkpt>
      <trkpt lat="47.58339" lon="6.73981">
        <ele>360</ele>
        <time>2015-11-01T09:46:52.000Z</time>
      </trkpt>
      <trkpt lat="47.58342" lon="6.73979">
        <ele>360</ele>
        <time>2015-11-01T09:46:53.000Z</time>
      </trkpt>
      <trkpt lat="47.58344" lon="6.73977">
        <ele>360</ele>
        <time>2015-11-01T09:46:54.000Z</time>
      </trkpt>
      <trkpt lat="47.58347" lon="6.73975">
        <ele>360</ele>
        <time>2015-11-01T09:46:55.000Z</time>
      </trkpt>
      <trkpt lat="47.5835" lon="6.73973">
        <ele>360</ele>
        <time>2015-11-01T09:46:56.000Z</time>
      </trkpt>
      <trkpt lat="47.58353" lon="6.73972">
        <ele>360</ele>
        <time>2015-11-01T09:46:57.000Z</time>
      </trkpt>
      <trkpt lat="47.58355" lon="6.7397">
        <ele>360</ele>
        <time>2015-11-01T09:46:58.000Z</time>
      </trkpt>
      <trkpt lat="47.58357" lon="6.73969">
        <ele>360</ele>
        <time>2015-11-01T09:46:59.000Z</time>
      </trkpt>
      <trkpt lat="47.5836" lon="6.73968">
        <ele>360</ele>
        <time>2015-11-01T09:47:00.000Z</time>
      </trkpt>
      <trkpt lat="47.58363" lon="6.73967">
        <ele>360</ele>
        <time>2015-11-01T09:47:01.000Z</time>
      </trkpt>
      <trkpt lat="47.58365" lon="6.73966">
        <ele>360</ele>
        <time>2015-11-01T09:47:02.000Z</time>
      </trkpt>
      <trkpt lat="47.58368" lon="6.73965">
        <ele>360</ele>
        <time>2015-11-01T09:47:03.000Z</time>
      </trkpt>
      <trkpt lat="47.58371" lon="6.73963">
        <ele>360</ele>
        <time>2015-11-01T09:47:04.000Z</time>
      </trkpt>
      <trkpt lat="47.58374" lon="6.73962">
        <ele>360</ele>
        <time>2015-11-01T09:47:05.000Z</time>
      </trkpt>
      <trkpt lat="47.58377" lon="6.7396">
        <ele>360</ele>
        <time>2015-11-01T09:47:06.000Z</time>
      </trkpt>
      <trkpt lat="47.5838" lon="6.73959">
        <ele>360</ele>
        <time>2015-11-01T09:47:07.000Z</time>
      </trkpt>
      <trkpt lat="47.58382" lon="6.73957">
        <ele>360</ele>
        <time>2015-11-01T09:47:08.000Z</time>
      </trkpt>
      <trkpt lat="47.58385" lon="6.73954">
        <ele>360</ele>
        <time>2015-11-01T09:47:09.000Z</time>
      </trkpt>
      <trkpt lat="47.58388" lon="6.7395">
        <ele>360</ele>
        <time>2015-11-01T09:47:10.000Z</time>
      </trkpt>
      <trkpt lat="47.5839" lon="6.73946">
        <ele>360</ele>
        <time>2015-11-01T09:47:11.000Z</time>
      </trkpt>
      <trkpt lat="47.58392" lon="6.73942">
        <ele>360</ele>
        <time>2015-11-01T09:47:12.000Z</time>
      </trkpt>
      <trkpt lat="47.58394" lon="6.73938">
        <ele>360</ele>
        <time>2015-11-01T09:47:13.000Z</time>
      </trkpt>
      <trkpt lat="47.58395" lon="6.73935">
        <ele>360</ele>
        <time>2015-11-01T09:47:14.000Z</time>
      </trkpt>
      <trkpt lat="47.58396" lon="6.73931">
        <ele>360</ele>
        <time>2015-11-01T09:47:15.000Z</time>
      </trkpt>
      <trkpt lat="47.58397" lon="6.73928">
        <ele>360</ele>
        <time>2015-11-01T09:47:16.000Z</time>
      </trkpt>
      <trkpt lat="47.58399" lon="6.73924">
        <ele>360</ele>
        <time>2015-11-01T09:47:17.000Z</time>
      </trkpt>
      <trkpt lat="47.584" lon="6.73919">
        <ele>360</ele>
        <time>2015-11-01T09:47:19.000Z</time>
      </trkpt>
      <trkpt lat="47.58401" lon="6.73918">
        <ele>360</ele>
        <time>2015-11-01T09:47:20.000Z</time>
      </trkpt>
      <trkpt lat="47.58405" lon="6.73921">
        <ele>360</ele>
        <time>2015-11-01T09:47:38.000Z</time>
      </trkpt>
      <trkpt lat="47.58407" lon="6.73922">
        <ele>360</ele>
        <time>2015-11-01T09:47:39.000Z</time>
      </trkpt>
      <trkpt lat="47.5841" lon="6.73924">
        <ele>360</ele>
        <time>2015-11-01T09:47:40.000Z</time>
      </trkpt>
      <trkpt lat="47.58413" lon="6.73927">
        <ele>360</ele>
        <time>2015-11-01T09:47:41.000Z</time>
      </trkpt>
      <trkpt lat="47.58417" lon="6.73929">
        <ele>355</ele>
        <time>2015-11-01T09:47:42.000Z</time>
      </trkpt>
      <trkpt lat="47.5842" lon="6.73931">
        <ele>355</ele>
        <time>2015-11-01T09:47:43.000Z</time>
      </trkpt>
      <trkpt lat="47.58424" lon="6.73933">
        <ele>354</ele>
        <time>2015-11-01T09:47:44.000Z</time>
      </trkpt>
      <trkpt lat="47.58427" lon="6.73936">
        <ele>353</ele>
        <time>2015-11-01T09:47:45.000Z</time>
      </trkpt>
      <trkpt lat="47.5843" lon="6.7394">
        <ele>352</ele>
        <time>2015-11-01T09:47:46.000Z</time>
      </trkpt>
      <trkpt lat="47.58432" lon="6.73952">
        <ele>351</ele>
        <time>2015-11-01T09:47:47.000Z</time>
      </trkpt>
      <trkpt lat="47.58435" lon="6.73958">
        <ele>350</ele>
        <time>2015-11-01T09:47:48.000Z</time>
      </trkpt>
      <trkpt lat="47.58438" lon="6.73964">
        <ele>350</ele>
        <time>2015-11-01T09:47:49.000Z</time>
      </trkpt>
      <trkpt lat="47.58441" lon="6.73972">
        <ele>350</ele>
        <time>2015-11-01T09:47:50.000Z</time>
      </trkpt>
      <trkpt lat="47.58444" lon="6.73977">
        <ele>349</ele>
        <time>2015-11-01T09:47:51.000Z</time>
      </trkpt>
      <trkpt lat="47.58448" lon="6.73981">
        <ele>349</ele>
        <time>2015-11-01T09:47:52.000Z</time>
      </trkpt>
      <trkpt lat="47.58452" lon="6.73988">
        <ele>348</ele>
        <time>2015-11-01T09:47:53.000Z</time>
      </trkpt>
      <trkpt lat="47.58454" lon="6.73994">
        <ele>348</ele>
        <time>2015-11-01T09:47:54.000Z</time>
      </trkpt>
      <trkpt lat="47.58456" lon="6.73999">
        <ele>347</ele>
        <time>2015-11-01T09:47:55.000Z</time>
      </trkpt>
      <trkpt lat="47.58459" lon="6.74002">
        <ele>344</ele>
        <time>2015-11-01T09:47:56.000Z</time>
      </trkpt>
      <trkpt lat="47.58462" lon="6.74">
        <ele>344</ele>
        <time>2015-11-01T09:47:57.000Z</time>
      </trkpt>
      <trkpt lat="47.58467" lon="6.74002">
        <ele>343</ele>
        <time>2015-11-01T09:47:58.000Z</time>
      </trkpt>
      <trkpt lat="47.58471" lon="6.74002">
        <ele>342</ele>
        <time>2015-11-01T09:47:59.000Z</time>
      </trkpt>
      <trkpt lat="47.58474" lon="6.74001">
        <ele>341</ele>
        <time>2015-11-01T09:48:00.000Z</time>
      </trkpt>
      <trkpt lat="47.58475" lon="6.74005">
        <ele>341</ele>
        <time>2015-11-01T09:48:16.000Z</time>
      </trkpt>
      <trkpt lat="47.58475" lon="6.74008">
        <ele>341</ele>
        <time>2015-11-01T09:48:17.000Z</time>
      </trkpt>
      <trkpt lat="47.58476" lon="6.74014">
        <ele>341</ele>
        <time>2015-11-01T09:51:44.000Z</time>
      </trkpt>
      <trkpt lat="47.58475" lon="6.74016">
        <ele>341</ele>
        <time>2015-11-01T09:51:45.000Z</time>
      </trkpt>
      <trkpt lat="47.58472" lon="6.7402">
        <ele>342</ele>
        <time>2015-11-01T09:51:49.000Z</time>
      </trkpt>
      <trkpt lat="47.58471" lon="6.74018">
        <ele>342</ele>
        <time>2015-11-01T09:51:50.000Z</time>
      </trkpt>
      <trkpt lat="47.5847" lon="6.74012">
        <ele>342</ele>
        <time>2015-11-01T09:51:53.000Z</time>
      </trkpt>
      <trkpt lat="47.58471" lon="6.74011">
        <ele>342</ele>
        <time>2015-11-01T09:51:54.000Z</time>
      </trkpt>
      <trkpt lat="47.58475" lon="6.74009">
        <ele>341</ele>
        <time>2015-11-01T09:51:57.000Z</time>
      </trkpt>
      <trkpt lat="47.58476" lon="6.74007">
        <ele>341</ele>
        <time>2015-11-01T09:51:58.000Z</time>
      </trkpt>
      <trkpt lat="47.58472" lon="6.7401">
        <ele>342</ele>
        <time>2015-11-01T09:52:05.000Z</time>
      </trkpt>
      <trkpt lat="47.58473" lon="6.74013">
        <ele>342</ele>
        <time>2015-11-01T09:52:06.000Z</time>
      </trkpt>
      <trkpt lat="47.58473" lon="6.74009">
        <ele>342</ele>
        <time>2015-11-01T09:53:14.000Z</time>
      </trkpt>
      <trkpt lat="47.58474" lon="6.74005">
        <ele>341</ele>
        <time>2015-11-01T09:53:15.000Z</time>
      </trkpt>
      <trkpt lat="47.58475" lon="6.74001">
        <ele>341</ele>
        <time>2015-11-01T09:53:16.000Z</time>
      </trkpt>
      <trkpt lat="47.58476" lon="6.73997">
        <ele>343</ele>
        <time>2015-11-01T09:53:17.000Z</time>
      </trkpt>
      <trkpt lat="47.58477" lon="6.73992">
        <ele>343</ele>
        <time>2015-11-01T09:53:18.000Z</time>
      </trkpt>
      <trkpt lat="47.58478" lon="6.73988">
        <ele>343</ele>
        <time>2015-11-01T09:53:19.000Z</time>
      </trkpt>
      <trkpt lat="47.58478" lon="6.73983">
        <ele>343</ele>
        <time>2015-11-01T09:53:20.000Z</time>
      </trkpt>
      <trkpt lat="47.58478" lon="6.73979">
        <ele>344</ele>
        <time>2015-11-01T09:53:21.000Z</time>
      </trkpt>
      <trkpt lat="47.58478" lon="6.73975">
        <ele>344</ele>
        <time>2015-11-01T09:53:22.000Z</time>
      </trkpt>
      <trkpt lat="47.58478" lon="6.73971">
        <ele>344</ele>
        <time>2015-11-01T09:53:23.000Z</time>
      </trkpt>
      <trkpt lat="47.58478" lon="6.73964">
        <ele>344</ele>
        <time>2015-11-01T09:53:25.000Z</time>
      </trkpt>
      <trkpt lat="47.58479" lon="6.73961">
        <ele>345</ele>
        <time>2015-11-01T09:53:26.000Z</time>
      </trkpt>
      <trkpt lat="47.58479" lon="6.73958">
        <ele>345</ele>
        <time>2015-11-01T09:53:27.000Z</time>
      </trkpt>
      <trkpt lat="47.58479" lon="6.73954">
        <ele>344</ele>
        <time>2015-11-01T09:53:28.000Z</time>
      </trkpt>
      <trkpt lat="47.5848" lon="6.7395">
        <ele>344</ele>
        <time>2015-11-01T09:53:29.000Z</time>
      </trkpt>
      <trkpt lat="47.58482" lon="6.73946">
        <ele>344</ele>
        <time>2015-11-01T09:53:30.000Z</time>
      </trkpt>
      <trkpt lat="47.58484" lon="6.73941">
        <ele>343</ele>
        <time>2015-11-01T09:53:32.000Z</time>
      </trkpt>
      <trkpt lat="47.58484" lon="6.73939">
        <ele>343</ele>
        <time>2015-11-01T09:53:33.000Z</time>
      </trkpt>
      <trkpt lat="47.58483" lon="6.73934">
        <ele>343</ele>
        <time>2015-11-01T09:53:35.000Z</time>
      </trkpt>
      <trkpt lat="47.58483" lon="6.73931">
        <ele>343</ele>
        <time>2015-11-01T09:53:36.000Z</time>
      </trkpt>
      <trkpt lat="47.58483" lon="6.73926">
        <ele>342</ele>
        <time>2015-11-01T09:53:37.000Z</time>
      </trkpt>
      <trkpt lat="47.58483" lon="6.73921">
        <ele>342</ele>
        <time>2015-11-01T09:53:38.000Z</time>
      </trkpt>
      <trkpt lat="47.58483" lon="6.73916">
        <ele>342</ele>
        <time>2015-11-01T09:53:39.000Z</time>
      </trkpt>
      <trkpt lat="47.58483" lon="6.73911">
        <ele>342</ele>
        <time>2015-11-01T09:53:40.000Z</time>
      </trkpt>
      <trkpt lat="47.58484" lon="6.73906">
        <ele>342</ele>
        <time>2015-11-01T09:53:41.000Z</time>
      </trkpt>
      <trkpt lat="47.58484" lon="6.739">
        <ele>342</ele>
        <time>2015-11-01T09:53:42.000Z</time>
      </trkpt>
      <trkpt lat="47.58485" lon="6.73895">
        <ele>343</ele>
        <time>2015-11-01T09:53:43.000Z</time>
      </trkpt>
      <trkpt lat="47.58486" lon="6.7389">
        <ele>343</ele>
        <time>2015-11-01T09:53:44.000Z</time>
      </trkpt>
      <trkpt lat="47.58486" lon="6.73885">
        <ele>343</ele>
        <time>2015-11-01T09:53:45.000Z</time>
      </trkpt>
      <trkpt lat="47.58487" lon="6.73881">
        <ele>343</ele>
        <time>2015-11-01T09:53:46.000Z</time>
      </trkpt>
      <trkpt lat="47.58487" lon="6.73876">
        <ele>343</ele>
        <time>2015-11-01T09:53:47.000Z</time>
      </trkpt>
      <trkpt lat="47.58488" lon="6.73872">
        <ele>343</ele>
        <time>2015-11-01T09:53:48.000Z</time>
      </trkpt>
      <trkpt lat="47.58488" lon="6.73869">
        <ele>343</ele>
        <time>2015-11-01T09:53:49.000Z</time>
      </trkpt>
      <trkpt lat="47.58488" lon="6.73866">
        <ele>343</ele>
        <time>2015-11-01T09:53:50.000Z</time>
      </trkpt>
      <trkpt lat="47.58487" lon="6.73859">
        <ele>343</ele>
        <time>2015-11-01T09:53:52.000Z</time>
      </trkpt>
      <trkpt lat="47.58487" lon="6.73856">
        <ele>343</ele>
        <time>2015-11-01T09:53:53.000Z</time>
      </trkpt>
      <trkpt lat="47.58486" lon="6.73852">
        <ele>342</ele>
        <time>2015-11-01T09:53:54.000Z</time>
      </trkpt>
      <trkpt lat="47.58484" lon="6.73847">
        <ele>342</ele>
        <time>2015-11-01T09:53:55.000Z</time>
      </trkpt>
      <trkpt lat="47.58483" lon="6.73843">
        <ele>342</ele>
        <time>2015-11-01T09:53:56.000Z</time>
      </trkpt>
      <trkpt lat="47.58482" lon="6.73839">
        <ele>342</ele>
        <time>2015-11-01T09:53:57.000Z</time>
      </trkpt>
      <trkpt lat="47.5848" lon="6.73835">
        <ele>342</ele>
        <time>2015-11-01T09:53:58.000Z</time>
      </trkpt>
      <trkpt lat="47.58479" lon="6.7383">
        <ele>341</ele>
        <time>2015-11-01T09:53:59.000Z</time>
      </trkpt>
      <trkpt lat="47.58478" lon="6.73826">
        <ele>341</ele>
        <time>2015-11-01T09:54:00.000Z</time>
      </trkpt>
      <trkpt lat="47.58478" lon="6.73821">
        <ele>341</ele>
        <time>2015-11-01T09:54:01.000Z</time>
      </trkpt>
      <trkpt lat="47.58479" lon="6.73816">
        <ele>342</ele>
        <time>2015-11-01T09:54:02.000Z</time>
      </trkpt>
      <trkpt lat="47.5848" lon="6.73811">
        <ele>342</ele>
        <time>2015-11-01T09:54:03.000Z</time>
      </trkpt>
      <trkpt lat="47.58481" lon="6.73805">
        <ele>342</ele>
        <time>2015-11-01T09:54:04.000Z</time>
      </trkpt>
      <trkpt lat="47.58482" lon="6.738">
        <ele>342</ele>
        <time>2015-11-01T09:54:05.000Z</time>
      </trkpt>
      <trkpt lat="47.58484" lon="6.73794">
        <ele>342</ele>
        <time>2015-11-01T09:54:06.000Z</time>
      </trkpt>
      <trkpt lat="47.58485" lon="6.73788">
        <ele>341</ele>
        <time>2015-11-01T09:54:07.000Z</time>
      </trkpt>
      <trkpt lat="47.58486" lon="6.73783">
        <ele>341</ele>
        <time>2015-11-01T09:54:08.000Z</time>
      </trkpt>
      <trkpt lat="47.58488" lon="6.73777">
        <ele>341</ele>
        <time>2015-11-01T09:54:09.000Z</time>
      </trkpt>
      <trkpt lat="47.58489" lon="6.73772">
        <ele>340</ele>
        <time>2015-11-01T09:54:10.000Z</time>
      </trkpt>
      <trkpt lat="47.5849" lon="6.73766">
        <ele>340</ele>
        <time>2015-11-01T09:54:11.000Z</time>
      </trkpt>
      <trkpt lat="47.58491" lon="6.73761">
        <ele>339</ele>
        <time>2015-11-01T09:54:12.000Z</time>
      </trkpt>
      <trkpt lat="47.58492" lon="6.73756">
        <ele>339</ele>
        <time>2015-11-01T09:54:13.000Z</time>
      </trkpt>
      <trkpt lat="47.58492" lon="6.73751">
        <ele>338</ele>
        <time>2015-11-01T09:54:14.000Z</time>
      </trkpt>
      <trkpt lat="47.58493" lon="6.73746">
        <ele>337</ele>
        <time>2015-11-01T09:54:15.000Z</time>
      </trkpt>
      <trkpt lat="47.58494" lon="6.73741">
        <ele>338</ele>
        <time>2015-11-01T09:54:16.000Z</time>
      </trkpt>
      <trkpt lat="47.58496" lon="6.73737">
        <ele>338</ele>
        <time>2015-11-01T09:54:17.000Z</time>
      </trkpt>
      <trkpt lat="47.58498" lon="6.73732">
        <ele>338</ele>
        <time>2015-11-01T09:54:18.000Z</time>
      </trkpt>
      <trkpt lat="47.585" lon="6.73727">
        <ele>338</ele>
        <time>2015-11-01T09:54:19.000Z</time>
      </trkpt>
      <trkpt lat="47.58502" lon="6.73722">
        <ele>334</ele>
        <time>2015-11-01T09:54:20.000Z</time>
      </trkpt>
      <trkpt lat="47.58504" lon="6.73716">
        <ele>334</ele>
        <time>2015-11-01T09:54:21.000Z</time>
      </trkpt>
      <trkpt lat="47.58506" lon="6.73707">
        <ele>334</ele>
        <time>2015-11-01T09:54:22.000Z</time>
      </trkpt>
      <trkpt lat="47.58508" lon="6.73701">
        <ele>334</ele>
        <time>2015-11-01T09:54:23.000Z</time>
      </trkpt>
      <trkpt lat="47.58509" lon="6.73694">
        <ele>334</ele>
        <time>2015-11-01T09:54:24.000Z</time>
      </trkpt>
      <trkpt lat="47.58511" lon="6.73688">
        <ele>334</ele>
        <time>2015-11-01T09:54:25.000Z</time>
      </trkpt>
      <trkpt lat="47.58513" lon="6.73681">
        <ele>334</ele>
        <time>2015-11-01T09:54:26.000Z</time>
      </trkpt>
      <trkpt lat="47.58515" lon="6.73675">
        <ele>334</ele>
        <time>2015-11-01T09:54:27.000Z</time>
      </trkpt>
      <trkpt lat="47.58517" lon="6.73669">
        <ele>334</ele>
        <time>2015-11-01T09:54:28.000Z</time>
      </trkpt>
      <trkpt lat="47.5852" lon="6.73664">
        <ele>334</ele>
        <time>2015-11-01T09:54:29.000Z</time>
      </trkpt>
      <trkpt lat="47.58522" lon="6.73658">
        <ele>334</ele>
        <time>2015-11-01T09:54:30.000Z</time>
      </trkpt>
      <trkpt lat="47.58525" lon="6.73653">
        <ele>334</ele>
        <time>2015-11-01T09:54:31.000Z</time>
      </trkpt>
      <trkpt lat="47.58529" lon="6.73649">
        <ele>333</ele>
        <time>2015-11-01T09:54:32.000Z</time>
      </trkpt>
      <trkpt lat="47.58533" lon="6.73645">
        <ele>333</ele>
        <time>2015-11-01T09:54:33.000Z</time>
      </trkpt>
      <trkpt lat="47.58537" lon="6.73642">
        <ele>333</ele>
        <time>2015-11-01T09:54:34.000Z</time>
      </trkpt>
      <trkpt lat="47.58543" lon="6.7364">
        <ele>333</ele>
        <time>2015-11-01T09:54:35.000Z</time>
      </trkpt>
      <trkpt lat="47.58548" lon="6.73638">
        <ele>333</ele>
        <time>2015-11-01T09:54:36.000Z</time>
      </trkpt>
      <trkpt lat="47.58554" lon="6.73636">
        <ele>333</ele>
        <time>2015-11-01T09:54:37.000Z</time>
      </trkpt>
      <trkpt lat="47.58559" lon="6.73634">
        <ele>333</ele>
        <time>2015-11-01T09:54:38.000Z</time>
      </trkpt>
      <trkpt lat="47.58564" lon="6.73633">
        <ele>332</ele>
        <time>2015-11-01T09:54:39.000Z</time>
      </trkpt>
      <trkpt lat="47.58569" lon="6.73632">
        <ele>332</ele>
        <time>2015-11-01T09:54:40.000Z</time>
      </trkpt>
      <trkpt lat="47.58574" lon="6.7363">
        <ele>332</ele>
        <time>2015-11-01T09:54:41.000Z</time>
      </trkpt>
      <trkpt lat="47.58579" lon="6.73627">
        <ele>332</ele>
        <time>2015-11-01T09:54:42.000Z</time>
      </trkpt>
      <trkpt lat="47.58585" lon="6.73626">
        <ele>331</ele>
        <time>2015-11-01T09:54:43.000Z</time>
      </trkpt>
      <trkpt lat="47.5859" lon="6.73625">
        <ele>331</ele>
        <time>2015-11-01T09:54:44.000Z</time>
      </trkpt>
      <trkpt lat="47.58595" lon="6.73624">
        <ele>331</ele>
        <time>2015-11-01T09:54:45.000Z</time>
      </trkpt>
      <trkpt lat="47.586" lon="6.73623">
        <ele>331</ele>
        <time>2015-11-01T09:54:46.000Z</time>
      </trkpt>
      <trkpt lat="47.58606" lon="6.73622">
        <ele>331</ele>
        <time>2015-11-01T09:54:47.000Z</time>
      </trkpt>
      <trkpt lat="47.58611" lon="6.73622">
        <ele>331</ele>
        <time>2015-11-01T09:54:48.000Z</time>
      </trkpt>
      <trkpt lat="47.58616" lon="6.73621">
        <ele>331</ele>
        <time>2015-11-01T09:54:49.000Z</time>
      </trkpt>
      <trkpt lat="47.58621" lon="6.7362">
        <ele>331</ele>
        <time>2015-11-01T09:54:50.000Z</time>
      </trkpt>
      <trkpt lat="47.58627" lon="6.73619">
        <ele>331</ele>
        <time>2015-11-01T09:54:51.000Z</time>
      </trkpt>
      <trkpt lat="47.58632" lon="6.73618">
        <ele>331</ele>
        <time>2015-11-01T09:54:52.000Z</time>
      </trkpt>
      <trkpt lat="47.58637" lon="6.73617">
        <ele>331</ele>
        <time>2015-11-01T09:54:53.000Z</time>
      </trkpt>
      <trkpt lat="47.58642" lon="6.73616">
        <ele>331</ele>
        <time>2015-11-01T09:54:54.000Z</time>
      </trkpt>
      <trkpt lat="47.58647" lon="6.73615">
        <ele>331</ele>
        <time>2015-11-01T09:54:55.000Z</time>
      </trkpt>
      <trkpt lat="47.58651" lon="6.73613">
        <ele>331</ele>
        <time>2015-11-01T09:54:56.000Z</time>
      </trkpt>
      <trkpt lat="47.58656" lon="6.73612">
        <ele>331</ele>
        <time>2015-11-01T09:54:57.000Z</time>
      </trkpt>
      <trkpt lat="47.5866" lon="6.73611">
        <ele>331</ele>
        <time>2015-11-01T09:54:58.000Z</time>
      </trkpt>
      <trkpt lat="47.58665" lon="6.7361">
        <ele>331</ele>
        <time>2015-11-01T09:54:59.000Z</time>
      </trkpt>
      <trkpt lat="47.5867" lon="6.73608">
        <ele>331</ele>
        <time>2015-11-01T09:55:00.000Z</time>
      </trkpt>
      <trkpt lat="47.58675" lon="6.73607">
        <ele>331</ele>
        <time>2015-11-01T09:55:01.000Z</time>
      </trkpt>
      <trkpt lat="47.58679" lon="6.73606">
        <ele>331</ele>
        <time>2015-11-01T09:55:02.000Z</time>
      </trkpt>
      <trkpt lat="47.58684" lon="6.73605">
        <ele>331</ele>
        <time>2015-11-01T09:55:03.000Z</time>
      </trkpt>
      <trkpt lat="47.58689" lon="6.73604">
        <ele>331</ele>
        <time>2015-11-01T09:55:04.000Z</time>
      </trkpt>
      <trkpt lat="47.58693" lon="6.73605">
        <ele>331</ele>
        <time>2015-11-01T09:55:05.000Z</time>
      </trkpt>
      <trkpt lat="47.58697" lon="6.73607">
        <ele>331</ele>
        <time>2015-11-01T09:55:06.000Z</time>
      </trkpt>
      <trkpt lat="47.58698" lon="6.73615">
        <ele>331</ele>
        <time>2015-11-01T09:55:07.000Z</time>
      </trkpt>
      <trkpt lat="47.58698" lon="6.73623">
        <ele>331</ele>
        <time>2015-11-01T09:55:08.000Z</time>
      </trkpt>
      <trkpt lat="47.58696" lon="6.73629">
        <ele>331</ele>
        <time>2015-11-01T09:55:09.000Z</time>
      </trkpt>
      <trkpt lat="47.58694" lon="6.73635">
        <ele>331</ele>
        <time>2015-11-01T09:55:10.000Z</time>
      </trkpt>
      <trkpt lat="47.5869" lon="6.7364">
        <ele>331</ele>
        <time>2015-11-01T09:55:11.000Z</time>
      </trkpt>
      <trkpt lat="47.58688" lon="6.73645">
        <ele>331</ele>
        <time>2015-11-01T09:55:12.000Z</time>
      </trkpt>
      <trkpt lat="47.58685" lon="6.73651">
        <ele>331</ele>
        <time>2015-11-01T09:55:13.000Z</time>
      </trkpt>
      <trkpt lat="47.58681" lon="6.73657">
        <ele>331</ele>
        <time>2015-11-01T09:55:14.000Z</time>
      </trkpt>
      <trkpt lat="47.58679" lon="6.73664">
        <ele>332</ele>
        <time>2015-11-01T09:55:15.000Z</time>
      </trkpt>
      <trkpt lat="47.58675" lon="6.73669">
        <ele>331</ele>
        <time>2015-11-01T09:55:16.000Z</time>
      </trkpt>
      <trkpt lat="47.58672" lon="6.73675">
        <ele>331</ele>
        <time>2015-11-01T09:55:17.000Z</time>
      </trkpt>
      <trkpt lat="47.58668" lon="6.73681">
        <ele>331</ele>
        <time>2015-11-01T09:55:18.000Z</time>
      </trkpt>
      <trkpt lat="47.58665" lon="6.73688">
        <ele>331</ele>
        <time>2015-11-01T09:55:19.000Z</time>
      </trkpt>
      <trkpt lat="47.58662" lon="6.73694">
        <ele>331</ele>
        <time>2015-11-01T09:55:20.000Z</time>
      </trkpt>
      <trkpt lat="47.58659" lon="6.737">
        <ele>331</ele>
        <time>2015-11-01T09:55:21.000Z</time>
      </trkpt>
      <trkpt lat="47.58657" lon="6.73706">
        <ele>331</ele>
        <time>2015-11-01T09:55:22.000Z</time>
      </trkpt>
      <trkpt lat="47.58655" lon="6.73711">
        <ele>331</ele>
        <time>2015-11-01T09:55:23.000Z</time>
      </trkpt>
      <trkpt lat="47.58654" lon="6.73716">
        <ele>331</ele>
        <time>2015-11-01T09:55:24.000Z</time>
      </trkpt>
      <trkpt lat="47.58653" lon="6.7372">
        <ele>331</ele>
        <time>2015-11-01T09:55:25.000Z</time>
      </trkpt>
      <trkpt lat="47.58655" lon="6.73723">
        <ele>331</ele>
        <time>2015-11-01T09:55:26.000Z</time>
      </trkpt>
      <trkpt lat="47.58653" lon="6.73727">
        <ele>331</ele>
        <time>2015-11-01T09:55:29.000Z</time>
      </trkpt>
      <trkpt lat="47.58652" lon="6.73728">
        <ele>331</ele>
        <time>2015-11-01T09:55:30.000Z</time>
      </trkpt>
      <trkpt lat="47.58649" lon="6.73731">
        <ele>331</ele>
        <time>2015-11-01T09:55:31.000Z</time>
      </trkpt>
      <trkpt lat="47.58648" lon="6.73733">
        <ele>330</ele>
        <time>2015-11-01T09:55:32.000Z</time>
      </trkpt>
      <trkpt lat="47.58646" lon="6.73736">
        <ele>330</ele>
        <time>2015-11-01T09:55:33.000Z</time>
      </trkpt>
      <trkpt lat="47.58644" lon="6.7374">
        <ele>330</ele>
        <time>2015-11-01T09:55:34.000Z</time>
      </trkpt>
      <trkpt lat="47.58643" lon="6.73744">
        <ele>330</ele>
        <time>2015-11-01T09:55:35.000Z</time>
      </trkpt>
      <trkpt lat="47.58642" lon="6.73748">
        <ele>330</ele>
        <time>2015-11-01T09:55:36.000Z</time>
      </trkpt>
      <trkpt lat="47.5864" lon="6.73753">
        <ele>330</ele>
        <time>2015-11-01T09:55:37.000Z</time>
      </trkpt>
      <trkpt lat="47.58639" lon="6.73757">
        <ele>330</ele>
        <time>2015-11-01T09:55:38.000Z</time>
      </trkpt>
      <trkpt lat="47.58638" lon="6.73761">
        <ele>330</ele>
        <time>2015-11-01T09:55:39.000Z</time>
      </trkpt>
      <trkpt lat="47.58637" lon="6.73764">
        <ele>330</ele>
        <time>2015-11-01T09:55:40.000Z</time>
      </trkpt>
      <trkpt lat="47.58636" lon="6.73767">
        <ele>330</ele>
        <time>2015-11-01T09:55:41.000Z</time>
      </trkpt>
      <trkpt lat="47.58634" lon="6.73771">
        <ele>330</ele>
        <time>2015-11-01T09:55:42.000Z</time>
      </trkpt>
      <trkpt lat="47.58633" lon="6.73775">
        <ele>330</ele>
        <time>2015-11-01T09:55:43.000Z</time>
      </trkpt>
      <trkpt lat="47.58632" lon="6.73779">
        <ele>330</ele>
        <time>2015-11-01T09:55:44.000Z</time>
      </trkpt>
      <trkpt lat="47.58631" lon="6.73783">
        <ele>330</ele>
        <time>2015-11-01T09:55:45.000Z</time>
      </trkpt>
      <trkpt lat="47.58629" lon="6.73788">
        <ele>329</ele>
        <time>2015-11-01T09:55:46.000Z</time>
      </trkpt>
      <trkpt lat="47.58628" lon="6.73794">
        <ele>329</ele>
        <time>2015-11-01T09:55:47.000Z</time>
      </trkpt>
      <trkpt lat="47.58626" lon="6.73799">
        <ele>329</ele>
        <time>2015-11-01T09:55:48.000Z</time>
      </trkpt>
      <trkpt lat="47.58624" lon="6.73805">
        <ele>329</ele>
        <time>2015-11-01T09:55:49.000Z</time>
      </trkpt>
      <trkpt lat="47.58622" lon="6.7381">
        <ele>329</ele>
        <time>2015-11-01T09:55:50.000Z</time>
      </trkpt>
      <trkpt lat="47.58621" lon="6.73815">
        <ele>329</ele>
        <time>2015-11-01T09:55:51.000Z</time>
      </trkpt>
      <trkpt lat="47.58619" lon="6.7382">
        <ele>329</ele>
        <time>2015-11-01T09:55:52.000Z</time>
      </trkpt>
      <trkpt lat="47.58618" lon="6.73826">
        <ele>329</ele>
        <time>2015-11-01T09:55:53.000Z</time>
      </trkpt>
      <trkpt lat="47.58616" lon="6.73831">
        <ele>329</ele>
        <time>2015-11-01T09:55:54.000Z</time>
      </trkpt>
      <trkpt lat="47.58615" lon="6.73836">
        <ele>329</ele>
        <time>2015-11-01T09:55:55.000Z</time>
      </trkpt>
      <trkpt lat="47.58613" lon="6.73841">
        <ele>329</ele>
        <time>2015-11-01T09:55:56.000Z</time>
      </trkpt>
      <trkpt lat="47.58612" lon="6.73847">
        <ele>329</ele>
        <time>2015-11-01T09:55:57.000Z</time>
      </trkpt>
      <trkpt lat="47.58611" lon="6.73852">
        <ele>329</ele>
        <time>2015-11-01T09:55:58.000Z</time>
      </trkpt>
      <trkpt lat="47.58609" lon="6.73857">
        <ele>329</ele>
        <time>2015-11-01T09:55:59.000Z</time>
      </trkpt>
      <trkpt lat="47.58608" lon="6.73862">
        <ele>329</ele>
        <time>2015-11-01T09:56:00.000Z</time>
      </trkpt>
      <trkpt lat="47.58607" lon="6.73867">
        <ele>329</ele>
        <time>2015-11-01T09:56:01.000Z</time>
      </trkpt>
      <trkpt lat="47.58606" lon="6.73872">
        <ele>329</ele>
        <time>2015-11-01T09:56:02.000Z</time>
      </trkpt>
      <trkpt lat="47.58605" lon="6.73877">
        <ele>329</ele>
        <time>2015-11-01T09:56:03.000Z</time>
      </trkpt>
      <trkpt lat="47.58604" lon="6.73882">
        <ele>329</ele>
        <time>2015-11-01T09:56:04.000Z</time>
      </trkpt>
      <trkpt lat="47.58604" lon="6.73886">
        <ele>329</ele>
        <time>2015-11-01T09:56:05.000Z</time>
      </trkpt>
      <trkpt lat="47.58603" lon="6.7389">
        <ele>329</ele>
        <time>2015-11-01T09:56:06.000Z</time>
      </trkpt>
      <trkpt lat="47.58601" lon="6.73895">
        <ele>329</ele>
        <time>2015-11-01T09:56:08.000Z</time>
      </trkpt>
      <trkpt lat="47.58601" lon="6.73898">
        <ele>329</ele>
        <time>2015-11-01T09:56:09.000Z</time>
      </trkpt>
      <trkpt lat="47.586" lon="6.73902">
        <ele>329</ele>
        <time>2015-11-01T09:56:10.000Z</time>
      </trkpt>
      <trkpt lat="47.58599" lon="6.73906">
        <ele>329</ele>
        <time>2015-11-01T09:56:11.000Z</time>
      </trkpt>
      <trkpt lat="47.58597" lon="6.7391">
        <ele>329</ele>
        <time>2015-11-01T09:56:12.000Z</time>
      </trkpt>
      <trkpt lat="47.58596" lon="6.73915">
        <ele>329</ele>
        <time>2015-11-01T09:56:13.000Z</time>
      </trkpt>
      <trkpt lat="47.58595" lon="6.73919">
        <ele>329</ele>
        <time>2015-11-01T09:56:14.000Z</time>
      </trkpt>
      <trkpt lat="47.58594" lon="6.73924">
        <ele>329</ele>
        <time>2015-11-01T09:56:15.000Z</time>
      </trkpt>
      <trkpt lat="47.58593" lon="6.73929">
        <ele>329</ele>
        <time>2015-11-01T09:56:16.000Z</time>
      </trkpt>
      <trkpt lat="47.58591" lon="6.73935">
        <ele>329</ele>
        <time>2015-11-01T09:56:17.000Z</time>
      </trkpt>
      <trkpt lat="47.5859" lon="6.7394">
        <ele>329</ele>
        <time>2015-11-01T09:56:18.000Z</time>
      </trkpt>
      <trkpt lat="47.58589" lon="6.73945">
        <ele>329</ele>
        <time>2015-11-01T09:56:19.000Z</time>
      </trkpt>
      <trkpt lat="47.58587" lon="6.73951">
        <ele>329</ele>
        <time>2015-11-01T09:56:20.000Z</time>
      </trkpt>
      <trkpt lat="47.58585" lon="6.73956">
        <ele>329</ele>
        <time>2015-11-01T09:56:21.000Z</time>
      </trkpt>
      <trkpt lat="47.58584" lon="6.73961">
        <ele>329</ele>
        <time>2015-11-01T09:56:22.000Z</time>
      </trkpt>
      <trkpt lat="47.58582" lon="6.73966">
        <ele>331</ele>
        <time>2015-11-01T09:56:23.000Z</time>
      </trkpt>
      <trkpt lat="47.5858" lon="6.73971">
        <ele>331</ele>
        <time>2015-11-01T09:56:24.000Z</time>
      </trkpt>
      <trkpt lat="47.58578" lon="6.73975">
        <ele>331</ele>
        <time>2015-11-01T09:56:25.000Z</time>
      </trkpt>
      <trkpt lat="47.58576" lon="6.73979">
        <ele>331</ele>
        <time>2015-11-01T09:56:26.000Z</time>
      </trkpt>
      <trkpt lat="47.58574" lon="6.73983">
        <ele>331</ele>
        <time>2015-11-01T09:56:27.000Z</time>
      </trkpt>
      <trkpt lat="47.58572" lon="6.73988">
        <ele>331</ele>
        <time>2015-11-01T09:56:28.000Z</time>
      </trkpt>
      <trkpt lat="47.5857" lon="6.73992">
        <ele>331</ele>
        <time>2015-11-01T09:56:29.000Z</time>
      </trkpt>
      <trkpt lat="47.58568" lon="6.73996">
        <ele>331</ele>
        <time>2015-11-01T09:56:30.000Z</time>
      </trkpt>
      <trkpt lat="47.58566" lon="6.74001">
        <ele>330</ele>
        <time>2015-11-01T09:56:31.000Z</time>
      </trkpt>
      <trkpt lat="47.58564" lon="6.74005">
        <ele>330</ele>
        <time>2015-11-01T09:56:32.000Z</time>
      </trkpt>
      <trkpt lat="47.58561" lon="6.74009">
        <ele>330</ele>
        <time>2015-11-01T09:56:33.000Z</time>
      </trkpt>
      <trkpt lat="47.58559" lon="6.74013">
        <ele>330</ele>
        <time>2015-11-01T09:56:34.000Z</time>
      </trkpt>
      <trkpt lat="47.58557" lon="6.74016">
        <ele>331</ele>
        <time>2015-11-01T09:56:35.000Z</time>
      </trkpt>
      <trkpt lat="47.58554" lon="6.74018">
        <ele>331</ele>
        <time>2015-11-01T09:56:36.000Z</time>
      </trkpt>
      <trkpt lat="47.5855" lon="6.74017">
        <ele>331</ele>
        <time>2015-11-01T09:56:37.000Z</time>
      </trkpt>
      <trkpt lat="47.58549" lon="6.74003">
        <ele>331</ele>
        <time>2015-11-01T09:56:38.000Z</time>
      </trkpt>
      <trkpt lat="47.58551" lon="6.73995">
        <ele>332</ele>
        <time>2015-11-01T09:56:39.000Z</time>
      </trkpt>
      <trkpt lat="47.58553" lon="6.73989">
        <ele>332</ele>
        <time>2015-11-01T09:56:40.000Z</time>
      </trkpt>
      <trkpt lat="47.58556" lon="6.73982">
        <ele>332</ele>
        <time>2015-11-01T09:56:41.000Z</time>
      </trkpt>
      <trkpt lat="47.58559" lon="6.73976">
        <ele>331</ele>
        <time>2015-11-01T09:56:42.000Z</time>
      </trkpt>
      <trkpt lat="47.58563" lon="6.73971">
        <ele>331</ele>
        <time>2015-11-01T09:56:43.000Z</time>
      </trkpt>
      <trkpt lat="47.58566" lon="6.73966">
        <ele>331</ele>
        <time>2015-11-01T09:56:44.000Z</time>
      </trkpt>
      <trkpt lat="47.58568" lon="6.7396">
        <ele>331</ele>
        <time>2015-11-01T09:56:45.000Z</time>
      </trkpt>
      <trkpt lat="47.58571" lon="6.73955">
        <ele>331</ele>
        <time>2015-11-01T09:56:46.000Z</time>
      </trkpt>
      <trkpt lat="47.58575" lon="6.7395">
        <ele>331</ele>
        <time>2015-11-01T09:56:47.000Z</time>
      </trkpt>
      <trkpt lat="47.58579" lon="6.73947">
        <ele>331</ele>
        <time>2015-11-01T09:56:48.000Z</time>
      </trkpt>
      <trkpt lat="47.58583" lon="6.73943">
        <ele>331</ele>
        <time>2015-11-01T09:56:49.000Z</time>
      </trkpt>
      <trkpt lat="47.58587" lon="6.73941">
        <ele>329</ele>
        <time>2015-11-01T09:56:50.000Z</time>
      </trkpt>
      <trkpt lat="47.58591" lon="6.73939">
        <ele>329</ele>
        <time>2015-11-01T09:56:51.000Z</time>
      </trkpt>
      <trkpt lat="47.58595" lon="6.73937">
        <ele>329</ele>
        <time>2015-11-01T09:56:52.000Z</time>
      </trkpt>
      <trkpt lat="47.58598" lon="6.73938">
        <ele>329</ele>
        <time>2015-11-01T09:56:53.000Z</time>
      </trkpt>
      <trkpt lat="47.58602" lon="6.73939">
        <ele>329</ele>
        <time>2015-11-01T09:56:54.000Z</time>
      </trkpt>
      <trkpt lat="47.58606" lon="6.7394">
        <ele>329</ele>
        <time>2015-11-01T09:56:55.000Z</time>
      </trkpt>
      <trkpt lat="47.58609" lon="6.73941">
        <ele>329</ele>
        <time>2015-11-01T09:56:56.000Z</time>
      </trkpt>
      <trkpt lat="47.58613" lon="6.73941">
        <ele>329</ele>
        <time>2015-11-01T09:56:57.000Z</time>
      </trkpt>
      <trkpt lat="47.58615" lon="6.73941">
        <ele>329</ele>
        <time>2015-11-01T09:56:58.000Z</time>
      </trkpt>
      <trkpt lat="47.58618" lon="6.73945">
        <ele>329</ele>
        <time>2015-11-01T09:56:59.000Z</time>
      </trkpt>
      <trkpt lat="47.58621" lon="6.73951">
        <ele>329</ele>
        <time>2015-11-01T09:57:00.000Z</time>
      </trkpt>
      <trkpt lat="47.58623" lon="6.73956">
        <ele>329</ele>
        <time>2015-11-01T09:57:01.000Z</time>
      </trkpt>
      <trkpt lat="47.58625" lon="6.73963">
        <ele>329</ele>
        <time>2015-11-01T09:57:02.000Z</time>
      </trkpt>
      <trkpt lat="47.58627" lon="6.7397">
        <ele>329</ele>
        <time>2015-11-01T09:57:03.000Z</time>
      </trkpt>
      <trkpt lat="47.58628" lon="6.73977">
        <ele>329</ele>
        <time>2015-11-01T09:57:04.000Z</time>
      </trkpt>
      <trkpt lat="47.58628" lon="6.73983">
        <ele>329</ele>
        <time>2015-11-01T09:57:05.000Z</time>
      </trkpt>
      <trkpt lat="47.58629" lon="6.7399">
        <ele>329</ele>
        <time>2015-11-01T09:57:06.000Z</time>
      </trkpt>
      <trkpt lat="47.5863" lon="6.73997">
        <ele>329</ele>
        <time>2015-11-01T09:57:07.000Z</time>
      </trkpt>
      <trkpt lat="47.5863" lon="6.74004">
        <ele>329</ele>
        <time>2015-11-01T09:57:08.000Z</time>
      </trkpt>
      <trkpt lat="47.58631" lon="6.74011">
        <ele>329</ele>
        <time>2015-11-01T09:57:09.000Z</time>
      </trkpt>
      <trkpt lat="47.58632" lon="6.74018">
        <ele>329</ele>
        <time>2015-11-01T09:57:10.000Z</time>
      </trkpt>
      <trkpt lat="47.58632" lon="6.74025">
        <ele>329</ele>
        <time>2015-11-01T09:57:11.000Z</time>
      </trkpt>
      <trkpt lat="47.58631" lon="6.74032">
        <ele>329</ele>
        <time>2015-11-01T09:57:12.000Z</time>
      </trkpt>
      <trkpt lat="47.58631" lon="6.74039">
        <ele>329</ele>
        <time>2015-11-01T09:57:13.000Z</time>
      </trkpt>
      <trkpt lat="47.58629" lon="6.74046">
        <ele>329</ele>
        <time>2015-11-01T09:57:14.000Z</time>
      </trkpt>
      <trkpt lat="47.58628" lon="6.74052">
        <ele>329</ele>
        <time>2015-11-01T09:57:15.000Z</time>
      </trkpt>
      <trkpt lat="47.58626" lon="6.74059">
        <ele>329</ele>
        <time>2015-11-01T09:57:16.000Z</time>
      </trkpt>
      <trkpt lat="47.58624" lon="6.74067">
        <ele>329</ele>
        <time>2015-11-01T09:57:17.000Z</time>
      </trkpt>
      <trkpt lat="47.58623" lon="6.74074">
        <ele>329</ele>
        <time>2015-11-01T09:57:18.000Z</time>
      </trkpt>
      <trkpt lat="47.58621" lon="6.7408">
        <ele>329</ele>
        <time>2015-11-01T09:57:19.000Z</time>
      </trkpt>
      <trkpt lat="47.5862" lon="6.74086">
        <ele>329</ele>
        <time>2015-11-01T09:57:20.000Z</time>
      </trkpt>
      <trkpt lat="47.58618" lon="6.74093">
        <ele>329</ele>
        <time>2015-11-01T09:57:21.000Z</time>
      </trkpt>
      <trkpt lat="47.58617" lon="6.741">
        <ele>329</ele>
        <time>2015-11-01T09:57:22.000Z</time>
      </trkpt>
      <trkpt lat="47.58615" lon="6.74106">
        <ele>329</ele>
        <time>2015-11-01T09:57:23.000Z</time>
      </trkpt>
      <trkpt lat="47.58613" lon="6.74112">
        <ele>329</ele>
        <time>2015-11-01T09:57:24.000Z</time>
      </trkpt>
      <trkpt lat="47.58611" lon="6.74118">
        <ele>329</ele>
        <time>2015-11-01T09:57:25.000Z</time>
      </trkpt>
      <trkpt lat="47.58609" lon="6.74124">
        <ele>329</ele>
        <time>2015-11-01T09:57:26.000Z</time>
      </trkpt>
      <trkpt lat="47.58607" lon="6.7413">
        <ele>329</ele>
        <time>2015-11-01T09:57:27.000Z</time>
      </trkpt>
      <trkpt lat="47.58605" lon="6.74136">
        <ele>329</ele>
        <time>2015-11-01T09:57:28.000Z</time>
      </trkpt>
      <trkpt lat="47.58602" lon="6.74141">
        <ele>329</ele>
        <time>2015-11-01T09:57:29.000Z</time>
      </trkpt>
      <trkpt lat="47.586" lon="6.74147">
        <ele>329</ele>
        <time>2015-11-01T09:57:30.000Z</time>
      </trkpt>
      <trkpt lat="47.58598" lon="6.74151">
        <ele>329</ele>
        <time>2015-11-01T09:57:31.000Z</time>
      </trkpt>
      <trkpt lat="47.58595" lon="6.74156">
        <ele>329</ele>
        <time>2015-11-01T09:57:32.000Z</time>
      </trkpt>
      <trkpt lat="47.58592" lon="6.74162">
        <ele>329</ele>
        <time>2015-11-01T09:57:33.000Z</time>
      </trkpt>
      <trkpt lat="47.5859" lon="6.74168">
        <ele>329</ele>
        <time>2015-11-01T09:57:34.000Z</time>
      </trkpt>
      <trkpt lat="47.58587" lon="6.74174">
        <ele>329</ele>
        <time>2015-11-01T09:57:35.000Z</time>
      </trkpt>
      <trkpt lat="47.58584" lon="6.74179">
        <ele>329</ele>
        <time>2015-11-01T09:57:36.000Z</time>
      </trkpt>
      <trkpt lat="47.58582" lon="6.74185">
        <ele>330</ele>
        <time>2015-11-01T09:57:37.000Z</time>
      </trkpt>
      <trkpt lat="47.5858" lon="6.74191">
        <ele>330</ele>
        <time>2015-11-01T09:57:38.000Z</time>
      </trkpt>
      <trkpt lat="47.58578" lon="6.74198">
        <ele>330</ele>
        <time>2015-11-01T09:57:39.000Z</time>
      </trkpt>
      <trkpt lat="47.58577" lon="6.74204">
        <ele>330</ele>
        <time>2015-11-01T09:57:40.000Z</time>
      </trkpt>
      <trkpt lat="47.58576" lon="6.74211">
        <ele>330</ele>
        <time>2015-11-01T09:57:41.000Z</time>
      </trkpt>
      <trkpt lat="47.58575" lon="6.74218">
        <ele>330</ele>
        <time>2015-11-01T09:57:42.000Z</time>
      </trkpt>
      <trkpt lat="47.58574" lon="6.74226">
        <ele>330</ele>
        <time>2015-11-01T09:57:43.000Z</time>
      </trkpt>
      <trkpt lat="47.58572" lon="6.74233">
        <ele>330</ele>
        <time>2015-11-01T09:57:44.000Z</time>
      </trkpt>
      <trkpt lat="47.58571" lon="6.74241">
        <ele>330</ele>
        <time>2015-11-01T09:57:45.000Z</time>
      </trkpt>
      <trkpt lat="47.58569" lon="6.74247">
        <ele>330</ele>
        <time>2015-11-01T09:57:46.000Z</time>
      </trkpt>
      <trkpt lat="47.58568" lon="6.74254">
        <ele>332</ele>
        <time>2015-11-01T09:57:47.000Z</time>
      </trkpt>
      <trkpt lat="47.58567" lon="6.74259">
        <ele>332</ele>
        <time>2015-11-01T09:57:48.000Z</time>
      </trkpt>
      <trkpt lat="47.58565" lon="6.74265">
        <ele>333</ele>
        <time>2015-11-01T09:57:49.000Z</time>
      </trkpt>
      <trkpt lat="47.58564" lon="6.7427">
        <ele>333</ele>
        <time>2015-11-01T09:57:50.000Z</time>
      </trkpt>
      <trkpt lat="47.58562" lon="6.74275">
        <ele>334</ele>
        <time>2015-11-01T09:57:51.000Z</time>
      </trkpt>
      <trkpt lat="47.58561" lon="6.7428">
        <ele>334</ele>
        <time>2015-11-01T09:57:52.000Z</time>
      </trkpt>
      <trkpt lat="47.5856" lon="6.74284">
        <ele>334</ele>
        <time>2015-11-01T09:57:53.000Z</time>
      </trkpt>
      <trkpt lat="47.58559" lon="6.74288">
        <ele>334</ele>
        <time>2015-11-01T09:57:54.000Z</time>
      </trkpt>
      <trkpt lat="47.58558" lon="6.74292">
        <ele>335</ele>
        <time>2015-11-01T09:57:55.000Z</time>
      </trkpt>
      <trkpt lat="47.58557" lon="6.74295">
        <ele>335</ele>
        <time>2015-11-01T09:57:56.000Z</time>
      </trkpt>
      <trkpt lat="47.58556" lon="6.74299">
        <ele>335</ele>
        <time>2015-11-01T09:57:57.000Z</time>
      </trkpt>
      <trkpt lat="47.58555" lon="6.74302">
        <ele>335</ele>
        <time>2015-11-01T09:57:58.000Z</time>
      </trkpt>
      <trkpt lat="47.58554" lon="6.74306">
        <ele>335</ele>
        <time>2015-11-01T09:57:59.000Z</time>
      </trkpt>
      <trkpt lat="47.58552" lon="6.74309">
        <ele>335</ele>
        <time>2015-11-01T09:58:00.000Z</time>
      </trkpt>
      <trkpt lat="47.58551" lon="6.74313">
        <ele>336</ele>
        <time>2015-11-01T09:58:01.000Z</time>
      </trkpt>
      <trkpt lat="47.5855" lon="6.74316">
        <ele>336</ele>
        <time>2015-11-01T09:58:02.000Z</time>
      </trkpt>
      <trkpt lat="47.58549" lon="6.74319">
        <ele>336</ele>
        <time>2015-11-01T09:58:03.000Z</time>
      </trkpt>
      <trkpt lat="47.58548" lon="6.74323">
        <ele>336</ele>
        <time>2015-11-01T09:58:04.000Z</time>
      </trkpt>
      <trkpt lat="47.58547" lon="6.74326">
        <ele>336</ele>
        <time>2015-11-01T09:58:05.000Z</time>
      </trkpt>
      <trkpt lat="47.58546" lon="6.7433">
        <ele>336</ele>
        <time>2015-11-01T09:58:06.000Z</time>
      </trkpt>
      <trkpt lat="47.58546" lon="6.74334">
        <ele>340</ele>
        <time>2015-11-01T09:58:07.000Z</time>
      </trkpt>
      <trkpt lat="47.58545" lon="6.74338">
        <ele>341</ele>
        <time>2015-11-01T09:58:08.000Z</time>
      </trkpt>
      <trkpt lat="47.58544" lon="6.74341">
        <ele>341</ele>
        <time>2015-11-01T09:58:09.000Z</time>
      </trkpt>
      <trkpt lat="47.58543" lon="6.74345">
        <ele>341</ele>
        <time>2015-11-01T09:58:10.000Z</time>
      </trkpt>
      <trkpt lat="47.58543" lon="6.74349">
        <ele>341</ele>
        <time>2015-11-01T09:58:11.000Z</time>
      </trkpt>
      <trkpt lat="47.58542" lon="6.74353">
        <ele>341</ele>
        <time>2015-11-01T09:58:12.000Z</time>
      </trkpt>
      <trkpt lat="47.58541" lon="6.74356">
        <ele>341</ele>
        <time>2015-11-01T09:58:13.000Z</time>
      </trkpt>
      <trkpt lat="47.58541" lon="6.7436">
        <ele>342</ele>
        <time>2015-11-01T09:58:14.000Z</time>
      </trkpt>
      <trkpt lat="47.5854" lon="6.74363">
        <ele>342</ele>
        <time>2015-11-01T09:58:15.000Z</time>
      </trkpt>
      <trkpt lat="47.58539" lon="6.74367">
        <ele>342</ele>
        <time>2015-11-01T09:58:16.000Z</time>
      </trkpt>
      <trkpt lat="47.58539" lon="6.7437">
        <ele>342</ele>
        <time>2015-11-01T09:58:17.000Z</time>
      </trkpt>
      <trkpt lat="47.58538" lon="6.74376">
        <ele>342</ele>
        <time>2015-11-01T09:58:19.000Z</time>
      </trkpt>
      <trkpt lat="47.58538" lon="6.74379">
        <ele>342</ele>
        <time>2015-11-01T09:58:20.000Z</time>
      </trkpt>
      <trkpt lat="47.58537" lon="6.74385">
        <ele>343</ele>
        <time>2015-11-01T09:58:22.000Z</time>
      </trkpt>
      <trkpt lat="47.58537" lon="6.74388">
        <ele>343</ele>
        <time>2015-11-01T09:58:23.000Z</time>
      </trkpt>
      <trkpt lat="47.58536" lon="6.74395">
        <ele>343</ele>
        <time>2015-11-01T09:58:25.000Z</time>
      </trkpt>
      <trkpt lat="47.58536" lon="6.74398">
        <ele>343</ele>
        <time>2015-11-01T09:58:26.000Z</time>
      </trkpt>
      <trkpt lat="47.58535" lon="6.74404">
        <ele>343</ele>
        <time>2015-11-01T09:58:28.000Z</time>
      </trkpt>
      <trkpt lat="47.58535" lon="6.74407">
        <ele>343</ele>
        <time>2015-11-01T09:58:29.000Z</time>
      </trkpt>
      <trkpt lat="47.58534" lon="6.74413">
        <ele>344</ele>
        <time>2015-11-01T09:58:31.000Z</time>
      </trkpt>
      <trkpt lat="47.58534" lon="6.74416">
        <ele>344</ele>
        <time>2015-11-01T09:58:32.000Z</time>
      </trkpt>
      <trkpt lat="47.58533" lon="6.74422">
        <ele>347</ele>
        <time>2015-11-01T09:58:34.000Z</time>
      </trkpt>
      <trkpt lat="47.58533" lon="6.74425">
        <ele>347</ele>
        <time>2015-11-01T09:58:35.000Z</time>
      </trkpt>
      <trkpt lat="47.58532" lon="6.74432">
        <ele>347</ele>
        <time>2015-11-01T09:58:37.000Z</time>
      </trkpt>
      <trkpt lat="47.58532" lon="6.74435">
        <ele>348</ele>
        <time>2015-11-01T09:58:38.000Z</time>
      </trkpt>
      <trkpt lat="47.58532" lon="6.74441">
        <ele>348</ele>
        <time>2015-11-01T09:58:40.000Z</time>
      </trkpt>
      <trkpt lat="47.58531" lon="6.74444">
        <ele>348</ele>
        <time>2015-11-01T09:58:41.000Z</time>
      </trkpt>
      <trkpt lat="47.58531" lon="6.7445">
        <ele>348</ele>
        <time>2015-11-01T09:58:43.000Z</time>
      </trkpt>
      <trkpt lat="47.58531" lon="6.74453">
        <ele>348</ele>
        <time>2015-11-01T09:58:44.000Z</time>
      </trkpt>
      <trkpt lat="47.58531" lon="6.74459">
        <ele>348</ele>
        <time>2015-11-01T09:58:46.000Z</time>
      </trkpt>
      <trkpt lat="47.5853" lon="6.74463">
        <ele>348</ele>
        <time>2015-11-01T09:58:47.000Z</time>
      </trkpt>
      <trkpt lat="47.5853" lon="6.74466">
        <ele>348</ele>
        <time>2015-11-01T09:58:48.000Z</time>
      </trkpt>
      <trkpt lat="47.5853" lon="6.7447">
        <ele>349</ele>
        <time>2015-11-01T09:58:49.000Z</time>
      </trkpt>
      <trkpt lat="47.5853" lon="6.74473">
        <ele>349</ele>
        <time>2015-11-01T09:58:50.000Z</time>
      </trkpt>
      <trkpt lat="47.5853" lon="6.74476">
        <ele>349</ele>
        <time>2015-11-01T09:58:51.000Z</time>
      </trkpt>
      <trkpt lat="47.58529" lon="6.7448">
        <ele>349</ele>
        <time>2015-11-01T09:58:52.000Z</time>
      </trkpt>
      <trkpt lat="47.58529" lon="6.74483">
        <ele>349</ele>
        <time>2015-11-01T09:58:53.000Z</time>
      </trkpt>
      <trkpt lat="47.58529" lon="6.74487">
        <ele>349</ele>
        <time>2015-11-01T09:58:54.000Z</time>
      </trkpt>
      <trkpt lat="47.58529" lon="6.7449">
        <ele>349</ele>
        <time>2015-11-01T09:58:55.000Z</time>
      </trkpt>
      <trkpt lat="47.58529" lon="6.74494">
        <ele>349</ele>
        <time>2015-11-01T09:58:56.000Z</time>
      </trkpt>
      <trkpt lat="47.58529" lon="6.74497">
        <ele>349</ele>
        <time>2015-11-01T09:58:57.000Z</time>
      </trkpt>
      <trkpt lat="47.58529" lon="6.74503">
        <ele>352</ele>
        <time>2015-11-01T09:58:59.000Z</time>
      </trkpt>
      <trkpt lat="47.58528" lon="6.74507">
        <ele>352</ele>
        <time>2015-11-01T09:59:00.000Z</time>
      </trkpt>
      <trkpt lat="47.58528" lon="6.74513">
        <ele>352</ele>
        <time>2015-11-01T09:59:02.000Z</time>
      </trkpt>
      <trkpt lat="47.58528" lon="6.74516">
        <ele>353</ele>
        <time>2015-11-01T09:59:03.000Z</time>
      </trkpt>
      <trkpt lat="47.58527" lon="6.74523">
        <ele>353</ele>
        <time>2015-11-01T09:59:05.000Z</time>
      </trkpt>
      <trkpt lat="47.58527" lon="6.74526">
        <ele>353</ele>
        <time>2015-11-01T09:59:06.000Z</time>
      </trkpt>
      <trkpt lat="47.58527" lon="6.74532">
        <ele>353</ele>
        <time>2015-11-01T09:59:08.000Z</time>
      </trkpt>
      <trkpt lat="47.58526" lon="6.74535">
        <ele>353</ele>
        <time>2015-11-01T09:59:09.000Z</time>
      </trkpt>
      <trkpt lat="47.58526" lon="6.74542">
        <ele>353</ele>
        <time>2015-11-01T09:59:11.000Z</time>
      </trkpt>
      <trkpt lat="47.58526" lon="6.74545">
        <ele>353</ele>
        <time>2015-11-01T09:59:12.000Z</time>
      </trkpt>
      <trkpt lat="47.58526" lon="6.74552">
        <ele>353</ele>
        <time>2015-11-01T09:59:14.000Z</time>
      </trkpt>
      <trkpt lat="47.58526" lon="6.74555">
        <ele>353</ele>
        <time>2015-11-01T09:59:15.000Z</time>
      </trkpt>
      <trkpt lat="47.58526" lon="6.74558">
        <ele>353</ele>
        <time>2015-11-01T09:59:16.000Z</time>
      </trkpt>
      <trkpt lat="47.58526" lon="6.74562">
        <ele>353</ele>
        <time>2015-11-01T09:59:17.000Z</time>
      </trkpt>
      <trkpt lat="47.58526" lon="6.74565">
        <ele>354</ele>
        <time>2015-11-01T09:59:18.000Z</time>
      </trkpt>
      <trkpt lat="47.58526" lon="6.74568">
        <ele>354</ele>
        <time>2015-11-01T09:59:19.000Z</time>
      </trkpt>
      <trkpt lat="47.58526" lon="6.74575">
        <ele>354</ele>
        <time>2015-11-01T09:59:21.000Z</time>
      </trkpt>
      <trkpt lat="47.58526" lon="6.74578">
        <ele>354</ele>
        <time>2015-11-01T09:59:22.000Z</time>
      </trkpt>
      <trkpt lat="47.58526" lon="6.74584">
        <ele>356</ele>
        <time>2015-11-01T09:59:24.000Z</time>
      </trkpt>
      <trkpt lat="47.58526" lon="6.74587">
        <ele>356</ele>
        <time>2015-11-01T09:59:25.000Z</time>
      </trkpt>
      <trkpt lat="47.58526" lon="6.74594">
        <ele>356</ele>
        <time>2015-11-01T09:59:27.000Z</time>
      </trkpt>
      <trkpt lat="47.58526" lon="6.74597">
        <ele>356</ele>
        <time>2015-11-01T09:59:28.000Z</time>
      </trkpt>
      <trkpt lat="47.58527" lon="6.74603">
        <ele>356</ele>
        <time>2015-11-01T09:59:30.000Z</time>
      </trkpt>
      <trkpt lat="47.58527" lon="6.74607">
        <ele>356</ele>
        <time>2015-11-01T09:59:31.000Z</time>
      </trkpt>
      <trkpt lat="47.58526" lon="6.7461">
        <ele>356</ele>
        <time>2015-11-01T09:59:32.000Z</time>
      </trkpt>
      <trkpt lat="47.58526" lon="6.74614">
        <ele>356</ele>
        <time>2015-11-01T09:59:33.000Z</time>
      </trkpt>
      <trkpt lat="47.58527" lon="6.74617">
        <ele>356</ele>
        <time>2015-11-01T09:59:34.000Z</time>
      </trkpt>
      <trkpt lat="47.58527" lon="6.74621">
        <ele>356</ele>
        <time>2015-11-01T09:59:35.000Z</time>
      </trkpt>
      <trkpt lat="47.58527" lon="6.74624">
        <ele>356</ele>
        <time>2015-11-01T09:59:36.000Z</time>
      </trkpt>
      <trkpt lat="47.58527" lon="6.74627">
        <ele>356</ele>
        <time>2015-11-01T09:59:37.000Z</time>
      </trkpt>
      <trkpt lat="47.58527" lon="6.74631">
        <ele>357</ele>
        <time>2015-11-01T09:59:38.000Z</time>
      </trkpt>
      <trkpt lat="47.58527" lon="6.74634">
        <ele>357</ele>
        <time>2015-11-01T09:59:39.000Z</time>
      </trkpt>
      <trkpt lat="47.58527" lon="6.74638">
        <ele>357</ele>
        <time>2015-11-01T09:59:40.000Z</time>
      </trkpt>
      <trkpt lat="47.58527" lon="6.74641">
        <ele>357</ele>
        <time>2015-11-01T09:59:41.000Z</time>
      </trkpt>
      <trkpt lat="47.58527" lon="6.74645">
        <ele>357</ele>
        <time>2015-11-01T09:59:42.000Z</time>
      </trkpt>
      <trkpt lat="47.58527" lon="6.74648">
        <ele>357</ele>
        <time>2015-11-01T09:59:43.000Z</time>
      </trkpt>
      <trkpt lat="47.58527" lon="6.74651">
        <ele>357</ele>
        <time>2015-11-01T09:59:44.000Z</time>
      </trkpt>
      <trkpt lat="47.58527" lon="6.74655">
        <ele>357</ele>
        <time>2015-11-01T09:59:45.000Z</time>
      </trkpt>
      <trkpt lat="47.58527" lon="6.74658">
        <ele>357</ele>
        <time>2015-11-01T09:59:46.000Z</time>
      </trkpt>
      <trkpt lat="47.58527" lon="6.74662">
        <ele>357</ele>
        <time>2015-11-01T09:59:47.000Z</time>
      </trkpt>
      <trkpt lat="47.58527" lon="6.74665">
        <ele>357</ele>
        <time>2015-11-01T09:59:48.000Z</time>
      </trkpt>
      <trkpt lat="47.58527" lon="6.74668">
        <ele>359</ele>
        <time>2015-11-01T09:59:49.000Z</time>
      </trkpt>
      <trkpt lat="47.58527" lon="6.74672">
        <ele>359</ele>
        <time>2015-11-01T09:59:50.000Z</time>
      </trkpt>
      <trkpt lat="47.58527" lon="6.74675">
        <ele>359</ele>
        <time>2015-11-01T09:59:51.000Z</time>
      </trkpt>
      <trkpt lat="47.58527" lon="6.74678">
        <ele>359</ele>
        <time>2015-11-01T09:59:52.000Z</time>
      </trkpt>
      <trkpt lat="47.58527" lon="6.74681">
        <ele>359</ele>
        <time>2015-11-01T09:59:53.000Z</time>
      </trkpt>
      <trkpt lat="47.58527" lon="6.74688">
        <ele>359</ele>
        <time>2015-11-01T09:59:55.000Z</time>
      </trkpt>
      <trkpt lat="47.58527" lon="6.74691">
        <ele>359</ele>
        <time>2015-11-01T09:59:56.000Z</time>
      </trkpt>
      <trkpt lat="47.58527" lon="6.74698">
        <ele>359</ele>
        <time>2015-11-01T09:59:58.000Z</time>
      </trkpt>
      <trkpt lat="47.58527" lon="6.74701">
        <ele>359</ele>
        <time>2015-11-01T09:59:59.000Z</time>
      </trkpt>
      <trkpt lat="47.58527" lon="6.74708">
        <ele>360</ele>
        <time>2015-11-01T10:00:01.000Z</time>
      </trkpt>
      <trkpt lat="47.58528" lon="6.74711">
        <ele>360</ele>
        <time>2015-11-01T10:00:02.000Z</time>
      </trkpt>
      <trkpt lat="47.5853" lon="6.74716">
        <ele>360</ele>
        <time>2015-11-01T10:00:04.000Z</time>
      </trkpt>
      <trkpt lat="47.58531" lon="6.74719">
        <ele>360</ele>
        <time>2015-11-01T10:00:05.000Z</time>
      </trkpt>
      <trkpt lat="47.58533" lon="6.74721">
        <ele>360</ele>
        <time>2015-11-01T10:00:06.000Z</time>
      </trkpt>
      <trkpt lat="47.58535" lon="6.74723">
        <ele>360</ele>
        <time>2015-11-01T10:00:07.000Z</time>
      </trkpt>
      <trkpt lat="47.58537" lon="6.74725">
        <ele>361</ele>
        <time>2015-11-01T10:00:08.000Z</time>
      </trkpt>
      <trkpt lat="47.58539" lon="6.74727">
        <ele>361</ele>
        <time>2015-11-01T10:00:09.000Z</time>
      </trkpt>
      <trkpt lat="47.58541" lon="6.74729">
        <ele>361</ele>
        <time>2015-11-01T10:00:10.000Z</time>
      </trkpt>
      <trkpt lat="47.58544" lon="6.7473">
        <ele>361</ele>
        <time>2015-11-01T10:00:11.000Z</time>
      </trkpt>
      <trkpt lat="47.58546" lon="6.74732">
        <ele>361</ele>
        <time>2015-11-01T10:00:12.000Z</time>
      </trkpt>
      <trkpt lat="47.58549" lon="6.74734">
        <ele>362</ele>
        <time>2015-11-01T10:00:13.000Z</time>
      </trkpt>
      <trkpt lat="47.58552" lon="6.74737">
        <ele>362</ele>
        <time>2015-11-01T10:00:14.000Z</time>
      </trkpt>
      <trkpt lat="47.58554" lon="6.74739">
        <ele>363</ele>
        <time>2015-11-01T10:00:15.000Z</time>
      </trkpt>
      <trkpt lat="47.58557" lon="6.74742">
        <ele>363</ele>
        <time>2015-11-01T10:00:16.000Z</time>
      </trkpt>
      <trkpt lat="47.58559" lon="6.74745">
        <ele>363</ele>
        <time>2015-11-01T10:00:17.000Z</time>
      </trkpt>
      <trkpt lat="47.58561" lon="6.74749">
        <ele>364</ele>
        <time>2015-11-01T10:00:18.000Z</time>
      </trkpt>
      <trkpt lat="47.58563" lon="6.74752">
        <ele>366</ele>
        <time>2015-11-01T10:00:19.000Z</time>
      </trkpt>
      <trkpt lat="47.58564" lon="6.74756">
        <ele>366</ele>
        <time>2015-11-01T10:00:20.000Z</time>
      </trkpt>
      <trkpt lat="47.58566" lon="6.74761">
        <ele>366</ele>
        <time>2015-11-01T10:00:21.000Z</time>
      </trkpt>
      <trkpt lat="47.58568" lon="6.74765">
        <ele>366</ele>
        <time>2015-11-01T10:00:22.000Z</time>
      </trkpt>
      <trkpt lat="47.5857" lon="6.74769">
        <ele>366</ele>
        <time>2015-11-01T10:00:23.000Z</time>
      </trkpt>
      <trkpt lat="47.58572" lon="6.74774">
        <ele>366</ele>
        <time>2015-11-01T10:00:24.000Z</time>
      </trkpt>
      <trkpt lat="47.58573" lon="6.74778">
        <ele>366</ele>
        <time>2015-11-01T10:00:25.000Z</time>
      </trkpt>
      <trkpt lat="47.58574" lon="6.74783">
        <ele>366</ele>
        <time>2015-11-01T10:00:26.000Z</time>
      </trkpt>
      <trkpt lat="47.58574" lon="6.74787">
        <ele>366</ele>
        <time>2015-11-01T10:00:27.000Z</time>
      </trkpt>
      <trkpt lat="47.58574" lon="6.74792">
        <ele>366</ele>
        <time>2015-11-01T10:00:28.000Z</time>
      </trkpt>
      <trkpt lat="47.58573" lon="6.74797">
        <ele>366</ele>
        <time>2015-11-01T10:00:29.000Z</time>
      </trkpt>
      <trkpt lat="47.58572" lon="6.74801">
        <ele>366</ele>
        <time>2015-11-01T10:00:30.000Z</time>
      </trkpt>
      <trkpt lat="47.5857" lon="6.74806">
        <ele>367</ele>
        <time>2015-11-01T10:00:31.000Z</time>
      </trkpt>
      <trkpt lat="47.58569" lon="6.74811">
        <ele>367</ele>
        <time>2015-11-01T10:00:32.000Z</time>
      </trkpt>
      <trkpt lat="47.58568" lon="6.74816">
        <ele>367</ele>
        <time>2015-11-01T10:00:33.000Z</time>
      </trkpt>
      <trkpt lat="47.58567" lon="6.74821">
        <ele>368</ele>
        <time>2015-11-01T10:00:34.000Z</time>
      </trkpt>
      <trkpt lat="47.58567" lon="6.74827">
        <ele>368</ele>
        <time>2015-11-01T10:00:35.000Z</time>
      </trkpt>
      <trkpt lat="47.58567" lon="6.74833">
        <ele>368</ele>
        <time>2015-11-01T10:00:36.000Z</time>
      </trkpt>
      <trkpt lat="47.58568" lon="6.74838">
        <ele>369</ele>
        <time>2015-11-01T10:00:37.000Z</time>
      </trkpt>
      <trkpt lat="47.58568" lon="6.74844">
        <ele>368</ele>
        <time>2015-11-01T10:00:38.000Z</time>
      </trkpt>
      <trkpt lat="47.58569" lon="6.74849">
        <ele>368</ele>
        <time>2015-11-01T10:00:39.000Z</time>
      </trkpt>
      <trkpt lat="47.58569" lon="6.74853">
        <ele>367</ele>
        <time>2015-11-01T10:00:40.000Z</time>
      </trkpt>
      <trkpt lat="47.5857" lon="6.74858">
        <ele>367</ele>
        <time>2015-11-01T10:00:41.000Z</time>
      </trkpt>
      <trkpt lat="47.5857" lon="6.74862">
        <ele>367</ele>
        <time>2015-11-01T10:00:42.000Z</time>
      </trkpt>
      <trkpt lat="47.58571" lon="6.74866">
        <ele>367</ele>
        <time>2015-11-01T10:00:43.000Z</time>
      </trkpt>
      <trkpt lat="47.58571" lon="6.74869">
        <ele>366</ele>
        <time>2015-11-01T10:00:44.000Z</time>
      </trkpt>
      <trkpt lat="47.58572" lon="6.74873">
        <ele>366</ele>
        <time>2015-11-01T10:00:45.000Z</time>
      </trkpt>
      <trkpt lat="47.58572" lon="6.74877">
        <ele>366</ele>
        <time>2015-11-01T10:00:46.000Z</time>
      </trkpt>
      <trkpt lat="47.58572" lon="6.7488">
        <ele>366</ele>
        <time>2015-11-01T10:00:47.000Z</time>
      </trkpt>
      <trkpt lat="47.58573" lon="6.74884">
        <ele>366</ele>
        <time>2015-11-01T10:00:48.000Z</time>
      </trkpt>
      <trkpt lat="47.58574" lon="6.74888">
        <ele>366</ele>
        <time>2015-11-01T10:00:49.000Z</time>
      </trkpt>
      <trkpt lat="47.58574" lon="6.74892">
        <ele>366</ele>
        <time>2015-11-01T10:00:50.000Z</time>
      </trkpt>
      <trkpt lat="47.58575" lon="6.74896">
        <ele>366</ele>
        <time>2015-11-01T10:00:51.000Z</time>
      </trkpt>
      <trkpt lat="47.58576" lon="6.74901">
        <ele>366</ele>
        <time>2015-11-01T10:00:52.000Z</time>
      </trkpt>
      <trkpt lat="47.58577" lon="6.74906">
        <ele>367</ele>
        <time>2015-11-01T10:00:53.000Z</time>
      </trkpt>
      <trkpt lat="47.58577" lon="6.7491">
        <ele>367</ele>
        <time>2015-11-01T10:00:54.000Z</time>
      </trkpt>
      <trkpt lat="47.58578" lon="6.74915">
        <ele>367</ele>
        <time>2015-11-01T10:00:55.000Z</time>
      </trkpt>
      <trkpt lat="47.58579" lon="6.7492">
        <ele>367</ele>
        <time>2015-11-01T10:00:56.000Z</time>
      </trkpt>
      <trkpt lat="47.58579" lon="6.74925">
        <ele>367</ele>
        <time>2015-11-01T10:00:57.000Z</time>
      </trkpt>
      <trkpt lat="47.58579" lon="6.7493">
        <ele>367</ele>
        <time>2015-11-01T10:00:58.000Z</time>
      </trkpt>
      <trkpt lat="47.5858" lon="6.74935">
        <ele>366</ele>
        <time>2015-11-01T10:00:59.000Z</time>
      </trkpt>
      <trkpt lat="47.5858" lon="6.7494">
        <ele>366</ele>
        <time>2015-11-01T10:01:00.000Z</time>
      </trkpt>
      <trkpt lat="47.58581" lon="6.74945">
        <ele>366</ele>
        <time>2015-11-01T10:01:01.000Z</time>
      </trkpt>
      <trkpt lat="47.58581" lon="6.7495">
        <ele>366</ele>
        <time>2015-11-01T10:01:02.000Z</time>
      </trkpt>
      <trkpt lat="47.58582" lon="6.74955">
        <ele>366</ele>
        <time>2015-11-01T10:01:03.000Z</time>
      </trkpt>
      <trkpt lat="47.58582" lon="6.7496">
        <ele>366</ele>
        <time>2015-11-01T10:01:04.000Z</time>
      </trkpt>
      <trkpt lat="47.58582" lon="6.74966">
        <ele>367</ele>
        <time>2015-11-01T10:01:05.000Z</time>
      </trkpt>
      <trkpt lat="47.58583" lon="6.74971">
        <ele>367</ele>
        <time>2015-11-01T10:01:06.000Z</time>
      </trkpt>
      <trkpt lat="47.58583" lon="6.74976">
        <ele>368</ele>
        <time>2015-11-01T10:01:07.000Z</time>
      </trkpt>
      <trkpt lat="47.58583" lon="6.74981">
        <ele>368</ele>
        <time>2015-11-01T10:01:08.000Z</time>
      </trkpt>
      <trkpt lat="47.58583" lon="6.74986">
        <ele>369</ele>
        <time>2015-11-01T10:01:09.000Z</time>
      </trkpt>
      <trkpt lat="47.58583" lon="6.74991">
        <ele>370</ele>
        <time>2015-11-01T10:01:10.000Z</time>
      </trkpt>
      <trkpt lat="47.58583" lon="6.74995">
        <ele>371</ele>
        <time>2015-11-01T10:01:11.000Z</time>
      </trkpt>
      <trkpt lat="47.58582" lon="6.74999">
        <ele>371</ele>
        <time>2015-11-01T10:01:12.000Z</time>
      </trkpt>
      <trkpt lat="47.58581" lon="6.75004">
        <ele>371</ele>
        <time>2015-11-01T10:01:13.000Z</time>
      </trkpt>
      <trkpt lat="47.58579" lon="6.75008">
        <ele>370</ele>
        <time>2015-11-01T10:01:14.000Z</time>
      </trkpt>
      <trkpt lat="47.58578" lon="6.75012">
        <ele>370</ele>
        <time>2015-11-01T10:01:15.000Z</time>
      </trkpt>
      <trkpt lat="47.58577" lon="6.75017">
        <ele>369</ele>
        <time>2015-11-01T10:01:16.000Z</time>
      </trkpt>
      <trkpt lat="47.58576" lon="6.75022">
        <ele>369</ele>
        <time>2015-11-01T10:01:17.000Z</time>
      </trkpt>
      <trkpt lat="47.58575" lon="6.75026">
        <ele>369</ele>
        <time>2015-11-01T10:01:18.000Z</time>
      </trkpt>
      <trkpt lat="47.58573" lon="6.75031">
        <ele>368</ele>
        <time>2015-11-01T10:01:19.000Z</time>
      </trkpt>
      <trkpt lat="47.58572" lon="6.75036">
        <ele>368</ele>
        <time>2015-11-01T10:01:20.000Z</time>
      </trkpt>
      <trkpt lat="47.58572" lon="6.75041">
        <ele>368</ele>
        <time>2015-11-01T10:01:21.000Z</time>
      </trkpt>
      <trkpt lat="47.58571" lon="6.75046">
        <ele>369</ele>
        <time>2015-11-01T10:01:22.000Z</time>
      </trkpt>
      <trkpt lat="47.58572" lon="6.75051">
        <ele>369</ele>
        <time>2015-11-01T10:01:23.000Z</time>
      </trkpt>
      <trkpt lat="47.58573" lon="6.75056">
        <ele>369</ele>
        <time>2015-11-01T10:01:24.000Z</time>
      </trkpt>
      <trkpt lat="47.58574" lon="6.75061">
        <ele>370</ele>
        <time>2015-11-01T10:01:25.000Z</time>
      </trkpt>
      <trkpt lat="47.58575" lon="6.75066">
        <ele>371</ele>
        <time>2015-11-01T10:01:26.000Z</time>
      </trkpt>
      <trkpt lat="47.58576" lon="6.7507">
        <ele>371</ele>
        <time>2015-11-01T10:01:27.000Z</time>
      </trkpt>
      <trkpt lat="47.58577" lon="6.75073">
        <ele>372</ele>
        <time>2015-11-01T10:01:28.000Z</time>
      </trkpt>
      <trkpt lat="47.58579" lon="6.75077">
        <ele>373</ele>
        <time>2015-11-01T10:01:29.000Z</time>
      </trkpt>
      <trkpt lat="47.5858" lon="6.75081">
        <ele>374</ele>
        <time>2015-11-01T10:01:30.000Z</time>
      </trkpt>
      <trkpt lat="47.58581" lon="6.75085">
        <ele>375</ele>
        <time>2015-11-01T10:01:31.000Z</time>
      </trkpt>
      <trkpt lat="47.58583" lon="6.75089">
        <ele>374</ele>
        <time>2015-11-01T10:01:32.000Z</time>
      </trkpt>
      <trkpt lat="47.58584" lon="6.75093">
        <ele>379</ele>
        <time>2015-11-01T10:01:33.000Z</time>
      </trkpt>
      <trkpt lat="47.58585" lon="6.75097">
        <ele>380</ele>
        <time>2015-11-01T10:01:34.000Z</time>
      </trkpt>
      <trkpt lat="47.58586" lon="6.75101">
        <ele>381</ele>
        <time>2015-11-01T10:01:35.000Z</time>
      </trkpt>
      <trkpt lat="47.58587" lon="6.75105">
        <ele>381</ele>
        <time>2015-11-01T10:01:36.000Z</time>
      </trkpt>
      <trkpt lat="47.58589" lon="6.75109">
        <ele>381</ele>
        <time>2015-11-01T10:01:37.000Z</time>
      </trkpt>
      <trkpt lat="47.58591" lon="6.75112">
        <ele>382</ele>
        <time>2015-11-01T10:01:38.000Z</time>
      </trkpt>
      <trkpt lat="47.58592" lon="6.75115">
        <ele>382</ele>
        <time>2015-11-01T10:01:39.000Z</time>
      </trkpt>
      <trkpt lat="47.58594" lon="6.75118">
        <ele>382</ele>
        <time>2015-11-01T10:01:40.000Z</time>
      </trkpt>
      <trkpt lat="47.58595" lon="6.75121">
        <ele>382</ele>
        <time>2015-11-01T10:01:41.000Z</time>
      </trkpt>
      <trkpt lat="47.58596" lon="6.75124">
        <ele>382</ele>
        <time>2015-11-01T10:01:42.000Z</time>
      </trkpt>
      <trkpt lat="47.58598" lon="6.75127">
        <ele>382</ele>
        <time>2015-11-01T10:01:43.000Z</time>
      </trkpt>
      <trkpt lat="47.58599" lon="6.75131">
        <ele>382</ele>
        <time>2015-11-01T10:01:44.000Z</time>
      </trkpt>
      <trkpt lat="47.586" lon="6.75135">
        <ele>382</ele>
        <time>2015-11-01T10:01:45.000Z</time>
      </trkpt>
      <trkpt lat="47.58601" lon="6.75138">
        <ele>382</ele>
        <time>2015-11-01T10:01:46.000Z</time>
      </trkpt>
      <trkpt lat="47.58602" lon="6.75141">
        <ele>382</ele>
        <time>2015-11-01T10:01:47.000Z</time>
      </trkpt>
      <trkpt lat="47.58603" lon="6.75144">
        <ele>382</ele>
        <time>2015-11-01T10:01:48.000Z</time>
      </trkpt>
      <trkpt lat="47.58604" lon="6.75147">
        <ele>382</ele>
        <time>2015-11-01T10:01:49.000Z</time>
      </trkpt>
      <trkpt lat="47.58605" lon="6.75154">
        <ele>381</ele>
        <time>2015-11-01T10:01:51.000Z</time>
      </trkpt>
      <trkpt lat="47.58605" lon="6.75157">
        <ele>381</ele>
        <time>2015-11-01T10:01:52.000Z</time>
      </trkpt>
      <trkpt lat="47.58606" lon="6.7516">
        <ele>381</ele>
        <time>2015-11-01T10:01:53.000Z</time>
      </trkpt>
      <trkpt lat="47.58607" lon="6.75163">
        <ele>381</ele>
        <time>2015-11-01T10:01:54.000Z</time>
      </trkpt>
      <trkpt lat="47.58607" lon="6.75167">
        <ele>379</ele>
        <time>2015-11-01T10:01:55.000Z</time>
      </trkpt>
      <trkpt lat="47.58609" lon="6.75171">
        <ele>379</ele>
        <time>2015-11-01T10:01:56.000Z</time>
      </trkpt>
      <trkpt lat="47.58609" lon="6.75175">
        <ele>380</ele>
        <time>2015-11-01T10:01:57.000Z</time>
      </trkpt>
      <trkpt lat="47.5861" lon="6.75179">
        <ele>380</ele>
        <time>2015-11-01T10:01:58.000Z</time>
      </trkpt>
      <trkpt lat="47.5861" lon="6.75182">
        <ele>380</ele>
        <time>2015-11-01T10:01:59.000Z</time>
      </trkpt>
      <trkpt lat="47.58611" lon="6.75186">
        <ele>380</ele>
        <time>2015-11-01T10:02:00.000Z</time>
      </trkpt>
      <trkpt lat="47.58612" lon="6.75189">
        <ele>380</ele>
        <time>2015-11-01T10:02:01.000Z</time>
      </trkpt>
      <trkpt lat="47.58614" lon="6.75192">
        <ele>380</ele>
        <time>2015-11-01T10:02:02.000Z</time>
      </trkpt>
      <trkpt lat="47.58615" lon="6.75195">
        <ele>381</ele>
        <time>2015-11-01T10:02:03.000Z</time>
      </trkpt>
      <trkpt lat="47.58617" lon="6.75198">
        <ele>381</ele>
        <time>2015-11-01T10:02:04.000Z</time>
      </trkpt>
      <trkpt lat="47.58618" lon="6.75202">
        <ele>381</ele>
        <time>2015-11-01T10:02:05.000Z</time>
      </trkpt>
      <trkpt lat="47.58619" lon="6.75205">
        <ele>381</ele>
        <time>2015-11-01T10:02:06.000Z</time>
      </trkpt>
      <trkpt lat="47.5862" lon="6.75209">
        <ele>381</ele>
        <time>2015-11-01T10:02:07.000Z</time>
      </trkpt>
      <trkpt lat="47.58622" lon="6.75213">
        <ele>381</ele>
        <time>2015-11-01T10:02:08.000Z</time>
      </trkpt>
      <trkpt lat="47.58623" lon="6.75217">
        <ele>381</ele>
        <time>2015-11-01T10:02:09.000Z</time>
      </trkpt>
      <trkpt lat="47.58624" lon="6.75221">
        <ele>381</ele>
        <time>2015-11-01T10:02:10.000Z</time>
      </trkpt>
      <trkpt lat="47.58625" lon="6.75225">
        <ele>381</ele>
        <time>2015-11-01T10:02:11.000Z</time>
      </trkpt>
      <trkpt lat="47.58626" lon="6.75228">
        <ele>381</ele>
        <time>2015-11-01T10:02:12.000Z</time>
      </trkpt>
      <trkpt lat="47.58628" lon="6.75231">
        <ele>381</ele>
        <time>2015-11-01T10:02:13.000Z</time>
      </trkpt>
      <trkpt lat="47.58629" lon="6.75234">
        <ele>381</ele>
        <time>2015-11-01T10:02:14.000Z</time>
      </trkpt>
      <trkpt lat="47.58631" lon="6.75237">
        <ele>381</ele>
        <time>2015-11-01T10:02:15.000Z</time>
      </trkpt>
      <trkpt lat="47.58632" lon="6.75239">
        <ele>382</ele>
        <time>2015-11-01T10:02:16.000Z</time>
      </trkpt>
      <trkpt lat="47.58635" lon="6.75242">
        <ele>382</ele>
        <time>2015-11-01T10:02:18.000Z</time>
      </trkpt>
      <trkpt lat="47.58637" lon="6.75242">
        <ele>382</ele>
        <time>2015-11-01T10:02:19.000Z</time>
      </trkpt>
      <trkpt lat="47.58639" lon="6.75242">
        <ele>382</ele>
        <time>2015-11-01T10:02:20.000Z</time>
      </trkpt>
      <trkpt lat="47.58642" lon="6.75242">
        <ele>383</ele>
        <time>2015-11-01T10:02:21.000Z</time>
      </trkpt>
      <trkpt lat="47.58644" lon="6.75242">
        <ele>383</ele>
        <time>2015-11-01T10:02:22.000Z</time>
      </trkpt>
      <trkpt lat="47.58647" lon="6.75242">
        <ele>383</ele>
        <time>2015-11-01T10:02:23.000Z</time>
      </trkpt>
      <trkpt lat="47.58649" lon="6.75241">
        <ele>383</ele>
        <time>2015-11-01T10:02:24.000Z</time>
      </trkpt>
      <trkpt lat="47.58652" lon="6.75239">
        <ele>384</ele>
        <time>2015-11-01T10:02:25.000Z</time>
      </trkpt>
      <trkpt lat="47.58655" lon="6.75237">
        <ele>384</ele>
        <time>2015-11-01T10:02:27.000Z</time>
      </trkpt>
      <trkpt lat="47.58658" lon="6.75237">
        <ele>384</ele>
        <time>2015-11-01T10:02:28.000Z</time>
      </trkpt>
      <trkpt lat="47.5866" lon="6.75236">
        <ele>384</ele>
        <time>2015-11-01T10:02:29.000Z</time>
      </trkpt>
      <trkpt lat="47.58662" lon="6.75234">
        <ele>384</ele>
        <time>2015-11-01T10:02:30.000Z</time>
      </trkpt>
      <trkpt lat="47.58663" lon="6.7523">
        <ele>384</ele>
        <time>2015-11-01T10:02:32.000Z</time>
      </trkpt>
      <trkpt lat="47.58664" lon="6.75227">
        <ele>384</ele>
        <time>2015-11-01T10:02:33.000Z</time>
      </trkpt>
      <trkpt lat="47.58664" lon="6.75221">
        <ele>384</ele>
        <time>2015-11-01T10:02:35.000Z</time>
      </trkpt>
      <trkpt lat="47.58664" lon="6.75218">
        <ele>384</ele>
        <time>2015-11-01T10:02:36.000Z</time>
      </trkpt>
      <trkpt lat="47.58663" lon="6.75214">
        <ele>384</ele>
        <time>2015-11-01T10:02:37.000Z</time>
      </trkpt>
      <trkpt lat="47.58663" lon="6.75211">
        <ele>385</ele>
        <time>2015-11-01T10:02:38.000Z</time>
      </trkpt>
      <trkpt lat="47.58662" lon="6.75207">
        <ele>385</ele>
        <time>2015-11-01T10:02:39.000Z</time>
      </trkpt>
      <trkpt lat="47.5866" lon="6.75204">
        <ele>385</ele>
        <time>2015-11-01T10:02:40.000Z</time>
      </trkpt>
      <trkpt lat="47.58659" lon="6.75201">
        <ele>385</ele>
        <time>2015-11-01T10:02:41.000Z</time>
      </trkpt>
      <trkpt lat="47.58657" lon="6.75198">
        <ele>385</ele>
        <time>2015-11-01T10:02:42.000Z</time>
      </trkpt>
      <trkpt lat="47.58656" lon="6.75196">
        <ele>386</ele>
        <time>2015-11-01T10:02:43.000Z</time>
      </trkpt>
      <trkpt lat="47.58654" lon="6.75193">
        <ele>386</ele>
        <time>2015-11-01T10:02:44.000Z</time>
      </trkpt>
      <trkpt lat="47.58653" lon="6.7519">
        <ele>386</ele>
        <time>2015-11-01T10:02:45.000Z</time>
      </trkpt>
      <trkpt lat="47.58651" lon="6.75187">
        <ele>386</ele>
        <time>2015-11-01T10:02:46.000Z</time>
      </trkpt>
      <trkpt lat="47.5865" lon="6.75183">
        <ele>387</ele>
        <time>2015-11-01T10:02:47.000Z</time>
      </trkpt>
      <trkpt lat="47.58649" lon="6.75179">
        <ele>387</ele>
        <time>2015-11-01T10:02:48.000Z</time>
      </trkpt>
      <trkpt lat="47.58649" lon="6.75176">
        <ele>387</ele>
        <time>2015-11-01T10:02:49.000Z</time>
      </trkpt>
      <trkpt lat="47.58648" lon="6.75172">
        <ele>387</ele>
        <time>2015-11-01T10:02:50.000Z</time>
      </trkpt>
      <trkpt lat="47.58647" lon="6.75169">
        <ele>387</ele>
        <time>2015-11-01T10:02:51.000Z</time>
      </trkpt>
      <trkpt lat="47.58646" lon="6.75165">
        <ele>389</ele>
        <time>2015-11-01T10:02:52.000Z</time>
      </trkpt>
      <trkpt lat="47.58646" lon="6.75161">
        <ele>389</ele>
        <time>2015-11-01T10:02:53.000Z</time>
      </trkpt>
      <trkpt lat="47.58646" lon="6.75157">
        <ele>389</ele>
        <time>2015-11-01T10:02:54.000Z</time>
      </trkpt>
      <trkpt lat="47.58645" lon="6.75153">
        <ele>389</ele>
        <time>2015-11-01T10:02:55.000Z</time>
      </trkpt>
      <trkpt lat="47.58645" lon="6.7515">
        <ele>388</ele>
        <time>2015-11-01T10:02:56.000Z</time>
      </trkpt>
      <trkpt lat="47.58644" lon="6.75146">
        <ele>388</ele>
        <time>2015-11-01T10:02:57.000Z</time>
      </trkpt>
      <trkpt lat="47.58643" lon="6.75142">
        <ele>388</ele>
        <time>2015-11-01T10:02:58.000Z</time>
      </trkpt>
      <trkpt lat="47.58642" lon="6.75138">
        <ele>388</ele>
        <time>2015-11-01T10:02:59.000Z</time>
      </trkpt>
      <trkpt lat="47.58642" lon="6.75135">
        <ele>388</ele>
        <time>2015-11-01T10:03:00.000Z</time>
      </trkpt>
      <trkpt lat="47.58641" lon="6.75131">
        <ele>388</ele>
        <time>2015-11-01T10:03:01.000Z</time>
      </trkpt>
      <trkpt lat="47.58641" lon="6.75127">
        <ele>388</ele>
        <time>2015-11-01T10:03:02.000Z</time>
      </trkpt>
      <trkpt lat="47.5864" lon="6.75124">
        <ele>388</ele>
        <time>2015-11-01T10:03:03.000Z</time>
      </trkpt>
      <trkpt lat="47.5864" lon="6.7512">
        <ele>388</ele>
        <time>2015-11-01T10:03:04.000Z</time>
      </trkpt>
      <trkpt lat="47.58639" lon="6.75116">
        <ele>388</ele>
        <time>2015-11-01T10:03:05.000Z</time>
      </trkpt>
      <trkpt lat="47.58639" lon="6.75112">
        <ele>388</ele>
        <time>2015-11-01T10:03:06.000Z</time>
      </trkpt>
      <trkpt lat="47.58639" lon="6.75108">
        <ele>388</ele>
        <time>2015-11-01T10:03:07.000Z</time>
      </trkpt>
      <trkpt lat="47.58639" lon="6.75104">
        <ele>389</ele>
        <time>2015-11-01T10:03:08.000Z</time>
      </trkpt>
      <trkpt lat="47.58639" lon="6.75101">
        <ele>389</ele>
        <time>2015-11-01T10:03:09.000Z</time>
      </trkpt>
      <trkpt lat="47.58638" lon="6.75098">
        <ele>389</ele>
        <time>2015-11-01T10:03:10.000Z</time>
      </trkpt>
      <trkpt lat="47.58638" lon="6.75094">
        <ele>389</ele>
        <time>2015-11-01T10:03:11.000Z</time>
      </trkpt>
      <trkpt lat="47.58637" lon="6.75091">
        <ele>389</ele>
        <time>2015-11-01T10:03:12.000Z</time>
      </trkpt>
      <trkpt lat="47.58637" lon="6.75087">
        <ele>389</ele>
        <time>2015-11-01T10:03:13.000Z</time>
      </trkpt>
      <trkpt lat="47.58637" lon="6.75084">
        <ele>389</ele>
        <time>2015-11-01T10:03:14.000Z</time>
      </trkpt>
      <trkpt lat="47.58637" lon="6.7508">
        <ele>389</ele>
        <time>2015-11-01T10:03:15.000Z</time>
      </trkpt>
      <trkpt lat="47.58637" lon="6.75076">
        <ele>389</ele>
        <time>2015-11-01T10:03:16.000Z</time>
      </trkpt>
      <trkpt lat="47.58637" lon="6.75072">
        <ele>389</ele>
        <time>2015-11-01T10:03:17.000Z</time>
      </trkpt>
      <trkpt lat="47.58637" lon="6.75068">
        <ele>389</ele>
        <time>2015-11-01T10:03:18.000Z</time>
      </trkpt>
      <trkpt lat="47.58637" lon="6.75064">
        <ele>389</ele>
        <time>2015-11-01T10:03:19.000Z</time>
      </trkpt>
      <trkpt lat="47.58637" lon="6.7506">
        <ele>389</ele>
        <time>2015-11-01T10:03:20.000Z</time>
      </trkpt>
      <trkpt lat="47.58637" lon="6.75057">
        <ele>389</ele>
        <time>2015-11-01T10:03:21.000Z</time>
      </trkpt>
      <trkpt lat="47.58638" lon="6.75053">
        <ele>389</ele>
        <time>2015-11-01T10:03:22.000Z</time>
      </trkpt>
      <trkpt lat="47.58638" lon="6.75049">
        <ele>389</ele>
        <time>2015-11-01T10:03:23.000Z</time>
      </trkpt>
      <trkpt lat="47.58639" lon="6.75045">
        <ele>389</ele>
        <time>2015-11-01T10:03:24.000Z</time>
      </trkpt>
      <trkpt lat="47.58639" lon="6.75042">
        <ele>389</ele>
        <time>2015-11-01T10:03:25.000Z</time>
      </trkpt>
      <trkpt lat="47.5864" lon="6.75038">
        <ele>389</ele>
        <time>2015-11-01T10:03:26.000Z</time>
      </trkpt>
      <trkpt lat="47.5864" lon="6.75035">
        <ele>389</ele>
        <time>2015-11-01T10:03:27.000Z</time>
      </trkpt>
      <trkpt lat="47.58641" lon="6.75031">
        <ele>389</ele>
        <time>2015-11-01T10:03:28.000Z</time>
      </trkpt>
      <trkpt lat="47.58642" lon="6.75027">
        <ele>389</ele>
        <time>2015-11-01T10:03:29.000Z</time>
      </trkpt>
      <trkpt lat="47.58642" lon="6.75023">
        <ele>389</ele>
        <time>2015-11-01T10:03:30.000Z</time>
      </trkpt>
      <trkpt lat="47.58643" lon="6.75019">
        <ele>390</ele>
        <time>2015-11-01T10:03:31.000Z</time>
      </trkpt>
      <trkpt lat="47.58644" lon="6.75015">
        <ele>390</ele>
        <time>2015-11-01T10:03:32.000Z</time>
      </trkpt>
      <trkpt lat="47.58645" lon="6.75011">
        <ele>391</ele>
        <time>2015-11-01T10:03:33.000Z</time>
      </trkpt>
      <trkpt lat="47.58645" lon="6.75007">
        <ele>391</ele>
        <time>2015-11-01T10:03:34.000Z</time>
      </trkpt>
      <trkpt lat="47.58646" lon="6.75004">
        <ele>391</ele>
        <time>2015-11-01T10:03:35.000Z</time>
      </trkpt>
      <trkpt lat="47.58647" lon="6.75">
        <ele>390</ele>
        <time>2015-11-01T10:03:36.000Z</time>
      </trkpt>
      <trkpt lat="47.58648" lon="6.74996">
        <ele>391</ele>
        <time>2015-11-01T10:03:37.000Z</time>
      </trkpt>
      <trkpt lat="47.58649" lon="6.74992">
        <ele>391</ele>
        <time>2015-11-01T10:03:38.000Z</time>
      </trkpt>
      <trkpt lat="47.58651" lon="6.74988">
        <ele>390</ele>
        <time>2015-11-01T10:03:39.000Z</time>
      </trkpt>
      <trkpt lat="47.58652" lon="6.74985">
        <ele>390</ele>
        <time>2015-11-01T10:03:40.000Z</time>
      </trkpt>
      <trkpt lat="47.58653" lon="6.74981">
        <ele>390</ele>
        <time>2015-11-01T10:03:41.000Z</time>
      </trkpt>
      <trkpt lat="47.58654" lon="6.74977">
        <ele>390</ele>
        <time>2015-11-01T10:03:42.000Z</time>
      </trkpt>
      <trkpt lat="47.58656" lon="6.74974">
        <ele>389</ele>
        <time>2015-11-01T10:03:43.000Z</time>
      </trkpt>
      <trkpt lat="47.58658" lon="6.74971">
        <ele>389</ele>
        <time>2015-11-01T10:03:44.000Z</time>
      </trkpt>
      <trkpt lat="47.58659" lon="6.74968">
        <ele>389</ele>
        <time>2015-11-01T10:03:45.000Z</time>
      </trkpt>
      <trkpt lat="47.5866" lon="6.74964">
        <ele>389</ele>
        <time>2015-11-01T10:03:46.000Z</time>
      </trkpt>
      <trkpt lat="47.58661" lon="6.74961">
        <ele>389</ele>
        <time>2015-11-01T10:03:47.000Z</time>
      </trkpt>
      <trkpt lat="47.58662" lon="6.74957">
        <ele>389</ele>
        <time>2015-11-01T10:03:48.000Z</time>
      </trkpt>
      <trkpt lat="47.58663" lon="6.74954">
        <ele>389</ele>
        <time>2015-11-01T10:03:49.000Z</time>
      </trkpt>
      <trkpt lat="47.58664" lon="6.74951">
        <ele>389</ele>
        <time>2015-11-01T10:03:50.000Z</time>
      </trkpt>
      <trkpt lat="47.58665" lon="6.74948">
        <ele>389</ele>
        <time>2015-11-01T10:03:51.000Z</time>
      </trkpt>
      <trkpt lat="47.58667" lon="6.74945">
        <ele>389</ele>
        <time>2015-11-01T10:03:52.000Z</time>
      </trkpt>
      <trkpt lat="47.58668" lon="6.74942">
        <ele>402</ele>
        <time>2015-11-01T10:03:53.000Z</time>
      </trkpt>
      <trkpt lat="47.58669" lon="6.74938">
        <ele>402</ele>
        <time>2015-11-01T10:03:54.000Z</time>
      </trkpt>
      <trkpt lat="47.5867" lon="6.74934">
        <ele>401</ele>
        <time>2015-11-01T10:03:55.000Z</time>
      </trkpt>
      <trkpt lat="47.58671" lon="6.74931">
        <ele>401</ele>
        <time>2015-11-01T10:03:56.000Z</time>
      </trkpt>
      <trkpt lat="47.58672" lon="6.74927">
        <ele>400</ele>
        <time>2015-11-01T10:03:57.000Z</time>
      </trkpt>
      <trkpt lat="47.58674" lon="6.74924">
        <ele>400</ele>
        <time>2015-11-01T10:03:58.000Z</time>
      </trkpt>
      <trkpt lat="47.58674" lon="6.7492">
        <ele>399</ele>
        <time>2015-11-01T10:03:59.000Z</time>
      </trkpt>
      <trkpt lat="47.58674" lon="6.74916">
        <ele>398</ele>
        <time>2015-11-01T10:04:00.000Z</time>
      </trkpt>
      <trkpt lat="47.58675" lon="6.74912">
        <ele>398</ele>
        <time>2015-11-01T10:04:01.000Z</time>
      </trkpt>
      <trkpt lat="47.58675" lon="6.74908">
        <ele>399</ele>
        <time>2015-11-01T10:04:02.000Z</time>
      </trkpt>
      <trkpt lat="47.58676" lon="6.74905">
        <ele>399</ele>
        <time>2015-11-01T10:04:03.000Z</time>
      </trkpt>
      <trkpt lat="47.58677" lon="6.74901">
        <ele>400</ele>
        <time>2015-11-01T10:04:04.000Z</time>
      </trkpt>
      <trkpt lat="47.58678" lon="6.74898">
        <ele>400</ele>
        <time>2015-11-01T10:04:05.000Z</time>
      </trkpt>
      <trkpt lat="47.58679" lon="6.74894">
        <ele>400</ele>
        <time>2015-11-01T10:04:06.000Z</time>
      </trkpt>
      <trkpt lat="47.5868" lon="6.7489">
        <ele>400</ele>
        <time>2015-11-01T10:04:07.000Z</time>
      </trkpt>
      <trkpt lat="47.58681" lon="6.74887">
        <ele>401</ele>
        <time>2015-11-01T10:04:08.000Z</time>
      </trkpt>
      <trkpt lat="47.58683" lon="6.74883">
        <ele>401</ele>
        <time>2015-11-01T10:04:09.000Z</time>
      </trkpt>
      <trkpt lat="47.58684" lon="6.7488">
        <ele>401</ele>
        <time>2015-11-01T10:04:10.000Z</time>
      </trkpt>
      <trkpt lat="47.58685" lon="6.74876">
        <ele>401</ele>
        <time>2015-11-01T10:04:11.000Z</time>
      </trkpt>
      <trkpt lat="47.58685" lon="6.74873">
        <ele>401</ele>
        <time>2015-11-01T10:04:12.000Z</time>
      </trkpt>
      <trkpt lat="47.58686" lon="6.74869">
        <ele>401</ele>
        <time>2015-11-01T10:04:13.000Z</time>
      </trkpt>
      <trkpt lat="47.58687" lon="6.74866">
        <ele>401</ele>
        <time>2015-11-01T10:04:14.000Z</time>
      </trkpt>
      <trkpt lat="47.58689" lon="6.74863">
        <ele>401</ele>
        <time>2015-11-01T10:04:15.000Z</time>
      </trkpt>
      <trkpt lat="47.5869" lon="6.7486">
        <ele>401</ele>
        <time>2015-11-01T10:04:16.000Z</time>
      </trkpt>
      <trkpt lat="47.58692" lon="6.74857">
        <ele>401</ele>
        <time>2015-11-01T10:04:17.000Z</time>
      </trkpt>
      <trkpt lat="47.58694" lon="6.74854">
        <ele>401</ele>
        <time>2015-11-01T10:04:18.000Z</time>
      </trkpt>
      <trkpt lat="47.58695" lon="6.74851">
        <ele>401</ele>
        <time>2015-11-01T10:04:19.000Z</time>
      </trkpt>
      <trkpt lat="47.58697" lon="6.74849">
        <ele>401</ele>
        <time>2015-11-01T10:04:20.000Z</time>
      </trkpt>
      <trkpt lat="47.587" lon="6.74846">
        <ele>401</ele>
        <time>2015-11-01T10:04:21.000Z</time>
      </trkpt>
      <trkpt lat="47.58702" lon="6.74845">
        <ele>401</ele>
        <time>2015-11-01T10:04:22.000Z</time>
      </trkpt>
      <trkpt lat="47.58704" lon="6.74843">
        <ele>402</ele>
        <time>2015-11-01T10:04:23.000Z</time>
      </trkpt>
      <trkpt lat="47.58706" lon="6.74842">
        <ele>402</ele>
        <time>2015-11-01T10:04:24.000Z</time>
      </trkpt>
      <trkpt lat="47.58709" lon="6.74841">
        <ele>402</ele>
        <time>2015-11-01T10:04:25.000Z</time>
      </trkpt>
      <trkpt lat="47.58711" lon="6.7484">
        <ele>402</ele>
        <time>2015-11-01T10:04:26.000Z</time>
      </trkpt>
      <trkpt lat="47.58716" lon="6.7484">
        <ele>403</ele>
        <time>2015-11-01T10:04:28.000Z</time>
      </trkpt>
      <trkpt lat="47.58717" lon="6.7484">
        <ele>403</ele>
        <time>2015-11-01T10:04:29.000Z</time>
      </trkpt>
      <trkpt lat="47.58722" lon="6.74842">
        <ele>403</ele>
        <time>2015-11-01T10:04:31.000Z</time>
      </trkpt>
      <trkpt lat="47.58724" lon="6.74843">
        <ele>403</ele>
        <time>2015-11-01T10:04:32.000Z</time>
      </trkpt>
      <trkpt lat="47.58726" lon="6.74846">
        <ele>404</ele>
        <time>2015-11-01T10:04:33.000Z</time>
      </trkpt>
      <trkpt lat="47.58728" lon="6.74849">
        <ele>404</ele>
        <time>2015-11-01T10:04:34.000Z</time>
      </trkpt>
      <trkpt lat="47.5873" lon="6.74852">
        <ele>404</ele>
        <time>2015-11-01T10:04:35.000Z</time>
      </trkpt>
      <trkpt lat="47.58731" lon="6.74855">
        <ele>404</ele>
        <time>2015-11-01T10:04:36.000Z</time>
      </trkpt>
      <trkpt lat="47.58732" lon="6.74859">
        <ele>404</ele>
        <time>2015-11-01T10:04:37.000Z</time>
      </trkpt>
      <trkpt lat="47.58733" lon="6.74862">
        <ele>404</ele>
        <time>2015-11-01T10:04:38.000Z</time>
      </trkpt>
      <trkpt lat="47.58733" lon="6.74866">
        <ele>404</ele>
        <time>2015-11-01T10:04:39.000Z</time>
      </trkpt>
      <trkpt lat="47.58733" lon="6.74869">
        <ele>404</ele>
        <time>2015-11-01T10:04:40.000Z</time>
      </trkpt>
      <trkpt lat="47.58733" lon="6.74873">
        <ele>405</ele>
        <time>2015-11-01T10:04:41.000Z</time>
      </trkpt>
      <trkpt lat="47.58733" lon="6.74876">
        <ele>405</ele>
        <time>2015-11-01T10:04:42.000Z</time>
      </trkpt>
      <trkpt lat="47.58732" lon="6.7488">
        <ele>405</ele>
        <time>2015-11-01T10:04:43.000Z</time>
      </trkpt>
      <trkpt lat="47.58731" lon="6.74883">
        <ele>405</ele>
        <time>2015-11-01T10:04:44.000Z</time>
      </trkpt>
      <trkpt lat="47.5873" lon="6.74886">
        <ele>405</ele>
        <time>2015-11-01T10:04:45.000Z</time>
      </trkpt>
      <trkpt lat="47.5873" lon="6.7489">
        <ele>405</ele>
        <time>2015-11-01T10:04:46.000Z</time>
      </trkpt>
      <trkpt lat="47.58729" lon="6.74893">
        <ele>406</ele>
        <time>2015-11-01T10:04:47.000Z</time>
      </trkpt>
      <trkpt lat="47.58728" lon="6.74897">
        <ele>406</ele>
        <time>2015-11-01T10:04:48.000Z</time>
      </trkpt>
      <trkpt lat="47.58727" lon="6.74901">
        <ele>406</ele>
        <time>2015-11-01T10:04:49.000Z</time>
      </trkpt>
      <trkpt lat="47.58726" lon="6.74904">
        <ele>406</ele>
        <time>2015-11-01T10:04:50.000Z</time>
      </trkpt>
      <trkpt lat="47.58726" lon="6.74908">
        <ele>406</ele>
        <time>2015-11-01T10:04:51.000Z</time>
      </trkpt>
      <trkpt lat="47.58725" lon="6.74912">
        <ele>406</ele>
        <time>2015-11-01T10:04:52.000Z</time>
      </trkpt>
      <trkpt lat="47.58724" lon="6.74915">
        <ele>406</ele>
        <time>2015-11-01T10:04:53.000Z</time>
      </trkpt>
      <trkpt lat="47.58723" lon="6.74918">
        <ele>409</ele>
        <time>2015-11-01T10:04:54.000Z</time>
      </trkpt>
      <trkpt lat="47.58722" lon="6.74922">
        <ele>409</ele>
        <time>2015-11-01T10:04:55.000Z</time>
      </trkpt>
      <trkpt lat="47.58722" lon="6.74926">
        <ele>408</ele>
        <time>2015-11-01T10:04:56.000Z</time>
      </trkpt>
      <trkpt lat="47.58723" lon="6.7493">
        <ele>408</ele>
        <time>2015-11-01T10:04:57.000Z</time>
      </trkpt>
      <trkpt lat="47.58723" lon="6.74934">
        <ele>408</ele>
        <time>2015-11-01T10:04:58.000Z</time>
      </trkpt>
      <trkpt lat="47.58724" lon="6.74939">
        <ele>408</ele>
        <time>2015-11-01T10:04:59.000Z</time>
      </trkpt>
      <trkpt lat="47.58724" lon="6.74943">
        <ele>409</ele>
        <time>2015-11-01T10:05:00.000Z</time>
      </trkpt>
      <trkpt lat="47.58725" lon="6.74948">
        <ele>409</ele>
        <time>2015-11-01T10:05:01.000Z</time>
      </trkpt>
      <trkpt lat="47.58725" lon="6.74952">
        <ele>409</ele>
        <time>2015-11-01T10:05:02.000Z</time>
      </trkpt>
      <trkpt lat="47.58726" lon="6.74956">
        <ele>409</ele>
        <time>2015-11-01T10:05:03.000Z</time>
      </trkpt>
      <trkpt lat="47.58727" lon="6.74961">
        <ele>409</ele>
        <time>2015-11-01T10:05:04.000Z</time>
      </trkpt>
      <trkpt lat="47.58727" lon="6.74965">
        <ele>409</ele>
        <time>2015-11-01T10:05:05.000Z</time>
      </trkpt>
      <trkpt lat="47.58728" lon="6.74969">
        <ele>410</ele>
        <time>2015-11-01T10:05:06.000Z</time>
      </trkpt>
      <trkpt lat="47.58729" lon="6.74973">
        <ele>410</ele>
        <time>2015-11-01T10:05:07.000Z</time>
      </trkpt>
      <trkpt lat="47.5873" lon="6.74977">
        <ele>410</ele>
        <time>2015-11-01T10:05:08.000Z</time>
      </trkpt>
      <trkpt lat="47.5873" lon="6.74981">
        <ele>411</ele>
        <time>2015-11-01T10:05:09.000Z</time>
      </trkpt>
      <trkpt lat="47.58731" lon="6.74985">
        <ele>411</ele>
        <time>2015-11-01T10:05:10.000Z</time>
      </trkpt>
      <trkpt lat="47.58732" lon="6.74989">
        <ele>412</ele>
        <time>2015-11-01T10:05:11.000Z</time>
      </trkpt>
      <trkpt lat="47.58733" lon="6.74993">
        <ele>412</ele>
        <time>2015-11-01T10:05:12.000Z</time>
      </trkpt>
      <trkpt lat="47.58734" lon="6.74997">
        <ele>413</ele>
        <time>2015-11-01T10:05:13.000Z</time>
      </trkpt>
      <trkpt lat="47.58735" lon="6.75001">
        <ele>414</ele>
        <time>2015-11-01T10:05:14.000Z</time>
      </trkpt>
      <trkpt lat="47.58736" lon="6.75005">
        <ele>414</ele>
        <time>2015-11-01T10:05:15.000Z</time>
      </trkpt>
      <trkpt lat="47.58736" lon="6.75008">
        <ele>414</ele>
        <time>2015-11-01T10:05:16.000Z</time>
      </trkpt>
      <trkpt lat="47.58737" lon="6.75012">
        <ele>414</ele>
        <time>2015-11-01T10:05:17.000Z</time>
      </trkpt>
      <trkpt lat="47.58738" lon="6.75016">
        <ele>414</ele>
        <time>2015-11-01T10:05:18.000Z</time>
      </trkpt>
      <trkpt lat="47.58738" lon="6.75019">
        <ele>413</ele>
        <time>2015-11-01T10:05:19.000Z</time>
      </trkpt>
      <trkpt lat="47.58739" lon="6.75023">
        <ele>413</ele>
        <time>2015-11-01T10:05:20.000Z</time>
      </trkpt>
      <trkpt lat="47.5874" lon="6.75027">
        <ele>413</ele>
        <time>2015-11-01T10:05:21.000Z</time>
      </trkpt>
      <trkpt lat="47.58741" lon="6.75031">
        <ele>413</ele>
        <time>2015-11-01T10:05:22.000Z</time>
      </trkpt>
      <trkpt lat="47.58742" lon="6.75035">
        <ele>412</ele>
        <time>2015-11-01T10:05:23.000Z</time>
      </trkpt>
      <trkpt lat="47.58743" lon="6.75038">
        <ele>412</ele>
        <time>2015-11-01T10:05:24.000Z</time>
      </trkpt>
      <trkpt lat="47.58745" lon="6.75042">
        <ele>413</ele>
        <time>2015-11-01T10:05:25.000Z</time>
      </trkpt>
      <trkpt lat="47.58746" lon="6.75045">
        <ele>413</ele>
        <time>2015-11-01T10:05:26.000Z</time>
      </trkpt>
      <trkpt lat="47.58747" lon="6.75048">
        <ele>413</ele>
        <time>2015-11-01T10:05:27.000Z</time>
      </trkpt>
      <trkpt lat="47.58748" lon="6.75052">
        <ele>413</ele>
        <time>2015-11-01T10:05:28.000Z</time>
      </trkpt>
      <trkpt lat="47.58749" lon="6.75056">
        <ele>413</ele>
        <time>2015-11-01T10:05:29.000Z</time>
      </trkpt>
      <trkpt lat="47.58751" lon="6.7506">
        <ele>423</ele>
        <time>2015-11-01T10:05:30.000Z</time>
      </trkpt>
      <trkpt lat="47.58752" lon="6.75063">
        <ele>423</ele>
        <time>2015-11-01T10:05:31.000Z</time>
      </trkpt>
      <trkpt lat="47.58753" lon="6.75067">
        <ele>422</ele>
        <time>2015-11-01T10:05:32.000Z</time>
      </trkpt>
      <trkpt lat="47.58754" lon="6.75071">
        <ele>422</ele>
        <time>2015-11-01T10:05:33.000Z</time>
      </trkpt>
      <trkpt lat="47.58756" lon="6.75074">
        <ele>421</ele>
        <time>2015-11-01T10:05:34.000Z</time>
      </trkpt>
      <trkpt lat="47.58757" lon="6.75078">
        <ele>421</ele>
        <time>2015-11-01T10:05:35.000Z</time>
      </trkpt>
      <trkpt lat="47.58758" lon="6.75081">
        <ele>421</ele>
        <time>2015-11-01T10:05:36.000Z</time>
      </trkpt>
      <trkpt lat="47.5876" lon="6.75083">
        <ele>421</ele>
        <time>2015-11-01T10:05:37.000Z</time>
      </trkpt>
      <trkpt lat="47.58761" lon="6.75086">
        <ele>421</ele>
        <time>2015-11-01T10:05:38.000Z</time>
      </trkpt>
      <trkpt lat="47.58762" lon="6.75089">
        <ele>421</ele>
        <time>2015-11-01T10:05:39.000Z</time>
      </trkpt>
      <trkpt lat="47.58764" lon="6.75093">
        <ele>421</ele>
        <time>2015-11-01T10:05:40.000Z</time>
      </trkpt>
      <trkpt lat="47.58766" lon="6.75098">
        <ele>422</ele>
        <time>2015-11-01T10:05:42.000Z</time>
      </trkpt>
      <trkpt lat="47.58767" lon="6.75101">
        <ele>422</ele>
        <time>2015-11-01T10:05:43.000Z</time>
      </trkpt>
      <trkpt lat="47.58768" lon="6.75104">
        <ele>422</ele>
        <time>2015-11-01T10:05:44.000Z</time>
      </trkpt>
      <trkpt lat="47.5877" lon="6.75108">
        <ele>422</ele>
        <time>2015-11-01T10:05:45.000Z</time>
      </trkpt>
      <trkpt lat="47.58772" lon="6.75111">
        <ele>422</ele>
        <time>2015-11-01T10:05:46.000Z</time>
      </trkpt>
      <trkpt lat="47.58774" lon="6.75114">
        <ele>422</ele>
        <time>2015-11-01T10:05:47.000Z</time>
      </trkpt>
      <trkpt lat="47.58776" lon="6.75118">
        <ele>422</ele>
        <time>2015-11-01T10:05:48.000Z</time>
      </trkpt>
      <trkpt lat="47.58777" lon="6.75121">
        <ele>422</ele>
        <time>2015-11-01T10:05:49.000Z</time>
      </trkpt>
      <trkpt lat="47.58779" lon="6.75125">
        <ele>422</ele>
        <time>2015-11-01T10:05:50.000Z</time>
      </trkpt>
      <trkpt lat="47.58781" lon="6.75128">
        <ele>423</ele>
        <time>2015-11-01T10:05:51.000Z</time>
      </trkpt>
      <trkpt lat="47.58783" lon="6.75132">
        <ele>423</ele>
        <time>2015-11-01T10:05:52.000Z</time>
      </trkpt>
      <trkpt lat="47.58784" lon="6.75135">
        <ele>423</ele>
        <time>2015-11-01T10:05:53.000Z</time>
      </trkpt>
      <trkpt lat="47.58786" lon="6.75137">
        <ele>423</ele>
        <time>2015-11-01T10:05:54.000Z</time>
      </trkpt>
      <trkpt lat="47.58788" lon="6.7514">
        <ele>423</ele>
        <time>2015-11-01T10:05:55.000Z</time>
      </trkpt>
      <trkpt lat="47.5879" lon="6.75144">
        <ele>423</ele>
        <time>2015-11-01T10:05:56.000Z</time>
      </trkpt>
      <trkpt lat="47.58792" lon="6.75147">
        <ele>423</ele>
        <time>2015-11-01T10:05:57.000Z</time>
      </trkpt>
      <trkpt lat="47.58794" lon="6.7515">
        <ele>423</ele>
        <time>2015-11-01T10:05:58.000Z</time>
      </trkpt>
      <trkpt lat="47.58796" lon="6.75153">
        <ele>423</ele>
        <time>2015-11-01T10:05:59.000Z</time>
      </trkpt>
      <trkpt lat="47.58797" lon="6.75156">
        <ele>423</ele>
        <time>2015-11-01T10:06:00.000Z</time>
      </trkpt>
      <trkpt lat="47.58799" lon="6.75158">
        <ele>423</ele>
        <time>2015-11-01T10:06:01.000Z</time>
      </trkpt>
      <trkpt lat="47.58801" lon="6.7516">
        <ele>424</ele>
        <time>2015-11-01T10:06:02.000Z</time>
      </trkpt>
      <trkpt lat="47.58803" lon="6.75163">
        <ele>424</ele>
        <time>2015-11-01T10:06:03.000Z</time>
      </trkpt>
      <trkpt lat="47.58804" lon="6.75166">
        <ele>424</ele>
        <time>2015-11-01T10:06:04.000Z</time>
      </trkpt>
      <trkpt lat="47.58806" lon="6.75169">
        <ele>421</ele>
        <time>2015-11-01T10:06:05.000Z</time>
      </trkpt>
      <trkpt lat="47.58808" lon="6.75171">
        <ele>421</ele>
        <time>2015-11-01T10:06:06.000Z</time>
      </trkpt>
      <trkpt lat="47.5881" lon="6.75174">
        <ele>421</ele>
        <time>2015-11-01T10:06:07.000Z</time>
      </trkpt>
      <trkpt lat="47.58812" lon="6.75176">
        <ele>422</ele>
        <time>2015-11-01T10:06:08.000Z</time>
      </trkpt>
      <trkpt lat="47.58814" lon="6.75179">
        <ele>422</ele>
        <time>2015-11-01T10:06:09.000Z</time>
      </trkpt>
      <trkpt lat="47.58817" lon="6.75181">
        <ele>422</ele>
        <time>2015-11-01T10:06:10.000Z</time>
      </trkpt>
      <trkpt lat="47.58819" lon="6.75183">
        <ele>422</ele>
        <time>2015-11-01T10:06:11.000Z</time>
      </trkpt>
      <trkpt lat="47.58821" lon="6.75186">
        <ele>422</ele>
        <time>2015-11-01T10:06:12.000Z</time>
      </trkpt>
      <trkpt lat="47.58822" lon="6.75189">
        <ele>422</ele>
        <time>2015-11-01T10:06:13.000Z</time>
      </trkpt>
      <trkpt lat="47.58824" lon="6.75192">
        <ele>421</ele>
        <time>2015-11-01T10:06:14.000Z</time>
      </trkpt>
      <trkpt lat="47.58826" lon="6.75194">
        <ele>421</ele>
        <time>2015-11-01T10:06:15.000Z</time>
      </trkpt>
      <trkpt lat="47.58828" lon="6.75196">
        <ele>421</ele>
        <time>2015-11-01T10:06:16.000Z</time>
      </trkpt>
      <trkpt lat="47.58831" lon="6.75198">
        <ele>421</ele>
        <time>2015-11-01T10:06:17.000Z</time>
      </trkpt>
      <trkpt lat="47.58833" lon="6.752">
        <ele>421</ele>
        <time>2015-11-01T10:06:18.000Z</time>
      </trkpt>
      <trkpt lat="47.58836" lon="6.75202">
        <ele>431</ele>
        <time>2015-11-01T10:06:19.000Z</time>
      </trkpt>
      <trkpt lat="47.58838" lon="6.75204">
        <ele>431</ele>
        <time>2015-11-01T10:06:20.000Z</time>
      </trkpt>
      <trkpt lat="47.5884" lon="6.75207">
        <ele>431</ele>
        <time>2015-11-01T10:06:21.000Z</time>
      </trkpt>
      <trkpt lat="47.58842" lon="6.7521">
        <ele>431</ele>
        <time>2015-11-01T10:06:22.000Z</time>
      </trkpt>
      <trkpt lat="47.58844" lon="6.75213">
        <ele>431</ele>
        <time>2015-11-01T10:06:23.000Z</time>
      </trkpt>
      <trkpt lat="47.58847" lon="6.75216">
        <ele>431</ele>
        <time>2015-11-01T10:06:24.000Z</time>
      </trkpt>
      <trkpt lat="47.58849" lon="6.75219">
        <ele>431</ele>
        <time>2015-11-01T10:06:25.000Z</time>
      </trkpt>
      <trkpt lat="47.58851" lon="6.75222">
        <ele>431</ele>
        <time>2015-11-01T10:06:26.000Z</time>
      </trkpt>
      <trkpt lat="47.58854" lon="6.75225">
        <ele>431</ele>
        <time>2015-11-01T10:06:27.000Z</time>
      </trkpt>
      <trkpt lat="47.58856" lon="6.75227">
        <ele>431</ele>
        <time>2015-11-01T10:06:28.000Z</time>
      </trkpt>
      <trkpt lat="47.58859" lon="6.7523">
        <ele>432</ele>
        <time>2015-11-01T10:06:29.000Z</time>
      </trkpt>
      <trkpt lat="47.58861" lon="6.75232">
        <ele>432</ele>
        <time>2015-11-01T10:06:30.000Z</time>
      </trkpt>
      <trkpt lat="47.58864" lon="6.75235">
        <ele>432</ele>
        <time>2015-11-01T10:06:31.000Z</time>
      </trkpt>
      <trkpt lat="47.58866" lon="6.75237">
        <ele>432</ele>
        <time>2015-11-01T10:06:32.000Z</time>
      </trkpt>
      <trkpt lat="47.58868" lon="6.75239">
        <ele>433</ele>
        <time>2015-11-01T10:06:33.000Z</time>
      </trkpt>
      <trkpt lat="47.5887" lon="6.75241">
        <ele>433</ele>
        <time>2015-11-01T10:06:34.000Z</time>
      </trkpt>
      <trkpt lat="47.58872" lon="6.75243">
        <ele>433</ele>
        <time>2015-11-01T10:06:35.000Z</time>
      </trkpt>
      <trkpt lat="47.58874" lon="6.75245">
        <ele>434</ele>
        <time>2015-11-01T10:06:36.000Z</time>
      </trkpt>
      <trkpt lat="47.58876" lon="6.75247">
        <ele>434</ele>
        <time>2015-11-01T10:06:37.000Z</time>
      </trkpt>
      <trkpt lat="47.58878" lon="6.75249">
        <ele>434</ele>
        <time>2015-11-01T10:06:38.000Z</time>
      </trkpt>
      <trkpt lat="47.5888" lon="6.75251">
        <ele>431</ele>
        <time>2015-11-01T10:06:39.000Z</time>
      </trkpt>
      <trkpt lat="47.58882" lon="6.75254">
        <ele>432</ele>
        <time>2015-11-01T10:06:40.000Z</time>
      </trkpt>
      <trkpt lat="47.58884" lon="6.75257">
        <ele>432</ele>
        <time>2015-11-01T10:06:41.000Z</time>
      </trkpt>
      <trkpt lat="47.58885" lon="6.7526">
        <ele>432</ele>
        <time>2015-11-01T10:06:42.000Z</time>
      </trkpt>
      <trkpt lat="47.58887" lon="6.75263">
        <ele>432</ele>
        <time>2015-11-01T10:06:43.000Z</time>
      </trkpt>
      <trkpt lat="47.58888" lon="6.75266">
        <ele>432</ele>
        <time>2015-11-01T10:06:44.000Z</time>
      </trkpt>
      <trkpt lat="47.58889" lon="6.75269">
        <ele>432</ele>
        <time>2015-11-01T10:06:45.000Z</time>
      </trkpt>
      <trkpt lat="47.58891" lon="6.75273">
        <ele>432</ele>
        <time>2015-11-01T10:06:46.000Z</time>
      </trkpt>
      <trkpt lat="47.58893" lon="6.75276">
        <ele>432</ele>
        <time>2015-11-01T10:06:47.000Z</time>
      </trkpt>
      <trkpt lat="47.58895" lon="6.7528">
        <ele>432</ele>
        <time>2015-11-01T10:06:48.000Z</time>
      </trkpt>
      <trkpt lat="47.58897" lon="6.75284">
        <ele>432</ele>
        <time>2015-11-01T10:06:49.000Z</time>
      </trkpt>
      <trkpt lat="47.58898" lon="6.75287">
        <ele>432</ele>
        <time>2015-11-01T10:06:50.000Z</time>
      </trkpt>
      <trkpt lat="47.589" lon="6.75291">
        <ele>432</ele>
        <time>2015-11-01T10:06:51.000Z</time>
      </trkpt>
      <trkpt lat="47.58901" lon="6.75295">
        <ele>432</ele>
        <time>2015-11-01T10:06:52.000Z</time>
      </trkpt>
      <trkpt lat="47.58902" lon="6.75299">
        <ele>432</ele>
        <time>2015-11-01T10:06:53.000Z</time>
      </trkpt>
      <trkpt lat="47.58903" lon="6.75302">
        <ele>432</ele>
        <time>2015-11-01T10:06:54.000Z</time>
      </trkpt>
      <trkpt lat="47.58904" lon="6.75305">
        <ele>432</ele>
        <time>2015-11-01T10:06:55.000Z</time>
      </trkpt>
      <trkpt lat="47.58906" lon="6.7531">
        <ele>432</ele>
        <time>2015-11-01T10:06:57.000Z</time>
      </trkpt>
      <trkpt lat="47.58908" lon="6.75313">
        <ele>432</ele>
        <time>2015-11-01T10:06:58.000Z</time>
      </trkpt>
      <trkpt lat="47.58909" lon="6.75316">
        <ele>433</ele>
        <time>2015-11-01T10:06:59.000Z</time>
      </trkpt>
      <trkpt lat="47.58911" lon="6.75319">
        <ele>433</ele>
        <time>2015-11-01T10:07:00.000Z</time>
      </trkpt>
      <trkpt lat="47.58912" lon="6.75322">
        <ele>434</ele>
        <time>2015-11-01T10:07:01.000Z</time>
      </trkpt>
      <trkpt lat="47.58913" lon="6.75324">
        <ele>434</ele>
        <time>2015-11-01T10:07:02.000Z</time>
      </trkpt>
      <trkpt lat="47.58915" lon="6.75327">
        <ele>435</ele>
        <time>2015-11-01T10:07:03.000Z</time>
      </trkpt>
      <trkpt lat="47.58916" lon="6.7533">
        <ele>435</ele>
        <time>2015-11-01T10:07:04.000Z</time>
      </trkpt>
      <trkpt lat="47.58917" lon="6.75333">
        <ele>436</ele>
        <time>2015-11-01T10:07:05.000Z</time>
      </trkpt>
      <trkpt lat="47.58918" lon="6.75336">
        <ele>437</ele>
        <time>2015-11-01T10:07:06.000Z</time>
      </trkpt>
      <trkpt lat="47.58919" lon="6.75339">
        <ele>438</ele>
        <time>2015-11-01T10:07:07.000Z</time>
      </trkpt>
      <trkpt lat="47.5892" lon="6.75342">
        <ele>439</ele>
        <time>2015-11-01T10:07:08.000Z</time>
      </trkpt>
      <trkpt lat="47.58923" lon="6.75347">
        <ele>441</ele>
        <time>2015-11-01T10:07:10.000Z</time>
      </trkpt>
      <trkpt lat="47.58924" lon="6.75348">
        <ele>441</ele>
        <time>2015-11-01T10:07:11.000Z</time>
      </trkpt>
      <trkpt lat="47.58926" lon="6.75352">
        <ele>442</ele>
        <time>2015-11-01T10:07:14.000Z</time>
      </trkpt>
      <trkpt lat="47.58927" lon="6.75354">
        <ele>442</ele>
        <time>2015-11-01T10:07:15.000Z</time>
      </trkpt>
      <trkpt lat="47.58929" lon="6.75357">
        <ele>443</ele>
        <time>2015-11-01T10:07:17.000Z</time>
      </trkpt>
      <trkpt lat="47.58929" lon="6.75359">
        <ele>443</ele>
        <time>2015-11-01T10:07:18.000Z</time>
      </trkpt>
      <trkpt lat="47.5893" lon="6.75363">
        <ele>443</ele>
        <time>2015-11-01T10:07:20.000Z</time>
      </trkpt>
      <trkpt lat="47.58931" lon="6.75366">
        <ele>443</ele>
        <time>2015-11-01T10:07:21.000Z</time>
      </trkpt>
      <trkpt lat="47.58932" lon="6.75371">
        <ele>444</ele>
        <time>2015-11-01T10:07:24.000Z</time>
      </trkpt>
      <trkpt lat="47.58932" lon="6.75372">
        <ele>444</ele>
        <time>2015-11-01T10:07:25.000Z</time>
      </trkpt>
      <trkpt lat="47.58935" lon="6.75377">
        <ele>444</ele>
        <time>2015-11-01T10:07:29.000Z</time>
      </trkpt>
      <trkpt lat="47.58936" lon="6.75378">
        <ele>444</ele>
        <time>2015-11-01T10:07:30.000Z</time>
      </trkpt>
      <trkpt lat="47.58938" lon="6.75383">
        <ele>444</ele>
        <time>2015-11-01T10:07:34.000Z</time>
      </trkpt>
      <trkpt lat="47.58938" lon="6.75385">
        <ele>444</ele>
        <time>2015-11-01T10:07:35.000Z</time>
      </trkpt>
      <trkpt lat="47.58941" lon="6.75388">
        <ele>444</ele>
        <time>2015-11-01T10:07:39.000Z</time>
      </trkpt>
      <trkpt lat="47.58941" lon="6.75389">
        <ele>444</ele>
        <time>2015-11-01T10:07:40.000Z</time>
      </trkpt>
      <trkpt lat="47.58942" lon="6.75394">
        <ele>444</ele>
        <time>2015-11-01T10:07:43.000Z</time>
      </trkpt>
      <trkpt lat="47.58943" lon="6.75396">
        <ele>444</ele>
        <time>2015-11-01T10:07:44.000Z</time>
      </trkpt>
      <trkpt lat="47.58945" lon="6.75399">
        <ele>444</ele>
        <time>2015-11-01T10:07:46.000Z</time>
      </trkpt>
      <trkpt lat="47.58946" lon="6.75401">
        <ele>444</ele>
        <time>2015-11-01T10:07:47.000Z</time>
      </trkpt>
      <trkpt lat="47.58948" lon="6.75406">
        <ele>445</ele>
        <time>2015-11-01T10:07:50.000Z</time>
      </trkpt>
      <trkpt lat="47.58949" lon="6.75408">
        <ele>445</ele>
        <time>2015-11-01T10:07:51.000Z</time>
      </trkpt>
      <trkpt lat="47.58949" lon="6.75412">
        <ele>445</ele>
        <time>2015-11-01T10:07:53.000Z</time>
      </trkpt>
      <trkpt lat="47.58949" lon="6.75414">
        <ele>445</ele>
        <time>2015-11-01T10:07:54.000Z</time>
      </trkpt>
      <trkpt lat="47.58951" lon="6.75419">
        <ele>444</ele>
        <time>2015-11-01T10:07:56.000Z</time>
      </trkpt>
      <trkpt lat="47.58952" lon="6.75421">
        <ele>444</ele>
        <time>2015-11-01T10:07:57.000Z</time>
      </trkpt>
      <trkpt lat="47.58955" lon="6.75425">
        <ele>445</ele>
        <time>2015-11-01T10:08:00.000Z</time>
      </trkpt>
      <trkpt lat="47.58956" lon="6.75427">
        <ele>445</ele>
        <time>2015-11-01T10:08:01.000Z</time>
      </trkpt>
      <trkpt lat="47.58957" lon="6.75433">
        <ele>445</ele>
        <time>2015-11-01T10:08:04.000Z</time>
      </trkpt>
      <trkpt lat="47.58957" lon="6.75436">
        <ele>445</ele>
        <time>2015-11-01T10:08:05.000Z</time>
      </trkpt>
      <trkpt lat="47.58958" lon="6.75439">
        <ele>445</ele>
        <time>2015-11-01T10:08:06.000Z</time>
      </trkpt>
      <trkpt lat="47.58958" lon="6.75443">
        <ele>445</ele>
        <time>2015-11-01T10:08:07.000Z</time>
      </trkpt>
      <trkpt lat="47.58959" lon="6.75447">
        <ele>445</ele>
        <time>2015-11-01T10:08:08.000Z</time>
      </trkpt>
      <trkpt lat="47.5896" lon="6.75452">
        <ele>445</ele>
        <time>2015-11-01T10:08:09.000Z</time>
      </trkpt>
      <trkpt lat="47.58961" lon="6.75457">
        <ele>445</ele>
        <time>2015-11-01T10:08:10.000Z</time>
      </trkpt>
      <trkpt lat="47.58963" lon="6.75461">
        <ele>445</ele>
        <time>2015-11-01T10:08:11.000Z</time>
      </trkpt>
      <trkpt lat="47.58964" lon="6.75466">
        <ele>446</ele>
        <time>2015-11-01T10:08:12.000Z</time>
      </trkpt>
      <trkpt lat="47.58964" lon="6.7547">
        <ele>446</ele>
        <time>2015-11-01T10:08:13.000Z</time>
      </trkpt>
      <trkpt lat="47.58966" lon="6.75474">
        <ele>446</ele>
        <time>2015-11-01T10:08:14.000Z</time>
      </trkpt>
      <trkpt lat="47.58967" lon="6.75479">
        <ele>446</ele>
        <time>2015-11-01T10:08:15.000Z</time>
      </trkpt>
      <trkpt lat="47.58968" lon="6.75484">
        <ele>446</ele>
        <time>2015-11-01T10:08:16.000Z</time>
      </trkpt>
      <trkpt lat="47.58969" lon="6.75488">
        <ele>447</ele>
        <time>2015-11-01T10:08:17.000Z</time>
      </trkpt>
      <trkpt lat="47.5897" lon="6.75493">
        <ele>447</ele>
        <time>2015-11-01T10:08:18.000Z</time>
      </trkpt>
      <trkpt lat="47.58971" lon="6.75497">
        <ele>447</ele>
        <time>2015-11-01T10:08:19.000Z</time>
      </trkpt>
      <trkpt lat="47.58971" lon="6.75502">
        <ele>446</ele>
        <time>2015-11-01T10:08:20.000Z</time>
      </trkpt>
      <trkpt lat="47.58971" lon="6.75507">
        <ele>446</ele>
        <time>2015-11-01T10:08:21.000Z</time>
      </trkpt>
      <trkpt lat="47.58972" lon="6.75511">
        <ele>446</ele>
        <time>2015-11-01T10:08:22.000Z</time>
      </trkpt>
      <trkpt lat="47.58973" lon="6.75516">
        <ele>446</ele>
        <time>2015-11-01T10:08:23.000Z</time>
      </trkpt>
      <trkpt lat="47.58974" lon="6.75521">
        <ele>446</ele>
        <time>2015-11-01T10:08:24.000Z</time>
      </trkpt>
      <trkpt lat="47.58975" lon="6.75526">
        <ele>446</ele>
        <time>2015-11-01T10:08:25.000Z</time>
      </trkpt>
      <trkpt lat="47.58976" lon="6.75531">
        <ele>446</ele>
        <time>2015-11-01T10:08:26.000Z</time>
      </trkpt>
      <trkpt lat="47.58977" lon="6.75536">
        <ele>446</ele>
        <time>2015-11-01T10:08:27.000Z</time>
      </trkpt>
      <trkpt lat="47.58978" lon="6.75541">
        <ele>446</ele>
        <time>2015-11-01T10:08:28.000Z</time>
      </trkpt>
      <trkpt lat="47.5898" lon="6.75546">
        <ele>446</ele>
        <time>2015-11-01T10:08:29.000Z</time>
      </trkpt>
      <trkpt lat="47.58981" lon="6.75551">
        <ele>447</ele>
        <time>2015-11-01T10:08:30.000Z</time>
      </trkpt>
      <trkpt lat="47.58983" lon="6.75555">
        <ele>447</ele>
        <time>2015-11-01T10:08:31.000Z</time>
      </trkpt>
      <trkpt lat="47.58984" lon="6.75559">
        <ele>447</ele>
        <time>2015-11-01T10:08:32.000Z</time>
      </trkpt>
      <trkpt lat="47.58986" lon="6.75563">
        <ele>448</ele>
        <time>2015-11-01T10:08:33.000Z</time>
      </trkpt>
      <trkpt lat="47.58988" lon="6.75566">
        <ele>448</ele>
        <time>2015-11-01T10:08:34.000Z</time>
      </trkpt>
      <trkpt lat="47.58991" lon="6.75569">
        <ele>449</ele>
        <time>2015-11-01T10:08:35.000Z</time>
      </trkpt>
      <trkpt lat="47.58993" lon="6.75573">
        <ele>450</ele>
        <time>2015-11-01T10:08:36.000Z</time>
      </trkpt>
      <trkpt lat="47.58994" lon="6.75577">
        <ele>451</ele>
        <time>2015-11-01T10:08:37.000Z</time>
      </trkpt>
      <trkpt lat="47.58995" lon="6.75582">
        <ele>451</ele>
        <time>2015-11-01T10:08:38.000Z</time>
      </trkpt>
      <trkpt lat="47.58996" lon="6.75587">
        <ele>452</ele>
        <time>2015-11-01T10:08:39.000Z</time>
      </trkpt>
      <trkpt lat="47.58997" lon="6.75592">
        <ele>451</ele>
        <time>2015-11-01T10:08:40.000Z</time>
      </trkpt>
      <trkpt lat="47.58998" lon="6.75597">
        <ele>450</ele>
        <time>2015-11-01T10:08:41.000Z</time>
      </trkpt>
      <trkpt lat="47.58999" lon="6.75602">
        <ele>449</ele>
        <time>2015-11-01T10:08:42.000Z</time>
      </trkpt>
      <trkpt lat="47.59" lon="6.75607">
        <ele>449</ele>
        <time>2015-11-01T10:08:43.000Z</time>
      </trkpt>
      <trkpt lat="47.59" lon="6.75612">
        <ele>457</ele>
        <time>2015-11-01T10:08:44.000Z</time>
      </trkpt>
      <trkpt lat="47.59001" lon="6.75616">
        <ele>457</ele>
        <time>2015-11-01T10:08:45.000Z</time>
      </trkpt>
      <trkpt lat="47.59002" lon="6.7562">
        <ele>457</ele>
        <time>2015-11-01T10:08:46.000Z</time>
      </trkpt>
      <trkpt lat="47.59003" lon="6.75625">
        <ele>457</ele>
        <time>2015-11-01T10:08:47.000Z</time>
      </trkpt>
      <trkpt lat="47.59004" lon="6.75629">
        <ele>457</ele>
        <time>2015-11-01T10:08:48.000Z</time>
      </trkpt>
      <trkpt lat="47.59005" lon="6.75633">
        <ele>457</ele>
        <time>2015-11-01T10:08:49.000Z</time>
      </trkpt>
      <trkpt lat="47.59006" lon="6.75637">
        <ele>457</ele>
        <time>2015-11-01T10:08:50.000Z</time>
      </trkpt>
      <trkpt lat="47.59007" lon="6.75642">
        <ele>457</ele>
        <time>2015-11-01T10:08:51.000Z</time>
      </trkpt>
      <trkpt lat="47.59008" lon="6.75646">
        <ele>456</ele>
        <time>2015-11-01T10:08:52.000Z</time>
      </trkpt>
      <trkpt lat="47.59009" lon="6.7565">
        <ele>456</ele>
        <time>2015-11-01T10:08:53.000Z</time>
      </trkpt>
      <trkpt lat="47.5901" lon="6.75653">
        <ele>456</ele>
        <time>2015-11-01T10:08:54.000Z</time>
      </trkpt>
      <trkpt lat="47.59011" lon="6.75657">
        <ele>456</ele>
        <time>2015-11-01T10:08:55.000Z</time>
      </trkpt>
      <trkpt lat="47.59012" lon="6.7566">
        <ele>456</ele>
        <time>2015-11-01T10:08:56.000Z</time>
      </trkpt>
      <trkpt lat="47.59014" lon="6.75663">
        <ele>456</ele>
        <time>2015-11-01T10:08:57.000Z</time>
      </trkpt>
      <trkpt lat="47.59015" lon="6.75667">
        <ele>456</ele>
        <time>2015-11-01T10:08:58.000Z</time>
      </trkpt>
      <trkpt lat="47.59018" lon="6.75671">
        <ele>456</ele>
        <time>2015-11-01T10:08:59.000Z</time>
      </trkpt>
      <trkpt lat="47.59019" lon="6.75675">
        <ele>456</ele>
        <time>2015-11-01T10:09:00.000Z</time>
      </trkpt>
      <trkpt lat="47.59021" lon="6.75679">
        <ele>456</ele>
        <time>2015-11-01T10:09:01.000Z</time>
      </trkpt>
      <trkpt lat="47.59022" lon="6.75683">
        <ele>457</ele>
        <time>2015-11-01T10:09:02.000Z</time>
      </trkpt>
      <trkpt lat="47.59023" lon="6.75687">
        <ele>457</ele>
        <time>2015-11-01T10:09:03.000Z</time>
      </trkpt>
      <trkpt lat="47.59024" lon="6.75691">
        <ele>457</ele>
        <time>2015-11-01T10:09:04.000Z</time>
      </trkpt>
      <trkpt lat="47.59025" lon="6.75695">
        <ele>457</ele>
        <time>2015-11-01T10:09:05.000Z</time>
      </trkpt>
      <trkpt lat="47.59026" lon="6.75698">
        <ele>457</ele>
        <time>2015-11-01T10:09:06.000Z</time>
      </trkpt>
      <trkpt lat="47.59027" lon="6.75702">
        <ele>457</ele>
        <time>2015-11-01T10:09:07.000Z</time>
      </trkpt>
      <trkpt lat="47.59028" lon="6.75706">
        <ele>457</ele>
        <time>2015-11-01T10:09:08.000Z</time>
      </trkpt>
      <trkpt lat="47.5903" lon="6.7571">
        <ele>457</ele>
        <time>2015-11-01T10:09:09.000Z</time>
      </trkpt>
      <trkpt lat="47.59032" lon="6.75714">
        <ele>457</ele>
        <time>2015-11-01T10:09:10.000Z</time>
      </trkpt>
      <trkpt lat="47.59033" lon="6.75717">
        <ele>457</ele>
        <time>2015-11-01T10:09:11.000Z</time>
      </trkpt>
      <trkpt lat="47.59035" lon="6.75721">
        <ele>457</ele>
        <time>2015-11-01T10:09:12.000Z</time>
      </trkpt>
      <trkpt lat="47.59036" lon="6.75724">
        <ele>458</ele>
        <time>2015-11-01T10:09:13.000Z</time>
      </trkpt>
      <trkpt lat="47.59038" lon="6.75727">
        <ele>458</ele>
        <time>2015-11-01T10:09:14.000Z</time>
      </trkpt>
      <trkpt lat="47.59039" lon="6.75731">
        <ele>458</ele>
        <time>2015-11-01T10:09:15.000Z</time>
      </trkpt>
      <trkpt lat="47.59041" lon="6.75734">
        <ele>458</ele>
        <time>2015-11-01T10:09:16.000Z</time>
      </trkpt>
      <trkpt lat="47.59042" lon="6.75737">
        <ele>458</ele>
        <time>2015-11-01T10:09:17.000Z</time>
      </trkpt>
      <trkpt lat="47.59043" lon="6.7574">
        <ele>458</ele>
        <time>2015-11-01T10:09:18.000Z</time>
      </trkpt>
      <trkpt lat="47.59045" lon="6.75743">
        <ele>458</ele>
        <time>2015-11-01T10:09:19.000Z</time>
      </trkpt>
      <trkpt lat="47.59047" lon="6.75746">
        <ele>459</ele>
        <time>2015-11-01T10:09:20.000Z</time>
      </trkpt>
      <trkpt lat="47.59049" lon="6.75749">
        <ele>459</ele>
        <time>2015-11-01T10:09:21.000Z</time>
      </trkpt>
      <trkpt lat="47.59051" lon="6.75752">
        <ele>457</ele>
        <time>2015-11-01T10:09:22.000Z</time>
      </trkpt>
      <trkpt lat="47.59053" lon="6.75755">
        <ele>457</ele>
        <time>2015-11-01T10:09:23.000Z</time>
      </trkpt>
      <trkpt lat="47.59055" lon="6.75758">
        <ele>457</ele>
        <time>2015-11-01T10:09:24.000Z</time>
      </trkpt>
      <trkpt lat="47.59056" lon="6.75761">
        <ele>457</ele>
        <time>2015-11-01T10:09:25.000Z</time>
      </trkpt>
      <trkpt lat="47.59058" lon="6.75764">
        <ele>458</ele>
        <time>2015-11-01T10:09:26.000Z</time>
      </trkpt>
      <trkpt lat="47.59059" lon="6.75767">
        <ele>458</ele>
        <time>2015-11-01T10:09:27.000Z</time>
      </trkpt>
      <trkpt lat="47.59061" lon="6.7577">
        <ele>458</ele>
        <time>2015-11-01T10:09:28.000Z</time>
      </trkpt>
      <trkpt lat="47.59062" lon="6.75772">
        <ele>458</ele>
        <time>2015-11-01T10:09:29.000Z</time>
      </trkpt>
      <trkpt lat="47.59063" lon="6.75775">
        <ele>458</ele>
        <time>2015-11-01T10:09:30.000Z</time>
      </trkpt>
      <trkpt lat="47.59065" lon="6.75778">
        <ele>457</ele>
        <time>2015-11-01T10:09:31.000Z</time>
      </trkpt>
      <trkpt lat="47.59066" lon="6.75781">
        <ele>457</ele>
        <time>2015-11-01T10:09:32.000Z</time>
      </trkpt>
      <trkpt lat="47.59067" lon="6.75784">
        <ele>457</ele>
        <time>2015-11-01T10:09:33.000Z</time>
      </trkpt>
      <trkpt lat="47.59069" lon="6.75787">
        <ele>457</ele>
        <time>2015-11-01T10:09:34.000Z</time>
      </trkpt>
      <trkpt lat="47.5907" lon="6.75791">
        <ele>457</ele>
        <time>2015-11-01T10:09:35.000Z</time>
      </trkpt>
      <trkpt lat="47.59072" lon="6.75794">
        <ele>457</ele>
        <time>2015-11-01T10:09:36.000Z</time>
      </trkpt>
      <trkpt lat="47.59073" lon="6.75797">
        <ele>457</ele>
        <time>2015-11-01T10:09:37.000Z</time>
      </trkpt>
      <trkpt lat="47.59075" lon="6.758">
        <ele>457</ele>
        <time>2015-11-01T10:09:38.000Z</time>
      </trkpt>
      <trkpt lat="47.59077" lon="6.75803">
        <ele>457</ele>
        <time>2015-11-01T10:09:39.000Z</time>
      </trkpt>
      <trkpt lat="47.59079" lon="6.75806">
        <ele>457</ele>
        <time>2015-11-01T10:09:40.000Z</time>
      </trkpt>
      <trkpt lat="47.5908" lon="6.75809">
        <ele>458</ele>
        <time>2015-11-01T10:09:41.000Z</time>
      </trkpt>
      <trkpt lat="47.59082" lon="6.75813">
        <ele>458</ele>
        <time>2015-11-01T10:09:42.000Z</time>
      </trkpt>
      <trkpt lat="47.59083" lon="6.75816">
        <ele>458</ele>
        <time>2015-11-01T10:09:43.000Z</time>
      </trkpt>
      <trkpt lat="47.59085" lon="6.7582">
        <ele>465</ele>
        <time>2015-11-01T10:09:44.000Z</time>
      </trkpt>
      <trkpt lat="47.59086" lon="6.75823">
        <ele>464</ele>
        <time>2015-11-01T10:09:45.000Z</time>
      </trkpt>
      <trkpt lat="47.59088" lon="6.75827">
        <ele>464</ele>
        <time>2015-11-01T10:09:46.000Z</time>
      </trkpt>
      <trkpt lat="47.59089" lon="6.7583">
        <ele>463</ele>
        <time>2015-11-01T10:09:47.000Z</time>
      </trkpt>
      <trkpt lat="47.5909" lon="6.75834">
        <ele>463</ele>
        <time>2015-11-01T10:09:48.000Z</time>
      </trkpt>
      <trkpt lat="47.59092" lon="6.75837">
        <ele>463</ele>
        <time>2015-11-01T10:09:49.000Z</time>
      </trkpt>
      <trkpt lat="47.59093" lon="6.7584">
        <ele>464</ele>
        <time>2015-11-01T10:09:50.000Z</time>
      </trkpt>
      <trkpt lat="47.59094" lon="6.75843">
        <ele>464</ele>
        <time>2015-11-01T10:09:51.000Z</time>
      </trkpt>
      <trkpt lat="47.59096" lon="6.75847">
        <ele>465</ele>
        <time>2015-11-01T10:09:52.000Z</time>
      </trkpt>
      <trkpt lat="47.59097" lon="6.7585">
        <ele>465</ele>
        <time>2015-11-01T10:09:53.000Z</time>
      </trkpt>
      <trkpt lat="47.59098" lon="6.75852">
        <ele>465</ele>
        <time>2015-11-01T10:09:54.000Z</time>
      </trkpt>
      <trkpt lat="47.591" lon="6.75855">
        <ele>465</ele>
        <time>2015-11-01T10:09:55.000Z</time>
      </trkpt>
      <trkpt lat="47.59101" lon="6.75858">
        <ele>466</ele>
        <time>2015-11-01T10:09:56.000Z</time>
      </trkpt>
      <trkpt lat="47.59103" lon="6.75861">
        <ele>466</ele>
        <time>2015-11-01T10:09:57.000Z</time>
      </trkpt>
      <trkpt lat="47.59104" lon="6.75865">
        <ele>466</ele>
        <time>2015-11-01T10:09:58.000Z</time>
      </trkpt>
      <trkpt lat="47.59106" lon="6.75868">
        <ele>466</ele>
        <time>2015-11-01T10:09:59.000Z</time>
      </trkpt>
      <trkpt lat="47.59107" lon="6.75871">
        <ele>466</ele>
        <time>2015-11-01T10:10:00.000Z</time>
      </trkpt>
      <trkpt lat="47.59109" lon="6.75874">
        <ele>466</ele>
        <time>2015-11-01T10:10:01.000Z</time>
      </trkpt>
      <trkpt lat="47.5911" lon="6.75877">
        <ele>466</ele>
        <time>2015-11-01T10:10:02.000Z</time>
      </trkpt>
      <trkpt lat="47.59112" lon="6.75881">
        <ele>466</ele>
        <time>2015-11-01T10:10:03.000Z</time>
      </trkpt>
      <trkpt lat="47.59113" lon="6.75885">
        <ele>466</ele>
        <time>2015-11-01T10:10:04.000Z</time>
      </trkpt>
      <trkpt lat="47.59114" lon="6.75889">
        <ele>466</ele>
        <time>2015-11-01T10:10:05.000Z</time>
      </trkpt>
      <trkpt lat="47.59115" lon="6.75892">
        <ele>466</ele>
        <time>2015-11-01T10:10:06.000Z</time>
      </trkpt>
      <trkpt lat="47.59116" lon="6.75896">
        <ele>466</ele>
        <time>2015-11-01T10:10:07.000Z</time>
      </trkpt>
      <trkpt lat="47.59116" lon="6.759">
        <ele>466</ele>
        <time>2015-11-01T10:10:08.000Z</time>
      </trkpt>
      <trkpt lat="47.59117" lon="6.75903">
        <ele>466</ele>
        <time>2015-11-01T10:10:09.000Z</time>
      </trkpt>
      <trkpt lat="47.59119" lon="6.75906">
        <ele>466</ele>
        <time>2015-11-01T10:10:10.000Z</time>
      </trkpt>
      <trkpt lat="47.5912" lon="6.7591">
        <ele>466</ele>
        <time>2015-11-01T10:10:11.000Z</time>
      </trkpt>
      <trkpt lat="47.59122" lon="6.75913">
        <ele>467</ele>
        <time>2015-11-01T10:10:12.000Z</time>
      </trkpt>
      <trkpt lat="47.59124" lon="6.75916">
        <ele>467</ele>
        <time>2015-11-01T10:10:13.000Z</time>
      </trkpt>
      <trkpt lat="47.59125" lon="6.75919">
        <ele>464</ele>
        <time>2015-11-01T10:10:14.000Z</time>
      </trkpt>
      <trkpt lat="47.59127" lon="6.75922">
        <ele>465</ele>
        <time>2015-11-01T10:10:15.000Z</time>
      </trkpt>
      <trkpt lat="47.59128" lon="6.75926">
        <ele>465</ele>
        <time>2015-11-01T10:10:16.000Z</time>
      </trkpt>
      <trkpt lat="47.5913" lon="6.75929">
        <ele>465</ele>
        <time>2015-11-01T10:10:17.000Z</time>
      </trkpt>
      <trkpt lat="47.59132" lon="6.75933">
        <ele>465</ele>
        <time>2015-11-01T10:10:18.000Z</time>
      </trkpt>
      <trkpt lat="47.59133" lon="6.75937">
        <ele>465</ele>
        <time>2015-11-01T10:10:19.000Z</time>
      </trkpt>
      <trkpt lat="47.59135" lon="6.75941">
        <ele>466</ele>
        <time>2015-11-01T10:10:20.000Z</time>
      </trkpt>
      <trkpt lat="47.59137" lon="6.75944">
        <ele>466</ele>
        <time>2015-11-01T10:10:21.000Z</time>
      </trkpt>
      <trkpt lat="47.59138" lon="6.75947">
        <ele>466</ele>
        <time>2015-11-01T10:10:22.000Z</time>
      </trkpt>
      <trkpt lat="47.59139" lon="6.7595">
        <ele>466</ele>
        <time>2015-11-01T10:10:23.000Z</time>
      </trkpt>
      <trkpt lat="47.59141" lon="6.75952">
        <ele>466</ele>
        <time>2015-11-01T10:10:24.000Z</time>
      </trkpt>
      <trkpt lat="47.59142" lon="6.75956">
        <ele>466</ele>
        <time>2015-11-01T10:10:25.000Z</time>
      </trkpt>
      <trkpt lat="47.59143" lon="6.75959">
        <ele>466</ele>
        <time>2015-11-01T10:10:26.000Z</time>
      </trkpt>
      <trkpt lat="47.59144" lon="6.75963">
        <ele>466</ele>
        <time>2015-11-01T10:10:27.000Z</time>
      </trkpt>
      <trkpt lat="47.59145" lon="6.75967">
        <ele>466</ele>
        <time>2015-11-01T10:10:28.000Z</time>
      </trkpt>
      <trkpt lat="47.59147" lon="6.75971">
        <ele>466</ele>
        <time>2015-11-01T10:10:29.000Z</time>
      </trkpt>
      <trkpt lat="47.59148" lon="6.75975">
        <ele>466</ele>
        <time>2015-11-01T10:10:30.000Z</time>
      </trkpt>
      <trkpt lat="47.59149" lon="6.75979">
        <ele>467</ele>
        <time>2015-11-01T10:10:31.000Z</time>
      </trkpt>
      <trkpt lat="47.59151" lon="6.75982">
        <ele>467</ele>
        <time>2015-11-01T10:10:32.000Z</time>
      </trkpt>
      <trkpt lat="47.59153" lon="6.75986">
        <ele>468</ele>
        <time>2015-11-01T10:10:33.000Z</time>
      </trkpt>
      <trkpt lat="47.59154" lon="6.75989">
        <ele>468</ele>
        <time>2015-11-01T10:10:34.000Z</time>
      </trkpt>
      <trkpt lat="47.59156" lon="6.75993">
        <ele>469</ele>
        <time>2015-11-01T10:10:35.000Z</time>
      </trkpt>
      <trkpt lat="47.59158" lon="6.75996">
        <ele>470</ele>
        <time>2015-11-01T10:10:36.000Z</time>
      </trkpt>
      <trkpt lat="47.5916" lon="6.76">
        <ele>471</ele>
        <time>2015-11-01T10:10:37.000Z</time>
      </trkpt>
      <trkpt lat="47.59161" lon="6.76003">
        <ele>470</ele>
        <time>2015-11-01T10:10:38.000Z</time>
      </trkpt>
      <trkpt lat="47.59163" lon="6.76007">
        <ele>469</ele>
        <time>2015-11-01T10:10:39.000Z</time>
      </trkpt>
      <trkpt lat="47.59164" lon="6.7601">
        <ele>468</ele>
        <time>2015-11-01T10:10:40.000Z</time>
      </trkpt>
      <trkpt lat="47.59166" lon="6.76014">
        <ele>467</ele>
        <time>2015-11-01T10:10:41.000Z</time>
      </trkpt>
      <trkpt lat="47.59168" lon="6.76018">
        <ele>475</ele>
        <time>2015-11-01T10:10:42.000Z</time>
      </trkpt>
      <trkpt lat="47.59169" lon="6.76021">
        <ele>476</ele>
        <time>2015-11-01T10:10:43.000Z</time>
      </trkpt>
      <trkpt lat="47.5917" lon="6.76024">
        <ele>476</ele>
        <time>2015-11-01T10:10:44.000Z</time>
      </trkpt>
      <trkpt lat="47.59171" lon="6.76028">
        <ele>476</ele>
        <time>2015-11-01T10:10:45.000Z</time>
      </trkpt>
      <trkpt lat="47.59172" lon="6.76031">
        <ele>476</ele>
        <time>2015-11-01T10:10:46.000Z</time>
      </trkpt>
      <trkpt lat="47.59174" lon="6.76035">
        <ele>476</ele>
        <time>2015-11-01T10:10:47.000Z</time>
      </trkpt>
      <trkpt lat="47.59176" lon="6.76039">
        <ele>476</ele>
        <time>2015-11-01T10:10:48.000Z</time>
      </trkpt>
      <trkpt lat="47.59177" lon="6.76042">
        <ele>476</ele>
        <time>2015-11-01T10:10:49.000Z</time>
      </trkpt>
      <trkpt lat="47.59179" lon="6.76046">
        <ele>476</ele>
        <time>2015-11-01T10:10:50.000Z</time>
      </trkpt>
      <trkpt lat="47.59181" lon="6.76049">
        <ele>476</ele>
        <time>2015-11-01T10:10:51.000Z</time>
      </trkpt>
      <trkpt lat="47.59183" lon="6.76053">
        <ele>476</ele>
        <time>2015-11-01T10:10:52.000Z</time>
      </trkpt>
      <trkpt lat="47.59184" lon="6.76057">
        <ele>476</ele>
        <time>2015-11-01T10:10:53.000Z</time>
      </trkpt>
      <trkpt lat="47.59186" lon="6.7606">
        <ele>476</ele>
        <time>2015-11-01T10:10:54.000Z</time>
      </trkpt>
      <trkpt lat="47.59188" lon="6.76064">
        <ele>476</ele>
        <time>2015-11-01T10:10:55.000Z</time>
      </trkpt>
      <trkpt lat="47.59189" lon="6.76067">
        <ele>475</ele>
        <time>2015-11-01T10:10:56.000Z</time>
      </trkpt>
      <trkpt lat="47.59191" lon="6.76071">
        <ele>475</ele>
        <time>2015-11-01T10:10:57.000Z</time>
      </trkpt>
      <trkpt lat="47.59192" lon="6.76075">
        <ele>475</ele>
        <time>2015-11-01T10:10:58.000Z</time>
      </trkpt>
      <trkpt lat="47.59193" lon="6.76078">
        <ele>476</ele>
        <time>2015-11-01T10:10:59.000Z</time>
      </trkpt>
      <trkpt lat="47.59195" lon="6.76082">
        <ele>476</ele>
        <time>2015-11-01T10:11:00.000Z</time>
      </trkpt>
      <trkpt lat="47.59196" lon="6.76085">
        <ele>474</ele>
        <time>2015-11-01T10:11:01.000Z</time>
      </trkpt>
      <trkpt lat="47.59198" lon="6.76089">
        <ele>474</ele>
        <time>2015-11-01T10:11:02.000Z</time>
      </trkpt>
      <trkpt lat="47.592" lon="6.76092">
        <ele>475</ele>
        <time>2015-11-01T10:11:03.000Z</time>
      </trkpt>
      <trkpt lat="47.59201" lon="6.76096">
        <ele>475</ele>
        <time>2015-11-01T10:11:04.000Z</time>
      </trkpt>
      <trkpt lat="47.59203" lon="6.76099">
        <ele>475</ele>
        <time>2015-11-01T10:11:05.000Z</time>
      </trkpt>
      <trkpt lat="47.59205" lon="6.76103">
        <ele>475</ele>
        <time>2015-11-01T10:11:06.000Z</time>
      </trkpt>
      <trkpt lat="47.59206" lon="6.76106">
        <ele>476</ele>
        <time>2015-11-01T10:11:07.000Z</time>
      </trkpt>
      <trkpt lat="47.59207" lon="6.7611">
        <ele>476</ele>
        <time>2015-11-01T10:11:08.000Z</time>
      </trkpt>
      <trkpt lat="47.59209" lon="6.76113">
        <ele>476</ele>
        <time>2015-11-01T10:11:09.000Z</time>
      </trkpt>
      <trkpt lat="47.5921" lon="6.76117">
        <ele>476</ele>
        <time>2015-11-01T10:11:10.000Z</time>
      </trkpt>
      <trkpt lat="47.59211" lon="6.7612">
        <ele>476</ele>
        <time>2015-11-01T10:11:11.000Z</time>
      </trkpt>
      <trkpt lat="47.59213" lon="6.76124">
        <ele>476</ele>
        <time>2015-11-01T10:11:12.000Z</time>
      </trkpt>
      <trkpt lat="47.59215" lon="6.76127">
        <ele>476</ele>
        <time>2015-11-01T10:11:13.000Z</time>
      </trkpt>
      <trkpt lat="47.59217" lon="6.7613">
        <ele>476</ele>
        <time>2015-11-01T10:11:14.000Z</time>
      </trkpt>
      <trkpt lat="47.59219" lon="6.76133">
        <ele>477</ele>
        <time>2015-11-01T10:11:15.000Z</time>
      </trkpt>
      <trkpt lat="47.59221" lon="6.76136">
        <ele>477</ele>
        <time>2015-11-01T10:11:16.000Z</time>
      </trkpt>
      <trkpt lat="47.59222" lon="6.76138">
        <ele>477</ele>
        <time>2015-11-01T10:11:17.000Z</time>
      </trkpt>
      <trkpt lat="47.59224" lon="6.7614">
        <ele>477</ele>
        <time>2015-11-01T10:11:18.000Z</time>
      </trkpt>
      <trkpt lat="47.59226" lon="6.76142">
        <ele>477</ele>
        <time>2015-11-01T10:11:19.000Z</time>
      </trkpt>
      <trkpt lat="47.5923" lon="6.76145">
        <ele>478</ele>
        <time>2015-11-01T10:11:21.000Z</time>
      </trkpt>
      <trkpt lat="47.59232" lon="6.76146">
        <ele>478</ele>
        <time>2015-11-01T10:11:22.000Z</time>
      </trkpt>
      <trkpt lat="47.59235" lon="6.76146">
        <ele>479</ele>
        <time>2015-11-01T10:11:23.000Z</time>
      </trkpt>
      <trkpt lat="47.59237" lon="6.76147">
        <ele>479</ele>
        <time>2015-11-01T10:11:24.000Z</time>
      </trkpt>
      <trkpt lat="47.5924" lon="6.76146">
        <ele>479</ele>
        <time>2015-11-01T10:11:25.000Z</time>
      </trkpt>
      <trkpt lat="47.59242" lon="6.76145">
        <ele>479</ele>
        <time>2015-11-01T10:11:26.000Z</time>
      </trkpt>
      <trkpt lat="47.59244" lon="6.76144">
        <ele>479</ele>
        <time>2015-11-01T10:11:27.000Z</time>
      </trkpt>
      <trkpt lat="47.59246" lon="6.76143">
        <ele>479</ele>
        <time>2015-11-01T10:11:28.000Z</time>
      </trkpt>
      <trkpt lat="47.59249" lon="6.76141">
        <ele>479</ele>
        <time>2015-11-01T10:11:29.000Z</time>
      </trkpt>
      <trkpt lat="47.59251" lon="6.76138">
        <ele>489</ele>
        <time>2015-11-01T10:11:30.000Z</time>
      </trkpt>
      <trkpt lat="47.59253" lon="6.76135">
        <ele>489</ele>
        <time>2015-11-01T10:11:31.000Z</time>
      </trkpt>
      <trkpt lat="47.59254" lon="6.76132">
        <ele>489</ele>
        <time>2015-11-01T10:11:32.000Z</time>
      </trkpt>
      <trkpt lat="47.59255" lon="6.76129">
        <ele>490</ele>
        <time>2015-11-01T10:11:33.000Z</time>
      </trkpt>
      <trkpt lat="47.59255" lon="6.76125">
        <ele>490</ele>
        <time>2015-11-01T10:11:34.000Z</time>
      </trkpt>
      <trkpt lat="47.59255" lon="6.76121">
        <ele>490</ele>
        <time>2015-11-01T10:11:35.000Z</time>
      </trkpt>
      <trkpt lat="47.59255" lon="6.76117">
        <ele>490</ele>
        <time>2015-11-01T10:11:36.000Z</time>
      </trkpt>
      <trkpt lat="47.59255" lon="6.76113">
        <ele>490</ele>
        <time>2015-11-01T10:11:37.000Z</time>
      </trkpt>
      <trkpt lat="47.59254" lon="6.76109">
        <ele>489</ele>
        <time>2015-11-01T10:11:38.000Z</time>
      </trkpt>
      <trkpt lat="47.59254" lon="6.76105">
        <ele>489</ele>
        <time>2015-11-01T10:11:39.000Z</time>
      </trkpt>
      <trkpt lat="47.59253" lon="6.76102">
        <ele>489</ele>
        <time>2015-11-01T10:11:40.000Z</time>
      </trkpt>
      <trkpt lat="47.59252" lon="6.76098">
        <ele>489</ele>
        <time>2015-11-01T10:11:41.000Z</time>
      </trkpt>
      <trkpt lat="47.59251" lon="6.76095">
        <ele>488</ele>
        <time>2015-11-01T10:11:42.000Z</time>
      </trkpt>
      <trkpt lat="47.5925" lon="6.76091">
        <ele>483</ele>
        <time>2015-11-01T10:11:43.000Z</time>
      </trkpt>
      <trkpt lat="47.59249" lon="6.76087">
        <ele>484</ele>
        <time>2015-11-01T10:11:44.000Z</time>
      </trkpt>
      <trkpt lat="47.59248" lon="6.76083">
        <ele>485</ele>
        <time>2015-11-01T10:11:45.000Z</time>
      </trkpt>
      <trkpt lat="47.59247" lon="6.7608">
        <ele>485</ele>
        <time>2015-11-01T10:11:46.000Z</time>
      </trkpt>
      <trkpt lat="47.59246" lon="6.76073">
        <ele>484</ele>
        <time>2015-11-01T10:11:48.000Z</time>
      </trkpt>
      <trkpt lat="47.59247" lon="6.7607">
        <ele>483</ele>
        <time>2015-11-01T10:11:49.000Z</time>
      </trkpt>
      <trkpt lat="47.59247" lon="6.76066">
        <ele>483</ele>
        <time>2015-11-01T10:11:50.000Z</time>
      </trkpt>
      <trkpt lat="47.59246" lon="6.76062">
        <ele>482</ele>
        <time>2015-11-01T10:11:51.000Z</time>
      </trkpt>
      <trkpt lat="47.59246" lon="6.76057">
        <ele>482</ele>
        <time>2015-11-01T10:11:52.000Z</time>
      </trkpt>
      <trkpt lat="47.59245" lon="6.76053">
        <ele>482</ele>
        <time>2015-11-01T10:11:53.000Z</time>
      </trkpt>
      <trkpt lat="47.59245" lon="6.76049">
        <ele>482</ele>
        <time>2015-11-01T10:11:54.000Z</time>
      </trkpt>
      <trkpt lat="47.59244" lon="6.76045">
        <ele>482</ele>
        <time>2015-11-01T10:11:55.000Z</time>
      </trkpt>
      <trkpt lat="47.59243" lon="6.76041">
        <ele>482</ele>
        <time>2015-11-01T10:11:56.000Z</time>
      </trkpt>
      <trkpt lat="47.59242" lon="6.76037">
        <ele>482</ele>
        <time>2015-11-01T10:11:57.000Z</time>
      </trkpt>
      <trkpt lat="47.59241" lon="6.76033">
        <ele>482</ele>
        <time>2015-11-01T10:11:58.000Z</time>
      </trkpt>
      <trkpt lat="47.59241" lon="6.76029">
        <ele>482</ele>
        <time>2015-11-01T10:11:59.000Z</time>
      </trkpt>
      <trkpt lat="47.59241" lon="6.76025">
        <ele>482</ele>
        <time>2015-11-01T10:12:00.000Z</time>
      </trkpt>
      <trkpt lat="47.59241" lon="6.7602">
        <ele>483</ele>
        <time>2015-11-01T10:12:01.000Z</time>
      </trkpt>
      <trkpt lat="47.59241" lon="6.76016">
        <ele>483</ele>
        <time>2015-11-01T10:12:02.000Z</time>
      </trkpt>
      <trkpt lat="47.59241" lon="6.76012">
        <ele>484</ele>
        <time>2015-11-01T10:12:03.000Z</time>
      </trkpt>
      <trkpt lat="47.59242" lon="6.76008">
        <ele>485</ele>
        <time>2015-11-01T10:12:04.000Z</time>
      </trkpt>
      <trkpt lat="47.59242" lon="6.76004">
        <ele>485</ele>
        <time>2015-11-01T10:12:05.000Z</time>
      </trkpt>
      <trkpt lat="47.59242" lon="6.76001">
        <ele>485</ele>
        <time>2015-11-01T10:12:06.000Z</time>
      </trkpt>
      <trkpt lat="47.59242" lon="6.75997">
        <ele>486</ele>
        <time>2015-11-01T10:12:07.000Z</time>
      </trkpt>
      <trkpt lat="47.59242" lon="6.75994">
        <ele>486</ele>
        <time>2015-11-01T10:12:08.000Z</time>
      </trkpt>
      <trkpt lat="47.59243" lon="6.7599">
        <ele>486</ele>
        <time>2015-11-01T10:12:09.000Z</time>
      </trkpt>
      <trkpt lat="47.59243" lon="6.75986">
        <ele>485</ele>
        <time>2015-11-01T10:12:10.000Z</time>
      </trkpt>
      <trkpt lat="47.59244" lon="6.75982">
        <ele>485</ele>
        <time>2015-11-01T10:12:11.000Z</time>
      </trkpt>
      <trkpt lat="47.59244" lon="6.75978">
        <ele>485</ele>
        <time>2015-11-01T10:12:12.000Z</time>
      </trkpt>
      <trkpt lat="47.59244" lon="6.75974">
        <ele>485</ele>
        <time>2015-11-01T10:12:13.000Z</time>
      </trkpt>
      <trkpt lat="47.59245" lon="6.7597">
        <ele>485</ele>
        <time>2015-11-01T10:12:14.000Z</time>
      </trkpt>
      <trkpt lat="47.59245" lon="6.75965">
        <ele>485</ele>
        <time>2015-11-01T10:12:15.000Z</time>
      </trkpt>
      <trkpt lat="47.59245" lon="6.75961">
        <ele>485</ele>
        <time>2015-11-01T10:12:16.000Z</time>
      </trkpt>
      <trkpt lat="47.59246" lon="6.75957">
        <ele>485</ele>
        <time>2015-11-01T10:12:17.000Z</time>
      </trkpt>
      <trkpt lat="47.59246" lon="6.75952">
        <ele>485</ele>
        <time>2015-11-01T10:12:18.000Z</time>
      </trkpt>
      <trkpt lat="47.59247" lon="6.75948">
        <ele>485</ele>
        <time>2015-11-01T10:12:19.000Z</time>
      </trkpt>
      <trkpt lat="47.59248" lon="6.75944">
        <ele>486</ele>
        <time>2015-11-01T10:12:20.000Z</time>
      </trkpt>
      <trkpt lat="47.5925" lon="6.7594">
        <ele>486</ele>
        <time>2015-11-01T10:12:21.000Z</time>
      </trkpt>
      <trkpt lat="47.59251" lon="6.75936">
        <ele>493</ele>
        <time>2015-11-01T10:12:22.000Z</time>
      </trkpt>
      <trkpt lat="47.59252" lon="6.75932">
        <ele>493</ele>
        <time>2015-11-01T10:12:23.000Z</time>
      </trkpt>
      <trkpt lat="47.59253" lon="6.75928">
        <ele>493</ele>
        <time>2015-11-01T10:12:24.000Z</time>
      </trkpt>
      <trkpt lat="47.59254" lon="6.75924">
        <ele>492</ele>
        <time>2015-11-01T10:12:25.000Z</time>
      </trkpt>
      <trkpt lat="47.59255" lon="6.7592">
        <ele>492</ele>
        <time>2015-11-01T10:12:26.000Z</time>
      </trkpt>
      <trkpt lat="47.59256" lon="6.75916">
        <ele>492</ele>
        <time>2015-11-01T10:12:27.000Z</time>
      </trkpt>
      <trkpt lat="47.59257" lon="6.75913">
        <ele>492</ele>
        <time>2015-11-01T10:12:28.000Z</time>
      </trkpt>
      <trkpt lat="47.59258" lon="6.75909">
        <ele>493</ele>
        <time>2015-11-01T10:12:29.000Z</time>
      </trkpt>
      <trkpt lat="47.5926" lon="6.75906">
        <ele>493</ele>
        <time>2015-11-01T10:12:30.000Z</time>
      </trkpt>
      <trkpt lat="47.59262" lon="6.75903">
        <ele>493</ele>
        <time>2015-11-01T10:12:31.000Z</time>
      </trkpt>
      <trkpt lat="47.59264" lon="6.759">
        <ele>494</ele>
        <time>2015-11-01T10:12:32.000Z</time>
      </trkpt>
      <trkpt lat="47.59265" lon="6.75898">
        <ele>494</ele>
        <time>2015-11-01T10:12:33.000Z</time>
      </trkpt>
      <trkpt lat="47.59267" lon="6.75895">
        <ele>494</ele>
        <time>2015-11-01T10:12:34.000Z</time>
      </trkpt>
      <trkpt lat="47.59269" lon="6.75892">
        <ele>494</ele>
        <time>2015-11-01T10:12:35.000Z</time>
      </trkpt>
      <trkpt lat="47.59271" lon="6.75889">
        <ele>494</ele>
        <time>2015-11-01T10:12:36.000Z</time>
      </trkpt>
      <trkpt lat="47.59272" lon="6.75885">
        <ele>495</ele>
        <time>2015-11-01T10:12:37.000Z</time>
      </trkpt>
      <trkpt lat="47.59274" lon="6.75882">
        <ele>495</ele>
        <time>2015-11-01T10:12:38.000Z</time>
      </trkpt>
      <trkpt lat="47.59275" lon="6.75878">
        <ele>495</ele>
        <time>2015-11-01T10:12:39.000Z</time>
      </trkpt>
      <trkpt lat="47.59277" lon="6.75875">
        <ele>495</ele>
        <time>2015-11-01T10:12:40.000Z</time>
      </trkpt>
      <trkpt lat="47.59279" lon="6.75871">
        <ele>495</ele>
        <time>2015-11-01T10:12:41.000Z</time>
      </trkpt>
      <trkpt lat="47.5928" lon="6.75868">
        <ele>495</ele>
        <time>2015-11-01T10:12:42.000Z</time>
      </trkpt>
      <trkpt lat="47.59282" lon="6.75864">
        <ele>495</ele>
        <time>2015-11-01T10:12:43.000Z</time>
      </trkpt>
      <trkpt lat="47.59283" lon="6.75861">
        <ele>495</ele>
        <time>2015-11-01T10:12:44.000Z</time>
      </trkpt>
      <trkpt lat="47.59284" lon="6.75858">
        <ele>495</ele>
        <time>2015-11-01T10:12:45.000Z</time>
      </trkpt>
      <trkpt lat="47.59285" lon="6.75854">
        <ele>495</ele>
        <time>2015-11-01T10:12:46.000Z</time>
      </trkpt>
      <trkpt lat="47.59286" lon="6.75851">
        <ele>495</ele>
        <time>2015-11-01T10:12:47.000Z</time>
      </trkpt>
      <trkpt lat="47.59288" lon="6.75848">
        <ele>495</ele>
        <time>2015-11-01T10:12:48.000Z</time>
      </trkpt>
      <trkpt lat="47.5929" lon="6.75845">
        <ele>495</ele>
        <time>2015-11-01T10:12:49.000Z</time>
      </trkpt>
      <trkpt lat="47.59292" lon="6.75842">
        <ele>495</ele>
        <time>2015-11-01T10:12:50.000Z</time>
      </trkpt>
      <trkpt lat="47.59293" lon="6.75839">
        <ele>496</ele>
        <time>2015-11-01T10:12:51.000Z</time>
      </trkpt>
      <trkpt lat="47.59295" lon="6.75835">
        <ele>496</ele>
        <time>2015-11-01T10:12:52.000Z</time>
      </trkpt>
      <trkpt lat="47.59297" lon="6.75832">
        <ele>496</ele>
        <time>2015-11-01T10:12:53.000Z</time>
      </trkpt>
      <trkpt lat="47.59298" lon="6.75829">
        <ele>496</ele>
        <time>2015-11-01T10:12:54.000Z</time>
      </trkpt>
      <trkpt lat="47.593" lon="6.75826">
        <ele>496</ele>
        <time>2015-11-01T10:12:55.000Z</time>
      </trkpt>
      <trkpt lat="47.59301" lon="6.75823">
        <ele>496</ele>
        <time>2015-11-01T10:12:56.000Z</time>
      </trkpt>
      <trkpt lat="47.59301" lon="6.75819">
        <ele>496</ele>
        <time>2015-11-01T10:12:57.000Z</time>
      </trkpt>
      <trkpt lat="47.59302" lon="6.75816">
        <ele>496</ele>
        <time>2015-11-01T10:12:58.000Z</time>
      </trkpt>
      <trkpt lat="47.59302" lon="6.75812">
        <ele>496</ele>
        <time>2015-11-01T10:12:59.000Z</time>
      </trkpt>
      <trkpt lat="47.59302" lon="6.75808">
        <ele>496</ele>
        <time>2015-11-01T10:13:00.000Z</time>
      </trkpt>
      <trkpt lat="47.59303" lon="6.75805">
        <ele>496</ele>
        <time>2015-11-01T10:13:01.000Z</time>
      </trkpt>
      <trkpt lat="47.59305" lon="6.75801">
        <ele>497</ele>
        <time>2015-11-01T10:13:02.000Z</time>
      </trkpt>
      <trkpt lat="47.59306" lon="6.75797">
        <ele>497</ele>
        <time>2015-11-01T10:13:03.000Z</time>
      </trkpt>
      <trkpt lat="47.59308" lon="6.75793">
        <ele>497</ele>
        <time>2015-11-01T10:13:04.000Z</time>
      </trkpt>
      <trkpt lat="47.59309" lon="6.75789">
        <ele>497</ele>
        <time>2015-11-01T10:13:05.000Z</time>
      </trkpt>
      <trkpt lat="47.59309" lon="6.75785">
        <ele>497</ele>
        <time>2015-11-01T10:13:06.000Z</time>
      </trkpt>
      <trkpt lat="47.5931" lon="6.7578">
        <ele>497</ele>
        <time>2015-11-01T10:13:07.000Z</time>
      </trkpt>
      <trkpt lat="47.5931" lon="6.75777">
        <ele>497</ele>
        <time>2015-11-01T10:13:08.000Z</time>
      </trkpt>
      <trkpt lat="47.5931" lon="6.75773">
        <ele>497</ele>
        <time>2015-11-01T10:13:09.000Z</time>
      </trkpt>
      <trkpt lat="47.59311" lon="6.7577">
        <ele>497</ele>
        <time>2015-11-01T10:13:10.000Z</time>
      </trkpt>
      <trkpt lat="47.59311" lon="6.75766">
        <ele>498</ele>
        <time>2015-11-01T10:13:11.000Z</time>
      </trkpt>
      <trkpt lat="47.59311" lon="6.7576">
        <ele>498</ele>
        <time>2015-11-01T10:13:13.000Z</time>
      </trkpt>
      <trkpt lat="47.59311" lon="6.75756">
        <ele>498</ele>
        <time>2015-11-01T10:13:14.000Z</time>
      </trkpt>
      <trkpt lat="47.59311" lon="6.7575">
        <ele>498</ele>
        <time>2015-11-01T10:13:16.000Z</time>
      </trkpt>
      <trkpt lat="47.59311" lon="6.75747">
        <ele>499</ele>
        <time>2015-11-01T10:13:17.000Z</time>
      </trkpt>
      <trkpt lat="47.59312" lon="6.75743">
        <ele>499</ele>
        <time>2015-11-01T10:13:18.000Z</time>
      </trkpt>
      <trkpt lat="47.59313" lon="6.75739">
        <ele>499</ele>
        <time>2015-11-01T10:13:19.000Z</time>
      </trkpt>
      <trkpt lat="47.59314" lon="6.75735">
        <ele>499</ele>
        <time>2015-11-01T10:13:20.000Z</time>
      </trkpt>
      <trkpt lat="47.59314" lon="6.75732">
        <ele>499</ele>
        <time>2015-11-01T10:13:21.000Z</time>
      </trkpt>
      <trkpt lat="47.59315" lon="6.75728">
        <ele>499</ele>
        <time>2015-11-01T10:13:22.000Z</time>
      </trkpt>
      <trkpt lat="47.59316" lon="6.75724">
        <ele>499</ele>
        <time>2015-11-01T10:13:23.000Z</time>
      </trkpt>
      <trkpt lat="47.59317" lon="6.7572">
        <ele>499</ele>
        <time>2015-11-01T10:13:24.000Z</time>
      </trkpt>
      <trkpt lat="47.59317" lon="6.75716">
        <ele>499</ele>
        <time>2015-11-01T10:13:25.000Z</time>
      </trkpt>
      <trkpt lat="47.59318" lon="6.75712">
        <ele>499</ele>
        <time>2015-11-01T10:13:26.000Z</time>
      </trkpt>
      <trkpt lat="47.59318" lon="6.75708">
        <ele>499</ele>
        <time>2015-11-01T10:13:27.000Z</time>
      </trkpt>
      <trkpt lat="47.59318" lon="6.75704">
        <ele>500</ele>
        <time>2015-11-01T10:13:28.000Z</time>
      </trkpt>
      <trkpt lat="47.59319" lon="6.757">
        <ele>500</ele>
        <time>2015-11-01T10:13:29.000Z</time>
      </trkpt>
      <trkpt lat="47.59319" lon="6.75696">
        <ele>500</ele>
        <time>2015-11-01T10:13:30.000Z</time>
      </trkpt>
      <trkpt lat="47.59319" lon="6.75693">
        <ele>500</ele>
        <time>2015-11-01T10:13:31.000Z</time>
      </trkpt>
      <trkpt lat="47.5932" lon="6.75689">
        <ele>501</ele>
        <time>2015-11-01T10:13:32.000Z</time>
      </trkpt>
      <trkpt lat="47.59321" lon="6.75685">
        <ele>501</ele>
        <time>2015-11-01T10:13:33.000Z</time>
      </trkpt>
      <trkpt lat="47.59321" lon="6.75681">
        <ele>501</ele>
        <time>2015-11-01T10:13:34.000Z</time>
      </trkpt>
      <trkpt lat="47.59322" lon="6.75677">
        <ele>502</ele>
        <time>2015-11-01T10:13:35.000Z</time>
      </trkpt>
      <trkpt lat="47.59322" lon="6.75673">
        <ele>502</ele>
        <time>2015-11-01T10:13:36.000Z</time>
      </trkpt>
      <trkpt lat="47.59322" lon="6.75669">
        <ele>502</ele>
        <time>2015-11-01T10:13:37.000Z</time>
      </trkpt>
      <trkpt lat="47.59322" lon="6.75665">
        <ele>503</ele>
        <time>2015-11-01T10:13:38.000Z</time>
      </trkpt>
      <trkpt lat="47.59322" lon="6.75661">
        <ele>503</ele>
        <time>2015-11-01T10:13:39.000Z</time>
      </trkpt>
      <trkpt lat="47.59323" lon="6.75657">
        <ele>503</ele>
        <time>2015-11-01T10:13:40.000Z</time>
      </trkpt>
      <trkpt lat="47.59323" lon="6.75652">
        <ele>503</ele>
        <time>2015-11-01T10:13:41.000Z</time>
      </trkpt>
      <trkpt lat="47.59324" lon="6.75649">
        <ele>503</ele>
        <time>2015-11-01T10:13:42.000Z</time>
      </trkpt>
      <trkpt lat="47.59324" lon="6.75645">
        <ele>503</ele>
        <time>2015-11-01T10:13:43.000Z</time>
      </trkpt>
      <trkpt lat="47.59324" lon="6.75641">
        <ele>503</ele>
        <time>2015-11-01T10:13:44.000Z</time>
      </trkpt>
      <trkpt lat="47.59325" lon="6.75636">
        <ele>503</ele>
        <time>2015-11-01T10:13:45.000Z</time>
      </trkpt>
      <trkpt lat="47.59325" lon="6.75632">
        <ele>503</ele>
        <time>2015-11-01T10:13:46.000Z</time>
      </trkpt>
      <trkpt lat="47.59324" lon="6.75627">
        <ele>503</ele>
        <time>2015-11-01T10:13:47.000Z</time>
      </trkpt>
      <trkpt lat="47.59324" lon="6.75623">
        <ele>503</ele>
        <time>2015-11-01T10:13:48.000Z</time>
      </trkpt>
      <trkpt lat="47.59324" lon="6.75618">
        <ele>503</ele>
        <time>2015-11-01T10:13:49.000Z</time>
      </trkpt>
      <trkpt lat="47.59324" lon="6.75614">
        <ele>504</ele>
        <time>2015-11-01T10:13:50.000Z</time>
      </trkpt>
      <trkpt lat="47.59325" lon="6.7561">
        <ele>504</ele>
        <time>2015-11-01T10:13:51.000Z</time>
      </trkpt>
      <trkpt lat="47.59325" lon="6.75606">
        <ele>504</ele>
        <time>2015-11-01T10:13:52.000Z</time>
      </trkpt>
      <trkpt lat="47.59326" lon="6.75602">
        <ele>505</ele>
        <time>2015-11-01T10:13:53.000Z</time>
      </trkpt>
      <trkpt lat="47.59326" lon="6.75597">
        <ele>505</ele>
        <time>2015-11-01T10:13:54.000Z</time>
      </trkpt>
      <trkpt lat="47.59326" lon="6.75593">
        <ele>506</ele>
        <time>2015-11-01T10:13:55.000Z</time>
      </trkpt>
      <trkpt lat="47.59327" lon="6.75588">
        <ele>507</ele>
        <time>2015-11-01T10:13:56.000Z</time>
      </trkpt>
      <trkpt lat="47.59327" lon="6.75584">
        <ele>507</ele>
        <time>2015-11-01T10:13:57.000Z</time>
      </trkpt>
      <trkpt lat="47.59328" lon="6.7558">
        <ele>508</ele>
        <time>2015-11-01T10:13:58.000Z</time>
      </trkpt>
      <trkpt lat="47.59328" lon="6.75576">
        <ele>507</ele>
        <time>2015-11-01T10:13:59.000Z</time>
      </trkpt>
      <trkpt lat="47.59328" lon="6.75572">
        <ele>507</ele>
        <time>2015-11-01T10:14:00.000Z</time>
      </trkpt>
      <trkpt lat="47.59328" lon="6.75569">
        <ele>507</ele>
        <time>2015-11-01T10:14:01.000Z</time>
      </trkpt>
      <trkpt lat="47.59329" lon="6.75565">
        <ele>507</ele>
        <time>2015-11-01T10:14:02.000Z</time>
      </trkpt>
      <trkpt lat="47.59329" lon="6.75561">
        <ele>506</ele>
        <time>2015-11-01T10:14:03.000Z</time>
      </trkpt>
      <trkpt lat="47.59329" lon="6.75557">
        <ele>506</ele>
        <time>2015-11-01T10:14:04.000Z</time>
      </trkpt>
      <trkpt lat="47.5933" lon="6.75553">
        <ele>506</ele>
        <time>2015-11-01T10:14:05.000Z</time>
      </trkpt>
      <trkpt lat="47.5933" lon="6.7555">
        <ele>506</ele>
        <time>2015-11-01T10:14:06.000Z</time>
      </trkpt>
      <trkpt lat="47.59331" lon="6.75546">
        <ele>506</ele>
        <time>2015-11-01T10:14:07.000Z</time>
      </trkpt>
      <trkpt lat="47.59331" lon="6.75543">
        <ele>506</ele>
        <time>2015-11-01T10:14:08.000Z</time>
      </trkpt>
      <trkpt lat="47.59331" lon="6.75539">
        <ele>506</ele>
        <time>2015-11-01T10:14:09.000Z</time>
      </trkpt>
      <trkpt lat="47.59331" lon="6.75535">
        <ele>506</ele>
        <time>2015-11-01T10:14:10.000Z</time>
      </trkpt>
      <trkpt lat="47.59331" lon="6.75531">
        <ele>507</ele>
        <time>2015-11-01T10:14:11.000Z</time>
      </trkpt>
      <trkpt lat="47.59331" lon="6.75528">
        <ele>507</ele>
        <time>2015-11-01T10:14:12.000Z</time>
      </trkpt>
      <trkpt lat="47.59331" lon="6.75524">
        <ele>507</ele>
        <time>2015-11-01T10:14:13.000Z</time>
      </trkpt>
      <trkpt lat="47.59332" lon="6.75521">
        <ele>507</ele>
        <time>2015-11-01T10:14:14.000Z</time>
      </trkpt>
      <trkpt lat="47.59333" lon="6.75517">
        <ele>508</ele>
        <time>2015-11-01T10:14:15.000Z</time>
      </trkpt>
      <trkpt lat="47.59334" lon="6.75511">
        <ele>512</ele>
        <time>2015-11-01T10:14:17.000Z</time>
      </trkpt>
      <trkpt lat="47.59334" lon="6.75508">
        <ele>512</ele>
        <time>2015-11-01T10:14:18.000Z</time>
      </trkpt>
      <trkpt lat="47.59334" lon="6.75504">
        <ele>511</ele>
        <time>2015-11-01T10:14:19.000Z</time>
      </trkpt>
      <trkpt lat="47.59334" lon="6.75501">
        <ele>511</ele>
        <time>2015-11-01T10:14:20.000Z</time>
      </trkpt>
      <trkpt lat="47.59334" lon="6.75497">
        <ele>511</ele>
        <time>2015-11-01T10:14:21.000Z</time>
      </trkpt>
      <trkpt lat="47.59335" lon="6.75493">
        <ele>512</ele>
        <time>2015-11-01T10:14:22.000Z</time>
      </trkpt>
      <trkpt lat="47.59335" lon="6.75489">
        <ele>512</ele>
        <time>2015-11-01T10:14:23.000Z</time>
      </trkpt>
      <trkpt lat="47.59336" lon="6.75485">
        <ele>513</ele>
        <time>2015-11-01T10:14:24.000Z</time>
      </trkpt>
      <trkpt lat="47.59336" lon="6.75482">
        <ele>513</ele>
        <time>2015-11-01T10:14:25.000Z</time>
      </trkpt>
      <trkpt lat="47.59336" lon="6.75478">
        <ele>513</ele>
        <time>2015-11-01T10:14:26.000Z</time>
      </trkpt>
      <trkpt lat="47.59337" lon="6.75475">
        <ele>513</ele>
        <time>2015-11-01T10:14:27.000Z</time>
      </trkpt>
      <trkpt lat="47.59338" lon="6.75472">
        <ele>514</ele>
        <time>2015-11-01T10:14:28.000Z</time>
      </trkpt>
      <trkpt lat="47.5934" lon="6.75466">
        <ele>514</ele>
        <time>2015-11-01T10:14:30.000Z</time>
      </trkpt>
      <trkpt lat="47.59341" lon="6.75463">
        <ele>514</ele>
        <time>2015-11-01T10:14:31.000Z</time>
      </trkpt>
      <trkpt lat="47.59343" lon="6.75458">
        <ele>514</ele>
        <time>2015-11-01T10:14:33.000Z</time>
      </trkpt>
      <trkpt lat="47.59343" lon="6.75455">
        <ele>514</ele>
        <time>2015-11-01T10:14:34.000Z</time>
      </trkpt>
      <trkpt lat="47.59344" lon="6.7545">
        <ele>514</ele>
        <time>2015-11-01T10:14:36.000Z</time>
      </trkpt>
      <trkpt lat="47.59345" lon="6.75448">
        <ele>514</ele>
        <time>2015-11-01T10:14:37.000Z</time>
      </trkpt>
      <trkpt lat="47.59348" lon="6.75443">
        <ele>514</ele>
        <time>2015-11-01T10:14:41.000Z</time>
      </trkpt>
      <trkpt lat="47.5935" lon="6.75443">
        <ele>514</ele>
        <time>2015-11-01T10:14:42.000Z</time>
      </trkpt>
      <trkpt lat="47.59352" lon="6.75443">
        <ele>514</ele>
        <time>2015-11-01T10:14:43.000Z</time>
      </trkpt>
      <trkpt lat="47.59354" lon="6.75443">
        <ele>514</ele>
        <time>2015-11-01T10:14:44.000Z</time>
      </trkpt>
      <trkpt lat="47.59357" lon="6.75443">
        <ele>514</ele>
        <time>2015-11-01T10:14:45.000Z</time>
      </trkpt>
      <trkpt lat="47.59359" lon="6.75443">
        <ele>515</ele>
        <time>2015-11-01T10:14:46.000Z</time>
      </trkpt>
      <trkpt lat="47.59363" lon="6.75443">
        <ele>515</ele>
        <time>2015-11-01T10:14:48.000Z</time>
      </trkpt>
      <trkpt lat="47.59365" lon="6.75443">
        <ele>515</ele>
        <time>2015-11-01T10:14:49.000Z</time>
      </trkpt>
      <trkpt lat="47.59369" lon="6.75443">
        <ele>515</ele>
        <time>2015-11-01T10:14:51.000Z</time>
      </trkpt>
      <trkpt lat="47.5937" lon="6.75443">
        <ele>515</ele>
        <time>2015-11-01T10:14:52.000Z</time>
      </trkpt>
      <trkpt lat="47.59374" lon="6.75445">
        <ele>515</ele>
        <time>2015-11-01T10:14:55.000Z</time>
      </trkpt>
      <trkpt lat="47.59375" lon="6.75446">
        <ele>515</ele>
        <time>2015-11-01T10:14:56.000Z</time>
      </trkpt>
      <trkpt lat="47.59378" lon="6.75451">
        <ele>515</ele>
        <time>2015-11-01T10:14:59.000Z</time>
      </trkpt>
      <trkpt lat="47.59379" lon="6.75453">
        <ele>515</ele>
        <time>2015-11-01T10:15:00.000Z</time>
      </trkpt>
      <trkpt lat="47.59379" lon="6.75458">
        <ele>515</ele>
        <time>2015-11-01T10:15:02.000Z</time>
      </trkpt>
      <trkpt lat="47.5938" lon="6.7546">
        <ele>515</ele>
        <time>2015-11-01T10:15:03.000Z</time>
      </trkpt>
      <trkpt lat="47.59381" lon="6.75463">
        <ele>515</ele>
        <time>2015-11-01T10:15:04.000Z</time>
      </trkpt>
      <trkpt lat="47.59383" lon="6.75465">
        <ele>515</ele>
        <time>2015-11-01T10:15:05.000Z</time>
      </trkpt>
      <trkpt lat="47.59385" lon="6.75467">
        <ele>515</ele>
        <time>2015-11-01T10:15:06.000Z</time>
      </trkpt>
      <trkpt lat="47.59387" lon="6.75469">
        <ele>515</ele>
        <time>2015-11-01T10:15:07.000Z</time>
      </trkpt>
      <trkpt lat="47.5939" lon="6.75473">
        <ele>516</ele>
        <time>2015-11-01T10:15:09.000Z</time>
      </trkpt>
      <trkpt lat="47.59391" lon="6.75475">
        <ele>516</ele>
        <time>2015-11-01T10:15:10.000Z</time>
      </trkpt>
      <trkpt lat="47.59394" lon="6.7548">
        <ele>516</ele>
        <time>2015-11-01T10:15:12.000Z</time>
      </trkpt>
      <trkpt lat="47.59395" lon="6.75482">
        <ele>516</ele>
        <time>2015-11-01T10:15:13.000Z</time>
      </trkpt>
      <trkpt lat="47.59397" lon="6.75487">
        <ele>516</ele>
        <time>2015-11-01T10:15:15.000Z</time>
      </trkpt>
      <trkpt lat="47.59398" lon="6.75489">
        <ele>516</ele>
        <time>2015-11-01T10:15:16.000Z</time>
      </trkpt>
      <trkpt lat="47.594" lon="6.75493">
        <ele>516</ele>
        <time>2015-11-01T10:15:18.000Z</time>
      </trkpt>
      <trkpt lat="47.59401" lon="6.75494">
        <ele>516</ele>
        <time>2015-11-01T10:15:19.000Z</time>
      </trkpt>
      <trkpt lat="47.59405" lon="6.75495">
        <ele>517</ele>
        <time>2015-11-01T10:16:17.000Z</time>
      </trkpt>
      <trkpt lat="47.59406" lon="6.75496">
        <ele>517</ele>
        <time>2015-11-01T10:16:18.000Z</time>
      </trkpt>
      <trkpt lat="47.59408" lon="6.75502">
        <ele>517</ele>
        <time>2015-11-01T10:16:23.000Z</time>
      </trkpt>
      <trkpt lat="47.59409" lon="6.75502">
        <ele>517</ele>
        <time>2015-11-01T10:16:24.000Z</time>
      </trkpt>
      <trkpt lat="47.5941" lon="6.75508">
        <ele>516</ele>
        <time>2015-11-01T10:18:20.000Z</time>
      </trkpt>
      <trkpt lat="47.59411" lon="6.75508">
        <ele>516</ele>
        <time>2015-11-01T10:18:21.000Z</time>
      </trkpt>
      <trkpt lat="47.59413" lon="6.75513">
        <ele>516</ele>
        <time>2015-11-01T10:19:13.000Z</time>
      </trkpt>
      <trkpt lat="47.59414" lon="6.75514">
        <ele>516</ele>
        <time>2015-11-01T10:19:14.000Z</time>
      </trkpt>
      <trkpt lat="47.59418" lon="6.75518">
        <ele>519</ele>
        <time>2015-11-01T10:19:17.000Z</time>
      </trkpt>
      <trkpt lat="47.5942" lon="6.75521">
        <ele>519</ele>
        <time>2015-11-01T10:19:19.000Z</time>
      </trkpt>
      <trkpt lat="47.59422" lon="6.75523">
        <ele>519</ele>
        <time>2015-11-01T10:19:21.000Z</time>
      </trkpt>
      <trkpt lat="47.59423" lon="6.75525">
        <ele>520</ele>
        <time>2015-11-01T10:19:22.000Z</time>
      </trkpt>
      <trkpt lat="47.59425" lon="6.7553">
        <ele>520</ele>
        <time>2015-11-01T10:19:24.000Z</time>
      </trkpt>
      <trkpt lat="47.59426" lon="6.75533">
        <ele>520</ele>
        <time>2015-11-01T10:19:25.000Z</time>
      </trkpt>
      <trkpt lat="47.59427" lon="6.75536">
        <ele>520</ele>
        <time>2015-11-01T10:19:26.000Z</time>
      </trkpt>
      <trkpt lat="47.59428" lon="6.75538">
        <ele>520</ele>
        <time>2015-11-01T10:19:27.000Z</time>
      </trkpt>
      <trkpt lat="47.5943" lon="6.75541">
        <ele>520</ele>
        <time>2015-11-01T10:19:28.000Z</time>
      </trkpt>
      <trkpt lat="47.59432" lon="6.75543">
        <ele>520</ele>
        <time>2015-11-01T10:19:29.000Z</time>
      </trkpt>
      <trkpt lat="47.59435" lon="6.75549">
        <ele>520</ele>
        <time>2015-11-01T10:19:31.000Z</time>
      </trkpt>
      <trkpt lat="47.59436" lon="6.75551">
        <ele>520</ele>
        <time>2015-11-01T10:19:32.000Z</time>
      </trkpt>
      <trkpt lat="47.59437" lon="6.75554">
        <ele>520</ele>
        <time>2015-11-01T10:19:33.000Z</time>
      </trkpt>
      <trkpt lat="47.59438" lon="6.75557">
        <ele>520</ele>
        <time>2015-11-01T10:19:34.000Z</time>
      </trkpt>
      <trkpt lat="47.5944" lon="6.7556">
        <ele>520</ele>
        <time>2015-11-01T10:19:35.000Z</time>
      </trkpt>
      <trkpt lat="47.59441" lon="6.75563">
        <ele>519</ele>
        <time>2015-11-01T10:19:36.000Z</time>
      </trkpt>
      <trkpt lat="47.59443" lon="6.75566">
        <ele>520</ele>
        <time>2015-11-01T10:19:37.000Z</time>
      </trkpt>
      <trkpt lat="47.59444" lon="6.75569">
        <ele>520</ele>
        <time>2015-11-01T10:19:38.000Z</time>
      </trkpt>
      <trkpt lat="47.59445" lon="6.75573">
        <ele>520</ele>
        <time>2015-11-01T10:19:39.000Z</time>
      </trkpt>
      <trkpt lat="47.59447" lon="6.75576">
        <ele>520</ele>
        <time>2015-11-01T10:19:40.000Z</time>
      </trkpt>
      <trkpt lat="47.59448" lon="6.75579">
        <ele>520</ele>
        <time>2015-11-01T10:19:41.000Z</time>
      </trkpt>
      <trkpt lat="47.5945" lon="6.75582">
        <ele>520</ele>
        <time>2015-11-01T10:19:42.000Z</time>
      </trkpt>
      <trkpt lat="47.59452" lon="6.75586">
        <ele>519</ele>
        <time>2015-11-01T10:19:43.000Z</time>
      </trkpt>
      <trkpt lat="47.59454" lon="6.75589">
        <ele>519</ele>
        <time>2015-11-01T10:19:44.000Z</time>
      </trkpt>
      <trkpt lat="47.59456" lon="6.75592">
        <ele>519</ele>
        <time>2015-11-01T10:19:45.000Z</time>
      </trkpt>
      <trkpt lat="47.59457" lon="6.75595">
        <ele>519</ele>
        <time>2015-11-01T10:19:46.000Z</time>
      </trkpt>
      <trkpt lat="47.59459" lon="6.75599">
        <ele>519</ele>
        <time>2015-11-01T10:19:47.000Z</time>
      </trkpt>
      <trkpt lat="47.5946" lon="6.75602">
        <ele>519</ele>
        <time>2015-11-01T10:19:48.000Z</time>
      </trkpt>
      <trkpt lat="47.59462" lon="6.75604">
        <ele>519</ele>
        <time>2015-11-01T10:19:49.000Z</time>
      </trkpt>
      <trkpt lat="47.59464" lon="6.75607">
        <ele>519</ele>
        <time>2015-11-01T10:19:50.000Z</time>
      </trkpt>
      <trkpt lat="47.59466" lon="6.7561">
        <ele>519</ele>
        <time>2015-11-01T10:19:51.000Z</time>
      </trkpt>
      <trkpt lat="47.59467" lon="6.75613">
        <ele>519</ele>
        <time>2015-11-01T10:19:52.000Z</time>
      </trkpt>
      <trkpt lat="47.59469" lon="6.75616">
        <ele>520</ele>
        <time>2015-11-01T10:19:53.000Z</time>
      </trkpt>
      <trkpt lat="47.5947" lon="6.75619">
        <ele>520</ele>
        <time>2015-11-01T10:19:54.000Z</time>
      </trkpt>
      <trkpt lat="47.59472" lon="6.75624">
        <ele>520</ele>
        <time>2015-11-01T10:19:56.000Z</time>
      </trkpt>
      <trkpt lat="47.59474" lon="6.75626">
        <ele>520</ele>
        <time>2015-11-01T10:19:57.000Z</time>
      </trkpt>
      <trkpt lat="47.59475" lon="6.75628">
        <ele>520</ele>
        <time>2015-11-01T10:19:58.000Z</time>
      </trkpt>
      <trkpt lat="47.59476" lon="6.75631">
        <ele>520</ele>
        <time>2015-11-01T10:19:59.000Z</time>
      </trkpt>
      <trkpt lat="47.59477" lon="6.75634">
        <ele>520</ele>
        <time>2015-11-01T10:20:00.000Z</time>
      </trkpt>
      <trkpt lat="47.59479" lon="6.75638">
        <ele>520</ele>
        <time>2015-11-01T10:20:01.000Z</time>
      </trkpt>
      <trkpt lat="47.5948" lon="6.75641">
        <ele>520</ele>
        <time>2015-11-01T10:20:02.000Z</time>
      </trkpt>
      <trkpt lat="47.59481" lon="6.75645">
        <ele>520</ele>
        <time>2015-11-01T10:20:03.000Z</time>
      </trkpt>
      <trkpt lat="47.59483" lon="6.75649">
        <ele>520</ele>
        <time>2015-11-01T10:20:04.000Z</time>
      </trkpt>
      <trkpt lat="47.59485" lon="6.75653">
        <ele>520</ele>
        <time>2015-11-01T10:20:05.000Z</time>
      </trkpt>
      <trkpt lat="47.59487" lon="6.75657">
        <ele>520</ele>
        <time>2015-11-01T10:20:06.000Z</time>
      </trkpt>
      <trkpt lat="47.59488" lon="6.75661">
        <ele>521</ele>
        <time>2015-11-01T10:20:07.000Z</time>
      </trkpt>
      <trkpt lat="47.5949" lon="6.75665">
        <ele>521</ele>
        <time>2015-11-01T10:20:08.000Z</time>
      </trkpt>
      <trkpt lat="47.59492" lon="6.75668">
        <ele>520</ele>
        <time>2015-11-01T10:20:09.000Z</time>
      </trkpt>
      <trkpt lat="47.59494" lon="6.75672">
        <ele>521</ele>
        <time>2015-11-01T10:20:10.000Z</time>
      </trkpt>
      <trkpt lat="47.59496" lon="6.75675">
        <ele>520</ele>
        <time>2015-11-01T10:20:11.000Z</time>
      </trkpt>
      <trkpt lat="47.59498" lon="6.75679">
        <ele>520</ele>
        <time>2015-11-01T10:20:12.000Z</time>
      </trkpt>
      <trkpt lat="47.595" lon="6.75682">
        <ele>520</ele>
        <time>2015-11-01T10:20:13.000Z</time>
      </trkpt>
      <trkpt lat="47.59502" lon="6.75685">
        <ele>523</ele>
        <time>2015-11-01T10:20:14.000Z</time>
      </trkpt>
      <trkpt lat="47.59503" lon="6.75688">
        <ele>523</ele>
        <time>2015-11-01T10:20:15.000Z</time>
      </trkpt>
      <trkpt lat="47.59505" lon="6.75692">
        <ele>523</ele>
        <time>2015-11-01T10:20:16.000Z</time>
      </trkpt>
      <trkpt lat="47.59506" lon="6.75695">
        <ele>523</ele>
        <time>2015-11-01T10:20:17.000Z</time>
      </trkpt>
      <trkpt lat="47.59508" lon="6.75703">
        <ele>523</ele>
        <time>2015-11-01T10:20:19.000Z</time>
      </trkpt>
      <trkpt lat="47.59509" lon="6.75706">
        <ele>523</ele>
        <time>2015-11-01T10:20:20.000Z</time>
      </trkpt>
      <trkpt lat="47.59511" lon="6.75709">
        <ele>523</ele>
        <time>2015-11-01T10:20:21.000Z</time>
      </trkpt>
      <trkpt lat="47.59513" lon="6.75713">
        <ele>523</ele>
        <time>2015-11-01T10:20:22.000Z</time>
      </trkpt>
      <trkpt lat="47.59515" lon="6.75716">
        <ele>523</ele>
        <time>2015-11-01T10:20:23.000Z</time>
      </trkpt>
      <trkpt lat="47.59517" lon="6.7572">
        <ele>523</ele>
        <time>2015-11-01T10:20:24.000Z</time>
      </trkpt>
      <trkpt lat="47.59519" lon="6.75724">
        <ele>523</ele>
        <time>2015-11-01T10:20:25.000Z</time>
      </trkpt>
      <trkpt lat="47.5952" lon="6.75727">
        <ele>523</ele>
        <time>2015-11-01T10:20:26.000Z</time>
      </trkpt>
      <trkpt lat="47.59522" lon="6.75731">
        <ele>523</ele>
        <time>2015-11-01T10:20:27.000Z</time>
      </trkpt>
      <trkpt lat="47.59523" lon="6.75734">
        <ele>523</ele>
        <time>2015-11-01T10:20:28.000Z</time>
      </trkpt>
      <trkpt lat="47.59525" lon="6.75738">
        <ele>523</ele>
        <time>2015-11-01T10:20:29.000Z</time>
      </trkpt>
      <trkpt lat="47.59526" lon="6.75741">
        <ele>523</ele>
        <time>2015-11-01T10:20:30.000Z</time>
      </trkpt>
      <trkpt lat="47.59527" lon="6.75744">
        <ele>523</ele>
        <time>2015-11-01T10:20:31.000Z</time>
      </trkpt>
      <trkpt lat="47.59525" lon="6.75748">
        <ele>523</ele>
        <time>2015-11-01T10:21:27.000Z</time>
      </trkpt>
      <trkpt lat="47.59524" lon="6.75749">
        <ele>523</ele>
        <time>2015-11-01T10:21:28.000Z</time>
      </trkpt>
      <trkpt lat="47.59522" lon="6.75751">
        <ele>522</ele>
        <time>2015-11-01T10:21:30.000Z</time>
      </trkpt>
      <trkpt lat="47.5952" lon="6.75753">
        <ele>522</ele>
        <time>2015-11-01T10:21:31.000Z</time>
      </trkpt>
      <trkpt lat="47.59518" lon="6.75755">
        <ele>522</ele>
        <time>2015-11-01T10:21:32.000Z</time>
      </trkpt>
      <trkpt lat="47.59516" lon="6.75758">
        <ele>522</ele>
        <time>2015-11-01T10:21:33.000Z</time>
      </trkpt>
      <trkpt lat="47.59514" lon="6.75762">
        <ele>522</ele>
        <time>2015-11-01T10:21:34.000Z</time>
      </trkpt>
      <trkpt lat="47.59512" lon="6.75767">
        <ele>522</ele>
        <time>2015-11-01T10:21:35.000Z</time>
      </trkpt>
      <trkpt lat="47.5951" lon="6.75771">
        <ele>522</ele>
        <time>2015-11-01T10:21:36.000Z</time>
      </trkpt>
      <trkpt lat="47.5951" lon="6.75777">
        <ele>522</ele>
        <time>2015-11-01T10:21:37.000Z</time>
      </trkpt>
      <trkpt lat="47.5951" lon="6.75782">
        <ele>522</ele>
        <time>2015-11-01T10:21:38.000Z</time>
      </trkpt>
      <trkpt lat="47.5951" lon="6.75786">
        <ele>522</ele>
        <time>2015-11-01T10:21:39.000Z</time>
      </trkpt>
      <trkpt lat="47.5951" lon="6.75792">
        <ele>522</ele>
        <time>2015-11-01T10:21:41.000Z</time>
      </trkpt>
      <trkpt lat="47.5951" lon="6.75795">
        <ele>522</ele>
        <time>2015-11-01T10:21:42.000Z</time>
      </trkpt>
      <trkpt lat="47.59509" lon="6.75798">
        <ele>522</ele>
        <time>2015-11-01T10:21:43.000Z</time>
      </trkpt>
      <trkpt lat="47.59507" lon="6.75803">
        <ele>522</ele>
        <time>2015-11-01T10:21:44.000Z</time>
      </trkpt>
      <trkpt lat="47.59507" lon="6.75809">
        <ele>522</ele>
        <time>2015-11-01T10:21:47.000Z</time>
      </trkpt>
      <trkpt lat="47.59506" lon="6.75813">
        <ele>522</ele>
        <time>2015-11-01T10:21:48.000Z</time>
      </trkpt>
      <trkpt lat="47.59505" lon="6.75818">
        <ele>521</ele>
        <time>2015-11-01T10:21:49.000Z</time>
      </trkpt>
      <trkpt lat="47.59507" lon="6.75825">
        <ele>521</ele>
        <time>2015-11-01T10:21:50.000Z</time>
      </trkpt>
      <trkpt lat="47.59507" lon="6.75831">
        <ele>521</ele>
        <time>2015-11-01T10:21:51.000Z</time>
      </trkpt>
      <trkpt lat="47.59508" lon="6.75836">
        <ele>521</ele>
        <time>2015-11-01T10:21:52.000Z</time>
      </trkpt>
      <trkpt lat="47.5951" lon="6.75842">
        <ele>521</ele>
        <time>2015-11-01T10:22:08.000Z</time>
      </trkpt>
      <trkpt lat="47.5951" lon="6.75842">
        <ele>521</ele>
        <time>2015-11-01T10:22:09.000Z</time>
      </trkpt>
      <trkpt lat="47.59509" lon="6.75843">
        <ele>521</ele>
        <time>2015-11-01T10:22:14.000Z</time>
      </trkpt>
      <trkpt lat="47.59505" lon="6.75848">
        <ele>521</ele>
        <time>2015-11-01T10:22:15.000Z</time>
      </trkpt>
      <trkpt lat="47.59501" lon="6.75848">
        <ele>521</ele>
        <time>2015-11-01T10:22:16.000Z</time>
      </trkpt>
      <trkpt lat="47.59499" lon="6.75848">
        <ele>518</ele>
        <time>2015-11-01T10:22:17.000Z</time>
      </trkpt>
      <trkpt lat="47.59493" lon="6.75846">
        <ele>518</ele>
        <time>2015-11-01T10:22:19.000Z</time>
      </trkpt>
      <trkpt lat="47.59489" lon="6.75844">
        <ele>518</ele>
        <time>2015-11-01T10:22:20.000Z</time>
      </trkpt>
      <trkpt lat="47.59486" lon="6.75844">
        <ele>517</ele>
        <time>2015-11-01T10:22:21.000Z</time>
      </trkpt>
      <trkpt lat="47.59482" lon="6.75844">
        <ele>517</ele>
        <time>2015-11-01T10:22:22.000Z</time>
      </trkpt>
      <trkpt lat="47.59479" lon="6.75844">
        <ele>517</ele>
        <time>2015-11-01T10:22:23.000Z</time>
      </trkpt>
      <trkpt lat="47.59476" lon="6.75843">
        <ele>516</ele>
        <time>2015-11-01T10:22:24.000Z</time>
      </trkpt>
      <trkpt lat="47.59473" lon="6.7584">
        <ele>516</ele>
        <time>2015-11-01T10:22:25.000Z</time>
      </trkpt>
      <trkpt lat="47.59472" lon="6.75837">
        <ele>516</ele>
        <time>2015-11-01T10:22:26.000Z</time>
      </trkpt>
      <trkpt lat="47.59472" lon="6.75833">
        <ele>517</ele>
        <time>2015-11-01T10:22:27.000Z</time>
      </trkpt>
      <trkpt lat="47.59472" lon="6.7583">
        <ele>517</ele>
        <time>2015-11-01T10:22:28.000Z</time>
      </trkpt>
      <trkpt lat="47.59472" lon="6.75826">
        <ele>517</ele>
        <time>2015-11-01T10:22:29.000Z</time>
      </trkpt>
      <trkpt lat="47.59472" lon="6.75822">
        <ele>517</ele>
        <time>2015-11-01T10:22:30.000Z</time>
      </trkpt>
      <trkpt lat="47.59471" lon="6.75818">
        <ele>516</ele>
        <time>2015-11-01T10:22:31.000Z</time>
      </trkpt>
      <trkpt lat="47.5947" lon="6.75815">
        <ele>516</ele>
        <time>2015-11-01T10:22:32.000Z</time>
      </trkpt>
      <trkpt lat="47.59458" lon="6.75814">
        <ele>515</ele>
        <time>2015-11-01T10:22:33.000Z</time>
      </trkpt>
      <trkpt lat="47.59454" lon="6.75813">
        <ele>515</ele>
        <time>2015-11-01T10:22:34.000Z</time>
      </trkpt>
      <trkpt lat="47.59449" lon="6.75813">
        <ele>515</ele>
        <time>2015-11-01T10:22:35.000Z</time>
      </trkpt>
      <trkpt lat="47.59445" lon="6.75812">
        <ele>515</ele>
        <time>2015-11-01T10:22:36.000Z</time>
      </trkpt>
      <trkpt lat="47.59442" lon="6.75812">
        <ele>514</ele>
        <time>2015-11-01T10:22:37.000Z</time>
      </trkpt>
      <trkpt lat="47.59441" lon="6.75817">
        <ele>514</ele>
        <time>2015-11-01T10:22:40.000Z</time>
      </trkpt>
      <trkpt lat="47.5944" lon="6.75819">
        <ele>514</ele>
        <time>2015-11-01T10:22:41.000Z</time>
      </trkpt>
      <trkpt lat="47.5944" lon="6.75823">
        <ele>514</ele>
        <time>2015-11-01T10:22:42.000Z</time>
      </trkpt>
      <trkpt lat="47.59439" lon="6.75827">
        <ele>514</ele>
        <time>2015-11-01T10:22:43.000Z</time>
      </trkpt>
      <trkpt lat="47.5944" lon="6.7583">
        <ele>514</ele>
        <time>2015-11-01T10:22:44.000Z</time>
      </trkpt>
      <trkpt lat="47.59439" lon="6.75835">
        <ele>513</ele>
        <time>2015-11-01T10:22:45.000Z</time>
      </trkpt>
      <trkpt lat="47.59438" lon="6.75838">
        <ele>513</ele>
        <time>2015-11-01T10:22:46.000Z</time>
      </trkpt>
      <trkpt lat="47.59435" lon="6.75841">
        <ele>513</ele>
        <time>2015-11-01T10:22:47.000Z</time>
      </trkpt>
      <trkpt lat="47.59432" lon="6.75843">
        <ele>513</ele>
        <time>2015-11-01T10:22:48.000Z</time>
      </trkpt>
      <trkpt lat="47.59429" lon="6.75844">
        <ele>513</ele>
        <time>2015-11-01T10:22:49.000Z</time>
      </trkpt>
      <trkpt lat="47.59426" lon="6.75847">
        <ele>513</ele>
        <time>2015-11-01T10:22:50.000Z</time>
      </trkpt>
      <trkpt lat="47.59425" lon="6.7585">
        <ele>513</ele>
        <time>2015-11-01T10:22:51.000Z</time>
      </trkpt>
      <trkpt lat="47.59424" lon="6.75854">
        <ele>513</ele>
        <time>2015-11-01T10:22:52.000Z</time>
      </trkpt>
      <trkpt lat="47.59425" lon="6.75858">
        <ele>513</ele>
        <time>2015-11-01T10:22:53.000Z</time>
      </trkpt>
      <trkpt lat="47.59425" lon="6.75862">
        <ele>513</ele>
        <time>2015-11-01T10:22:54.000Z</time>
      </trkpt>
      <trkpt lat="47.59427" lon="6.75867">
        <ele>513</ele>
        <time>2015-11-01T10:22:55.000Z</time>
      </trkpt>
      <trkpt lat="47.59429" lon="6.75871">
        <ele>513</ele>
        <time>2015-11-01T10:22:56.000Z</time>
      </trkpt>
      <trkpt lat="47.59432" lon="6.75874">
        <ele>513</ele>
        <time>2015-11-01T10:22:57.000Z</time>
      </trkpt>
      <trkpt lat="47.59433" lon="6.75877">
        <ele>513</ele>
        <time>2015-11-01T10:22:58.000Z</time>
      </trkpt>
      <trkpt lat="47.59434" lon="6.75879">
        <ele>513</ele>
        <time>2015-11-01T10:22:59.000Z</time>
      </trkpt>
      <trkpt lat="47.59436" lon="6.75885">
        <ele>513</ele>
        <time>2015-11-01T10:23:01.000Z</time>
      </trkpt>
      <trkpt lat="47.59437" lon="6.75889">
        <ele>513</ele>
        <time>2015-11-01T10:23:02.000Z</time>
      </trkpt>
      <trkpt lat="47.59439" lon="6.75894">
        <ele>513</ele>
        <time>2015-11-01T10:23:04.000Z</time>
      </trkpt>
      <trkpt lat="47.5944" lon="6.75897">
        <ele>513</ele>
        <time>2015-11-01T10:23:05.000Z</time>
      </trkpt>
      <trkpt lat="47.59441" lon="6.75899">
        <ele>513</ele>
        <time>2015-11-01T10:23:06.000Z</time>
      </trkpt>
      <trkpt lat="47.59442" lon="6.75902">
        <ele>513</ele>
        <time>2015-11-01T10:23:07.000Z</time>
      </trkpt>
      <trkpt lat="47.59444" lon="6.75906">
        <ele>513</ele>
        <time>2015-11-01T10:23:08.000Z</time>
      </trkpt>
      <trkpt lat="47.59446" lon="6.7591">
        <ele>513</ele>
        <time>2015-11-01T10:23:09.000Z</time>
      </trkpt>
      <trkpt lat="47.59448" lon="6.75913">
        <ele>513</ele>
        <time>2015-11-01T10:23:10.000Z</time>
      </trkpt>
      <trkpt lat="47.5945" lon="6.75917">
        <ele>513</ele>
        <time>2015-11-01T10:23:11.000Z</time>
      </trkpt>
      <trkpt lat="47.59452" lon="6.7592">
        <ele>513</ele>
        <time>2015-11-01T10:23:12.000Z</time>
      </trkpt>
      <trkpt lat="47.59453" lon="6.75924">
        <ele>513</ele>
        <time>2015-11-01T10:23:13.000Z</time>
      </trkpt>
      <trkpt lat="47.59455" lon="6.75927">
        <ele>513</ele>
        <time>2015-11-01T10:23:14.000Z</time>
      </trkpt>
      <trkpt lat="47.59457" lon="6.75931">
        <ele>513</ele>
        <time>2015-11-01T10:23:15.000Z</time>
      </trkpt>
      <trkpt lat="47.59458" lon="6.75934">
        <ele>513</ele>
        <time>2015-11-01T10:23:16.000Z</time>
      </trkpt>
      <trkpt lat="47.59459" lon="6.75937">
        <ele>514</ele>
        <time>2015-11-01T10:23:17.000Z</time>
      </trkpt>
      <trkpt lat="47.59461" lon="6.75943">
        <ele>514</ele>
        <time>2015-11-01T10:23:19.000Z</time>
      </trkpt>
      <trkpt lat="47.59462" lon="6.75949">
        <ele>514</ele>
        <time>2015-11-01T10:23:21.000Z</time>
      </trkpt>
      <trkpt lat="47.59463" lon="6.75952">
        <ele>514</ele>
        <time>2015-11-01T10:23:22.000Z</time>
      </trkpt>
      <trkpt lat="47.59465" lon="6.75957">
        <ele>514</ele>
        <time>2015-11-01T10:23:24.000Z</time>
      </trkpt>
      <trkpt lat="47.59465" lon="6.7596">
        <ele>514</ele>
        <time>2015-11-01T10:23:25.000Z</time>
      </trkpt>
      <trkpt lat="47.59466" lon="6.75964">
        <ele>514</ele>
        <time>2015-11-01T10:23:26.000Z</time>
      </trkpt>
      <trkpt lat="47.59466" lon="6.75968">
        <ele>514</ele>
        <time>2015-11-01T10:23:27.000Z</time>
      </trkpt>
      <trkpt lat="47.59467" lon="6.75972">
        <ele>514</ele>
        <time>2015-11-01T10:23:28.000Z</time>
      </trkpt>
      <trkpt lat="47.59467" lon="6.75975">
        <ele>514</ele>
        <time>2015-11-01T10:23:29.000Z</time>
      </trkpt>
      <trkpt lat="47.59468" lon="6.75979">
        <ele>514</ele>
        <time>2015-11-01T10:23:30.000Z</time>
      </trkpt>
      <trkpt lat="47.59469" lon="6.75982">
        <ele>514</ele>
        <time>2015-11-01T10:23:31.000Z</time>
      </trkpt>
      <trkpt lat="47.5947" lon="6.75986">
        <ele>514</ele>
        <time>2015-11-01T10:23:32.000Z</time>
      </trkpt>
      <trkpt lat="47.59471" lon="6.7599">
        <ele>514</ele>
        <time>2015-11-01T10:23:33.000Z</time>
      </trkpt>
      <trkpt lat="47.59472" lon="6.75995">
        <ele>514</ele>
        <time>2015-11-01T10:23:34.000Z</time>
      </trkpt>
      <trkpt lat="47.59473" lon="6.76">
        <ele>514</ele>
        <time>2015-11-01T10:23:35.000Z</time>
      </trkpt>
      <trkpt lat="47.59473" lon="6.76005">
        <ele>514</ele>
        <time>2015-11-01T10:23:36.000Z</time>
      </trkpt>
      <trkpt lat="47.59472" lon="6.7601">
        <ele>514</ele>
        <time>2015-11-01T10:23:37.000Z</time>
      </trkpt>
      <trkpt lat="47.59472" lon="6.76015">
        <ele>514</ele>
        <time>2015-11-01T10:23:38.000Z</time>
      </trkpt>
      <trkpt lat="47.59471" lon="6.7602">
        <ele>513</ele>
        <time>2015-11-01T10:23:39.000Z</time>
      </trkpt>
      <trkpt lat="47.59471" lon="6.76026">
        <ele>513</ele>
        <time>2015-11-01T10:23:40.000Z</time>
      </trkpt>
      <trkpt lat="47.59472" lon="6.76032">
        <ele>513</ele>
        <time>2015-11-01T10:23:41.000Z</time>
      </trkpt>
      <trkpt lat="47.59473" lon="6.76038">
        <ele>513</ele>
        <time>2015-11-01T10:23:42.000Z</time>
      </trkpt>
      <trkpt lat="47.59473" lon="6.76044">
        <ele>513</ele>
        <time>2015-11-01T10:23:43.000Z</time>
      </trkpt>
      <trkpt lat="47.59473" lon="6.76049">
        <ele>513</ele>
        <time>2015-11-01T10:23:44.000Z</time>
      </trkpt>
      <trkpt lat="47.59473" lon="6.76053">
        <ele>513</ele>
        <time>2015-11-01T10:23:45.000Z</time>
      </trkpt>
      <trkpt lat="47.59472" lon="6.76059">
        <ele>513</ele>
        <time>2015-11-01T10:23:46.000Z</time>
      </trkpt>
      <trkpt lat="47.59471" lon="6.76065">
        <ele>513</ele>
        <time>2015-11-01T10:23:47.000Z</time>
      </trkpt>
      <trkpt lat="47.5947" lon="6.76071">
        <ele>513</ele>
        <time>2015-11-01T10:23:48.000Z</time>
      </trkpt>
      <trkpt lat="47.59468" lon="6.76076">
        <ele>513</ele>
        <time>2015-11-01T10:23:49.000Z</time>
      </trkpt>
      <trkpt lat="47.59465" lon="6.76079">
        <ele>513</ele>
        <time>2015-11-01T10:23:50.000Z</time>
      </trkpt>
      <trkpt lat="47.59462" lon="6.7608">
        <ele>512</ele>
        <time>2015-11-01T10:23:51.000Z</time>
      </trkpt>
      <trkpt lat="47.59459" lon="6.76082">
        <ele>512</ele>
        <time>2015-11-01T10:23:52.000Z</time>
      </trkpt>
      <trkpt lat="47.59457" lon="6.76085">
        <ele>511</ele>
        <time>2015-11-01T10:23:53.000Z</time>
      </trkpt>
      <trkpt lat="47.59456" lon="6.7609">
        <ele>511</ele>
        <time>2015-11-01T10:23:54.000Z</time>
      </trkpt>
      <trkpt lat="47.59456" lon="6.76095">
        <ele>511</ele>
        <time>2015-11-01T10:23:55.000Z</time>
      </trkpt>
      <trkpt lat="47.59457" lon="6.761">
        <ele>511</ele>
        <time>2015-11-01T10:23:56.000Z</time>
      </trkpt>
      <trkpt lat="47.59457" lon="6.76106">
        <ele>511</ele>
        <time>2015-11-01T10:23:57.000Z</time>
      </trkpt>
      <trkpt lat="47.59458" lon="6.76111">
        <ele>511</ele>
        <time>2015-11-01T10:23:58.000Z</time>
      </trkpt>
      <trkpt lat="47.59459" lon="6.76117">
        <ele>511</ele>
        <time>2015-11-01T10:23:59.000Z</time>
      </trkpt>
      <trkpt lat="47.59462" lon="6.76132">
        <ele>511</ele>
        <time>2015-11-01T10:24:00.000Z</time>
      </trkpt>
      <trkpt lat="47.59462" lon="6.76138">
        <ele>511</ele>
        <time>2015-11-01T10:24:01.000Z</time>
      </trkpt>
      <trkpt lat="47.59459" lon="6.76144">
        <ele>511</ele>
        <time>2015-11-01T10:24:02.000Z</time>
      </trkpt>
      <trkpt lat="47.59455" lon="6.76147">
        <ele>510</ele>
        <time>2015-11-01T10:24:03.000Z</time>
      </trkpt>
      <trkpt lat="47.5945" lon="6.7615">
        <ele>510</ele>
        <time>2015-11-01T10:24:04.000Z</time>
      </trkpt>
      <trkpt lat="47.59446" lon="6.76154">
        <ele>510</ele>
        <time>2015-11-01T10:24:05.000Z</time>
      </trkpt>
      <trkpt lat="47.59444" lon="6.76157">
        <ele>509</ele>
        <time>2015-11-01T10:24:06.000Z</time>
      </trkpt>
      <trkpt lat="47.59444" lon="6.76168">
        <ele>509</ele>
        <time>2015-11-01T10:24:07.000Z</time>
      </trkpt>
      <trkpt lat="47.59443" lon="6.76175">
        <ele>509</ele>
        <time>2015-11-01T10:24:08.000Z</time>
      </trkpt>
      <trkpt lat="47.5944" lon="6.76178">
        <ele>508</ele>
        <time>2015-11-01T10:24:10.000Z</time>
      </trkpt>
      <trkpt lat="47.59439" lon="6.76181">
        <ele>508</ele>
        <time>2015-11-01T10:24:11.000Z</time>
      </trkpt>
      <trkpt lat="47.59435" lon="6.76183">
        <ele>508</ele>
        <time>2015-11-01T10:24:12.000Z</time>
      </trkpt>
      <trkpt lat="47.59432" lon="6.76186">
        <ele>508</ele>
        <time>2015-11-01T10:24:13.000Z</time>
      </trkpt>
      <trkpt lat="47.59429" lon="6.76188">
        <ele>508</ele>
        <time>2015-11-01T10:24:14.000Z</time>
      </trkpt>
      <trkpt lat="47.59427" lon="6.76193">
        <ele>508</ele>
        <time>2015-11-01T10:24:15.000Z</time>
      </trkpt>
      <trkpt lat="47.59423" lon="6.76206">
        <ele>508</ele>
        <time>2015-11-01T10:24:16.000Z</time>
      </trkpt>
      <trkpt lat="47.59421" lon="6.76213">
        <ele>508</ele>
        <time>2015-11-01T10:24:17.000Z</time>
      </trkpt>
      <trkpt lat="47.59419" lon="6.7622">
        <ele>508</ele>
        <time>2015-11-01T10:24:18.000Z</time>
      </trkpt>
      <trkpt lat="47.59418" lon="6.76226">
        <ele>507</ele>
        <time>2015-11-01T10:24:19.000Z</time>
      </trkpt>
      <trkpt lat="47.59418" lon="6.76234">
        <ele>507</ele>
        <time>2015-11-01T10:24:20.000Z</time>
      </trkpt>
      <trkpt lat="47.59417" lon="6.7624">
        <ele>504</ele>
        <time>2015-11-01T10:24:21.000Z</time>
      </trkpt>
      <trkpt lat="47.59419" lon="6.76246">
        <ele>506</ele>
        <time>2015-11-01T10:24:22.000Z</time>
      </trkpt>
      <trkpt lat="47.5942" lon="6.76251">
        <ele>505</ele>
        <time>2015-11-01T10:24:23.000Z</time>
      </trkpt>
      <trkpt lat="47.5942" lon="6.76256">
        <ele>506</ele>
        <time>2015-11-01T10:24:24.000Z</time>
      </trkpt>
      <trkpt lat="47.59421" lon="6.76261">
        <ele>506</ele>
        <time>2015-11-01T10:24:25.000Z</time>
      </trkpt>
      <trkpt lat="47.59424" lon="6.76269">
        <ele>506</ele>
        <time>2015-11-01T10:24:26.000Z</time>
      </trkpt>
      <trkpt lat="47.59426" lon="6.76274">
        <ele>506</ele>
        <time>2015-11-01T10:24:27.000Z</time>
      </trkpt>
      <trkpt lat="47.59427" lon="6.7628">
        <ele>507</ele>
        <time>2015-11-01T10:24:28.000Z</time>
      </trkpt>
      <trkpt lat="47.59428" lon="6.76286">
        <ele>507</ele>
        <time>2015-11-01T10:24:29.000Z</time>
      </trkpt>
      <trkpt lat="47.5943" lon="6.76291">
        <ele>506</ele>
        <time>2015-11-01T10:24:30.000Z</time>
      </trkpt>
      <trkpt lat="47.59431" lon="6.76296">
        <ele>506</ele>
        <time>2015-11-01T10:24:31.000Z</time>
      </trkpt>
      <trkpt lat="47.59433" lon="6.76301">
        <ele>506</ele>
        <time>2015-11-01T10:24:32.000Z</time>
      </trkpt>
      <trkpt lat="47.59435" lon="6.76306">
        <ele>506</ele>
        <time>2015-11-01T10:24:33.000Z</time>
      </trkpt>
      <trkpt lat="47.59439" lon="6.76315">
        <ele>506</ele>
        <time>2015-11-01T10:24:34.000Z</time>
      </trkpt>
      <trkpt lat="47.59441" lon="6.76322">
        <ele>506</ele>
        <time>2015-11-01T10:24:35.000Z</time>
      </trkpt>
      <trkpt lat="47.59442" lon="6.76328">
        <ele>506</ele>
        <time>2015-11-01T10:24:36.000Z</time>
      </trkpt>
      <trkpt lat="47.59442" lon="6.76333">
        <ele>506</ele>
        <time>2015-11-01T10:24:37.000Z</time>
      </trkpt>
      <trkpt lat="47.59443" lon="6.76338">
        <ele>504</ele>
        <time>2015-11-01T10:24:38.000Z</time>
      </trkpt>
      <trkpt lat="47.59443" lon="6.76342">
        <ele>504</ele>
        <time>2015-11-01T10:24:39.000Z</time>
      </trkpt>
      <trkpt lat="47.59444" lon="6.7635">
        <ele>504</ele>
        <time>2015-11-01T10:24:40.000Z</time>
      </trkpt>
      <trkpt lat="47.59445" lon="6.76357">
        <ele>504</ele>
        <time>2015-11-01T10:24:41.000Z</time>
      </trkpt>
      <trkpt lat="47.59447" lon="6.76363">
        <ele>504</ele>
        <time>2015-11-01T10:24:42.000Z</time>
      </trkpt>
      <trkpt lat="47.59449" lon="6.7637">
        <ele>504</ele>
        <time>2015-11-01T10:24:43.000Z</time>
      </trkpt>
      <trkpt lat="47.5945" lon="6.76376">
        <ele>504</ele>
        <time>2015-11-01T10:24:44.000Z</time>
      </trkpt>
      <trkpt lat="47.59452" lon="6.76382">
        <ele>504</ele>
        <time>2015-11-01T10:24:45.000Z</time>
      </trkpt>
      <trkpt lat="47.59453" lon="6.76387">
        <ele>504</ele>
        <time>2015-11-01T10:24:46.000Z</time>
      </trkpt>
      <trkpt lat="47.59454" lon="6.76393">
        <ele>504</ele>
        <time>2015-11-01T10:24:47.000Z</time>
      </trkpt>
      <trkpt lat="47.59455" lon="6.76399">
        <ele>504</ele>
        <time>2015-11-01T10:24:48.000Z</time>
      </trkpt>
      <trkpt lat="47.59457" lon="6.76405">
        <ele>504</ele>
        <time>2015-11-01T10:24:49.000Z</time>
      </trkpt>
      <trkpt lat="47.59459" lon="6.76411">
        <ele>504</ele>
        <time>2015-11-01T10:24:50.000Z</time>
      </trkpt>
      <trkpt lat="47.59461" lon="6.76416">
        <ele>504</ele>
        <time>2015-11-01T10:24:51.000Z</time>
      </trkpt>
      <trkpt lat="47.59463" lon="6.76421">
        <ele>502</ele>
        <time>2015-11-01T10:24:52.000Z</time>
      </trkpt>
      <trkpt lat="47.59465" lon="6.76424">
        <ele>503</ele>
        <time>2015-11-01T10:24:53.000Z</time>
      </trkpt>
      <trkpt lat="47.59468" lon="6.76429">
        <ele>503</ele>
        <time>2015-11-01T10:24:55.000Z</time>
      </trkpt>
      <trkpt lat="47.59469" lon="6.7643">
        <ele>503</ele>
        <time>2015-11-01T10:24:56.000Z</time>
      </trkpt>
      <trkpt lat="47.59473" lon="6.76433">
        <ele>503</ele>
        <time>2015-11-01T10:24:58.000Z</time>
      </trkpt>
      <trkpt lat="47.59475" lon="6.76435">
        <ele>503</ele>
        <time>2015-11-01T10:24:59.000Z</time>
      </trkpt>
      <trkpt lat="47.59477" lon="6.76437">
        <ele>503</ele>
        <time>2015-11-01T10:25:00.000Z</time>
      </trkpt>
      <trkpt lat="47.59479" lon="6.76439">
        <ele>503</ele>
        <time>2015-11-01T10:25:01.000Z</time>
      </trkpt>
      <trkpt lat="47.59481" lon="6.76444">
        <ele>503</ele>
        <time>2015-11-01T10:25:03.000Z</time>
      </trkpt>
      <trkpt lat="47.59482" lon="6.76446">
        <ele>503</ele>
        <time>2015-11-01T10:25:04.000Z</time>
      </trkpt>
      <trkpt lat="47.59482" lon="6.76451">
        <ele>503</ele>
        <time>2015-11-01T10:25:34.000Z</time>
      </trkpt>
      <trkpt lat="47.59482" lon="6.76454">
        <ele>503</ele>
        <time>2015-11-01T10:25:35.000Z</time>
      </trkpt>
      <trkpt lat="47.59482" lon="6.7646">
        <ele>503</ele>
        <time>2015-11-01T10:25:37.000Z</time>
      </trkpt>
      <trkpt lat="47.59483" lon="6.76465">
        <ele>503</ele>
        <time>2015-11-01T10:25:38.000Z</time>
      </trkpt>
      <trkpt lat="47.59483" lon="6.7647">
        <ele>503</ele>
        <time>2015-11-01T10:25:39.000Z</time>
      </trkpt>
      <trkpt lat="47.59485" lon="6.76484">
        <ele>503</ele>
        <time>2015-11-01T10:25:40.000Z</time>
      </trkpt>
      <trkpt lat="47.59485" lon="6.76493">
        <ele>503</ele>
        <time>2015-11-01T10:25:41.000Z</time>
      </trkpt>
      <trkpt lat="47.59486" lon="6.765">
        <ele>502</ele>
        <time>2015-11-01T10:25:42.000Z</time>
      </trkpt>
      <trkpt lat="47.59486" lon="6.76508">
        <ele>501</ele>
        <time>2015-11-01T10:25:43.000Z</time>
      </trkpt>
      <trkpt lat="47.59485" lon="6.76516">
        <ele>500</ele>
        <time>2015-11-01T10:25:44.000Z</time>
      </trkpt>
      <trkpt lat="47.59484" lon="6.76524">
        <ele>500</ele>
        <time>2015-11-01T10:25:45.000Z</time>
      </trkpt>
      <trkpt lat="47.59486" lon="6.76529">
        <ele>499</ele>
        <time>2015-11-01T10:25:46.000Z</time>
      </trkpt>
      <trkpt lat="47.59489" lon="6.76537">
        <ele>499</ele>
        <time>2015-11-01T10:25:47.000Z</time>
      </trkpt>
      <trkpt lat="47.59491" lon="6.76544">
        <ele>499</ele>
        <time>2015-11-01T10:25:48.000Z</time>
      </trkpt>
      <trkpt lat="47.59491" lon="6.7655">
        <ele>499</ele>
        <time>2015-11-01T10:25:49.000Z</time>
      </trkpt>
      <trkpt lat="47.59491" lon="6.76557">
        <ele>499</ele>
        <time>2015-11-01T10:25:50.000Z</time>
      </trkpt>
      <trkpt lat="47.59492" lon="6.76564">
        <ele>499</ele>
        <time>2015-11-01T10:25:51.000Z</time>
      </trkpt>
      <trkpt lat="47.59492" lon="6.76573">
        <ele>499</ele>
        <time>2015-11-01T10:25:52.000Z</time>
      </trkpt>
      <trkpt lat="47.59493" lon="6.76581">
        <ele>500</ele>
        <time>2015-11-01T10:25:53.000Z</time>
      </trkpt>
      <trkpt lat="47.59494" lon="6.76589">
        <ele>498</ele>
        <time>2015-11-01T10:25:54.000Z</time>
      </trkpt>
      <trkpt lat="47.59495" lon="6.76598">
        <ele>497</ele>
        <time>2015-11-01T10:25:55.000Z</time>
      </trkpt>
      <trkpt lat="47.59496" lon="6.76606">
        <ele>496</ele>
        <time>2015-11-01T10:25:56.000Z</time>
      </trkpt>
      <trkpt lat="47.59496" lon="6.76615">
        <ele>495</ele>
        <time>2015-11-01T10:25:57.000Z</time>
      </trkpt>
      <trkpt lat="47.59496" lon="6.76624">
        <ele>494</ele>
        <time>2015-11-01T10:25:58.000Z</time>
      </trkpt>
      <trkpt lat="47.59497" lon="6.76633">
        <ele>494</ele>
        <time>2015-11-01T10:25:59.000Z</time>
      </trkpt>
      <trkpt lat="47.59497" lon="6.76641">
        <ele>494</ele>
        <time>2015-11-01T10:26:00.000Z</time>
      </trkpt>
      <trkpt lat="47.59498" lon="6.7665">
        <ele>494</ele>
        <time>2015-11-01T10:26:01.000Z</time>
      </trkpt>
      <trkpt lat="47.59499" lon="6.76658">
        <ele>495</ele>
        <time>2015-11-01T10:26:02.000Z</time>
      </trkpt>
      <trkpt lat="47.59501" lon="6.76666">
        <ele>496</ele>
        <time>2015-11-01T10:26:03.000Z</time>
      </trkpt>
      <trkpt lat="47.59501" lon="6.76672">
        <ele>497</ele>
        <time>2015-11-01T10:26:04.000Z</time>
      </trkpt>
      <trkpt lat="47.59501" lon="6.7668">
        <ele>497</ele>
        <time>2015-11-01T10:26:05.000Z</time>
      </trkpt>
      <trkpt lat="47.59501" lon="6.76686">
        <ele>497</ele>
        <time>2015-11-01T10:26:06.000Z</time>
      </trkpt>
      <trkpt lat="47.59502" lon="6.76691">
        <ele>497</ele>
        <time>2015-11-01T10:26:07.000Z</time>
      </trkpt>
      <trkpt lat="47.595" lon="6.76696">
        <ele>490</ele>
        <time>2015-11-01T10:26:21.000Z</time>
      </trkpt>
      <trkpt lat="47.59496" lon="6.76697">
        <ele>490</ele>
        <time>2015-11-01T10:26:22.000Z</time>
      </trkpt>
      <trkpt lat="47.59492" lon="6.76696">
        <ele>489</ele>
        <time>2015-11-01T10:26:23.000Z</time>
      </trkpt>
      <trkpt lat="47.59487" lon="6.76696">
        <ele>489</ele>
        <time>2015-11-01T10:26:24.000Z</time>
      </trkpt>
      <trkpt lat="47.5948" lon="6.76696">
        <ele>488</ele>
        <time>2015-11-01T10:26:25.000Z</time>
      </trkpt>
      <trkpt lat="47.59471" lon="6.76693">
        <ele>488</ele>
        <time>2015-11-01T10:26:26.000Z</time>
      </trkpt>
      <trkpt lat="47.59463" lon="6.76695">
        <ele>487</ele>
        <time>2015-11-01T10:26:27.000Z</time>
      </trkpt>
      <trkpt lat="47.59453" lon="6.76696">
        <ele>486</ele>
        <time>2015-11-01T10:26:28.000Z</time>
      </trkpt>
      <trkpt lat="47.59445" lon="6.76697">
        <ele>485</ele>
        <time>2015-11-01T10:26:29.000Z</time>
      </trkpt>
      <trkpt lat="47.59436" lon="6.76701">
        <ele>484</ele>
        <time>2015-11-01T10:26:30.000Z</time>
      </trkpt>
      <trkpt lat="47.59423" lon="6.76699">
        <ele>484</ele>
        <time>2015-11-01T10:26:31.000Z</time>
      </trkpt>
      <trkpt lat="47.59414" lon="6.767">
        <ele>475</ele>
        <time>2015-11-01T10:26:32.000Z</time>
      </trkpt>
      <trkpt lat="47.59406" lon="6.767">
        <ele>475</ele>
        <time>2015-11-01T10:26:33.000Z</time>
      </trkpt>
      <trkpt lat="47.59403" lon="6.76702">
        <ele>475</ele>
        <time>2015-11-01T10:26:42.000Z</time>
      </trkpt>
      <trkpt lat="47.59399" lon="6.76702">
        <ele>474</ele>
        <time>2015-11-01T10:26:43.000Z</time>
      </trkpt>
      <trkpt lat="47.59396" lon="6.76701">
        <ele>474</ele>
        <time>2015-11-01T10:26:44.000Z</time>
      </trkpt>
      <trkpt lat="47.59394" lon="6.76702">
        <ele>474</ele>
        <time>2015-11-01T10:26:45.000Z</time>
      </trkpt>
      <trkpt lat="47.5939" lon="6.76702">
        <ele>474</ele>
        <time>2015-11-01T10:26:46.000Z</time>
      </trkpt>
      <trkpt lat="47.59386" lon="6.76702">
        <ele>474</ele>
        <time>2015-11-01T10:26:47.000Z</time>
      </trkpt>
      <trkpt lat="47.59382" lon="6.76702">
        <ele>473</ele>
        <time>2015-11-01T10:26:48.000Z</time>
      </trkpt>
      <trkpt lat="47.59372" lon="6.76702">
        <ele>472</ele>
        <time>2015-11-01T10:26:49.000Z</time>
      </trkpt>
      <trkpt lat="47.59365" lon="6.76703">
        <ele>472</ele>
        <time>2015-11-01T10:26:50.000Z</time>
      </trkpt>
      <trkpt lat="47.59355" lon="6.76702">
        <ele>471</ele>
        <time>2015-11-01T10:26:51.000Z</time>
      </trkpt>
      <trkpt lat="47.59347" lon="6.76702">
        <ele>471</ele>
        <time>2015-11-01T10:26:52.000Z</time>
      </trkpt>
      <trkpt lat="47.59338" lon="6.76702">
        <ele>471</ele>
        <time>2015-11-01T10:26:53.000Z</time>
      </trkpt>
      <trkpt lat="47.59329" lon="6.76701">
        <ele>463</ele>
        <time>2015-11-01T10:26:54.000Z</time>
      </trkpt>
      <trkpt lat="47.5932" lon="6.76701">
        <ele>463</ele>
        <time>2015-11-01T10:26:55.000Z</time>
      </trkpt>
      <trkpt lat="47.59311" lon="6.76703">
        <ele>462</ele>
        <time>2015-11-01T10:26:56.000Z</time>
      </trkpt>
      <trkpt lat="47.593" lon="6.76703">
        <ele>461</ele>
        <time>2015-11-01T10:26:57.000Z</time>
      </trkpt>
      <trkpt lat="47.59292" lon="6.76703">
        <ele>461</ele>
        <time>2015-11-01T10:26:58.000Z</time>
      </trkpt>
      <trkpt lat="47.59284" lon="6.76702">
        <ele>460</ele>
        <time>2015-11-01T10:26:59.000Z</time>
      </trkpt>
      <trkpt lat="47.59276" lon="6.76702">
        <ele>460</ele>
        <time>2015-11-01T10:27:00.000Z</time>
      </trkpt>
      <trkpt lat="47.59267" lon="6.76703">
        <ele>459</ele>
        <time>2015-11-01T10:27:01.000Z</time>
      </trkpt>
      <trkpt lat="47.59262" lon="6.76704">
        <ele>459</ele>
        <time>2015-11-01T10:27:02.000Z</time>
      </trkpt>
      <trkpt lat="47.59256" lon="6.76704">
        <ele>459</ele>
        <time>2015-11-01T10:27:03.000Z</time>
      </trkpt>
      <trkpt lat="47.59248" lon="6.76705">
        <ele>451</ele>
        <time>2015-11-01T10:27:04.000Z</time>
      </trkpt>
      <trkpt lat="47.59241" lon="6.76704">
        <ele>451</ele>
        <time>2015-11-01T10:27:05.000Z</time>
      </trkpt>
      <trkpt lat="47.59233" lon="6.76707">
        <ele>450</ele>
        <time>2015-11-01T10:27:06.000Z</time>
      </trkpt>
      <trkpt lat="47.59226" lon="6.76706">
        <ele>450</ele>
        <time>2015-11-01T10:27:07.000Z</time>
      </trkpt>
      <trkpt lat="47.59215" lon="6.76707">
        <ele>449</ele>
        <time>2015-11-01T10:27:08.000Z</time>
      </trkpt>
      <trkpt lat="47.59206" lon="6.76708">
        <ele>448</ele>
        <time>2015-11-01T10:27:09.000Z</time>
      </trkpt>
      <trkpt lat="47.59196" lon="6.76708">
        <ele>447</ele>
        <time>2015-11-01T10:27:10.000Z</time>
      </trkpt>
      <trkpt lat="47.59186" lon="6.76709">
        <ele>447</ele>
        <time>2015-11-01T10:27:11.000Z</time>
      </trkpt>
      <trkpt lat="47.59178" lon="6.76709">
        <ele>446</ele>
        <time>2015-11-01T10:27:12.000Z</time>
      </trkpt>
      <trkpt lat="47.5917" lon="6.76709">
        <ele>446</ele>
        <time>2015-11-01T10:27:13.000Z</time>
      </trkpt>
      <trkpt lat="47.5916" lon="6.76709">
        <ele>437</ele>
        <time>2015-11-01T10:27:14.000Z</time>
      </trkpt>
      <trkpt lat="47.59155" lon="6.76708">
        <ele>437</ele>
        <time>2015-11-01T10:27:15.000Z</time>
      </trkpt>
      <trkpt lat="47.59149" lon="6.76706">
        <ele>437</ele>
        <time>2015-11-01T10:27:16.000Z</time>
      </trkpt>
      <trkpt lat="47.59144" lon="6.76706">
        <ele>437</ele>
        <time>2015-11-01T10:27:17.000Z</time>
      </trkpt>
      <trkpt lat="47.5914" lon="6.76707">
        <ele>436</ele>
        <time>2015-11-01T10:27:18.000Z</time>
      </trkpt>
      <trkpt lat="47.59135" lon="6.76706">
        <ele>436</ele>
        <time>2015-11-01T10:27:19.000Z</time>
      </trkpt>
      <trkpt lat="47.59132" lon="6.76707">
        <ele>436</ele>
        <time>2015-11-01T10:27:21.000Z</time>
      </trkpt>
      <trkpt lat="47.59132" lon="6.76713">
        <ele>436</ele>
        <time>2015-11-01T10:27:22.000Z</time>
      </trkpt>
      <trkpt lat="47.59133" lon="6.76718">
        <ele>436</ele>
        <time>2015-11-01T10:27:24.000Z</time>
      </trkpt>
      <trkpt lat="47.59134" lon="6.76721">
        <ele>436</ele>
        <time>2015-11-01T10:27:25.000Z</time>
      </trkpt>
      <trkpt lat="47.59135" lon="6.76728">
        <ele>436</ele>
        <time>2015-11-01T10:27:27.000Z</time>
      </trkpt>
      <trkpt lat="47.59135" lon="6.7673">
        <ele>436</ele>
        <time>2015-11-01T10:27:28.000Z</time>
      </trkpt>
      <trkpt lat="47.59136" lon="6.76736">
        <ele>436</ele>
        <time>2015-11-01T10:27:40.000Z</time>
      </trkpt>
      <trkpt lat="47.59136" lon="6.76736">
        <ele>436</ele>
        <time>2015-11-01T10:27:41.000Z</time>
      </trkpt>
      <trkpt lat="47.59137" lon="6.76741">
        <ele>436</ele>
        <time>2015-11-01T10:27:56.000Z</time>
      </trkpt>
      <trkpt lat="47.59137" lon="6.76745">
        <ele>436</ele>
        <time>2015-11-01T10:27:57.000Z</time>
      </trkpt>
      <trkpt lat="47.59137" lon="6.76748">
        <ele>436</ele>
        <time>2015-11-01T10:27:58.000Z</time>
      </trkpt>
      <trkpt lat="47.59138" lon="6.76752">
        <ele>435</ele>
        <time>2015-11-01T10:27:59.000Z</time>
      </trkpt>
      <trkpt lat="47.59138" lon="6.76757">
        <ele>435</ele>
        <time>2015-11-01T10:28:00.000Z</time>
      </trkpt>
      <trkpt lat="47.59139" lon="6.76762">
        <ele>435</ele>
        <time>2015-11-01T10:28:01.000Z</time>
      </trkpt>
      <trkpt lat="47.59139" lon="6.76767">
        <ele>435</ele>
        <time>2015-11-01T10:28:02.000Z</time>
      </trkpt>
      <trkpt lat="47.59139" lon="6.76772">
        <ele>435</ele>
        <time>2015-11-01T10:28:03.000Z</time>
      </trkpt>
      <trkpt lat="47.5914" lon="6.76778">
        <ele>435</ele>
        <time>2015-11-01T10:28:04.000Z</time>
      </trkpt>
      <trkpt lat="47.5914" lon="6.76783">
        <ele>435</ele>
        <time>2015-11-01T10:28:05.000Z</time>
      </trkpt>
      <trkpt lat="47.5914" lon="6.76788">
        <ele>434</ele>
        <time>2015-11-01T10:28:06.000Z</time>
      </trkpt>
      <trkpt lat="47.59145" lon="6.76803">
        <ele>435</ele>
        <time>2015-11-01T10:28:07.000Z</time>
      </trkpt>
      <trkpt lat="47.59146" lon="6.76808">
        <ele>435</ele>
        <time>2015-11-01T10:28:08.000Z</time>
      </trkpt>
      <trkpt lat="47.59145" lon="6.76814">
        <ele>435</ele>
        <time>2015-11-01T10:28:09.000Z</time>
      </trkpt>
      <trkpt lat="47.59145" lon="6.76821">
        <ele>435</ele>
        <time>2015-11-01T10:28:10.000Z</time>
      </trkpt>
      <trkpt lat="47.59146" lon="6.76831">
        <ele>435</ele>
        <time>2015-11-01T10:28:11.000Z</time>
      </trkpt>
      <trkpt lat="47.59145" lon="6.76839">
        <ele>434</ele>
        <time>2015-11-01T10:28:12.000Z</time>
      </trkpt>
      <trkpt lat="47.59146" lon="6.76846">
        <ele>433</ele>
        <time>2015-11-01T10:28:13.000Z</time>
      </trkpt>
      <trkpt lat="47.59146" lon="6.76852">
        <ele>433</ele>
        <time>2015-11-01T10:28:14.000Z</time>
      </trkpt>
      <trkpt lat="47.59146" lon="6.76861">
        <ele>433</ele>
        <time>2015-11-01T10:28:15.000Z</time>
      </trkpt>
      <trkpt lat="47.59145" lon="6.76869">
        <ele>432</ele>
        <time>2015-11-01T10:28:16.000Z</time>
      </trkpt>
      <trkpt lat="47.59146" lon="6.76876">
        <ele>432</ele>
        <time>2015-11-01T10:28:17.000Z</time>
      </trkpt>
      <trkpt lat="47.59145" lon="6.76884">
        <ele>432</ele>
        <time>2015-11-01T10:28:18.000Z</time>
      </trkpt>
      <trkpt lat="47.59147" lon="6.76894">
        <ele>432</ele>
        <time>2015-11-01T10:28:19.000Z</time>
      </trkpt>
      <trkpt lat="47.59148" lon="6.76903">
        <ele>432</ele>
        <time>2015-11-01T10:28:20.000Z</time>
      </trkpt>
      <trkpt lat="47.59149" lon="6.76909">
        <ele>433</ele>
        <time>2015-11-01T10:28:21.000Z</time>
      </trkpt>
      <trkpt lat="47.59149" lon="6.76916">
        <ele>433</ele>
        <time>2015-11-01T10:28:22.000Z</time>
      </trkpt>
      <trkpt lat="47.59151" lon="6.76924">
        <ele>431</ele>
        <time>2015-11-01T10:28:23.000Z</time>
      </trkpt>
      <trkpt lat="47.59152" lon="6.76932">
        <ele>431</ele>
        <time>2015-11-01T10:28:24.000Z</time>
      </trkpt>
      <trkpt lat="47.59153" lon="6.76938">
        <ele>430</ele>
        <time>2015-11-01T10:28:25.000Z</time>
      </trkpt>
      <trkpt lat="47.59154" lon="6.76943">
        <ele>430</ele>
        <time>2015-11-01T10:28:26.000Z</time>
      </trkpt>
      <trkpt lat="47.59155" lon="6.76949">
        <ele>430</ele>
        <time>2015-11-01T10:28:27.000Z</time>
      </trkpt>
      <trkpt lat="47.59153" lon="6.7696">
        <ele>429</ele>
        <time>2015-11-01T10:28:28.000Z</time>
      </trkpt>
      <trkpt lat="47.59154" lon="6.76967">
        <ele>429</ele>
        <time>2015-11-01T10:28:29.000Z</time>
      </trkpt>
      <trkpt lat="47.59155" lon="6.76972">
        <ele>429</ele>
        <time>2015-11-01T10:28:30.000Z</time>
      </trkpt>
      <trkpt lat="47.59156" lon="6.76978">
        <ele>430</ele>
        <time>2015-11-01T10:28:31.000Z</time>
      </trkpt>
      <trkpt lat="47.59158" lon="6.76986">
        <ele>430</ele>
        <time>2015-11-01T10:28:32.000Z</time>
      </trkpt>
      <trkpt lat="47.59159" lon="6.76995">
        <ele>431</ele>
        <time>2015-11-01T10:28:33.000Z</time>
      </trkpt>
      <trkpt lat="47.59162" lon="6.77004">
        <ele>430</ele>
        <time>2015-11-01T10:28:34.000Z</time>
      </trkpt>
      <trkpt lat="47.59163" lon="6.77011">
        <ele>429</ele>
        <time>2015-11-01T10:28:35.000Z</time>
      </trkpt>
      <trkpt lat="47.59163" lon="6.77018">
        <ele>428</ele>
        <time>2015-11-01T10:28:36.000Z</time>
      </trkpt>
      <trkpt lat="47.59164" lon="6.77024">
        <ele>427</ele>
        <time>2015-11-01T10:28:37.000Z</time>
      </trkpt>
      <trkpt lat="47.59165" lon="6.77031">
        <ele>427</ele>
        <time>2015-11-01T10:28:38.000Z</time>
      </trkpt>
      <trkpt lat="47.59165" lon="6.77037">
        <ele>426</ele>
        <time>2015-11-01T10:28:39.000Z</time>
      </trkpt>
      <trkpt lat="47.59166" lon="6.77043">
        <ele>426</ele>
        <time>2015-11-01T10:28:40.000Z</time>
      </trkpt>
      <trkpt lat="47.59166" lon="6.77048">
        <ele>426</ele>
        <time>2015-11-01T10:28:41.000Z</time>
      </trkpt>
      <trkpt lat="47.59171" lon="6.77053">
        <ele>432</ele>
        <time>2015-11-01T10:28:42.000Z</time>
      </trkpt>
      <trkpt lat="47.59173" lon="6.77058">
        <ele>432</ele>
        <time>2015-11-01T10:28:43.000Z</time>
      </trkpt>
      <trkpt lat="47.59174" lon="6.77062">
        <ele>431</ele>
        <time>2015-11-01T10:28:44.000Z</time>
      </trkpt>
      <trkpt lat="47.59176" lon="6.77065">
        <ele>431</ele>
        <time>2015-11-01T10:28:45.000Z</time>
      </trkpt>
      <trkpt lat="47.59174" lon="6.77069">
        <ele>431</ele>
        <time>2015-11-01T10:29:06.000Z</time>
      </trkpt>
      <trkpt lat="47.59172" lon="6.77072">
        <ele>430</ele>
        <time>2015-11-01T10:29:07.000Z</time>
      </trkpt>
      <trkpt lat="47.5917" lon="6.77074">
        <ele>430</ele>
        <time>2015-11-01T10:29:08.000Z</time>
      </trkpt>
      <trkpt lat="47.59167" lon="6.77077">
        <ele>429</ele>
        <time>2015-11-01T10:29:09.000Z</time>
      </trkpt>
      <trkpt lat="47.59165" lon="6.77081">
        <ele>427</ele>
        <time>2015-11-01T10:29:10.000Z</time>
      </trkpt>
      <trkpt lat="47.59169" lon="6.77097">
        <ele>428</ele>
        <time>2015-11-01T10:29:11.000Z</time>
      </trkpt>
      <trkpt lat="47.59168" lon="6.77104">
        <ele>428</ele>
        <time>2015-11-01T10:29:12.000Z</time>
      </trkpt>
      <trkpt lat="47.59167" lon="6.7711">
        <ele>428</ele>
        <time>2015-11-01T10:29:13.000Z</time>
      </trkpt>
      <trkpt lat="47.59167" lon="6.77116">
        <ele>428</ele>
        <time>2015-11-01T10:29:14.000Z</time>
      </trkpt>
      <trkpt lat="47.59163" lon="6.77119">
        <ele>422</ele>
        <time>2015-11-01T10:29:16.000Z</time>
      </trkpt>
      <trkpt lat="47.59161" lon="6.7712">
        <ele>422</ele>
        <time>2015-11-01T10:29:17.000Z</time>
      </trkpt>
      <trkpt lat="47.59157" lon="6.77122">
        <ele>422</ele>
        <time>2015-11-01T10:29:18.000Z</time>
      </trkpt>
      <trkpt lat="47.59154" lon="6.77123">
        <ele>422</ele>
        <time>2015-11-01T10:29:19.000Z</time>
      </trkpt>
      <trkpt lat="47.59151" lon="6.77124">
        <ele>421</ele>
        <time>2015-11-01T10:29:20.000Z</time>
      </trkpt>
      <trkpt lat="47.59147" lon="6.77125">
        <ele>421</ele>
        <time>2015-11-01T10:29:21.000Z</time>
      </trkpt>
      <trkpt lat="47.59143" lon="6.77126">
        <ele>421</ele>
        <time>2015-11-01T10:29:22.000Z</time>
      </trkpt>
      <trkpt lat="47.5914" lon="6.77127">
        <ele>421</ele>
        <time>2015-11-01T10:29:23.000Z</time>
      </trkpt>
      <trkpt lat="47.59136" lon="6.77128">
        <ele>420</ele>
        <time>2015-11-01T10:29:24.000Z</time>
      </trkpt>
      <trkpt lat="47.59132" lon="6.7713">
        <ele>420</ele>
        <time>2015-11-01T10:29:25.000Z</time>
      </trkpt>
      <trkpt lat="47.59128" lon="6.77133">
        <ele>420</ele>
        <time>2015-11-01T10:29:26.000Z</time>
      </trkpt>
      <trkpt lat="47.59117" lon="6.77144">
        <ele>419</ele>
        <time>2015-11-01T10:29:27.000Z</time>
      </trkpt>
      <trkpt lat="47.59112" lon="6.77149">
        <ele>418</ele>
        <time>2015-11-01T10:29:28.000Z</time>
      </trkpt>
      <trkpt lat="47.59107" lon="6.77154">
        <ele>418</ele>
        <time>2015-11-01T10:29:29.000Z</time>
      </trkpt>
      <trkpt lat="47.59103" lon="6.77154">
        <ele>417</ele>
        <time>2015-11-01T10:29:30.000Z</time>
      </trkpt>
      <trkpt lat="47.59101" lon="6.77158">
        <ele>417</ele>
        <time>2015-11-01T10:29:31.000Z</time>
      </trkpt>
      <trkpt lat="47.59099" lon="6.77162">
        <ele>416</ele>
        <time>2015-11-01T10:29:32.000Z</time>
      </trkpt>
      <trkpt lat="47.59103" lon="6.77169">
        <ele>415</ele>
        <time>2015-11-01T10:29:33.000Z</time>
      </trkpt>
      <trkpt lat="47.59101" lon="6.77173">
        <ele>415</ele>
        <time>2015-11-01T10:29:34.000Z</time>
      </trkpt>
      <trkpt lat="47.59101" lon="6.77177">
        <ele>415</ele>
        <time>2015-11-01T10:29:35.000Z</time>
      </trkpt>
      <trkpt lat="47.59101" lon="6.77181">
        <ele>415</ele>
        <time>2015-11-01T10:29:36.000Z</time>
      </trkpt>
      <trkpt lat="47.59102" lon="6.77187">
        <ele>415</ele>
        <time>2015-11-01T10:29:37.000Z</time>
      </trkpt>
      <trkpt lat="47.59105" lon="6.77192">
        <ele>415</ele>
        <time>2015-11-01T10:29:38.000Z</time>
      </trkpt>
      <trkpt lat="47.59105" lon="6.77196">
        <ele>415</ele>
        <time>2015-11-01T10:29:39.000Z</time>
      </trkpt>
      <trkpt lat="47.59106" lon="6.77201">
        <ele>415</ele>
        <time>2015-11-01T10:29:40.000Z</time>
      </trkpt>
      <trkpt lat="47.59106" lon="6.77205">
        <ele>415</ele>
        <time>2015-11-01T10:29:41.000Z</time>
      </trkpt>
      <trkpt lat="47.59106" lon="6.77208">
        <ele>415</ele>
        <time>2015-11-01T10:29:42.000Z</time>
      </trkpt>
      <trkpt lat="47.59101" lon="6.77208">
        <ele>415</ele>
        <time>2015-11-01T10:30:03.000Z</time>
      </trkpt>
      <trkpt lat="47.59101" lon="6.77208">
        <ele>415</ele>
        <time>2015-11-01T10:30:04.000Z</time>
      </trkpt>
      <trkpt lat="47.59099" lon="6.77203">
        <ele>415</ele>
        <time>2015-11-01T10:30:29.000Z</time>
      </trkpt>
      <trkpt lat="47.59098" lon="6.77202">
        <ele>415</ele>
        <time>2015-11-01T10:30:30.000Z</time>
      </trkpt>
      <trkpt lat="47.59096" lon="6.772">
        <ele>415</ele>
        <time>2015-11-01T10:30:32.000Z</time>
      </trkpt>
      <trkpt lat="47.59094" lon="6.77199">
        <ele>414</ele>
        <time>2015-11-01T10:30:33.000Z</time>
      </trkpt>
      <trkpt lat="47.5909" lon="6.77195">
        <ele>414</ele>
        <time>2015-11-01T10:30:37.000Z</time>
      </trkpt>
      <trkpt lat="47.5909" lon="6.77194">
        <ele>414</ele>
        <time>2015-11-01T10:30:38.000Z</time>
      </trkpt>
      <trkpt lat="47.59088" lon="6.7719">
        <ele>414</ele>
        <time>2015-11-01T10:30:48.000Z</time>
      </trkpt>
      <trkpt lat="47.59088" lon="6.77188">
        <ele>414</ele>
        <time>2015-11-01T10:30:49.000Z</time>
      </trkpt>
      <trkpt lat="47.59086" lon="6.77185">
        <ele>414</ele>
        <time>2015-11-01T10:30:51.000Z</time>
      </trkpt>
      <trkpt lat="47.59086" lon="6.77182">
        <ele>414</ele>
        <time>2015-11-01T10:30:52.000Z</time>
      </trkpt>
      <trkpt lat="47.59086" lon="6.77176">
        <ele>414</ele>
        <time>2015-11-01T10:31:01.000Z</time>
      </trkpt>
      <trkpt lat="47.59087" lon="6.77174">
        <ele>414</ele>
        <time>2015-11-01T10:31:02.000Z</time>
      </trkpt>
      <trkpt lat="47.59087" lon="6.77168">
        <ele>413</ele>
        <time>2015-11-01T10:31:07.000Z</time>
      </trkpt>
      <trkpt lat="47.59086" lon="6.77167">
        <ele>413</ele>
        <time>2015-11-01T10:31:08.000Z</time>
      </trkpt>
      <trkpt lat="47.59082" lon="6.77163">
        <ele>412</ele>
        <time>2015-11-01T10:31:11.000Z</time>
      </trkpt>
      <trkpt lat="47.59081" lon="6.77162">
        <ele>412</ele>
        <time>2015-11-01T10:31:12.000Z</time>
      </trkpt>
      <trkpt lat="47.59079" lon="6.7716">
        <ele>412</ele>
        <time>2015-11-01T10:31:13.000Z</time>
      </trkpt>
      <trkpt lat="47.59077" lon="6.77158">
        <ele>411</ele>
        <time>2015-11-01T10:31:14.000Z</time>
      </trkpt>
      <trkpt lat="47.59074" lon="6.77156">
        <ele>411</ele>
        <time>2015-11-01T10:31:15.000Z</time>
      </trkpt>
      <trkpt lat="47.59072" lon="6.77154">
        <ele>410</ele>
        <time>2015-11-01T10:31:16.000Z</time>
      </trkpt>
      <trkpt lat="47.59069" lon="6.77151">
        <ele>410</ele>
        <time>2015-11-01T10:31:17.000Z</time>
      </trkpt>
      <trkpt lat="47.59067" lon="6.77148">
        <ele>410</ele>
        <time>2015-11-01T10:31:18.000Z</time>
      </trkpt>
      <trkpt lat="47.59064" lon="6.77144">
        <ele>409</ele>
        <time>2015-11-01T10:31:19.000Z</time>
      </trkpt>
      <trkpt lat="47.59062" lon="6.7714">
        <ele>409</ele>
        <time>2015-11-01T10:31:20.000Z</time>
      </trkpt>
      <trkpt lat="47.5906" lon="6.77137">
        <ele>409</ele>
        <time>2015-11-01T10:31:21.000Z</time>
      </trkpt>
      <trkpt lat="47.59058" lon="6.77135">
        <ele>409</ele>
        <time>2015-11-01T10:31:21.999Z</time>
      </trkpt>
      <trkpt lat="47.59055" lon="6.77133">
        <ele>409</ele>
        <time>2015-11-01T10:31:23.000Z</time>
      </trkpt>
      <trkpt lat="47.59053" lon="6.77131">
        <ele>409</ele>
        <time>2015-11-01T10:31:24.000Z</time>
      </trkpt>
      <trkpt lat="47.59051" lon="6.77129">
        <ele>408</ele>
        <time>2015-11-01T10:31:25.000Z</time>
      </trkpt>
      <trkpt lat="47.59049" lon="6.77126">
        <ele>408</ele>
        <time>2015-11-01T10:31:26.000Z</time>
      </trkpt>
      <trkpt lat="47.59047" lon="6.77123">
        <ele>408</ele>
        <time>2015-11-01T10:31:27.000Z</time>
      </trkpt>
      <trkpt lat="47.59045" lon="6.77119">
        <ele>408</ele>
        <time>2015-11-01T10:31:28.000Z</time>
      </trkpt>
      <trkpt lat="47.59043" lon="6.77115">
        <ele>408</ele>
        <time>2015-11-01T10:31:29.000Z</time>
      </trkpt>
      <trkpt lat="47.59041" lon="6.77112">
        <ele>408</ele>
        <time>2015-11-01T10:31:30.000Z</time>
      </trkpt>
      <trkpt lat="47.59039" lon="6.77108">
        <ele>408</ele>
        <time>2015-11-01T10:31:31.000Z</time>
      </trkpt>
      <trkpt lat="47.59037" lon="6.77105">
        <ele>408</ele>
        <time>2015-11-01T10:31:32.000Z</time>
      </trkpt>
      <trkpt lat="47.59035" lon="6.77103">
        <ele>407</ele>
        <time>2015-11-01T10:31:33.000Z</time>
      </trkpt>
      <trkpt lat="47.59033" lon="6.77101">
        <ele>407</ele>
        <time>2015-11-01T10:31:34.000Z</time>
      </trkpt>
      <trkpt lat="47.59031" lon="6.77099">
        <ele>407</ele>
        <time>2015-11-01T10:31:35.000Z</time>
      </trkpt>
      <trkpt lat="47.59028" lon="6.77098">
        <ele>407</ele>
        <time>2015-11-01T10:31:36.000Z</time>
      </trkpt>
      <trkpt lat="47.59025" lon="6.77095">
        <ele>406</ele>
        <time>2015-11-01T10:31:38.000Z</time>
      </trkpt>
      <trkpt lat="47.59023" lon="6.77093">
        <ele>406</ele>
        <time>2015-11-01T10:31:39.000Z</time>
      </trkpt>
      <trkpt lat="47.5902" lon="6.7709">
        <ele>406</ele>
        <time>2015-11-01T10:31:41.000Z</time>
      </trkpt>
      <trkpt lat="47.59019" lon="6.77088">
        <ele>406</ele>
        <time>2015-11-01T10:31:42.000Z</time>
      </trkpt>
      <trkpt lat="47.59016" lon="6.77084">
        <ele>405</ele>
        <time>2015-11-01T10:31:44.000Z</time>
      </trkpt>
      <trkpt lat="47.59015" lon="6.77082">
        <ele>407</ele>
        <time>2015-11-01T10:31:45.000Z</time>
      </trkpt>
      <trkpt lat="47.59011" lon="6.7708">
        <ele>406</ele>
        <time>2015-11-01T10:31:47.000Z</time>
      </trkpt>
      <trkpt lat="47.59008" lon="6.77082">
        <ele>406</ele>
        <time>2015-11-01T10:31:48.000Z</time>
      </trkpt>
      <trkpt lat="47.59002" lon="6.77089">
        <ele>404</ele>
        <time>2015-11-01T10:31:49.000Z</time>
      </trkpt>
      <trkpt lat="47.58999" lon="6.77094">
        <ele>401</ele>
        <time>2015-11-01T10:31:50.000Z</time>
      </trkpt>
      <trkpt lat="47.58995" lon="6.77097">
        <ele>401</ele>
        <time>2015-11-01T10:31:51.000Z</time>
      </trkpt>
      <trkpt lat="47.5899" lon="6.77097">
        <ele>401</ele>
        <time>2015-11-01T10:31:52.000Z</time>
      </trkpt>
      <trkpt lat="47.58984" lon="6.77095">
        <ele>400</ele>
        <time>2015-11-01T10:31:53.000Z</time>
      </trkpt>
      <trkpt lat="47.58979" lon="6.77093">
        <ele>400</ele>
        <time>2015-11-01T10:31:53.999Z</time>
      </trkpt>
      <trkpt lat="47.58975" lon="6.77088">
        <ele>400</ele>
        <time>2015-11-01T10:31:55.000Z</time>
      </trkpt>
      <trkpt lat="47.5897" lon="6.77084">
        <ele>399</ele>
        <time>2015-11-01T10:31:55.999Z</time>
      </trkpt>
      <trkpt lat="47.58966" lon="6.77083">
        <ele>401</ele>
        <time>2015-11-01T10:31:57.000Z</time>
      </trkpt>
      <trkpt lat="47.58961" lon="6.77081">
        <ele>401</ele>
        <time>2015-11-01T10:31:57.999Z</time>
      </trkpt>
      <trkpt lat="47.58957" lon="6.7708">
        <ele>401</ele>
        <time>2015-11-01T10:31:59.001Z</time>
      </trkpt>
      <trkpt lat="47.58953" lon="6.7708">
        <ele>401</ele>
        <time>2015-11-01T10:32:00.000Z</time>
      </trkpt>
      <trkpt lat="47.58951" lon="6.77075">
        <ele>401</ele>
        <time>2015-11-01T10:32:02.000Z</time>
      </trkpt>
      <trkpt lat="47.58949" lon="6.77075">
        <ele>401</ele>
        <time>2015-11-01T10:32:03.000Z</time>
      </trkpt>
      <trkpt lat="47.58947" lon="6.77072">
        <ele>400</ele>
        <time>2015-11-01T10:32:04.000Z</time>
      </trkpt>
      <trkpt lat="47.58946" lon="6.77069">
        <ele>400</ele>
        <time>2015-11-01T10:32:05.000Z</time>
      </trkpt>
      <trkpt lat="47.58942" lon="6.77065">
        <ele>400</ele>
        <time>2015-11-01T10:32:07.000Z</time>
      </trkpt>
      <trkpt lat="47.58941" lon="6.77064">
        <ele>400</ele>
        <time>2015-11-01T10:32:08.000Z</time>
      </trkpt>
      <trkpt lat="47.58937" lon="6.77066">
        <ele>400</ele>
        <time>2015-11-01T10:32:11.000Z</time>
      </trkpt>
      <trkpt lat="47.58936" lon="6.77068">
        <ele>400</ele>
        <time>2015-11-01T10:32:12.000Z</time>
      </trkpt>
      <trkpt lat="47.58932" lon="6.77069">
        <ele>399</ele>
        <time>2015-11-01T10:32:16.000Z</time>
      </trkpt>
      <trkpt lat="47.58931" lon="6.77068">
        <ele>399</ele>
        <time>2015-11-01T10:32:17.000Z</time>
      </trkpt>
      <trkpt lat="47.58927" lon="6.77065">
        <ele>399</ele>
        <time>2015-11-01T10:32:19.000Z</time>
      </trkpt>
      <trkpt lat="47.58925" lon="6.77064">
        <ele>399</ele>
        <time>2015-11-01T10:32:20.000Z</time>
      </trkpt>
      <trkpt lat="47.58921" lon="6.77064">
        <ele>399</ele>
        <time>2015-11-01T10:32:22.000Z</time>
      </trkpt>
      <trkpt lat="47.58919" lon="6.77064">
        <ele>399</ele>
        <time>2015-11-01T10:32:23.000Z</time>
      </trkpt>
      <trkpt lat="47.58917" lon="6.77065">
        <ele>399</ele>
        <time>2015-11-01T10:32:24.000Z</time>
      </trkpt>
      <trkpt lat="47.58915" lon="6.77067">
        <ele>395</ele>
        <time>2015-11-01T10:32:25.000Z</time>
      </trkpt>
      <trkpt lat="47.58913" lon="6.77069">
        <ele>395</ele>
        <time>2015-11-01T10:32:26.000Z</time>
      </trkpt>
      <trkpt lat="47.58912" lon="6.77072">
        <ele>395</ele>
        <time>2015-11-01T10:32:27.000Z</time>
      </trkpt>
      <trkpt lat="47.5891" lon="6.77078">
        <ele>396</ele>
        <time>2015-11-01T10:32:29.000Z</time>
      </trkpt>
      <trkpt lat="47.5891" lon="6.77082">
        <ele>396</ele>
        <time>2015-11-01T10:32:30.000Z</time>
      </trkpt>
      <trkpt lat="47.58911" lon="6.77085">
        <ele>395</ele>
        <time>2015-11-01T10:32:31.000Z</time>
      </trkpt>
      <trkpt lat="47.58912" lon="6.77089">
        <ele>395</ele>
        <time>2015-11-01T10:32:32.000Z</time>
      </trkpt>
      <trkpt lat="47.58914" lon="6.77093">
        <ele>394</ele>
        <time>2015-11-01T10:32:33.000Z</time>
      </trkpt>
      <trkpt lat="47.58915" lon="6.77098">
        <ele>394</ele>
        <time>2015-11-01T10:32:34.000Z</time>
      </trkpt>
      <trkpt lat="47.58916" lon="6.77102">
        <ele>393</ele>
        <time>2015-11-01T10:32:35.000Z</time>
      </trkpt>
      <trkpt lat="47.58917" lon="6.77107">
        <ele>397</ele>
        <time>2015-11-01T10:32:36.000Z</time>
      </trkpt>
      <trkpt lat="47.58918" lon="6.77111">
        <ele>397</ele>
        <time>2015-11-01T10:32:37.000Z</time>
      </trkpt>
      <trkpt lat="47.58919" lon="6.77116">
        <ele>397</ele>
        <time>2015-11-01T10:32:38.000Z</time>
      </trkpt>
      <trkpt lat="47.5892" lon="6.77121">
        <ele>397</ele>
        <time>2015-11-01T10:32:39.000Z</time>
      </trkpt>
      <trkpt lat="47.5892" lon="6.77126">
        <ele>397</ele>
        <time>2015-11-01T10:32:40.000Z</time>
      </trkpt>
      <trkpt lat="47.5892" lon="6.7713">
        <ele>397</ele>
        <time>2015-11-01T10:32:41.000Z</time>
      </trkpt>
      <trkpt lat="47.58921" lon="6.77135">
        <ele>396</ele>
        <time>2015-11-01T10:32:42.000Z</time>
      </trkpt>
      <trkpt lat="47.58922" lon="6.7714">
        <ele>396</ele>
        <time>2015-11-01T10:32:43.000Z</time>
      </trkpt>
      <trkpt lat="47.58922" lon="6.77146">
        <ele>396</ele>
        <time>2015-11-01T10:32:44.000Z</time>
      </trkpt>
      <trkpt lat="47.58923" lon="6.77151">
        <ele>395</ele>
        <time>2015-11-01T10:32:45.000Z</time>
      </trkpt>
      <trkpt lat="47.58924" lon="6.77156">
        <ele>395</ele>
        <time>2015-11-01T10:32:46.000Z</time>
      </trkpt>
      <trkpt lat="47.58925" lon="6.77161">
        <ele>395</ele>
        <time>2015-11-01T10:32:47.000Z</time>
      </trkpt>
      <trkpt lat="47.58926" lon="6.77166">
        <ele>395</ele>
        <time>2015-11-01T10:32:48.000Z</time>
      </trkpt>
      <trkpt lat="47.58927" lon="6.77172">
        <ele>394</ele>
        <time>2015-11-01T10:32:49.000Z</time>
      </trkpt>
      <trkpt lat="47.58927" lon="6.77177">
        <ele>394</ele>
        <time>2015-11-01T10:32:50.000Z</time>
      </trkpt>
      <trkpt lat="47.58928" lon="6.77182">
        <ele>394</ele>
        <time>2015-11-01T10:32:51.000Z</time>
      </trkpt>
      <trkpt lat="47.58928" lon="6.77188">
        <ele>394</ele>
        <time>2015-11-01T10:32:52.000Z</time>
      </trkpt>
      <trkpt lat="47.58929" lon="6.77193">
        <ele>394</ele>
        <time>2015-11-01T10:32:53.000Z</time>
      </trkpt>
      <trkpt lat="47.5893" lon="6.77198">
        <ele>394</ele>
        <time>2015-11-01T10:32:54.000Z</time>
      </trkpt>
      <trkpt lat="47.58931" lon="6.77203">
        <ele>394</ele>
        <time>2015-11-01T10:32:55.000Z</time>
      </trkpt>
      <trkpt lat="47.58933" lon="6.77208">
        <ele>394</ele>
        <time>2015-11-01T10:32:56.000Z</time>
      </trkpt>
      <trkpt lat="47.58934" lon="6.77212">
        <ele>394</ele>
        <time>2015-11-01T10:32:57.000Z</time>
      </trkpt>
      <trkpt lat="47.58935" lon="6.77216">
        <ele>394</ele>
        <time>2015-11-01T10:32:58.000Z</time>
      </trkpt>
      <trkpt lat="47.58937" lon="6.7722">
        <ele>394</ele>
        <time>2015-11-01T10:32:59.000Z</time>
      </trkpt>
      <trkpt lat="47.5894" lon="6.77223">
        <ele>394</ele>
        <time>2015-11-01T10:33:00.000Z</time>
      </trkpt>
      <trkpt lat="47.58941" lon="6.77227">
        <ele>394</ele>
        <time>2015-11-01T10:33:01.000Z</time>
      </trkpt>
      <trkpt lat="47.58941" lon="6.77234">
        <ele>394</ele>
        <time>2015-11-01T10:33:02.000Z</time>
      </trkpt>
      <trkpt lat="47.58941" lon="6.77241">
        <ele>393</ele>
        <time>2015-11-01T10:33:03.000Z</time>
      </trkpt>
      <trkpt lat="47.58941" lon="6.77249">
        <ele>393</ele>
        <time>2015-11-01T10:33:04.000Z</time>
      </trkpt>
      <trkpt lat="47.58941" lon="6.77256">
        <ele>391</ele>
        <time>2015-11-01T10:33:05.000Z</time>
      </trkpt>
      <trkpt lat="47.58942" lon="6.77264">
        <ele>391</ele>
        <time>2015-11-01T10:33:06.000Z</time>
      </trkpt>
      <trkpt lat="47.58942" lon="6.77272">
        <ele>391</ele>
        <time>2015-11-01T10:33:07.000Z</time>
      </trkpt>
      <trkpt lat="47.58943" lon="6.77279">
        <ele>391</ele>
        <time>2015-11-01T10:33:08.000Z</time>
      </trkpt>
      <trkpt lat="47.58945" lon="6.77286">
        <ele>391</ele>
        <time>2015-11-01T10:33:09.000Z</time>
      </trkpt>
      <trkpt lat="47.58946" lon="6.77295">
        <ele>391</ele>
        <time>2015-11-01T10:33:10.000Z</time>
      </trkpt>
      <trkpt lat="47.58947" lon="6.77303">
        <ele>390</ele>
        <time>2015-11-01T10:33:11.000Z</time>
      </trkpt>
      <trkpt lat="47.58949" lon="6.77311">
        <ele>390</ele>
        <time>2015-11-01T10:33:12.000Z</time>
      </trkpt>
      <trkpt lat="47.58949" lon="6.77319">
        <ele>390</ele>
        <time>2015-11-01T10:33:13.000Z</time>
      </trkpt>
      <trkpt lat="47.58951" lon="6.77328">
        <ele>390</ele>
        <time>2015-11-01T10:33:14.000Z</time>
      </trkpt>
      <trkpt lat="47.58952" lon="6.77339">
        <ele>388</ele>
        <time>2015-11-01T10:33:15.000Z</time>
      </trkpt>
      <trkpt lat="47.58954" lon="6.77349">
        <ele>388</ele>
        <time>2015-11-01T10:33:16.000Z</time>
      </trkpt>
      <trkpt lat="47.58963" lon="6.77359">
        <ele>388</ele>
        <time>2015-11-01T10:33:17.000Z</time>
      </trkpt>
      <trkpt lat="47.58967" lon="6.77368">
        <ele>388</ele>
        <time>2015-11-01T10:33:18.000Z</time>
      </trkpt>
      <trkpt lat="47.58971" lon="6.77376">
        <ele>388</ele>
        <time>2015-11-01T10:33:19.000Z</time>
      </trkpt>
      <trkpt lat="47.58973" lon="6.77384">
        <ele>388</ele>
        <time>2015-11-01T10:33:20.000Z</time>
      </trkpt>
      <trkpt lat="47.58974" lon="6.77393">
        <ele>388</ele>
        <time>2015-11-01T10:33:21.000Z</time>
      </trkpt>
      <trkpt lat="47.58976" lon="6.77401">
        <ele>389</ele>
        <time>2015-11-01T10:33:22.000Z</time>
      </trkpt>
      <trkpt lat="47.58977" lon="6.77409">
        <ele>389</ele>
        <time>2015-11-01T10:33:23.000Z</time>
      </trkpt>
      <trkpt lat="47.58979" lon="6.77417">
        <ele>389</ele>
        <time>2015-11-01T10:33:24.000Z</time>
      </trkpt>
      <trkpt lat="47.58981" lon="6.77424">
        <ele>387</ele>
        <time>2015-11-01T10:33:25.000Z</time>
      </trkpt>
      <trkpt lat="47.58982" lon="6.77431">
        <ele>387</ele>
        <time>2015-11-01T10:33:26.000Z</time>
      </trkpt>
      <trkpt lat="47.58984" lon="6.77437">
        <ele>387</ele>
        <time>2015-11-01T10:33:27.000Z</time>
      </trkpt>
      <trkpt lat="47.58986" lon="6.77444">
        <ele>387</ele>
        <time>2015-11-01T10:33:28.000Z</time>
      </trkpt>
      <trkpt lat="47.58987" lon="6.77449">
        <ele>386</ele>
        <time>2015-11-01T10:33:29.000Z</time>
      </trkpt>
      <trkpt lat="47.58988" lon="6.77455">
        <ele>386</ele>
        <time>2015-11-01T10:33:30.001Z</time>
      </trkpt>
      <trkpt lat="47.58987" lon="6.77461">
        <ele>386</ele>
        <time>2015-11-01T10:33:31.000Z</time>
      </trkpt>
      <trkpt lat="47.58984" lon="6.77466">
        <ele>386</ele>
        <time>2015-11-01T10:33:43.000Z</time>
      </trkpt>
      <trkpt lat="47.58984" lon="6.77469">
        <ele>386</ele>
        <time>2015-11-01T10:33:44.000Z</time>
      </trkpt>
      <trkpt lat="47.58984" lon="6.77474">
        <ele>386</ele>
        <time>2015-11-01T10:33:46.000Z</time>
      </trkpt>
      <trkpt lat="47.58986" lon="6.77488">
        <ele>386</ele>
        <time>2015-11-01T10:33:47.000Z</time>
      </trkpt>
      <trkpt lat="47.58988" lon="6.77497">
        <ele>387</ele>
        <time>2015-11-01T10:33:48.000Z</time>
      </trkpt>
      <trkpt lat="47.58989" lon="6.77507">
        <ele>386</ele>
        <time>2015-11-01T10:33:49.000Z</time>
      </trkpt>
      <trkpt lat="47.5899" lon="6.77516">
        <ele>385</ele>
        <time>2015-11-01T10:33:50.000Z</time>
      </trkpt>
      <trkpt lat="47.58991" lon="6.77525">
        <ele>384</ele>
        <time>2015-11-01T10:33:51.000Z</time>
      </trkpt>
      <trkpt lat="47.58992" lon="6.77535">
        <ele>384</ele>
        <time>2015-11-01T10:33:52.000Z</time>
      </trkpt>
      <trkpt lat="47.58993" lon="6.77544">
        <ele>384</ele>
        <time>2015-11-01T10:33:53.000Z</time>
      </trkpt>
      <trkpt lat="47.58995" lon="6.77554">
        <ele>383</ele>
        <time>2015-11-01T10:33:54.000Z</time>
      </trkpt>
      <trkpt lat="47.58997" lon="6.77564">
        <ele>384</ele>
        <time>2015-11-01T10:33:55.000Z</time>
      </trkpt>
      <trkpt lat="47.58998" lon="6.77574">
        <ele>384</ele>
        <time>2015-11-01T10:33:56.000Z</time>
      </trkpt>
      <trkpt lat="47.58999" lon="6.77584">
        <ele>385</ele>
        <time>2015-11-01T10:33:57.000Z</time>
      </trkpt>
      <trkpt lat="47.59" lon="6.77595">
        <ele>383</ele>
        <time>2015-11-01T10:33:58.002Z</time>
      </trkpt>
      <trkpt lat="47.59002" lon="6.77606">
        <ele>382</ele>
        <time>2015-11-01T10:33:59.000Z</time>
      </trkpt>
      <trkpt lat="47.59005" lon="6.77616">
        <ele>381</ele>
        <time>2015-11-01T10:34:00.000Z</time>
      </trkpt>
      <trkpt lat="47.59006" lon="6.77625">
        <ele>381</ele>
        <time>2015-11-01T10:34:01.000Z</time>
      </trkpt>
      <trkpt lat="47.59008" lon="6.77635">
        <ele>380</ele>
        <time>2015-11-01T10:34:02.000Z</time>
      </trkpt>
      <trkpt lat="47.5901" lon="6.77645">
        <ele>379</ele>
        <time>2015-11-01T10:34:03.000Z</time>
      </trkpt>
      <trkpt lat="47.59011" lon="6.77656">
        <ele>379</ele>
        <time>2015-11-01T10:34:04.000Z</time>
      </trkpt>
      <trkpt lat="47.59012" lon="6.77667">
        <ele>377</ele>
        <time>2015-11-01T10:34:05.000Z</time>
      </trkpt>
      <trkpt lat="47.59013" lon="6.77677">
        <ele>376</ele>
        <time>2015-11-01T10:34:06.000Z</time>
      </trkpt>
      <trkpt lat="47.59014" lon="6.77687">
        <ele>376</ele>
        <time>2015-11-01T10:34:07.000Z</time>
      </trkpt>
      <trkpt lat="47.59014" lon="6.77697">
        <ele>376</ele>
        <time>2015-11-01T10:34:08.000Z</time>
      </trkpt>
      <trkpt lat="47.59015" lon="6.77707">
        <ele>375</ele>
        <time>2015-11-01T10:34:09.000Z</time>
      </trkpt>
      <trkpt lat="47.59016" lon="6.77717">
        <ele>375</ele>
        <time>2015-11-01T10:34:10.001Z</time>
      </trkpt>
      <trkpt lat="47.59018" lon="6.77726">
        <ele>375</ele>
        <time>2015-11-01T10:34:11.000Z</time>
      </trkpt>
      <trkpt lat="47.59019" lon="6.77736">
        <ele>375</ele>
        <time>2015-11-01T10:34:12.000Z</time>
      </trkpt>
      <trkpt lat="47.59021" lon="6.77747">
        <ele>375</ele>
        <time>2015-11-01T10:34:13.000Z</time>
      </trkpt>
      <trkpt lat="47.59022" lon="6.77756">
        <ele>373</ele>
        <time>2015-11-01T10:34:14.000Z</time>
      </trkpt>
      <trkpt lat="47.59024" lon="6.77765">
        <ele>373</ele>
        <time>2015-11-01T10:34:15.000Z</time>
      </trkpt>
      <trkpt lat="47.59025" lon="6.77773">
        <ele>373</ele>
        <time>2015-11-01T10:34:16.000Z</time>
      </trkpt>
      <trkpt lat="47.59027" lon="6.77781">
        <ele>372</ele>
        <time>2015-11-01T10:34:17.000Z</time>
      </trkpt>
      <trkpt lat="47.59028" lon="6.77789">
        <ele>372</ele>
        <time>2015-11-01T10:34:18.000Z</time>
      </trkpt>
      <trkpt lat="47.59031" lon="6.77796">
        <ele>372</ele>
        <time>2015-11-01T10:34:19.000Z</time>
      </trkpt>
      <trkpt lat="47.59032" lon="6.77805">
        <ele>372</ele>
        <time>2015-11-01T10:34:20.001Z</time>
      </trkpt>
      <trkpt lat="47.59034" lon="6.77813">
        <ele>372</ele>
        <time>2015-11-01T10:34:21.000Z</time>
      </trkpt>
      <trkpt lat="47.59035" lon="6.77822">
        <ele>372</ele>
        <time>2015-11-01T10:34:22.000Z</time>
      </trkpt>
      <trkpt lat="47.59038" lon="6.77829">
        <ele>372</ele>
        <time>2015-11-01T10:34:23.000Z</time>
      </trkpt>
      <trkpt lat="47.59039" lon="6.77837">
        <ele>369</ele>
        <time>2015-11-01T10:34:24.000Z</time>
      </trkpt>
      <trkpt lat="47.59041" lon="6.77844">
        <ele>369</ele>
        <time>2015-11-01T10:34:25.000Z</time>
      </trkpt>
      <trkpt lat="47.59042" lon="6.77852">
        <ele>369</ele>
        <time>2015-11-01T10:34:26.000Z</time>
      </trkpt>
      <trkpt lat="47.59042" lon="6.7786">
        <ele>369</ele>
        <time>2015-11-01T10:34:27.000Z</time>
      </trkpt>
      <trkpt lat="47.59045" lon="6.77869">
        <ele>369</ele>
        <time>2015-11-01T10:34:28.000Z</time>
      </trkpt>
      <trkpt lat="47.59046" lon="6.77878">
        <ele>368</ele>
        <time>2015-11-01T10:34:29.000Z</time>
      </trkpt>
      <trkpt lat="47.59047" lon="6.77886">
        <ele>368</ele>
        <time>2015-11-01T10:34:30.000Z</time>
      </trkpt>
      <trkpt lat="47.59049" lon="6.77894">
        <ele>368</ele>
        <time>2015-11-01T10:34:31.000Z</time>
      </trkpt>
      <trkpt lat="47.5905" lon="6.77902">
        <ele>368</ele>
        <time>2015-11-01T10:34:32.001Z</time>
      </trkpt>
      <trkpt lat="47.59052" lon="6.77909">
        <ele>367</ele>
        <time>2015-11-01T10:34:33.000Z</time>
      </trkpt>
      <trkpt lat="47.59055" lon="6.77918">
        <ele>366</ele>
        <time>2015-11-01T10:34:34.000Z</time>
      </trkpt>
      <trkpt lat="47.59056" lon="6.77926">
        <ele>366</ele>
        <time>2015-11-01T10:34:35.000Z</time>
      </trkpt>
      <trkpt lat="47.59057" lon="6.77935">
        <ele>366</ele>
        <time>2015-11-01T10:34:36.000Z</time>
      </trkpt>
      <trkpt lat="47.59061" lon="6.77944">
        <ele>366</ele>
        <time>2015-11-01T10:34:37.000Z</time>
      </trkpt>
      <trkpt lat="47.59063" lon="6.77954">
        <ele>366</ele>
        <time>2015-11-01T10:34:38.000Z</time>
      </trkpt>
      <trkpt lat="47.59066" lon="6.77963">
        <ele>365</ele>
        <time>2015-11-01T10:34:39.000Z</time>
      </trkpt>
      <trkpt lat="47.59068" lon="6.77972">
        <ele>365</ele>
        <time>2015-11-01T10:34:40.000Z</time>
      </trkpt>
      <trkpt lat="47.5907" lon="6.77981">
        <ele>365</ele>
        <time>2015-11-01T10:34:41.001Z</time>
      </trkpt>
      <trkpt lat="47.59071" lon="6.77991">
        <ele>364</ele>
        <time>2015-11-01T10:34:42.000Z</time>
      </trkpt>
      <trkpt lat="47.59073" lon="6.78001">
        <ele>363</ele>
        <time>2015-11-01T10:34:43.000Z</time>
      </trkpt>
      <trkpt lat="47.59074" lon="6.78009">
        <ele>363</ele>
        <time>2015-11-01T10:34:44.000Z</time>
      </trkpt>
      <trkpt lat="47.59076" lon="6.78017">
        <ele>364</ele>
        <time>2015-11-01T10:34:45.000Z</time>
      </trkpt>
      <trkpt lat="47.59078" lon="6.78024">
        <ele>364</ele>
        <time>2015-11-01T10:34:46.000Z</time>
      </trkpt>
      <trkpt lat="47.59079" lon="6.78031">
        <ele>364</ele>
        <time>2015-11-01T10:34:47.000Z</time>
      </trkpt>
      <trkpt lat="47.59081" lon="6.78036">
        <ele>364</ele>
        <time>2015-11-01T10:34:48.000Z</time>
      </trkpt>
      <trkpt lat="47.59082" lon="6.78041">
        <ele>364</ele>
        <time>2015-11-01T10:34:49.000Z</time>
      </trkpt>
      <trkpt lat="47.59083" lon="6.78046">
        <ele>364</ele>
        <time>2015-11-01T10:34:50.000Z</time>
      </trkpt>
      <trkpt lat="47.59085" lon="6.78051">
        <ele>365</ele>
        <time>2015-11-01T10:34:51.000Z</time>
      </trkpt>
      <trkpt lat="47.59086" lon="6.78056">
        <ele>365</ele>
        <time>2015-11-01T10:34:52.000Z</time>
      </trkpt>
      <trkpt lat="47.59087" lon="6.78059">
        <ele>364</ele>
        <time>2015-11-01T10:34:53.000Z</time>
      </trkpt>
      <trkpt lat="47.59089" lon="6.78062">
        <ele>364</ele>
        <time>2015-11-01T10:34:55.000Z</time>
      </trkpt>
      <trkpt lat="47.59091" lon="6.78062">
        <ele>364</ele>
        <time>2015-11-01T10:34:56.000Z</time>
      </trkpt>
      <trkpt lat="47.59093" lon="6.78063">
        <ele>365</ele>
        <time>2015-11-01T10:34:57.000Z</time>
      </trkpt>
      <trkpt lat="47.59096" lon="6.78062">
        <ele>365</ele>
        <time>2015-11-01T10:34:58.000Z</time>
      </trkpt>
      <trkpt lat="47.59099" lon="6.78061">
        <ele>365</ele>
        <time>2015-11-01T10:34:59.000Z</time>
      </trkpt>
      <trkpt lat="47.59103" lon="6.78059">
        <ele>365</ele>
        <time>2015-11-01T10:35:00.000Z</time>
      </trkpt>
      <trkpt lat="47.59106" lon="6.78058">
        <ele>365</ele>
        <time>2015-11-01T10:35:01.000Z</time>
      </trkpt>
      <trkpt lat="47.59111" lon="6.78058">
        <ele>365</ele>
        <time>2015-11-01T10:35:02.000Z</time>
      </trkpt>
      <trkpt lat="47.59115" lon="6.78058">
        <ele>365</ele>
        <time>2015-11-01T10:35:03.000Z</time>
      </trkpt>
      <trkpt lat="47.59119" lon="6.78059">
        <ele>366</ele>
        <time>2015-11-01T10:35:04.000Z</time>
      </trkpt>
      <trkpt lat="47.59123" lon="6.7806">
        <ele>366</ele>
        <time>2015-11-01T10:35:05.000Z</time>
      </trkpt>
      <trkpt lat="47.59126" lon="6.78062">
        <ele>366</ele>
        <time>2015-11-01T10:35:06.000Z</time>
      </trkpt>
      <trkpt lat="47.59129" lon="6.78065">
        <ele>366</ele>
        <time>2015-11-01T10:35:07.000Z</time>
      </trkpt>
      <trkpt lat="47.5913" lon="6.7807">
        <ele>366</ele>
        <time>2015-11-01T10:35:08.000Z</time>
      </trkpt>
      <trkpt lat="47.59131" lon="6.78075">
        <ele>366</ele>
        <time>2015-11-01T10:35:09.000Z</time>
      </trkpt>
      <trkpt lat="47.59132" lon="6.7808">
        <ele>366</ele>
        <time>2015-11-01T10:35:10.000Z</time>
      </trkpt>
      <trkpt lat="47.59132" lon="6.78086">
        <ele>367</ele>
        <time>2015-11-01T10:35:11.000Z</time>
      </trkpt>
      <trkpt lat="47.59132" lon="6.78091">
        <ele>367</ele>
        <time>2015-11-01T10:35:12.000Z</time>
      </trkpt>
      <trkpt lat="47.59132" lon="6.78095">
        <ele>367</ele>
        <time>2015-11-01T10:35:13.000Z</time>
      </trkpt>
      <trkpt lat="47.59132" lon="6.781">
        <ele>367</ele>
        <time>2015-11-01T10:35:14.000Z</time>
      </trkpt>
      <trkpt lat="47.59133" lon="6.78104">
        <ele>367</ele>
        <time>2015-11-01T10:35:15.000Z</time>
      </trkpt>
      <trkpt lat="47.59133" lon="6.78108">
        <ele>367</ele>
        <time>2015-11-01T10:35:16.000Z</time>
      </trkpt>
      <trkpt lat="47.59134" lon="6.78113">
        <ele>367</ele>
        <time>2015-11-01T10:35:17.000Z</time>
      </trkpt>
      <trkpt lat="47.59134" lon="6.78117">
        <ele>367</ele>
        <time>2015-11-01T10:35:18.000Z</time>
      </trkpt>
      <trkpt lat="47.59134" lon="6.78122">
        <ele>367</ele>
        <time>2015-11-01T10:35:19.000Z</time>
      </trkpt>
      <trkpt lat="47.59134" lon="6.78126">
        <ele>367</ele>
        <time>2015-11-01T10:35:20.000Z</time>
      </trkpt>
      <trkpt lat="47.59133" lon="6.78131">
        <ele>367</ele>
        <time>2015-11-01T10:35:21.000Z</time>
      </trkpt>
      <trkpt lat="47.59132" lon="6.78135">
        <ele>367</ele>
        <time>2015-11-01T10:35:22.000Z</time>
      </trkpt>
      <trkpt lat="47.59131" lon="6.78139">
        <ele>367</ele>
        <time>2015-11-01T10:35:23.000Z</time>
      </trkpt>
      <trkpt lat="47.59129" lon="6.78144">
        <ele>367</ele>
        <time>2015-11-01T10:35:24.000Z</time>
      </trkpt>
      <trkpt lat="47.59127" lon="6.78148">
        <ele>367</ele>
        <time>2015-11-01T10:35:25.000Z</time>
      </trkpt>
      <trkpt lat="47.59124" lon="6.78153">
        <ele>367</ele>
        <time>2015-11-01T10:35:26.000Z</time>
      </trkpt>
      <trkpt lat="47.59123" lon="6.78158">
        <ele>367</ele>
        <time>2015-11-01T10:35:27.000Z</time>
      </trkpt>
      <trkpt lat="47.59121" lon="6.78163">
        <ele>367</ele>
        <time>2015-11-01T10:35:28.000Z</time>
      </trkpt>
      <trkpt lat="47.5912" lon="6.78169">
        <ele>366</ele>
        <time>2015-11-01T10:35:29.000Z</time>
      </trkpt>
      <trkpt lat="47.59117" lon="6.78176">
        <ele>366</ele>
        <time>2015-11-01T10:35:30.000Z</time>
      </trkpt>
      <trkpt lat="47.59114" lon="6.78181">
        <ele>365</ele>
        <time>2015-11-01T10:35:31.000Z</time>
      </trkpt>
      <trkpt lat="47.5911" lon="6.78185">
        <ele>365</ele>
        <time>2015-11-01T10:35:32.000Z</time>
      </trkpt>
      <trkpt lat="47.59105" lon="6.7819">
        <ele>365</ele>
        <time>2015-11-01T10:35:33.000Z</time>
      </trkpt>
      <trkpt lat="47.59101" lon="6.78194">
        <ele>365</ele>
        <time>2015-11-01T10:35:34.000Z</time>
      </trkpt>
      <trkpt lat="47.59097" lon="6.78199">
        <ele>365</ele>
        <time>2015-11-01T10:35:35.000Z</time>
      </trkpt>
      <trkpt lat="47.59091" lon="6.78204">
        <ele>365</ele>
        <time>2015-11-01T10:35:36.000Z</time>
      </trkpt>
      <trkpt lat="47.59086" lon="6.78207">
        <ele>365</ele>
        <time>2015-11-01T10:35:37.000Z</time>
      </trkpt>
      <trkpt lat="47.59081" lon="6.78211">
        <ele>362</ele>
        <time>2015-11-01T10:35:38.000Z</time>
      </trkpt>
      <trkpt lat="47.59076" lon="6.78216">
        <ele>361</ele>
        <time>2015-11-01T10:35:39.000Z</time>
      </trkpt>
      <trkpt lat="47.59071" lon="6.7822">
        <ele>361</ele>
        <time>2015-11-01T10:35:40.000Z</time>
      </trkpt>
      <trkpt lat="47.59066" lon="6.78224">
        <ele>361</ele>
        <time>2015-11-01T10:35:41.000Z</time>
      </trkpt>
      <trkpt lat="47.59061" lon="6.78229">
        <ele>361</ele>
        <time>2015-11-01T10:35:42.000Z</time>
      </trkpt>
      <trkpt lat="47.59055" lon="6.78234">
        <ele>361</ele>
        <time>2015-11-01T10:35:43.000Z</time>
      </trkpt>
      <trkpt lat="47.5905" lon="6.78238">
        <ele>361</ele>
        <time>2015-11-01T10:35:44.000Z</time>
      </trkpt>
      <trkpt lat="47.59045" lon="6.78243">
        <ele>361</ele>
        <time>2015-11-01T10:35:45.000Z</time>
      </trkpt>
      <trkpt lat="47.5904" lon="6.78247">
        <ele>361</ele>
        <time>2015-11-01T10:35:46.000Z</time>
      </trkpt>
      <trkpt lat="47.59035" lon="6.78252">
        <ele>359</ele>
        <time>2015-11-01T10:35:47.000Z</time>
      </trkpt>
      <trkpt lat="47.59031" lon="6.78256">
        <ele>359</ele>
        <time>2015-11-01T10:35:48.000Z</time>
      </trkpt>
      <trkpt lat="47.59025" lon="6.7826">
        <ele>359</ele>
        <time>2015-11-01T10:35:49.000Z</time>
      </trkpt>
      <trkpt lat="47.5902" lon="6.78265">
        <ele>359</ele>
        <time>2015-11-01T10:35:50.000Z</time>
      </trkpt>
      <trkpt lat="47.59014" lon="6.78269">
        <ele>359</ele>
        <time>2015-11-01T10:35:51.000Z</time>
      </trkpt>
      <trkpt lat="47.59008" lon="6.78273">
        <ele>359</ele>
        <time>2015-11-01T10:35:52.000Z</time>
      </trkpt>
      <trkpt lat="47.59002" lon="6.78277">
        <ele>359</ele>
        <time>2015-11-01T10:35:53.000Z</time>
      </trkpt>
      <trkpt lat="47.58997" lon="6.78279">
        <ele>359</ele>
        <time>2015-11-01T10:35:54.000Z</time>
      </trkpt>
      <trkpt lat="47.58992" lon="6.78281">
        <ele>359</ele>
        <time>2015-11-01T10:35:55.000Z</time>
      </trkpt>
      <trkpt lat="47.58988" lon="6.78281">
        <ele>359</ele>
        <time>2015-11-01T10:35:56.000Z</time>
      </trkpt>
      <trkpt lat="47.58985" lon="6.78282">
        <ele>359</ele>
        <time>2015-11-01T10:35:57.000Z</time>
      </trkpt>
      <trkpt lat="47.58981" lon="6.78282">
        <ele>359</ele>
        <time>2015-11-01T10:35:58.000Z</time>
      </trkpt>
      <trkpt lat="47.58978" lon="6.78282">
        <ele>359</ele>
        <time>2015-11-01T10:35:59.000Z</time>
      </trkpt>
      <trkpt lat="47.58974" lon="6.78281">
        <ele>359</ele>
        <time>2015-11-01T10:36:00.000Z</time>
      </trkpt>
      <trkpt lat="47.58971" lon="6.78279">
        <ele>359</ele>
        <time>2015-11-01T10:36:01.000Z</time>
      </trkpt>
      <trkpt lat="47.58967" lon="6.78278">
        <ele>359</ele>
        <time>2015-11-01T10:36:01.998Z</time>
      </trkpt>
      <trkpt lat="47.58962" lon="6.78277">
        <ele>359</ele>
        <time>2015-11-01T10:36:03.000Z</time>
      </trkpt>
      <trkpt lat="47.58959" lon="6.78278">
        <ele>359</ele>
        <time>2015-11-01T10:36:04.000Z</time>
      </trkpt>
      <trkpt lat="47.58955" lon="6.78279">
        <ele>360</ele>
        <time>2015-11-01T10:36:05.000Z</time>
      </trkpt>
      <trkpt lat="47.58952" lon="6.78281">
        <ele>360</ele>
        <time>2015-11-01T10:36:06.000Z</time>
      </trkpt>
      <trkpt lat="47.58949" lon="6.78284">
        <ele>360</ele>
        <time>2015-11-01T10:36:07.000Z</time>
      </trkpt>
      <trkpt lat="47.58947" lon="6.78288">
        <ele>360</ele>
        <time>2015-11-01T10:36:08.000Z</time>
      </trkpt>
      <trkpt lat="47.58944" lon="6.78292">
        <ele>359</ele>
        <time>2015-11-01T10:36:09.000Z</time>
      </trkpt>
      <trkpt lat="47.58942" lon="6.78297">
        <ele>359</ele>
        <time>2015-11-01T10:36:10.000Z</time>
      </trkpt>
      <trkpt lat="47.58941" lon="6.78302">
        <ele>359</ele>
        <time>2015-11-01T10:36:11.000Z</time>
      </trkpt>
      <trkpt lat="47.5894" lon="6.78308">
        <ele>359</ele>
        <time>2015-11-01T10:36:12.000Z</time>
      </trkpt>
      <trkpt lat="47.58939" lon="6.78313">
        <ele>359</ele>
        <time>2015-11-01T10:36:13.000Z</time>
      </trkpt>
      <trkpt lat="47.58938" lon="6.78318">
        <ele>359</ele>
        <time>2015-11-01T10:36:14.000Z</time>
      </trkpt>
      <trkpt lat="47.58937" lon="6.78324">
        <ele>359</ele>
        <time>2015-11-01T10:36:15.000Z</time>
      </trkpt>
      <trkpt lat="47.58935" lon="6.7833">
        <ele>359</ele>
        <time>2015-11-01T10:36:16.000Z</time>
      </trkpt>
      <trkpt lat="47.5893" lon="6.78333">
        <ele>359</ele>
        <time>2015-11-01T10:36:17.000Z</time>
      </trkpt>
      <trkpt lat="47.58925" lon="6.78336">
        <ele>357</ele>
        <time>2015-11-01T10:36:18.000Z</time>
      </trkpt>
      <trkpt lat="47.58921" lon="6.78339">
        <ele>357</ele>
        <time>2015-11-01T10:36:19.000Z</time>
      </trkpt>
      <trkpt lat="47.58916" lon="6.78342">
        <ele>357</ele>
        <time>2015-11-01T10:36:20.000Z</time>
      </trkpt>
      <trkpt lat="47.58911" lon="6.78345">
        <ele>357</ele>
        <time>2015-11-01T10:36:21.000Z</time>
      </trkpt>
      <trkpt lat="47.58906" lon="6.78346">
        <ele>357</ele>
        <time>2015-11-01T10:36:22.000Z</time>
      </trkpt>
      <trkpt lat="47.58901" lon="6.78345">
        <ele>357</ele>
        <time>2015-11-01T10:36:23.000Z</time>
      </trkpt>
      <trkpt lat="47.58895" lon="6.78346">
        <ele>357</ele>
        <time>2015-11-01T10:36:24.000Z</time>
      </trkpt>
      <trkpt lat="47.5889" lon="6.78345">
        <ele>357</ele>
        <time>2015-11-01T10:36:25.000Z</time>
      </trkpt>
      <trkpt lat="47.58885" lon="6.78346">
        <ele>356</ele>
        <time>2015-11-01T10:36:26.000Z</time>
      </trkpt>
      <trkpt lat="47.58879" lon="6.78346">
        <ele>356</ele>
        <time>2015-11-01T10:36:27.000Z</time>
      </trkpt>
      <trkpt lat="47.58873" lon="6.78347">
        <ele>356</ele>
        <time>2015-11-01T10:36:28.000Z</time>
      </trkpt>
      <trkpt lat="47.58868" lon="6.78347">
        <ele>356</ele>
        <time>2015-11-01T10:36:29.000Z</time>
      </trkpt>
      <trkpt lat="47.58862" lon="6.78347">
        <ele>357</ele>
        <time>2015-11-01T10:36:30.000Z</time>
      </trkpt>
      <trkpt lat="47.58856" lon="6.78347">
        <ele>357</ele>
        <time>2015-11-01T10:36:31.000Z</time>
      </trkpt>
      <trkpt lat="47.5885" lon="6.78346">
        <ele>357</ele>
        <time>2015-11-01T10:36:32.000Z</time>
      </trkpt>
      <trkpt lat="47.58844" lon="6.78345">
        <ele>357</ele>
        <time>2015-11-01T10:36:33.000Z</time>
      </trkpt>
      <trkpt lat="47.58838" lon="6.78344">
        <ele>357</ele>
        <time>2015-11-01T10:36:34.000Z</time>
      </trkpt>
      <trkpt lat="47.58832" lon="6.78343">
        <ele>357</ele>
        <time>2015-11-01T10:36:35.000Z</time>
      </trkpt>
      <trkpt lat="47.58826" lon="6.78341">
        <ele>357</ele>
        <time>2015-11-01T10:36:36.000Z</time>
      </trkpt>
      <trkpt lat="47.58819" lon="6.7834">
        <ele>356</ele>
        <time>2015-11-01T10:36:37.000Z</time>
      </trkpt>
      <trkpt lat="47.58813" lon="6.7834">
        <ele>356</ele>
        <time>2015-11-01T10:36:38.000Z</time>
      </trkpt>
      <trkpt lat="47.58807" lon="6.78339">
        <ele>356</ele>
        <time>2015-11-01T10:36:39.000Z</time>
      </trkpt>
      <trkpt lat="47.58801" lon="6.78337">
        <ele>356</ele>
        <time>2015-11-01T10:36:40.000Z</time>
      </trkpt>
      <trkpt lat="47.58794" lon="6.78335">
        <ele>355</ele>
        <time>2015-11-01T10:36:41.000Z</time>
      </trkpt>
      <trkpt lat="47.58788" lon="6.78334">
        <ele>355</ele>
        <time>2015-11-01T10:36:42.000Z</time>
      </trkpt>
      <trkpt lat="47.58782" lon="6.78333">
        <ele>359</ele>
        <time>2015-11-01T10:36:43.000Z</time>
      </trkpt>
      <trkpt lat="47.58775" lon="6.78332">
        <ele>359</ele>
        <time>2015-11-01T10:36:44.000Z</time>
      </trkpt>
      <trkpt lat="47.58769" lon="6.7833">
        <ele>358</ele>
        <time>2015-11-01T10:36:45.000Z</time>
      </trkpt>
      <trkpt lat="47.58763" lon="6.78329">
        <ele>358</ele>
        <time>2015-11-01T10:36:46.000Z</time>
      </trkpt>
      <trkpt lat="47.58756" lon="6.78328">
        <ele>357</ele>
        <time>2015-11-01T10:36:47.000Z</time>
      </trkpt>
      <trkpt lat="47.58749" lon="6.78328">
        <ele>357</ele>
        <time>2015-11-01T10:36:48.000Z</time>
      </trkpt>
      <trkpt lat="47.58742" lon="6.78328">
        <ele>358</ele>
        <time>2015-11-01T10:36:49.000Z</time>
      </trkpt>
      <trkpt lat="47.58736" lon="6.78328">
        <ele>360</ele>
        <time>2015-11-01T10:36:50.000Z</time>
      </trkpt>
      <trkpt lat="47.5873" lon="6.78328">
        <ele>360</ele>
        <time>2015-11-01T10:36:51.000Z</time>
      </trkpt>
      <trkpt lat="47.58722" lon="6.78328">
        <ele>361</ele>
        <time>2015-11-01T10:36:52.000Z</time>
      </trkpt>
      <trkpt lat="47.58716" lon="6.78332">
        <ele>361</ele>
        <time>2015-11-01T10:36:53.000Z</time>
      </trkpt>
      <trkpt lat="47.5871" lon="6.78334">
        <ele>355</ele>
        <time>2015-11-01T10:36:54.000Z</time>
      </trkpt>
      <trkpt lat="47.58704" lon="6.78337">
        <ele>355</ele>
        <time>2015-11-01T10:36:55.000Z</time>
      </trkpt>
      <trkpt lat="47.58698" lon="6.78341">
        <ele>355</ele>
        <time>2015-11-01T10:36:56.000Z</time>
      </trkpt>
      <trkpt lat="47.58693" lon="6.78345">
        <ele>355</ele>
        <time>2015-11-01T10:36:57.000Z</time>
      </trkpt>
      <trkpt lat="47.58687" lon="6.78349">
        <ele>356</ele>
        <time>2015-11-01T10:36:58.000Z</time>
      </trkpt>
      <trkpt lat="47.58681" lon="6.78353">
        <ele>356</ele>
        <time>2015-11-01T10:36:59.000Z</time>
      </trkpt>
      <trkpt lat="47.58676" lon="6.78357">
        <ele>355</ele>
        <time>2015-11-01T10:37:00.000Z</time>
      </trkpt>
      <trkpt lat="47.58671" lon="6.7836">
        <ele>355</ele>
        <time>2015-11-01T10:37:01.000Z</time>
      </trkpt>
      <trkpt lat="47.58666" lon="6.78364">
        <ele>357</ele>
        <time>2015-11-01T10:37:02.000Z</time>
      </trkpt>
      <trkpt lat="47.58661" lon="6.78368">
        <ele>356</ele>
        <time>2015-11-01T10:37:03.000Z</time>
      </trkpt>
      <trkpt lat="47.58656" lon="6.78371">
        <ele>356</ele>
        <time>2015-11-01T10:37:04.000Z</time>
      </trkpt>
      <trkpt lat="47.58652" lon="6.78375">
        <ele>356</ele>
        <time>2015-11-01T10:37:05.000Z</time>
      </trkpt>
      <trkpt lat="47.58647" lon="6.78378">
        <ele>356</ele>
        <time>2015-11-01T10:37:06.000Z</time>
      </trkpt>
      <trkpt lat="47.58642" lon="6.78383">
        <ele>355</ele>
        <time>2015-11-01T10:37:07.000Z</time>
      </trkpt>
      <trkpt lat="47.58637" lon="6.78387">
        <ele>355</ele>
        <time>2015-11-01T10:37:08.000Z</time>
      </trkpt>
      <trkpt lat="47.58632" lon="6.78391">
        <ele>355</ele>
        <time>2015-11-01T10:37:09.000Z</time>
      </trkpt>
      <trkpt lat="47.58627" lon="6.78395">
        <ele>355</ele>
        <time>2015-11-01T10:37:10.000Z</time>
      </trkpt>
      <trkpt lat="47.58622" lon="6.784">
        <ele>355</ele>
        <time>2015-11-01T10:37:11.000Z</time>
      </trkpt>
      <trkpt lat="47.58617" lon="6.78406">
        <ele>355</ele>
        <time>2015-11-01T10:37:12.000Z</time>
      </trkpt>
      <trkpt lat="47.58612" lon="6.78411">
        <ele>356</ele>
        <time>2015-11-01T10:37:13.000Z</time>
      </trkpt>
      <trkpt lat="47.58607" lon="6.78416">
        <ele>356</ele>
        <time>2015-11-01T10:37:14.000Z</time>
      </trkpt>
      <trkpt lat="47.58601" lon="6.78422">
        <ele>351</ele>
        <time>2015-11-01T10:37:15.000Z</time>
      </trkpt>
      <trkpt lat="47.58596" lon="6.78428">
        <ele>352</ele>
        <time>2015-11-01T10:37:16.000Z</time>
      </trkpt>
      <trkpt lat="47.58591" lon="6.78434">
        <ele>351</ele>
        <time>2015-11-01T10:37:17.000Z</time>
      </trkpt>
      <trkpt lat="47.58585" lon="6.7844">
        <ele>351</ele>
        <time>2015-11-01T10:37:18.000Z</time>
      </trkpt>
      <trkpt lat="47.5858" lon="6.78447">
        <ele>350</ele>
        <time>2015-11-01T10:37:19.000Z</time>
      </trkpt>
      <trkpt lat="47.58575" lon="6.78453">
        <ele>350</ele>
        <time>2015-11-01T10:37:20.000Z</time>
      </trkpt>
      <trkpt lat="47.58569" lon="6.78459">
        <ele>349</ele>
        <time>2015-11-01T10:37:21.000Z</time>
      </trkpt>
      <trkpt lat="47.58564" lon="6.78464">
        <ele>349</ele>
        <time>2015-11-01T10:37:22.000Z</time>
      </trkpt>
      <trkpt lat="47.58559" lon="6.78469">
        <ele>348</ele>
        <time>2015-11-01T10:37:23.000Z</time>
      </trkpt>
      <trkpt lat="47.58554" lon="6.78474">
        <ele>348</ele>
        <time>2015-11-01T10:37:24.000Z</time>
      </trkpt>
      <trkpt lat="47.58549" lon="6.78479">
        <ele>348</ele>
        <time>2015-11-01T10:37:25.000Z</time>
      </trkpt>
      <trkpt lat="47.58544" lon="6.78484">
        <ele>347</ele>
        <time>2015-11-01T10:37:26.000Z</time>
      </trkpt>
      <trkpt lat="47.5854" lon="6.78488">
        <ele>347</ele>
        <time>2015-11-01T10:37:27.000Z</time>
      </trkpt>
      <trkpt lat="47.58536" lon="6.78493">
        <ele>347</ele>
        <time>2015-11-01T10:37:28.000Z</time>
      </trkpt>
      <trkpt lat="47.58531" lon="6.78498">
        <ele>347</ele>
        <time>2015-11-01T10:37:29.000Z</time>
      </trkpt>
      <trkpt lat="47.58526" lon="6.78502">
        <ele>344</ele>
        <time>2015-11-01T10:37:30.000Z</time>
      </trkpt>
      <trkpt lat="47.58521" lon="6.78505">
        <ele>344</ele>
        <time>2015-11-01T10:37:31.000Z</time>
      </trkpt>
      <trkpt lat="47.58517" lon="6.78507">
        <ele>344</ele>
        <time>2015-11-01T10:37:32.000Z</time>
      </trkpt>
      <trkpt lat="47.58511" lon="6.78508">
        <ele>344</ele>
        <time>2015-11-01T10:37:33.000Z</time>
      </trkpt>
      <trkpt lat="47.58507" lon="6.7851">
        <ele>344</ele>
        <time>2015-11-01T10:37:34.000Z</time>
      </trkpt>
      <trkpt lat="47.58503" lon="6.78512">
        <ele>344</ele>
        <time>2015-11-01T10:37:35.000Z</time>
      </trkpt>
      <trkpt lat="47.585" lon="6.78516">
        <ele>343</ele>
        <time>2015-11-01T10:37:36.000Z</time>
      </trkpt>
      <trkpt lat="47.58497" lon="6.78522">
        <ele>343</ele>
        <time>2015-11-01T10:37:37.000Z</time>
      </trkpt>
      <trkpt lat="47.58496" lon="6.78529">
        <ele>343</ele>
        <time>2015-11-01T10:37:38.000Z</time>
      </trkpt>
      <trkpt lat="47.58496" lon="6.78536">
        <ele>343</ele>
        <time>2015-11-01T10:37:39.000Z</time>
      </trkpt>
      <trkpt lat="47.58497" lon="6.78544">
        <ele>342</ele>
        <time>2015-11-01T10:37:40.000Z</time>
      </trkpt>
      <trkpt lat="47.58498" lon="6.78552">
        <ele>342</ele>
        <time>2015-11-01T10:37:41.000Z</time>
      </trkpt>
      <trkpt lat="47.585" lon="6.78561">
        <ele>342</ele>
        <time>2015-11-01T10:37:42.000Z</time>
      </trkpt>
      <trkpt lat="47.585" lon="6.78569">
        <ele>342</ele>
        <time>2015-11-01T10:37:43.000Z</time>
      </trkpt>
      <trkpt lat="47.585" lon="6.78577">
        <ele>342</ele>
        <time>2015-11-01T10:37:44.000Z</time>
      </trkpt>
      <trkpt lat="47.58501" lon="6.78585">
        <ele>342</ele>
        <time>2015-11-01T10:37:45.000Z</time>
      </trkpt>
      <trkpt lat="47.58502" lon="6.78592">
        <ele>343</ele>
        <time>2015-11-01T10:37:46.000Z</time>
      </trkpt>
      <trkpt lat="47.58503" lon="6.786">
        <ele>343</ele>
        <time>2015-11-01T10:37:47.000Z</time>
      </trkpt>
      <trkpt lat="47.58504" lon="6.78607">
        <ele>344</ele>
        <time>2015-11-01T10:37:48.000Z</time>
      </trkpt>
      <trkpt lat="47.58505" lon="6.78614">
        <ele>344</ele>
        <time>2015-11-01T10:37:49.000Z</time>
      </trkpt>
      <trkpt lat="47.58507" lon="6.78622">
        <ele>344</ele>
        <time>2015-11-01T10:37:50.000Z</time>
      </trkpt>
      <trkpt lat="47.58506" lon="6.78628">
        <ele>344</ele>
        <time>2015-11-01T10:37:51.000Z</time>
      </trkpt>
      <trkpt lat="47.58507" lon="6.78636">
        <ele>345</ele>
        <time>2015-11-01T10:37:52.000Z</time>
      </trkpt>
      <trkpt lat="47.58508" lon="6.78642">
        <ele>345</ele>
        <time>2015-11-01T10:37:53.000Z</time>
      </trkpt>
      <trkpt lat="47.5851" lon="6.78649">
        <ele>345</ele>
        <time>2015-11-01T10:37:54.000Z</time>
      </trkpt>
      <trkpt lat="47.58511" lon="6.78656">
        <ele>345</ele>
        <time>2015-11-01T10:37:55.000Z</time>
      </trkpt>
      <trkpt lat="47.58513" lon="6.78664">
        <ele>345</ele>
        <time>2015-11-01T10:37:56.000Z</time>
      </trkpt>
      <trkpt lat="47.58514" lon="6.7867">
        <ele>347</ele>
        <time>2015-11-01T10:37:57.000Z</time>
      </trkpt>
      <trkpt lat="47.58518" lon="6.78677">
        <ele>347</ele>
        <time>2015-11-01T10:37:58.000Z</time>
      </trkpt>
      <trkpt lat="47.5852" lon="6.78684">
        <ele>347</ele>
        <time>2015-11-01T10:37:59.000Z</time>
      </trkpt>
      <trkpt lat="47.58522" lon="6.78691">
        <ele>347</ele>
        <time>2015-11-01T10:38:00.000Z</time>
      </trkpt>
      <trkpt lat="47.58524" lon="6.78697">
        <ele>347</ele>
        <time>2015-11-01T10:38:01.000Z</time>
      </trkpt>
      <trkpt lat="47.58526" lon="6.78703">
        <ele>347</ele>
        <time>2015-11-01T10:38:02.000Z</time>
      </trkpt>
      <trkpt lat="47.58527" lon="6.78709">
        <ele>347</ele>
        <time>2015-11-01T10:38:03.000Z</time>
      </trkpt>
      <trkpt lat="47.58529" lon="6.78715">
        <ele>348</ele>
        <time>2015-11-01T10:38:04.000Z</time>
      </trkpt>
      <trkpt lat="47.5853" lon="6.78722">
        <ele>348</ele>
        <time>2015-11-01T10:38:05.000Z</time>
      </trkpt>
      <trkpt lat="47.58532" lon="6.78726">
        <ele>348</ele>
        <time>2015-11-01T10:38:06.000Z</time>
      </trkpt>
      <trkpt lat="47.58534" lon="6.78732">
        <ele>348</ele>
        <time>2015-11-01T10:38:07.000Z</time>
      </trkpt>
      <trkpt lat="47.58534" lon="6.78736">
        <ele>348</ele>
        <time>2015-11-01T10:38:08.000Z</time>
      </trkpt>
      <trkpt lat="47.58536" lon="6.78741">
        <ele>348</ele>
        <time>2015-11-01T10:38:09.000Z</time>
      </trkpt>
      <trkpt lat="47.58537" lon="6.78746">
        <ele>348</ele>
        <time>2015-11-01T10:38:10.000Z</time>
      </trkpt>
      <trkpt lat="47.58539" lon="6.7875">
        <ele>348</ele>
        <time>2015-11-01T10:38:11.000Z</time>
      </trkpt>
      <trkpt lat="47.5854" lon="6.78755">
        <ele>349</ele>
        <time>2015-11-01T10:38:12.000Z</time>
      </trkpt>
      <trkpt lat="47.58542" lon="6.78759">
        <ele>349</ele>
        <time>2015-11-01T10:38:13.000Z</time>
      </trkpt>
      <trkpt lat="47.58543" lon="6.78764">
        <ele>349</ele>
        <time>2015-11-01T10:38:14.000Z</time>
      </trkpt>
      <trkpt lat="47.58543" lon="6.78768">
        <ele>349</ele>
        <time>2015-11-01T10:38:15.000Z</time>
      </trkpt>
      <trkpt lat="47.58543" lon="6.78773">
        <ele>349</ele>
        <time>2015-11-01T10:38:16.000Z</time>
      </trkpt>
      <trkpt lat="47.58541" lon="6.78777">
        <ele>349</ele>
        <time>2015-11-01T10:38:17.000Z</time>
      </trkpt>
      <trkpt lat="47.58538" lon="6.78782">
        <ele>349</ele>
        <time>2015-11-01T10:38:18.000Z</time>
      </trkpt>
      <trkpt lat="47.58529" lon="6.78787">
        <ele>349</ele>
        <time>2015-11-01T10:38:19.000Z</time>
      </trkpt>
      <trkpt lat="47.58526" lon="6.78792">
        <ele>349</ele>
        <time>2015-11-01T10:38:20.000Z</time>
      </trkpt>
      <trkpt lat="47.58522" lon="6.78796">
        <ele>349</ele>
        <time>2015-11-01T10:38:21.000Z</time>
      </trkpt>
      <trkpt lat="47.58519" lon="6.788">
        <ele>349</ele>
        <time>2015-11-01T10:38:22.000Z</time>
      </trkpt>
      <trkpt lat="47.58516" lon="6.78804">
        <ele>349</ele>
        <time>2015-11-01T10:38:23.000Z</time>
      </trkpt>
      <trkpt lat="47.58514" lon="6.78808">
        <ele>349</ele>
        <time>2015-11-01T10:38:24.000Z</time>
      </trkpt>
      <trkpt lat="47.5851" lon="6.78812">
        <ele>349</ele>
        <time>2015-11-01T10:38:25.000Z</time>
      </trkpt>
      <trkpt lat="47.58505" lon="6.78815">
        <ele>349</ele>
        <time>2015-11-01T10:38:26.000Z</time>
      </trkpt>
      <trkpt lat="47.585" lon="6.7882">
        <ele>347</ele>
        <time>2015-11-01T10:38:27.000Z</time>
      </trkpt>
      <trkpt lat="47.58495" lon="6.78825">
        <ele>347</ele>
        <time>2015-11-01T10:38:28.000Z</time>
      </trkpt>
      <trkpt lat="47.5849" lon="6.78829">
        <ele>347</ele>
        <time>2015-11-01T10:38:29.000Z</time>
      </trkpt>
      <trkpt lat="47.58485" lon="6.78833">
        <ele>347</ele>
        <time>2015-11-01T10:38:30.000Z</time>
      </trkpt>
      <trkpt lat="47.58481" lon="6.78838">
        <ele>347</ele>
        <time>2015-11-01T10:38:31.000Z</time>
      </trkpt>
      <trkpt lat="47.58477" lon="6.78842">
        <ele>347</ele>
        <time>2015-11-01T10:38:32.000Z</time>
      </trkpt>
      <trkpt lat="47.58472" lon="6.78845">
        <ele>347</ele>
        <time>2015-11-01T10:38:33.000Z</time>
      </trkpt>
      <trkpt lat="47.58468" lon="6.78849">
        <ele>347</ele>
        <time>2015-11-01T10:38:34.000Z</time>
      </trkpt>
      <trkpt lat="47.58463" lon="6.78853">
        <ele>347</ele>
        <time>2015-11-01T10:38:35.000Z</time>
      </trkpt>
      <trkpt lat="47.58458" lon="6.78857">
        <ele>347</ele>
        <time>2015-11-01T10:38:36.000Z</time>
      </trkpt>
      <trkpt lat="47.58453" lon="6.78862">
        <ele>347</ele>
        <time>2015-11-01T10:38:37.000Z</time>
      </trkpt>
      <trkpt lat="47.58449" lon="6.78866">
        <ele>347</ele>
        <time>2015-11-01T10:38:38.000Z</time>
      </trkpt>
      <trkpt lat="47.58444" lon="6.7887">
        <ele>347</ele>
        <time>2015-11-01T10:38:39.000Z</time>
      </trkpt>
      <trkpt lat="47.5844" lon="6.78874">
        <ele>347</ele>
        <time>2015-11-01T10:38:40.000Z</time>
      </trkpt>
      <trkpt lat="47.58435" lon="6.78877">
        <ele>347</ele>
        <time>2015-11-01T10:38:41.000Z</time>
      </trkpt>
      <trkpt lat="47.58431" lon="6.78882">
        <ele>347</ele>
        <time>2015-11-01T10:38:42.000Z</time>
      </trkpt>
      <trkpt lat="47.58426" lon="6.78886">
        <ele>347</ele>
        <time>2015-11-01T10:38:43.000Z</time>
      </trkpt>
      <trkpt lat="47.58422" lon="6.7889">
        <ele>347</ele>
        <time>2015-11-01T10:38:44.000Z</time>
      </trkpt>
      <trkpt lat="47.58417" lon="6.78894">
        <ele>347</ele>
        <time>2015-11-01T10:38:45.000Z</time>
      </trkpt>
      <trkpt lat="47.58413" lon="6.78897">
        <ele>346</ele>
        <time>2015-11-01T10:38:46.000Z</time>
      </trkpt>
      <trkpt lat="47.58409" lon="6.78901">
        <ele>346</ele>
        <time>2015-11-01T10:38:47.000Z</time>
      </trkpt>
      <trkpt lat="47.58405" lon="6.78905">
        <ele>346</ele>
        <time>2015-11-01T10:38:48.000Z</time>
      </trkpt>
      <trkpt lat="47.584" lon="6.78909">
        <ele>346</ele>
        <time>2015-11-01T10:38:49.000Z</time>
      </trkpt>
      <trkpt lat="47.58396" lon="6.78912">
        <ele>346</ele>
        <time>2015-11-01T10:38:50.000Z</time>
      </trkpt>
      <trkpt lat="47.58392" lon="6.78915">
        <ele>346</ele>
        <time>2015-11-01T10:38:51.000Z</time>
      </trkpt>
      <trkpt lat="47.58388" lon="6.78918">
        <ele>347</ele>
        <time>2015-11-01T10:38:52.000Z</time>
      </trkpt>
      <trkpt lat="47.58383" lon="6.78922">
        <ele>347</ele>
        <time>2015-11-01T10:38:53.000Z</time>
      </trkpt>
      <trkpt lat="47.58379" lon="6.78927">
        <ele>347</ele>
        <time>2015-11-01T10:38:54.000Z</time>
      </trkpt>
      <trkpt lat="47.58374" lon="6.78931">
        <ele>347</ele>
        <time>2015-11-01T10:38:55.000Z</time>
      </trkpt>
      <trkpt lat="47.58369" lon="6.78935">
        <ele>346</ele>
        <time>2015-11-01T10:38:56.000Z</time>
      </trkpt>
      <trkpt lat="47.58364" lon="6.78936">
        <ele>346</ele>
        <time>2015-11-01T10:38:57.000Z</time>
      </trkpt>
      <trkpt lat="47.58358" lon="6.78937">
        <ele>346</ele>
        <time>2015-11-01T10:38:58.000Z</time>
      </trkpt>
      <trkpt lat="47.58352" lon="6.78935">
        <ele>346</ele>
        <time>2015-11-01T10:38:59.000Z</time>
      </trkpt>
      <trkpt lat="47.58346" lon="6.78934">
        <ele>346</ele>
        <time>2015-11-01T10:39:00.000Z</time>
      </trkpt>
      <trkpt lat="47.5834" lon="6.7893">
        <ele>346</ele>
        <time>2015-11-01T10:39:01.000Z</time>
      </trkpt>
      <trkpt lat="47.58335" lon="6.78925">
        <ele>346</ele>
        <time>2015-11-01T10:39:02.000Z</time>
      </trkpt>
      <trkpt lat="47.58329" lon="6.78922">
        <ele>345</ele>
        <time>2015-11-01T10:39:03.000Z</time>
      </trkpt>
      <trkpt lat="47.58324" lon="6.78919">
        <ele>346</ele>
        <time>2015-11-01T10:39:04.000Z</time>
      </trkpt>
      <trkpt lat="47.58319" lon="6.78916">
        <ele>345</ele>
        <time>2015-11-01T10:39:05.000Z</time>
      </trkpt>
      <trkpt lat="47.58314" lon="6.78915">
        <ele>345</ele>
        <time>2015-11-01T10:39:06.000Z</time>
      </trkpt>
      <trkpt lat="47.58308" lon="6.78913">
        <ele>346</ele>
        <time>2015-11-01T10:39:07.000Z</time>
      </trkpt>
      <trkpt lat="47.58302" lon="6.7891">
        <ele>346</ele>
        <time>2015-11-01T10:39:08.000Z</time>
      </trkpt>
      <trkpt lat="47.58297" lon="6.78911">
        <ele>346</ele>
        <time>2015-11-01T10:39:09.000Z</time>
      </trkpt>
      <trkpt lat="47.58291" lon="6.78913">
        <ele>346</ele>
        <time>2015-11-01T10:39:10.000Z</time>
      </trkpt>
      <trkpt lat="47.58286" lon="6.78916">
        <ele>346</ele>
        <time>2015-11-01T10:39:11.000Z</time>
      </trkpt>
      <trkpt lat="47.58282" lon="6.78919">
        <ele>347</ele>
        <time>2015-11-01T10:39:12.000Z</time>
      </trkpt>
      <trkpt lat="47.58277" lon="6.78923">
        <ele>347</ele>
        <time>2015-11-01T10:39:12.999Z</time>
      </trkpt>
      <trkpt lat="47.58273" lon="6.78926">
        <ele>347</ele>
        <time>2015-11-01T10:39:14.000Z</time>
      </trkpt>
      <trkpt lat="47.58269" lon="6.78931">
        <ele>347</ele>
        <time>2015-11-01T10:39:15.000Z</time>
      </trkpt>
      <trkpt lat="47.58265" lon="6.78935">
        <ele>347</ele>
        <time>2015-11-01T10:39:15.999Z</time>
      </trkpt>
      <trkpt lat="47.58262" lon="6.78938">
        <ele>347</ele>
        <time>2015-11-01T10:39:17.000Z</time>
      </trkpt>
      <trkpt lat="47.58258" lon="6.78942">
        <ele>347</ele>
        <time>2015-11-01T10:39:18.000Z</time>
      </trkpt>
      <trkpt lat="47.58254" lon="6.78946">
        <ele>347</ele>
        <time>2015-11-01T10:39:19.000Z</time>
      </trkpt>
      <trkpt lat="47.5825" lon="6.78949">
        <ele>349</ele>
        <time>2015-11-01T10:39:20.000Z</time>
      </trkpt>
      <trkpt lat="47.58247" lon="6.78953">
        <ele>349</ele>
        <time>2015-11-01T10:39:21.000Z</time>
      </trkpt>
      <trkpt lat="47.58243" lon="6.78958">
        <ele>349</ele>
        <time>2015-11-01T10:39:22.000Z</time>
      </trkpt>
      <trkpt lat="47.5824" lon="6.78962">
        <ele>350</ele>
        <time>2015-11-01T10:39:23.000Z</time>
      </trkpt>
      <trkpt lat="47.58236" lon="6.78965">
        <ele>350</ele>
        <time>2015-11-01T10:39:24.001Z</time>
      </trkpt>
      <trkpt lat="47.58232" lon="6.78968">
        <ele>350</ele>
        <time>2015-11-01T10:39:25.000Z</time>
      </trkpt>
      <trkpt lat="47.58228" lon="6.78971">
        <ele>350</ele>
        <time>2015-11-01T10:39:26.000Z</time>
      </trkpt>
      <trkpt lat="47.58225" lon="6.78974">
        <ele>350</ele>
        <time>2015-11-01T10:39:27.001Z</time>
      </trkpt>
      <trkpt lat="47.58222" lon="6.78977">
        <ele>350</ele>
        <time>2015-11-01T10:39:28.000Z</time>
      </trkpt>
      <trkpt lat="47.58219" lon="6.78981">
        <ele>350</ele>
        <time>2015-11-01T10:39:29.000Z</time>
      </trkpt>
      <trkpt lat="47.58215" lon="6.78984">
        <ele>350</ele>
        <time>2015-11-01T10:39:30.000Z</time>
      </trkpt>
      <trkpt lat="47.58212" lon="6.78986">
        <ele>350</ele>
        <time>2015-11-01T10:39:31.000Z</time>
      </trkpt>
      <trkpt lat="47.58209" lon="6.78989">
        <ele>350</ele>
        <time>2015-11-01T10:39:32.000Z</time>
      </trkpt>
      <trkpt lat="47.58205" lon="6.78991">
        <ele>350</ele>
        <time>2015-11-01T10:39:33.000Z</time>
      </trkpt>
      <trkpt lat="47.58202" lon="6.78993">
        <ele>350</ele>
        <time>2015-11-01T10:39:34.000Z</time>
      </trkpt>
      <trkpt lat="47.582" lon="6.78995">
        <ele>350</ele>
        <time>2015-11-01T10:39:35.000Z</time>
      </trkpt>
      <trkpt lat="47.58197" lon="6.78997">
        <ele>351</ele>
        <time>2015-11-01T10:39:36.000Z</time>
      </trkpt>
      <trkpt lat="47.58194" lon="6.78999">
        <ele>351</ele>
        <time>2015-11-01T10:39:36.999Z</time>
      </trkpt>
      <trkpt lat="47.58191" lon="6.79002">
        <ele>351</ele>
        <time>2015-11-01T10:39:38.001Z</time>
      </trkpt>
      <trkpt lat="47.58187" lon="6.79005">
        <ele>351</ele>
        <time>2015-11-01T10:39:39.000Z</time>
      </trkpt>
      <trkpt lat="47.58184" lon="6.79008">
        <ele>351</ele>
        <time>2015-11-01T10:39:40.000Z</time>
      </trkpt>
      <trkpt lat="47.58181" lon="6.7901">
        <ele>351</ele>
        <time>2015-11-01T10:39:41.000Z</time>
      </trkpt>
      <trkpt lat="47.58178" lon="6.79013">
        <ele>352</ele>
        <time>2015-11-01T10:39:42.001Z</time>
      </trkpt>
      <trkpt lat="47.58174" lon="6.79014">
        <ele>352</ele>
        <time>2015-11-01T10:39:43.001Z</time>
      </trkpt>
      <trkpt lat="47.5817" lon="6.79015">
        <ele>352</ele>
        <time>2015-11-01T10:39:44.000Z</time>
      </trkpt>
      <trkpt lat="47.58167" lon="6.79017">
        <ele>352</ele>
        <time>2015-11-01T10:39:45.000Z</time>
      </trkpt>
      <trkpt lat="47.58164" lon="6.79019">
        <ele>355</ele>
        <time>2015-11-01T10:39:46.000Z</time>
      </trkpt>
      <trkpt lat="47.58161" lon="6.7902">
        <ele>355</ele>
        <time>2015-11-01T10:39:47.000Z</time>
      </trkpt>
      <trkpt lat="47.58159" lon="6.79022">
        <ele>355</ele>
        <time>2015-11-01T10:39:48.000Z</time>
      </trkpt>
      <trkpt lat="47.58158" lon="6.79025">
        <ele>355</ele>
        <time>2015-11-01T10:39:49.000Z</time>
      </trkpt>
      <trkpt lat="47.58156" lon="6.79029">
        <ele>355</ele>
        <time>2015-11-01T10:39:50.000Z</time>
      </trkpt>
      <trkpt lat="47.58156" lon="6.79034">
        <ele>356</ele>
        <time>2015-11-01T10:39:51.000Z</time>
      </trkpt>
      <trkpt lat="47.58156" lon="6.79039">
        <ele>356</ele>
        <time>2015-11-01T10:39:52.000Z</time>
      </trkpt>
      <trkpt lat="47.58156" lon="6.79045">
        <ele>356</ele>
        <time>2015-11-01T10:39:53.000Z</time>
      </trkpt>
      <trkpt lat="47.58157" lon="6.7905">
        <ele>356</ele>
        <time>2015-11-01T10:39:54.000Z</time>
      </trkpt>
      <trkpt lat="47.58157" lon="6.79056">
        <ele>356</ele>
        <time>2015-11-01T10:39:55.000Z</time>
      </trkpt>
      <trkpt lat="47.58158" lon="6.79061">
        <ele>356</ele>
        <time>2015-11-01T10:39:56.000Z</time>
      </trkpt>
      <trkpt lat="47.58158" lon="6.79067">
        <ele>356</ele>
        <time>2015-11-01T10:39:57.000Z</time>
      </trkpt>
      <trkpt lat="47.58158" lon="6.79073">
        <ele>355</ele>
        <time>2015-11-01T10:39:58.000Z</time>
      </trkpt>
      <trkpt lat="47.58159" lon="6.79078">
        <ele>355</ele>
        <time>2015-11-01T10:39:59.000Z</time>
      </trkpt>
      <trkpt lat="47.58159" lon="6.79083">
        <ele>356</ele>
        <time>2015-11-01T10:40:00.000Z</time>
      </trkpt>
      <trkpt lat="47.58159" lon="6.79089">
        <ele>356</ele>
        <time>2015-11-01T10:40:01.000Z</time>
      </trkpt>
      <trkpt lat="47.58159" lon="6.79094">
        <ele>356</ele>
        <time>2015-11-01T10:40:02.000Z</time>
      </trkpt>
      <trkpt lat="47.58159" lon="6.79099">
        <ele>357</ele>
        <time>2015-11-01T10:40:03.000Z</time>
      </trkpt>
      <trkpt lat="47.58157" lon="6.79103">
        <ele>357</ele>
        <time>2015-11-01T10:40:04.000Z</time>
      </trkpt>
      <trkpt lat="47.58156" lon="6.79107">
        <ele>358</ele>
        <time>2015-11-01T10:40:05.000Z</time>
      </trkpt>
      <trkpt lat="47.58154" lon="6.79112">
        <ele>358</ele>
        <time>2015-11-01T10:40:05.999Z</time>
      </trkpt>
      <trkpt lat="47.58152" lon="6.79114">
        <ele>358</ele>
        <time>2015-11-01T10:40:07.000Z</time>
      </trkpt>
      <trkpt lat="47.5815" lon="6.79117">
        <ele>359</ele>
        <time>2015-11-01T10:40:08.000Z</time>
      </trkpt>
      <trkpt lat="47.58149" lon="6.7912">
        <ele>359</ele>
        <time>2015-11-01T10:40:09.000Z</time>
      </trkpt>
      <trkpt lat="47.58148" lon="6.79123">
        <ele>359</ele>
        <time>2015-11-01T10:40:10.000Z</time>
      </trkpt>
      <trkpt lat="47.58146" lon="6.79125">
        <ele>359</ele>
        <time>2015-11-01T10:40:11.000Z</time>
      </trkpt>
      <trkpt lat="47.58145" lon="6.79129">
        <ele>359</ele>
        <time>2015-11-01T10:40:12.000Z</time>
      </trkpt>
      <trkpt lat="47.58144" lon="6.79132">
        <ele>359</ele>
        <time>2015-11-01T10:40:13.000Z</time>
      </trkpt>
      <trkpt lat="47.58144" lon="6.79136">
        <ele>359</ele>
        <time>2015-11-01T10:40:14.000Z</time>
      </trkpt>
      <trkpt lat="47.58143" lon="6.7914">
        <ele>359</ele>
        <time>2015-11-01T10:40:15.000Z</time>
      </trkpt>
      <trkpt lat="47.58143" lon="6.79144">
        <ele>360</ele>
        <time>2015-11-01T10:40:16.000Z</time>
      </trkpt>
      <trkpt lat="47.58143" lon="6.79148">
        <ele>360</ele>
        <time>2015-11-01T10:40:17.000Z</time>
      </trkpt>
      <trkpt lat="47.58142" lon="6.79153">
        <ele>360</ele>
        <time>2015-11-01T10:40:18.000Z</time>
      </trkpt>
      <trkpt lat="47.58142" lon="6.79157">
        <ele>360</ele>
        <time>2015-11-01T10:40:19.000Z</time>
      </trkpt>
      <trkpt lat="47.58141" lon="6.79161">
        <ele>360</ele>
        <time>2015-11-01T10:40:20.000Z</time>
      </trkpt>
      <trkpt lat="47.58141" lon="6.79166">
        <ele>360</ele>
        <time>2015-11-01T10:40:21.000Z</time>
      </trkpt>
      <trkpt lat="47.58141" lon="6.7917">
        <ele>362</ele>
        <time>2015-11-01T10:40:22.000Z</time>
      </trkpt>
      <trkpt lat="47.5814" lon="6.79174">
        <ele>362</ele>
        <time>2015-11-01T10:40:23.000Z</time>
      </trkpt>
      <trkpt lat="47.5814" lon="6.79178">
        <ele>362</ele>
        <time>2015-11-01T10:40:24.000Z</time>
      </trkpt>
      <trkpt lat="47.5814" lon="6.79182">
        <ele>362</ele>
        <time>2015-11-01T10:40:25.000Z</time>
      </trkpt>
      <trkpt lat="47.5814" lon="6.79186">
        <ele>362</ele>
        <time>2015-11-01T10:40:26.000Z</time>
      </trkpt>
      <trkpt lat="47.5814" lon="6.79189">
        <ele>362</ele>
        <time>2015-11-01T10:40:27.000Z</time>
      </trkpt>
      <trkpt lat="47.58141" lon="6.79193">
        <ele>363</ele>
        <time>2015-11-01T10:40:28.000Z</time>
      </trkpt>
      <trkpt lat="47.58141" lon="6.79196">
        <ele>363</ele>
        <time>2015-11-01T10:40:29.000Z</time>
      </trkpt>
      <trkpt lat="47.58141" lon="6.792">
        <ele>363</ele>
        <time>2015-11-01T10:40:30.000Z</time>
      </trkpt>
      <trkpt lat="47.58141" lon="6.79203">
        <ele>363</ele>
        <time>2015-11-01T10:40:31.000Z</time>
      </trkpt>
      <trkpt lat="47.5814" lon="6.79207">
        <ele>363</ele>
        <time>2015-11-01T10:40:32.000Z</time>
      </trkpt>
      <trkpt lat="47.58139" lon="6.7921">
        <ele>363</ele>
        <time>2015-11-01T10:40:33.000Z</time>
      </trkpt>
      <trkpt lat="47.58137" lon="6.79212">
        <ele>363</ele>
        <time>2015-11-01T10:40:34.000Z</time>
      </trkpt>
      <trkpt lat="47.58135" lon="6.79214">
        <ele>363</ele>
        <time>2015-11-01T10:40:35.000Z</time>
      </trkpt>
      <trkpt lat="47.58133" lon="6.79214">
        <ele>364</ele>
        <time>2015-11-01T10:40:36.000Z</time>
      </trkpt>
      <trkpt lat="47.5813" lon="6.79214">
        <ele>364</ele>
        <time>2015-11-01T10:40:37.000Z</time>
      </trkpt>
      <trkpt lat="47.58128" lon="6.79213">
        <ele>364</ele>
        <time>2015-11-01T10:40:38.000Z</time>
      </trkpt>
      <trkpt lat="47.58125" lon="6.79212">
        <ele>364</ele>
        <time>2015-11-01T10:40:39.001Z</time>
      </trkpt>
      <trkpt lat="47.58123" lon="6.79212">
        <ele>364</ele>
        <time>2015-11-01T10:40:40.000Z</time>
      </trkpt>
      <trkpt lat="47.58121" lon="6.79211">
        <ele>364</ele>
        <time>2015-11-01T10:40:41.000Z</time>
      </trkpt>
      <trkpt lat="47.58118" lon="6.79209">
        <ele>364</ele>
        <time>2015-11-01T10:40:42.000Z</time>
      </trkpt>
      <trkpt lat="47.58116" lon="6.79207">
        <ele>364</ele>
        <time>2015-11-01T10:40:43.000Z</time>
      </trkpt>
      <trkpt lat="47.58113" lon="6.79205">
        <ele>364</ele>
        <time>2015-11-01T10:40:44.000Z</time>
      </trkpt>
      <trkpt lat="47.58111" lon="6.79204">
        <ele>364</ele>
        <time>2015-11-01T10:40:45.001Z</time>
      </trkpt>
      <trkpt lat="47.58107" lon="6.79203">
        <ele>364</ele>
        <time>2015-11-01T10:40:47.000Z</time>
      </trkpt>
      <trkpt lat="47.58106" lon="6.79202">
        <ele>364</ele>
        <time>2015-11-01T10:40:48.000Z</time>
      </trkpt>
      <trkpt lat="47.58102" lon="6.79201">
        <ele>365</ele>
        <time>2015-11-01T10:40:50.000Z</time>
      </trkpt>
      <trkpt lat="47.58101" lon="6.79201">
        <ele>365</ele>
        <time>2015-11-01T10:40:51.000Z</time>
      </trkpt>
      <trkpt lat="47.58097" lon="6.79199">
        <ele>365</ele>
        <time>2015-11-01T10:40:55.000Z</time>
      </trkpt>
      <trkpt lat="47.58096" lon="6.79197">
        <ele>365</ele>
        <time>2015-11-01T10:40:56.000Z</time>
      </trkpt>
      <trkpt lat="47.58095" lon="6.79193">
        <ele>365</ele>
        <time>2015-11-01T10:40:57.000Z</time>
      </trkpt>
      <trkpt lat="47.58094" lon="6.7919">
        <ele>365</ele>
        <time>2015-11-01T10:40:58.000Z</time>
      </trkpt>
      <trkpt lat="47.58092" lon="6.79186">
        <ele>365</ele>
        <time>2015-11-01T10:41:00.000Z</time>
      </trkpt>
      <trkpt lat="47.5809" lon="6.79184">
        <ele>365</ele>
        <time>2015-11-01T10:41:01.000Z</time>
      </trkpt>
      <trkpt lat="47.58086" lon="6.79183">
        <ele>365</ele>
        <time>2015-11-01T10:41:03.000Z</time>
      </trkpt>
      <trkpt lat="47.58084" lon="6.79182">
        <ele>365</ele>
        <time>2015-11-01T10:41:04.000Z</time>
      </trkpt>
      <trkpt lat="47.58081" lon="6.7918">
        <ele>370</ele>
        <time>2015-11-01T10:41:06.000Z</time>
      </trkpt>
      <trkpt lat="47.58079" lon="6.7918">
        <ele>370</ele>
        <time>2015-11-01T10:41:07.000Z</time>
      </trkpt>
      <trkpt lat="47.58075" lon="6.79178">
        <ele>370</ele>
        <time>2015-11-01T10:41:09.000Z</time>
      </trkpt>
      <trkpt lat="47.58074" lon="6.79178">
        <ele>370</ele>
        <time>2015-11-01T10:41:10.000Z</time>
      </trkpt>
      <trkpt lat="47.5807" lon="6.79177">
        <ele>371</ele>
        <time>2015-11-01T10:41:12.000Z</time>
      </trkpt>
      <trkpt lat="47.58068" lon="6.79176">
        <ele>371</ele>
        <time>2015-11-01T10:41:13.000Z</time>
      </trkpt>
      <trkpt lat="47.58065" lon="6.79174">
        <ele>371</ele>
        <time>2015-11-01T10:41:15.000Z</time>
      </trkpt>
      <trkpt lat="47.58064" lon="6.79173">
        <ele>371</ele>
        <time>2015-11-01T10:41:16.000Z</time>
      </trkpt>
      <trkpt lat="47.58061" lon="6.79171">
        <ele>372</ele>
        <time>2015-11-01T10:41:18.000Z</time>
      </trkpt>
      <trkpt lat="47.58059" lon="6.7917">
        <ele>372</ele>
        <time>2015-11-01T10:41:19.000Z</time>
      </trkpt>
      <trkpt lat="47.58056" lon="6.79166">
        <ele>371</ele>
        <time>2015-11-01T10:41:21.000Z</time>
      </trkpt>
      <trkpt lat="47.58054" lon="6.79164">
        <ele>371</ele>
        <time>2015-11-01T10:41:22.000Z</time>
      </trkpt>
      <trkpt lat="47.58052" lon="6.79159">
        <ele>371</ele>
        <time>2015-11-01T10:41:24.000Z</time>
      </trkpt>
      <trkpt lat="47.58051" lon="6.79157">
        <ele>371</ele>
        <time>2015-11-01T10:41:25.000Z</time>
      </trkpt>
      <trkpt lat="47.58048" lon="6.79153">
        <ele>372</ele>
        <time>2015-11-01T10:41:27.000Z</time>
      </trkpt>
      <trkpt lat="47.58047" lon="6.79151">
        <ele>372</ele>
        <time>2015-11-01T10:41:28.000Z</time>
      </trkpt>
      <trkpt lat="47.58044" lon="6.79147">
        <ele>372</ele>
        <time>2015-11-01T10:41:30.000Z</time>
      </trkpt>
      <trkpt lat="47.58043" lon="6.79144">
        <ele>372</ele>
        <time>2015-11-01T10:41:31.000Z</time>
      </trkpt>
      <trkpt lat="47.58042" lon="6.79141">
        <ele>372</ele>
        <time>2015-11-01T10:41:32.000Z</time>
      </trkpt>
      <trkpt lat="47.58041" lon="6.79138">
        <ele>372</ele>
        <time>2015-11-01T10:41:33.000Z</time>
      </trkpt>
      <trkpt lat="47.5804" lon="6.79134">
        <ele>372</ele>
        <time>2015-11-01T10:41:34.000Z</time>
      </trkpt>
      <trkpt lat="47.5804" lon="6.79131">
        <ele>372</ele>
        <time>2015-11-01T10:41:35.000Z</time>
      </trkpt>
      <trkpt lat="47.5804" lon="6.79127">
        <ele>372</ele>
        <time>2015-11-01T10:41:36.000Z</time>
      </trkpt>
      <trkpt lat="47.5804" lon="6.79123">
        <ele>372</ele>
        <time>2015-11-01T10:41:37.000Z</time>
      </trkpt>
      <trkpt lat="47.5804" lon="6.79119">
        <ele>372</ele>
        <time>2015-11-01T10:41:38.000Z</time>
      </trkpt>
      <trkpt lat="47.58039" lon="6.79115">
        <ele>372</ele>
        <time>2015-11-01T10:41:39.001Z</time>
      </trkpt>
      <trkpt lat="47.58039" lon="6.79109">
        <ele>372</ele>
        <time>2015-11-01T10:41:40.000Z</time>
      </trkpt>
      <trkpt lat="47.58038" lon="6.79105">
        <ele>373</ele>
        <time>2015-11-01T10:41:41.000Z</time>
      </trkpt>
      <trkpt lat="47.58037" lon="6.791">
        <ele>373</ele>
        <time>2015-11-01T10:41:42.000Z</time>
      </trkpt>
      <trkpt lat="47.58036" lon="6.79095">
        <ele>373</ele>
        <time>2015-11-01T10:41:43.000Z</time>
      </trkpt>
      <trkpt lat="47.58035" lon="6.79089">
        <ele>373</ele>
        <time>2015-11-01T10:41:44.000Z</time>
      </trkpt>
      <trkpt lat="47.58035" lon="6.79084">
        <ele>373</ele>
        <time>2015-11-01T10:41:45.000Z</time>
      </trkpt>
      <trkpt lat="47.58034" lon="6.79079">
        <ele>374</ele>
        <time>2015-11-01T10:41:46.001Z</time>
      </trkpt>
      <trkpt lat="47.58034" lon="6.79074">
        <ele>374</ele>
        <time>2015-11-01T10:41:47.000Z</time>
      </trkpt>
      <trkpt lat="47.58033" lon="6.79069">
        <ele>374</ele>
        <time>2015-11-01T10:41:48.000Z</time>
      </trkpt>
      <trkpt lat="47.58032" lon="6.79064">
        <ele>374</ele>
        <time>2015-11-01T10:41:49.000Z</time>
      </trkpt>
      <trkpt lat="47.58031" lon="6.79059">
        <ele>375</ele>
        <time>2015-11-01T10:41:50.000Z</time>
      </trkpt>
      <trkpt lat="47.58029" lon="6.79054">
        <ele>375</ele>
        <time>2015-11-01T10:41:51.000Z</time>
      </trkpt>
      <trkpt lat="47.58028" lon="6.7905">
        <ele>375</ele>
        <time>2015-11-01T10:41:52.000Z</time>
      </trkpt>
      <trkpt lat="47.58027" lon="6.79046">
        <ele>375</ele>
        <time>2015-11-01T10:41:53.001Z</time>
      </trkpt>
      <trkpt lat="47.58024" lon="6.79049">
        <ele>376</ele>
        <time>2015-11-01T10:41:56.000Z</time>
      </trkpt>
      <trkpt lat="47.58023" lon="6.79049">
        <ele>376</ele>
        <time>2015-11-01T10:41:57.000Z</time>
      </trkpt>
      <trkpt lat="47.58021" lon="6.79057">
        <ele>376</ele>
        <time>2015-11-01T10:41:58.000Z</time>
      </trkpt>
      <trkpt lat="47.5802" lon="6.79061">
        <ele>376</ele>
        <time>2015-11-01T10:41:59.000Z</time>
      </trkpt>
      <trkpt lat="47.58018" lon="6.79066">
        <ele>376</ele>
        <time>2015-11-01T10:42:00.000Z</time>
      </trkpt>
      <trkpt lat="47.58017" lon="6.79069">
        <ele>377</ele>
        <time>2015-11-01T10:42:01.001Z</time>
      </trkpt>
      <trkpt lat="47.58016" lon="6.79073">
        <ele>377</ele>
        <time>2015-11-01T10:42:02.000Z</time>
      </trkpt>
      <trkpt lat="47.58015" lon="6.79076">
        <ele>377</ele>
        <time>2015-11-01T10:42:02.999Z</time>
      </trkpt>
      <trkpt lat="47.58014" lon="6.7908">
        <ele>378</ele>
        <time>2015-11-01T10:42:04.000Z</time>
      </trkpt>
      <trkpt lat="47.58013" lon="6.79083">
        <ele>378</ele>
        <time>2015-11-01T10:42:05.000Z</time>
      </trkpt>
      <trkpt lat="47.58012" lon="6.79086">
        <ele>377</ele>
        <time>2015-11-01T10:42:06.000Z</time>
      </trkpt>
      <trkpt lat="47.5801" lon="6.79089">
        <ele>378</ele>
        <time>2015-11-01T10:42:07.000Z</time>
      </trkpt>
      <trkpt lat="47.58009" lon="6.79093">
        <ele>377</ele>
        <time>2015-11-01T10:42:08.000Z</time>
      </trkpt>
      <trkpt lat="47.58008" lon="6.79096">
        <ele>377</ele>
        <time>2015-11-01T10:42:09.000Z</time>
      </trkpt>
      <trkpt lat="47.58007" lon="6.79099">
        <ele>377</ele>
        <time>2015-11-01T10:42:10.000Z</time>
      </trkpt>
      <trkpt lat="47.58006" lon="6.79102">
        <ele>376</ele>
        <time>2015-11-01T10:42:11.000Z</time>
      </trkpt>
      <trkpt lat="47.58006" lon="6.79106">
        <ele>376</ele>
        <time>2015-11-01T10:42:12.000Z</time>
      </trkpt>
      <trkpt lat="47.58005" lon="6.7911">
        <ele>376</ele>
        <time>2015-11-01T10:42:13.000Z</time>
      </trkpt>
      <trkpt lat="47.58005" lon="6.79113">
        <ele>376</ele>
        <time>2015-11-01T10:42:14.000Z</time>
      </trkpt>
      <trkpt lat="47.58006" lon="6.79117">
        <ele>375</ele>
        <time>2015-11-01T10:42:15.000Z</time>
      </trkpt>
      <trkpt lat="47.58006" lon="6.79121">
        <ele>375</ele>
        <time>2015-11-01T10:42:16.000Z</time>
      </trkpt>
      <trkpt lat="47.58007" lon="6.79127">
        <ele>375</ele>
        <time>2015-11-01T10:42:18.000Z</time>
      </trkpt>
      <trkpt lat="47.58006" lon="6.7913">
        <ele>375</ele>
        <time>2015-11-01T10:42:19.000Z</time>
      </trkpt>
      <trkpt lat="47.58006" lon="6.79136">
        <ele>375</ele>
        <time>2015-11-01T10:42:21.000Z</time>
      </trkpt>
      <trkpt lat="47.58006" lon="6.79139">
        <ele>375</ele>
        <time>2015-11-01T10:42:22.000Z</time>
      </trkpt>
      <trkpt lat="47.58006" lon="6.79145">
        <ele>376</ele>
        <time>2015-11-01T10:42:24.000Z</time>
      </trkpt>
      <trkpt lat="47.58006" lon="6.79147">
        <ele>376</ele>
        <time>2015-11-01T10:42:25.000Z</time>
      </trkpt>
      <trkpt lat="47.58003" lon="6.79151">
        <ele>377</ele>
        <time>2015-11-01T10:42:27.000Z</time>
      </trkpt>
      <trkpt lat="47.58001" lon="6.79151">
        <ele>377</ele>
        <time>2015-11-01T10:42:28.000Z</time>
      </trkpt>
      <trkpt lat="47.57997" lon="6.79152">
        <ele>384</ele>
        <time>2015-11-01T10:42:30.000Z</time>
      </trkpt>
      <trkpt lat="47.57995" lon="6.79152">
        <ele>384</ele>
        <time>2015-11-01T10:42:31.000Z</time>
      </trkpt>
      <trkpt lat="47.57991" lon="6.7915">
        <ele>384</ele>
        <time>2015-11-01T10:42:33.000Z</time>
      </trkpt>
      <trkpt lat="47.57989" lon="6.79149">
        <ele>384</ele>
        <time>2015-11-01T10:42:34.000Z</time>
      </trkpt>
      <trkpt lat="47.57987" lon="6.79144">
        <ele>385</ele>
        <time>2015-11-01T10:42:36.000Z</time>
      </trkpt>
      <trkpt lat="47.57986" lon="6.79141">
        <ele>385</ele>
        <time>2015-11-01T10:42:37.000Z</time>
      </trkpt>
      <trkpt lat="47.57983" lon="6.79136">
        <ele>386</ele>
        <time>2015-11-01T10:42:39.000Z</time>
      </trkpt>
      <trkpt lat="47.57982" lon="6.79134">
        <ele>386</ele>
        <time>2015-11-01T10:42:40.000Z</time>
      </trkpt>
      <trkpt lat="47.57981" lon="6.79129">
        <ele>386</ele>
        <time>2015-11-01T10:42:42.000Z</time>
      </trkpt>
      <trkpt lat="47.5798" lon="6.79126">
        <ele>386</ele>
        <time>2015-11-01T10:42:43.000Z</time>
      </trkpt>
      <trkpt lat="47.57979" lon="6.79121">
        <ele>387</ele>
        <time>2015-11-01T10:42:45.000Z</time>
      </trkpt>
      <trkpt lat="47.57978" lon="6.79118">
        <ele>387</ele>
        <time>2015-11-01T10:42:46.000Z</time>
      </trkpt>
      <trkpt lat="47.57975" lon="6.79113">
        <ele>387</ele>
        <time>2015-11-01T10:42:48.000Z</time>
      </trkpt>
      <trkpt lat="47.57974" lon="6.79111">
        <ele>387</ele>
        <time>2015-11-01T10:42:49.000Z</time>
      </trkpt>
      <trkpt lat="47.57973" lon="6.79109">
        <ele>387</ele>
        <time>2015-11-01T10:42:49.999Z</time>
      </trkpt>
      <trkpt lat="47.57971" lon="6.79106">
        <ele>387</ele>
        <time>2015-11-01T10:42:51.000Z</time>
      </trkpt>
      <trkpt lat="47.57968" lon="6.79102">
        <ele>387</ele>
        <time>2015-11-01T10:42:53.001Z</time>
      </trkpt>
      <trkpt lat="47.57965" lon="6.791">
        <ele>388</ele>
        <time>2015-11-01T10:42:54.000Z</time>
      </trkpt>
      <trkpt lat="47.57963" lon="6.79099">
        <ele>388</ele>
        <time>2015-11-01T10:42:55.000Z</time>
      </trkpt>
      <trkpt lat="47.57961" lon="6.79098">
        <ele>388</ele>
        <time>2015-11-01T10:42:56.000Z</time>
      </trkpt>
      <trkpt lat="47.57958" lon="6.79097">
        <ele>389</ele>
        <time>2015-11-01T10:42:57.000Z</time>
      </trkpt>
      <trkpt lat="47.57956" lon="6.79097">
        <ele>389</ele>
        <time>2015-11-01T10:42:58.000Z</time>
      </trkpt>
      <trkpt lat="47.57953" lon="6.79097">
        <ele>389</ele>
        <time>2015-11-01T10:42:59.000Z</time>
      </trkpt>
      <trkpt lat="47.57951" lon="6.79098">
        <ele>390</ele>
        <time>2015-11-01T10:43:00.000Z</time>
      </trkpt>
      <trkpt lat="47.57949" lon="6.79099">
        <ele>390</ele>
        <time>2015-11-01T10:43:01.000Z</time>
      </trkpt>
      <trkpt lat="47.57947" lon="6.791">
        <ele>390</ele>
        <time>2015-11-01T10:43:02.000Z</time>
      </trkpt>
      <trkpt lat="47.57943" lon="6.79102">
        <ele>391</ele>
        <time>2015-11-01T10:43:04.000Z</time>
      </trkpt>
      <trkpt lat="47.5794" lon="6.79103">
        <ele>391</ele>
        <time>2015-11-01T10:43:05.000Z</time>
      </trkpt>
      <trkpt lat="47.57938" lon="6.79104">
        <ele>391</ele>
        <time>2015-11-01T10:43:06.000Z</time>
      </trkpt>
      <trkpt lat="47.57936" lon="6.79105">
        <ele>391</ele>
        <time>2015-11-01T10:43:07.000Z</time>
      </trkpt>
      <trkpt lat="47.57932" lon="6.79106">
        <ele>392</ele>
        <time>2015-11-01T10:43:09.000Z</time>
      </trkpt>
      <trkpt lat="47.5793" lon="6.79107">
        <ele>392</ele>
        <time>2015-11-01T10:43:10.000Z</time>
      </trkpt>
      <trkpt lat="47.57926" lon="6.79109">
        <ele>392</ele>
        <time>2015-11-01T10:43:12.000Z</time>
      </trkpt>
      <trkpt lat="47.57924" lon="6.79109">
        <ele>392</ele>
        <time>2015-11-01T10:43:13.000Z</time>
      </trkpt>
      <trkpt lat="47.57919" lon="6.79109">
        <ele>392</ele>
        <time>2015-11-01T10:43:15.000Z</time>
      </trkpt>
      <trkpt lat="47.57917" lon="6.7911">
        <ele>392</ele>
        <time>2015-11-01T10:43:16.000Z</time>
      </trkpt>
      <trkpt lat="47.57913" lon="6.79109">
        <ele>395</ele>
        <time>2015-11-01T10:43:18.000Z</time>
      </trkpt>
      <trkpt lat="47.57911" lon="6.79109">
        <ele>395</ele>
        <time>2015-11-01T10:43:19.000Z</time>
      </trkpt>
      <trkpt lat="47.57907" lon="6.79108">
        <ele>395</ele>
        <time>2015-11-01T10:43:21.000Z</time>
      </trkpt>
      <trkpt lat="47.57905" lon="6.79108">
        <ele>395</ele>
        <time>2015-11-01T10:43:22.000Z</time>
      </trkpt>
      <trkpt lat="47.579" lon="6.79108">
        <ele>395</ele>
        <time>2015-11-01T10:43:24.000Z</time>
      </trkpt>
      <trkpt lat="47.57898" lon="6.79108">
        <ele>395</ele>
        <time>2015-11-01T10:43:25.000Z</time>
      </trkpt>
      <trkpt lat="47.57894" lon="6.79109">
        <ele>395</ele>
        <time>2015-11-01T10:43:27.000Z</time>
      </trkpt>
      <trkpt lat="47.57892" lon="6.79109">
        <ele>395</ele>
        <time>2015-11-01T10:43:28.000Z</time>
      </trkpt>
      <trkpt lat="47.57889" lon="6.7911">
        <ele>395</ele>
        <time>2015-11-01T10:43:29.000Z</time>
      </trkpt>
      <trkpt lat="47.57887" lon="6.7911">
        <ele>395</ele>
        <time>2015-11-01T10:43:30.000Z</time>
      </trkpt>
      <trkpt lat="47.57884" lon="6.79111">
        <ele>394</ele>
        <time>2015-11-01T10:43:31.000Z</time>
      </trkpt>
      <trkpt lat="47.57882" lon="6.79111">
        <ele>394</ele>
        <time>2015-11-01T10:43:32.000Z</time>
      </trkpt>
      <trkpt lat="47.57879" lon="6.79111">
        <ele>394</ele>
        <time>2015-11-01T10:43:33.000Z</time>
      </trkpt>
      <trkpt lat="47.57876" lon="6.79111">
        <ele>394</ele>
        <time>2015-11-01T10:43:34.000Z</time>
      </trkpt>
      <trkpt lat="47.57874" lon="6.79111">
        <ele>394</ele>
        <time>2015-11-01T10:43:35.000Z</time>
      </trkpt>
      <trkpt lat="47.57871" lon="6.79112">
        <ele>394</ele>
        <time>2015-11-01T10:43:36.000Z</time>
      </trkpt>
      <trkpt lat="47.57868" lon="6.79112">
        <ele>394</ele>
        <time>2015-11-01T10:43:37.000Z</time>
      </trkpt>
      <trkpt lat="47.57865" lon="6.79112">
        <ele>394</ele>
        <time>2015-11-01T10:43:38.000Z</time>
      </trkpt>
      <trkpt lat="47.57863" lon="6.79113">
        <ele>394</ele>
        <time>2015-11-01T10:43:39.000Z</time>
      </trkpt>
      <trkpt lat="47.57859" lon="6.79113">
        <ele>394</ele>
        <time>2015-11-01T10:43:40.000Z</time>
      </trkpt>
      <trkpt lat="47.57856" lon="6.79114">
        <ele>393</ele>
        <time>2015-11-01T10:43:41.000Z</time>
      </trkpt>
      <trkpt lat="47.57853" lon="6.79114">
        <ele>393</ele>
        <time>2015-11-01T10:43:42.000Z</time>
      </trkpt>
      <trkpt lat="47.5785" lon="6.79116">
        <ele>393</ele>
        <time>2015-11-01T10:43:43.000Z</time>
      </trkpt>
      <trkpt lat="47.57846" lon="6.79118">
        <ele>393</ele>
        <time>2015-11-01T10:43:44.000Z</time>
      </trkpt>
      <trkpt lat="47.57843" lon="6.79121">
        <ele>393</ele>
        <time>2015-11-01T10:43:45.002Z</time>
      </trkpt>
      <trkpt lat="47.5784" lon="6.79124">
        <ele>393</ele>
        <time>2015-11-01T10:43:46.000Z</time>
      </trkpt>
      <trkpt lat="47.57837" lon="6.79128">
        <ele>393</ele>
        <time>2015-11-01T10:43:47.000Z</time>
      </trkpt>
      <trkpt lat="47.57834" lon="6.79132">
        <ele>393</ele>
        <time>2015-11-01T10:43:48.000Z</time>
      </trkpt>
      <trkpt lat="47.57832" lon="6.79137">
        <ele>391</ele>
        <time>2015-11-01T10:43:49.000Z</time>
      </trkpt>
      <trkpt lat="47.5783" lon="6.79141">
        <ele>392</ele>
        <time>2015-11-01T10:43:50.000Z</time>
      </trkpt>
      <trkpt lat="47.57829" lon="6.79146">
        <ele>392</ele>
        <time>2015-11-01T10:43:51.000Z</time>
      </trkpt>
      <trkpt lat="47.57827" lon="6.79151">
        <ele>392</ele>
        <time>2015-11-01T10:43:52.000Z</time>
      </trkpt>
      <trkpt lat="47.57825" lon="6.79156">
        <ele>392</ele>
        <time>2015-11-01T10:43:53.000Z</time>
      </trkpt>
      <trkpt lat="47.57823" lon="6.79161">
        <ele>392</ele>
        <time>2015-11-01T10:43:54.000Z</time>
      </trkpt>
      <trkpt lat="47.57822" lon="6.79166">
        <ele>392</ele>
        <time>2015-11-01T10:43:55.000Z</time>
      </trkpt>
      <trkpt lat="47.57821" lon="6.79171">
        <ele>393</ele>
        <time>2015-11-01T10:43:56.000Z</time>
      </trkpt>
      <trkpt lat="47.5782" lon="6.79176">
        <ele>393</ele>
        <time>2015-11-01T10:43:57.000Z</time>
      </trkpt>
      <trkpt lat="47.57819" lon="6.79181">
        <ele>393</ele>
        <time>2015-11-01T10:43:58.000Z</time>
      </trkpt>
      <trkpt lat="47.57818" lon="6.79186">
        <ele>393</ele>
        <time>2015-11-01T10:43:58.999Z</time>
      </trkpt>
      <trkpt lat="47.57817" lon="6.79191">
        <ele>393</ele>
        <time>2015-11-01T10:44:00.000Z</time>
      </trkpt>
      <trkpt lat="47.57817" lon="6.79196">
        <ele>394</ele>
        <time>2015-11-01T10:44:01.000Z</time>
      </trkpt>
      <trkpt lat="47.57817" lon="6.79201">
        <ele>394</ele>
        <time>2015-11-01T10:44:02.000Z</time>
      </trkpt>
      <trkpt lat="47.57816" lon="6.79205">
        <ele>394</ele>
        <time>2015-11-01T10:44:03.000Z</time>
      </trkpt>
      <trkpt lat="47.57815" lon="6.7921">
        <ele>394</ele>
        <time>2015-11-01T10:44:04.000Z</time>
      </trkpt>
      <trkpt lat="47.57814" lon="6.79214">
        <ele>394</ele>
        <time>2015-11-01T10:44:05.000Z</time>
      </trkpt>
      <trkpt lat="47.57813" lon="6.79218">
        <ele>394</ele>
        <time>2015-11-01T10:44:06.000Z</time>
      </trkpt>
      <trkpt lat="47.5781" lon="6.79222">
        <ele>394</ele>
        <time>2015-11-01T10:44:07.000Z</time>
      </trkpt>
      <trkpt lat="47.57806" lon="6.79226">
        <ele>394</ele>
        <time>2015-11-01T10:44:08.000Z</time>
      </trkpt>
      <trkpt lat="47.57803" lon="6.79229">
        <ele>394</ele>
        <time>2015-11-01T10:44:09.000Z</time>
      </trkpt>
      <trkpt lat="47.57798" lon="6.79232">
        <ele>394</ele>
        <time>2015-11-01T10:44:10.000Z</time>
      </trkpt>
      <trkpt lat="47.57794" lon="6.79235">
        <ele>394</ele>
        <time>2015-11-01T10:44:11.000Z</time>
      </trkpt>
      <trkpt lat="47.57789" lon="6.79238">
        <ele>394</ele>
        <time>2015-11-01T10:44:12.000Z</time>
      </trkpt>
      <trkpt lat="47.57785" lon="6.79241">
        <ele>394</ele>
        <time>2015-11-01T10:44:13.000Z</time>
      </trkpt>
      <trkpt lat="47.57781" lon="6.79244">
        <ele>394</ele>
        <time>2015-11-01T10:44:14.000Z</time>
      </trkpt>
      <trkpt lat="47.57777" lon="6.79247">
        <ele>394</ele>
        <time>2015-11-01T10:44:14.999Z</time>
      </trkpt>
      <trkpt lat="47.57772" lon="6.79249">
        <ele>394</ele>
        <time>2015-11-01T10:44:16.000Z</time>
      </trkpt>
      <trkpt lat="47.57768" lon="6.79252">
        <ele>395</ele>
        <time>2015-11-01T10:44:17.000Z</time>
      </trkpt>
      <trkpt lat="47.57765" lon="6.79255">
        <ele>395</ele>
        <time>2015-11-01T10:44:17.999Z</time>
      </trkpt>
      <trkpt lat="47.5776" lon="6.79258">
        <ele>395</ele>
        <time>2015-11-01T10:44:19.000Z</time>
      </trkpt>
      <trkpt lat="47.57756" lon="6.79261">
        <ele>395</ele>
        <time>2015-11-01T10:44:20.000Z</time>
      </trkpt>
      <trkpt lat="47.57752" lon="6.79265">
        <ele>395</ele>
        <time>2015-11-01T10:44:21.000Z</time>
      </trkpt>
      <trkpt lat="47.57748" lon="6.79268">
        <ele>395</ele>
        <time>2015-11-01T10:44:22.000Z</time>
      </trkpt>
      <trkpt lat="47.57744" lon="6.79272">
        <ele>395</ele>
        <time>2015-11-01T10:44:23.000Z</time>
      </trkpt>
      <trkpt lat="47.57739" lon="6.79277">
        <ele>395</ele>
        <time>2015-11-01T10:44:24.000Z</time>
      </trkpt>
      <trkpt lat="47.57735" lon="6.79282">
        <ele>395</ele>
        <time>2015-11-01T10:44:25.000Z</time>
      </trkpt>
      <trkpt lat="47.5773" lon="6.79285">
        <ele>395</ele>
        <time>2015-11-01T10:44:26.000Z</time>
      </trkpt>
      <trkpt lat="47.57726" lon="6.79287">
        <ele>395</ele>
        <time>2015-11-01T10:44:27.000Z</time>
      </trkpt>
      <trkpt lat="47.57722" lon="6.7929">
        <ele>395</ele>
        <time>2015-11-01T10:44:28.000Z</time>
      </trkpt>
      <trkpt lat="47.57718" lon="6.79292">
        <ele>395</ele>
        <time>2015-11-01T10:44:29.000Z</time>
      </trkpt>
      <trkpt lat="47.57714" lon="6.79294">
        <ele>395</ele>
        <time>2015-11-01T10:44:30.000Z</time>
      </trkpt>
      <trkpt lat="47.5771" lon="6.79296">
        <ele>395</ele>
        <time>2015-11-01T10:44:31.001Z</time>
      </trkpt>
      <trkpt lat="47.57706" lon="6.79298">
        <ele>395</ele>
        <time>2015-11-01T10:44:32.000Z</time>
      </trkpt>
      <trkpt lat="47.57701" lon="6.79301">
        <ele>395</ele>
        <time>2015-11-01T10:44:33.000Z</time>
      </trkpt>
      <trkpt lat="47.57696" lon="6.79303">
        <ele>395</ele>
        <time>2015-11-01T10:44:34.000Z</time>
      </trkpt>
      <trkpt lat="47.57692" lon="6.79306">
        <ele>395</ele>
        <time>2015-11-01T10:44:35.000Z</time>
      </trkpt>
      <trkpt lat="47.57687" lon="6.79307">
        <ele>395</ele>
        <time>2015-11-01T10:44:36.000Z</time>
      </trkpt>
      <trkpt lat="47.57684" lon="6.7931">
        <ele>395</ele>
        <time>2015-11-01T10:44:37.000Z</time>
      </trkpt>
      <trkpt lat="47.5768" lon="6.79312">
        <ele>396</ele>
        <time>2015-11-01T10:44:38.000Z</time>
      </trkpt>
      <trkpt lat="47.57677" lon="6.79315">
        <ele>396</ele>
        <time>2015-11-01T10:44:39.000Z</time>
      </trkpt>
      <trkpt lat="47.57673" lon="6.79318">
        <ele>396</ele>
        <time>2015-11-01T10:44:40.000Z</time>
      </trkpt>
      <trkpt lat="47.57671" lon="6.79321">
        <ele>396</ele>
        <time>2015-11-01T10:44:41.000Z</time>
      </trkpt>
      <trkpt lat="47.57668" lon="6.79326">
        <ele>396</ele>
        <time>2015-11-01T10:44:42.000Z</time>
      </trkpt>
      <trkpt lat="47.57665" lon="6.7933">
        <ele>396</ele>
        <time>2015-11-01T10:44:43.000Z</time>
      </trkpt>
      <trkpt lat="47.57662" lon="6.79333">
        <ele>396</ele>
        <time>2015-11-01T10:44:44.000Z</time>
      </trkpt>
      <trkpt lat="47.5766" lon="6.79336">
        <ele>396</ele>
        <time>2015-11-01T10:44:45.000Z</time>
      </trkpt>
      <trkpt lat="47.57657" lon="6.7934">
        <ele>396</ele>
        <time>2015-11-01T10:44:46.000Z</time>
      </trkpt>
      <trkpt lat="47.57655" lon="6.79344">
        <ele>396</ele>
        <time>2015-11-01T10:44:47.000Z</time>
      </trkpt>
      <trkpt lat="47.57652" lon="6.79349">
        <ele>396</ele>
        <time>2015-11-01T10:44:48.000Z</time>
      </trkpt>
      <trkpt lat="47.5765" lon="6.79353">
        <ele>396</ele>
        <time>2015-11-01T10:44:49.000Z</time>
      </trkpt>
      <trkpt lat="47.57648" lon="6.79358">
        <ele>396</ele>
        <time>2015-11-01T10:44:50.000Z</time>
      </trkpt>
      <trkpt lat="47.57646" lon="6.79363">
        <ele>396</ele>
        <time>2015-11-01T10:44:51.000Z</time>
      </trkpt>
      <trkpt lat="47.57644" lon="6.79368">
        <ele>396</ele>
        <time>2015-11-01T10:44:52.000Z</time>
      </trkpt>
      <trkpt lat="47.57642" lon="6.79373">
        <ele>396</ele>
        <time>2015-11-01T10:44:53.000Z</time>
      </trkpt>
      <trkpt lat="47.57641" lon="6.79378">
        <ele>397</ele>
        <time>2015-11-01T10:44:54.000Z</time>
      </trkpt>
      <trkpt lat="47.57639" lon="6.79383">
        <ele>397</ele>
        <time>2015-11-01T10:44:55.000Z</time>
      </trkpt>
      <trkpt lat="47.57637" lon="6.79388">
        <ele>397</ele>
        <time>2015-11-01T10:44:56.000Z</time>
      </trkpt>
      <trkpt lat="47.57635" lon="6.79393">
        <ele>397</ele>
        <time>2015-11-01T10:44:57.000Z</time>
      </trkpt>
      <trkpt lat="47.57633" lon="6.79398">
        <ele>397</ele>
        <time>2015-11-01T10:44:58.000Z</time>
      </trkpt>
      <trkpt lat="47.57631" lon="6.79404">
        <ele>397</ele>
        <time>2015-11-01T10:44:59.000Z</time>
      </trkpt>
      <trkpt lat="47.57629" lon="6.7941">
        <ele>397</ele>
        <time>2015-11-01T10:45:00.000Z</time>
      </trkpt>
      <trkpt lat="47.57627" lon="6.79415">
        <ele>397</ele>
        <time>2015-11-01T10:45:01.000Z</time>
      </trkpt>
      <trkpt lat="47.57626" lon="6.79421">
        <ele>398</ele>
        <time>2015-11-01T10:45:02.000Z</time>
      </trkpt>
      <trkpt lat="47.57624" lon="6.79427">
        <ele>398</ele>
        <time>2015-11-01T10:45:03.000Z</time>
      </trkpt>
      <trkpt lat="47.57623" lon="6.79433">
        <ele>398</ele>
        <time>2015-11-01T10:45:04.000Z</time>
      </trkpt>
      <trkpt lat="47.57621" lon="6.79439">
        <ele>398</ele>
        <time>2015-11-01T10:45:05.000Z</time>
      </trkpt>
      <trkpt lat="47.5762" lon="6.79445">
        <ele>398</ele>
        <time>2015-11-01T10:45:06.000Z</time>
      </trkpt>
      <trkpt lat="47.57619" lon="6.79451">
        <ele>398</ele>
        <time>2015-11-01T10:45:07.000Z</time>
      </trkpt>
      <trkpt lat="47.57617" lon="6.79458">
        <ele>398</ele>
        <time>2015-11-01T10:45:08.000Z</time>
      </trkpt>
      <trkpt lat="47.57615" lon="6.79464">
        <ele>398</ele>
        <time>2015-11-01T10:45:09.000Z</time>
      </trkpt>
      <trkpt lat="47.57613" lon="6.7947">
        <ele>398</ele>
        <time>2015-11-01T10:45:10.000Z</time>
      </trkpt>
      <trkpt lat="47.57611" lon="6.79476">
        <ele>398</ele>
        <time>2015-11-01T10:45:11.000Z</time>
      </trkpt>
      <trkpt lat="47.5761" lon="6.79482">
        <ele>398</ele>
        <time>2015-11-01T10:45:12.000Z</time>
      </trkpt>
      <trkpt lat="47.57608" lon="6.79488">
        <ele>398</ele>
        <time>2015-11-01T10:45:13.000Z</time>
      </trkpt>
      <trkpt lat="47.57606" lon="6.79494">
        <ele>398</ele>
        <time>2015-11-01T10:45:14.000Z</time>
      </trkpt>
      <trkpt lat="47.57603" lon="6.795">
        <ele>398</ele>
        <time>2015-11-01T10:45:15.000Z</time>
      </trkpt>
      <trkpt lat="47.57601" lon="6.79506">
        <ele>399</ele>
        <time>2015-11-01T10:45:16.000Z</time>
      </trkpt>
      <trkpt lat="47.57599" lon="6.79511">
        <ele>399</ele>
        <time>2015-11-01T10:45:17.000Z</time>
      </trkpt>
      <trkpt lat="47.57597" lon="6.79517">
        <ele>400</ele>
        <time>2015-11-01T10:45:18.002Z</time>
      </trkpt>
      <trkpt lat="47.57595" lon="6.79523">
        <ele>400</ele>
        <time>2015-11-01T10:45:19.000Z</time>
      </trkpt>
      <trkpt lat="47.57593" lon="6.7953">
        <ele>400</ele>
        <time>2015-11-01T10:45:20.000Z</time>
      </trkpt>
      <trkpt lat="47.57591" lon="6.79535">
        <ele>400</ele>
        <time>2015-11-01T10:45:21.000Z</time>
      </trkpt>
      <trkpt lat="47.57589" lon="6.79542">
        <ele>400</ele>
        <time>2015-11-01T10:45:22.000Z</time>
      </trkpt>
      <trkpt lat="47.57587" lon="6.79549">
        <ele>400</ele>
        <time>2015-11-01T10:45:23.000Z</time>
      </trkpt>
      <trkpt lat="47.57585" lon="6.79554">
        <ele>400</ele>
        <time>2015-11-01T10:45:24.000Z</time>
      </trkpt>
      <trkpt lat="47.57583" lon="6.7956">
        <ele>400</ele>
        <time>2015-11-01T10:45:25.000Z</time>
      </trkpt>
      <trkpt lat="47.5758" lon="6.79567">
        <ele>400</ele>
        <time>2015-11-01T10:45:26.000Z</time>
      </trkpt>
      <trkpt lat="47.57578" lon="6.79574">
        <ele>400</ele>
        <time>2015-11-01T10:45:27.000Z</time>
      </trkpt>
      <trkpt lat="47.57576" lon="6.7958">
        <ele>400</ele>
        <time>2015-11-01T10:45:28.000Z</time>
      </trkpt>
      <trkpt lat="47.57576" lon="6.79586">
        <ele>401</ele>
        <time>2015-11-01T10:45:29.000Z</time>
      </trkpt>
      <trkpt lat="47.57573" lon="6.79593">
        <ele>401</ele>
        <time>2015-11-01T10:45:30.000Z</time>
      </trkpt>
      <trkpt lat="47.57573" lon="6.796">
        <ele>401</ele>
        <time>2015-11-01T10:45:31.000Z</time>
      </trkpt>
      <trkpt lat="47.57572" lon="6.79607">
        <ele>402</ele>
        <time>2015-11-01T10:45:32.000Z</time>
      </trkpt>
      <trkpt lat="47.57571" lon="6.79613">
        <ele>402</ele>
        <time>2015-11-01T10:45:33.000Z</time>
      </trkpt>
      <trkpt lat="47.57572" lon="6.7962">
        <ele>402</ele>
        <time>2015-11-01T10:45:34.000Z</time>
      </trkpt>
      <trkpt lat="47.57572" lon="6.79627">
        <ele>402</ele>
        <time>2015-11-01T10:45:35.000Z</time>
      </trkpt>
      <trkpt lat="47.57572" lon="6.79633">
        <ele>402</ele>
        <time>2015-11-01T10:45:36.000Z</time>
      </trkpt>
      <trkpt lat="47.57571" lon="6.79639">
        <ele>403</ele>
        <time>2015-11-01T10:45:37.000Z</time>
      </trkpt>
      <trkpt lat="47.57571" lon="6.79645">
        <ele>403</ele>
        <time>2015-11-01T10:45:38.000Z</time>
      </trkpt>
      <trkpt lat="47.57571" lon="6.79652">
        <ele>403</ele>
        <time>2015-11-01T10:45:39.000Z</time>
      </trkpt>
      <trkpt lat="47.57572" lon="6.79658">
        <ele>403</ele>
        <time>2015-11-01T10:45:40.000Z</time>
      </trkpt>
      <trkpt lat="47.57571" lon="6.79664">
        <ele>403</ele>
        <time>2015-11-01T10:45:41.000Z</time>
      </trkpt>
      <trkpt lat="47.57571" lon="6.7967">
        <ele>404</ele>
        <time>2015-11-01T10:45:42.000Z</time>
      </trkpt>
      <trkpt lat="47.57571" lon="6.79676">
        <ele>405</ele>
        <time>2015-11-01T10:45:43.000Z</time>
      </trkpt>
      <trkpt lat="47.57571" lon="6.79682">
        <ele>405</ele>
        <time>2015-11-01T10:45:44.000Z</time>
      </trkpt>
      <trkpt lat="47.57571" lon="6.79688">
        <ele>405</ele>
        <time>2015-11-01T10:45:45.000Z</time>
      </trkpt>
      <trkpt lat="47.57571" lon="6.79694">
        <ele>406</ele>
        <time>2015-11-01T10:45:46.000Z</time>
      </trkpt>
      <trkpt lat="47.57571" lon="6.79699">
        <ele>406</ele>
        <time>2015-11-01T10:45:47.000Z</time>
      </trkpt>
      <trkpt lat="47.57571" lon="6.79704">
        <ele>406</ele>
        <time>2015-11-01T10:45:48.000Z</time>
      </trkpt>
      <trkpt lat="47.57571" lon="6.79709">
        <ele>407</ele>
        <time>2015-11-01T10:45:49.000Z</time>
      </trkpt>
      <trkpt lat="47.57571" lon="6.79715">
        <ele>407</ele>
        <time>2015-11-01T10:45:50.000Z</time>
      </trkpt>
      <trkpt lat="47.5757" lon="6.7972">
        <ele>407</ele>
        <time>2015-11-01T10:45:51.000Z</time>
      </trkpt>
      <trkpt lat="47.57569" lon="6.79725">
        <ele>407</ele>
        <time>2015-11-01T10:45:52.000Z</time>
      </trkpt>
      <trkpt lat="47.57568" lon="6.7973">
        <ele>408</ele>
        <time>2015-11-01T10:45:53.000Z</time>
      </trkpt>
      <trkpt lat="47.57566" lon="6.79735">
        <ele>408</ele>
        <time>2015-11-01T10:45:54.000Z</time>
      </trkpt>
      <trkpt lat="47.57565" lon="6.7974">
        <ele>408</ele>
        <time>2015-11-01T10:45:55.000Z</time>
      </trkpt>
      <trkpt lat="47.57564" lon="6.79745">
        <ele>408</ele>
        <time>2015-11-01T10:45:56.000Z</time>
      </trkpt>
      <trkpt lat="47.57563" lon="6.7975">
        <ele>410</ele>
        <time>2015-11-01T10:45:57.000Z</time>
      </trkpt>
      <trkpt lat="47.57562" lon="6.79755">
        <ele>410</ele>
        <time>2015-11-01T10:45:58.000Z</time>
      </trkpt>
      <trkpt lat="47.57561" lon="6.79759">
        <ele>410</ele>
        <time>2015-11-01T10:45:59.000Z</time>
      </trkpt>
      <trkpt lat="47.57559" lon="6.79763">
        <ele>410</ele>
        <time>2015-11-01T10:46:00.000Z</time>
      </trkpt>
      <trkpt lat="47.57558" lon="6.79767">
        <ele>410</ele>
        <time>2015-11-01T10:46:01.000Z</time>
      </trkpt>
      <trkpt lat="47.57557" lon="6.79771">
        <ele>410</ele>
        <time>2015-11-01T10:46:02.000Z</time>
      </trkpt>
      <trkpt lat="47.57555" lon="6.79775">
        <ele>410</ele>
        <time>2015-11-01T10:46:03.000Z</time>
      </trkpt>
      <trkpt lat="47.57554" lon="6.79779">
        <ele>410</ele>
        <time>2015-11-01T10:46:04.000Z</time>
      </trkpt>
      <trkpt lat="47.57552" lon="6.79784">
        <ele>410</ele>
        <time>2015-11-01T10:46:05.000Z</time>
      </trkpt>
      <trkpt lat="47.57551" lon="6.79789">
        <ele>410</ele>
        <time>2015-11-01T10:46:06.000Z</time>
      </trkpt>
      <trkpt lat="47.57549" lon="6.79793">
        <ele>410</ele>
        <time>2015-11-01T10:46:07.000Z</time>
      </trkpt>
      <trkpt lat="47.57547" lon="6.79798">
        <ele>410</ele>
        <time>2015-11-01T10:46:08.000Z</time>
      </trkpt>
      <trkpt lat="47.57545" lon="6.79802">
        <ele>410</ele>
        <time>2015-11-01T10:46:09.000Z</time>
      </trkpt>
      <trkpt lat="47.57542" lon="6.79807">
        <ele>410</ele>
        <time>2015-11-01T10:46:10.000Z</time>
      </trkpt>
      <trkpt lat="47.57541" lon="6.79811">
        <ele>411</ele>
        <time>2015-11-01T10:46:11.000Z</time>
      </trkpt>
      <trkpt lat="47.57539" lon="6.79815">
        <ele>411</ele>
        <time>2015-11-01T10:46:12.000Z</time>
      </trkpt>
      <trkpt lat="47.57538" lon="6.7982">
        <ele>411</ele>
        <time>2015-11-01T10:46:13.000Z</time>
      </trkpt>
      <trkpt lat="47.57536" lon="6.79824">
        <ele>411</ele>
        <time>2015-11-01T10:46:14.000Z</time>
      </trkpt>
      <trkpt lat="47.57535" lon="6.79828">
        <ele>411</ele>
        <time>2015-11-01T10:46:15.000Z</time>
      </trkpt>
      <trkpt lat="47.57534" lon="6.79832">
        <ele>411</ele>
        <time>2015-11-01T10:46:16.000Z</time>
      </trkpt>
      <trkpt lat="47.57532" lon="6.79836">
        <ele>412</ele>
        <time>2015-11-01T10:46:17.000Z</time>
      </trkpt>
      <trkpt lat="47.5753" lon="6.7984">
        <ele>412</ele>
        <time>2015-11-01T10:46:18.000Z</time>
      </trkpt>
      <trkpt lat="47.57529" lon="6.79843">
        <ele>412</ele>
        <time>2015-11-01T10:46:19.000Z</time>
      </trkpt>
      <trkpt lat="47.57526" lon="6.79846">
        <ele>412</ele>
        <time>2015-11-01T10:46:20.000Z</time>
      </trkpt>
      <trkpt lat="47.57524" lon="6.7985">
        <ele>412</ele>
        <time>2015-11-01T10:46:21.000Z</time>
      </trkpt>
      <trkpt lat="47.57522" lon="6.79853">
        <ele>412</ele>
        <time>2015-11-01T10:46:22.000Z</time>
      </trkpt>
      <trkpt lat="47.5752" lon="6.79855">
        <ele>412</ele>
        <time>2015-11-01T10:46:23.000Z</time>
      </trkpt>
      <trkpt lat="47.57517" lon="6.79857">
        <ele>412</ele>
        <time>2015-11-01T10:46:24.000Z</time>
      </trkpt>
      <trkpt lat="47.57514" lon="6.79859">
        <ele>412</ele>
        <time>2015-11-01T10:46:25.000Z</time>
      </trkpt>
      <trkpt lat="47.57511" lon="6.79861">
        <ele>412</ele>
        <time>2015-11-01T10:46:26.000Z</time>
      </trkpt>
      <trkpt lat="47.57508" lon="6.79862">
        <ele>412</ele>
        <time>2015-11-01T10:46:27.000Z</time>
      </trkpt>
      <trkpt lat="47.57505" lon="6.79863">
        <ele>412</ele>
        <time>2015-11-01T10:46:28.000Z</time>
      </trkpt>
      <trkpt lat="47.57502" lon="6.79865">
        <ele>412</ele>
        <time>2015-11-01T10:46:29.000Z</time>
      </trkpt>
      <trkpt lat="47.575" lon="6.79866">
        <ele>413</ele>
        <time>2015-11-01T10:46:30.000Z</time>
      </trkpt>
      <trkpt lat="47.57497" lon="6.79868">
        <ele>413</ele>
        <time>2015-11-01T10:46:31.000Z</time>
      </trkpt>
      <trkpt lat="47.57495" lon="6.7987">
        <ele>413</ele>
        <time>2015-11-01T10:46:32.000Z</time>
      </trkpt>
      <trkpt lat="47.57492" lon="6.79871">
        <ele>413</ele>
        <time>2015-11-01T10:46:33.000Z</time>
      </trkpt>
      <trkpt lat="47.5749" lon="6.79872">
        <ele>413</ele>
        <time>2015-11-01T10:46:34.000Z</time>
      </trkpt>
      <trkpt lat="47.57487" lon="6.79873">
        <ele>413</ele>
        <time>2015-11-01T10:46:35.000Z</time>
      </trkpt>
      <trkpt lat="47.57484" lon="6.79876">
        <ele>413</ele>
        <time>2015-11-01T10:46:37.000Z</time>
      </trkpt>
      <trkpt lat="47.57483" lon="6.79878">
        <ele>413</ele>
        <time>2015-11-01T10:46:38.000Z</time>
      </trkpt>
      <trkpt lat="47.57479" lon="6.79882">
        <ele>414</ele>
        <time>2015-11-01T10:46:40.000Z</time>
      </trkpt>
      <trkpt lat="47.57477" lon="6.79884">
        <ele>414</ele>
        <time>2015-11-01T10:46:41.000Z</time>
      </trkpt>
      <trkpt lat="47.57475" lon="6.79886">
        <ele>414</ele>
        <time>2015-11-01T10:46:42.000Z</time>
      </trkpt>
      <trkpt lat="47.57473" lon="6.79889">
        <ele>414</ele>
        <time>2015-11-01T10:46:43.000Z</time>
      </trkpt>
      <trkpt lat="47.57471" lon="6.79892">
        <ele>414</ele>
        <time>2015-11-01T10:46:44.000Z</time>
      </trkpt>
      <trkpt lat="47.57469" lon="6.79896">
        <ele>414</ele>
        <time>2015-11-01T10:46:45.000Z</time>
      </trkpt>
      <trkpt lat="47.57468" lon="6.799">
        <ele>414</ele>
        <time>2015-11-01T10:46:46.000Z</time>
      </trkpt>
      <trkpt lat="47.57466" lon="6.79904">
        <ele>414</ele>
        <time>2015-11-01T10:46:47.000Z</time>
      </trkpt>
      <trkpt lat="47.57465" lon="6.79908">
        <ele>414</ele>
        <time>2015-11-01T10:46:48.000Z</time>
      </trkpt>
      <trkpt lat="47.57464" lon="6.79913">
        <ele>414</ele>
        <time>2015-11-01T10:46:49.000Z</time>
      </trkpt>
      <trkpt lat="47.57463" lon="6.79917">
        <ele>414</ele>
        <time>2015-11-01T10:46:50.000Z</time>
      </trkpt>
      <trkpt lat="47.57462" lon="6.79921">
        <ele>414</ele>
        <time>2015-11-01T10:46:51.000Z</time>
      </trkpt>
      <trkpt lat="47.57461" lon="6.79926">
        <ele>414</ele>
        <time>2015-11-01T10:46:52.000Z</time>
      </trkpt>
      <trkpt lat="47.57461" lon="6.7993">
        <ele>414</ele>
        <time>2015-11-01T10:46:53.000Z</time>
      </trkpt>
      <trkpt lat="47.5746" lon="6.79935">
        <ele>414</ele>
        <time>2015-11-01T10:46:54.000Z</time>
      </trkpt>
      <trkpt lat="47.57459" lon="6.7994">
        <ele>414</ele>
        <time>2015-11-01T10:46:55.000Z</time>
      </trkpt>
      <trkpt lat="47.57458" lon="6.79944">
        <ele>414</ele>
        <time>2015-11-01T10:46:56.000Z</time>
      </trkpt>
      <trkpt lat="47.57457" lon="6.79949">
        <ele>414</ele>
        <time>2015-11-01T10:46:57.000Z</time>
      </trkpt>
      <trkpt lat="47.57456" lon="6.79954">
        <ele>414</ele>
        <time>2015-11-01T10:46:58.000Z</time>
      </trkpt>
      <trkpt lat="47.57454" lon="6.79959">
        <ele>414</ele>
        <time>2015-11-01T10:46:59.000Z</time>
      </trkpt>
      <trkpt lat="47.57453" lon="6.79964">
        <ele>414</ele>
        <time>2015-11-01T10:47:00.000Z</time>
      </trkpt>
      <trkpt lat="47.57451" lon="6.79969">
        <ele>414</ele>
        <time>2015-11-01T10:47:01.000Z</time>
      </trkpt>
      <trkpt lat="47.57449" lon="6.79974">
        <ele>414</ele>
        <time>2015-11-01T10:47:02.000Z</time>
      </trkpt>
      <trkpt lat="47.57447" lon="6.79979">
        <ele>414</ele>
        <time>2015-11-01T10:47:03.000Z</time>
      </trkpt>
      <trkpt lat="47.57445" lon="6.79984">
        <ele>414</ele>
        <time>2015-11-01T10:47:04.000Z</time>
      </trkpt>
      <trkpt lat="47.57443" lon="6.79988">
        <ele>414</ele>
        <time>2015-11-01T10:47:05.000Z</time>
      </trkpt>
      <trkpt lat="47.5744" lon="6.79993">
        <ele>414</ele>
        <time>2015-11-01T10:47:06.000Z</time>
      </trkpt>
      <trkpt lat="47.57437" lon="6.79998">
        <ele>414</ele>
        <time>2015-11-01T10:47:07.000Z</time>
      </trkpt>
      <trkpt lat="47.57434" lon="6.80003">
        <ele>413</ele>
        <time>2015-11-01T10:47:08.000Z</time>
      </trkpt>
      <trkpt lat="47.57431" lon="6.80008">
        <ele>413</ele>
        <time>2015-11-01T10:47:09.000Z</time>
      </trkpt>
      <trkpt lat="47.57427" lon="6.80012">
        <ele>413</ele>
        <time>2015-11-01T10:47:10.000Z</time>
      </trkpt>
      <trkpt lat="47.57423" lon="6.80016">
        <ele>413</ele>
        <time>2015-11-01T10:47:11.000Z</time>
      </trkpt>
      <trkpt lat="47.57419" lon="6.8002">
        <ele>413</ele>
        <time>2015-11-01T10:47:12.000Z</time>
      </trkpt>
      <trkpt lat="47.57415" lon="6.80024">
        <ele>413</ele>
        <time>2015-11-01T10:47:13.000Z</time>
      </trkpt>
      <trkpt lat="47.5741" lon="6.80028">
        <ele>412</ele>
        <time>2015-11-01T10:47:14.000Z</time>
      </trkpt>
      <trkpt lat="47.57406" lon="6.80032">
        <ele>412</ele>
        <time>2015-11-01T10:47:15.000Z</time>
      </trkpt>
      <trkpt lat="47.57401" lon="6.80036">
        <ele>412</ele>
        <time>2015-11-01T10:47:16.000Z</time>
      </trkpt>
      <trkpt lat="47.57396" lon="6.8004">
        <ele>412</ele>
        <time>2015-11-01T10:47:17.000Z</time>
      </trkpt>
      <trkpt lat="47.57392" lon="6.80044">
        <ele>412</ele>
        <time>2015-11-01T10:47:18.000Z</time>
      </trkpt>
      <trkpt lat="47.57387" lon="6.80048">
        <ele>412</ele>
        <time>2015-11-01T10:47:19.000Z</time>
      </trkpt>
      <trkpt lat="47.57382" lon="6.80052">
        <ele>412</ele>
        <time>2015-11-01T10:47:20.000Z</time>
      </trkpt>
      <trkpt lat="47.57377" lon="6.80055">
        <ele>412</ele>
        <time>2015-11-01T10:47:21.000Z</time>
      </trkpt>
      <trkpt lat="47.57373" lon="6.80059">
        <ele>412</ele>
        <time>2015-11-01T10:47:22.000Z</time>
      </trkpt>
      <trkpt lat="47.57367" lon="6.80063">
        <ele>411</ele>
        <time>2015-11-01T10:47:23.000Z</time>
      </trkpt>
      <trkpt lat="47.57363" lon="6.80067">
        <ele>411</ele>
        <time>2015-11-01T10:47:24.000Z</time>
      </trkpt>
      <trkpt lat="47.57359" lon="6.8007">
        <ele>411</ele>
        <time>2015-11-01T10:47:25.000Z</time>
      </trkpt>
      <trkpt lat="47.57354" lon="6.80075">
        <ele>411</ele>
        <time>2015-11-01T10:47:26.000Z</time>
      </trkpt>
      <trkpt lat="47.57349" lon="6.80079">
        <ele>411</ele>
        <time>2015-11-01T10:47:27.000Z</time>
      </trkpt>
      <trkpt lat="47.57345" lon="6.80083">
        <ele>411</ele>
        <time>2015-11-01T10:47:28.000Z</time>
      </trkpt>
      <trkpt lat="47.57341" lon="6.80088">
        <ele>410</ele>
        <time>2015-11-01T10:47:29.000Z</time>
      </trkpt>
      <trkpt lat="47.57336" lon="6.80093">
        <ele>410</ele>
        <time>2015-11-01T10:47:30.000Z</time>
      </trkpt>
      <trkpt lat="47.57332" lon="6.80097">
        <ele>410</ele>
        <time>2015-11-01T10:47:31.000Z</time>
      </trkpt>
      <trkpt lat="47.57328" lon="6.80102">
        <ele>409</ele>
        <time>2015-11-01T10:47:32.000Z</time>
      </trkpt>
      <trkpt lat="47.57324" lon="6.80107">
        <ele>409</ele>
        <time>2015-11-01T10:47:33.000Z</time>
      </trkpt>
      <trkpt lat="47.57319" lon="6.80113">
        <ele>409</ele>
        <time>2015-11-01T10:47:34.000Z</time>
      </trkpt>
      <trkpt lat="47.57315" lon="6.80118">
        <ele>408</ele>
        <time>2015-11-01T10:47:35.000Z</time>
      </trkpt>
      <trkpt lat="47.5731" lon="6.80124">
        <ele>408</ele>
        <time>2015-11-01T10:47:36.000Z</time>
      </trkpt>
      <trkpt lat="47.57306" lon="6.80129">
        <ele>408</ele>
        <time>2015-11-01T10:47:37.000Z</time>
      </trkpt>
      <trkpt lat="47.57301" lon="6.80134">
        <ele>408</ele>
        <time>2015-11-01T10:47:38.000Z</time>
      </trkpt>
      <trkpt lat="47.57296" lon="6.8014">
        <ele>408</ele>
        <time>2015-11-01T10:47:39.000Z</time>
      </trkpt>
      <trkpt lat="47.57291" lon="6.80145">
        <ele>408</ele>
        <time>2015-11-01T10:47:40.000Z</time>
      </trkpt>
      <trkpt lat="47.57286" lon="6.80149">
        <ele>408</ele>
        <time>2015-11-01T10:47:41.000Z</time>
      </trkpt>
      <trkpt lat="47.5728" lon="6.80153">
        <ele>408</ele>
        <time>2015-11-01T10:47:42.000Z</time>
      </trkpt>
      <trkpt lat="47.57275" lon="6.80156">
        <ele>407</ele>
        <time>2015-11-01T10:47:43.000Z</time>
      </trkpt>
      <trkpt lat="47.57269" lon="6.80159">
        <ele>407</ele>
        <time>2015-11-01T10:47:44.000Z</time>
      </trkpt>
      <trkpt lat="47.57262" lon="6.80161">
        <ele>407</ele>
        <time>2015-11-01T10:47:45.000Z</time>
      </trkpt>
      <trkpt lat="47.57256" lon="6.80162">
        <ele>407</ele>
        <time>2015-11-01T10:47:46.000Z</time>
      </trkpt>
      <trkpt lat="47.5725" lon="6.80163">
        <ele>407</ele>
        <time>2015-11-01T10:47:47.000Z</time>
      </trkpt>
      <trkpt lat="47.57243" lon="6.80164">
        <ele>407</ele>
        <time>2015-11-01T10:47:48.000Z</time>
      </trkpt>
      <trkpt lat="47.57237" lon="6.80166">
        <ele>407</ele>
        <time>2015-11-01T10:47:48.998Z</time>
      </trkpt>
      <trkpt lat="47.57231" lon="6.80167">
        <ele>406</ele>
        <time>2015-11-01T10:47:50.000Z</time>
      </trkpt>
      <trkpt lat="47.57225" lon="6.80169">
        <ele>406</ele>
        <time>2015-11-01T10:47:51.000Z</time>
      </trkpt>
      <trkpt lat="47.5722" lon="6.80169">
        <ele>406</ele>
        <time>2015-11-01T10:47:52.000Z</time>
      </trkpt>
      <trkpt lat="47.57214" lon="6.80173">
        <ele>406</ele>
        <time>2015-11-01T10:47:53.000Z</time>
      </trkpt>
      <trkpt lat="47.57208" lon="6.80176">
        <ele>406</ele>
        <time>2015-11-01T10:47:54.000Z</time>
      </trkpt>
      <trkpt lat="47.57203" lon="6.80178">
        <ele>406</ele>
        <time>2015-11-01T10:47:55.000Z</time>
      </trkpt>
      <trkpt lat="47.57197" lon="6.8018">
        <ele>406</ele>
        <time>2015-11-01T10:47:56.000Z</time>
      </trkpt>
      <trkpt lat="47.57191" lon="6.80182">
        <ele>406</ele>
        <time>2015-11-01T10:47:57.000Z</time>
      </trkpt>
      <trkpt lat="47.57187" lon="6.80184">
        <ele>406</ele>
        <time>2015-11-01T10:47:58.000Z</time>
      </trkpt>
      <trkpt lat="47.57183" lon="6.80187">
        <ele>406</ele>
        <time>2015-11-01T10:47:59.000Z</time>
      </trkpt>
      <trkpt lat="47.57179" lon="6.80191">
        <ele>406</ele>
        <time>2015-11-01T10:48:00.000Z</time>
      </trkpt>
      <trkpt lat="47.57175" lon="6.80195">
        <ele>406</ele>
        <time>2015-11-01T10:48:01.000Z</time>
      </trkpt>
      <trkpt lat="47.5717" lon="6.802">
        <ele>406</ele>
        <time>2015-11-01T10:48:02.000Z</time>
      </trkpt>
      <trkpt lat="47.57166" lon="6.80204">
        <ele>408</ele>
        <time>2015-11-01T10:48:03.000Z</time>
      </trkpt>
      <trkpt lat="47.57162" lon="6.80209">
        <ele>408</ele>
        <time>2015-11-01T10:48:04.000Z</time>
      </trkpt>
      <trkpt lat="47.57159" lon="6.80213">
        <ele>408</ele>
        <time>2015-11-01T10:48:05.000Z</time>
      </trkpt>
      <trkpt lat="47.57155" lon="6.80219">
        <ele>408</ele>
        <time>2015-11-01T10:48:06.000Z</time>
      </trkpt>
      <trkpt lat="47.57152" lon="6.80223">
        <ele>408</ele>
        <time>2015-11-01T10:48:07.000Z</time>
      </trkpt>
      <trkpt lat="47.57148" lon="6.80228">
        <ele>408</ele>
        <time>2015-11-01T10:48:08.000Z</time>
      </trkpt>
      <trkpt lat="47.57145" lon="6.80233">
        <ele>408</ele>
        <time>2015-11-01T10:48:09.000Z</time>
      </trkpt>
      <trkpt lat="47.57142" lon="6.80237">
        <ele>408</ele>
        <time>2015-11-01T10:48:10.000Z</time>
      </trkpt>
      <trkpt lat="47.57138" lon="6.80241">
        <ele>408</ele>
        <time>2015-11-01T10:48:11.000Z</time>
      </trkpt>
      <trkpt lat="47.57135" lon="6.80245">
        <ele>408</ele>
        <time>2015-11-01T10:48:12.000Z</time>
      </trkpt>
      <trkpt lat="47.57131" lon="6.80249">
        <ele>408</ele>
        <time>2015-11-01T10:48:13.000Z</time>
      </trkpt>
      <trkpt lat="47.57128" lon="6.80251">
        <ele>408</ele>
        <time>2015-11-01T10:48:14.000Z</time>
      </trkpt>
      <trkpt lat="47.57124" lon="6.80254">
        <ele>408</ele>
        <time>2015-11-01T10:48:15.000Z</time>
      </trkpt>
      <trkpt lat="47.57121" lon="6.80257">
        <ele>408</ele>
        <time>2015-11-01T10:48:16.000Z</time>
      </trkpt>
      <trkpt lat="47.57117" lon="6.80261">
        <ele>409</ele>
        <time>2015-11-01T10:48:17.000Z</time>
      </trkpt>
      <trkpt lat="47.57113" lon="6.80264">
        <ele>409</ele>
        <time>2015-11-01T10:48:18.000Z</time>
      </trkpt>
      <trkpt lat="47.57108" lon="6.80266">
        <ele>409</ele>
        <time>2015-11-01T10:48:19.000Z</time>
      </trkpt>
      <trkpt lat="47.57104" lon="6.80269">
        <ele>409</ele>
        <time>2015-11-01T10:48:20.000Z</time>
      </trkpt>
      <trkpt lat="47.57099" lon="6.80271">
        <ele>409</ele>
        <time>2015-11-01T10:48:21.000Z</time>
      </trkpt>
      <trkpt lat="47.57095" lon="6.80275">
        <ele>409</ele>
        <time>2015-11-01T10:48:22.000Z</time>
      </trkpt>
      <trkpt lat="47.5709" lon="6.80279">
        <ele>409</ele>
        <time>2015-11-01T10:48:23.000Z</time>
      </trkpt>
      <trkpt lat="47.57085" lon="6.8028">
        <ele>409</ele>
        <time>2015-11-01T10:48:24.000Z</time>
      </trkpt>
      <trkpt lat="47.57081" lon="6.80282">
        <ele>411</ele>
        <time>2015-11-01T10:48:25.000Z</time>
      </trkpt>
      <trkpt lat="47.57077" lon="6.80285">
        <ele>411</ele>
        <time>2015-11-01T10:48:26.000Z</time>
      </trkpt>
      <trkpt lat="47.57072" lon="6.80289">
        <ele>411</ele>
        <time>2015-11-01T10:48:27.000Z</time>
      </trkpt>
      <trkpt lat="47.57068" lon="6.80292">
        <ele>411</ele>
        <time>2015-11-01T10:48:28.000Z</time>
      </trkpt>
      <trkpt lat="47.57063" lon="6.80295">
        <ele>411</ele>
        <time>2015-11-01T10:48:29.000Z</time>
      </trkpt>
      <trkpt lat="47.5706" lon="6.80296">
        <ele>411</ele>
        <time>2015-11-01T10:48:30.000Z</time>
      </trkpt>
      <trkpt lat="47.57057" lon="6.80298">
        <ele>411</ele>
        <time>2015-11-01T10:48:31.000Z</time>
      </trkpt>
      <trkpt lat="47.57051" lon="6.80301">
        <ele>411</ele>
        <time>2015-11-01T10:48:32.000Z</time>
      </trkpt>
      <trkpt lat="47.57046" lon="6.80303">
        <ele>411</ele>
        <time>2015-11-01T10:48:33.000Z</time>
      </trkpt>
      <trkpt lat="47.57042" lon="6.80306">
        <ele>411</ele>
        <time>2015-11-01T10:48:34.000Z</time>
      </trkpt>
      <trkpt lat="47.57037" lon="6.80309">
        <ele>411</ele>
        <time>2015-11-01T10:48:35.000Z</time>
      </trkpt>
      <trkpt lat="47.57032" lon="6.80311">
        <ele>411</ele>
        <time>2015-11-01T10:48:36.000Z</time>
      </trkpt>
      <trkpt lat="47.57027" lon="6.80313">
        <ele>411</ele>
        <time>2015-11-01T10:48:37.000Z</time>
      </trkpt>
      <trkpt lat="47.57022" lon="6.80316">
        <ele>412</ele>
        <time>2015-11-01T10:48:38.000Z</time>
      </trkpt>
      <trkpt lat="47.57019" lon="6.80317">
        <ele>412</ele>
        <time>2015-11-01T10:48:39.000Z</time>
      </trkpt>
      <trkpt lat="47.57015" lon="6.80319">
        <ele>412</ele>
        <time>2015-11-01T10:48:40.000Z</time>
      </trkpt>
      <trkpt lat="47.5701" lon="6.8032">
        <ele>412</ele>
        <time>2015-11-01T10:48:41.000Z</time>
      </trkpt>
      <trkpt lat="47.57005" lon="6.80321">
        <ele>412</ele>
        <time>2015-11-01T10:48:42.000Z</time>
      </trkpt>
      <trkpt lat="47.57" lon="6.80323">
        <ele>412</ele>
        <time>2015-11-01T10:48:43.000Z</time>
      </trkpt>
      <trkpt lat="47.56995" lon="6.80323">
        <ele>412</ele>
        <time>2015-11-01T10:48:44.000Z</time>
      </trkpt>
      <trkpt lat="47.5699" lon="6.80324">
        <ele>411</ele>
        <time>2015-11-01T10:48:45.000Z</time>
      </trkpt>
      <trkpt lat="47.56984" lon="6.80323">
        <ele>411</ele>
        <time>2015-11-01T10:48:46.000Z</time>
      </trkpt>
      <trkpt lat="47.56979" lon="6.80323">
        <ele>411</ele>
        <time>2015-11-01T10:48:47.000Z</time>
      </trkpt>
      <trkpt lat="47.56974" lon="6.80323">
        <ele>410</ele>
        <time>2015-11-01T10:48:48.000Z</time>
      </trkpt>
      <trkpt lat="47.56969" lon="6.80323">
        <ele>410</ele>
        <time>2015-11-01T10:48:49.000Z</time>
      </trkpt>
      <trkpt lat="47.56963" lon="6.80322">
        <ele>410</ele>
        <time>2015-11-01T10:48:50.000Z</time>
      </trkpt>
      <trkpt lat="47.56958" lon="6.80322">
        <ele>410</ele>
        <time>2015-11-01T10:48:51.000Z</time>
      </trkpt>
      <trkpt lat="47.56953" lon="6.80322">
        <ele>410</ele>
        <time>2015-11-01T10:48:52.000Z</time>
      </trkpt>
      <trkpt lat="47.56947" lon="6.80324">
        <ele>410</ele>
        <time>2015-11-01T10:48:53.000Z</time>
      </trkpt>
      <trkpt lat="47.56942" lon="6.80324">
        <ele>409</ele>
        <time>2015-11-01T10:48:54.000Z</time>
      </trkpt>
      <trkpt lat="47.56936" lon="6.80324">
        <ele>409</ele>
        <time>2015-11-01T10:48:55.000Z</time>
      </trkpt>
      <trkpt lat="47.5693" lon="6.80324">
        <ele>409</ele>
        <time>2015-11-01T10:48:56.000Z</time>
      </trkpt>
      <trkpt lat="47.56924" lon="6.80324">
        <ele>409</ele>
        <time>2015-11-01T10:48:57.000Z</time>
      </trkpt>
      <trkpt lat="47.56918" lon="6.80324">
        <ele>409</ele>
        <time>2015-11-01T10:48:58.000Z</time>
      </trkpt>
      <trkpt lat="47.56912" lon="6.80325">
        <ele>408</ele>
        <time>2015-11-01T10:48:59.000Z</time>
      </trkpt>
      <trkpt lat="47.56906" lon="6.80325">
        <ele>407</ele>
        <time>2015-11-01T10:49:00.000Z</time>
      </trkpt>
      <trkpt lat="47.56899" lon="6.80325">
        <ele>407</ele>
        <time>2015-11-01T10:49:01.000Z</time>
      </trkpt>
      <trkpt lat="47.56893" lon="6.80325">
        <ele>406</ele>
        <time>2015-11-01T10:49:02.000Z</time>
      </trkpt>
      <trkpt lat="47.56887" lon="6.80323">
        <ele>406</ele>
        <time>2015-11-01T10:49:03.000Z</time>
      </trkpt>
      <trkpt lat="47.5688" lon="6.80322">
        <ele>406</ele>
        <time>2015-11-01T10:49:04.000Z</time>
      </trkpt>
      <trkpt lat="47.56873" lon="6.8032">
        <ele>405</ele>
        <time>2015-11-01T10:49:05.000Z</time>
      </trkpt>
      <trkpt lat="47.56866" lon="6.80315">
        <ele>405</ele>
        <time>2015-11-01T10:49:06.000Z</time>
      </trkpt>
      <trkpt lat="47.56859" lon="6.80311">
        <ele>405</ele>
        <time>2015-11-01T10:49:07.000Z</time>
      </trkpt>
      <trkpt lat="47.56852" lon="6.80306">
        <ele>404</ele>
        <time>2015-11-01T10:49:08.000Z</time>
      </trkpt>
      <trkpt lat="47.56844" lon="6.80301">
        <ele>404</ele>
        <time>2015-11-01T10:49:09.000Z</time>
      </trkpt>
      <trkpt lat="47.56837" lon="6.80296">
        <ele>404</ele>
        <time>2015-11-01T10:49:10.000Z</time>
      </trkpt>
      <trkpt lat="47.56828" lon="6.80291">
        <ele>400</ele>
        <time>2015-11-01T10:49:11.000Z</time>
      </trkpt>
      <trkpt lat="47.5682" lon="6.80287">
        <ele>400</ele>
        <time>2015-11-01T10:49:12.000Z</time>
      </trkpt>
      <trkpt lat="47.56812" lon="6.80282">
        <ele>399</ele>
        <time>2015-11-01T10:49:13.000Z</time>
      </trkpt>
      <trkpt lat="47.56804" lon="6.80277">
        <ele>399</ele>
        <time>2015-11-01T10:49:14.000Z</time>
      </trkpt>
      <trkpt lat="47.56796" lon="6.80271">
        <ele>398</ele>
        <time>2015-11-01T10:49:15.000Z</time>
      </trkpt>
      <trkpt lat="47.56789" lon="6.80265">
        <ele>398</ele>
        <time>2015-11-01T10:49:16.000Z</time>
      </trkpt>
      <trkpt lat="47.56781" lon="6.80258">
        <ele>397</ele>
        <time>2015-11-01T10:49:17.000Z</time>
      </trkpt>
      <trkpt lat="47.56773" lon="6.80251">
        <ele>396</ele>
        <time>2015-11-01T10:49:18.000Z</time>
      </trkpt>
      <trkpt lat="47.56765" lon="6.80243">
        <ele>395</ele>
        <time>2015-11-01T10:49:19.000Z</time>
      </trkpt>
      <trkpt lat="47.56757" lon="6.80235">
        <ele>395</ele>
        <time>2015-11-01T10:49:20.000Z</time>
      </trkpt>
      <trkpt lat="47.56749" lon="6.80227">
        <ele>390</ele>
        <time>2015-11-01T10:49:21.000Z</time>
      </trkpt>
      <trkpt lat="47.56741" lon="6.80219">
        <ele>390</ele>
        <time>2015-11-01T10:49:22.000Z</time>
      </trkpt>
      <trkpt lat="47.56733" lon="6.80211">
        <ele>389</ele>
        <time>2015-11-01T10:49:23.000Z</time>
      </trkpt>
      <trkpt lat="47.56725" lon="6.80203">
        <ele>389</ele>
        <time>2015-11-01T10:49:24.000Z</time>
      </trkpt>
      <trkpt lat="47.56717" lon="6.80195">
        <ele>389</ele>
        <time>2015-11-01T10:49:25.000Z</time>
      </trkpt>
      <trkpt lat="47.56709" lon="6.80187">
        <ele>388</ele>
        <time>2015-11-01T10:49:26.000Z</time>
      </trkpt>
      <trkpt lat="47.56701" lon="6.80179">
        <ele>388</ele>
        <time>2015-11-01T10:49:27.000Z</time>
      </trkpt>
      <trkpt lat="47.56693" lon="6.80171">
        <ele>387</ele>
        <time>2015-11-01T10:49:28.000Z</time>
      </trkpt>
      <trkpt lat="47.56684" lon="6.80164">
        <ele>386</ele>
        <time>2015-11-01T10:49:29.000Z</time>
      </trkpt>
      <trkpt lat="47.56675" lon="6.80158">
        <ele>386</ele>
        <time>2015-11-01T10:49:30.000Z</time>
      </trkpt>
      <trkpt lat="47.56667" lon="6.80152">
        <ele>384</ele>
        <time>2015-11-01T10:49:31.000Z</time>
      </trkpt>
      <trkpt lat="47.56658" lon="6.80147">
        <ele>384</ele>
        <time>2015-11-01T10:49:32.000Z</time>
      </trkpt>
      <trkpt lat="47.56649" lon="6.80143">
        <ele>383</ele>
        <time>2015-11-01T10:49:33.000Z</time>
      </trkpt>
      <trkpt lat="47.5664" lon="6.80138">
        <ele>383</ele>
        <time>2015-11-01T10:49:34.000Z</time>
      </trkpt>
      <trkpt lat="47.56632" lon="6.80133">
        <ele>383</ele>
        <time>2015-11-01T10:49:35.000Z</time>
      </trkpt>
      <trkpt lat="47.56624" lon="6.80127">
        <ele>383</ele>
        <time>2015-11-01T10:49:36.000Z</time>
      </trkpt>
      <trkpt lat="47.56617" lon="6.8012">
        <ele>383</ele>
        <time>2015-11-01T10:49:37.000Z</time>
      </trkpt>
      <trkpt lat="47.5661" lon="6.80114">
        <ele>383</ele>
        <time>2015-11-01T10:49:38.000Z</time>
      </trkpt>
      <trkpt lat="47.56603" lon="6.80109">
        <ele>382</ele>
        <time>2015-11-01T10:49:39.000Z</time>
      </trkpt>
      <trkpt lat="47.56596" lon="6.80106">
        <ele>382</ele>
        <time>2015-11-01T10:49:40.000Z</time>
      </trkpt>
      <trkpt lat="47.56588" lon="6.80104">
        <ele>382</ele>
        <time>2015-11-01T10:49:41.000Z</time>
      </trkpt>
      <trkpt lat="47.56579" lon="6.80104">
        <ele>380</ele>
        <time>2015-11-01T10:49:42.000Z</time>
      </trkpt>
      <trkpt lat="47.56571" lon="6.80105">
        <ele>380</ele>
        <time>2015-11-01T10:49:43.000Z</time>
      </trkpt>
      <trkpt lat="47.56562" lon="6.80108">
        <ele>380</ele>
        <time>2015-11-01T10:49:44.000Z</time>
      </trkpt>
      <trkpt lat="47.56553" lon="6.8011">
        <ele>380</ele>
        <time>2015-11-01T10:49:45.000Z</time>
      </trkpt>
      <trkpt lat="47.56543" lon="6.80112">
        <ele>379</ele>
        <time>2015-11-01T10:49:46.000Z</time>
      </trkpt>
      <trkpt lat="47.56534" lon="6.80114">
        <ele>379</ele>
        <time>2015-11-01T10:49:47.000Z</time>
      </trkpt>
      <trkpt lat="47.56525" lon="6.80117">
        <ele>379</ele>
        <time>2015-11-01T10:49:48.000Z</time>
      </trkpt>
      <trkpt lat="47.56516" lon="6.80119">
        <ele>379</ele>
        <time>2015-11-01T10:49:49.000Z</time>
      </trkpt>
      <trkpt lat="47.56507" lon="6.80121">
        <ele>379</ele>
        <time>2015-11-01T10:49:50.000Z</time>
      </trkpt>
      <trkpt lat="47.56498" lon="6.80122">
        <ele>377</ele>
        <time>2015-11-01T10:49:51.001Z</time>
      </trkpt>
      <trkpt lat="47.56489" lon="6.80125">
        <ele>377</ele>
        <time>2015-11-01T10:49:52.000Z</time>
      </trkpt>
      <trkpt lat="47.56481" lon="6.80127">
        <ele>377</ele>
        <time>2015-11-01T10:49:53.000Z</time>
      </trkpt>
      <trkpt lat="47.56472" lon="6.8013">
        <ele>377</ele>
        <time>2015-11-01T10:49:53.999Z</time>
      </trkpt>
      <trkpt lat="47.56464" lon="6.80131">
        <ele>377</ele>
        <time>2015-11-01T10:49:55.000Z</time>
      </trkpt>
      <trkpt lat="47.56455" lon="6.80132">
        <ele>377</ele>
        <time>2015-11-01T10:49:56.000Z</time>
      </trkpt>
      <trkpt lat="47.56447" lon="6.80133">
        <ele>377</ele>
        <time>2015-11-01T10:49:57.001Z</time>
      </trkpt>
      <trkpt lat="47.56439" lon="6.80134">
        <ele>377</ele>
        <time>2015-11-01T10:49:58.000Z</time>
      </trkpt>
      <trkpt lat="47.5643" lon="6.80132">
        <ele>377</ele>
        <time>2015-11-01T10:49:59.000Z</time>
      </trkpt>
      <trkpt lat="47.56422" lon="6.80131">
        <ele>377</ele>
        <time>2015-11-01T10:50:00.000Z</time>
      </trkpt>
      <trkpt lat="47.56415" lon="6.80131">
        <ele>378</ele>
        <time>2015-11-01T10:50:01.000Z</time>
      </trkpt>
      <trkpt lat="47.56407" lon="6.80129">
        <ele>378</ele>
        <time>2015-11-01T10:50:02.000Z</time>
      </trkpt>
      <trkpt lat="47.564" lon="6.80128">
        <ele>378</ele>
        <time>2015-11-01T10:50:03.000Z</time>
      </trkpt>
      <trkpt lat="47.56392" lon="6.80126">
        <ele>378</ele>
        <time>2015-11-01T10:50:04.000Z</time>
      </trkpt>
      <trkpt lat="47.56385" lon="6.80124">
        <ele>378</ele>
        <time>2015-11-01T10:50:05.000Z</time>
      </trkpt>
      <trkpt lat="47.56378" lon="6.80123">
        <ele>378</ele>
        <time>2015-11-01T10:50:06.000Z</time>
      </trkpt>
      <trkpt lat="47.56373" lon="6.80121">
        <ele>378</ele>
        <time>2015-11-01T10:50:07.000Z</time>
      </trkpt>
      <trkpt lat="47.56368" lon="6.8012">
        <ele>378</ele>
        <time>2015-11-01T10:50:08.000Z</time>
      </trkpt>
      <trkpt lat="47.56364" lon="6.8012">
        <ele>378</ele>
        <time>2015-11-01T10:50:09.000Z</time>
      </trkpt>
      <trkpt lat="47.56359" lon="6.80119">
        <ele>378</ele>
        <time>2015-11-01T10:50:10.000Z</time>
      </trkpt>
      <trkpt lat="47.56348" lon="6.80116">
        <ele>378</ele>
        <time>2015-11-01T10:50:11.000Z</time>
      </trkpt>
      <trkpt lat="47.5634" lon="6.80114">
        <ele>378</ele>
        <time>2015-11-01T10:50:12.000Z</time>
      </trkpt>
      <trkpt lat="47.56332" lon="6.80113">
        <ele>378</ele>
        <time>2015-11-01T10:50:13.000Z</time>
      </trkpt>
      <trkpt lat="47.56325" lon="6.80112">
        <ele>378</ele>
        <time>2015-11-01T10:50:14.000Z</time>
      </trkpt>
      <trkpt lat="47.56319" lon="6.80115">
        <ele>378</ele>
        <time>2015-11-01T10:50:15.000Z</time>
      </trkpt>
      <trkpt lat="47.56313" lon="6.80117">
        <ele>379</ele>
        <time>2015-11-01T10:50:16.000Z</time>
      </trkpt>
      <trkpt lat="47.56309" lon="6.8012">
        <ele>379</ele>
        <time>2015-11-01T10:50:17.000Z</time>
      </trkpt>
      <trkpt lat="47.56302" lon="6.80122">
        <ele>379</ele>
        <time>2015-11-01T10:50:18.000Z</time>
      </trkpt>
      <trkpt lat="47.56297" lon="6.80124">
        <ele>379</ele>
        <time>2015-11-01T10:50:19.000Z</time>
      </trkpt>
      <trkpt lat="47.5629" lon="6.80128">
        <ele>379</ele>
        <time>2015-11-01T10:50:20.000Z</time>
      </trkpt>
      <trkpt lat="47.56285" lon="6.80131">
        <ele>379</ele>
        <time>2015-11-01T10:50:21.000Z</time>
      </trkpt>
      <trkpt lat="47.56281" lon="6.80133">
        <ele>379</ele>
        <time>2015-11-01T10:50:22.000Z</time>
      </trkpt>
      <trkpt lat="47.56275" lon="6.80135">
        <ele>379</ele>
        <time>2015-11-01T10:50:23.000Z</time>
      </trkpt>
      <trkpt lat="47.56269" lon="6.80139">
        <ele>379</ele>
        <time>2015-11-01T10:50:24.000Z</time>
      </trkpt>
      <trkpt lat="47.56264" lon="6.80142">
        <ele>379</ele>
        <time>2015-11-01T10:50:25.000Z</time>
      </trkpt>
      <trkpt lat="47.56256" lon="6.80147">
        <ele>379</ele>
        <time>2015-11-01T10:50:26.000Z</time>
      </trkpt>
      <trkpt lat="47.56249" lon="6.80149">
        <ele>380</ele>
        <time>2015-11-01T10:50:27.000Z</time>
      </trkpt>
      <trkpt lat="47.56242" lon="6.80153">
        <ele>380</ele>
        <time>2015-11-01T10:50:28.000Z</time>
      </trkpt>
      <trkpt lat="47.56237" lon="6.80157">
        <ele>380</ele>
        <time>2015-11-01T10:50:29.000Z</time>
      </trkpt>
      <trkpt lat="47.5623" lon="6.80159">
        <ele>379</ele>
        <time>2015-11-01T10:50:30.000Z</time>
      </trkpt>
      <trkpt lat="47.56225" lon="6.8016">
        <ele>379</ele>
        <time>2015-11-01T10:50:31.000Z</time>
      </trkpt>
      <trkpt lat="47.56219" lon="6.80162">
        <ele>379</ele>
        <time>2015-11-01T10:50:32.000Z</time>
      </trkpt>
      <trkpt lat="47.56213" lon="6.80162">
        <ele>379</ele>
        <time>2015-11-01T10:50:33.000Z</time>
      </trkpt>
      <trkpt lat="47.56207" lon="6.80163">
        <ele>379</ele>
        <time>2015-11-01T10:50:34.000Z</time>
      </trkpt>
      <trkpt lat="47.56201" lon="6.80163">
        <ele>379</ele>
        <time>2015-11-01T10:50:35.000Z</time>
      </trkpt>
      <trkpt lat="47.56197" lon="6.80161">
        <ele>379</ele>
        <time>2015-11-01T10:50:36.000Z</time>
      </trkpt>
      <trkpt lat="47.56191" lon="6.8016">
        <ele>379</ele>
        <time>2015-11-01T10:50:37.000Z</time>
      </trkpt>
      <trkpt lat="47.56188" lon="6.80159">
        <ele>379</ele>
        <time>2015-11-01T10:50:38.000Z</time>
      </trkpt>
      <trkpt lat="47.56183" lon="6.80155">
        <ele>379</ele>
        <time>2015-11-01T10:50:39.000Z</time>
      </trkpt>
      <trkpt lat="47.56179" lon="6.80151">
        <ele>379</ele>
        <time>2015-11-01T10:50:40.000Z</time>
      </trkpt>
      <trkpt lat="47.56175" lon="6.80148">
        <ele>379</ele>
        <time>2015-11-01T10:50:41.000Z</time>
      </trkpt>
      <trkpt lat="47.5617" lon="6.80148">
        <ele>379</ele>
        <time>2015-11-01T10:50:42.000Z</time>
      </trkpt>
      <trkpt lat="47.56165" lon="6.80149">
        <ele>379</ele>
        <time>2015-11-01T10:50:43.000Z</time>
      </trkpt>
      <trkpt lat="47.5616" lon="6.80149">
        <ele>379</ele>
        <time>2015-11-01T10:50:44.000Z</time>
      </trkpt>
      <trkpt lat="47.56156" lon="6.8015">
        <ele>379</ele>
        <time>2015-11-01T10:50:45.000Z</time>
      </trkpt>
      <trkpt lat="47.56153" lon="6.80152">
        <ele>379</ele>
        <time>2015-11-01T10:50:46.000Z</time>
      </trkpt>
      <trkpt lat="47.5615" lon="6.80152">
        <ele>379</ele>
        <time>2015-11-01T10:50:47.000Z</time>
      </trkpt>
      <trkpt lat="47.56143" lon="6.80152">
        <ele>379</ele>
        <time>2015-11-01T10:50:48.000Z</time>
      </trkpt>
      <trkpt lat="47.56138" lon="6.80153">
        <ele>379</ele>
        <time>2015-11-01T10:50:49.000Z</time>
      </trkpt>
      <trkpt lat="47.56134" lon="6.80154">
        <ele>379</ele>
        <time>2015-11-01T10:50:50.000Z</time>
      </trkpt>
      <trkpt lat="47.5613" lon="6.80154">
        <ele>379</ele>
        <time>2015-11-01T10:50:51.000Z</time>
      </trkpt>
      <trkpt lat="47.56125" lon="6.80155">
        <ele>379</ele>
        <time>2015-11-01T10:50:52.000Z</time>
      </trkpt>
      <trkpt lat="47.56122" lon="6.80157">
        <ele>379</ele>
        <time>2015-11-01T10:50:53.000Z</time>
      </trkpt>
      <trkpt lat="47.56118" lon="6.80159">
        <ele>379</ele>
        <time>2015-11-01T10:50:54.000Z</time>
      </trkpt>
      <trkpt lat="47.56115" lon="6.80162">
        <ele>379</ele>
        <time>2015-11-01T10:50:55.000Z</time>
      </trkpt>
      <trkpt lat="47.56112" lon="6.80165">
        <ele>379</ele>
        <time>2015-11-01T10:50:56.000Z</time>
      </trkpt>
      <trkpt lat="47.56109" lon="6.80168">
        <ele>380</ele>
        <time>2015-11-01T10:50:57.000Z</time>
      </trkpt>
      <trkpt lat="47.56106" lon="6.8017">
        <ele>380</ele>
        <time>2015-11-01T10:50:58.000Z</time>
      </trkpt>
      <trkpt lat="47.56103" lon="6.80174">
        <ele>380</ele>
        <time>2015-11-01T10:50:59.000Z</time>
      </trkpt>
      <trkpt lat="47.56101" lon="6.80177">
        <ele>380</ele>
        <time>2015-11-01T10:51:00.000Z</time>
      </trkpt>
      <trkpt lat="47.56098" lon="6.8018">
        <ele>380</ele>
        <time>2015-11-01T10:51:01.000Z</time>
      </trkpt>
      <trkpt lat="47.56096" lon="6.80183">
        <ele>380</ele>
        <time>2015-11-01T10:51:02.000Z</time>
      </trkpt>
      <trkpt lat="47.56094" lon="6.80187">
        <ele>381</ele>
        <time>2015-11-01T10:51:03.000Z</time>
      </trkpt>
      <trkpt lat="47.56091" lon="6.8019">
        <ele>381</ele>
        <time>2015-11-01T10:51:04.000Z</time>
      </trkpt>
      <trkpt lat="47.56089" lon="6.80194">
        <ele>381</ele>
        <time>2015-11-01T10:51:05.000Z</time>
      </trkpt>
      <trkpt lat="47.56087" lon="6.80197">
        <ele>381</ele>
        <time>2015-11-01T10:51:06.000Z</time>
      </trkpt>
      <trkpt lat="47.56084" lon="6.80199">
        <ele>381</ele>
        <time>2015-11-01T10:51:07.000Z</time>
      </trkpt>
      <trkpt lat="47.56081" lon="6.80201">
        <ele>382</ele>
        <time>2015-11-01T10:51:08.000Z</time>
      </trkpt>
      <trkpt lat="47.56078" lon="6.80203">
        <ele>382</ele>
        <time>2015-11-01T10:51:09.000Z</time>
      </trkpt>
      <trkpt lat="47.56074" lon="6.80205">
        <ele>382</ele>
        <time>2015-11-01T10:51:10.000Z</time>
      </trkpt>
      <trkpt lat="47.5607" lon="6.80206">
        <ele>382</ele>
        <time>2015-11-01T10:51:11.000Z</time>
      </trkpt>
      <trkpt lat="47.56067" lon="6.80207">
        <ele>383</ele>
        <time>2015-11-01T10:51:12.000Z</time>
      </trkpt>
      <trkpt lat="47.5606" lon="6.80204">
        <ele>383</ele>
        <time>2015-11-01T10:51:13.000Z</time>
      </trkpt>
      <trkpt lat="47.56055" lon="6.80205">
        <ele>383</ele>
        <time>2015-11-01T10:51:14.000Z</time>
      </trkpt>
      <trkpt lat="47.5605" lon="6.80206">
        <ele>383</ele>
        <time>2015-11-01T10:51:15.000Z</time>
      </trkpt>
      <trkpt lat="47.56045" lon="6.80207">
        <ele>383</ele>
        <time>2015-11-01T10:51:16.000Z</time>
      </trkpt>
      <trkpt lat="47.56042" lon="6.80208">
        <ele>383</ele>
        <time>2015-11-01T10:51:17.000Z</time>
      </trkpt>
      <trkpt lat="47.56038" lon="6.80208">
        <ele>383</ele>
        <time>2015-11-01T10:51:18.000Z</time>
      </trkpt>
      <trkpt lat="47.56032" lon="6.80208">
        <ele>383</ele>
        <time>2015-11-01T10:51:19.000Z</time>
      </trkpt>
      <trkpt lat="47.56028" lon="6.80207">
        <ele>383</ele>
        <time>2015-11-01T10:51:20.000Z</time>
      </trkpt>
      <trkpt lat="47.56025" lon="6.80207">
        <ele>383</ele>
        <time>2015-11-01T10:51:21.000Z</time>
      </trkpt>
      <trkpt lat="47.56021" lon="6.80205">
        <ele>383</ele>
        <time>2015-11-01T10:51:22.000Z</time>
      </trkpt>
      <trkpt lat="47.56017" lon="6.80202">
        <ele>383</ele>
        <time>2015-11-01T10:51:23.000Z</time>
      </trkpt>
      <trkpt lat="47.56015" lon="6.802">
        <ele>383</ele>
        <time>2015-11-01T10:51:24.000Z</time>
      </trkpt>
      <trkpt lat="47.56012" lon="6.80197">
        <ele>383</ele>
        <time>2015-11-01T10:51:25.000Z</time>
      </trkpt>
      <trkpt lat="47.5601" lon="6.80192">
        <ele>383</ele>
        <time>2015-11-01T10:51:26.000Z</time>
      </trkpt>
      <trkpt lat="47.5601" lon="6.80189">
        <ele>383</ele>
        <time>2015-11-01T10:51:27.000Z</time>
      </trkpt>
      <trkpt lat="47.56011" lon="6.80186">
        <ele>383</ele>
        <time>2015-11-01T10:51:28.000Z</time>
      </trkpt>
      <trkpt lat="47.56012" lon="6.80181">
        <ele>383</ele>
        <time>2015-11-01T10:51:29.000Z</time>
      </trkpt>
      <trkpt lat="47.56013" lon="6.80175">
        <ele>382</ele>
        <time>2015-11-01T10:51:31.000Z</time>
      </trkpt>
      <trkpt lat="47.56014" lon="6.80172">
        <ele>382</ele>
        <time>2015-11-01T10:51:32.000Z</time>
      </trkpt>
      <trkpt lat="47.56014" lon="6.80169">
        <ele>382</ele>
        <time>2015-11-01T10:51:33.000Z</time>
      </trkpt>
      <trkpt lat="47.56015" lon="6.80165">
        <ele>382</ele>
        <time>2015-11-01T10:51:34.000Z</time>
      </trkpt>
      <trkpt lat="47.56016" lon="6.80161">
        <ele>382</ele>
        <time>2015-11-01T10:51:35.000Z</time>
      </trkpt>
      <trkpt lat="47.56016" lon="6.80158">
        <ele>381</ele>
        <time>2015-11-01T10:51:36.000Z</time>
      </trkpt>
      <trkpt lat="47.56018" lon="6.80151">
        <ele>381</ele>
        <time>2015-11-01T10:51:38.000Z</time>
      </trkpt>
      <trkpt lat="47.56018" lon="6.80149">
        <ele>381</ele>
        <time>2015-11-01T10:51:39.000Z</time>
      </trkpt>
      <trkpt lat="47.56018" lon="6.80145">
        <ele>381</ele>
        <time>2015-11-01T10:51:40.000Z</time>
      </trkpt>
      <trkpt lat="47.56018" lon="6.80141">
        <ele>381</ele>
        <time>2015-11-01T10:51:41.000Z</time>
      </trkpt>
      <trkpt lat="47.56019" lon="6.80137">
        <ele>381</ele>
        <time>2015-11-01T10:51:42.000Z</time>
      </trkpt>
      <trkpt lat="47.56019" lon="6.80133">
        <ele>381</ele>
        <time>2015-11-01T10:51:43.000Z</time>
      </trkpt>
      <trkpt lat="47.56019" lon="6.80129">
        <ele>381</ele>
        <time>2015-11-01T10:51:44.000Z</time>
      </trkpt>
      <trkpt lat="47.5602" lon="6.80125">
        <ele>381</ele>
        <time>2015-11-01T10:51:45.000Z</time>
      </trkpt>
      <trkpt lat="47.5602" lon="6.8012">
        <ele>381</ele>
        <time>2015-11-01T10:51:46.000Z</time>
      </trkpt>
      <trkpt lat="47.5602" lon="6.80116">
        <ele>381</ele>
        <time>2015-11-01T10:51:47.000Z</time>
      </trkpt>
      <trkpt lat="47.56021" lon="6.8011">
        <ele>381</ele>
        <time>2015-11-01T10:51:48.000Z</time>
      </trkpt>
      <trkpt lat="47.56021" lon="6.80105">
        <ele>381</ele>
        <time>2015-11-01T10:51:49.000Z</time>
      </trkpt>
      <trkpt lat="47.56022" lon="6.801">
        <ele>381</ele>
        <time>2015-11-01T10:51:50.000Z</time>
      </trkpt>
      <trkpt lat="47.56022" lon="6.80095">
        <ele>381</ele>
        <time>2015-11-01T10:51:51.000Z</time>
      </trkpt>
      <trkpt lat="47.56023" lon="6.8009">
        <ele>381</ele>
        <time>2015-11-01T10:51:52.000Z</time>
      </trkpt>
      <trkpt lat="47.56023" lon="6.80085">
        <ele>381</ele>
        <time>2015-11-01T10:51:53.000Z</time>
      </trkpt>
      <trkpt lat="47.56024" lon="6.8008">
        <ele>382</ele>
        <time>2015-11-01T10:51:54.000Z</time>
      </trkpt>
      <trkpt lat="47.56024" lon="6.80076">
        <ele>382</ele>
        <time>2015-11-01T10:51:55.000Z</time>
      </trkpt>
      <trkpt lat="47.56024" lon="6.80071">
        <ele>382</ele>
        <time>2015-11-01T10:51:56.000Z</time>
      </trkpt>
      <trkpt lat="47.56024" lon="6.80066">
        <ele>382</ele>
        <time>2015-11-01T10:51:57.000Z</time>
      </trkpt>
      <trkpt lat="47.56024" lon="6.80062">
        <ele>382</ele>
        <time>2015-11-01T10:51:58.000Z</time>
      </trkpt>
      <trkpt lat="47.56024" lon="6.80057">
        <ele>382</ele>
        <time>2015-11-01T10:51:59.000Z</time>
      </trkpt>
      <trkpt lat="47.56024" lon="6.80053">
        <ele>382</ele>
        <time>2015-11-01T10:52:00.000Z</time>
      </trkpt>
      <trkpt lat="47.56024" lon="6.80048">
        <ele>382</ele>
        <time>2015-11-01T10:52:01.000Z</time>
      </trkpt>
      <trkpt lat="47.56024" lon="6.80044">
        <ele>382</ele>
        <time>2015-11-01T10:52:02.000Z</time>
      </trkpt>
      <trkpt lat="47.56024" lon="6.8004">
        <ele>382</ele>
        <time>2015-11-01T10:52:03.000Z</time>
      </trkpt>
      <trkpt lat="47.56025" lon="6.80036">
        <ele>382</ele>
        <time>2015-11-01T10:52:04.000Z</time>
      </trkpt>
      <trkpt lat="47.56025" lon="6.80032">
        <ele>382</ele>
        <time>2015-11-01T10:52:05.000Z</time>
      </trkpt>
      <trkpt lat="47.56025" lon="6.80028">
        <ele>382</ele>
        <time>2015-11-01T10:52:06.000Z</time>
      </trkpt>
      <trkpt lat="47.56025" lon="6.80024">
        <ele>382</ele>
        <time>2015-11-01T10:52:07.000Z</time>
      </trkpt>
      <trkpt lat="47.56025" lon="6.80019">
        <ele>382</ele>
        <time>2015-11-01T10:52:08.000Z</time>
      </trkpt>
      <trkpt lat="47.56025" lon="6.80015">
        <ele>382</ele>
        <time>2015-11-01T10:52:09.000Z</time>
      </trkpt>
      <trkpt lat="47.56025" lon="6.80011">
        <ele>382</ele>
        <time>2015-11-01T10:52:10.000Z</time>
      </trkpt>
      <trkpt lat="47.56025" lon="6.80007">
        <ele>382</ele>
        <time>2015-11-01T10:52:11.000Z</time>
      </trkpt>
      <trkpt lat="47.56025" lon="6.80003">
        <ele>382</ele>
        <time>2015-11-01T10:52:12.000Z</time>
      </trkpt>
      <trkpt lat="47.56025" lon="6.79999">
        <ele>383</ele>
        <time>2015-11-01T10:52:13.000Z</time>
      </trkpt>
      <trkpt lat="47.56024" lon="6.79994">
        <ele>383</ele>
        <time>2015-11-01T10:52:14.000Z</time>
      </trkpt>
      <trkpt lat="47.56024" lon="6.7999">
        <ele>383</ele>
        <time>2015-11-01T10:52:15.000Z</time>
      </trkpt>
      <trkpt lat="47.56024" lon="6.79985">
        <ele>383</ele>
        <time>2015-11-01T10:52:16.000Z</time>
      </trkpt>
      <trkpt lat="47.56024" lon="6.79981">
        <ele>383</ele>
        <time>2015-11-01T10:52:17.000Z</time>
      </trkpt>
      <trkpt lat="47.56023" lon="6.79976">
        <ele>383</ele>
        <time>2015-11-01T10:52:18.000Z</time>
      </trkpt>
      <trkpt lat="47.56023" lon="6.79971">
        <ele>383</ele>
        <time>2015-11-01T10:52:19.000Z</time>
      </trkpt>
      <trkpt lat="47.56022" lon="6.79966">
        <ele>383</ele>
        <time>2015-11-01T10:52:20.000Z</time>
      </trkpt>
      <trkpt lat="47.56022" lon="6.79961">
        <ele>383</ele>
        <time>2015-11-01T10:52:21.000Z</time>
      </trkpt>
      <trkpt lat="47.56021" lon="6.79955">
        <ele>383</ele>
        <time>2015-11-01T10:52:21.999Z</time>
      </trkpt>
      <trkpt lat="47.56021" lon="6.79949">
        <ele>384</ele>
        <time>2015-11-01T10:52:23.000Z</time>
      </trkpt>
      <trkpt lat="47.56021" lon="6.79943">
        <ele>384</ele>
        <time>2015-11-01T10:52:24.000Z</time>
      </trkpt>
      <trkpt lat="47.56021" lon="6.79937">
        <ele>384</ele>
        <time>2015-11-01T10:52:25.001Z</time>
      </trkpt>
      <trkpt lat="47.56021" lon="6.79927">
        <ele>384</ele>
        <time>2015-11-01T10:52:26.000Z</time>
      </trkpt>
      <trkpt lat="47.5602" lon="6.7992">
        <ele>385</ele>
        <time>2015-11-01T10:52:27.000Z</time>
      </trkpt>
      <trkpt lat="47.56019" lon="6.79913">
        <ele>385</ele>
        <time>2015-11-01T10:52:28.001Z</time>
      </trkpt>
      <trkpt lat="47.56018" lon="6.79906">
        <ele>385</ele>
        <time>2015-11-01T10:52:29.000Z</time>
      </trkpt>
      <trkpt lat="47.56018" lon="6.79899">
        <ele>385</ele>
        <time>2015-11-01T10:52:30.000Z</time>
      </trkpt>
      <trkpt lat="47.56018" lon="6.79891">
        <ele>385</ele>
        <time>2015-11-01T10:52:31.000Z</time>
      </trkpt>
      <trkpt lat="47.56017" lon="6.79884">
        <ele>385</ele>
        <time>2015-11-01T10:52:32.000Z</time>
      </trkpt>
      <trkpt lat="47.56017" lon="6.79876">
        <ele>385</ele>
        <time>2015-11-01T10:52:33.000Z</time>
      </trkpt>
      <trkpt lat="47.56016" lon="6.79868">
        <ele>385</ele>
        <time>2015-11-01T10:52:34.000Z</time>
      </trkpt>
      <trkpt lat="47.56015" lon="6.79861">
        <ele>385</ele>
        <time>2015-11-01T10:52:35.000Z</time>
      </trkpt>
      <trkpt lat="47.56015" lon="6.79854">
        <ele>385</ele>
        <time>2015-11-01T10:52:36.000Z</time>
      </trkpt>
      <trkpt lat="47.56014" lon="6.79845">
        <ele>385</ele>
        <time>2015-11-01T10:52:37.000Z</time>
      </trkpt>
      <trkpt lat="47.56013" lon="6.79836">
        <ele>386</ele>
        <time>2015-11-01T10:52:38.000Z</time>
      </trkpt>
      <trkpt lat="47.56013" lon="6.79827">
        <ele>386</ele>
        <time>2015-11-01T10:52:39.000Z</time>
      </trkpt>
      <trkpt lat="47.56012" lon="6.79818">
        <ele>386</ele>
        <time>2015-11-01T10:52:40.000Z</time>
      </trkpt>
      <trkpt lat="47.56011" lon="6.79809">
        <ele>386</ele>
        <time>2015-11-01T10:52:41.001Z</time>
      </trkpt>
      <trkpt lat="47.5601" lon="6.79801">
        <ele>386</ele>
        <time>2015-11-01T10:52:42.000Z</time>
      </trkpt>
      <trkpt lat="47.56008" lon="6.79793">
        <ele>386</ele>
        <time>2015-11-01T10:52:43.000Z</time>
      </trkpt>
      <trkpt lat="47.56007" lon="6.79785">
        <ele>386</ele>
        <time>2015-11-01T10:52:44.000Z</time>
      </trkpt>
      <trkpt lat="47.56006" lon="6.79777">
        <ele>386</ele>
        <time>2015-11-01T10:52:45.000Z</time>
      </trkpt>
      <trkpt lat="47.56005" lon="6.79768">
        <ele>386</ele>
        <time>2015-11-01T10:52:46.000Z</time>
      </trkpt>
      <trkpt lat="47.56005" lon="6.79762">
        <ele>386</ele>
        <time>2015-11-01T10:52:47.000Z</time>
      </trkpt>
      <trkpt lat="47.56003" lon="6.79754">
        <ele>387</ele>
        <time>2015-11-01T10:52:48.000Z</time>
      </trkpt>
      <trkpt lat="47.56001" lon="6.79747">
        <ele>387</ele>
        <time>2015-11-01T10:52:49.000Z</time>
      </trkpt>
      <trkpt lat="47.55999" lon="6.79741">
        <ele>387</ele>
        <time>2015-11-01T10:52:50.001Z</time>
      </trkpt>
      <trkpt lat="47.55996" lon="6.79733">
        <ele>388</ele>
        <time>2015-11-01T10:52:51.000Z</time>
      </trkpt>
      <trkpt lat="47.55992" lon="6.79727">
        <ele>388</ele>
        <time>2015-11-01T10:52:52.000Z</time>
      </trkpt>
      <trkpt lat="47.55988" lon="6.79718">
        <ele>388</ele>
        <time>2015-11-01T10:52:53.000Z</time>
      </trkpt>
      <trkpt lat="47.55985" lon="6.79711">
        <ele>388</ele>
        <time>2015-11-01T10:52:54.000Z</time>
      </trkpt>
      <trkpt lat="47.55982" lon="6.79704">
        <ele>388</ele>
        <time>2015-11-01T10:52:55.002Z</time>
      </trkpt>
      <trkpt lat="47.55976" lon="6.79701">
        <ele>388</ele>
        <time>2015-11-01T10:52:56.000Z</time>
      </trkpt>
      <trkpt lat="47.55973" lon="6.79699">
        <ele>388</ele>
        <time>2015-11-01T10:52:57.000Z</time>
      </trkpt>
      <trkpt lat="47.55968" lon="6.79695">
        <ele>388</ele>
        <time>2015-11-01T10:52:58.000Z</time>
      </trkpt>
      <trkpt lat="47.55963" lon="6.79693">
        <ele>388</ele>
        <time>2015-11-01T10:52:59.000Z</time>
      </trkpt>
      <trkpt lat="47.55959" lon="6.7969">
        <ele>388</ele>
        <time>2015-11-01T10:53:00.000Z</time>
      </trkpt>
      <trkpt lat="47.55955" lon="6.79686">
        <ele>388</ele>
        <time>2015-11-01T10:53:01.000Z</time>
      </trkpt>
      <trkpt lat="47.55951" lon="6.79685">
        <ele>388</ele>
        <time>2015-11-01T10:53:02.000Z</time>
      </trkpt>
      <trkpt lat="47.55947" lon="6.79683">
        <ele>388</ele>
        <time>2015-11-01T10:53:03.000Z</time>
      </trkpt>
      <trkpt lat="47.55943" lon="6.7968">
        <ele>388</ele>
        <time>2015-11-01T10:53:04.000Z</time>
      </trkpt>
      <trkpt lat="47.55939" lon="6.79677">
        <ele>388</ele>
        <time>2015-11-01T10:53:05.000Z</time>
      </trkpt>
      <trkpt lat="47.55934" lon="6.79674">
        <ele>388</ele>
        <time>2015-11-01T10:53:06.000Z</time>
      </trkpt>
      <trkpt lat="47.55931" lon="6.7967">
        <ele>387</ele>
        <time>2015-11-01T10:53:07.000Z</time>
      </trkpt>
      <trkpt lat="47.55927" lon="6.79666">
        <ele>388</ele>
        <time>2015-11-01T10:53:08.000Z</time>
      </trkpt>
      <trkpt lat="47.55923" lon="6.79662">
        <ele>388</ele>
        <time>2015-11-01T10:53:09.000Z</time>
      </trkpt>
      <trkpt lat="47.55923" lon="6.79656">
        <ele>388</ele>
        <time>2015-11-01T10:53:10.000Z</time>
      </trkpt>
      <trkpt lat="47.55921" lon="6.79649">
        <ele>388</ele>
        <time>2015-11-01T10:53:11.000Z</time>
      </trkpt>
      <trkpt lat="47.55921" lon="6.79643">
        <ele>388</ele>
        <time>2015-11-01T10:53:12.000Z</time>
      </trkpt>
      <trkpt lat="47.5592" lon="6.79637">
        <ele>389</ele>
        <time>2015-11-01T10:53:13.000Z</time>
      </trkpt>
      <trkpt lat="47.5592" lon="6.7963">
        <ele>389</ele>
        <time>2015-11-01T10:53:14.000Z</time>
      </trkpt>
      <trkpt lat="47.55919" lon="6.79624">
        <ele>389</ele>
        <time>2015-11-01T10:53:15.000Z</time>
      </trkpt>
      <trkpt lat="47.55918" lon="6.79617">
        <ele>389</ele>
        <time>2015-11-01T10:53:16.000Z</time>
      </trkpt>
      <trkpt lat="47.55916" lon="6.79611">
        <ele>389</ele>
        <time>2015-11-01T10:53:17.000Z</time>
      </trkpt>
      <trkpt lat="47.55916" lon="6.79604">
        <ele>389</ele>
        <time>2015-11-01T10:53:18.000Z</time>
      </trkpt>
      <trkpt lat="47.55915" lon="6.79598">
        <ele>389</ele>
        <time>2015-11-01T10:53:19.000Z</time>
      </trkpt>
      <trkpt lat="47.55916" lon="6.79592">
        <ele>389</ele>
        <time>2015-11-01T10:53:20.000Z</time>
      </trkpt>
      <trkpt lat="47.55916" lon="6.79585">
        <ele>389</ele>
        <time>2015-11-01T10:53:21.000Z</time>
      </trkpt>
      <trkpt lat="47.55916" lon="6.79579">
        <ele>390</ele>
        <time>2015-11-01T10:53:22.000Z</time>
      </trkpt>
      <trkpt lat="47.55915" lon="6.79572">
        <ele>390</ele>
        <time>2015-11-01T10:53:23.000Z</time>
      </trkpt>
      <trkpt lat="47.55915" lon="6.79564">
        <ele>391</ele>
        <time>2015-11-01T10:53:24.000Z</time>
      </trkpt>
      <trkpt lat="47.55916" lon="6.79559">
        <ele>391</ele>
        <time>2015-11-01T10:53:25.000Z</time>
      </trkpt>
      <trkpt lat="47.55915" lon="6.79553">
        <ele>392</ele>
        <time>2015-11-01T10:53:26.000Z</time>
      </trkpt>
      <trkpt lat="47.55915" lon="6.79547">
        <ele>392</ele>
        <time>2015-11-01T10:53:27.000Z</time>
      </trkpt>
      <trkpt lat="47.55915" lon="6.79541">
        <ele>392</ele>
        <time>2015-11-01T10:53:28.000Z</time>
      </trkpt>
      <trkpt lat="47.55915" lon="6.79535">
        <ele>392</ele>
        <time>2015-11-01T10:53:29.000Z</time>
      </trkpt>
      <trkpt lat="47.55914" lon="6.79529">
        <ele>393</ele>
        <time>2015-11-01T10:53:30.000Z</time>
      </trkpt>
      <trkpt lat="47.55914" lon="6.79523">
        <ele>393</ele>
        <time>2015-11-01T10:53:31.000Z</time>
      </trkpt>
      <trkpt lat="47.55914" lon="6.79517">
        <ele>393</ele>
        <time>2015-11-01T10:53:32.000Z</time>
      </trkpt>
      <trkpt lat="47.55913" lon="6.79512">
        <ele>393</ele>
        <time>2015-11-01T10:53:33.000Z</time>
      </trkpt>
      <trkpt lat="47.55913" lon="6.79507">
        <ele>394</ele>
        <time>2015-11-01T10:53:34.000Z</time>
      </trkpt>
      <trkpt lat="47.55912" lon="6.79502">
        <ele>394</ele>
        <time>2015-11-01T10:53:35.000Z</time>
      </trkpt>
      <trkpt lat="47.55913" lon="6.79497">
        <ele>394</ele>
        <time>2015-11-01T10:53:36.000Z</time>
      </trkpt>
      <trkpt lat="47.55913" lon="6.79491">
        <ele>394</ele>
        <time>2015-11-01T10:53:37.000Z</time>
      </trkpt>
      <trkpt lat="47.55914" lon="6.79486">
        <ele>395</ele>
        <time>2015-11-01T10:53:38.000Z</time>
      </trkpt>
      <trkpt lat="47.55915" lon="6.79482">
        <ele>395</ele>
        <time>2015-11-01T10:53:39.000Z</time>
      </trkpt>
      <trkpt lat="47.55917" lon="6.79477">
        <ele>395</ele>
        <time>2015-11-01T10:53:40.000Z</time>
      </trkpt>
      <trkpt lat="47.55919" lon="6.79473">
        <ele>395</ele>
        <time>2015-11-01T10:53:41.000Z</time>
      </trkpt>
      <trkpt lat="47.55922" lon="6.79469">
        <ele>395</ele>
        <time>2015-11-01T10:53:42.000Z</time>
      </trkpt>
      <trkpt lat="47.55924" lon="6.79465">
        <ele>395</ele>
        <time>2015-11-01T10:53:43.000Z</time>
      </trkpt>
      <trkpt lat="47.55926" lon="6.79461">
        <ele>395</ele>
        <time>2015-11-01T10:53:44.000Z</time>
      </trkpt>
      <trkpt lat="47.55929" lon="6.79458">
        <ele>395</ele>
        <time>2015-11-01T10:53:45.000Z</time>
      </trkpt>
      <trkpt lat="47.55931" lon="6.79454">
        <ele>395</ele>
        <time>2015-11-01T10:53:46.000Z</time>
      </trkpt>
      <trkpt lat="47.55932" lon="6.79449">
        <ele>395</ele>
        <time>2015-11-01T10:53:47.000Z</time>
      </trkpt>
      <trkpt lat="47.55933" lon="6.79444">
        <ele>395</ele>
        <time>2015-11-01T10:53:48.000Z</time>
      </trkpt>
      <trkpt lat="47.55934" lon="6.79439">
        <ele>395</ele>
        <time>2015-11-01T10:53:49.000Z</time>
      </trkpt>
      <trkpt lat="47.55933" lon="6.79434">
        <ele>395</ele>
        <time>2015-11-01T10:53:50.000Z</time>
      </trkpt>
      <trkpt lat="47.55933" lon="6.79428">
        <ele>395</ele>
        <time>2015-11-01T10:53:51.000Z</time>
      </trkpt>
      <trkpt lat="47.55932" lon="6.79423">
        <ele>395</ele>
        <time>2015-11-01T10:53:52.000Z</time>
      </trkpt>
      <trkpt lat="47.55931" lon="6.79418">
        <ele>395</ele>
        <time>2015-11-01T10:53:53.000Z</time>
      </trkpt>
      <trkpt lat="47.5593" lon="6.79411">
        <ele>396</ele>
        <time>2015-11-01T10:53:54.000Z</time>
      </trkpt>
      <trkpt lat="47.5593" lon="6.79405">
        <ele>396</ele>
        <time>2015-11-01T10:53:55.000Z</time>
      </trkpt>
      <trkpt lat="47.55929" lon="6.79401">
        <ele>396</ele>
        <time>2015-11-01T10:53:56.000Z</time>
      </trkpt>
      <trkpt lat="47.55928" lon="6.79396">
        <ele>396</ele>
        <time>2015-11-01T10:53:57.000Z</time>
      </trkpt>
      <trkpt lat="47.55927" lon="6.79391">
        <ele>396</ele>
        <time>2015-11-01T10:53:58.000Z</time>
      </trkpt>
      <trkpt lat="47.55927" lon="6.79385">
        <ele>396</ele>
        <time>2015-11-01T10:53:58.999Z</time>
      </trkpt>
      <trkpt lat="47.55926" lon="6.7938">
        <ele>396</ele>
        <time>2015-11-01T10:54:00.000Z</time>
      </trkpt>
      <trkpt lat="47.55925" lon="6.79376">
        <ele>396</ele>
        <time>2015-11-01T10:54:01.000Z</time>
      </trkpt>
      <trkpt lat="47.55924" lon="6.79371">
        <ele>396</ele>
        <time>2015-11-01T10:54:01.999Z</time>
      </trkpt>
      <trkpt lat="47.55921" lon="6.79366">
        <ele>396</ele>
        <time>2015-11-01T10:54:03.000Z</time>
      </trkpt>
      <trkpt lat="47.5592" lon="6.79361">
        <ele>396</ele>
        <time>2015-11-01T10:54:04.000Z</time>
      </trkpt>
      <trkpt lat="47.5592" lon="6.79356">
        <ele>396</ele>
        <time>2015-11-01T10:54:05.000Z</time>
      </trkpt>
      <trkpt lat="47.55919" lon="6.7935">
        <ele>396</ele>
        <time>2015-11-01T10:54:06.000Z</time>
      </trkpt>
      <trkpt lat="47.55918" lon="6.79344">
        <ele>396</ele>
        <time>2015-11-01T10:54:07.000Z</time>
      </trkpt>
      <trkpt lat="47.55918" lon="6.79338">
        <ele>396</ele>
        <time>2015-11-01T10:54:08.000Z</time>
      </trkpt>
      <trkpt lat="47.55916" lon="6.79331">
        <ele>396</ele>
        <time>2015-11-01T10:54:09.000Z</time>
      </trkpt>
      <trkpt lat="47.55916" lon="6.79325">
        <ele>396</ele>
        <time>2015-11-01T10:54:10.000Z</time>
      </trkpt>
      <trkpt lat="47.55915" lon="6.79318">
        <ele>396</ele>
        <time>2015-11-01T10:54:11.000Z</time>
      </trkpt>
      <trkpt lat="47.55913" lon="6.79311">
        <ele>397</ele>
        <time>2015-11-01T10:54:12.000Z</time>
      </trkpt>
      <trkpt lat="47.55912" lon="6.79303">
        <ele>397</ele>
        <time>2015-11-01T10:54:13.000Z</time>
      </trkpt>
      <trkpt lat="47.55911" lon="6.79296">
        <ele>397</ele>
        <time>2015-11-01T10:54:14.000Z</time>
      </trkpt>
      <trkpt lat="47.5591" lon="6.7929">
        <ele>397</ele>
        <time>2015-11-01T10:54:15.000Z</time>
      </trkpt>
      <trkpt lat="47.55909" lon="6.79284">
        <ele>397</ele>
        <time>2015-11-01T10:54:16.000Z</time>
      </trkpt>
      <trkpt lat="47.55908" lon="6.79277">
        <ele>397</ele>
        <time>2015-11-01T10:54:17.000Z</time>
      </trkpt>
      <trkpt lat="47.55907" lon="6.79271">
        <ele>397</ele>
        <time>2015-11-01T10:54:18.000Z</time>
      </trkpt>
      <trkpt lat="47.55906" lon="6.79265">
        <ele>397</ele>
        <time>2015-11-01T10:54:19.000Z</time>
      </trkpt>
      <trkpt lat="47.55906" lon="6.79257">
        <ele>397</ele>
        <time>2015-11-01T10:54:20.000Z</time>
      </trkpt>
      <trkpt lat="47.55905" lon="6.7925">
        <ele>397</ele>
        <time>2015-11-01T10:54:21.000Z</time>
      </trkpt>
      <trkpt lat="47.55904" lon="6.79243">
        <ele>397</ele>
        <time>2015-11-01T10:54:22.000Z</time>
      </trkpt>
      <trkpt lat="47.55902" lon="6.79235">
        <ele>397</ele>
        <time>2015-11-01T10:54:23.000Z</time>
      </trkpt>
      <trkpt lat="47.55901" lon="6.79228">
        <ele>397</ele>
        <time>2015-11-01T10:54:24.000Z</time>
      </trkpt>
      <trkpt lat="47.559" lon="6.79221">
        <ele>398</ele>
        <time>2015-11-01T10:54:25.000Z</time>
      </trkpt>
      <trkpt lat="47.559" lon="6.79214">
        <ele>398</ele>
        <time>2015-11-01T10:54:26.000Z</time>
      </trkpt>
      <trkpt lat="47.559" lon="6.79206">
        <ele>398</ele>
        <time>2015-11-01T10:54:27.000Z</time>
      </trkpt>
      <trkpt lat="47.55899" lon="6.79199">
        <ele>398</ele>
        <time>2015-11-01T10:54:28.000Z</time>
      </trkpt>
      <trkpt lat="47.55898" lon="6.79192">
        <ele>398</ele>
        <time>2015-11-01T10:54:29.000Z</time>
      </trkpt>
      <trkpt lat="47.55897" lon="6.79186">
        <ele>398</ele>
        <time>2015-11-01T10:54:30.000Z</time>
      </trkpt>
      <trkpt lat="47.55896" lon="6.79178">
        <ele>398</ele>
        <time>2015-11-01T10:54:31.000Z</time>
      </trkpt>
      <trkpt lat="47.55895" lon="6.79172">
        <ele>398</ele>
        <time>2015-11-01T10:54:32.000Z</time>
      </trkpt>
      <trkpt lat="47.55894" lon="6.79165">
        <ele>396</ele>
        <time>2015-11-01T10:54:33.000Z</time>
      </trkpt>
      <trkpt lat="47.55893" lon="6.79157">
        <ele>396</ele>
        <time>2015-11-01T10:54:34.000Z</time>
      </trkpt>
      <trkpt lat="47.55892" lon="6.7915">
        <ele>396</ele>
        <time>2015-11-01T10:54:35.000Z</time>
      </trkpt>
      <trkpt lat="47.55891" lon="6.79143">
        <ele>396</ele>
        <time>2015-11-01T10:54:36.000Z</time>
      </trkpt>
      <trkpt lat="47.55889" lon="6.79135">
        <ele>396</ele>
        <time>2015-11-01T10:54:37.000Z</time>
      </trkpt>
      <trkpt lat="47.55888" lon="6.79128">
        <ele>396</ele>
        <time>2015-11-01T10:54:38.000Z</time>
      </trkpt>
      <trkpt lat="47.55888" lon="6.79122">
        <ele>395</ele>
        <time>2015-11-01T10:54:39.000Z</time>
      </trkpt>
      <trkpt lat="47.55886" lon="6.79117">
        <ele>395</ele>
        <time>2015-11-01T10:54:40.000Z</time>
      </trkpt>
      <trkpt lat="47.55885" lon="6.7911">
        <ele>395</ele>
        <time>2015-11-01T10:54:41.000Z</time>
      </trkpt>
      <trkpt lat="47.55884" lon="6.79102">
        <ele>395</ele>
        <time>2015-11-01T10:54:42.000Z</time>
      </trkpt>
      <trkpt lat="47.55882" lon="6.79096">
        <ele>395</ele>
        <time>2015-11-01T10:54:43.000Z</time>
      </trkpt>
      <trkpt lat="47.5588" lon="6.79089">
        <ele>395</ele>
        <time>2015-11-01T10:54:44.000Z</time>
      </trkpt>
      <trkpt lat="47.55879" lon="6.79082">
        <ele>391</ele>
        <time>2015-11-01T10:54:45.000Z</time>
      </trkpt>
      <trkpt lat="47.55877" lon="6.79074">
        <ele>391</ele>
        <time>2015-11-01T10:54:46.000Z</time>
      </trkpt>
      <trkpt lat="47.55875" lon="6.79066">
        <ele>391</ele>
        <time>2015-11-01T10:54:47.000Z</time>
      </trkpt>
      <trkpt lat="47.55873" lon="6.79057">
        <ele>391</ele>
        <time>2015-11-01T10:54:48.000Z</time>
      </trkpt>
      <trkpt lat="47.55872" lon="6.79049">
        <ele>391</ele>
        <time>2015-11-01T10:54:49.000Z</time>
      </trkpt>
      <trkpt lat="47.5587" lon="6.7904">
        <ele>391</ele>
        <time>2015-11-01T10:54:50.000Z</time>
      </trkpt>
      <trkpt lat="47.55869" lon="6.79031">
        <ele>390</ele>
        <time>2015-11-01T10:54:51.000Z</time>
      </trkpt>
      <trkpt lat="47.55866" lon="6.79022">
        <ele>390</ele>
        <time>2015-11-01T10:54:52.000Z</time>
      </trkpt>
      <trkpt lat="47.55865" lon="6.79013">
        <ele>390</ele>
        <time>2015-11-01T10:54:53.000Z</time>
      </trkpt>
      <trkpt lat="47.55863" lon="6.79003">
        <ele>390</ele>
        <time>2015-11-01T10:54:54.000Z</time>
      </trkpt>
      <trkpt lat="47.5586" lon="6.78993">
        <ele>386</ele>
        <time>2015-11-01T10:54:55.000Z</time>
      </trkpt>
      <trkpt lat="47.55858" lon="6.78983">
        <ele>386</ele>
        <time>2015-11-01T10:54:56.000Z</time>
      </trkpt>
      <trkpt lat="47.55856" lon="6.78972">
        <ele>386</ele>
        <time>2015-11-01T10:54:57.000Z</time>
      </trkpt>
      <trkpt lat="47.55853" lon="6.78961">
        <ele>385</ele>
        <time>2015-11-01T10:54:58.000Z</time>
      </trkpt>
      <trkpt lat="47.55851" lon="6.78949">
        <ele>385</ele>
        <time>2015-11-01T10:54:59.000Z</time>
      </trkpt>
      <trkpt lat="47.55848" lon="6.78936">
        <ele>384</ele>
        <time>2015-11-01T10:55:00.000Z</time>
      </trkpt>
      <trkpt lat="47.55845" lon="6.78924">
        <ele>383</ele>
        <time>2015-11-01T10:55:01.000Z</time>
      </trkpt>
      <trkpt lat="47.55842" lon="6.78911">
        <ele>381</ele>
        <time>2015-11-01T10:55:02.000Z</time>
      </trkpt>
      <trkpt lat="47.5584" lon="6.78897">
        <ele>381</ele>
        <time>2015-11-01T10:55:03.000Z</time>
      </trkpt>
      <trkpt lat="47.55837" lon="6.78883">
        <ele>380</ele>
        <time>2015-11-01T10:55:04.000Z</time>
      </trkpt>
      <trkpt lat="47.55836" lon="6.78868">
        <ele>379</ele>
        <time>2015-11-01T10:55:05.000Z</time>
      </trkpt>
      <trkpt lat="47.55833" lon="6.78853">
        <ele>378</ele>
        <time>2015-11-01T10:55:06.000Z</time>
      </trkpt>
      <trkpt lat="47.5583" lon="6.78838">
        <ele>376</ele>
        <time>2015-11-01T10:55:07.000Z</time>
      </trkpt>
      <trkpt lat="47.55827" lon="6.78823">
        <ele>375</ele>
        <time>2015-11-01T10:55:08.000Z</time>
      </trkpt>
      <trkpt lat="47.55823" lon="6.78808">
        <ele>375</ele>
        <time>2015-11-01T10:55:09.000Z</time>
      </trkpt>
      <trkpt lat="47.5582" lon="6.78793">
        <ele>375</ele>
        <time>2015-11-01T10:55:10.000Z</time>
      </trkpt>
      <trkpt lat="47.55817" lon="6.78777">
        <ele>374</ele>
        <time>2015-11-01T10:55:11.000Z</time>
      </trkpt>
      <trkpt lat="47.55814" lon="6.78762">
        <ele>374</ele>
        <time>2015-11-01T10:55:12.000Z</time>
      </trkpt>
      <trkpt lat="47.55812" lon="6.78745">
        <ele>371</ele>
        <time>2015-11-01T10:55:13.000Z</time>
      </trkpt>
      <trkpt lat="47.5581" lon="6.78728">
        <ele>371</ele>
        <time>2015-11-01T10:55:14.000Z</time>
      </trkpt>
      <trkpt lat="47.55809" lon="6.78711">
        <ele>371</ele>
        <time>2015-11-01T10:55:15.000Z</time>
      </trkpt>
      <trkpt lat="47.55809" lon="6.78694">
        <ele>371</ele>
        <time>2015-11-01T10:55:16.000Z</time>
      </trkpt>
      <trkpt lat="47.55809" lon="6.78676">
        <ele>371</ele>
        <time>2015-11-01T10:55:17.000Z</time>
      </trkpt>
      <trkpt lat="47.55808" lon="6.78658">
        <ele>368</ele>
        <time>2015-11-01T10:55:18.000Z</time>
      </trkpt>
      <trkpt lat="47.55809" lon="6.7864">
        <ele>368</ele>
        <time>2015-11-01T10:55:19.000Z</time>
      </trkpt>
      <trkpt lat="47.55809" lon="6.78622">
        <ele>367</ele>
        <time>2015-11-01T10:55:20.000Z</time>
      </trkpt>
      <trkpt lat="47.55808" lon="6.78604">
        <ele>367</ele>
        <time>2015-11-01T10:55:21.000Z</time>
      </trkpt>
      <trkpt lat="47.55807" lon="6.78586">
        <ele>367</ele>
        <time>2015-11-01T10:55:22.000Z</time>
      </trkpt>
      <trkpt lat="47.55804" lon="6.78569">
        <ele>364</ele>
        <time>2015-11-01T10:55:23.000Z</time>
      </trkpt>
      <trkpt lat="47.55799" lon="6.78552">
        <ele>363</ele>
        <time>2015-11-01T10:55:24.000Z</time>
      </trkpt>
      <trkpt lat="47.55794" lon="6.78536">
        <ele>362</ele>
        <time>2015-11-01T10:55:25.000Z</time>
      </trkpt>
      <trkpt lat="47.55788" lon="6.7852">
        <ele>361</ele>
        <time>2015-11-01T10:55:26.000Z</time>
      </trkpt>
      <trkpt lat="47.55783" lon="6.78504">
        <ele>361</ele>
        <time>2015-11-01T10:55:27.000Z</time>
      </trkpt>
      <trkpt lat="47.55777" lon="6.78488">
        <ele>358</ele>
        <time>2015-11-01T10:55:28.000Z</time>
      </trkpt>
      <trkpt lat="47.55772" lon="6.78471">
        <ele>358</ele>
        <time>2015-11-01T10:55:29.000Z</time>
      </trkpt>
      <trkpt lat="47.55766" lon="6.78455">
        <ele>358</ele>
        <time>2015-11-01T10:55:30.000Z</time>
      </trkpt>
      <trkpt lat="47.5576" lon="6.78439">
        <ele>356</ele>
        <time>2015-11-01T10:55:31.000Z</time>
      </trkpt>
      <trkpt lat="47.55753" lon="6.78424">
        <ele>353</ele>
        <time>2015-11-01T10:55:32.000Z</time>
      </trkpt>
      <trkpt lat="47.55747" lon="6.78408">
        <ele>350</ele>
        <time>2015-11-01T10:55:33.000Z</time>
      </trkpt>
      <trkpt lat="47.5574" lon="6.78393">
        <ele>350</ele>
        <time>2015-11-01T10:55:34.000Z</time>
      </trkpt>
      <trkpt lat="47.55733" lon="6.78377">
        <ele>349</ele>
        <time>2015-11-01T10:55:35.000Z</time>
      </trkpt>
      <trkpt lat="47.55726" lon="6.78361">
        <ele>349</ele>
        <time>2015-11-01T10:55:36.000Z</time>
      </trkpt>
      <trkpt lat="47.55719" lon="6.78345">
        <ele>349</ele>
        <time>2015-11-01T10:55:37.000Z</time>
      </trkpt>
      <trkpt lat="47.55712" lon="6.7833">
        <ele>347</ele>
        <time>2015-11-01T10:55:38.000Z</time>
      </trkpt>
      <trkpt lat="47.55705" lon="6.78315">
        <ele>346</ele>
        <time>2015-11-01T10:55:39.000Z</time>
      </trkpt>
      <trkpt lat="47.55698" lon="6.78301">
        <ele>345</ele>
        <time>2015-11-01T10:55:40.000Z</time>
      </trkpt>
      <trkpt lat="47.55689" lon="6.78289">
        <ele>345</ele>
        <time>2015-11-01T10:55:41.000Z</time>
      </trkpt>
      <trkpt lat="47.55678" lon="6.78282">
        <ele>344</ele>
        <time>2015-11-01T10:55:42.000Z</time>
      </trkpt>
      <trkpt lat="47.55667" lon="6.78276">
        <ele>343</ele>
        <time>2015-11-01T10:55:43.000Z</time>
      </trkpt>
      <trkpt lat="47.55657" lon="6.78271">
        <ele>340</ele>
        <time>2015-11-01T10:55:44.000Z</time>
      </trkpt>
      <trkpt lat="47.55648" lon="6.78267">
        <ele>340</ele>
        <time>2015-11-01T10:55:45.000Z</time>
      </trkpt>
      <trkpt lat="47.5564" lon="6.7826">
        <ele>339</ele>
        <time>2015-11-01T10:55:46.000Z</time>
      </trkpt>
      <trkpt lat="47.55635" lon="6.7825">
        <ele>336</ele>
        <time>2015-11-01T10:55:47.000Z</time>
      </trkpt>
      <trkpt lat="47.55632" lon="6.78238">
        <ele>336</ele>
        <time>2015-11-01T10:55:48.000Z</time>
      </trkpt>
      <trkpt lat="47.5563" lon="6.78225">
        <ele>336</ele>
        <time>2015-11-01T10:55:49.000Z</time>
      </trkpt>
      <trkpt lat="47.55627" lon="6.78212">
        <ele>336</ele>
        <time>2015-11-01T10:55:50.000Z</time>
      </trkpt>
      <trkpt lat="47.55623" lon="6.782">
        <ele>335</ele>
        <time>2015-11-01T10:55:51.000Z</time>
      </trkpt>
      <trkpt lat="47.55617" lon="6.7819">
        <ele>335</ele>
        <time>2015-11-01T10:55:52.000Z</time>
      </trkpt>
      <trkpt lat="47.5561" lon="6.78181">
        <ele>334</ele>
        <time>2015-11-01T10:55:53.000Z</time>
      </trkpt>
      <trkpt lat="47.55601" lon="6.78172">
        <ele>333</ele>
        <time>2015-11-01T10:55:54.000Z</time>
      </trkpt>
      <trkpt lat="47.55593" lon="6.78162">
        <ele>332</ele>
        <time>2015-11-01T10:55:55.000Z</time>
      </trkpt>
      <trkpt lat="47.55585" lon="6.78151">
        <ele>333</ele>
        <time>2015-11-01T10:55:56.000Z</time>
      </trkpt>
      <trkpt lat="47.55577" lon="6.7814">
        <ele>331</ele>
        <time>2015-11-01T10:55:57.000Z</time>
      </trkpt>
      <trkpt lat="47.55569" lon="6.78129">
        <ele>330</ele>
        <time>2015-11-01T10:55:58.000Z</time>
      </trkpt>
      <trkpt lat="47.5556" lon="6.78119">
        <ele>330</ele>
        <time>2015-11-01T10:55:59.000Z</time>
      </trkpt>
      <trkpt lat="47.55551" lon="6.7811">
        <ele>330</ele>
        <time>2015-11-01T10:56:00.000Z</time>
      </trkpt>
      <trkpt lat="47.55541" lon="6.78102">
        <ele>330</ele>
        <time>2015-11-01T10:56:01.000Z</time>
      </trkpt>
      <trkpt lat="47.55532" lon="6.78097">
        <ele>330</ele>
        <time>2015-11-01T10:56:02.000Z</time>
      </trkpt>
      <trkpt lat="47.55523" lon="6.78092">
        <ele>329</ele>
        <time>2015-11-01T10:56:03.000Z</time>
      </trkpt>
      <trkpt lat="47.55514" lon="6.78087">
        <ele>329</ele>
        <time>2015-11-01T10:56:04.000Z</time>
      </trkpt>
      <trkpt lat="47.55505" lon="6.78082">
        <ele>328</ele>
        <time>2015-11-01T10:56:05.000Z</time>
      </trkpt>
      <trkpt lat="47.55497" lon="6.78077">
        <ele>328</ele>
        <time>2015-11-01T10:56:06.000Z</time>
      </trkpt>
      <trkpt lat="47.55488" lon="6.78072">
        <ele>328</ele>
        <time>2015-11-01T10:56:07.000Z</time>
      </trkpt>
      <trkpt lat="47.5548" lon="6.78069">
        <ele>328</ele>
        <time>2015-11-01T10:56:08.001Z</time>
      </trkpt>
      <trkpt lat="47.55472" lon="6.78065">
        <ele>328</ele>
        <time>2015-11-01T10:56:09.000Z</time>
      </trkpt>
      <trkpt lat="47.55464" lon="6.7806">
        <ele>327</ele>
        <time>2015-11-01T10:56:10.000Z</time>
      </trkpt>
      <trkpt lat="47.55456" lon="6.78056">
        <ele>327</ele>
        <time>2015-11-01T10:56:10.999Z</time>
      </trkpt>
      <trkpt lat="47.55448" lon="6.78051">
        <ele>327</ele>
        <time>2015-11-01T10:56:12.000Z</time>
      </trkpt>
      <trkpt lat="47.5544" lon="6.78046">
        <ele>327</ele>
        <time>2015-11-01T10:56:13.000Z</time>
      </trkpt>
      <trkpt lat="47.55433" lon="6.78042">
        <ele>327</ele>
        <time>2015-11-01T10:56:13.999Z</time>
      </trkpt>
      <trkpt lat="47.55425" lon="6.78038">
        <ele>327</ele>
        <time>2015-11-01T10:56:15.000Z</time>
      </trkpt>
      <trkpt lat="47.55419" lon="6.78035">
        <ele>327</ele>
        <time>2015-11-01T10:56:16.000Z</time>
      </trkpt>
      <trkpt lat="47.55412" lon="6.7803">
        <ele>326</ele>
        <time>2015-11-01T10:56:17.000Z</time>
      </trkpt>
      <trkpt lat="47.55405" lon="6.78026">
        <ele>326</ele>
        <time>2015-11-01T10:56:18.000Z</time>
      </trkpt>
      <trkpt lat="47.55398" lon="6.78023">
        <ele>326</ele>
        <time>2015-11-01T10:56:19.000Z</time>
      </trkpt>
      <trkpt lat="47.55392" lon="6.7802">
        <ele>326</ele>
        <time>2015-11-01T10:56:20.000Z</time>
      </trkpt>
      <trkpt lat="47.55386" lon="6.78017">
        <ele>326</ele>
        <time>2015-11-01T10:56:21.000Z</time>
      </trkpt>
      <trkpt lat="47.5538" lon="6.78015">
        <ele>326</ele>
        <time>2015-11-01T10:56:22.000Z</time>
      </trkpt>
      <trkpt lat="47.55373" lon="6.78012">
        <ele>326</ele>
        <time>2015-11-01T10:56:23.000Z</time>
      </trkpt>
      <trkpt lat="47.55367" lon="6.7801">
        <ele>326</ele>
        <time>2015-11-01T10:56:24.000Z</time>
      </trkpt>
      <trkpt lat="47.55361" lon="6.78008">
        <ele>325</ele>
        <time>2015-11-01T10:56:25.000Z</time>
      </trkpt>
      <trkpt lat="47.55356" lon="6.78007">
        <ele>325</ele>
        <time>2015-11-01T10:56:26.000Z</time>
      </trkpt>
      <trkpt lat="47.5535" lon="6.78006">
        <ele>325</ele>
        <time>2015-11-01T10:56:27.000Z</time>
      </trkpt>
      <trkpt lat="47.55343" lon="6.78006">
        <ele>325</ele>
        <time>2015-11-01T10:56:28.000Z</time>
      </trkpt>
      <trkpt lat="47.55337" lon="6.78005">
        <ele>325</ele>
        <time>2015-11-01T10:56:29.000Z</time>
      </trkpt>
      <trkpt lat="47.5533" lon="6.78006">
        <ele>325</ele>
        <time>2015-11-01T10:56:30.000Z</time>
      </trkpt>
      <trkpt lat="47.55324" lon="6.78004">
        <ele>324</ele>
        <time>2015-11-01T10:56:31.000Z</time>
      </trkpt>
      <trkpt lat="47.55319" lon="6.78">
        <ele>324</ele>
        <time>2015-11-01T10:56:32.000Z</time>
      </trkpt>
      <trkpt lat="47.55312" lon="6.77998">
        <ele>324</ele>
        <time>2015-11-01T10:56:33.000Z</time>
      </trkpt>
      <trkpt lat="47.55306" lon="6.77994">
        <ele>324</ele>
        <time>2015-11-01T10:56:34.001Z</time>
      </trkpt>
      <trkpt lat="47.55305" lon="6.77983">
        <ele>324</ele>
        <time>2015-11-01T10:56:35.000Z</time>
      </trkpt>
      <trkpt lat="47.55301" lon="6.77975">
        <ele>324</ele>
        <time>2015-11-01T10:56:36.000Z</time>
      </trkpt>
      <trkpt lat="47.55296" lon="6.77968">
        <ele>324</ele>
        <time>2015-11-01T10:56:37.000Z</time>
      </trkpt>
      <trkpt lat="47.5529" lon="6.77962">
        <ele>324</ele>
        <time>2015-11-01T10:56:38.000Z</time>
      </trkpt>
      <trkpt lat="47.55284" lon="6.77956">
        <ele>324</ele>
        <time>2015-11-01T10:56:39.000Z</time>
      </trkpt>
      <trkpt lat="47.55278" lon="6.77951">
        <ele>324</ele>
        <time>2015-11-01T10:56:40.000Z</time>
      </trkpt>
      <trkpt lat="47.55272" lon="6.77947">
        <ele>324</ele>
        <time>2015-11-01T10:56:41.000Z</time>
      </trkpt>
      <trkpt lat="47.55266" lon="6.77943">
        <ele>323</ele>
        <time>2015-11-01T10:56:42.000Z</time>
      </trkpt>
      <trkpt lat="47.5526" lon="6.77938">
        <ele>323</ele>
        <time>2015-11-01T10:56:43.000Z</time>
      </trkpt>
      <trkpt lat="47.55254" lon="6.77934">
        <ele>323</ele>
        <time>2015-11-01T10:56:44.000Z</time>
      </trkpt>
      <trkpt lat="47.55247" lon="6.77929">
        <ele>323</ele>
        <time>2015-11-01T10:56:45.000Z</time>
      </trkpt>
      <trkpt lat="47.55242" lon="6.77927">
        <ele>323</ele>
        <time>2015-11-01T10:56:46.000Z</time>
      </trkpt>
      <trkpt lat="47.55236" lon="6.77923">
        <ele>323</ele>
        <time>2015-11-01T10:56:47.000Z</time>
      </trkpt>
      <trkpt lat="47.55231" lon="6.7792">
        <ele>323</ele>
        <time>2015-11-01T10:56:48.000Z</time>
      </trkpt>
      <trkpt lat="47.55225" lon="6.77918">
        <ele>324</ele>
        <time>2015-11-01T10:56:49.000Z</time>
      </trkpt>
      <trkpt lat="47.5522" lon="6.77917">
        <ele>325</ele>
        <time>2015-11-01T10:56:50.000Z</time>
      </trkpt>
      <trkpt lat="47.55214" lon="6.77914">
        <ele>326</ele>
        <time>2015-11-01T10:56:51.000Z</time>
      </trkpt>
      <trkpt lat="47.55209" lon="6.77913">
        <ele>326</ele>
        <time>2015-11-01T10:56:52.000Z</time>
      </trkpt>
      <trkpt lat="47.55204" lon="6.77912">
        <ele>326</ele>
        <time>2015-11-01T10:56:53.000Z</time>
      </trkpt>
      <trkpt lat="47.55199" lon="6.7791">
        <ele>326</ele>
        <time>2015-11-01T10:56:54.000Z</time>
      </trkpt>
      <trkpt lat="47.55194" lon="6.77904">
        <ele>326</ele>
        <time>2015-11-01T10:56:55.001Z</time>
      </trkpt>
      <trkpt lat="47.55188" lon="6.77895">
        <ele>327</ele>
        <time>2015-11-01T10:56:57.000Z</time>
      </trkpt>
      <trkpt lat="47.55184" lon="6.77894">
        <ele>327</ele>
        <time>2015-11-01T10:56:58.000Z</time>
      </trkpt>
      <trkpt lat="47.55179" lon="6.77891">
        <ele>327</ele>
        <time>2015-11-01T10:56:59.001Z</time>
      </trkpt>
      <trkpt lat="47.55171" lon="6.77894">
        <ele>327</ele>
        <time>2015-11-01T10:57:00.000Z</time>
      </trkpt>
      <trkpt lat="47.55166" lon="6.77894">
        <ele>329</ele>
        <time>2015-11-01T10:57:01.000Z</time>
      </trkpt>
      <trkpt lat="47.55161" lon="6.77893">
        <ele>329</ele>
        <time>2015-11-01T10:57:01.999Z</time>
      </trkpt>
      <trkpt lat="47.55155" lon="6.7789">
        <ele>329</ele>
        <time>2015-11-01T10:57:03.000Z</time>
      </trkpt>
      <trkpt lat="47.55148" lon="6.77886">
        <ele>329</ele>
        <time>2015-11-01T10:57:04.000Z</time>
      </trkpt>
      <trkpt lat="47.55143" lon="6.77884">
        <ele>330</ele>
        <time>2015-11-01T10:57:05.000Z</time>
      </trkpt>
      <trkpt lat="47.55138" lon="6.77881">
        <ele>330</ele>
        <time>2015-11-01T10:57:06.000Z</time>
      </trkpt>
      <trkpt lat="47.55134" lon="6.77877">
        <ele>330</ele>
        <time>2015-11-01T10:57:07.000Z</time>
      </trkpt>
      <trkpt lat="47.55129" lon="6.77875">
        <ele>330</ele>
        <time>2015-11-01T10:57:08.000Z</time>
      </trkpt>
      <trkpt lat="47.55125" lon="6.77873">
        <ele>330</ele>
        <time>2015-11-01T10:57:09.000Z</time>
      </trkpt>
      <trkpt lat="47.55119" lon="6.77872">
        <ele>330</ele>
        <time>2015-11-01T10:57:10.000Z</time>
      </trkpt>
      <trkpt lat="47.55115" lon="6.77869">
        <ele>331</ele>
        <time>2015-11-01T10:57:11.000Z</time>
      </trkpt>
      <trkpt lat="47.5511" lon="6.77868">
        <ele>331</ele>
        <time>2015-11-01T10:57:12.000Z</time>
      </trkpt>
      <trkpt lat="47.55105" lon="6.77868">
        <ele>331</ele>
        <time>2015-11-01T10:57:13.000Z</time>
      </trkpt>
      <trkpt lat="47.55099" lon="6.77867">
        <ele>331</ele>
        <time>2015-11-01T10:57:14.000Z</time>
      </trkpt>
      <trkpt lat="47.55094" lon="6.77867">
        <ele>331</ele>
        <time>2015-11-01T10:57:15.000Z</time>
      </trkpt>
      <trkpt lat="47.55089" lon="6.77867">
        <ele>331</ele>
        <time>2015-11-01T10:57:15.999Z</time>
      </trkpt>
      <trkpt lat="47.55085" lon="6.77866">
        <ele>331</ele>
        <time>2015-11-01T10:57:17.000Z</time>
      </trkpt>
      <trkpt lat="47.5508" lon="6.77866">
        <ele>331</ele>
        <time>2015-11-01T10:57:18.000Z</time>
      </trkpt>
      <trkpt lat="47.55074" lon="6.77866">
        <ele>331</ele>
        <time>2015-11-01T10:57:18.999Z</time>
      </trkpt>
      <trkpt lat="47.55069" lon="6.77866">
        <ele>331</ele>
        <time>2015-11-01T10:57:20.000Z</time>
      </trkpt>
      <trkpt lat="47.55064" lon="6.77865">
        <ele>331</ele>
        <time>2015-11-01T10:57:21.000Z</time>
      </trkpt>
      <trkpt lat="47.55058" lon="6.77866">
        <ele>331</ele>
        <time>2015-11-01T10:57:22.000Z</time>
      </trkpt>
      <trkpt lat="47.55053" lon="6.77866">
        <ele>331</ele>
        <time>2015-11-01T10:57:23.000Z</time>
      </trkpt>
      <trkpt lat="47.55047" lon="6.77866">
        <ele>331</ele>
        <time>2015-11-01T10:57:24.000Z</time>
      </trkpt>
      <trkpt lat="47.55042" lon="6.77866">
        <ele>331</ele>
        <time>2015-11-01T10:57:25.000Z</time>
      </trkpt>
      <trkpt lat="47.55037" lon="6.77867">
        <ele>331</ele>
        <time>2015-11-01T10:57:26.000Z</time>
      </trkpt>
      <trkpt lat="47.55031" lon="6.77867">
        <ele>331</ele>
        <time>2015-11-01T10:57:27.000Z</time>
      </trkpt>
      <trkpt lat="47.55026" lon="6.77868">
        <ele>331</ele>
        <time>2015-11-01T10:57:28.000Z</time>
      </trkpt>
      <trkpt lat="47.55021" lon="6.7787">
        <ele>331</ele>
        <time>2015-11-01T10:57:29.000Z</time>
      </trkpt>
      <trkpt lat="47.55015" lon="6.77872">
        <ele>331</ele>
        <time>2015-11-01T10:57:30.000Z</time>
      </trkpt>
      <trkpt lat="47.5501" lon="6.77874">
        <ele>331</ele>
        <time>2015-11-01T10:57:31.000Z</time>
      </trkpt>
      <trkpt lat="47.55004" lon="6.77877">
        <ele>331</ele>
        <time>2015-11-01T10:57:32.001Z</time>
      </trkpt>
      <trkpt lat="47.54999" lon="6.77877">
        <ele>331</ele>
        <time>2015-11-01T10:57:33.000Z</time>
      </trkpt>
      <trkpt lat="47.54994" lon="6.7788">
        <ele>331</ele>
        <time>2015-11-01T10:57:34.000Z</time>
      </trkpt>
      <trkpt lat="47.54989" lon="6.77885">
        <ele>331</ele>
        <time>2015-11-01T10:57:35.000Z</time>
      </trkpt>
      <trkpt lat="47.54984" lon="6.77891">
        <ele>330</ele>
        <time>2015-11-01T10:57:36.000Z</time>
      </trkpt>
      <trkpt lat="47.54979" lon="6.77897">
        <ele>330</ele>
        <time>2015-11-01T10:57:37.000Z</time>
      </trkpt>
      <trkpt lat="47.54974" lon="6.77902">
        <ele>330</ele>
        <time>2015-11-01T10:57:38.000Z</time>
      </trkpt>
      <trkpt lat="47.54969" lon="6.77908">
        <ele>330</ele>
        <time>2015-11-01T10:57:39.000Z</time>
      </trkpt>
      <trkpt lat="47.54963" lon="6.77912">
        <ele>330</ele>
        <time>2015-11-01T10:57:40.000Z</time>
      </trkpt>
      <trkpt lat="47.54958" lon="6.77917">
        <ele>330</ele>
        <time>2015-11-01T10:57:41.000Z</time>
      </trkpt>
      <trkpt lat="47.54952" lon="6.7792">
        <ele>327</ele>
        <time>2015-11-01T10:57:42.000Z</time>
      </trkpt>
      <trkpt lat="47.54947" lon="6.77925">
        <ele>327</ele>
        <time>2015-11-01T10:57:43.000Z</time>
      </trkpt>
      <trkpt lat="47.54942" lon="6.77929">
        <ele>327</ele>
        <time>2015-11-01T10:57:44.000Z</time>
      </trkpt>
      <trkpt lat="47.54937" lon="6.77933">
        <ele>327</ele>
        <time>2015-11-01T10:57:45.000Z</time>
      </trkpt>
      <trkpt lat="47.54931" lon="6.77936">
        <ele>327</ele>
        <time>2015-11-01T10:57:46.000Z</time>
      </trkpt>
      <trkpt lat="47.54925" lon="6.77939">
        <ele>327</ele>
        <time>2015-11-01T10:57:46.999Z</time>
      </trkpt>
      <trkpt lat="47.54919" lon="6.77942">
        <ele>327</ele>
        <time>2015-11-01T10:57:48.000Z</time>
      </trkpt>
      <trkpt lat="47.54911" lon="6.77946">
        <ele>328</ele>
        <time>2015-11-01T10:57:49.000Z</time>
      </trkpt>
      <trkpt lat="47.54905" lon="6.7795">
        <ele>328</ele>
        <time>2015-11-01T10:57:50.000Z</time>
      </trkpt>
      <trkpt lat="47.54899" lon="6.77954">
        <ele>328</ele>
        <time>2015-11-01T10:57:51.000Z</time>
      </trkpt>
      <trkpt lat="47.54893" lon="6.77956">
        <ele>328</ele>
        <time>2015-11-01T10:57:52.000Z</time>
      </trkpt>
      <trkpt lat="47.54886" lon="6.77959">
        <ele>328</ele>
        <time>2015-11-01T10:57:53.000Z</time>
      </trkpt>
      <trkpt lat="47.5488" lon="6.77963">
        <ele>328</ele>
        <time>2015-11-01T10:57:54.000Z</time>
      </trkpt>
      <trkpt lat="47.54874" lon="6.77964">
        <ele>328</ele>
        <time>2015-11-01T10:57:55.000Z</time>
      </trkpt>
      <trkpt lat="47.54867" lon="6.77967">
        <ele>328</ele>
        <time>2015-11-01T10:57:56.000Z</time>
      </trkpt>
      <trkpt lat="47.5486" lon="6.77969">
        <ele>328</ele>
        <time>2015-11-01T10:57:57.000Z</time>
      </trkpt>
      <trkpt lat="47.54854" lon="6.7797">
        <ele>328</ele>
        <time>2015-11-01T10:57:58.000Z</time>
      </trkpt>
      <trkpt lat="47.54849" lon="6.77973">
        <ele>328</ele>
        <time>2015-11-01T10:57:59.000Z</time>
      </trkpt>
      <trkpt lat="47.54842" lon="6.77975">
        <ele>328</ele>
        <time>2015-11-01T10:58:00.000Z</time>
      </trkpt>
      <trkpt lat="47.54837" lon="6.77978">
        <ele>328</ele>
        <time>2015-11-01T10:58:01.000Z</time>
      </trkpt>
      <trkpt lat="47.54831" lon="6.7798">
        <ele>330</ele>
        <time>2015-11-01T10:58:01.999Z</time>
      </trkpt>
      <trkpt lat="47.54825" lon="6.77983">
        <ele>330</ele>
        <time>2015-11-01T10:58:03.000Z</time>
      </trkpt>
      <trkpt lat="47.54819" lon="6.77984">
        <ele>330</ele>
        <time>2015-11-01T10:58:04.000Z</time>
      </trkpt>
      <trkpt lat="47.54813" lon="6.77986">
        <ele>330</ele>
        <time>2015-11-01T10:58:05.000Z</time>
      </trkpt>
      <trkpt lat="47.54807" lon="6.77987">
        <ele>330</ele>
        <time>2015-11-01T10:58:06.000Z</time>
      </trkpt>
      <trkpt lat="47.54801" lon="6.77988">
        <ele>331</ele>
        <time>2015-11-01T10:58:07.000Z</time>
      </trkpt>
      <trkpt lat="47.54796" lon="6.7799">
        <ele>331</ele>
        <time>2015-11-01T10:58:08.000Z</time>
      </trkpt>
      <trkpt lat="47.54791" lon="6.77993">
        <ele>331</ele>
        <time>2015-11-01T10:58:09.000Z</time>
      </trkpt>
      <trkpt lat="47.54785" lon="6.77995">
        <ele>331</ele>
        <time>2015-11-01T10:58:10.000Z</time>
      </trkpt>
      <trkpt lat="47.54781" lon="6.77998">
        <ele>331</ele>
        <time>2015-11-01T10:58:11.000Z</time>
      </trkpt>
      <trkpt lat="47.54774" lon="6.78">
        <ele>327</ele>
        <time>2015-11-01T10:58:12.000Z</time>
      </trkpt>
      <trkpt lat="47.54768" lon="6.78003">
        <ele>328</ele>
        <time>2015-11-01T10:58:13.000Z</time>
      </trkpt>
      <trkpt lat="47.54762" lon="6.78005">
        <ele>328</ele>
        <time>2015-11-01T10:58:14.000Z</time>
      </trkpt>
      <trkpt lat="47.54757" lon="6.78008">
        <ele>328</ele>
        <time>2015-11-01T10:58:15.000Z</time>
      </trkpt>
      <trkpt lat="47.5475" lon="6.78009">
        <ele>328</ele>
        <time>2015-11-01T10:58:16.000Z</time>
      </trkpt>
      <trkpt lat="47.54745" lon="6.78011">
        <ele>328</ele>
        <time>2015-11-01T10:58:17.000Z</time>
      </trkpt>
      <trkpt lat="47.54741" lon="6.78013">
        <ele>328</ele>
        <time>2015-11-01T10:58:18.000Z</time>
      </trkpt>
      <trkpt lat="47.54735" lon="6.78015">
        <ele>328</ele>
        <time>2015-11-01T10:58:19.000Z</time>
      </trkpt>
      <trkpt lat="47.5473" lon="6.78017">
        <ele>328</ele>
        <time>2015-11-01T10:58:20.000Z</time>
      </trkpt>
      <trkpt lat="47.54725" lon="6.7802">
        <ele>328</ele>
        <time>2015-11-01T10:58:21.000Z</time>
      </trkpt>
      <trkpt lat="47.54721" lon="6.78023">
        <ele>327</ele>
        <time>2015-11-01T10:58:22.000Z</time>
      </trkpt>
      <trkpt lat="47.54716" lon="6.78025">
        <ele>327</ele>
        <time>2015-11-01T10:58:23.000Z</time>
      </trkpt>
      <trkpt lat="47.54711" lon="6.78028">
        <ele>327</ele>
        <time>2015-11-01T10:58:24.000Z</time>
      </trkpt>
      <trkpt lat="47.54706" lon="6.7803">
        <ele>327</ele>
        <time>2015-11-01T10:58:25.000Z</time>
      </trkpt>
      <trkpt lat="47.54701" lon="6.78033">
        <ele>327</ele>
        <time>2015-11-01T10:58:26.000Z</time>
      </trkpt>
      <trkpt lat="47.54696" lon="6.78036">
        <ele>327</ele>
        <time>2015-11-01T10:58:27.000Z</time>
      </trkpt>
      <trkpt lat="47.54691" lon="6.78037">
        <ele>327</ele>
        <time>2015-11-01T10:58:28.000Z</time>
      </trkpt>
      <trkpt lat="47.54685" lon="6.78038">
        <ele>327</ele>
        <time>2015-11-01T10:58:29.001Z</time>
      </trkpt>
      <trkpt lat="47.5468" lon="6.78039">
        <ele>327</ele>
        <time>2015-11-01T10:58:30.002Z</time>
      </trkpt>
      <trkpt lat="47.54675" lon="6.78039">
        <ele>327</ele>
        <time>2015-11-01T10:58:31.000Z</time>
      </trkpt>
      <trkpt lat="47.54672" lon="6.78039">
        <ele>327</ele>
        <time>2015-11-01T10:58:32.000Z</time>
      </trkpt>
      <trkpt lat="47.54668" lon="6.78038">
        <ele>327</ele>
        <time>2015-11-01T10:58:33.000Z</time>
      </trkpt>
      <trkpt lat="47.54664" lon="6.78038">
        <ele>327</ele>
        <time>2015-11-01T10:58:34.000Z</time>
      </trkpt>
      <trkpt lat="47.5466" lon="6.78037">
        <ele>327</ele>
        <time>2015-11-01T10:58:35.000Z</time>
      </trkpt>
      <trkpt lat="47.54656" lon="6.78036">
        <ele>327</ele>
        <time>2015-11-01T10:58:36.000Z</time>
      </trkpt>
      <trkpt lat="47.54653" lon="6.78034">
        <ele>327</ele>
        <time>2015-11-01T10:58:37.000Z</time>
      </trkpt>
      <trkpt lat="47.54649" lon="6.78032">
        <ele>327</ele>
        <time>2015-11-01T10:58:38.000Z</time>
      </trkpt>
      <trkpt lat="47.54645" lon="6.78031">
        <ele>327</ele>
        <time>2015-11-01T10:58:39.000Z</time>
      </trkpt>
      <trkpt lat="47.54641" lon="6.78029">
        <ele>327</ele>
        <time>2015-11-01T10:58:40.000Z</time>
      </trkpt>
      <trkpt lat="47.54638" lon="6.78028">
        <ele>327</ele>
        <time>2015-11-01T10:58:41.000Z</time>
      </trkpt>
      <trkpt lat="47.54634" lon="6.78026">
        <ele>327</ele>
        <time>2015-11-01T10:58:42.000Z</time>
      </trkpt>
      <trkpt lat="47.5463" lon="6.78025">
        <ele>327</ele>
        <time>2015-11-01T10:58:43.000Z</time>
      </trkpt>
      <trkpt lat="47.54626" lon="6.78023">
        <ele>327</ele>
        <time>2015-11-01T10:58:44.000Z</time>
      </trkpt>
      <trkpt lat="47.54622" lon="6.78022">
        <ele>327</ele>
        <time>2015-11-01T10:58:45.000Z</time>
      </trkpt>
      <trkpt lat="47.54618" lon="6.7802">
        <ele>327</ele>
        <time>2015-11-01T10:58:46.000Z</time>
      </trkpt>
      <trkpt lat="47.54615" lon="6.78019">
        <ele>327</ele>
        <time>2015-11-01T10:58:46.999Z</time>
      </trkpt>
      <trkpt lat="47.54611" lon="6.78018">
        <ele>327</ele>
        <time>2015-11-01T10:58:48.000Z</time>
      </trkpt>
      <trkpt lat="47.54606" lon="6.78017">
        <ele>327</ele>
        <time>2015-11-01T10:58:49.000Z</time>
      </trkpt>
      <trkpt lat="47.54602" lon="6.78015">
        <ele>327</ele>
        <time>2015-11-01T10:58:50.000Z</time>
      </trkpt>
      <trkpt lat="47.54598" lon="6.78015">
        <ele>327</ele>
        <time>2015-11-01T10:58:51.000Z</time>
      </trkpt>
      <trkpt lat="47.54595" lon="6.78014">
        <ele>328</ele>
        <time>2015-11-01T10:58:52.000Z</time>
      </trkpt>
      <trkpt lat="47.54591" lon="6.78014">
        <ele>328</ele>
        <time>2015-11-01T10:58:53.000Z</time>
      </trkpt>
      <trkpt lat="47.54587" lon="6.78013">
        <ele>328</ele>
        <time>2015-11-01T10:58:54.000Z</time>
      </trkpt>
      <trkpt lat="47.54584" lon="6.78012">
        <ele>328</ele>
        <time>2015-11-01T10:58:55.000Z</time>
      </trkpt>
      <trkpt lat="47.5458" lon="6.78011">
        <ele>327</ele>
        <time>2015-11-01T10:58:56.000Z</time>
      </trkpt>
      <trkpt lat="47.54578" lon="6.78007">
        <ele>327</ele>
        <time>2015-11-01T10:58:57.000Z</time>
      </trkpt>
      <trkpt lat="47.54576" lon="6.78003">
        <ele>327</ele>
        <time>2015-11-01T10:58:58.000Z</time>
      </trkpt>
      <trkpt lat="47.54575" lon="6.77998">
        <ele>328</ele>
        <time>2015-11-01T10:58:59.001Z</time>
      </trkpt>
      <trkpt lat="47.54575" lon="6.77993">
        <ele>328</ele>
        <time>2015-11-01T10:59:00.000Z</time>
      </trkpt>
      <trkpt lat="47.54575" lon="6.77989">
        <ele>328</ele>
        <time>2015-11-01T10:59:01.000Z</time>
      </trkpt>
      <trkpt lat="47.54575" lon="6.77984">
        <ele>328</ele>
        <time>2015-11-01T10:59:02.000Z</time>
      </trkpt>
      <trkpt lat="47.54575" lon="6.7798">
        <ele>328</ele>
        <time>2015-11-01T10:59:02.999Z</time>
      </trkpt>
      <trkpt lat="47.54576" lon="6.77976">
        <ele>329</ele>
        <time>2015-11-01T10:59:04.001Z</time>
      </trkpt>
      <trkpt lat="47.54575" lon="6.77971">
        <ele>329</ele>
        <time>2015-11-01T10:59:05.000Z</time>
      </trkpt>
      <trkpt lat="47.54574" lon="6.77966">
        <ele>329</ele>
        <time>2015-11-01T10:59:06.000Z</time>
      </trkpt>
      <trkpt lat="47.54573" lon="6.77962">
        <ele>329</ele>
        <time>2015-11-01T10:59:07.000Z</time>
      </trkpt>
      <trkpt lat="47.54571" lon="6.77958">
        <ele>329</ele>
        <time>2015-11-01T10:59:08.000Z</time>
      </trkpt>
      <trkpt lat="47.54568" lon="6.77955">
        <ele>329</ele>
        <time>2015-11-01T10:59:09.000Z</time>
      </trkpt>
      <trkpt lat="47.54564" lon="6.77953">
        <ele>329</ele>
        <time>2015-11-01T10:59:10.000Z</time>
      </trkpt>
      <trkpt lat="47.5456" lon="6.77951">
        <ele>329</ele>
        <time>2015-11-01T10:59:11.000Z</time>
      </trkpt>
      <trkpt lat="47.54556" lon="6.7795">
        <ele>329</ele>
        <time>2015-11-01T10:59:12.000Z</time>
      </trkpt>
      <trkpt lat="47.54551" lon="6.77949">
        <ele>329</ele>
        <time>2015-11-01T10:59:13.000Z</time>
      </trkpt>
      <trkpt lat="47.54547" lon="6.77949">
        <ele>329</ele>
        <time>2015-11-01T10:59:14.000Z</time>
      </trkpt>
      <trkpt lat="47.54543" lon="6.77948">
        <ele>329</ele>
        <time>2015-11-01T10:59:15.000Z</time>
      </trkpt>
      <trkpt lat="47.5454" lon="6.77947">
        <ele>329</ele>
        <time>2015-11-01T10:59:16.000Z</time>
      </trkpt>
      <trkpt lat="47.54537" lon="6.77946">
        <ele>329</ele>
        <time>2015-11-01T10:59:17.000Z</time>
      </trkpt>
      <trkpt lat="47.54534" lon="6.77945">
        <ele>329</ele>
        <time>2015-11-01T10:59:18.000Z</time>
      </trkpt>
      <trkpt lat="47.54531" lon="6.77944">
        <ele>329</ele>
        <time>2015-11-01T10:59:19.000Z</time>
      </trkpt>
      <trkpt lat="47.54529" lon="6.77943">
        <ele>329</ele>
        <time>2015-11-01T10:59:20.000Z</time>
      </trkpt>
      <trkpt lat="47.54527" lon="6.77941">
        <ele>328</ele>
        <time>2015-11-01T10:59:21.000Z</time>
      </trkpt>
      <trkpt lat="47.54524" lon="6.77939">
        <ele>328</ele>
        <time>2015-11-01T10:59:22.000Z</time>
      </trkpt>
      <trkpt lat="47.54522" lon="6.77936">
        <ele>328</ele>
        <time>2015-11-01T10:59:23.000Z</time>
      </trkpt>
      <trkpt lat="47.54519" lon="6.77934">
        <ele>328</ele>
        <time>2015-11-01T10:59:23.999Z</time>
      </trkpt>
      <trkpt lat="47.54515" lon="6.77929">
        <ele>328</ele>
        <time>2015-11-01T10:59:25.000Z</time>
      </trkpt>
      <trkpt lat="47.54512" lon="6.77925">
        <ele>328</ele>
        <time>2015-11-01T10:59:26.000Z</time>
      </trkpt>
      <trkpt lat="47.54509" lon="6.77921">
        <ele>328</ele>
        <time>2015-11-01T10:59:27.000Z</time>
      </trkpt>
      <trkpt lat="47.54505" lon="6.77917">
        <ele>328</ele>
        <time>2015-11-01T10:59:28.000Z</time>
      </trkpt>
      <trkpt lat="47.54502" lon="6.7791">
        <ele>329</ele>
        <time>2015-11-01T10:59:29.000Z</time>
      </trkpt>
      <trkpt lat="47.54499" lon="6.77906">
        <ele>329</ele>
        <time>2015-11-01T10:59:30.000Z</time>
      </trkpt>
      <trkpt lat="47.54496" lon="6.77901">
        <ele>329</ele>
        <time>2015-11-01T10:59:31.000Z</time>
      </trkpt>
      <trkpt lat="47.54494" lon="6.77895">
        <ele>329</ele>
        <time>2015-11-01T10:59:32.000Z</time>
      </trkpt>
      <trkpt lat="47.54491" lon="6.7789">
        <ele>329</ele>
        <time>2015-11-01T10:59:33.000Z</time>
      </trkpt>
      <trkpt lat="47.54488" lon="6.77885">
        <ele>329</ele>
        <time>2015-11-01T10:59:34.000Z</time>
      </trkpt>
      <trkpt lat="47.54487" lon="6.7788">
        <ele>330</ele>
        <time>2015-11-01T10:59:35.000Z</time>
      </trkpt>
      <trkpt lat="47.54485" lon="6.77874">
        <ele>330</ele>
        <time>2015-11-01T10:59:36.000Z</time>
      </trkpt>
      <trkpt lat="47.54483" lon="6.77868">
        <ele>330</ele>
        <time>2015-11-01T10:59:37.000Z</time>
      </trkpt>
      <trkpt lat="47.54482" lon="6.77862">
        <ele>330</ele>
        <time>2015-11-01T10:59:38.000Z</time>
      </trkpt>
      <trkpt lat="47.54481" lon="6.77857">
        <ele>330</ele>
        <time>2015-11-01T10:59:39.000Z</time>
      </trkpt>
      <trkpt lat="47.5448" lon="6.77852">
        <ele>331</ele>
        <time>2015-11-01T10:59:40.000Z</time>
      </trkpt>
      <trkpt lat="47.54479" lon="6.77847">
        <ele>331</ele>
        <time>2015-11-01T10:59:41.000Z</time>
      </trkpt>
      <trkpt lat="47.54478" lon="6.77842">
        <ele>331</ele>
        <time>2015-11-01T10:59:42.000Z</time>
      </trkpt>
      <trkpt lat="47.54477" lon="6.77837">
        <ele>331</ele>
        <time>2015-11-01T10:59:43.000Z</time>
      </trkpt>
      <trkpt lat="47.54476" lon="6.77832">
        <ele>333</ele>
        <time>2015-11-01T10:59:44.000Z</time>
      </trkpt>
      <trkpt lat="47.54476" lon="6.77827">
        <ele>334</ele>
        <time>2015-11-01T10:59:45.000Z</time>
      </trkpt>
      <trkpt lat="47.54475" lon="6.77821">
        <ele>334</ele>
        <time>2015-11-01T10:59:46.000Z</time>
      </trkpt>
      <trkpt lat="47.54475" lon="6.77816">
        <ele>334</ele>
        <time>2015-11-01T10:59:47.000Z</time>
      </trkpt>
      <trkpt lat="47.54476" lon="6.77811">
        <ele>334</ele>
        <time>2015-11-01T10:59:48.000Z</time>
      </trkpt>
      <trkpt lat="47.54476" lon="6.77805">
        <ele>334</ele>
        <time>2015-11-01T10:59:49.000Z</time>
      </trkpt>
      <trkpt lat="47.54476" lon="6.778">
        <ele>334</ele>
        <time>2015-11-01T10:59:50.000Z</time>
      </trkpt>
      <trkpt lat="47.54476" lon="6.77794">
        <ele>334</ele>
        <time>2015-11-01T10:59:51.000Z</time>
      </trkpt>
      <trkpt lat="47.54476" lon="6.77789">
        <ele>334</ele>
        <time>2015-11-01T10:59:52.000Z</time>
      </trkpt>
      <trkpt lat="47.54476" lon="6.77783">
        <ele>335</ele>
        <time>2015-11-01T10:59:53.000Z</time>
      </trkpt>
      <trkpt lat="47.54477" lon="6.77778">
        <ele>335</ele>
        <time>2015-11-01T10:59:54.000Z</time>
      </trkpt>
      <trkpt lat="47.54477" lon="6.77772">
        <ele>335</ele>
        <time>2015-11-01T10:59:55.000Z</time>
      </trkpt>
      <trkpt lat="47.54477" lon="6.77766">
        <ele>335</ele>
        <time>2015-11-01T10:59:56.000Z</time>
      </trkpt>
      <trkpt lat="47.54478" lon="6.7776">
        <ele>336</ele>
        <time>2015-11-01T10:59:57.000Z</time>
      </trkpt>
      <trkpt lat="47.54478" lon="6.77754">
        <ele>336</ele>
        <time>2015-11-01T10:59:58.000Z</time>
      </trkpt>
      <trkpt lat="47.54478" lon="6.77748">
        <ele>339</ele>
        <time>2015-11-01T10:59:59.000Z</time>
      </trkpt>
      <trkpt lat="47.54479" lon="6.77742">
        <ele>339</ele>
        <time>2015-11-01T11:00:00.000Z</time>
      </trkpt>
      <trkpt lat="47.54479" lon="6.77736">
        <ele>339</ele>
        <time>2015-11-01T11:00:01.000Z</time>
      </trkpt>
      <trkpt lat="47.54479" lon="6.7773">
        <ele>339</ele>
        <time>2015-11-01T11:00:01.998Z</time>
      </trkpt>
      <trkpt lat="47.54479" lon="6.77724">
        <ele>339</ele>
        <time>2015-11-01T11:00:03.000Z</time>
      </trkpt>
      <trkpt lat="47.54478" lon="6.77718">
        <ele>339</ele>
        <time>2015-11-01T11:00:04.000Z</time>
      </trkpt>
      <trkpt lat="47.54477" lon="6.77713">
        <ele>339</ele>
        <time>2015-11-01T11:00:05.000Z</time>
      </trkpt>
      <trkpt lat="47.54476" lon="6.77708">
        <ele>340</ele>
        <time>2015-11-01T11:00:06.000Z</time>
      </trkpt>
      <trkpt lat="47.54473" lon="6.77704">
        <ele>340</ele>
        <time>2015-11-01T11:00:07.000Z</time>
      </trkpt>
      <trkpt lat="47.54471" lon="6.77699">
        <ele>340</ele>
        <time>2015-11-01T11:00:08.000Z</time>
      </trkpt>
      <trkpt lat="47.54469" lon="6.77695">
        <ele>340</ele>
        <time>2015-11-01T11:00:09.000Z</time>
      </trkpt>
      <trkpt lat="47.54467" lon="6.77691">
        <ele>340</ele>
        <time>2015-11-01T11:00:10.000Z</time>
      </trkpt>
      <trkpt lat="47.54465" lon="6.77687">
        <ele>340</ele>
        <time>2015-11-01T11:00:11.000Z</time>
      </trkpt>
      <trkpt lat="47.54463" lon="6.77683">
        <ele>340</ele>
        <time>2015-11-01T11:00:12.000Z</time>
      </trkpt>
      <trkpt lat="47.54461" lon="6.7768">
        <ele>340</ele>
        <time>2015-11-01T11:00:13.000Z</time>
      </trkpt>
      <trkpt lat="47.54459" lon="6.77676">
        <ele>340</ele>
        <time>2015-11-01T11:00:14.000Z</time>
      </trkpt>
      <trkpt lat="47.54458" lon="6.77672">
        <ele>340</ele>
        <time>2015-11-01T11:00:15.000Z</time>
      </trkpt>
      <trkpt lat="47.54458" lon="6.77668">
        <ele>340</ele>
        <time>2015-11-01T11:00:16.000Z</time>
      </trkpt>
      <trkpt lat="47.54457" lon="6.77664">
        <ele>343</ele>
        <time>2015-11-01T11:00:17.000Z</time>
      </trkpt>
      <trkpt lat="47.54457" lon="6.7766">
        <ele>343</ele>
        <time>2015-11-01T11:00:18.000Z</time>
      </trkpt>
      <trkpt lat="47.54456" lon="6.77655">
        <ele>343</ele>
        <time>2015-11-01T11:00:19.000Z</time>
      </trkpt>
      <trkpt lat="47.54455" lon="6.77651">
        <ele>343</ele>
        <time>2015-11-01T11:00:20.001Z</time>
      </trkpt>
      <trkpt lat="47.54454" lon="6.77646">
        <ele>343</ele>
        <time>2015-11-01T11:00:21.000Z</time>
      </trkpt>
      <trkpt lat="47.54453" lon="6.77642">
        <ele>343</ele>
        <time>2015-11-01T11:00:22.000Z</time>
      </trkpt>
      <trkpt lat="47.54452" lon="6.77638">
        <ele>343</ele>
        <time>2015-11-01T11:00:23.000Z</time>
      </trkpt>
      <trkpt lat="47.54451" lon="6.77634">
        <ele>343</ele>
        <time>2015-11-01T11:00:24.000Z</time>
      </trkpt>
      <trkpt lat="47.5445" lon="6.7763">
        <ele>344</ele>
        <time>2015-11-01T11:00:24.999Z</time>
      </trkpt>
      <trkpt lat="47.54448" lon="6.77627">
        <ele>344</ele>
        <time>2015-11-01T11:00:26.000Z</time>
      </trkpt>
      <trkpt lat="47.54447" lon="6.77625">
        <ele>344</ele>
        <time>2015-11-01T11:00:27.000Z</time>
      </trkpt>
      <trkpt lat="47.54444" lon="6.77621">
        <ele>344</ele>
        <time>2015-11-01T11:00:29.000Z</time>
      </trkpt>
      <trkpt lat="47.54442" lon="6.77619">
        <ele>344</ele>
        <time>2015-11-01T11:00:30.000Z</time>
      </trkpt>
      <trkpt lat="47.54438" lon="6.77616">
        <ele>344</ele>
        <time>2015-11-01T11:00:32.000Z</time>
      </trkpt>
      <trkpt lat="47.54436" lon="6.77614">
        <ele>344</ele>
        <time>2015-11-01T11:00:32.999Z</time>
      </trkpt>
      <trkpt lat="47.54433" lon="6.77612">
        <ele>344</ele>
        <time>2015-11-01T11:00:35.000Z</time>
      </trkpt>
      <trkpt lat="47.54431" lon="6.77611">
        <ele>344</ele>
        <time>2015-11-01T11:00:36.000Z</time>
      </trkpt>
      <trkpt lat="47.54427" lon="6.77608">
        <ele>344</ele>
        <time>2015-11-01T11:00:38.000Z</time>
      </trkpt>
      <trkpt lat="47.54426" lon="6.77607">
        <ele>344</ele>
        <time>2015-11-01T11:00:39.000Z</time>
      </trkpt>
      <trkpt lat="47.54422" lon="6.77606">
        <ele>344</ele>
        <time>2015-11-01T11:00:41.000Z</time>
      </trkpt>
      <trkpt lat="47.54421" lon="6.77605">
        <ele>344</ele>
        <time>2015-11-01T11:00:42.000Z</time>
      </trkpt>
      <trkpt lat="47.54417" lon="6.77604">
        <ele>344</ele>
        <time>2015-11-01T11:00:43.999Z</time>
      </trkpt>
      <trkpt lat="47.54416" lon="6.77603">
        <ele>345</ele>
        <time>2015-11-01T11:00:45.000Z</time>
      </trkpt>
      <trkpt lat="47.54413" lon="6.77601">
        <ele>345</ele>
        <time>2015-11-01T11:00:47.000Z</time>
      </trkpt>
      <trkpt lat="47.54411" lon="6.776">
        <ele>345</ele>
        <time>2015-11-01T11:00:48.000Z</time>
      </trkpt>
      <trkpt lat="47.54408" lon="6.77598">
        <ele>346</ele>
        <time>2015-11-01T11:00:49.999Z</time>
      </trkpt>
      <trkpt lat="47.54407" lon="6.77596">
        <ele>346</ele>
        <time>2015-11-01T11:00:51.002Z</time>
      </trkpt>
      <trkpt lat="47.54405" lon="6.77593">
        <ele>346</ele>
        <time>2015-11-01T11:00:52.000Z</time>
      </trkpt>
      <trkpt lat="47.54404" lon="6.7759">
        <ele>346</ele>
        <time>2015-11-01T11:00:53.000Z</time>
      </trkpt>
      <trkpt lat="47.54404" lon="6.77587">
        <ele>346</ele>
        <time>2015-11-01T11:00:54.000Z</time>
      </trkpt>
      <trkpt lat="47.54403" lon="6.77584">
        <ele>346</ele>
        <time>2015-11-01T11:00:55.001Z</time>
      </trkpt>
      <trkpt lat="47.54402" lon="6.7758">
        <ele>347</ele>
        <time>2015-11-01T11:00:56.000Z</time>
      </trkpt>
      <trkpt lat="47.54402" lon="6.77577">
        <ele>347</ele>
        <time>2015-11-01T11:00:57.001Z</time>
      </trkpt>
      <trkpt lat="47.544" lon="6.77571">
        <ele>347</ele>
        <time>2015-11-01T11:00:59.000Z</time>
      </trkpt>
      <trkpt lat="47.54399" lon="6.77569">
        <ele>347</ele>
        <time>2015-11-01T11:01:00.000Z</time>
      </trkpt>
      <trkpt lat="47.54398" lon="6.77563">
        <ele>348</ele>
        <time>2015-11-01T11:01:02.000Z</time>
      </trkpt>
      <trkpt lat="47.54397" lon="6.77561">
        <ele>348</ele>
        <time>2015-11-01T11:01:03.000Z</time>
      </trkpt>
      <trkpt lat="47.54398" lon="6.77559">
        <ele>348</ele>
        <time>2015-11-01T11:01:04.000Z</time>
      </trkpt>
      <trkpt lat="47.54398" lon="6.77554">
        <ele>348</ele>
        <time>2015-11-01T11:01:05.000Z</time>
      </trkpt>
      <trkpt lat="47.54398" lon="6.77548">
        <ele>348</ele>
        <time>2015-11-01T11:01:06.000Z</time>
      </trkpt>
      <trkpt lat="47.54398" lon="6.77542">
        <ele>348</ele>
        <time>2015-11-01T11:01:07.000Z</time>
      </trkpt>
      <trkpt lat="47.54399" lon="6.77536">
        <ele>348</ele>
        <time>2015-11-01T11:01:08.000Z</time>
      </trkpt>
      <trkpt lat="47.54399" lon="6.7753">
        <ele>348</ele>
        <time>2015-11-01T11:01:09.000Z</time>
      </trkpt>
      <trkpt lat="47.54399" lon="6.77524">
        <ele>348</ele>
        <time>2015-11-01T11:01:10.000Z</time>
      </trkpt>
      <trkpt lat="47.54399" lon="6.77519">
        <ele>348</ele>
        <time>2015-11-01T11:01:11.000Z</time>
      </trkpt>
      <trkpt lat="47.54399" lon="6.77513">
        <ele>348</ele>
        <time>2015-11-01T11:01:12.000Z</time>
      </trkpt>
      <trkpt lat="47.54399" lon="6.77508">
        <ele>348</ele>
        <time>2015-11-01T11:01:13.000Z</time>
      </trkpt>
      <trkpt lat="47.54398" lon="6.77504">
        <ele>348</ele>
        <time>2015-11-01T11:01:14.000Z</time>
      </trkpt>
      <trkpt lat="47.54398" lon="6.77498">
        <ele>348</ele>
        <time>2015-11-01T11:01:15.000Z</time>
      </trkpt>
      <trkpt lat="47.54397" lon="6.77493">
        <ele>348</ele>
        <time>2015-11-01T11:01:16.000Z</time>
      </trkpt>
      <trkpt lat="47.54397" lon="6.77488">
        <ele>348</ele>
        <time>2015-11-01T11:01:17.000Z</time>
      </trkpt>
      <trkpt lat="47.54397" lon="6.77484">
        <ele>349</ele>
        <time>2015-11-01T11:01:18.000Z</time>
      </trkpt>
      <trkpt lat="47.54396" lon="6.77479">
        <ele>349</ele>
        <time>2015-11-01T11:01:19.000Z</time>
      </trkpt>
      <trkpt lat="47.54396" lon="6.77474">
        <ele>349</ele>
        <time>2015-11-01T11:01:20.000Z</time>
      </trkpt>
      <trkpt lat="47.54395" lon="6.7747">
        <ele>349</ele>
        <time>2015-11-01T11:01:21.000Z</time>
      </trkpt>
      <trkpt lat="47.54394" lon="6.77465">
        <ele>349</ele>
        <time>2015-11-01T11:01:21.999Z</time>
      </trkpt>
      <trkpt lat="47.54394" lon="6.77461">
        <ele>349</ele>
        <time>2015-11-01T11:01:23.000Z</time>
      </trkpt>
      <trkpt lat="47.54393" lon="6.77457">
        <ele>349</ele>
        <time>2015-11-01T11:01:24.000Z</time>
      </trkpt>
      <trkpt lat="47.54392" lon="6.77452">
        <ele>349</ele>
        <time>2015-11-01T11:01:25.000Z</time>
      </trkpt>
      <trkpt lat="47.54391" lon="6.77448">
        <ele>349</ele>
        <time>2015-11-01T11:01:25.999Z</time>
      </trkpt>
      <trkpt lat="47.5439" lon="6.77445">
        <ele>349</ele>
        <time>2015-11-01T11:01:27.000Z</time>
      </trkpt>
      <trkpt lat="47.54389" lon="6.77441">
        <ele>349</ele>
        <time>2015-11-01T11:01:28.000Z</time>
      </trkpt>
      <trkpt lat="47.54387" lon="6.77438">
        <ele>349</ele>
        <time>2015-11-01T11:01:29.000Z</time>
      </trkpt>
      <trkpt lat="47.54386" lon="6.77434">
        <ele>349</ele>
        <time>2015-11-01T11:01:30.000Z</time>
      </trkpt>
      <trkpt lat="47.54384" lon="6.77432">
        <ele>349</ele>
        <time>2015-11-01T11:01:31.000Z</time>
      </trkpt>
      <trkpt lat="47.54382" lon="6.77429">
        <ele>349</ele>
        <time>2015-11-01T11:01:32.000Z</time>
      </trkpt>
      <trkpt lat="47.5438" lon="6.77428">
        <ele>349</ele>
        <time>2015-11-01T11:01:33.000Z</time>
      </trkpt>
      <trkpt lat="47.54377" lon="6.77427">
        <ele>349</ele>
        <time>2015-11-01T11:01:34.000Z</time>
      </trkpt>
      <trkpt lat="47.54375" lon="6.77426">
        <ele>349</ele>
        <time>2015-11-01T11:01:35.000Z</time>
      </trkpt>
      <trkpt lat="47.54372" lon="6.77428">
        <ele>349</ele>
        <time>2015-11-01T11:01:36.000Z</time>
      </trkpt>
      <trkpt lat="47.5437" lon="6.77428">
        <ele>349</ele>
        <time>2015-11-01T11:01:37.000Z</time>
      </trkpt>
      <trkpt lat="47.54367" lon="6.77429">
        <ele>349</ele>
        <time>2015-11-01T11:01:38.000Z</time>
      </trkpt>
      <trkpt lat="47.54365" lon="6.7743">
        <ele>349</ele>
        <time>2015-11-01T11:01:39.000Z</time>
      </trkpt>
      <trkpt lat="47.54363" lon="6.77431">
        <ele>350</ele>
        <time>2015-11-01T11:01:40.000Z</time>
      </trkpt>
      <trkpt lat="47.54361" lon="6.77432">
        <ele>350</ele>
        <time>2015-11-01T11:01:41.000Z</time>
      </trkpt>
      <trkpt lat="47.54358" lon="6.77432">
        <ele>350</ele>
        <time>2015-11-01T11:01:42.000Z</time>
      </trkpt>
      <trkpt lat="47.54356" lon="6.77433">
        <ele>350</ele>
        <time>2015-11-01T11:01:43.000Z</time>
      </trkpt>
      <trkpt lat="47.54353" lon="6.77434">
        <ele>350</ele>
        <time>2015-11-01T11:01:44.000Z</time>
      </trkpt>
      <trkpt lat="47.54351" lon="6.77435">
        <ele>350</ele>
        <time>2015-11-01T11:01:44.999Z</time>
      </trkpt>
      <trkpt lat="47.54348" lon="6.77436">
        <ele>350</ele>
        <time>2015-11-01T11:01:46.000Z</time>
      </trkpt>
      <trkpt lat="47.54346" lon="6.77437">
        <ele>350</ele>
        <time>2015-11-01T11:01:47.000Z</time>
      </trkpt>
      <trkpt lat="47.54344" lon="6.77438">
        <ele>350</ele>
        <time>2015-11-01T11:01:48.000Z</time>
      </trkpt>
      <trkpt lat="47.54341" lon="6.77439">
        <ele>350</ele>
        <time>2015-11-01T11:01:49.000Z</time>
      </trkpt>
      <trkpt lat="47.54339" lon="6.77439">
        <ele>350</ele>
        <time>2015-11-01T11:01:50.000Z</time>
      </trkpt>
      <trkpt lat="47.54336" lon="6.7744">
        <ele>350</ele>
        <time>2015-11-01T11:01:51.000Z</time>
      </trkpt>
      <trkpt lat="47.54334" lon="6.77441">
        <ele>350</ele>
        <time>2015-11-01T11:01:52.000Z</time>
      </trkpt>
      <trkpt lat="47.54331" lon="6.77443">
        <ele>354</ele>
        <time>2015-11-01T11:01:53.000Z</time>
      </trkpt>
      <trkpt lat="47.54328" lon="6.77444">
        <ele>354</ele>
        <time>2015-11-01T11:01:54.000Z</time>
      </trkpt>
      <trkpt lat="47.54325" lon="6.77445">
        <ele>354</ele>
        <time>2015-11-01T11:01:55.000Z</time>
      </trkpt>
      <trkpt lat="47.54323" lon="6.77446">
        <ele>354</ele>
        <time>2015-11-01T11:01:56.000Z</time>
      </trkpt>
      <trkpt lat="47.54321" lon="6.77447">
        <ele>355</ele>
        <time>2015-11-01T11:01:57.000Z</time>
      </trkpt>
      <trkpt lat="47.54318" lon="6.77447">
        <ele>355</ele>
        <time>2015-11-01T11:01:58.000Z</time>
      </trkpt>
      <trkpt lat="47.54315" lon="6.77448">
        <ele>355</ele>
        <time>2015-11-01T11:01:59.000Z</time>
      </trkpt>
      <trkpt lat="47.54313" lon="6.77448">
        <ele>355</ele>
        <time>2015-11-01T11:02:00.000Z</time>
      </trkpt>
      <trkpt lat="47.5431" lon="6.77449">
        <ele>355</ele>
        <time>2015-11-01T11:02:01.000Z</time>
      </trkpt>
      <trkpt lat="47.54307" lon="6.7745">
        <ele>355</ele>
        <time>2015-11-01T11:02:02.000Z</time>
      </trkpt>
      <trkpt lat="47.54304" lon="6.7745">
        <ele>355</ele>
        <time>2015-11-01T11:02:03.000Z</time>
      </trkpt>
      <trkpt lat="47.54302" lon="6.77451">
        <ele>356</ele>
        <time>2015-11-01T11:02:04.000Z</time>
      </trkpt>
      <trkpt lat="47.54299" lon="6.77452">
        <ele>356</ele>
        <time>2015-11-01T11:02:05.000Z</time>
      </trkpt>
      <trkpt lat="47.54296" lon="6.77453">
        <ele>356</ele>
        <time>2015-11-01T11:02:06.000Z</time>
      </trkpt>
      <trkpt lat="47.54293" lon="6.77454">
        <ele>356</ele>
        <time>2015-11-01T11:02:07.000Z</time>
      </trkpt>
      <trkpt lat="47.54291" lon="6.77455">
        <ele>356</ele>
        <time>2015-11-01T11:02:08.000Z</time>
      </trkpt>
      <trkpt lat="47.54287" lon="6.77457">
        <ele>356</ele>
        <time>2015-11-01T11:02:09.000Z</time>
      </trkpt>
      <trkpt lat="47.54284" lon="6.77458">
        <ele>356</ele>
        <time>2015-11-01T11:02:10.000Z</time>
      </trkpt>
      <trkpt lat="47.54281" lon="6.77458">
        <ele>357</ele>
        <time>2015-11-01T11:02:11.000Z</time>
      </trkpt>
      <trkpt lat="47.54278" lon="6.77458">
        <ele>357</ele>
        <time>2015-11-01T11:02:12.000Z</time>
      </trkpt>
      <trkpt lat="47.54275" lon="6.77458">
        <ele>357</ele>
        <time>2015-11-01T11:02:13.000Z</time>
      </trkpt>
      <trkpt lat="47.54272" lon="6.77459">
        <ele>357</ele>
        <time>2015-11-01T11:02:14.000Z</time>
      </trkpt>
      <trkpt lat="47.54269" lon="6.7746">
        <ele>357</ele>
        <time>2015-11-01T11:02:15.000Z</time>
      </trkpt>
      <trkpt lat="47.54266" lon="6.77461">
        <ele>357</ele>
        <time>2015-11-01T11:02:16.000Z</time>
      </trkpt>
      <trkpt lat="47.54262" lon="6.77461">
        <ele>357</ele>
        <time>2015-11-01T11:02:17.000Z</time>
      </trkpt>
      <trkpt lat="47.54259" lon="6.77461">
        <ele>357</ele>
        <time>2015-11-01T11:02:18.000Z</time>
      </trkpt>
      <trkpt lat="47.54256" lon="6.77461">
        <ele>357</ele>
        <time>2015-11-01T11:02:19.000Z</time>
      </trkpt>
      <trkpt lat="47.54252" lon="6.7746">
        <ele>357</ele>
        <time>2015-11-01T11:02:20.000Z</time>
      </trkpt>
      <trkpt lat="47.54249" lon="6.7746">
        <ele>362</ele>
        <time>2015-11-01T11:02:21.000Z</time>
      </trkpt>
      <trkpt lat="47.54246" lon="6.77459">
        <ele>362</ele>
        <time>2015-11-01T11:02:22.000Z</time>
      </trkpt>
      <trkpt lat="47.54243" lon="6.77459">
        <ele>362</ele>
        <time>2015-11-01T11:02:23.000Z</time>
      </trkpt>
      <trkpt lat="47.5424" lon="6.7746">
        <ele>362</ele>
        <time>2015-11-01T11:02:24.000Z</time>
      </trkpt>
      <trkpt lat="47.54237" lon="6.77462">
        <ele>362</ele>
        <time>2015-11-01T11:02:25.000Z</time>
      </trkpt>
      <trkpt lat="47.54234" lon="6.77465">
        <ele>362</ele>
        <time>2015-11-01T11:02:26.000Z</time>
      </trkpt>
      <trkpt lat="47.54231" lon="6.77468">
        <ele>362</ele>
        <time>2015-11-01T11:02:27.000Z</time>
      </trkpt>
      <trkpt lat="47.54228" lon="6.7747">
        <ele>362</ele>
        <time>2015-11-01T11:02:28.000Z</time>
      </trkpt>
      <trkpt lat="47.54225" lon="6.77473">
        <ele>362</ele>
        <time>2015-11-01T11:02:29.000Z</time>
      </trkpt>
      <trkpt lat="47.54221" lon="6.77477">
        <ele>362</ele>
        <time>2015-11-01T11:02:30.000Z</time>
      </trkpt>
      <trkpt lat="47.54217" lon="6.7748">
        <ele>362</ele>
        <time>2015-11-01T11:02:31.000Z</time>
      </trkpt>
      <trkpt lat="47.54214" lon="6.77482">
        <ele>362</ele>
        <time>2015-11-01T11:02:32.000Z</time>
      </trkpt>
      <trkpt lat="47.5421" lon="6.77485">
        <ele>362</ele>
        <time>2015-11-01T11:02:33.001Z</time>
      </trkpt>
      <trkpt lat="47.54203" lon="6.77488">
        <ele>362</ele>
        <time>2015-11-01T11:02:34.000Z</time>
      </trkpt>
      <trkpt lat="47.54198" lon="6.77484">
        <ele>362</ele>
        <time>2015-11-01T11:02:35.000Z</time>
      </trkpt>
      <trkpt lat="47.54192" lon="6.77485">
        <ele>362</ele>
        <time>2015-11-01T11:02:36.000Z</time>
      </trkpt>
      <trkpt lat="47.54187" lon="6.77486">
        <ele>361</ele>
        <time>2015-11-01T11:02:37.000Z</time>
      </trkpt>
      <trkpt lat="47.54182" lon="6.77487">
        <ele>361</ele>
        <time>2015-11-01T11:02:38.000Z</time>
      </trkpt>
      <trkpt lat="47.54177" lon="6.77488">
        <ele>361</ele>
        <time>2015-11-01T11:02:39.000Z</time>
      </trkpt>
      <trkpt lat="47.54171" lon="6.77488">
        <ele>360</ele>
        <time>2015-11-01T11:02:40.000Z</time>
      </trkpt>
      <trkpt lat="47.54166" lon="6.77488">
        <ele>362</ele>
        <time>2015-11-01T11:02:41.000Z</time>
      </trkpt>
      <trkpt lat="47.54161" lon="6.77489">
        <ele>362</ele>
        <time>2015-11-01T11:02:42.000Z</time>
      </trkpt>
      <trkpt lat="47.54156" lon="6.77489">
        <ele>363</ele>
        <time>2015-11-01T11:02:43.000Z</time>
      </trkpt>
      <trkpt lat="47.54152" lon="6.7749">
        <ele>364</ele>
        <time>2015-11-01T11:02:44.000Z</time>
      </trkpt>
      <trkpt lat="47.54147" lon="6.7749">
        <ele>364</ele>
        <time>2015-11-01T11:02:45.000Z</time>
      </trkpt>
      <trkpt lat="47.54143" lon="6.77491">
        <ele>365</ele>
        <time>2015-11-01T11:02:46.000Z</time>
      </trkpt>
      <trkpt lat="47.54139" lon="6.77491">
        <ele>365</ele>
        <time>2015-11-01T11:02:47.000Z</time>
      </trkpt>
      <trkpt lat="47.54136" lon="6.77491">
        <ele>366</ele>
        <time>2015-11-01T11:02:48.000Z</time>
      </trkpt>
      <trkpt lat="47.54132" lon="6.77491">
        <ele>366</ele>
        <time>2015-11-01T11:02:49.000Z</time>
      </trkpt>
      <trkpt lat="47.54128" lon="6.77492">
        <ele>366</ele>
        <time>2015-11-01T11:02:50.000Z</time>
      </trkpt>
      <trkpt lat="47.54125" lon="6.77491">
        <ele>366</ele>
        <time>2015-11-01T11:02:51.000Z</time>
      </trkpt>
      <trkpt lat="47.54121" lon="6.77491">
        <ele>366</ele>
        <time>2015-11-01T11:02:52.000Z</time>
      </trkpt>
      <trkpt lat="47.54118" lon="6.77492">
        <ele>366</ele>
        <time>2015-11-01T11:02:53.000Z</time>
      </trkpt>
      <trkpt lat="47.54114" lon="6.77492">
        <ele>366</ele>
        <time>2015-11-01T11:02:54.000Z</time>
      </trkpt>
      <trkpt lat="47.54111" lon="6.77492">
        <ele>366</ele>
        <time>2015-11-01T11:02:55.000Z</time>
      </trkpt>
      <trkpt lat="47.54108" lon="6.77492">
        <ele>366</ele>
        <time>2015-11-01T11:02:56.000Z</time>
      </trkpt>
      <trkpt lat="47.54104" lon="6.77493">
        <ele>366</ele>
        <time>2015-11-01T11:02:57.000Z</time>
      </trkpt>
      <trkpt lat="47.54101" lon="6.77493">
        <ele>366</ele>
        <time>2015-11-01T11:02:58.000Z</time>
      </trkpt>
      <trkpt lat="47.54098" lon="6.77493">
        <ele>365</ele>
        <time>2015-11-01T11:02:59.000Z</time>
      </trkpt>
      <trkpt lat="47.54094" lon="6.77494">
        <ele>365</ele>
        <time>2015-11-01T11:03:00.000Z</time>
      </trkpt>
      <trkpt lat="47.54091" lon="6.77495">
        <ele>364</ele>
        <time>2015-11-01T11:03:01.000Z</time>
      </trkpt>
      <trkpt lat="47.54088" lon="6.77496">
        <ele>364</ele>
        <time>2015-11-01T11:03:02.000Z</time>
      </trkpt>
      <trkpt lat="47.54085" lon="6.77496">
        <ele>363</ele>
        <time>2015-11-01T11:03:03.000Z</time>
      </trkpt>
      <trkpt lat="47.54082" lon="6.77497">
        <ele>364</ele>
        <time>2015-11-01T11:03:04.000Z</time>
      </trkpt>
      <trkpt lat="47.54079" lon="6.77497">
        <ele>365</ele>
        <time>2015-11-01T11:03:05.000Z</time>
      </trkpt>
      <trkpt lat="47.54076" lon="6.77497">
        <ele>366</ele>
        <time>2015-11-01T11:03:06.000Z</time>
      </trkpt>
      <trkpt lat="47.54073" lon="6.77497">
        <ele>367</ele>
        <time>2015-11-01T11:03:07.000Z</time>
      </trkpt>
      <trkpt lat="47.54069" lon="6.77498">
        <ele>368</ele>
        <time>2015-11-01T11:03:08.000Z</time>
      </trkpt>
      <trkpt lat="47.54066" lon="6.77499">
        <ele>369</ele>
        <time>2015-11-01T11:03:09.000Z</time>
      </trkpt>
      <trkpt lat="47.54063" lon="6.77499">
        <ele>370</ele>
        <time>2015-11-01T11:03:10.000Z</time>
      </trkpt>
      <trkpt lat="47.54059" lon="6.775">
        <ele>362</ele>
        <time>2015-11-01T11:03:11.000Z</time>
      </trkpt>
      <trkpt lat="47.54056" lon="6.77501">
        <ele>363</ele>
        <time>2015-11-01T11:03:12.000Z</time>
      </trkpt>
      <trkpt lat="47.54052" lon="6.77502">
        <ele>363</ele>
        <time>2015-11-01T11:03:13.000Z</time>
      </trkpt>
      <trkpt lat="47.54049" lon="6.77503">
        <ele>363</ele>
        <time>2015-11-01T11:03:14.000Z</time>
      </trkpt>
      <trkpt lat="47.54046" lon="6.77505">
        <ele>363</ele>
        <time>2015-11-01T11:03:15.000Z</time>
      </trkpt>
      <trkpt lat="47.54044" lon="6.77507">
        <ele>363</ele>
        <time>2015-11-01T11:03:16.000Z</time>
      </trkpt>
      <trkpt lat="47.54041" lon="6.77509">
        <ele>363</ele>
        <time>2015-11-01T11:03:17.000Z</time>
      </trkpt>
      <trkpt lat="47.54038" lon="6.77511">
        <ele>363</ele>
        <time>2015-11-01T11:03:18.000Z</time>
      </trkpt>
      <trkpt lat="47.54035" lon="6.77514">
        <ele>363</ele>
        <time>2015-11-01T11:03:19.000Z</time>
      </trkpt>
      <trkpt lat="47.54032" lon="6.77517">
        <ele>364</ele>
        <time>2015-11-01T11:03:20.000Z</time>
      </trkpt>
      <trkpt lat="47.54029" lon="6.77519">
        <ele>364</ele>
        <time>2015-11-01T11:03:21.000Z</time>
      </trkpt>
      <trkpt lat="47.54026" lon="6.77522">
        <ele>364</ele>
        <time>2015-11-01T11:03:22.000Z</time>
      </trkpt>
      <trkpt lat="47.54023" lon="6.77525">
        <ele>364</ele>
        <time>2015-11-01T11:03:23.000Z</time>
      </trkpt>
      <trkpt lat="47.54019" lon="6.77528">
        <ele>364</ele>
        <time>2015-11-01T11:03:24.000Z</time>
      </trkpt>
      <trkpt lat="47.54016" lon="6.7753">
        <ele>364</ele>
        <time>2015-11-01T11:03:25.000Z</time>
      </trkpt>
      <trkpt lat="47.54013" lon="6.77532">
        <ele>363</ele>
        <time>2015-11-01T11:03:26.000Z</time>
      </trkpt>
      <trkpt lat="47.5401" lon="6.77534">
        <ele>363</ele>
        <time>2015-11-01T11:03:27.000Z</time>
      </trkpt>
      <trkpt lat="47.54007" lon="6.77537">
        <ele>363</ele>
        <time>2015-11-01T11:03:28.000Z</time>
      </trkpt>
      <trkpt lat="47.54005" lon="6.77539">
        <ele>363</ele>
        <time>2015-11-01T11:03:29.000Z</time>
      </trkpt>
      <trkpt lat="47.54001" lon="6.77542">
        <ele>363</ele>
        <time>2015-11-01T11:03:30.000Z</time>
      </trkpt>
      <trkpt lat="47.53998" lon="6.77545">
        <ele>367</ele>
        <time>2015-11-01T11:03:31.000Z</time>
      </trkpt>
      <trkpt lat="47.53995" lon="6.77548">
        <ele>366</ele>
        <time>2015-11-01T11:03:32.000Z</time>
      </trkpt>
      <trkpt lat="47.53992" lon="6.7755">
        <ele>366</ele>
        <time>2015-11-01T11:03:33.000Z</time>
      </trkpt>
      <trkpt lat="47.53989" lon="6.77552">
        <ele>366</ele>
        <time>2015-11-01T11:03:34.000Z</time>
      </trkpt>
      <trkpt lat="47.53986" lon="6.77555">
        <ele>366</ele>
        <time>2015-11-01T11:03:35.000Z</time>
      </trkpt>
      <trkpt lat="47.53982" lon="6.77557">
        <ele>366</ele>
        <time>2015-11-01T11:03:36.000Z</time>
      </trkpt>
      <trkpt lat="47.53979" lon="6.7756">
        <ele>366</ele>
        <time>2015-11-01T11:03:37.000Z</time>
      </trkpt>
      <trkpt lat="47.53975" lon="6.77563">
        <ele>366</ele>
        <time>2015-11-01T11:03:38.000Z</time>
      </trkpt>
      <trkpt lat="47.5397" lon="6.77567">
        <ele>366</ele>
        <time>2015-11-01T11:03:39.000Z</time>
      </trkpt>
      <trkpt lat="47.53963" lon="6.77575">
        <ele>366</ele>
        <time>2015-11-01T11:03:40.000Z</time>
      </trkpt>
      <trkpt lat="47.53958" lon="6.77581">
        <ele>366</ele>
        <time>2015-11-01T11:03:41.000Z</time>
      </trkpt>
      <trkpt lat="47.53952" lon="6.77587">
        <ele>358</ele>
        <time>2015-11-01T11:03:42.000Z</time>
      </trkpt>
      <trkpt lat="47.53947" lon="6.77592">
        <ele>358</ele>
        <time>2015-11-01T11:03:43.000Z</time>
      </trkpt>
      <trkpt lat="47.53942" lon="6.77596">
        <ele>359</ele>
        <time>2015-11-01T11:03:44.000Z</time>
      </trkpt>
      <trkpt lat="47.53938" lon="6.77599">
        <ele>359</ele>
        <time>2015-11-01T11:03:45.000Z</time>
      </trkpt>
      <trkpt lat="47.53934" lon="6.77603">
        <ele>359</ele>
        <time>2015-11-01T11:03:46.000Z</time>
      </trkpt>
      <trkpt lat="47.53928" lon="6.77608">
        <ele>359</ele>
        <time>2015-11-01T11:03:47.000Z</time>
      </trkpt>
      <trkpt lat="47.53924" lon="6.7761">
        <ele>358</ele>
        <time>2015-11-01T11:03:48.000Z</time>
      </trkpt>
      <trkpt lat="47.53919" lon="6.77616">
        <ele>358</ele>
        <time>2015-11-01T11:03:49.000Z</time>
      </trkpt>
      <trkpt lat="47.53913" lon="6.7762">
        <ele>363</ele>
        <time>2015-11-01T11:03:50.000Z</time>
      </trkpt>
      <trkpt lat="47.53905" lon="6.77625">
        <ele>363</ele>
        <time>2015-11-01T11:03:51.000Z</time>
      </trkpt>
      <trkpt lat="47.53898" lon="6.7763">
        <ele>363</ele>
        <time>2015-11-01T11:03:52.000Z</time>
      </trkpt>
      <trkpt lat="47.5389" lon="6.77636">
        <ele>363</ele>
        <time>2015-11-01T11:03:53.000Z</time>
      </trkpt>
      <trkpt lat="47.53884" lon="6.77639">
        <ele>363</ele>
        <time>2015-11-01T11:03:54.000Z</time>
      </trkpt>
      <trkpt lat="47.53877" lon="6.77643">
        <ele>363</ele>
        <time>2015-11-01T11:03:55.000Z</time>
      </trkpt>
      <trkpt lat="47.5387" lon="6.77647">
        <ele>363</ele>
        <time>2015-11-01T11:03:56.000Z</time>
      </trkpt>
      <trkpt lat="47.53864" lon="6.77652">
        <ele>363</ele>
        <time>2015-11-01T11:03:57.000Z</time>
      </trkpt>
      <trkpt lat="47.53857" lon="6.77655">
        <ele>363</ele>
        <time>2015-11-01T11:03:58.000Z</time>
      </trkpt>
      <trkpt lat="47.53851" lon="6.7766">
        <ele>363</ele>
        <time>2015-11-01T11:03:59.000Z</time>
      </trkpt>
      <trkpt lat="47.53846" lon="6.77666">
        <ele>363</ele>
        <time>2015-11-01T11:04:00.000Z</time>
      </trkpt>
      <trkpt lat="47.53841" lon="6.77671">
        <ele>359</ele>
        <time>2015-11-01T11:04:01.000Z</time>
      </trkpt>
      <trkpt lat="47.53838" lon="6.77675">
        <ele>359</ele>
        <time>2015-11-01T11:04:02.000Z</time>
      </trkpt>
      <trkpt lat="47.53832" lon="6.77678">
        <ele>361</ele>
        <time>2015-11-01T11:04:03.000Z</time>
      </trkpt>
      <trkpt lat="47.53827" lon="6.7768">
        <ele>360</ele>
        <time>2015-11-01T11:04:04.000Z</time>
      </trkpt>
      <trkpt lat="47.53822" lon="6.77683">
        <ele>360</ele>
        <time>2015-11-01T11:04:05.000Z</time>
      </trkpt>
      <trkpt lat="47.53818" lon="6.77686">
        <ele>360</ele>
        <time>2015-11-01T11:04:06.000Z</time>
      </trkpt>
      <trkpt lat="47.53814" lon="6.7769">
        <ele>359</ele>
        <time>2015-11-01T11:04:07.000Z</time>
      </trkpt>
      <trkpt lat="47.53811" lon="6.77694">
        <ele>359</ele>
        <time>2015-11-01T11:04:08.000Z</time>
      </trkpt>
      <trkpt lat="47.53807" lon="6.77697">
        <ele>359</ele>
        <time>2015-11-01T11:04:09.000Z</time>
      </trkpt>
      <trkpt lat="47.53803" lon="6.777">
        <ele>359</ele>
        <time>2015-11-01T11:04:10.000Z</time>
      </trkpt>
      <trkpt lat="47.53799" lon="6.77702">
        <ele>359</ele>
        <time>2015-11-01T11:04:11.000Z</time>
      </trkpt>
      <trkpt lat="47.53796" lon="6.77705">
        <ele>359</ele>
        <time>2015-11-01T11:04:12.000Z</time>
      </trkpt>
      <trkpt lat="47.53793" lon="6.77707">
        <ele>359</ele>
        <time>2015-11-01T11:04:13.000Z</time>
      </trkpt>
      <trkpt lat="47.5379" lon="6.77709">
        <ele>359</ele>
        <time>2015-11-01T11:04:14.000Z</time>
      </trkpt>
      <trkpt lat="47.53788" lon="6.7771">
        <ele>359</ele>
        <time>2015-11-01T11:04:15.000Z</time>
      </trkpt>
      <trkpt lat="47.53786" lon="6.77712">
        <ele>359</ele>
        <time>2015-11-01T11:04:16.000Z</time>
      </trkpt>
      <trkpt lat="47.53784" lon="6.77714">
        <ele>359</ele>
        <time>2015-11-01T11:04:17.000Z</time>
      </trkpt>
      <trkpt lat="47.5378" lon="6.77718">
        <ele>359</ele>
        <time>2015-11-01T11:04:19.000Z</time>
      </trkpt>
      <trkpt lat="47.53778" lon="6.77719">
        <ele>359</ele>
        <time>2015-11-01T11:04:20.000Z</time>
      </trkpt>
      <trkpt lat="47.53774" lon="6.7772">
        <ele>359</ele>
        <time>2015-11-01T11:04:22.000Z</time>
      </trkpt>
      <trkpt lat="47.53773" lon="6.77719">
        <ele>359</ele>
        <time>2015-11-01T11:04:23.000Z</time>
      </trkpt>
      <trkpt lat="47.53769" lon="6.77719">
        <ele>359</ele>
        <time>2015-11-01T11:04:46.000Z</time>
      </trkpt>
      <trkpt lat="47.53768" lon="6.77718">
        <ele>359</ele>
        <time>2015-11-01T11:04:47.000Z</time>
      </trkpt>
      <trkpt lat="47.53764" lon="6.77716">
        <ele>359</ele>
        <time>2015-11-01T11:04:49.000Z</time>
      </trkpt>
      <trkpt lat="47.53762" lon="6.77715">
        <ele>359</ele>
        <time>2015-11-01T11:04:50.000Z</time>
      </trkpt>
      <trkpt lat="47.53758" lon="6.77713">
        <ele>360</ele>
        <time>2015-11-01T11:04:52.000Z</time>
      </trkpt>
      <trkpt lat="47.53756" lon="6.77712">
        <ele>360</ele>
        <time>2015-11-01T11:04:53.000Z</time>
      </trkpt>
      <trkpt lat="47.53753" lon="6.77709">
        <ele>360</ele>
        <time>2015-11-01T11:04:55.000Z</time>
      </trkpt>
      <trkpt lat="47.53751" lon="6.77708">
        <ele>360</ele>
        <time>2015-11-01T11:04:56.000Z</time>
      </trkpt>
      <trkpt lat="47.53748" lon="6.77703">
        <ele>361</ele>
        <time>2015-11-01T11:04:58.000Z</time>
      </trkpt>
      <trkpt lat="47.53746" lon="6.777">
        <ele>361</ele>
        <time>2015-11-01T11:04:59.000Z</time>
      </trkpt>
      <trkpt lat="47.53745" lon="6.77697">
        <ele>361</ele>
        <time>2015-11-01T11:05:00.000Z</time>
      </trkpt>
      <trkpt lat="47.53743" lon="6.77694">
        <ele>361</ele>
        <time>2015-11-01T11:05:01.000Z</time>
      </trkpt>
      <trkpt lat="47.53742" lon="6.7769">
        <ele>362</ele>
        <time>2015-11-01T11:05:02.000Z</time>
      </trkpt>
      <trkpt lat="47.5374" lon="6.77687">
        <ele>362</ele>
        <time>2015-11-01T11:05:03.000Z</time>
      </trkpt>
      <trkpt lat="47.53739" lon="6.77683">
        <ele>362</ele>
        <time>2015-11-01T11:05:04.000Z</time>
      </trkpt>
      <trkpt lat="47.53738" lon="6.7768">
        <ele>362</ele>
        <time>2015-11-01T11:05:05.000Z</time>
      </trkpt>
      <trkpt lat="47.53736" lon="6.77677">
        <ele>363</ele>
        <time>2015-11-01T11:05:06.000Z</time>
      </trkpt>
      <trkpt lat="47.53735" lon="6.77674">
        <ele>363</ele>
        <time>2015-11-01T11:05:07.000Z</time>
      </trkpt>
      <trkpt lat="47.53734" lon="6.77671">
        <ele>363</ele>
        <time>2015-11-01T11:05:08.000Z</time>
      </trkpt>
      <trkpt lat="47.53732" lon="6.77669">
        <ele>363</ele>
        <time>2015-11-01T11:05:09.000Z</time>
      </trkpt>
      <trkpt lat="47.5373" lon="6.77665">
        <ele>366</ele>
        <time>2015-11-01T11:05:10.000Z</time>
      </trkpt>
      <trkpt lat="47.53729" lon="6.77662">
        <ele>366</ele>
        <time>2015-11-01T11:05:11.000Z</time>
      </trkpt>
      <trkpt lat="47.53727" lon="6.77659">
        <ele>367</ele>
        <time>2015-11-01T11:05:12.000Z</time>
      </trkpt>
      <trkpt lat="47.53726" lon="6.77656">
        <ele>367</ele>
        <time>2015-11-01T11:05:13.000Z</time>
      </trkpt>
      <trkpt lat="47.53723" lon="6.77652">
        <ele>367</ele>
        <time>2015-11-01T11:05:15.000Z</time>
      </trkpt>
      <trkpt lat="47.53722" lon="6.77649">
        <ele>367</ele>
        <time>2015-11-01T11:05:16.000Z</time>
      </trkpt>
      <trkpt lat="47.53719" lon="6.77644">
        <ele>367</ele>
        <time>2015-11-01T11:05:18.000Z</time>
      </trkpt>
      <trkpt lat="47.53718" lon="6.77641">
        <ele>367</ele>
        <time>2015-11-01T11:05:19.000Z</time>
      </trkpt>
      <trkpt lat="47.53716" lon="6.77636">
        <ele>367</ele>
        <time>2015-11-01T11:05:21.000Z</time>
      </trkpt>
      <trkpt lat="47.53715" lon="6.77633">
        <ele>367</ele>
        <time>2015-11-01T11:05:22.000Z</time>
      </trkpt>
      <trkpt lat="47.53712" lon="6.77628">
        <ele>367</ele>
        <time>2015-11-01T11:05:24.000Z</time>
      </trkpt>
      <trkpt lat="47.53711" lon="6.77626">
        <ele>368</ele>
        <time>2015-11-01T11:05:25.000Z</time>
      </trkpt>
      <trkpt lat="47.53708" lon="6.77621">
        <ele>368</ele>
        <time>2015-11-01T11:05:27.000Z</time>
      </trkpt>
      <trkpt lat="47.53706" lon="6.77618">
        <ele>368</ele>
        <time>2015-11-01T11:05:28.000Z</time>
      </trkpt>
      <trkpt lat="47.53704" lon="6.77615">
        <ele>368</ele>
        <time>2015-11-01T11:05:29.000Z</time>
      </trkpt>
      <trkpt lat="47.53703" lon="6.77612">
        <ele>368</ele>
        <time>2015-11-01T11:05:30.000Z</time>
      </trkpt>
      <trkpt lat="47.53701" lon="6.77609">
        <ele>368</ele>
        <time>2015-11-01T11:05:31.000Z</time>
      </trkpt>
      <trkpt lat="47.537" lon="6.77607">
        <ele>368</ele>
        <time>2015-11-01T11:05:32.000Z</time>
      </trkpt>
      <trkpt lat="47.53698" lon="6.77604">
        <ele>368</ele>
        <time>2015-11-01T11:05:33.000Z</time>
      </trkpt>
      <trkpt lat="47.53697" lon="6.77602">
        <ele>368</ele>
        <time>2015-11-01T11:05:34.000Z</time>
      </trkpt>
      <trkpt lat="47.53695" lon="6.77599">
        <ele>368</ele>
        <time>2015-11-01T11:05:35.000Z</time>
      </trkpt>
      <trkpt lat="47.53693" lon="6.77597">
        <ele>368</ele>
        <time>2015-11-01T11:05:36.000Z</time>
      </trkpt>
      <trkpt lat="47.53691" lon="6.77595">
        <ele>368</ele>
        <time>2015-11-01T11:05:37.000Z</time>
      </trkpt>
      <trkpt lat="47.5369" lon="6.77593">
        <ele>368</ele>
        <time>2015-11-01T11:05:38.000Z</time>
      </trkpt>
      <trkpt lat="47.53687" lon="6.77588">
        <ele>369</ele>
        <time>2015-11-01T11:05:40.000Z</time>
      </trkpt>
      <trkpt lat="47.53685" lon="6.77586">
        <ele>369</ele>
        <time>2015-11-01T11:05:41.000Z</time>
      </trkpt>
      <trkpt lat="47.53683" lon="6.77582">
        <ele>373</ele>
        <time>2015-11-01T11:05:43.000Z</time>
      </trkpt>
      <trkpt lat="47.53682" lon="6.77579">
        <ele>373</ele>
        <time>2015-11-01T11:05:44.000Z</time>
      </trkpt>
      <trkpt lat="47.5368" lon="6.77575">
        <ele>373</ele>
        <time>2015-11-01T11:05:46.000Z</time>
      </trkpt>
      <trkpt lat="47.53679" lon="6.77573">
        <ele>373</ele>
        <time>2015-11-01T11:05:47.000Z</time>
      </trkpt>
      <trkpt lat="47.53676" lon="6.77567">
        <ele>374</ele>
        <time>2015-11-01T11:05:49.000Z</time>
      </trkpt>
      <trkpt lat="47.53675" lon="6.77564">
        <ele>374</ele>
        <time>2015-11-01T11:05:50.000Z</time>
      </trkpt>
      <trkpt lat="47.53674" lon="6.77561">
        <ele>374</ele>
        <time>2015-11-01T11:05:51.000Z</time>
      </trkpt>
      <trkpt lat="47.53672" lon="6.77559">
        <ele>375</ele>
        <time>2015-11-01T11:05:52.000Z</time>
      </trkpt>
      <trkpt lat="47.5367" lon="6.77556">
        <ele>375</ele>
        <time>2015-11-01T11:05:53.000Z</time>
      </trkpt>
      <trkpt lat="47.53669" lon="6.77553">
        <ele>375</ele>
        <time>2015-11-01T11:05:54.000Z</time>
      </trkpt>
      <trkpt lat="47.53667" lon="6.77551">
        <ele>375</ele>
        <time>2015-11-01T11:05:55.000Z</time>
      </trkpt>
      <trkpt lat="47.53666" lon="6.77548">
        <ele>371</ele>
        <time>2015-11-01T11:05:56.000Z</time>
      </trkpt>
      <trkpt lat="47.53664" lon="6.77545">
        <ele>371</ele>
        <time>2015-11-01T11:05:57.000Z</time>
      </trkpt>
      <trkpt lat="47.53663" lon="6.77542">
        <ele>371</ele>
        <time>2015-11-01T11:05:58.000Z</time>
      </trkpt>
      <trkpt lat="47.53661" lon="6.77536">
        <ele>372</ele>
        <time>2015-11-01T11:06:00.000Z</time>
      </trkpt>
      <trkpt lat="47.5366" lon="6.77534">
        <ele>372</ele>
        <time>2015-11-01T11:06:01.000Z</time>
      </trkpt>
      <trkpt lat="47.53658" lon="6.7753">
        <ele>372</ele>
        <time>2015-11-01T11:06:03.000Z</time>
      </trkpt>
      <trkpt lat="47.53657" lon="6.77529">
        <ele>372</ele>
        <time>2015-11-01T11:06:04.000Z</time>
      </trkpt>
      <trkpt lat="47.53654" lon="6.77525">
        <ele>373</ele>
        <time>2015-11-01T11:06:06.000Z</time>
      </trkpt>
      <trkpt lat="47.53652" lon="6.77522">
        <ele>373</ele>
        <time>2015-11-01T11:06:07.000Z</time>
      </trkpt>
      <trkpt lat="47.5365" lon="6.77519">
        <ele>373</ele>
        <time>2015-11-01T11:06:09.000Z</time>
      </trkpt>
      <trkpt lat="47.53648" lon="6.77517">
        <ele>373</ele>
        <time>2015-11-01T11:06:10.000Z</time>
      </trkpt>
      <trkpt lat="47.53645" lon="6.77514">
        <ele>373</ele>
        <time>2015-11-01T11:06:12.000Z</time>
      </trkpt>
      <trkpt lat="47.53644" lon="6.77512">
        <ele>373</ele>
        <time>2015-11-01T11:06:13.000Z</time>
      </trkpt>
      <trkpt lat="47.53642" lon="6.77509">
        <ele>373</ele>
        <time>2015-11-01T11:06:14.000Z</time>
      </trkpt>
      <trkpt lat="47.53641" lon="6.77507">
        <ele>373</ele>
        <time>2015-11-01T11:06:15.000Z</time>
      </trkpt>
      <trkpt lat="47.53639" lon="6.77504">
        <ele>373</ele>
        <time>2015-11-01T11:06:16.000Z</time>
      </trkpt>
      <trkpt lat="47.53637" lon="6.77502">
        <ele>372</ele>
        <time>2015-11-01T11:06:17.000Z</time>
      </trkpt>
      <trkpt lat="47.53636" lon="6.77499">
        <ele>376</ele>
        <time>2015-11-01T11:06:18.000Z</time>
      </trkpt>
      <trkpt lat="47.53634" lon="6.77497">
        <ele>376</ele>
        <time>2015-11-01T11:06:19.000Z</time>
      </trkpt>
      <trkpt lat="47.53632" lon="6.77494">
        <ele>376</ele>
        <time>2015-11-01T11:06:20.000Z</time>
      </trkpt>
      <trkpt lat="47.5363" lon="6.77492">
        <ele>376</ele>
        <time>2015-11-01T11:06:21.000Z</time>
      </trkpt>
      <trkpt lat="47.53628" lon="6.7749">
        <ele>376</ele>
        <time>2015-11-01T11:06:22.000Z</time>
      </trkpt>
      <trkpt lat="47.53626" lon="6.77488">
        <ele>376</ele>
        <time>2015-11-01T11:06:23.000Z</time>
      </trkpt>
      <trkpt lat="47.53624" lon="6.77486">
        <ele>376</ele>
        <time>2015-11-01T11:06:24.000Z</time>
      </trkpt>
      <trkpt lat="47.53621" lon="6.77484">
        <ele>376</ele>
        <time>2015-11-01T11:06:25.000Z</time>
      </trkpt>
      <trkpt lat="47.53619" lon="6.77481">
        <ele>375</ele>
        <time>2015-11-01T11:06:26.000Z</time>
      </trkpt>
      <trkpt lat="47.53616" lon="6.77478">
        <ele>375</ele>
        <time>2015-11-01T11:06:27.000Z</time>
      </trkpt>
      <trkpt lat="47.53613" lon="6.77476">
        <ele>375</ele>
        <time>2015-11-01T11:06:28.000Z</time>
      </trkpt>
      <trkpt lat="47.53611" lon="6.77473">
        <ele>375</ele>
        <time>2015-11-01T11:06:29.000Z</time>
      </trkpt>
      <trkpt lat="47.53608" lon="6.77471">
        <ele>375</ele>
        <time>2015-11-01T11:06:30.000Z</time>
      </trkpt>
      <trkpt lat="47.53606" lon="6.77468">
        <ele>375</ele>
        <time>2015-11-01T11:06:31.000Z</time>
      </trkpt>
      <trkpt lat="47.53603" lon="6.77465">
        <ele>375</ele>
        <time>2015-11-01T11:06:32.000Z</time>
      </trkpt>
      <trkpt lat="47.53601" lon="6.77462">
        <ele>375</ele>
        <time>2015-11-01T11:06:33.000Z</time>
      </trkpt>
      <trkpt lat="47.53599" lon="6.7746">
        <ele>375</ele>
        <time>2015-11-01T11:06:34.000Z</time>
      </trkpt>
      <trkpt lat="47.53596" lon="6.77457">
        <ele>375</ele>
        <time>2015-11-01T11:06:35.000Z</time>
      </trkpt>
      <trkpt lat="47.53594" lon="6.77454">
        <ele>375</ele>
        <time>2015-11-01T11:06:36.000Z</time>
      </trkpt>
      <trkpt lat="47.5359" lon="6.77451">
        <ele>375</ele>
        <time>2015-11-01T11:06:37.000Z</time>
      </trkpt>
      <trkpt lat="47.53587" lon="6.77447">
        <ele>375</ele>
        <time>2015-11-01T11:06:38.000Z</time>
      </trkpt>
      <trkpt lat="47.53584" lon="6.77444">
        <ele>375</ele>
        <time>2015-11-01T11:06:39.000Z</time>
      </trkpt>
      <trkpt lat="47.53581" lon="6.77441">
        <ele>371</ele>
        <time>2015-11-01T11:06:40.000Z</time>
      </trkpt>
      <trkpt lat="47.53577" lon="6.77438">
        <ele>371</ele>
        <time>2015-11-01T11:06:41.000Z</time>
      </trkpt>
      <trkpt lat="47.53574" lon="6.77435">
        <ele>372</ele>
        <time>2015-11-01T11:06:42.000Z</time>
      </trkpt>
      <trkpt lat="47.5357" lon="6.77431">
        <ele>372</ele>
        <time>2015-11-01T11:06:43.000Z</time>
      </trkpt>
      <trkpt lat="47.53567" lon="6.77428">
        <ele>372</ele>
        <time>2015-11-01T11:06:44.000Z</time>
      </trkpt>
      <trkpt lat="47.53563" lon="6.77424">
        <ele>371</ele>
        <time>2015-11-01T11:06:45.000Z</time>
      </trkpt>
      <trkpt lat="47.5356" lon="6.77419">
        <ele>371</ele>
        <time>2015-11-01T11:06:46.000Z</time>
      </trkpt>
      <trkpt lat="47.53556" lon="6.77415">
        <ele>373</ele>
        <time>2015-11-01T11:06:47.000Z</time>
      </trkpt>
      <trkpt lat="47.53551" lon="6.77407">
        <ele>373</ele>
        <time>2015-11-01T11:06:48.000Z</time>
      </trkpt>
      <trkpt lat="47.53547" lon="6.77402">
        <ele>373</ele>
        <time>2015-11-01T11:06:49.000Z</time>
      </trkpt>
      <trkpt lat="47.53543" lon="6.77397">
        <ele>373</ele>
        <time>2015-11-01T11:06:50.000Z</time>
      </trkpt>
      <trkpt lat="47.53539" lon="6.77391">
        <ele>372</ele>
        <time>2015-11-01T11:06:51.000Z</time>
      </trkpt>
      <trkpt lat="47.53536" lon="6.77386">
        <ele>372</ele>
        <time>2015-11-01T11:06:52.000Z</time>
      </trkpt>
      <trkpt lat="47.53532" lon="6.7738">
        <ele>372</ele>
        <time>2015-11-01T11:06:53.000Z</time>
      </trkpt>
      <trkpt lat="47.53529" lon="6.77374">
        <ele>372</ele>
        <time>2015-11-01T11:06:54.000Z</time>
      </trkpt>
      <trkpt lat="47.53526" lon="6.77368">
        <ele>372</ele>
        <time>2015-11-01T11:06:55.000Z</time>
      </trkpt>
      <trkpt lat="47.53523" lon="6.77362">
        <ele>372</ele>
        <time>2015-11-01T11:06:56.000Z</time>
      </trkpt>
      <trkpt lat="47.53519" lon="6.77355">
        <ele>372</ele>
        <time>2015-11-01T11:06:57.000Z</time>
      </trkpt>
      <trkpt lat="47.53516" lon="6.77349">
        <ele>371</ele>
        <time>2015-11-01T11:06:58.000Z</time>
      </trkpt>
      <trkpt lat="47.53513" lon="6.77342">
        <ele>371</ele>
        <time>2015-11-01T11:06:59.000Z</time>
      </trkpt>
      <trkpt lat="47.53509" lon="6.77336">
        <ele>370</ele>
        <time>2015-11-01T11:07:00.000Z</time>
      </trkpt>
      <trkpt lat="47.53506" lon="6.77329">
        <ele>371</ele>
        <time>2015-11-01T11:07:01.000Z</time>
      </trkpt>
      <trkpt lat="47.53503" lon="6.77322">
        <ele>372</ele>
        <time>2015-11-01T11:07:02.000Z</time>
      </trkpt>
      <trkpt lat="47.53499" lon="6.77315">
        <ele>369</ele>
        <time>2015-11-01T11:07:03.000Z</time>
      </trkpt>
      <trkpt lat="47.53495" lon="6.77306">
        <ele>369</ele>
        <time>2015-11-01T11:07:04.000Z</time>
      </trkpt>
      <trkpt lat="47.53491" lon="6.77299">
        <ele>369</ele>
        <time>2015-11-01T11:07:05.000Z</time>
      </trkpt>
      <trkpt lat="47.53488" lon="6.77292">
        <ele>369</ele>
        <time>2015-11-01T11:07:06.000Z</time>
      </trkpt>
      <trkpt lat="47.53483" lon="6.77287">
        <ele>369</ele>
        <time>2015-11-01T11:07:07.000Z</time>
      </trkpt>
      <trkpt lat="47.53475" lon="6.77284">
        <ele>369</ele>
        <time>2015-11-01T11:07:08.000Z</time>
      </trkpt>
      <trkpt lat="47.5347" lon="6.7728">
        <ele>369</ele>
        <time>2015-11-01T11:07:09.000Z</time>
      </trkpt>
      <trkpt lat="47.53463" lon="6.77276">
        <ele>368</ele>
        <time>2015-11-01T11:07:10.000Z</time>
      </trkpt>
      <trkpt lat="47.53457" lon="6.77273">
        <ele>368</ele>
        <time>2015-11-01T11:07:11.000Z</time>
      </trkpt>
      <trkpt lat="47.5345" lon="6.77267">
        <ele>368</ele>
        <time>2015-11-01T11:07:12.000Z</time>
      </trkpt>
      <trkpt lat="47.53444" lon="6.77263">
        <ele>368</ele>
        <time>2015-11-01T11:07:13.000Z</time>
      </trkpt>
      <trkpt lat="47.53437" lon="6.77259">
        <ele>367</ele>
        <time>2015-11-01T11:07:14.000Z</time>
      </trkpt>
      <trkpt lat="47.53429" lon="6.77257">
        <ele>367</ele>
        <time>2015-11-01T11:07:15.000Z</time>
      </trkpt>
      <trkpt lat="47.53423" lon="6.77255">
        <ele>366</ele>
        <time>2015-11-01T11:07:16.000Z</time>
      </trkpt>
      <trkpt lat="47.53417" lon="6.77252">
        <ele>365</ele>
        <time>2015-11-01T11:07:17.000Z</time>
      </trkpt>
      <trkpt lat="47.5341" lon="6.77249">
        <ele>365</ele>
        <time>2015-11-01T11:07:18.000Z</time>
      </trkpt>
      <trkpt lat="47.53404" lon="6.77247">
        <ele>365</ele>
        <time>2015-11-01T11:07:19.000Z</time>
      </trkpt>
      <trkpt lat="47.53394" lon="6.77244">
        <ele>365</ele>
        <time>2015-11-01T11:07:20.000Z</time>
      </trkpt>
      <trkpt lat="47.53386" lon="6.77241">
        <ele>365</ele>
        <time>2015-11-01T11:07:21.000Z</time>
      </trkpt>
      <trkpt lat="47.53378" lon="6.7724">
        <ele>365</ele>
        <time>2015-11-01T11:07:22.000Z</time>
      </trkpt>
      <trkpt lat="47.53371" lon="6.77238">
        <ele>365</ele>
        <time>2015-11-01T11:07:23.000Z</time>
      </trkpt>
      <trkpt lat="47.53365" lon="6.77237">
        <ele>365</ele>
        <time>2015-11-01T11:07:24.000Z</time>
      </trkpt>
      <trkpt lat="47.53357" lon="6.77238">
        <ele>365</ele>
        <time>2015-11-01T11:07:25.000Z</time>
      </trkpt>
      <trkpt lat="47.5335" lon="6.77239">
        <ele>365</ele>
        <time>2015-11-01T11:07:26.000Z</time>
      </trkpt>
      <trkpt lat="47.53344" lon="6.77239">
        <ele>365</ele>
        <time>2015-11-01T11:07:27.000Z</time>
      </trkpt>
      <trkpt lat="47.53337" lon="6.77239">
        <ele>364</ele>
        <time>2015-11-01T11:07:28.000Z</time>
      </trkpt>
      <trkpt lat="47.53331" lon="6.77239">
        <ele>365</ele>
        <time>2015-11-01T11:07:29.000Z</time>
      </trkpt>
      <trkpt lat="47.53325" lon="6.77239">
        <ele>365</ele>
        <time>2015-11-01T11:07:30.000Z</time>
      </trkpt>
      <trkpt lat="47.53319" lon="6.77239">
        <ele>366</ele>
        <time>2015-11-01T11:07:31.000Z</time>
      </trkpt>
      <trkpt lat="47.53313" lon="6.77239">
        <ele>366</ele>
        <time>2015-11-01T11:07:32.000Z</time>
      </trkpt>
      <trkpt lat="47.53307" lon="6.7724">
        <ele>366</ele>
        <time>2015-11-01T11:07:33.000Z</time>
      </trkpt>
      <trkpt lat="47.533" lon="6.77241">
        <ele>366</ele>
        <time>2015-11-01T11:07:34.000Z</time>
      </trkpt>
      <trkpt lat="47.53295" lon="6.77241">
        <ele>367</ele>
        <time>2015-11-01T11:07:35.000Z</time>
      </trkpt>
      <trkpt lat="47.5329" lon="6.7724">
        <ele>367</ele>
        <time>2015-11-01T11:07:36.000Z</time>
      </trkpt>
      <trkpt lat="47.53285" lon="6.7724">
        <ele>367</ele>
        <time>2015-11-01T11:07:37.000Z</time>
      </trkpt>
      <trkpt lat="47.53283" lon="6.77239">
        <ele>367</ele>
        <time>2015-11-01T11:07:38.000Z</time>
      </trkpt>
      <trkpt lat="47.53278" lon="6.77239">
        <ele>367</ele>
        <time>2015-11-01T11:07:39.000Z</time>
      </trkpt>
      <trkpt lat="47.53273" lon="6.77239">
        <ele>368</ele>
        <time>2015-11-01T11:07:40.000Z</time>
      </trkpt>
      <trkpt lat="47.53268" lon="6.77239">
        <ele>368</ele>
        <time>2015-11-01T11:07:41.000Z</time>
      </trkpt>
      <trkpt lat="47.53264" lon="6.77238">
        <ele>368</ele>
        <time>2015-11-01T11:07:42.000Z</time>
      </trkpt>
      <trkpt lat="47.53259" lon="6.77239">
        <ele>368</ele>
        <time>2015-11-01T11:07:43.000Z</time>
      </trkpt>
      <trkpt lat="47.53255" lon="6.77238">
        <ele>368</ele>
        <time>2015-11-01T11:07:44.000Z</time>
      </trkpt>
      <trkpt lat="47.53252" lon="6.77237">
        <ele>368</ele>
        <time>2015-11-01T11:07:45.000Z</time>
      </trkpt>
      <trkpt lat="47.53247" lon="6.77239">
        <ele>369</ele>
        <time>2015-11-01T11:07:46.000Z</time>
      </trkpt>
      <trkpt lat="47.53242" lon="6.77238">
        <ele>369</ele>
        <time>2015-11-01T11:07:47.000Z</time>
      </trkpt>
      <trkpt lat="47.53239" lon="6.77238">
        <ele>369</ele>
        <time>2015-11-01T11:07:48.000Z</time>
      </trkpt>
      <trkpt lat="47.53236" lon="6.77238">
        <ele>369</ele>
        <time>2015-11-01T11:07:49.000Z</time>
      </trkpt>
      <trkpt lat="47.53231" lon="6.77238">
        <ele>370</ele>
        <time>2015-11-01T11:07:50.000Z</time>
      </trkpt>
      <trkpt lat="47.53227" lon="6.7724">
        <ele>370</ele>
        <time>2015-11-01T11:07:51.000Z</time>
      </trkpt>
      <trkpt lat="47.53223" lon="6.77239">
        <ele>370</ele>
        <time>2015-11-01T11:07:52.000Z</time>
      </trkpt>
      <trkpt lat="47.53219" lon="6.7724">
        <ele>370</ele>
        <time>2015-11-01T11:07:53.000Z</time>
      </trkpt>
      <trkpt lat="47.53216" lon="6.77241">
        <ele>370</ele>
        <time>2015-11-01T11:07:54.000Z</time>
      </trkpt>
      <trkpt lat="47.53213" lon="6.77241">
        <ele>370</ele>
        <time>2015-11-01T11:07:55.000Z</time>
      </trkpt>
      <trkpt lat="47.5321" lon="6.77242">
        <ele>370</ele>
        <time>2015-11-01T11:07:56.000Z</time>
      </trkpt>
      <trkpt lat="47.53207" lon="6.77242">
        <ele>370</ele>
        <time>2015-11-01T11:07:57.000Z</time>
      </trkpt>
      <trkpt lat="47.53204" lon="6.77242">
        <ele>370</ele>
        <time>2015-11-01T11:07:58.000Z</time>
      </trkpt>
      <trkpt lat="47.532" lon="6.77241">
        <ele>370</ele>
        <time>2015-11-01T11:07:59.000Z</time>
      </trkpt>
      <trkpt lat="47.53195" lon="6.77241">
        <ele>370</ele>
        <time>2015-11-01T11:08:00.000Z</time>
      </trkpt>
      <trkpt lat="47.53185" lon="6.77241">
        <ele>370</ele>
        <time>2015-11-01T11:08:01.000Z</time>
      </trkpt>
      <trkpt lat="47.5318" lon="6.7724">
        <ele>370</ele>
        <time>2015-11-01T11:08:02.000Z</time>
      </trkpt>
      <trkpt lat="47.53176" lon="6.77241">
        <ele>370</ele>
        <time>2015-11-01T11:08:03.000Z</time>
      </trkpt>
      <trkpt lat="47.5317" lon="6.77241">
        <ele>370</ele>
        <time>2015-11-01T11:08:04.000Z</time>
      </trkpt>
      <trkpt lat="47.53166" lon="6.77243">
        <ele>370</ele>
        <time>2015-11-01T11:08:05.000Z</time>
      </trkpt>
      <trkpt lat="47.53162" lon="6.77244">
        <ele>370</ele>
        <time>2015-11-01T11:08:06.000Z</time>
      </trkpt>
      <trkpt lat="47.53158" lon="6.77244">
        <ele>370</ele>
        <time>2015-11-01T11:08:07.000Z</time>
      </trkpt>
      <trkpt lat="47.53155" lon="6.77244">
        <ele>370</ele>
        <time>2015-11-01T11:08:08.000Z</time>
      </trkpt>
      <trkpt lat="47.53151" lon="6.77244">
        <ele>370</ele>
        <time>2015-11-01T11:08:09.000Z</time>
      </trkpt>
      <trkpt lat="47.53146" lon="6.77244">
        <ele>370</ele>
        <time>2015-11-01T11:08:10.000Z</time>
      </trkpt>
      <trkpt lat="47.53142" lon="6.77244">
        <ele>370</ele>
        <time>2015-11-01T11:08:11.000Z</time>
      </trkpt>
      <trkpt lat="47.53138" lon="6.77243">
        <ele>370</ele>
        <time>2015-11-01T11:08:12.000Z</time>
      </trkpt>
      <trkpt lat="47.53134" lon="6.77242">
        <ele>370</ele>
        <time>2015-11-01T11:08:13.000Z</time>
      </trkpt>
      <trkpt lat="47.53129" lon="6.77242">
        <ele>370</ele>
        <time>2015-11-01T11:08:14.000Z</time>
      </trkpt>
      <trkpt lat="47.53119" lon="6.77245">
        <ele>370</ele>
        <time>2015-11-01T11:08:15.000Z</time>
      </trkpt>
      <trkpt lat="47.53113" lon="6.77245">
        <ele>370</ele>
        <time>2015-11-01T11:08:16.000Z</time>
      </trkpt>
      <trkpt lat="47.53108" lon="6.77245">
        <ele>370</ele>
        <time>2015-11-01T11:08:17.000Z</time>
      </trkpt>
      <trkpt lat="47.53104" lon="6.77244">
        <ele>370</ele>
        <time>2015-11-01T11:08:18.000Z</time>
      </trkpt>
      <trkpt lat="47.53099" lon="6.77244">
        <ele>370</ele>
        <time>2015-11-01T11:08:19.000Z</time>
      </trkpt>
      <trkpt lat="47.53094" lon="6.77244">
        <ele>370</ele>
        <time>2015-11-01T11:08:20.000Z</time>
      </trkpt>
      <trkpt lat="47.53086" lon="6.77245">
        <ele>369</ele>
        <time>2015-11-01T11:08:21.000Z</time>
      </trkpt>
      <trkpt lat="47.53079" lon="6.77246">
        <ele>370</ele>
        <time>2015-11-01T11:08:22.000Z</time>
      </trkpt>
      <trkpt lat="47.53073" lon="6.77246">
        <ele>370</ele>
        <time>2015-11-01T11:08:23.000Z</time>
      </trkpt>
      <trkpt lat="47.53067" lon="6.77245">
        <ele>370</ele>
        <time>2015-11-01T11:08:24.000Z</time>
      </trkpt>
      <trkpt lat="47.53064" lon="6.77244">
        <ele>370</ele>
        <time>2015-11-01T11:08:25.000Z</time>
      </trkpt>
      <trkpt lat="47.53059" lon="6.77244">
        <ele>371</ele>
        <time>2015-11-01T11:08:26.000Z</time>
      </trkpt>
      <trkpt lat="47.53054" lon="6.77246">
        <ele>371</ele>
        <time>2015-11-01T11:08:27.000Z</time>
      </trkpt>
      <trkpt lat="47.53048" lon="6.77247">
        <ele>371</ele>
        <time>2015-11-01T11:08:28.000Z</time>
      </trkpt>
      <trkpt lat="47.53043" lon="6.77247">
        <ele>371</ele>
        <time>2015-11-01T11:08:29.000Z</time>
      </trkpt>
      <trkpt lat="47.53039" lon="6.77247">
        <ele>371</ele>
        <time>2015-11-01T11:08:30.000Z</time>
      </trkpt>
      <trkpt lat="47.53035" lon="6.77246">
        <ele>371</ele>
        <time>2015-11-01T11:08:31.000Z</time>
      </trkpt>
      <trkpt lat="47.5303" lon="6.77245">
        <ele>371</ele>
        <time>2015-11-01T11:08:32.000Z</time>
      </trkpt>
      <trkpt lat="47.53026" lon="6.77244">
        <ele>371</ele>
        <time>2015-11-01T11:08:33.000Z</time>
      </trkpt>
      <trkpt lat="47.53021" lon="6.77244">
        <ele>371</ele>
        <time>2015-11-01T11:08:34.000Z</time>
      </trkpt>
      <trkpt lat="47.53016" lon="6.77244">
        <ele>371</ele>
        <time>2015-11-01T11:08:35.000Z</time>
      </trkpt>
      <trkpt lat="47.53012" lon="6.77244">
        <ele>371</ele>
        <time>2015-11-01T11:08:36.000Z</time>
      </trkpt>
      <trkpt lat="47.53007" lon="6.77243">
        <ele>371</ele>
        <time>2015-11-01T11:08:37.000Z</time>
      </trkpt>
      <trkpt lat="47.53004" lon="6.77243">
        <ele>371</ele>
        <time>2015-11-01T11:08:38.000Z</time>
      </trkpt>
      <trkpt lat="47.53001" lon="6.77243">
        <ele>371</ele>
        <time>2015-11-01T11:08:39.000Z</time>
      </trkpt>
      <trkpt lat="47.52998" lon="6.77243">
        <ele>372</ele>
        <time>2015-11-01T11:08:40.000Z</time>
      </trkpt>
      <trkpt lat="47.52994" lon="6.77243">
        <ele>372</ele>
        <time>2015-11-01T11:08:41.000Z</time>
      </trkpt>
      <trkpt lat="47.5299" lon="6.77243">
        <ele>372</ele>
        <time>2015-11-01T11:08:42.000Z</time>
      </trkpt>
      <trkpt lat="47.52986" lon="6.77243">
        <ele>372</ele>
        <time>2015-11-01T11:08:43.000Z</time>
      </trkpt>
      <trkpt lat="47.52982" lon="6.77243">
        <ele>372</ele>
        <time>2015-11-01T11:08:44.000Z</time>
      </trkpt>
      <trkpt lat="47.5298" lon="6.77244">
        <ele>373</ele>
        <time>2015-11-01T11:08:45.000Z</time>
      </trkpt>
      <trkpt lat="47.52978" lon="6.77244">
        <ele>373</ele>
        <time>2015-11-01T11:08:46.000Z</time>
      </trkpt>
      <trkpt lat="47.52974" lon="6.77244">
        <ele>373</ele>
        <time>2015-11-01T11:08:47.000Z</time>
      </trkpt>
      <trkpt lat="47.5297" lon="6.77243">
        <ele>373</ele>
        <time>2015-11-01T11:08:48.000Z</time>
      </trkpt>
      <trkpt lat="47.52966" lon="6.77243">
        <ele>373</ele>
        <time>2015-11-01T11:08:49.000Z</time>
      </trkpt>
      <trkpt lat="47.52963" lon="6.77243">
        <ele>373</ele>
        <time>2015-11-01T11:08:50.000Z</time>
      </trkpt>
      <trkpt lat="47.52959" lon="6.77243">
        <ele>373</ele>
        <time>2015-11-01T11:08:51.000Z</time>
      </trkpt>
      <trkpt lat="47.52956" lon="6.77243">
        <ele>373</ele>
        <time>2015-11-01T11:08:52.000Z</time>
      </trkpt>
      <trkpt lat="47.52951" lon="6.77244">
        <ele>373</ele>
        <time>2015-11-01T11:08:53.000Z</time>
      </trkpt>
      <trkpt lat="47.52948" lon="6.77245">
        <ele>374</ele>
        <time>2015-11-01T11:08:54.000Z</time>
      </trkpt>
      <trkpt lat="47.52944" lon="6.77245">
        <ele>374</ele>
        <time>2015-11-01T11:08:55.000Z</time>
      </trkpt>
      <trkpt lat="47.5294" lon="6.77246">
        <ele>374</ele>
        <time>2015-11-01T11:08:56.000Z</time>
      </trkpt>
      <trkpt lat="47.52937" lon="6.77247">
        <ele>374</ele>
        <time>2015-11-01T11:08:57.000Z</time>
      </trkpt>
      <trkpt lat="47.52934" lon="6.77247">
        <ele>374</ele>
        <time>2015-11-01T11:08:58.000Z</time>
      </trkpt>
      <trkpt lat="47.5293" lon="6.77247">
        <ele>374</ele>
        <time>2015-11-01T11:08:59.000Z</time>
      </trkpt>
      <trkpt lat="47.52927" lon="6.77246">
        <ele>374</ele>
        <time>2015-11-01T11:09:00.000Z</time>
      </trkpt>
      <trkpt lat="47.52924" lon="6.77246">
        <ele>374</ele>
        <time>2015-11-01T11:09:01.000Z</time>
      </trkpt>
      <trkpt lat="47.52921" lon="6.77246">
        <ele>374</ele>
        <time>2015-11-01T11:09:02.000Z</time>
      </trkpt>
      <trkpt lat="47.52917" lon="6.77246">
        <ele>374</ele>
        <time>2015-11-01T11:09:03.000Z</time>
      </trkpt>
      <trkpt lat="47.52914" lon="6.77246">
        <ele>375</ele>
        <time>2015-11-01T11:09:04.000Z</time>
      </trkpt>
      <trkpt lat="47.5291" lon="6.77247">
        <ele>375</ele>
        <time>2015-11-01T11:09:05.000Z</time>
      </trkpt>
      <trkpt lat="47.52906" lon="6.77247">
        <ele>375</ele>
        <time>2015-11-01T11:09:06.000Z</time>
      </trkpt>
      <trkpt lat="47.52902" lon="6.77247">
        <ele>375</ele>
        <time>2015-11-01T11:09:07.000Z</time>
      </trkpt>
      <trkpt lat="47.52898" lon="6.77247">
        <ele>376</ele>
        <time>2015-11-01T11:09:08.000Z</time>
      </trkpt>
      <trkpt lat="47.52893" lon="6.77247">
        <ele>376</ele>
        <time>2015-11-01T11:09:09.000Z</time>
      </trkpt>
      <trkpt lat="47.52889" lon="6.77248">
        <ele>376</ele>
        <time>2015-11-01T11:09:10.000Z</time>
      </trkpt>
      <trkpt lat="47.52884" lon="6.77248">
        <ele>376</ele>
        <time>2015-11-01T11:09:11.000Z</time>
      </trkpt>
      <trkpt lat="47.5288" lon="6.77249">
        <ele>377</ele>
        <time>2015-11-01T11:09:12.000Z</time>
      </trkpt>
      <trkpt lat="47.52876" lon="6.7725">
        <ele>377</ele>
        <time>2015-11-01T11:09:13.000Z</time>
      </trkpt>
      <trkpt lat="47.52873" lon="6.7725">
        <ele>378</ele>
        <time>2015-11-01T11:09:14.000Z</time>
      </trkpt>
      <trkpt lat="47.5287" lon="6.7725">
        <ele>379</ele>
        <time>2015-11-01T11:09:15.000Z</time>
      </trkpt>
      <trkpt lat="47.52867" lon="6.77251">
        <ele>379</ele>
        <time>2015-11-01T11:09:16.000Z</time>
      </trkpt>
      <trkpt lat="47.52864" lon="6.77251">
        <ele>379</ele>
        <time>2015-11-01T11:09:17.000Z</time>
      </trkpt>
      <trkpt lat="47.52861" lon="6.77251">
        <ele>379</ele>
        <time>2015-11-01T11:09:18.000Z</time>
      </trkpt>
      <trkpt lat="47.52859" lon="6.77252">
        <ele>379</ele>
        <time>2015-11-01T11:09:19.000Z</time>
      </trkpt>
      <trkpt lat="47.52856" lon="6.77252">
        <ele>379</ele>
        <time>2015-11-01T11:09:20.000Z</time>
      </trkpt>
      <trkpt lat="47.52853" lon="6.77252">
        <ele>379</ele>
        <time>2015-11-01T11:09:21.000Z</time>
      </trkpt>
      <trkpt lat="47.5285" lon="6.77251">
        <ele>379</ele>
        <time>2015-11-01T11:09:22.000Z</time>
      </trkpt>
      <trkpt lat="47.52847" lon="6.77252">
        <ele>380</ele>
        <time>2015-11-01T11:09:23.000Z</time>
      </trkpt>
      <trkpt lat="47.52844" lon="6.77252">
        <ele>380</ele>
        <time>2015-11-01T11:09:24.000Z</time>
      </trkpt>
      <trkpt lat="47.5284" lon="6.77253">
        <ele>380</ele>
        <time>2015-11-01T11:09:25.000Z</time>
      </trkpt>
      <trkpt lat="47.52837" lon="6.77252">
        <ele>380</ele>
        <time>2015-11-01T11:09:26.000Z</time>
      </trkpt>
      <trkpt lat="47.52834" lon="6.77252">
        <ele>380</ele>
        <time>2015-11-01T11:09:27.000Z</time>
      </trkpt>
      <trkpt lat="47.52831" lon="6.77252">
        <ele>380</ele>
        <time>2015-11-01T11:09:28.000Z</time>
      </trkpt>
      <trkpt lat="47.52828" lon="6.77251">
        <ele>381</ele>
        <time>2015-11-01T11:09:29.000Z</time>
      </trkpt>
      <trkpt lat="47.52824" lon="6.77251">
        <ele>381</ele>
        <time>2015-11-01T11:09:30.000Z</time>
      </trkpt>
      <trkpt lat="47.52821" lon="6.7725">
        <ele>382</ele>
        <time>2015-11-01T11:09:31.000Z</time>
      </trkpt>
      <trkpt lat="47.52818" lon="6.7725">
        <ele>380</ele>
        <time>2015-11-01T11:09:32.000Z</time>
      </trkpt>
      <trkpt lat="47.52815" lon="6.7725">
        <ele>380</ele>
        <time>2015-11-01T11:09:33.000Z</time>
      </trkpt>
      <trkpt lat="47.52811" lon="6.7725">
        <ele>380</ele>
        <time>2015-11-01T11:09:34.000Z</time>
      </trkpt>
      <trkpt lat="47.52808" lon="6.7725">
        <ele>383</ele>
        <time>2015-11-01T11:09:35.000Z</time>
      </trkpt>
      <trkpt lat="47.52804" lon="6.77251">
        <ele>383</ele>
        <time>2015-11-01T11:09:36.000Z</time>
      </trkpt>
      <trkpt lat="47.52801" lon="6.77251">
        <ele>383</ele>
        <time>2015-11-01T11:09:37.000Z</time>
      </trkpt>
      <trkpt lat="47.52798" lon="6.77251">
        <ele>384</ele>
        <time>2015-11-01T11:09:38.000Z</time>
      </trkpt>
      <trkpt lat="47.52795" lon="6.77251">
        <ele>384</ele>
        <time>2015-11-01T11:09:39.000Z</time>
      </trkpt>
      <trkpt lat="47.52792" lon="6.77251">
        <ele>384</ele>
        <time>2015-11-01T11:09:40.000Z</time>
      </trkpt>
      <trkpt lat="47.52789" lon="6.77251">
        <ele>384</ele>
        <time>2015-11-01T11:09:41.000Z</time>
      </trkpt>
      <trkpt lat="47.52786" lon="6.77251">
        <ele>384</ele>
        <time>2015-11-01T11:09:42.000Z</time>
      </trkpt>
      <trkpt lat="47.52783" lon="6.77251">
        <ele>384</ele>
        <time>2015-11-01T11:09:43.000Z</time>
      </trkpt>
      <trkpt lat="47.5278" lon="6.77251">
        <ele>384</ele>
        <time>2015-11-01T11:09:44.000Z</time>
      </trkpt>
      <trkpt lat="47.52777" lon="6.77252">
        <ele>384</ele>
        <time>2015-11-01T11:09:45.000Z</time>
      </trkpt>
      <trkpt lat="47.52774" lon="6.77253">
        <ele>384</ele>
        <time>2015-11-01T11:09:46.000Z</time>
      </trkpt>
      <trkpt lat="47.52771" lon="6.77253">
        <ele>384</ele>
        <time>2015-11-01T11:09:47.000Z</time>
      </trkpt>
      <trkpt lat="47.52767" lon="6.77254">
        <ele>384</ele>
        <time>2015-11-01T11:09:48.000Z</time>
      </trkpt>
      <trkpt lat="47.52764" lon="6.77254">
        <ele>384</ele>
        <time>2015-11-01T11:09:49.000Z</time>
      </trkpt>
      <trkpt lat="47.52761" lon="6.77255">
        <ele>384</ele>
        <time>2015-11-01T11:09:50.000Z</time>
      </trkpt>
      <trkpt lat="47.52757" lon="6.77255">
        <ele>384</ele>
        <time>2015-11-01T11:09:51.000Z</time>
      </trkpt>
      <trkpt lat="47.52754" lon="6.77254">
        <ele>384</ele>
        <time>2015-11-01T11:09:52.000Z</time>
      </trkpt>
      <trkpt lat="47.5275" lon="6.77254">
        <ele>384</ele>
        <time>2015-11-01T11:09:53.000Z</time>
      </trkpt>
      <trkpt lat="47.52747" lon="6.77253">
        <ele>385</ele>
        <time>2015-11-01T11:09:54.000Z</time>
      </trkpt>
      <trkpt lat="47.52744" lon="6.77254">
        <ele>385</ele>
        <time>2015-11-01T11:09:55.000Z</time>
      </trkpt>
      <trkpt lat="47.52741" lon="6.77254">
        <ele>386</ele>
        <time>2015-11-01T11:09:56.000Z</time>
      </trkpt>
      <trkpt lat="47.52738" lon="6.77254">
        <ele>386</ele>
        <time>2015-11-01T11:09:57.000Z</time>
      </trkpt>
      <trkpt lat="47.52735" lon="6.77255">
        <ele>386</ele>
        <time>2015-11-01T11:09:58.000Z</time>
      </trkpt>
      <trkpt lat="47.52732" lon="6.77256">
        <ele>386</ele>
        <time>2015-11-01T11:09:59.000Z</time>
      </trkpt>
      <trkpt lat="47.52729" lon="6.77256">
        <ele>387</ele>
        <time>2015-11-01T11:10:00.000Z</time>
      </trkpt>
      <trkpt lat="47.52726" lon="6.77256">
        <ele>387</ele>
        <time>2015-11-01T11:10:01.000Z</time>
      </trkpt>
      <trkpt lat="47.52723" lon="6.77256">
        <ele>387</ele>
        <time>2015-11-01T11:10:02.000Z</time>
      </trkpt>
      <trkpt lat="47.5272" lon="6.77256">
        <ele>387</ele>
        <time>2015-11-01T11:10:03.000Z</time>
      </trkpt>
      <trkpt lat="47.52717" lon="6.77256">
        <ele>387</ele>
        <time>2015-11-01T11:10:04.000Z</time>
      </trkpt>
      <trkpt lat="47.52713" lon="6.77256">
        <ele>387</ele>
        <time>2015-11-01T11:10:06.000Z</time>
      </trkpt>
      <trkpt lat="47.52711" lon="6.77257">
        <ele>387</ele>
        <time>2015-11-01T11:10:07.000Z</time>
      </trkpt>
      <trkpt lat="47.52707" lon="6.77258">
        <ele>387</ele>
        <time>2015-11-01T11:10:09.000Z</time>
      </trkpt>
      <trkpt lat="47.52705" lon="6.77258">
        <ele>388</ele>
        <time>2015-11-01T11:10:10.000Z</time>
      </trkpt>
      <trkpt lat="47.52702" lon="6.77258">
        <ele>388</ele>
        <time>2015-11-01T11:10:11.000Z</time>
      </trkpt>
      <trkpt lat="47.52699" lon="6.77258">
        <ele>388</ele>
        <time>2015-11-01T11:10:12.000Z</time>
      </trkpt>
      <trkpt lat="47.52696" lon="6.77259">
        <ele>388</ele>
        <time>2015-11-01T11:10:13.000Z</time>
      </trkpt>
      <trkpt lat="47.52693" lon="6.77259">
        <ele>388</ele>
        <time>2015-11-01T11:10:14.000Z</time>
      </trkpt>
      <trkpt lat="47.5269" lon="6.77259">
        <ele>387</ele>
        <time>2015-11-01T11:10:15.000Z</time>
      </trkpt>
      <trkpt lat="47.52687" lon="6.7726">
        <ele>387</ele>
        <time>2015-11-01T11:10:16.000Z</time>
      </trkpt>
      <trkpt lat="47.52684" lon="6.77262">
        <ele>387</ele>
        <time>2015-11-01T11:10:17.000Z</time>
      </trkpt>
      <trkpt lat="47.52681" lon="6.77265">
        <ele>387</ele>
        <time>2015-11-01T11:10:18.000Z</time>
      </trkpt>
      <trkpt lat="47.52678" lon="6.77267">
        <ele>388</ele>
        <time>2015-11-01T11:10:19.000Z</time>
      </trkpt>
      <trkpt lat="47.52676" lon="6.77269">
        <ele>388</ele>
        <time>2015-11-01T11:10:20.000Z</time>
      </trkpt>
      <trkpt lat="47.52673" lon="6.77273">
        <ele>388</ele>
        <time>2015-11-01T11:10:22.000Z</time>
      </trkpt>
      <trkpt lat="47.52671" lon="6.77274">
        <ele>388</ele>
        <time>2015-11-01T11:10:23.000Z</time>
      </trkpt>
      <trkpt lat="47.52669" lon="6.77276">
        <ele>388</ele>
        <time>2015-11-01T11:10:24.000Z</time>
      </trkpt>
      <trkpt lat="47.52667" lon="6.77277">
        <ele>388</ele>
        <time>2015-11-01T11:10:25.000Z</time>
      </trkpt>
      <trkpt lat="47.52664" lon="6.77278">
        <ele>387</ele>
        <time>2015-11-01T11:10:26.000Z</time>
      </trkpt>
      <trkpt lat="47.52661" lon="6.7728">
        <ele>388</ele>
        <time>2015-11-01T11:10:27.000Z</time>
      </trkpt>
      <trkpt lat="47.52658" lon="6.77282">
        <ele>388</ele>
        <time>2015-11-01T11:10:28.000Z</time>
      </trkpt>
      <trkpt lat="47.52655" lon="6.77284">
        <ele>388</ele>
        <time>2015-11-01T11:10:29.000Z</time>
      </trkpt>
      <trkpt lat="47.52651" lon="6.77286">
        <ele>388</ele>
        <time>2015-11-01T11:10:30.000Z</time>
      </trkpt>
      <trkpt lat="47.52648" lon="6.77287">
        <ele>388</ele>
        <time>2015-11-01T11:10:31.000Z</time>
      </trkpt>
      <trkpt lat="47.52644" lon="6.77289">
        <ele>388</ele>
        <time>2015-11-01T11:10:32.000Z</time>
      </trkpt>
      <trkpt lat="47.52641" lon="6.7729">
        <ele>388</ele>
        <time>2015-11-01T11:10:33.000Z</time>
      </trkpt>
      <trkpt lat="47.52638" lon="6.77292">
        <ele>388</ele>
        <time>2015-11-01T11:10:34.000Z</time>
      </trkpt>
      <trkpt lat="47.52635" lon="6.77295">
        <ele>388</ele>
        <time>2015-11-01T11:10:35.000Z</time>
      </trkpt>
      <trkpt lat="47.52632" lon="6.77296">
        <ele>388</ele>
        <time>2015-11-01T11:10:36.000Z</time>
      </trkpt>
      <trkpt lat="47.52629" lon="6.77299">
        <ele>388</ele>
        <time>2015-11-01T11:10:37.000Z</time>
      </trkpt>
      <trkpt lat="47.52626" lon="6.77301">
        <ele>388</ele>
        <time>2015-11-01T11:10:38.000Z</time>
      </trkpt>
      <trkpt lat="47.52623" lon="6.77303">
        <ele>388</ele>
        <time>2015-11-01T11:10:39.000Z</time>
      </trkpt>
      <trkpt lat="47.52621" lon="6.77305">
        <ele>388</ele>
        <time>2015-11-01T11:10:40.000Z</time>
      </trkpt>
      <trkpt lat="47.52618" lon="6.77307">
        <ele>388</ele>
        <time>2015-11-01T11:10:41.000Z</time>
      </trkpt>
      <trkpt lat="47.52616" lon="6.77309">
        <ele>388</ele>
        <time>2015-11-01T11:10:42.000Z</time>
      </trkpt>
      <trkpt lat="47.52613" lon="6.77311">
        <ele>387</ele>
        <time>2015-11-01T11:10:43.000Z</time>
      </trkpt>
      <trkpt lat="47.5261" lon="6.77314">
        <ele>387</ele>
        <time>2015-11-01T11:10:44.000Z</time>
      </trkpt>
      <trkpt lat="47.52606" lon="6.77317">
        <ele>387</ele>
        <time>2015-11-01T11:10:45.000Z</time>
      </trkpt>
      <trkpt lat="47.52603" lon="6.7732">
        <ele>387</ele>
        <time>2015-11-01T11:10:46.000Z</time>
      </trkpt>
      <trkpt lat="47.52601" lon="6.77323">
        <ele>387</ele>
        <time>2015-11-01T11:10:47.000Z</time>
      </trkpt>
      <trkpt lat="47.52598" lon="6.77326">
        <ele>387</ele>
        <time>2015-11-01T11:10:48.000Z</time>
      </trkpt>
      <trkpt lat="47.52596" lon="6.77328">
        <ele>387</ele>
        <time>2015-11-01T11:10:49.000Z</time>
      </trkpt>
      <trkpt lat="47.52593" lon="6.7733">
        <ele>387</ele>
        <time>2015-11-01T11:10:50.000Z</time>
      </trkpt>
      <trkpt lat="47.5259" lon="6.77332">
        <ele>386</ele>
        <time>2015-11-01T11:10:51.000Z</time>
      </trkpt>
      <trkpt lat="47.52586" lon="6.77335">
        <ele>387</ele>
        <time>2015-11-01T11:10:52.000Z</time>
      </trkpt>
      <trkpt lat="47.52582" lon="6.77337">
        <ele>386</ele>
        <time>2015-11-01T11:10:53.000Z</time>
      </trkpt>
      <trkpt lat="47.52578" lon="6.7734">
        <ele>387</ele>
        <time>2015-11-01T11:10:54.000Z</time>
      </trkpt>
      <trkpt lat="47.52574" lon="6.77343">
        <ele>387</ele>
        <time>2015-11-01T11:10:55.000Z</time>
      </trkpt>
      <trkpt lat="47.5257" lon="6.77345">
        <ele>387</ele>
        <time>2015-11-01T11:10:56.000Z</time>
      </trkpt>
      <trkpt lat="47.52566" lon="6.77347">
        <ele>387</ele>
        <time>2015-11-01T11:10:57.000Z</time>
      </trkpt>
      <trkpt lat="47.52562" lon="6.77349">
        <ele>388</ele>
        <time>2015-11-01T11:10:58.000Z</time>
      </trkpt>
      <trkpt lat="47.52558" lon="6.77352">
        <ele>388</ele>
        <time>2015-11-01T11:10:59.000Z</time>
      </trkpt>
      <trkpt lat="47.52555" lon="6.77354">
        <ele>388</ele>
        <time>2015-11-01T11:11:00.000Z</time>
      </trkpt>
      <trkpt lat="47.52551" lon="6.77356">
        <ele>388</ele>
        <time>2015-11-01T11:11:01.000Z</time>
      </trkpt>
      <trkpt lat="47.52548" lon="6.77358">
        <ele>388</ele>
        <time>2015-11-01T11:11:02.000Z</time>
      </trkpt>
      <trkpt lat="47.52545" lon="6.77361">
        <ele>388</ele>
        <time>2015-11-01T11:11:03.000Z</time>
      </trkpt>
      <trkpt lat="47.52541" lon="6.77363">
        <ele>388</ele>
        <time>2015-11-01T11:11:04.000Z</time>
      </trkpt>
      <trkpt lat="47.52537" lon="6.77365">
        <ele>388</ele>
        <time>2015-11-01T11:11:05.000Z</time>
      </trkpt>
      <trkpt lat="47.52534" lon="6.77368">
        <ele>388</ele>
        <time>2015-11-01T11:11:06.000Z</time>
      </trkpt>
      <trkpt lat="47.52531" lon="6.7737">
        <ele>388</ele>
        <time>2015-11-01T11:11:07.000Z</time>
      </trkpt>
      <trkpt lat="47.52528" lon="6.77373">
        <ele>388</ele>
        <time>2015-11-01T11:11:08.000Z</time>
      </trkpt>
      <trkpt lat="47.52524" lon="6.77375">
        <ele>389</ele>
        <time>2015-11-01T11:11:09.000Z</time>
      </trkpt>
      <trkpt lat="47.52519" lon="6.77378">
        <ele>389</ele>
        <time>2015-11-01T11:11:10.000Z</time>
      </trkpt>
      <trkpt lat="47.52515" lon="6.77381">
        <ele>389</ele>
        <time>2015-11-01T11:11:11.000Z</time>
      </trkpt>
      <trkpt lat="47.52511" lon="6.77384">
        <ele>389</ele>
        <time>2015-11-01T11:11:12.000Z</time>
      </trkpt>
      <trkpt lat="47.52507" lon="6.77386">
        <ele>389</ele>
        <time>2015-11-01T11:11:13.000Z</time>
      </trkpt>
      <trkpt lat="47.52503" lon="6.77388">
        <ele>389</ele>
        <time>2015-11-01T11:11:14.000Z</time>
      </trkpt>
      <trkpt lat="47.52499" lon="6.7739">
        <ele>390</ele>
        <time>2015-11-01T11:11:15.000Z</time>
      </trkpt>
      <trkpt lat="47.52495" lon="6.77391">
        <ele>390</ele>
        <time>2015-11-01T11:11:16.000Z</time>
      </trkpt>
      <trkpt lat="47.52492" lon="6.77393">
        <ele>391</ele>
        <time>2015-11-01T11:11:17.000Z</time>
      </trkpt>
      <trkpt lat="47.52488" lon="6.77394">
        <ele>391</ele>
        <time>2015-11-01T11:11:18.000Z</time>
      </trkpt>
      <trkpt lat="47.52486" lon="6.77396">
        <ele>391</ele>
        <time>2015-11-01T11:11:19.000Z</time>
      </trkpt>
      <trkpt lat="47.52483" lon="6.77397">
        <ele>391</ele>
        <time>2015-11-01T11:11:20.000Z</time>
      </trkpt>
      <trkpt lat="47.5248" lon="6.77398">
        <ele>391</ele>
        <time>2015-11-01T11:11:21.000Z</time>
      </trkpt>
      <trkpt lat="47.52478" lon="6.77399">
        <ele>391</ele>
        <time>2015-11-01T11:11:22.000Z</time>
      </trkpt>
      <trkpt lat="47.52474" lon="6.77401">
        <ele>391</ele>
        <time>2015-11-01T11:11:24.000Z</time>
      </trkpt>
      <trkpt lat="47.52472" lon="6.77402">
        <ele>391</ele>
        <time>2015-11-01T11:11:25.000Z</time>
      </trkpt>
      <trkpt lat="47.52469" lon="6.77403">
        <ele>391</ele>
        <time>2015-11-01T11:11:26.000Z</time>
      </trkpt>
      <trkpt lat="47.52467" lon="6.77404">
        <ele>391</ele>
        <time>2015-11-01T11:11:27.000Z</time>
      </trkpt>
      <trkpt lat="47.52464" lon="6.77405">
        <ele>391</ele>
        <time>2015-11-01T11:11:28.000Z</time>
      </trkpt>
      <trkpt lat="47.52461" lon="6.77406">
        <ele>391</ele>
        <time>2015-11-01T11:11:29.000Z</time>
      </trkpt>
      <trkpt lat="47.52458" lon="6.77407">
        <ele>391</ele>
        <time>2015-11-01T11:11:30.000Z</time>
      </trkpt>
      <trkpt lat="47.52455" lon="6.77408">
        <ele>391</ele>
        <time>2015-11-01T11:11:31.000Z</time>
      </trkpt>
      <trkpt lat="47.52453" lon="6.7741">
        <ele>391</ele>
        <time>2015-11-01T11:11:32.000Z</time>
      </trkpt>
      <trkpt lat="47.52451" lon="6.77411">
        <ele>391</ele>
        <time>2015-11-01T11:11:33.000Z</time>
      </trkpt>
      <trkpt lat="47.52448" lon="6.77416">
        <ele>391</ele>
        <time>2015-11-01T11:11:35.000Z</time>
      </trkpt>
      <trkpt lat="47.52446" lon="6.77419">
        <ele>393</ele>
        <time>2015-11-01T11:11:36.000Z</time>
      </trkpt>
      <trkpt lat="47.52443" lon="6.77423">
        <ele>393</ele>
        <time>2015-11-01T11:11:37.000Z</time>
      </trkpt>
      <trkpt lat="47.52441" lon="6.77426">
        <ele>393</ele>
        <time>2015-11-01T11:11:38.000Z</time>
      </trkpt>
      <trkpt lat="47.52438" lon="6.7743">
        <ele>393</ele>
        <time>2015-11-01T11:11:39.000Z</time>
      </trkpt>
      <trkpt lat="47.52436" lon="6.77434">
        <ele>393</ele>
        <time>2015-11-01T11:11:40.000Z</time>
      </trkpt>
      <trkpt lat="47.52433" lon="6.77438">
        <ele>393</ele>
        <time>2015-11-01T11:11:41.000Z</time>
      </trkpt>
      <trkpt lat="47.52431" lon="6.77442">
        <ele>393</ele>
        <time>2015-11-01T11:11:42.000Z</time>
      </trkpt>
      <trkpt lat="47.52429" lon="6.77445">
        <ele>393</ele>
        <time>2015-11-01T11:11:43.000Z</time>
      </trkpt>
      <trkpt lat="47.52428" lon="6.77448">
        <ele>393</ele>
        <time>2015-11-01T11:11:44.000Z</time>
      </trkpt>
      <trkpt lat="47.52427" lon="6.77451">
        <ele>393</ele>
        <time>2015-11-01T11:11:45.000Z</time>
      </trkpt>
      <trkpt lat="47.52425" lon="6.77454">
        <ele>393</ele>
        <time>2015-11-01T11:11:46.000Z</time>
      </trkpt>
      <trkpt lat="47.52423" lon="6.77456">
        <ele>393</ele>
        <time>2015-11-01T11:11:47.000Z</time>
      </trkpt>
      <trkpt lat="47.52421" lon="6.77459">
        <ele>392</ele>
        <time>2015-11-01T11:11:48.000Z</time>
      </trkpt>
      <trkpt lat="47.52419" lon="6.77462">
        <ele>392</ele>
        <time>2015-11-01T11:11:49.000Z</time>
      </trkpt>
      <trkpt lat="47.52417" lon="6.77465">
        <ele>392</ele>
        <time>2015-11-01T11:11:50.000Z</time>
      </trkpt>
      <trkpt lat="47.52414" lon="6.77469">
        <ele>391</ele>
        <time>2015-11-01T11:11:51.000Z</time>
      </trkpt>
      <trkpt lat="47.52412" lon="6.77471">
        <ele>391</ele>
        <time>2015-11-01T11:11:52.000Z</time>
      </trkpt>
      <trkpt lat="47.52409" lon="6.77474">
        <ele>391</ele>
        <time>2015-11-01T11:11:53.000Z</time>
      </trkpt>
      <trkpt lat="47.52406" lon="6.77476">
        <ele>391</ele>
        <time>2015-11-01T11:11:54.000Z</time>
      </trkpt>
      <trkpt lat="47.52403" lon="6.77478">
        <ele>391</ele>
        <time>2015-11-01T11:11:55.000Z</time>
      </trkpt>
      <trkpt lat="47.52401" lon="6.7748">
        <ele>391</ele>
        <time>2015-11-01T11:11:56.000Z</time>
      </trkpt>
      <trkpt lat="47.52398" lon="6.77482">
        <ele>391</ele>
        <time>2015-11-01T11:11:57.000Z</time>
      </trkpt>
      <trkpt lat="47.52394" lon="6.77484">
        <ele>391</ele>
        <time>2015-11-01T11:11:58.000Z</time>
      </trkpt>
      <trkpt lat="47.52391" lon="6.77486">
        <ele>391</ele>
        <time>2015-11-01T11:11:59.000Z</time>
      </trkpt>
      <trkpt lat="47.52387" lon="6.77488">
        <ele>391</ele>
        <time>2015-11-01T11:12:00.000Z</time>
      </trkpt>
      <trkpt lat="47.52383" lon="6.7749">
        <ele>391</ele>
        <time>2015-11-01T11:12:01.000Z</time>
      </trkpt>
      <trkpt lat="47.5238" lon="6.77491">
        <ele>391</ele>
        <time>2015-11-01T11:12:02.000Z</time>
      </trkpt>
      <trkpt lat="47.52376" lon="6.77493">
        <ele>391</ele>
        <time>2015-11-01T11:12:03.000Z</time>
      </trkpt>
      <trkpt lat="47.52373" lon="6.77495">
        <ele>391</ele>
        <time>2015-11-01T11:12:04.000Z</time>
      </trkpt>
      <trkpt lat="47.5237" lon="6.77497">
        <ele>391</ele>
        <time>2015-11-01T11:12:05.000Z</time>
      </trkpt>
      <trkpt lat="47.52367" lon="6.77498">
        <ele>391</ele>
        <time>2015-11-01T11:12:06.000Z</time>
      </trkpt>
      <trkpt lat="47.52363" lon="6.775">
        <ele>389</ele>
        <time>2015-11-01T11:12:07.000Z</time>
      </trkpt>
      <trkpt lat="47.5236" lon="6.77502">
        <ele>389</ele>
        <time>2015-11-01T11:12:08.000Z</time>
      </trkpt>
      <trkpt lat="47.52356" lon="6.77504">
        <ele>389</ele>
        <time>2015-11-01T11:12:09.000Z</time>
      </trkpt>
      <trkpt lat="47.52353" lon="6.77507">
        <ele>389</ele>
        <time>2015-11-01T11:12:10.000Z</time>
      </trkpt>
      <trkpt lat="47.52349" lon="6.77509">
        <ele>389</ele>
        <time>2015-11-01T11:12:11.000Z</time>
      </trkpt>
      <trkpt lat="47.52345" lon="6.77512">
        <ele>389</ele>
        <time>2015-11-01T11:12:12.000Z</time>
      </trkpt>
      <trkpt lat="47.52341" lon="6.77515">
        <ele>389</ele>
        <time>2015-11-01T11:12:13.000Z</time>
      </trkpt>
      <trkpt lat="47.52336" lon="6.77518">
        <ele>389</ele>
        <time>2015-11-01T11:12:14.000Z</time>
      </trkpt>
      <trkpt lat="47.52332" lon="6.77521">
        <ele>388</ele>
        <time>2015-11-01T11:12:15.000Z</time>
      </trkpt>
      <trkpt lat="47.52328" lon="6.77523">
        <ele>388</ele>
        <time>2015-11-01T11:12:16.000Z</time>
      </trkpt>
      <trkpt lat="47.52323" lon="6.77526">
        <ele>388</ele>
        <time>2015-11-01T11:12:17.000Z</time>
      </trkpt>
      <trkpt lat="47.52319" lon="6.77529">
        <ele>388</ele>
        <time>2015-11-01T11:12:18.000Z</time>
      </trkpt>
      <trkpt lat="47.52314" lon="6.77534">
        <ele>387</ele>
        <time>2015-11-01T11:12:19.000Z</time>
      </trkpt>
      <trkpt lat="47.52309" lon="6.77537">
        <ele>387</ele>
        <time>2015-11-01T11:12:20.000Z</time>
      </trkpt>
      <trkpt lat="47.52304" lon="6.7754">
        <ele>387</ele>
        <time>2015-11-01T11:12:21.000Z</time>
      </trkpt>
      <trkpt lat="47.523" lon="6.77542">
        <ele>387</ele>
        <time>2015-11-01T11:12:22.000Z</time>
      </trkpt>
      <trkpt lat="47.52295" lon="6.77545">
        <ele>387</ele>
        <time>2015-11-01T11:12:23.000Z</time>
      </trkpt>
      <trkpt lat="47.52291" lon="6.77548">
        <ele>387</ele>
        <time>2015-11-01T11:12:24.000Z</time>
      </trkpt>
      <trkpt lat="47.52286" lon="6.7755">
        <ele>387</ele>
        <time>2015-11-01T11:12:25.000Z</time>
      </trkpt>
      <trkpt lat="47.52282" lon="6.77553">
        <ele>387</ele>
        <time>2015-11-01T11:12:26.000Z</time>
      </trkpt>
      <trkpt lat="47.52277" lon="6.77555">
        <ele>387</ele>
        <time>2015-11-01T11:12:27.000Z</time>
      </trkpt>
      <trkpt lat="47.52273" lon="6.77558">
        <ele>387</ele>
        <time>2015-11-01T11:12:28.000Z</time>
      </trkpt>
      <trkpt lat="47.52269" lon="6.77561">
        <ele>387</ele>
        <time>2015-11-01T11:12:29.000Z</time>
      </trkpt>
      <trkpt lat="47.52264" lon="6.77564">
        <ele>387</ele>
        <time>2015-11-01T11:12:30.000Z</time>
      </trkpt>
      <trkpt lat="47.52259" lon="6.77567">
        <ele>387</ele>
        <time>2015-11-01T11:12:31.000Z</time>
      </trkpt>
      <trkpt lat="47.52254" lon="6.7757">
        <ele>387</ele>
        <time>2015-11-01T11:12:32.000Z</time>
      </trkpt>
      <trkpt lat="47.52249" lon="6.77573">
        <ele>386</ele>
        <time>2015-11-01T11:12:33.000Z</time>
      </trkpt>
      <trkpt lat="47.52247" lon="6.77576">
        <ele>386</ele>
        <time>2015-11-01T11:12:34.000Z</time>
      </trkpt>
      <trkpt lat="47.52242" lon="6.77579">
        <ele>386</ele>
        <time>2015-11-01T11:12:35.000Z</time>
      </trkpt>
      <trkpt lat="47.52237" lon="6.77583">
        <ele>387</ele>
        <time>2015-11-01T11:12:36.000Z</time>
      </trkpt>
      <trkpt lat="47.52232" lon="6.77586">
        <ele>386</ele>
        <time>2015-11-01T11:12:37.000Z</time>
      </trkpt>
      <trkpt lat="47.52226" lon="6.7759">
        <ele>386</ele>
        <time>2015-11-01T11:12:38.000Z</time>
      </trkpt>
      <trkpt lat="47.52221" lon="6.77594">
        <ele>386</ele>
        <time>2015-11-01T11:12:39.000Z</time>
      </trkpt>
      <trkpt lat="47.52215" lon="6.77597">
        <ele>387</ele>
        <time>2015-11-01T11:12:40.000Z</time>
      </trkpt>
      <trkpt lat="47.5221" lon="6.77601">
        <ele>387</ele>
        <time>2015-11-01T11:12:41.000Z</time>
      </trkpt>
      <trkpt lat="47.52205" lon="6.77605">
        <ele>387</ele>
        <time>2015-11-01T11:12:42.000Z</time>
      </trkpt>
      <trkpt lat="47.52199" lon="6.77608">
        <ele>387</ele>
        <time>2015-11-01T11:12:43.000Z</time>
      </trkpt>
      <trkpt lat="47.52194" lon="6.77612">
        <ele>387</ele>
        <time>2015-11-01T11:12:44.000Z</time>
      </trkpt>
      <trkpt lat="47.52189" lon="6.77616">
        <ele>387</ele>
        <time>2015-11-01T11:12:45.000Z</time>
      </trkpt>
      <trkpt lat="47.52184" lon="6.7762">
        <ele>387</ele>
        <time>2015-11-01T11:12:46.000Z</time>
      </trkpt>
      <trkpt lat="47.52179" lon="6.77623">
        <ele>387</ele>
        <time>2015-11-01T11:12:47.000Z</time>
      </trkpt>
      <trkpt lat="47.52174" lon="6.77627">
        <ele>387</ele>
        <time>2015-11-01T11:12:48.000Z</time>
      </trkpt>
      <trkpt lat="47.52169" lon="6.77631">
        <ele>387</ele>
        <time>2015-11-01T11:12:49.000Z</time>
      </trkpt>
      <trkpt lat="47.52164" lon="6.77634">
        <ele>390</ele>
        <time>2015-11-01T11:12:50.000Z</time>
      </trkpt>
      <trkpt lat="47.5216" lon="6.77637">
        <ele>390</ele>
        <time>2015-11-01T11:12:51.000Z</time>
      </trkpt>
      <trkpt lat="47.52155" lon="6.77638">
        <ele>390</ele>
        <time>2015-11-01T11:12:52.000Z</time>
      </trkpt>
      <trkpt lat="47.52151" lon="6.77641">
        <ele>390</ele>
        <time>2015-11-01T11:12:53.000Z</time>
      </trkpt>
      <trkpt lat="47.52146" lon="6.77644">
        <ele>390</ele>
        <time>2015-11-01T11:12:54.000Z</time>
      </trkpt>
      <trkpt lat="47.52142" lon="6.77646">
        <ele>390</ele>
        <time>2015-11-01T11:12:55.000Z</time>
      </trkpt>
      <trkpt lat="47.52138" lon="6.77649">
        <ele>390</ele>
        <time>2015-11-01T11:12:56.000Z</time>
      </trkpt>
      <trkpt lat="47.52133" lon="6.77651">
        <ele>390</ele>
        <time>2015-11-01T11:12:57.000Z</time>
      </trkpt>
      <trkpt lat="47.52129" lon="6.77652">
        <ele>391</ele>
        <time>2015-11-01T11:12:58.000Z</time>
      </trkpt>
      <trkpt lat="47.52126" lon="6.77654">
        <ele>391</ele>
        <time>2015-11-01T11:12:59.000Z</time>
      </trkpt>
      <trkpt lat="47.52122" lon="6.77656">
        <ele>391</ele>
        <time>2015-11-01T11:13:00.000Z</time>
      </trkpt>
      <trkpt lat="47.52119" lon="6.77658">
        <ele>391</ele>
        <time>2015-11-01T11:13:01.000Z</time>
      </trkpt>
      <trkpt lat="47.52115" lon="6.77661">
        <ele>391</ele>
        <time>2015-11-01T11:13:02.000Z</time>
      </trkpt>
      <trkpt lat="47.52112" lon="6.77663">
        <ele>391</ele>
        <time>2015-11-01T11:13:03.000Z</time>
      </trkpt>
      <trkpt lat="47.52108" lon="6.77666">
        <ele>391</ele>
        <time>2015-11-01T11:13:04.000Z</time>
      </trkpt>
      <trkpt lat="47.52105" lon="6.77669">
        <ele>392</ele>
        <time>2015-11-01T11:13:05.000Z</time>
      </trkpt>
      <trkpt lat="47.52101" lon="6.77671">
        <ele>392</ele>
        <time>2015-11-01T11:13:06.000Z</time>
      </trkpt>
      <trkpt lat="47.52098" lon="6.77673">
        <ele>392</ele>
        <time>2015-11-01T11:13:07.000Z</time>
      </trkpt>
      <trkpt lat="47.52095" lon="6.77674">
        <ele>392</ele>
        <time>2015-11-01T11:13:08.000Z</time>
      </trkpt>
      <trkpt lat="47.52093" lon="6.77673">
        <ele>392</ele>
        <time>2015-11-01T11:13:09.000Z</time>
      </trkpt>
      <trkpt lat="47.52091" lon="6.7767">
        <ele>392</ele>
        <time>2015-11-01T11:13:10.000Z</time>
      </trkpt>
      <trkpt lat="47.5209" lon="6.77665">
        <ele>392</ele>
        <time>2015-11-01T11:13:11.000Z</time>
      </trkpt>
      <trkpt lat="47.52091" lon="6.77659">
        <ele>392</ele>
        <time>2015-11-01T11:13:12.000Z</time>
      </trkpt>
      <trkpt lat="47.52091" lon="6.77652">
        <ele>392</ele>
        <time>2015-11-01T11:13:13.000Z</time>
      </trkpt>
      <trkpt lat="47.52092" lon="6.77645">
        <ele>392</ele>
        <time>2015-11-01T11:13:14.000Z</time>
      </trkpt>
      <trkpt lat="47.52093" lon="6.77639">
        <ele>391</ele>
        <time>2015-11-01T11:13:15.000Z</time>
      </trkpt>
      <trkpt lat="47.52093" lon="6.77632">
        <ele>391</ele>
        <time>2015-11-01T11:13:16.000Z</time>
      </trkpt>
      <trkpt lat="47.52094" lon="6.77626">
        <ele>391</ele>
        <time>2015-11-01T11:13:17.000Z</time>
      </trkpt>
      <trkpt lat="47.52094" lon="6.7762">
        <ele>391</ele>
        <time>2015-11-01T11:13:18.000Z</time>
      </trkpt>
      <trkpt lat="47.52094" lon="6.77613">
        <ele>391</ele>
        <time>2015-11-01T11:13:19.000Z</time>
      </trkpt>
      <trkpt lat="47.52094" lon="6.77607">
        <ele>391</ele>
        <time>2015-11-01T11:13:20.000Z</time>
      </trkpt>
      <trkpt lat="47.52094" lon="6.77602">
        <ele>391</ele>
        <time>2015-11-01T11:13:21.000Z</time>
      </trkpt>
      <trkpt lat="47.52095" lon="6.77596">
        <ele>391</ele>
        <time>2015-11-01T11:13:22.000Z</time>
      </trkpt>
      <trkpt lat="47.52095" lon="6.77591">
        <ele>391</ele>
        <time>2015-11-01T11:13:23.000Z</time>
      </trkpt>
      <trkpt lat="47.52095" lon="6.77585">
        <ele>391</ele>
        <time>2015-11-01T11:13:24.000Z</time>
      </trkpt>
      <trkpt lat="47.52095" lon="6.7758">
        <ele>391</ele>
        <time>2015-11-01T11:13:25.000Z</time>
      </trkpt>
      <trkpt lat="47.52095" lon="6.77574">
        <ele>391</ele>
        <time>2015-11-01T11:13:26.000Z</time>
      </trkpt>
      <trkpt lat="47.52094" lon="6.77569">
        <ele>390</ele>
        <time>2015-11-01T11:13:27.000Z</time>
      </trkpt>
      <trkpt lat="47.52093" lon="6.77563">
        <ele>390</ele>
        <time>2015-11-01T11:13:28.000Z</time>
      </trkpt>
      <trkpt lat="47.52091" lon="6.77558">
        <ele>390</ele>
        <time>2015-11-01T11:13:29.000Z</time>
      </trkpt>
      <trkpt lat="47.52088" lon="6.77555">
        <ele>390</ele>
        <time>2015-11-01T11:13:30.000Z</time>
      </trkpt>
      <trkpt lat="47.52084" lon="6.77552">
        <ele>390</ele>
        <time>2015-11-01T11:13:31.000Z</time>
      </trkpt>
      <trkpt lat="47.5208" lon="6.7755">
        <ele>391</ele>
        <time>2015-11-01T11:13:32.000Z</time>
      </trkpt>
      <trkpt lat="47.52075" lon="6.77549">
        <ele>391</ele>
        <time>2015-11-01T11:13:33.000Z</time>
      </trkpt>
      <trkpt lat="47.52071" lon="6.77548">
        <ele>391</ele>
        <time>2015-11-01T11:13:34.000Z</time>
      </trkpt>
      <trkpt lat="47.52066" lon="6.77548">
        <ele>391</ele>
        <time>2015-11-01T11:13:35.000Z</time>
      </trkpt>
      <trkpt lat="47.52062" lon="6.77547">
        <ele>391</ele>
        <time>2015-11-01T11:13:36.000Z</time>
      </trkpt>
      <trkpt lat="47.52058" lon="6.77547">
        <ele>391</ele>
        <time>2015-11-01T11:13:37.000Z</time>
      </trkpt>
      <trkpt lat="47.52053" lon="6.77546">
        <ele>391</ele>
        <time>2015-11-01T11:13:38.000Z</time>
      </trkpt>
      <trkpt lat="47.52049" lon="6.77546">
        <ele>391</ele>
        <time>2015-11-01T11:13:39.000Z</time>
      </trkpt>
      <trkpt lat="47.52046" lon="6.77545">
        <ele>391</ele>
        <time>2015-11-01T11:13:40.000Z</time>
      </trkpt>
      <trkpt lat="47.52042" lon="6.77544">
        <ele>391</ele>
        <time>2015-11-01T11:13:41.000Z</time>
      </trkpt>
      <trkpt lat="47.52038" lon="6.77543">
        <ele>391</ele>
        <time>2015-11-01T11:13:42.000Z</time>
      </trkpt>
      <trkpt lat="47.52034" lon="6.77542">
        <ele>391</ele>
        <time>2015-11-01T11:13:43.000Z</time>
      </trkpt>
      <trkpt lat="47.5203" lon="6.77542">
        <ele>390</ele>
        <time>2015-11-01T11:13:44.000Z</time>
      </trkpt>
      <trkpt lat="47.52026" lon="6.77541">
        <ele>390</ele>
        <time>2015-11-01T11:13:45.000Z</time>
      </trkpt>
      <trkpt lat="47.52021" lon="6.7754">
        <ele>390</ele>
        <time>2015-11-01T11:13:46.000Z</time>
      </trkpt>
      <trkpt lat="47.52017" lon="6.77539">
        <ele>390</ele>
        <time>2015-11-01T11:13:47.000Z</time>
      </trkpt>
      <trkpt lat="47.52012" lon="6.77538">
        <ele>390</ele>
        <time>2015-11-01T11:13:48.000Z</time>
      </trkpt>
      <trkpt lat="47.52007" lon="6.77537">
        <ele>390</ele>
        <time>2015-11-01T11:13:49.000Z</time>
      </trkpt>
      <trkpt lat="47.52003" lon="6.77536">
        <ele>390</ele>
        <time>2015-11-01T11:13:50.000Z</time>
      </trkpt>
      <trkpt lat="47.51998" lon="6.77535">
        <ele>390</ele>
        <time>2015-11-01T11:13:51.000Z</time>
      </trkpt>
      <trkpt lat="47.51993" lon="6.77534">
        <ele>390</ele>
        <time>2015-11-01T11:13:52.000Z</time>
      </trkpt>
      <trkpt lat="47.51988" lon="6.77533">
        <ele>390</ele>
        <time>2015-11-01T11:13:53.000Z</time>
      </trkpt>
      <trkpt lat="47.51985" lon="6.77532">
        <ele>390</ele>
        <time>2015-11-01T11:13:54.000Z</time>
      </trkpt>
      <trkpt lat="47.5198" lon="6.77531">
        <ele>390</ele>
        <time>2015-11-01T11:13:55.000Z</time>
      </trkpt>
      <trkpt lat="47.51976" lon="6.77531">
        <ele>390</ele>
        <time>2015-11-01T11:13:56.000Z</time>
      </trkpt>
      <trkpt lat="47.51972" lon="6.7753">
        <ele>390</ele>
        <time>2015-11-01T11:13:57.000Z</time>
      </trkpt>
      <trkpt lat="47.51967" lon="6.77529">
        <ele>390</ele>
        <time>2015-11-01T11:13:58.000Z</time>
      </trkpt>
      <trkpt lat="47.51963" lon="6.77528">
        <ele>390</ele>
        <time>2015-11-01T11:13:59.000Z</time>
      </trkpt>
      <trkpt lat="47.51958" lon="6.77527">
        <ele>390</ele>
        <time>2015-11-01T11:14:00.000Z</time>
      </trkpt>
      <trkpt lat="47.51954" lon="6.77526">
        <ele>390</ele>
        <time>2015-11-01T11:14:01.000Z</time>
      </trkpt>
      <trkpt lat="47.5195" lon="6.77525">
        <ele>390</ele>
        <time>2015-11-01T11:14:02.000Z</time>
      </trkpt>
      <trkpt lat="47.51946" lon="6.77524">
        <ele>390</ele>
        <time>2015-11-01T11:14:03.000Z</time>
      </trkpt>
      <trkpt lat="47.51942" lon="6.77523">
        <ele>390</ele>
        <time>2015-11-01T11:14:04.000Z</time>
      </trkpt>
      <trkpt lat="47.51938" lon="6.77522">
        <ele>389</ele>
        <time>2015-11-01T11:14:05.000Z</time>
      </trkpt>
      <trkpt lat="47.51935" lon="6.77522">
        <ele>389</ele>
        <time>2015-11-01T11:14:06.000Z</time>
      </trkpt>
      <trkpt lat="47.51931" lon="6.77521">
        <ele>389</ele>
        <time>2015-11-01T11:14:07.000Z</time>
      </trkpt>
      <trkpt lat="47.51928" lon="6.77521">
        <ele>389</ele>
        <time>2015-11-01T11:14:08.000Z</time>
      </trkpt>
      <trkpt lat="47.51926" lon="6.77521">
        <ele>389</ele>
        <time>2015-11-01T11:14:09.000Z</time>
      </trkpt>
      <trkpt lat="47.51923" lon="6.7752">
        <ele>389</ele>
        <time>2015-11-01T11:14:10.000Z</time>
      </trkpt>
      <trkpt lat="47.51921" lon="6.7752">
        <ele>389</ele>
        <time>2015-11-01T11:14:11.000Z</time>
      </trkpt>
      <trkpt lat="47.51918" lon="6.77519">
        <ele>389</ele>
        <time>2015-11-01T11:14:12.000Z</time>
      </trkpt>
      <trkpt lat="47.51917" lon="6.77518">
        <ele>388</ele>
        <time>2015-11-01T11:14:13.000Z</time>
      </trkpt>
      <trkpt lat="47.51914" lon="6.77518">
        <ele>388</ele>
        <time>2015-11-01T11:14:14.000Z</time>
      </trkpt>
      <trkpt lat="47.51911" lon="6.77517">
        <ele>388</ele>
        <time>2015-11-01T11:14:15.000Z</time>
      </trkpt>
      <trkpt lat="47.51907" lon="6.77517">
        <ele>388</ele>
        <time>2015-11-01T11:14:16.000Z</time>
      </trkpt>
      <trkpt lat="47.51903" lon="6.77516">
        <ele>388</ele>
        <time>2015-11-01T11:14:17.000Z</time>
      </trkpt>
      <trkpt lat="47.51898" lon="6.77515">
        <ele>388</ele>
        <time>2015-11-01T11:14:18.000Z</time>
      </trkpt>
      <trkpt lat="47.51894" lon="6.77513">
        <ele>388</ele>
        <time>2015-11-01T11:14:19.000Z</time>
      </trkpt>
      <trkpt lat="47.5189" lon="6.77512">
        <ele>388</ele>
        <time>2015-11-01T11:14:20.000Z</time>
      </trkpt>
      <trkpt lat="47.51885" lon="6.7751">
        <ele>388</ele>
        <time>2015-11-01T11:14:21.000Z</time>
      </trkpt>
      <trkpt lat="47.5188" lon="6.77509">
        <ele>388</ele>
        <time>2015-11-01T11:14:22.000Z</time>
      </trkpt>
      <trkpt lat="47.51876" lon="6.77507">
        <ele>388</ele>
        <time>2015-11-01T11:14:23.000Z</time>
      </trkpt>
      <trkpt lat="47.51872" lon="6.77505">
        <ele>388</ele>
        <time>2015-11-01T11:14:24.000Z</time>
      </trkpt>
      <trkpt lat="47.51868" lon="6.77502">
        <ele>388</ele>
        <time>2015-11-01T11:14:25.000Z</time>
      </trkpt>
      <trkpt lat="47.51863" lon="6.77502">
        <ele>388</ele>
        <time>2015-11-01T11:14:26.000Z</time>
      </trkpt>
      <trkpt lat="47.51859" lon="6.77503">
        <ele>388</ele>
        <time>2015-11-01T11:14:27.000Z</time>
      </trkpt>
      <trkpt lat="47.51855" lon="6.77505">
        <ele>388</ele>
        <time>2015-11-01T11:14:28.000Z</time>
      </trkpt>
      <trkpt lat="47.5185" lon="6.77505">
        <ele>388</ele>
        <time>2015-11-01T11:14:29.000Z</time>
      </trkpt>
      <trkpt lat="47.51845" lon="6.77505">
        <ele>388</ele>
        <time>2015-11-01T11:14:30.000Z</time>
      </trkpt>
      <trkpt lat="47.51841" lon="6.77504">
        <ele>387</ele>
        <time>2015-11-01T11:14:31.000Z</time>
      </trkpt>
      <trkpt lat="47.51836" lon="6.77503">
        <ele>387</ele>
        <time>2015-11-01T11:14:32.000Z</time>
      </trkpt>
      <trkpt lat="47.51831" lon="6.77503">
        <ele>387</ele>
        <time>2015-11-01T11:14:33.000Z</time>
      </trkpt>
      <trkpt lat="47.51827" lon="6.77502">
        <ele>388</ele>
        <time>2015-11-01T11:14:34.000Z</time>
      </trkpt>
      <trkpt lat="47.51823" lon="6.77501">
        <ele>388</ele>
        <time>2015-11-01T11:14:35.000Z</time>
      </trkpt>
      <trkpt lat="47.5182" lon="6.775">
        <ele>388</ele>
        <time>2015-11-01T11:14:36.000Z</time>
      </trkpt>
      <trkpt lat="47.51817" lon="6.77499">
        <ele>387</ele>
        <time>2015-11-01T11:14:37.000Z</time>
      </trkpt>
      <trkpt lat="47.51814" lon="6.77498">
        <ele>387</ele>
        <time>2015-11-01T11:14:38.000Z</time>
      </trkpt>
      <trkpt lat="47.5181" lon="6.77497">
        <ele>388</ele>
        <time>2015-11-01T11:14:40.000Z</time>
      </trkpt>
      <trkpt lat="47.51809" lon="6.77495">
        <ele>388</ele>
        <time>2015-11-01T11:14:41.000Z</time>
      </trkpt>
      <trkpt lat="47.51807" lon="6.7749">
        <ele>388</ele>
        <time>2015-11-01T11:14:55.000Z</time>
      </trkpt>
      <trkpt lat="47.51806" lon="6.77488">
        <ele>388</ele>
        <time>2015-11-01T11:14:56.000Z</time>
      </trkpt>
      <trkpt lat="47.51804" lon="6.77486">
        <ele>388</ele>
        <time>2015-11-01T11:14:57.000Z</time>
      </trkpt>
      <trkpt lat="47.51801" lon="6.77483">
        <ele>388</ele>
        <time>2015-11-01T11:14:58.000Z</time>
      </trkpt>
      <trkpt lat="47.51798" lon="6.77481">
        <ele>388</ele>
        <time>2015-11-01T11:14:59.000Z</time>
      </trkpt>
      <trkpt lat="47.51795" lon="6.77479">
        <ele>388</ele>
        <time>2015-11-01T11:15:00.000Z</time>
      </trkpt>
      <trkpt lat="47.51799" lon="6.77478">
        <ele>388</ele>
        <time>2015-11-01T11:15:16.000Z</time>
      </trkpt>
      <trkpt lat="47.518" lon="6.77479">
        <ele>388</ele>
        <time>2015-11-01T11:15:17.000Z</time>
      </trkpt>
      <trkpt lat="47.51804" lon="6.77482">
        <ele>388</ele>
        <time>2015-11-01T11:15:22.000Z</time>
      </trkpt>
      <trkpt lat="47.51804" lon="6.77483">
        <ele>388</ele>
        <time>2015-11-01T11:15:23.000Z</time>
      </trkpt>
      <trkpt lat="47.51808" lon="6.77486">
        <ele>388</ele>
        <time>2015-11-01T11:15:38.000Z</time>
      </trkpt>
      <trkpt lat="47.51808" lon="6.77486">
        <ele>388</ele>
        <time>2015-11-01T11:15:39.000Z</time>
      </trkpt>
      <trkpt lat="47.51805" lon="6.77483">
        <ele>388</ele>
        <time>2015-11-01T11:15:45.000Z</time>
      </trkpt>
      <trkpt lat="47.51804" lon="6.77483">
        <ele>388</ele>
        <time>2015-11-01T11:15:46.000Z</time>
      </trkpt>
      <trkpt lat="47.51803" lon="6.77476">
        <ele>388</ele>
        <time>2015-11-01T11:16:20.000Z</time>
      </trkpt>
      <trkpt lat="47.51803" lon="6.77476">
        <ele>388</ele>
        <time>2015-11-01T11:16:21.000Z</time>
      </trkpt>
      <trkpt lat="47.518" lon="6.77481">
        <ele>388</ele>
        <time>2015-11-01T11:19:51.000Z</time>
      </trkpt>
      <trkpt lat="47.518" lon="6.77481">
        <ele>388</ele>
        <time>2015-11-01T11:19:52.000Z</time>
      </trkpt>
      <trkpt lat="47.51804" lon="6.77481">
        <ele>388</ele>
        <time>2015-11-01T11:20:06.000Z</time>
      </trkpt>
      <trkpt lat="47.51805" lon="6.77481">
        <ele>388</ele>
        <time>2015-11-01T11:20:07.000Z</time>
      </trkpt>
      <trkpt lat="47.51808" lon="6.77486">
        <ele>388</ele>
        <time>2015-11-01T11:20:25.000Z</time>
      </trkpt>
      <trkpt lat="47.51808" lon="6.77487">
        <ele>388</ele>
        <time>2015-11-01T11:20:26.000Z</time>
      </trkpt>
      <trkpt lat="47.51805" lon="6.77483">
        <ele>388</ele>
        <time>2015-11-01T11:20:38.000Z</time>
      </trkpt>
      <trkpt lat="47.51804" lon="6.77482">
        <ele>388</ele>
        <time>2015-11-01T11:20:39.000Z</time>
      </trkpt>
      <trkpt lat="47.51801" lon="6.77479">
        <ele>388</ele>
        <time>2015-11-01T11:20:43.000Z</time>
      </trkpt>
      <trkpt lat="47.518" lon="6.77479">
        <ele>388</ele>
        <time>2015-11-01T11:20:44.000Z</time>
      </trkpt>
      <trkpt lat="47.51796" lon="6.77475">
        <ele>388</ele>
        <time>2015-11-01T11:20:49.000Z</time>
      </trkpt>
      <trkpt lat="47.51796" lon="6.77475">
        <ele>388</ele>
        <time>2015-11-01T11:20:50.000Z</time>
      </trkpt>
      <trkpt lat="47.51795" lon="6.77475">
        <ele>388</ele>
        <time>2015-11-01T11:21:09.000Z</time>
      </trkpt>
    </trkseg>
  </trk>
</gpx>